<?xml version="1.0" encoding="UTF-8" standalone="no" ?>
<gpx xmlns="http://www.topografix.com/GPX/1/1" xmlns:xsi="http://www.w3.org/2001/XMLSchema-instance" xsi:schemaLocation="http://www.topografix.com/GPX/1/1 http://www.topografix.com/GPX/1/1/gpx.xsd" version="1.1" creator="VisuGPX - https://www.visugpx.com">
  <metadata>
    <name>La Gardonnette 2024</name>
  </metadata>
  <trk>
    <name><![CDATA[La Gardonnette 2024_1]]></name>
    <trkseg>
      <trkpt lat="44.78323" lon="0.44822">
        <ele>148.5</ele>
        <time>2024-07-14T06:01:46Z</time>
      </trkpt>
      <trkpt lat="44.78321" lon="0.44826">
        <ele>148.5</ele>
        <time>2024-07-14T06:01:47Z</time>
      </trkpt>
      <trkpt lat="44.7832" lon="0.44831">
        <ele>148.5</ele>
        <time>2024-07-14T06:01:48Z</time>
      </trkpt>
      <trkpt lat="44.78318" lon="0.44839">
        <ele>148.5</ele>
        <time>2024-07-14T06:01:50Z</time>
      </trkpt>
      <trkpt lat="44.78315" lon="0.44846">
        <ele>148.5</ele>
        <time>2024-07-14T06:01:52Z</time>
      </trkpt>
      <trkpt lat="44.78313" lon="0.44848">
        <ele>148.5</ele>
        <time>2024-07-14T06:01:53Z</time>
      </trkpt>
      <trkpt lat="44.7831" lon="0.44848">
        <ele>148.5</ele>
        <time>2024-07-14T06:01:54Z</time>
      </trkpt>
      <trkpt lat="44.78308" lon="0.44847">
        <ele>148.5</ele>
        <time>2024-07-14T06:01:55Z</time>
      </trkpt>
      <trkpt lat="44.78305" lon="0.44847">
        <ele>148.5</ele>
        <time>2024-07-14T06:01:56Z</time>
      </trkpt>
      <trkpt lat="44.783" lon="0.44844">
        <ele>148.4</ele>
        <time>2024-07-14T06:01:58Z</time>
      </trkpt>
      <trkpt lat="44.78295" lon="0.44842">
        <ele>148.4</ele>
        <time>2024-07-14T06:02:00Z</time>
      </trkpt>
      <trkpt lat="44.78288" lon="0.44843">
        <ele>148.4</ele>
        <time>2024-07-14T06:02:02Z</time>
      </trkpt>
      <trkpt lat="44.78285" lon="0.4485">
        <ele>148.4</ele>
        <time>2024-07-14T06:02:04Z</time>
      </trkpt>
      <trkpt lat="44.78284" lon="0.44855">
        <ele>148.3</ele>
        <time>2024-07-14T06:02:05Z</time>
      </trkpt>
      <trkpt lat="44.78282" lon="0.44859">
        <ele>148.3</ele>
        <time>2024-07-14T06:02:06Z</time>
      </trkpt>
      <trkpt lat="44.7828" lon="0.44868">
        <ele>148.3</ele>
        <time>2024-07-14T06:02:08Z</time>
      </trkpt>
      <trkpt lat="44.78277" lon="0.44877">
        <ele>148.2</ele>
        <time>2024-07-14T06:02:10Z</time>
      </trkpt>
      <trkpt lat="44.78275" lon="0.44886">
        <ele>148.1</ele>
        <time>2024-07-14T06:02:12Z</time>
      </trkpt>
      <trkpt lat="44.78272" lon="0.44895">
        <ele>148</ele>
        <time>2024-07-14T06:02:14Z</time>
      </trkpt>
      <trkpt lat="44.7827" lon="0.44897">
        <ele>147.9</ele>
        <time>2024-07-14T06:02:15Z</time>
      </trkpt>
      <trkpt lat="44.78266" lon="0.44898">
        <ele>147.8</ele>
        <time>2024-07-14T06:02:16Z</time>
      </trkpt>
      <trkpt lat="44.7826" lon="0.449">
        <ele>147.7</ele>
        <time>2024-07-14T06:02:18Z</time>
      </trkpt>
      <trkpt lat="44.78256" lon="0.44908">
        <ele>147.5</ele>
        <time>2024-07-14T06:02:20Z</time>
      </trkpt>
      <trkpt lat="44.78253" lon="0.44919">
        <ele>147.3</ele>
        <time>2024-07-14T06:02:22Z</time>
      </trkpt>
      <trkpt lat="44.7825" lon="0.4493">
        <ele>147.1</ele>
        <time>2024-07-14T06:02:24Z</time>
      </trkpt>
      <trkpt lat="44.78247" lon="0.44941">
        <ele>146.8</ele>
        <time>2024-07-14T06:02:26Z</time>
      </trkpt>
      <trkpt lat="44.78245" lon="0.44947">
        <ele>146.6</ele>
        <time>2024-07-14T06:02:27Z</time>
      </trkpt>
      <trkpt lat="44.78243" lon="0.44953">
        <ele>146.5</ele>
        <time>2024-07-14T06:02:28Z</time>
      </trkpt>
      <trkpt lat="44.7824" lon="0.44966">
        <ele>146.1</ele>
        <time>2024-07-14T06:02:30Z</time>
      </trkpt>
      <trkpt lat="44.78236" lon="0.44977">
        <ele>145.8</ele>
        <time>2024-07-14T06:02:32Z</time>
      </trkpt>
      <trkpt lat="44.78235" lon="0.44983">
        <ele>145.7</ele>
        <time>2024-07-14T06:02:33Z</time>
      </trkpt>
      <trkpt lat="44.78234" lon="0.44988">
        <ele>145.5</ele>
        <time>2024-07-14T06:02:34Z</time>
      </trkpt>
      <trkpt lat="44.78231" lon="0.44991">
        <ele>145.4</ele>
        <time>2024-07-14T06:02:35Z</time>
      </trkpt>
      <trkpt lat="44.78227" lon="0.44992">
        <ele>145.3</ele>
        <time>2024-07-14T06:02:36Z</time>
      </trkpt>
      <trkpt lat="44.78219" lon="0.44988">
        <ele>145</ele>
        <time>2024-07-14T06:02:38Z</time>
      </trkpt>
      <trkpt lat="44.78213" lon="0.44984">
        <ele>144.8</ele>
        <time>2024-07-14T06:02:40Z</time>
      </trkpt>
      <trkpt lat="44.78211" lon="0.44981">
        <ele>144.7</ele>
        <time>2024-07-14T06:02:41Z</time>
      </trkpt>
      <trkpt lat="44.7821" lon="0.44977">
        <ele>144.6</ele>
        <time>2024-07-14T06:02:42Z</time>
      </trkpt>
      <trkpt lat="44.78209" lon="0.44973">
        <ele>144.5</ele>
        <time>2024-07-14T06:02:43Z</time>
      </trkpt>
      <trkpt lat="44.7821" lon="0.44968">
        <ele>144.6</ele>
        <time>2024-07-14T06:02:44Z</time>
      </trkpt>
      <trkpt lat="44.78212" lon="0.44963">
        <ele>144.8</ele>
        <time>2024-07-14T06:02:45Z</time>
      </trkpt>
      <trkpt lat="44.78213" lon="0.44959">
        <ele>144.9</ele>
        <time>2024-07-14T06:02:46Z</time>
      </trkpt>
      <trkpt lat="44.78216" lon="0.4495">
        <ele>145.3</ele>
        <time>2024-07-14T06:02:48Z</time>
      </trkpt>
      <trkpt lat="44.78219" lon="0.44942">
        <ele>145.6</ele>
        <time>2024-07-14T06:02:50Z</time>
      </trkpt>
      <trkpt lat="44.78222" lon="0.44933">
        <ele>145.9</ele>
        <time>2024-07-14T06:02:52Z</time>
      </trkpt>
      <trkpt lat="44.78225" lon="0.44925">
        <ele>146.2</ele>
        <time>2024-07-14T06:02:54Z</time>
      </trkpt>
      <trkpt lat="44.78227" lon="0.44916">
        <ele>146.5</ele>
        <time>2024-07-14T06:02:56Z</time>
      </trkpt>
      <trkpt lat="44.78229" lon="0.44908">
        <ele>146.8</ele>
        <time>2024-07-14T06:02:58Z</time>
      </trkpt>
      <trkpt lat="44.78232" lon="0.44899">
        <ele>147.1</ele>
        <time>2024-07-14T06:03:00Z</time>
      </trkpt>
      <trkpt lat="44.78235" lon="0.44891">
        <ele>147.4</ele>
        <time>2024-07-14T06:03:02Z</time>
      </trkpt>
      <trkpt lat="44.78238" lon="0.44882">
        <ele>147.6</ele>
        <time>2024-07-14T06:03:04Z</time>
      </trkpt>
      <trkpt lat="44.7824" lon="0.44873">
        <ele>147.9</ele>
        <time>2024-07-14T06:03:06Z</time>
      </trkpt>
      <trkpt lat="44.78243" lon="0.44865">
        <ele>148</ele>
        <time>2024-07-14T06:03:08Z</time>
      </trkpt>
      <trkpt lat="44.78246" lon="0.44856">
        <ele>148.2</ele>
        <time>2024-07-14T06:03:10Z</time>
      </trkpt>
      <trkpt lat="44.7825" lon="0.44846">
        <ele>148.3</ele>
        <time>2024-07-14T06:03:12Z</time>
      </trkpt>
      <trkpt lat="44.78252" lon="0.44837">
        <ele>148.4</ele>
        <time>2024-07-14T06:03:14Z</time>
      </trkpt>
      <trkpt lat="44.78255" lon="0.44827">
        <ele>148.4</ele>
        <time>2024-07-14T06:03:16Z</time>
      </trkpt>
      <trkpt lat="44.78258" lon="0.44817">
        <ele>148.5</ele>
        <time>2024-07-14T06:03:18Z</time>
      </trkpt>
      <trkpt lat="44.78261" lon="0.44808">
        <ele>148.5</ele>
        <time>2024-07-14T06:03:20Z</time>
      </trkpt>
      <trkpt lat="44.78265" lon="0.44797">
        <ele>148.5</ele>
        <time>2024-07-14T06:03:22Z</time>
      </trkpt>
      <trkpt lat="44.78268" lon="0.44787">
        <ele>148.6</ele>
        <time>2024-07-14T06:03:24Z</time>
      </trkpt>
      <trkpt lat="44.7827" lon="0.44782">
        <ele>148.6</ele>
        <time>2024-07-14T06:03:25Z</time>
      </trkpt>
      <trkpt lat="44.78271" lon="0.44777">
        <ele>148.6</ele>
        <time>2024-07-14T06:03:26Z</time>
      </trkpt>
      <trkpt lat="44.78273" lon="0.44772">
        <ele>148.6</ele>
        <time>2024-07-14T06:03:27Z</time>
      </trkpt>
      <trkpt lat="44.78275" lon="0.44767">
        <ele>148.7</ele>
        <time>2024-07-14T06:03:28Z</time>
      </trkpt>
      <trkpt lat="44.78276" lon="0.44761">
        <ele>148.7</ele>
        <time>2024-07-14T06:03:29Z</time>
      </trkpt>
      <trkpt lat="44.78278" lon="0.44756">
        <ele>148.8</ele>
        <time>2024-07-14T06:03:30Z</time>
      </trkpt>
      <trkpt lat="44.78283" lon="0.44746">
        <ele>148.9</ele>
        <time>2024-07-14T06:03:32Z</time>
      </trkpt>
      <trkpt lat="44.78289" lon="0.44737">
        <ele>148.9</ele>
        <time>2024-07-14T06:03:34Z</time>
      </trkpt>
      <trkpt lat="44.78296" lon="0.44726">
        <ele>149</ele>
        <time>2024-07-14T06:03:36Z</time>
      </trkpt>
      <trkpt lat="44.78302" lon="0.44715">
        <ele>149</ele>
        <time>2024-07-14T06:03:38Z</time>
      </trkpt>
      <trkpt lat="44.78309" lon="0.44706">
        <ele>149.1</ele>
        <time>2024-07-14T06:03:40Z</time>
      </trkpt>
      <trkpt lat="44.78316" lon="0.44696">
        <ele>149.2</ele>
        <time>2024-07-14T06:03:42Z</time>
      </trkpt>
      <trkpt lat="44.78323" lon="0.44687">
        <ele>149.3</ele>
        <time>2024-07-14T06:03:44Z</time>
      </trkpt>
      <trkpt lat="44.78327" lon="0.44682">
        <ele>149.3</ele>
        <time>2024-07-14T06:03:45Z</time>
      </trkpt>
      <trkpt lat="44.7833" lon="0.44677">
        <ele>149.4</ele>
        <time>2024-07-14T06:03:46Z</time>
      </trkpt>
      <trkpt lat="44.78337" lon="0.44668">
        <ele>149.5</ele>
        <time>2024-07-14T06:03:48Z</time>
      </trkpt>
      <trkpt lat="44.78344" lon="0.44658">
        <ele>149.6</ele>
        <time>2024-07-14T06:03:50Z</time>
      </trkpt>
      <trkpt lat="44.78351" lon="0.44649">
        <ele>149.7</ele>
        <time>2024-07-14T06:03:52Z</time>
      </trkpt>
      <trkpt lat="44.78355" lon="0.44645">
        <ele>149.8</ele>
        <time>2024-07-14T06:03:53Z</time>
      </trkpt>
      <trkpt lat="44.78358" lon="0.4464">
        <ele>149.9</ele>
        <time>2024-07-14T06:03:54Z</time>
      </trkpt>
      <trkpt lat="44.78362" lon="0.44636">
        <ele>149.9</ele>
        <time>2024-07-14T06:03:55Z</time>
      </trkpt>
      <trkpt lat="44.78366" lon="0.44634">
        <ele>150</ele>
        <time>2024-07-14T06:03:56Z</time>
      </trkpt>
      <trkpt lat="44.78371" lon="0.44634">
        <ele>150</ele>
        <time>2024-07-14T06:03:57Z</time>
      </trkpt>
      <trkpt lat="44.78375" lon="0.44635">
        <ele>149.9</ele>
        <time>2024-07-14T06:03:58Z</time>
      </trkpt>
      <trkpt lat="44.78385" lon="0.44638">
        <ele>149.8</ele>
        <time>2024-07-14T06:04:00Z</time>
      </trkpt>
      <trkpt lat="44.78395" lon="0.4464">
        <ele>149.6</ele>
        <time>2024-07-14T06:04:02Z</time>
      </trkpt>
      <trkpt lat="44.784" lon="0.44641">
        <ele>149.5</ele>
        <time>2024-07-14T06:04:03Z</time>
      </trkpt>
      <trkpt lat="44.78405" lon="0.44642">
        <ele>149.4</ele>
        <time>2024-07-14T06:04:04Z</time>
      </trkpt>
      <trkpt lat="44.78414" lon="0.44644">
        <ele>149.1</ele>
        <time>2024-07-14T06:04:06Z</time>
      </trkpt>
      <trkpt lat="44.78424" lon="0.44646">
        <ele>148.8</ele>
        <time>2024-07-14T06:04:08Z</time>
      </trkpt>
      <trkpt lat="44.78429" lon="0.44647">
        <ele>148.7</ele>
        <time>2024-07-14T06:04:09Z</time>
      </trkpt>
      <trkpt lat="44.78434" lon="0.44648">
        <ele>148.5</ele>
        <time>2024-07-14T06:04:10Z</time>
      </trkpt>
      <trkpt lat="44.78443" lon="0.4465">
        <ele>148.2</ele>
        <time>2024-07-14T06:04:12Z</time>
      </trkpt>
      <trkpt lat="44.78453" lon="0.44651">
        <ele>148</ele>
        <time>2024-07-14T06:04:14Z</time>
      </trkpt>
      <trkpt lat="44.78462" lon="0.44652">
        <ele>147.7</ele>
        <time>2024-07-14T06:04:16Z</time>
      </trkpt>
      <trkpt lat="44.78467" lon="0.44652">
        <ele>147.6</ele>
        <time>2024-07-14T06:04:17Z</time>
      </trkpt>
      <trkpt lat="44.78471" lon="0.44653">
        <ele>147.4</ele>
        <time>2024-07-14T06:04:18Z</time>
      </trkpt>
      <trkpt lat="44.78478" lon="0.44653">
        <ele>147.2</ele>
        <time>2024-07-14T06:04:20Z</time>
      </trkpt>
      <trkpt lat="44.78485" lon="0.44654">
        <ele>147</ele>
        <time>2024-07-14T06:04:22Z</time>
      </trkpt>
      <trkpt lat="44.78493" lon="0.44654">
        <ele>146.7</ele>
        <time>2024-07-14T06:04:24Z</time>
      </trkpt>
      <trkpt lat="44.785" lon="0.44654">
        <ele>146.5</ele>
        <time>2024-07-14T06:04:26Z</time>
      </trkpt>
      <trkpt lat="44.78508" lon="0.44654">
        <ele>146.3</ele>
        <time>2024-07-14T06:04:28Z</time>
      </trkpt>
      <trkpt lat="44.78512" lon="0.44653">
        <ele>146.1</ele>
        <time>2024-07-14T06:04:29Z</time>
      </trkpt>
      <trkpt lat="44.78515" lon="0.44652">
        <ele>146</ele>
        <time>2024-07-14T06:04:30Z</time>
      </trkpt>
      <trkpt lat="44.78522" lon="0.44651">
        <ele>145.8</ele>
        <time>2024-07-14T06:04:32Z</time>
      </trkpt>
      <trkpt lat="44.78527" lon="0.44651">
        <ele>145.6</ele>
        <time>2024-07-14T06:04:33Z</time>
      </trkpt>
      <trkpt lat="44.78531" lon="0.4465">
        <ele>145.5</ele>
        <time>2024-07-14T06:04:34Z</time>
      </trkpt>
      <trkpt lat="44.78542" lon="0.4465">
        <ele>145</ele>
        <time>2024-07-14T06:04:36Z</time>
      </trkpt>
      <trkpt lat="44.78552" lon="0.4465">
        <ele>144.5</ele>
        <time>2024-07-14T06:04:38Z</time>
      </trkpt>
      <trkpt lat="44.78564" lon="0.44651">
        <ele>143.9</ele>
        <time>2024-07-14T06:04:40Z</time>
      </trkpt>
      <trkpt lat="44.78574" lon="0.44652">
        <ele>143.3</ele>
        <time>2024-07-14T06:04:42Z</time>
      </trkpt>
      <trkpt lat="44.78584" lon="0.44652">
        <ele>142.9</ele>
        <time>2024-07-14T06:04:44Z</time>
      </trkpt>
      <trkpt lat="44.78588" lon="0.4465">
        <ele>142.6</ele>
        <time>2024-07-14T06:04:45Z</time>
      </trkpt>
      <trkpt lat="44.78591" lon="0.44646">
        <ele>142.4</ele>
        <time>2024-07-14T06:04:46Z</time>
      </trkpt>
      <trkpt lat="44.786" lon="0.44637">
        <ele>141.9</ele>
        <time>2024-07-14T06:04:48Z</time>
      </trkpt>
      <trkpt lat="44.78604" lon="0.44632">
        <ele>141.7</ele>
        <time>2024-07-14T06:04:49Z</time>
      </trkpt>
      <trkpt lat="44.78608" lon="0.44627">
        <ele>141.4</ele>
        <time>2024-07-14T06:04:50Z</time>
      </trkpt>
      <trkpt lat="44.78618" lon="0.44618">
        <ele>141</ele>
        <time>2024-07-14T06:04:52Z</time>
      </trkpt>
      <trkpt lat="44.78629" lon="0.4461">
        <ele>140.5</ele>
        <time>2024-07-14T06:04:54Z</time>
      </trkpt>
      <trkpt lat="44.78639" lon="0.44602">
        <ele>140</ele>
        <time>2024-07-14T06:04:56Z</time>
      </trkpt>
      <trkpt lat="44.7865" lon="0.44595">
        <ele>139.6</ele>
        <time>2024-07-14T06:04:58Z</time>
      </trkpt>
      <trkpt lat="44.78655" lon="0.44591">
        <ele>139.4</ele>
        <time>2024-07-14T06:04:59Z</time>
      </trkpt>
      <trkpt lat="44.78661" lon="0.44588">
        <ele>139.2</ele>
        <time>2024-07-14T06:05:00Z</time>
      </trkpt>
      <trkpt lat="44.78671" lon="0.44584">
        <ele>139</ele>
        <time>2024-07-14T06:05:02Z</time>
      </trkpt>
      <trkpt lat="44.78676" lon="0.44581">
        <ele>138.9</ele>
        <time>2024-07-14T06:05:03Z</time>
      </trkpt>
      <trkpt lat="44.7868" lon="0.44578">
        <ele>138.7</ele>
        <time>2024-07-14T06:05:04Z</time>
      </trkpt>
      <trkpt lat="44.78685" lon="0.44569">
        <ele>138.5</ele>
        <time>2024-07-14T06:05:06Z</time>
      </trkpt>
      <trkpt lat="44.7869" lon="0.44559">
        <ele>138.3</ele>
        <time>2024-07-14T06:05:08Z</time>
      </trkpt>
      <trkpt lat="44.78695" lon="0.4455">
        <ele>138.2</ele>
        <time>2024-07-14T06:05:10Z</time>
      </trkpt>
      <trkpt lat="44.78698" lon="0.44545">
        <ele>138.1</ele>
        <time>2024-07-14T06:05:11Z</time>
      </trkpt>
      <trkpt lat="44.78701" lon="0.4454">
        <ele>137.9</ele>
        <time>2024-07-14T06:05:12Z</time>
      </trkpt>
      <trkpt lat="44.78705" lon="0.44527">
        <ele>137.8</ele>
        <time>2024-07-14T06:05:14Z</time>
      </trkpt>
      <trkpt lat="44.78708" lon="0.44521">
        <ele>137.7</ele>
        <time>2024-07-14T06:05:15Z</time>
      </trkpt>
      <trkpt lat="44.78712" lon="0.44517">
        <ele>137.6</ele>
        <time>2024-07-14T06:05:16Z</time>
      </trkpt>
      <trkpt lat="44.78716" lon="0.44515">
        <ele>137.6</ele>
        <time>2024-07-14T06:05:17Z</time>
      </trkpt>
      <trkpt lat="44.7872" lon="0.44515">
        <ele>137.6</ele>
        <time>2024-07-14T06:05:18Z</time>
      </trkpt>
      <trkpt lat="44.78725" lon="0.44516">
        <ele>137.6</ele>
        <time>2024-07-14T06:05:19Z</time>
      </trkpt>
      <trkpt lat="44.7873" lon="0.44518">
        <ele>137.6</ele>
        <time>2024-07-14T06:05:20Z</time>
      </trkpt>
      <trkpt lat="44.78738" lon="0.44522">
        <ele>137.7</ele>
        <time>2024-07-14T06:05:22Z</time>
      </trkpt>
      <trkpt lat="44.78745" lon="0.44525">
        <ele>137.7</ele>
        <time>2024-07-14T06:05:24Z</time>
      </trkpt>
      <trkpt lat="44.78749" lon="0.44525">
        <ele>137.7</ele>
        <time>2024-07-14T06:05:25Z</time>
      </trkpt>
      <trkpt lat="44.78752" lon="0.44522">
        <ele>137.7</ele>
        <time>2024-07-14T06:05:26Z</time>
      </trkpt>
      <trkpt lat="44.78754" lon="0.44518">
        <ele>137.6</ele>
        <time>2024-07-14T06:05:27Z</time>
      </trkpt>
      <trkpt lat="44.78757" lon="0.44514">
        <ele>137.5</ele>
        <time>2024-07-14T06:05:28Z</time>
      </trkpt>
      <trkpt lat="44.78763" lon="0.44505">
        <ele>137.2</ele>
        <time>2024-07-14T06:05:30Z</time>
      </trkpt>
      <trkpt lat="44.78767" lon="0.44493">
        <ele>136.8</ele>
        <time>2024-07-14T06:05:32Z</time>
      </trkpt>
      <trkpt lat="44.78765" lon="0.44478">
        <ele>136.2</ele>
        <time>2024-07-14T06:05:34Z</time>
      </trkpt>
      <trkpt lat="44.78763" lon="0.4447">
        <ele>135.8</ele>
        <time>2024-07-14T06:05:35Z</time>
      </trkpt>
      <trkpt lat="44.7876" lon="0.44463">
        <ele>135.6</ele>
        <time>2024-07-14T06:05:36Z</time>
      </trkpt>
      <trkpt lat="44.78756" lon="0.44452">
        <ele>135.3</ele>
        <time>2024-07-14T06:05:38Z</time>
      </trkpt>
      <trkpt lat="44.78757" lon="0.44448">
        <ele>135.2</ele>
        <time>2024-07-14T06:05:39Z</time>
      </trkpt>
      <trkpt lat="44.78759" lon="0.44446">
        <ele>135.2</ele>
        <time>2024-07-14T06:05:40Z</time>
      </trkpt>
      <trkpt lat="44.78766" lon="0.44443">
        <ele>135.2</ele>
        <time>2024-07-14T06:05:42Z</time>
      </trkpt>
      <trkpt lat="44.78774" lon="0.44439">
        <ele>135.2</ele>
        <time>2024-07-14T06:05:44Z</time>
      </trkpt>
      <trkpt lat="44.78783" lon="0.44435">
        <ele>135.2</ele>
        <time>2024-07-14T06:05:46Z</time>
      </trkpt>
      <trkpt lat="44.78793" lon="0.44432">
        <ele>135.2</ele>
        <time>2024-07-14T06:05:48Z</time>
      </trkpt>
      <trkpt lat="44.78802" lon="0.44431">
        <ele>135.2</ele>
        <time>2024-07-14T06:05:50Z</time>
      </trkpt>
      <trkpt lat="44.78812" lon="0.44436">
        <ele>135.1</ele>
        <time>2024-07-14T06:05:52Z</time>
      </trkpt>
      <trkpt lat="44.78821" lon="0.44441">
        <ele>135.2</ele>
        <time>2024-07-14T06:05:54Z</time>
      </trkpt>
      <trkpt lat="44.78825" lon="0.44444">
        <ele>135.2</ele>
        <time>2024-07-14T06:05:55Z</time>
      </trkpt>
      <trkpt lat="44.78829" lon="0.44447">
        <ele>135.2</ele>
        <time>2024-07-14T06:05:56Z</time>
      </trkpt>
      <trkpt lat="44.78838" lon="0.44454">
        <ele>135.3</ele>
        <time>2024-07-14T06:05:58Z</time>
      </trkpt>
      <trkpt lat="44.78842" lon="0.44456">
        <ele>135.4</ele>
        <time>2024-07-14T06:05:59Z</time>
      </trkpt>
      <trkpt lat="44.78847" lon="0.44456">
        <ele>135.5</ele>
        <time>2024-07-14T06:06:00Z</time>
      </trkpt>
      <trkpt lat="44.78851" lon="0.44454">
        <ele>135.5</ele>
        <time>2024-07-14T06:06:01Z</time>
      </trkpt>
      <trkpt lat="44.78855" lon="0.4445">
        <ele>135.5</ele>
        <time>2024-07-14T06:06:02Z</time>
      </trkpt>
      <trkpt lat="44.78859" lon="0.44446">
        <ele>135.5</ele>
        <time>2024-07-14T06:06:03Z</time>
      </trkpt>
      <trkpt lat="44.78864" lon="0.44443">
        <ele>135.5</ele>
        <time>2024-07-14T06:06:04Z</time>
      </trkpt>
      <trkpt lat="44.78874" lon="0.44441">
        <ele>135.7</ele>
        <time>2024-07-14T06:06:06Z</time>
      </trkpt>
      <trkpt lat="44.78879" lon="0.4444">
        <ele>135.8</ele>
        <time>2024-07-14T06:06:07Z</time>
      </trkpt>
      <trkpt lat="44.78883" lon="0.4444">
        <ele>135.9</ele>
        <time>2024-07-14T06:06:08Z</time>
      </trkpt>
      <trkpt lat="44.78892" lon="0.44442">
        <ele>136.1</ele>
        <time>2024-07-14T06:06:10Z</time>
      </trkpt>
      <trkpt lat="44.78902" lon="0.44443">
        <ele>136.5</ele>
        <time>2024-07-14T06:06:12Z</time>
      </trkpt>
      <trkpt lat="44.78906" lon="0.44444">
        <ele>136.7</ele>
        <time>2024-07-14T06:06:13Z</time>
      </trkpt>
      <trkpt lat="44.78911" lon="0.44445">
        <ele>136.9</ele>
        <time>2024-07-14T06:06:14Z</time>
      </trkpt>
      <trkpt lat="44.78921" lon="0.44448">
        <ele>137.2</ele>
        <time>2024-07-14T06:06:16Z</time>
      </trkpt>
      <trkpt lat="44.7893" lon="0.4445">
        <ele>137.6</ele>
        <time>2024-07-14T06:06:18Z</time>
      </trkpt>
      <trkpt lat="44.78939" lon="0.44452">
        <ele>137.9</ele>
        <time>2024-07-14T06:06:20Z</time>
      </trkpt>
      <trkpt lat="44.78948" lon="0.44454">
        <ele>138.3</ele>
        <time>2024-07-14T06:06:22Z</time>
      </trkpt>
      <trkpt lat="44.78955" lon="0.44451">
        <ele>138.6</ele>
        <time>2024-07-14T06:06:24Z</time>
      </trkpt>
      <trkpt lat="44.78961" lon="0.44443">
        <ele>138.9</ele>
        <time>2024-07-14T06:06:26Z</time>
      </trkpt>
      <trkpt lat="44.78967" lon="0.44437">
        <ele>139</ele>
        <time>2024-07-14T06:06:28Z</time>
      </trkpt>
      <trkpt lat="44.78974" lon="0.44434">
        <ele>139.1</ele>
        <time>2024-07-14T06:06:30Z</time>
      </trkpt>
      <trkpt lat="44.78981" lon="0.44433">
        <ele>139.2</ele>
        <time>2024-07-14T06:06:32Z</time>
      </trkpt>
      <trkpt lat="44.78989" lon="0.44432">
        <ele>139.2</ele>
        <time>2024-07-14T06:06:34Z</time>
      </trkpt>
      <trkpt lat="44.78997" lon="0.44431">
        <ele>139.3</ele>
        <time>2024-07-14T06:06:36Z</time>
      </trkpt>
      <trkpt lat="44.79006" lon="0.4443">
        <ele>139.2</ele>
        <time>2024-07-14T06:06:38Z</time>
      </trkpt>
      <trkpt lat="44.79015" lon="0.4443">
        <ele>139.2</ele>
        <time>2024-07-14T06:06:40Z</time>
      </trkpt>
      <trkpt lat="44.79019" lon="0.4443">
        <ele>139.2</ele>
        <time>2024-07-14T06:06:41Z</time>
      </trkpt>
      <trkpt lat="44.79024" lon="0.4443">
        <ele>139.2</ele>
        <time>2024-07-14T06:06:42Z</time>
      </trkpt>
      <trkpt lat="44.79028" lon="0.44431">
        <ele>139.2</ele>
        <time>2024-07-14T06:06:43Z</time>
      </trkpt>
      <trkpt lat="44.79033" lon="0.44432">
        <ele>139.2</ele>
        <time>2024-07-14T06:06:44Z</time>
      </trkpt>
      <trkpt lat="44.79042" lon="0.44434">
        <ele>139</ele>
        <time>2024-07-14T06:06:46Z</time>
      </trkpt>
      <trkpt lat="44.79051" lon="0.44435">
        <ele>139</ele>
        <time>2024-07-14T06:06:48Z</time>
      </trkpt>
      <trkpt lat="44.7906" lon="0.44435">
        <ele>138.9</ele>
        <time>2024-07-14T06:06:50Z</time>
      </trkpt>
      <trkpt lat="44.79068" lon="0.44435">
        <ele>139</ele>
        <time>2024-07-14T06:06:52Z</time>
      </trkpt>
      <trkpt lat="44.79072" lon="0.44435">
        <ele>139</ele>
        <time>2024-07-14T06:06:53Z</time>
      </trkpt>
      <trkpt lat="44.79077" lon="0.44435">
        <ele>139</ele>
        <time>2024-07-14T06:06:54Z</time>
      </trkpt>
      <trkpt lat="44.79081" lon="0.44434">
        <ele>139</ele>
        <time>2024-07-14T06:06:55Z</time>
      </trkpt>
      <trkpt lat="44.79085" lon="0.44434">
        <ele>139</ele>
        <time>2024-07-14T06:06:56Z</time>
      </trkpt>
      <trkpt lat="44.79089" lon="0.44433">
        <ele>139</ele>
        <time>2024-07-14T06:06:57Z</time>
      </trkpt>
      <trkpt lat="44.79093" lon="0.44431">
        <ele>139</ele>
        <time>2024-07-14T06:06:58Z</time>
      </trkpt>
      <trkpt lat="44.79095" lon="0.44427">
        <ele>139.3</ele>
        <time>2024-07-14T06:06:59Z</time>
      </trkpt>
      <trkpt lat="44.79096" lon="0.44422">
        <ele>139.5</ele>
        <time>2024-07-14T06:07:00Z</time>
      </trkpt>
      <trkpt lat="44.79097" lon="0.44416">
        <ele>139.9</ele>
        <time>2024-07-14T06:07:01Z</time>
      </trkpt>
      <trkpt lat="44.79098" lon="0.4441">
        <ele>140.1</ele>
        <time>2024-07-14T06:07:02Z</time>
      </trkpt>
      <trkpt lat="44.79099" lon="0.44403">
        <ele>140.6</ele>
        <time>2024-07-14T06:07:03Z</time>
      </trkpt>
      <trkpt lat="44.79099" lon="0.44397">
        <ele>140.8</ele>
        <time>2024-07-14T06:07:04Z</time>
      </trkpt>
      <trkpt lat="44.79099" lon="0.4439">
        <ele>141.2</ele>
        <time>2024-07-14T06:07:05Z</time>
      </trkpt>
      <trkpt lat="44.791" lon="0.44382">
        <ele>141.5</ele>
        <time>2024-07-14T06:07:06Z</time>
      </trkpt>
      <trkpt lat="44.79101" lon="0.44368">
        <ele>141.6</ele>
        <time>2024-07-14T06:07:08Z</time>
      </trkpt>
      <trkpt lat="44.79103" lon="0.44354">
        <ele>141.5</ele>
        <time>2024-07-14T06:07:10Z</time>
      </trkpt>
      <trkpt lat="44.79105" lon="0.44348">
        <ele>141.2</ele>
        <time>2024-07-14T06:07:11Z</time>
      </trkpt>
      <trkpt lat="44.79109" lon="0.44344">
        <ele>140.9</ele>
        <time>2024-07-14T06:07:12Z</time>
      </trkpt>
      <trkpt lat="44.79113" lon="0.44342">
        <ele>140.6</ele>
        <time>2024-07-14T06:07:13Z</time>
      </trkpt>
      <trkpt lat="44.79117" lon="0.44341">
        <ele>140.5</ele>
        <time>2024-07-14T06:07:14Z</time>
      </trkpt>
      <trkpt lat="44.7912" lon="0.44338">
        <ele>140.2</ele>
        <time>2024-07-14T06:07:15Z</time>
      </trkpt>
      <trkpt lat="44.79123" lon="0.44333">
        <ele>139.9</ele>
        <time>2024-07-14T06:07:16Z</time>
      </trkpt>
      <trkpt lat="44.79124" lon="0.44328">
        <ele>139.8</ele>
        <time>2024-07-14T06:07:17Z</time>
      </trkpt>
      <trkpt lat="44.79125" lon="0.44322">
        <ele>139.4</ele>
        <time>2024-07-14T06:07:18Z</time>
      </trkpt>
      <trkpt lat="44.79126" lon="0.44311">
        <ele>139.2</ele>
        <time>2024-07-14T06:07:20Z</time>
      </trkpt>
      <trkpt lat="44.79127" lon="0.44302">
        <ele>139</ele>
        <time>2024-07-14T06:07:22Z</time>
      </trkpt>
      <trkpt lat="44.79127" lon="0.44298">
        <ele>138.9</ele>
        <time>2024-07-14T06:07:23Z</time>
      </trkpt>
      <trkpt lat="44.79128" lon="0.44294">
        <ele>138.8</ele>
        <time>2024-07-14T06:07:24Z</time>
      </trkpt>
      <trkpt lat="44.79129" lon="0.4429">
        <ele>138.5</ele>
        <time>2024-07-14T06:07:25Z</time>
      </trkpt>
      <trkpt lat="44.7913" lon="0.44287">
        <ele>138.4</ele>
        <time>2024-07-14T06:07:26Z</time>
      </trkpt>
      <trkpt lat="44.7913" lon="0.44277">
        <ele>138.3</ele>
        <time>2024-07-14T06:07:28Z</time>
      </trkpt>
      <trkpt lat="44.79131" lon="0.44268">
        <ele>137.9</ele>
        <time>2024-07-14T06:07:30Z</time>
      </trkpt>
      <trkpt lat="44.79135" lon="0.4426">
        <ele>137.4</ele>
        <time>2024-07-14T06:07:32Z</time>
      </trkpt>
      <trkpt lat="44.79137" lon="0.44254">
        <ele>137.1</ele>
        <time>2024-07-14T06:07:33Z</time>
      </trkpt>
      <trkpt lat="44.79138" lon="0.44248">
        <ele>136.6</ele>
        <time>2024-07-14T06:07:34Z</time>
      </trkpt>
      <trkpt lat="44.7914" lon="0.44237">
        <ele>135.8</ele>
        <time>2024-07-14T06:07:36Z</time>
      </trkpt>
      <trkpt lat="44.79141" lon="0.44225">
        <ele>135.5</ele>
        <time>2024-07-14T06:07:38Z</time>
      </trkpt>
      <trkpt lat="44.79144" lon="0.44211">
        <ele>134.5</ele>
        <time>2024-07-14T06:07:40Z</time>
      </trkpt>
      <trkpt lat="44.79146" lon="0.442">
        <ele>133.9</ele>
        <time>2024-07-14T06:07:42Z</time>
      </trkpt>
      <trkpt lat="44.79147" lon="0.44196">
        <ele>133.7</ele>
        <time>2024-07-14T06:07:43Z</time>
      </trkpt>
      <trkpt lat="44.79148" lon="0.44192">
        <ele>133.6</ele>
        <time>2024-07-14T06:07:44Z</time>
      </trkpt>
      <trkpt lat="44.7915" lon="0.4419">
        <ele>133.1</ele>
        <time>2024-07-14T06:07:45Z</time>
      </trkpt>
      <trkpt lat="44.7915" lon="0.44184">
        <ele>133</ele>
        <time>2024-07-14T06:07:46Z</time>
      </trkpt>
      <trkpt lat="44.79153" lon="0.44177">
        <ele>132.3</ele>
        <time>2024-07-14T06:07:48Z</time>
      </trkpt>
      <trkpt lat="44.79158" lon="0.44171">
        <ele>131.9</ele>
        <time>2024-07-14T06:07:50Z</time>
      </trkpt>
      <trkpt lat="44.79161" lon="0.44167">
        <ele>131.3</ele>
        <time>2024-07-14T06:07:51Z</time>
      </trkpt>
      <trkpt lat="44.79163" lon="0.44164">
        <ele>130.8</ele>
        <time>2024-07-14T06:07:52Z</time>
      </trkpt>
      <trkpt lat="44.79164" lon="0.4416">
        <ele>130.8</ele>
        <time>2024-07-14T06:07:53Z</time>
      </trkpt>
      <trkpt lat="44.79164" lon="0.44156">
        <ele>130.6</ele>
        <time>2024-07-14T06:07:54Z</time>
      </trkpt>
      <trkpt lat="44.79163" lon="0.44153">
        <ele>130.5</ele>
        <time>2024-07-14T06:07:55Z</time>
      </trkpt>
      <trkpt lat="44.79161" lon="0.44151">
        <ele>130.8</ele>
        <time>2024-07-14T06:07:56Z</time>
      </trkpt>
      <trkpt lat="44.79155" lon="0.44149">
        <ele>131.6</ele>
        <time>2024-07-14T06:07:58Z</time>
      </trkpt>
      <trkpt lat="44.79147" lon="0.44147">
        <ele>132.3</ele>
        <time>2024-07-14T06:08:00Z</time>
      </trkpt>
      <trkpt lat="44.79141" lon="0.44147">
        <ele>132.8</ele>
        <time>2024-07-14T06:08:02Z</time>
      </trkpt>
      <trkpt lat="44.79139" lon="0.44146">
        <ele>133.2</ele>
        <time>2024-07-14T06:08:03Z</time>
      </trkpt>
      <trkpt lat="44.79137" lon="0.44146">
        <ele>133.2</ele>
        <time>2024-07-14T06:08:04Z</time>
      </trkpt>
      <trkpt lat="44.79133" lon="0.44149">
        <ele>133.9</ele>
        <time>2024-07-14T06:08:06Z</time>
      </trkpt>
      <trkpt lat="44.79129" lon="0.44148">
        <ele>134.2</ele>
        <time>2024-07-14T06:08:07Z</time>
      </trkpt>
      <trkpt lat="44.79124" lon="0.44147">
        <ele>134.7</ele>
        <time>2024-07-14T06:08:08Z</time>
      </trkpt>
      <trkpt lat="44.79116" lon="0.44146">
        <ele>135.2</ele>
        <time>2024-07-14T06:08:10Z</time>
      </trkpt>
      <trkpt lat="44.79113" lon="0.44146">
        <ele>135.5</ele>
        <time>2024-07-14T06:08:11Z</time>
      </trkpt>
      <trkpt lat="44.7911" lon="0.44145">
        <ele>135.8</ele>
        <time>2024-07-14T06:08:12Z</time>
      </trkpt>
      <trkpt lat="44.79107" lon="0.44145">
        <ele>136.1</ele>
        <time>2024-07-14T06:08:13Z</time>
      </trkpt>
      <trkpt lat="44.79103" lon="0.44146">
        <ele>136.4</ele>
        <time>2024-07-14T06:08:14Z</time>
      </trkpt>
      <trkpt lat="44.79093" lon="0.44144">
        <ele>137.1</ele>
        <time>2024-07-14T06:08:16Z</time>
      </trkpt>
      <trkpt lat="44.79084" lon="0.44141">
        <ele>137.1</ele>
        <time>2024-07-14T06:08:18Z</time>
      </trkpt>
      <trkpt lat="44.79079" lon="0.4414">
        <ele>137.2</ele>
        <time>2024-07-14T06:08:19Z</time>
      </trkpt>
      <trkpt lat="44.79075" lon="0.4414">
        <ele>137.2</ele>
        <time>2024-07-14T06:08:20Z</time>
      </trkpt>
      <trkpt lat="44.79067" lon="0.44137">
        <ele>136.9</ele>
        <time>2024-07-14T06:08:22Z</time>
      </trkpt>
      <trkpt lat="44.79061" lon="0.44137">
        <ele>136.8</ele>
        <time>2024-07-14T06:08:23Z</time>
      </trkpt>
      <trkpt lat="44.79056" lon="0.44135">
        <ele>136.6</ele>
        <time>2024-07-14T06:08:24Z</time>
      </trkpt>
      <trkpt lat="44.79048" lon="0.44136">
        <ele>136.2</ele>
        <time>2024-07-14T06:08:26Z</time>
      </trkpt>
      <trkpt lat="44.79043" lon="0.44138">
        <ele>136.1</ele>
        <time>2024-07-14T06:08:28Z</time>
      </trkpt>
      <trkpt lat="44.7904" lon="0.44139">
        <ele>136.1</ele>
        <time>2024-07-14T06:08:29Z</time>
      </trkpt>
      <trkpt lat="44.79038" lon="0.4414">
        <ele>136</ele>
        <time>2024-07-14T06:08:30Z</time>
      </trkpt>
      <trkpt lat="44.79034" lon="0.44142">
        <ele>135.8</ele>
        <time>2024-07-14T06:08:32Z</time>
      </trkpt>
      <trkpt lat="44.79028" lon="0.44143">
        <ele>135.7</ele>
        <time>2024-07-14T06:08:34Z</time>
      </trkpt>
      <trkpt lat="44.79023" lon="0.44144">
        <ele>135.5</ele>
        <time>2024-07-14T06:08:36Z</time>
      </trkpt>
      <trkpt lat="44.79023" lon="0.44144">
        <ele>135.5</ele>
        <time>2024-07-14T06:08:37Z</time>
      </trkpt>
      <trkpt lat="44.7902" lon="0.44143">
        <ele>135.4</ele>
        <time>2024-07-14T06:08:38Z</time>
      </trkpt>
      <trkpt lat="44.7901" lon="0.44138">
        <ele>134.9</ele>
        <time>2024-07-14T06:08:40Z</time>
      </trkpt>
      <trkpt lat="44.79004" lon="0.44133">
        <ele>134.6</ele>
        <time>2024-07-14T06:08:42Z</time>
      </trkpt>
      <trkpt lat="44.79003" lon="0.44131">
        <ele>134.6</ele>
        <time>2024-07-14T06:08:43Z</time>
      </trkpt>
      <trkpt lat="44.79" lon="0.44127">
        <ele>134.4</ele>
        <time>2024-07-14T06:08:44Z</time>
      </trkpt>
      <trkpt lat="44.7899" lon="0.44118">
        <ele>133.8</ele>
        <time>2024-07-14T06:08:46Z</time>
      </trkpt>
      <trkpt lat="44.78985" lon="0.44115">
        <ele>133.6</ele>
        <time>2024-07-14T06:08:47Z</time>
      </trkpt>
      <trkpt lat="44.7898" lon="0.44111">
        <ele>133.3</ele>
        <time>2024-07-14T06:08:48Z</time>
      </trkpt>
      <trkpt lat="44.78975" lon="0.44109">
        <ele>133.1</ele>
        <time>2024-07-14T06:08:49Z</time>
      </trkpt>
      <trkpt lat="44.7897" lon="0.44106">
        <ele>132.8</ele>
        <time>2024-07-14T06:08:50Z</time>
      </trkpt>
      <trkpt lat="44.78966" lon="0.44104">
        <ele>132.5</ele>
        <time>2024-07-14T06:08:51Z</time>
      </trkpt>
      <trkpt lat="44.78962" lon="0.441">
        <ele>132.4</ele>
        <time>2024-07-14T06:08:52Z</time>
      </trkpt>
      <trkpt lat="44.78958" lon="0.44096">
        <ele>132.2</ele>
        <time>2024-07-14T06:08:53Z</time>
      </trkpt>
      <trkpt lat="44.78954" lon="0.44093">
        <ele>132.1</ele>
        <time>2024-07-14T06:08:54Z</time>
      </trkpt>
      <trkpt lat="44.78946" lon="0.44085">
        <ele>131.4</ele>
        <time>2024-07-14T06:08:56Z</time>
      </trkpt>
      <trkpt lat="44.78934" lon="0.44077">
        <ele>130.3</ele>
        <time>2024-07-14T06:08:58Z</time>
      </trkpt>
      <trkpt lat="44.7893" lon="0.44071">
        <ele>129.7</ele>
        <time>2024-07-14T06:08:59Z</time>
      </trkpt>
      <trkpt lat="44.78926" lon="0.44066">
        <ele>129.3</ele>
        <time>2024-07-14T06:09:00Z</time>
      </trkpt>
      <trkpt lat="44.78923" lon="0.44061">
        <ele>128.8</ele>
        <time>2024-07-14T06:09:01Z</time>
      </trkpt>
      <trkpt lat="44.78921" lon="0.44056">
        <ele>128.3</ele>
        <time>2024-07-14T06:09:02Z</time>
      </trkpt>
      <trkpt lat="44.78917" lon="0.44044">
        <ele>126.6</ele>
        <time>2024-07-14T06:09:04Z</time>
      </trkpt>
      <trkpt lat="44.78915" lon="0.44038">
        <ele>126.3</ele>
        <time>2024-07-14T06:09:05Z</time>
      </trkpt>
      <trkpt lat="44.78914" lon="0.44035">
        <ele>125.4</ele>
        <time>2024-07-14T06:09:06Z</time>
      </trkpt>
      <trkpt lat="44.78913" lon="0.44026">
        <ele>124.7</ele>
        <time>2024-07-14T06:09:08Z</time>
      </trkpt>
      <trkpt lat="44.78913" lon="0.44016">
        <ele>123.9</ele>
        <time>2024-07-14T06:09:10Z</time>
      </trkpt>
      <trkpt lat="44.78914" lon="0.44011">
        <ele>123.5</ele>
        <time>2024-07-14T06:09:11Z</time>
      </trkpt>
      <trkpt lat="44.78916" lon="0.44006">
        <ele>123.7</ele>
        <time>2024-07-14T06:09:12Z</time>
      </trkpt>
      <trkpt lat="44.7892" lon="0.43997">
        <ele>123.4</ele>
        <time>2024-07-14T06:09:14Z</time>
      </trkpt>
      <trkpt lat="44.78921" lon="0.43994">
        <ele>123.6</ele>
        <time>2024-07-14T06:09:15Z</time>
      </trkpt>
      <trkpt lat="44.78923" lon="0.43993">
        <ele>123.6</ele>
        <time>2024-07-14T06:09:16Z</time>
      </trkpt>
      <trkpt lat="44.78927" lon="0.43994">
        <ele>124.5</ele>
        <time>2024-07-14T06:09:18Z</time>
      </trkpt>
      <trkpt lat="44.7893" lon="0.43994">
        <ele>124.9</ele>
        <time>2024-07-14T06:09:19Z</time>
      </trkpt>
      <trkpt lat="44.78932" lon="0.43994">
        <ele>124.9</ele>
        <time>2024-07-14T06:09:20Z</time>
      </trkpt>
      <trkpt lat="44.78937" lon="0.43997">
        <ele>125.9</ele>
        <time>2024-07-14T06:09:22Z</time>
      </trkpt>
      <trkpt lat="44.78939" lon="0.43999">
        <ele>125.9</ele>
        <time>2024-07-14T06:09:23Z</time>
      </trkpt>
      <trkpt lat="44.78942" lon="0.44001">
        <ele>126.2</ele>
        <time>2024-07-14T06:09:24Z</time>
      </trkpt>
      <trkpt lat="44.78946" lon="0.44002">
        <ele>127.1</ele>
        <time>2024-07-14T06:09:26Z</time>
      </trkpt>
      <trkpt lat="44.7895" lon="0.44002">
        <ele>127.3</ele>
        <time>2024-07-14T06:09:27Z</time>
      </trkpt>
      <trkpt lat="44.78954" lon="0.44001">
        <ele>127.4</ele>
        <time>2024-07-14T06:09:28Z</time>
      </trkpt>
      <trkpt lat="44.78962" lon="0.43999">
        <ele>127.7</ele>
        <time>2024-07-14T06:09:30Z</time>
      </trkpt>
      <trkpt lat="44.78965" lon="0.43999">
        <ele>127.8</ele>
        <time>2024-07-14T06:09:31Z</time>
      </trkpt>
      <trkpt lat="44.7897" lon="0.43999">
        <ele>128.1</ele>
        <time>2024-07-14T06:09:32Z</time>
      </trkpt>
      <trkpt lat="44.78977" lon="0.43998">
        <ele>128.2</ele>
        <time>2024-07-14T06:09:34Z</time>
      </trkpt>
      <trkpt lat="44.78984" lon="0.43994">
        <ele>128</ele>
        <time>2024-07-14T06:09:36Z</time>
      </trkpt>
      <trkpt lat="44.78987" lon="0.43992">
        <ele>127.7</ele>
        <time>2024-07-14T06:09:37Z</time>
      </trkpt>
      <trkpt lat="44.78991" lon="0.43992">
        <ele>127.6</ele>
        <time>2024-07-14T06:09:38Z</time>
      </trkpt>
      <trkpt lat="44.78994" lon="0.43992">
        <ele>127.5</ele>
        <time>2024-07-14T06:09:39Z</time>
      </trkpt>
      <trkpt lat="44.78998" lon="0.43993">
        <ele>127.6</ele>
        <time>2024-07-14T06:09:40Z</time>
      </trkpt>
      <trkpt lat="44.79005" lon="0.43993">
        <ele>127.4</ele>
        <time>2024-07-14T06:09:42Z</time>
      </trkpt>
      <trkpt lat="44.79008" lon="0.43992">
        <ele>127</ele>
        <time>2024-07-14T06:09:43Z</time>
      </trkpt>
      <trkpt lat="44.79011" lon="0.43992">
        <ele>126.8</ele>
        <time>2024-07-14T06:09:44Z</time>
      </trkpt>
      <trkpt lat="44.79018" lon="0.43991">
        <ele>126.5</ele>
        <time>2024-07-14T06:09:46Z</time>
      </trkpt>
      <trkpt lat="44.79021" lon="0.43991">
        <ele>126.3</ele>
        <time>2024-07-14T06:09:47Z</time>
      </trkpt>
      <trkpt lat="44.79024" lon="0.4399">
        <ele>126.2</ele>
        <time>2024-07-14T06:09:48Z</time>
      </trkpt>
      <trkpt lat="44.7903" lon="0.4399">
        <ele>125.9</ele>
        <time>2024-07-14T06:09:50Z</time>
      </trkpt>
      <trkpt lat="44.79035" lon="0.43989">
        <ele>125.7</ele>
        <time>2024-07-14T06:09:52Z</time>
      </trkpt>
      <trkpt lat="44.79037" lon="0.43988">
        <ele>125.3</ele>
        <time>2024-07-14T06:09:53Z</time>
      </trkpt>
      <trkpt lat="44.7904" lon="0.43985">
        <ele>125.2</ele>
        <time>2024-07-14T06:09:54Z</time>
      </trkpt>
      <trkpt lat="44.79041" lon="0.43983">
        <ele>125</ele>
        <time>2024-07-14T06:09:55Z</time>
      </trkpt>
      <trkpt lat="44.79043" lon="0.43981">
        <ele>124.9</ele>
        <time>2024-07-14T06:09:56Z</time>
      </trkpt>
      <trkpt lat="44.79045" lon="0.43975">
        <ele>124.6</ele>
        <time>2024-07-14T06:09:58Z</time>
      </trkpt>
      <trkpt lat="44.79045" lon="0.43972">
        <ele>124.4</ele>
        <time>2024-07-14T06:10:00Z</time>
      </trkpt>
      <trkpt lat="44.79041" lon="0.43967">
        <ele>124.2</ele>
        <time>2024-07-14T06:10:02Z</time>
      </trkpt>
      <trkpt lat="44.79038" lon="0.43964">
        <ele>124.3</ele>
        <time>2024-07-14T06:10:03Z</time>
      </trkpt>
      <trkpt lat="44.79036" lon="0.43962">
        <ele>124.2</ele>
        <time>2024-07-14T06:10:04Z</time>
      </trkpt>
      <trkpt lat="44.79031" lon="0.43959">
        <ele>124.3</ele>
        <time>2024-07-14T06:10:05Z</time>
      </trkpt>
      <trkpt lat="44.79025" lon="0.43957">
        <ele>124.4</ele>
        <time>2024-07-14T06:10:06Z</time>
      </trkpt>
      <trkpt lat="44.79015" lon="0.43958">
        <ele>124.8</ele>
        <time>2024-07-14T06:10:08Z</time>
      </trkpt>
      <trkpt lat="44.79006" lon="0.43958">
        <ele>125.2</ele>
        <time>2024-07-14T06:10:10Z</time>
      </trkpt>
      <trkpt lat="44.79003" lon="0.43959">
        <ele>125.5</ele>
        <time>2024-07-14T06:10:11Z</time>
      </trkpt>
      <trkpt lat="44.79" lon="0.4396">
        <ele>125.6</ele>
        <time>2024-07-14T06:10:12Z</time>
      </trkpt>
      <trkpt lat="44.78992" lon="0.43956">
        <ele>125.7</ele>
        <time>2024-07-14T06:10:14Z</time>
      </trkpt>
      <trkpt lat="44.78983" lon="0.43956">
        <ele>126</ele>
        <time>2024-07-14T06:10:16Z</time>
      </trkpt>
      <trkpt lat="44.78979" lon="0.43955">
        <ele>126</ele>
        <time>2024-07-14T06:10:17Z</time>
      </trkpt>
      <trkpt lat="44.78975" lon="0.43955">
        <ele>125.9</ele>
        <time>2024-07-14T06:10:18Z</time>
      </trkpt>
      <trkpt lat="44.78966" lon="0.43954">
        <ele>125.6</ele>
        <time>2024-07-14T06:10:20Z</time>
      </trkpt>
      <trkpt lat="44.78957" lon="0.43951">
        <ele>124.9</ele>
        <time>2024-07-14T06:10:22Z</time>
      </trkpt>
      <trkpt lat="44.78952" lon="0.43949">
        <ele>124.4</ele>
        <time>2024-07-14T06:10:23Z</time>
      </trkpt>
      <trkpt lat="44.78948" lon="0.43946">
        <ele>123.8</ele>
        <time>2024-07-14T06:10:24Z</time>
      </trkpt>
      <trkpt lat="44.78938" lon="0.4394">
        <ele>122</ele>
        <time>2024-07-14T06:10:26Z</time>
      </trkpt>
      <trkpt lat="44.78927" lon="0.43933">
        <ele>120.1</ele>
        <time>2024-07-14T06:10:28Z</time>
      </trkpt>
      <trkpt lat="44.78922" lon="0.4393">
        <ele>119.5</ele>
        <time>2024-07-14T06:10:29Z</time>
      </trkpt>
      <trkpt lat="44.78917" lon="0.43926">
        <ele>118.2</ele>
        <time>2024-07-14T06:10:30Z</time>
      </trkpt>
      <trkpt lat="44.78907" lon="0.43917">
        <ele>116.3</ele>
        <time>2024-07-14T06:10:32Z</time>
      </trkpt>
      <trkpt lat="44.78902" lon="0.43915">
        <ele>115.2</ele>
        <time>2024-07-14T06:10:33Z</time>
      </trkpt>
      <trkpt lat="44.78896" lon="0.43915">
        <ele>114</ele>
        <time>2024-07-14T06:10:34Z</time>
      </trkpt>
      <trkpt lat="44.78891" lon="0.43916">
        <ele>113.4</ele>
        <time>2024-07-14T06:10:35Z</time>
      </trkpt>
      <trkpt lat="44.78886" lon="0.43917">
        <ele>112.2</ele>
        <time>2024-07-14T06:10:36Z</time>
      </trkpt>
      <trkpt lat="44.78881" lon="0.43914">
        <ele>111.6</ele>
        <time>2024-07-14T06:10:37Z</time>
      </trkpt>
      <trkpt lat="44.78878" lon="0.4391">
        <ele>110.5</ele>
        <time>2024-07-14T06:10:38Z</time>
      </trkpt>
      <trkpt lat="44.78874" lon="0.43904">
        <ele>110.1</ele>
        <time>2024-07-14T06:10:39Z</time>
      </trkpt>
      <trkpt lat="44.78871" lon="0.43898">
        <ele>109.9</ele>
        <time>2024-07-14T06:10:40Z</time>
      </trkpt>
      <trkpt lat="44.78865" lon="0.43884">
        <ele>109.7</ele>
        <time>2024-07-14T06:10:42Z</time>
      </trkpt>
      <trkpt lat="44.78858" lon="0.43871">
        <ele>109.7</ele>
        <time>2024-07-14T06:10:44Z</time>
      </trkpt>
      <trkpt lat="44.78853" lon="0.43857">
        <ele>109.9</ele>
        <time>2024-07-14T06:10:46Z</time>
      </trkpt>
      <trkpt lat="44.78847" lon="0.43843">
        <ele>110.1</ele>
        <time>2024-07-14T06:10:48Z</time>
      </trkpt>
      <trkpt lat="44.78842" lon="0.4383">
        <ele>110.4</ele>
        <time>2024-07-14T06:10:50Z</time>
      </trkpt>
      <trkpt lat="44.78838" lon="0.43824">
        <ele>110.3</ele>
        <time>2024-07-14T06:10:51Z</time>
      </trkpt>
      <trkpt lat="44.78834" lon="0.4382">
        <ele>110.3</ele>
        <time>2024-07-14T06:10:52Z</time>
      </trkpt>
      <trkpt lat="44.78829" lon="0.43818">
        <ele>110</ele>
        <time>2024-07-14T06:10:53Z</time>
      </trkpt>
      <trkpt lat="44.78825" lon="0.43818">
        <ele>109.8</ele>
        <time>2024-07-14T06:10:54Z</time>
      </trkpt>
      <trkpt lat="44.78821" lon="0.43818">
        <ele>109.7</ele>
        <time>2024-07-14T06:10:55Z</time>
      </trkpt>
      <trkpt lat="44.78816" lon="0.43817">
        <ele>109.5</ele>
        <time>2024-07-14T06:10:56Z</time>
      </trkpt>
      <trkpt lat="44.78812" lon="0.43816">
        <ele>109.8</ele>
        <time>2024-07-14T06:10:57Z</time>
      </trkpt>
      <trkpt lat="44.78807" lon="0.43816">
        <ele>109.7</ele>
        <time>2024-07-14T06:10:58Z</time>
      </trkpt>
      <trkpt lat="44.78797" lon="0.43817">
        <ele>109.4</ele>
        <time>2024-07-14T06:11:00Z</time>
      </trkpt>
      <trkpt lat="44.78788" lon="0.43818">
        <ele>109.5</ele>
        <time>2024-07-14T06:11:02Z</time>
      </trkpt>
      <trkpt lat="44.78784" lon="0.43818">
        <ele>109.6</ele>
        <time>2024-07-14T06:11:03Z</time>
      </trkpt>
      <trkpt lat="44.7878" lon="0.43819">
        <ele>109.7</ele>
        <time>2024-07-14T06:11:04Z</time>
      </trkpt>
      <trkpt lat="44.78771" lon="0.4382">
        <ele>109.8</ele>
        <time>2024-07-14T06:11:06Z</time>
      </trkpt>
      <trkpt lat="44.78763" lon="0.43821">
        <ele>109.6</ele>
        <time>2024-07-14T06:11:08Z</time>
      </trkpt>
      <trkpt lat="44.78759" lon="0.43821">
        <ele>109.8</ele>
        <time>2024-07-14T06:11:09Z</time>
      </trkpt>
      <trkpt lat="44.78755" lon="0.43821">
        <ele>110.1</ele>
        <time>2024-07-14T06:11:10Z</time>
      </trkpt>
      <trkpt lat="44.78748" lon="0.4382">
        <ele>110.2</ele>
        <time>2024-07-14T06:11:12Z</time>
      </trkpt>
      <trkpt lat="44.78741" lon="0.43819">
        <ele>110.5</ele>
        <time>2024-07-14T06:11:14Z</time>
      </trkpt>
      <trkpt lat="44.78737" lon="0.43819">
        <ele>110.5</ele>
        <time>2024-07-14T06:11:15Z</time>
      </trkpt>
      <trkpt lat="44.78733" lon="0.4382">
        <ele>110.6</ele>
        <time>2024-07-14T06:11:16Z</time>
      </trkpt>
      <trkpt lat="44.78725" lon="0.4382">
        <ele>111</ele>
        <time>2024-07-14T06:11:18Z</time>
      </trkpt>
      <trkpt lat="44.78718" lon="0.43821">
        <ele>111.1</ele>
        <time>2024-07-14T06:11:20Z</time>
      </trkpt>
      <trkpt lat="44.78714" lon="0.43822">
        <ele>111.4</ele>
        <time>2024-07-14T06:11:21Z</time>
      </trkpt>
      <trkpt lat="44.78709" lon="0.43822">
        <ele>111.5</ele>
        <time>2024-07-14T06:11:22Z</time>
      </trkpt>
      <trkpt lat="44.78702" lon="0.43822">
        <ele>111.9</ele>
        <time>2024-07-14T06:11:24Z</time>
      </trkpt>
      <trkpt lat="44.78696" lon="0.4382">
        <ele>112.3</ele>
        <time>2024-07-14T06:11:26Z</time>
      </trkpt>
      <trkpt lat="44.78691" lon="0.43816">
        <ele>112.8</ele>
        <time>2024-07-14T06:11:28Z</time>
      </trkpt>
      <trkpt lat="44.78687" lon="0.43813">
        <ele>113</ele>
        <time>2024-07-14T06:11:30Z</time>
      </trkpt>
      <trkpt lat="44.78686" lon="0.43812">
        <ele>113.3</ele>
        <time>2024-07-14T06:11:31Z</time>
      </trkpt>
      <trkpt lat="44.78683" lon="0.43811">
        <ele>113.3</ele>
        <time>2024-07-14T06:11:32Z</time>
      </trkpt>
      <trkpt lat="44.78677" lon="0.43805">
        <ele>113.7</ele>
        <time>2024-07-14T06:11:34Z</time>
      </trkpt>
      <trkpt lat="44.78674" lon="0.43803">
        <ele>114.1</ele>
        <time>2024-07-14T06:11:35Z</time>
      </trkpt>
      <trkpt lat="44.7867" lon="0.43801">
        <ele>114.1</ele>
        <time>2024-07-14T06:11:36Z</time>
      </trkpt>
      <trkpt lat="44.78663" lon="0.43797">
        <ele>114.4</ele>
        <time>2024-07-14T06:11:38Z</time>
      </trkpt>
      <trkpt lat="44.78661" lon="0.43796">
        <ele>114.4</ele>
        <time>2024-07-14T06:11:39Z</time>
      </trkpt>
      <trkpt lat="44.78659" lon="0.43795">
        <ele>114.6</ele>
        <time>2024-07-14T06:11:40Z</time>
      </trkpt>
      <trkpt lat="44.78653" lon="0.43792">
        <ele>114.6</ele>
        <time>2024-07-14T06:11:42Z</time>
      </trkpt>
      <trkpt lat="44.78647" lon="0.43786">
        <ele>114.8</ele>
        <time>2024-07-14T06:11:44Z</time>
      </trkpt>
      <trkpt lat="44.78641" lon="0.4378">
        <ele>114.8</ele>
        <time>2024-07-14T06:11:46Z</time>
      </trkpt>
      <trkpt lat="44.7864" lon="0.43777">
        <ele>114.9</ele>
        <time>2024-07-14T06:11:47Z</time>
      </trkpt>
      <trkpt lat="44.7864" lon="0.43773">
        <ele>115</ele>
        <time>2024-07-14T06:11:48Z</time>
      </trkpt>
      <trkpt lat="44.78642" lon="0.4377">
        <ele>115</ele>
        <time>2024-07-14T06:11:49Z</time>
      </trkpt>
      <trkpt lat="44.78643" lon="0.43765">
        <ele>115.1</ele>
        <time>2024-07-14T06:11:50Z</time>
      </trkpt>
      <trkpt lat="44.78646" lon="0.43756">
        <ele>115.2</ele>
        <time>2024-07-14T06:11:52Z</time>
      </trkpt>
      <trkpt lat="44.78648" lon="0.43751">
        <ele>115.3</ele>
        <time>2024-07-14T06:11:53Z</time>
      </trkpt>
      <trkpt lat="44.78651" lon="0.43746">
        <ele>115.3</ele>
        <time>2024-07-14T06:11:54Z</time>
      </trkpt>
      <trkpt lat="44.78653" lon="0.43741">
        <ele>115.4</ele>
        <time>2024-07-14T06:11:55Z</time>
      </trkpt>
      <trkpt lat="44.78656" lon="0.43737">
        <ele>115.4</ele>
        <time>2024-07-14T06:11:56Z</time>
      </trkpt>
      <trkpt lat="44.78659" lon="0.43733">
        <ele>115.4</ele>
        <time>2024-07-14T06:11:57Z</time>
      </trkpt>
      <trkpt lat="44.78661" lon="0.43729">
        <ele>115.4</ele>
        <time>2024-07-14T06:11:58Z</time>
      </trkpt>
      <trkpt lat="44.78666" lon="0.43716">
        <ele>115.5</ele>
        <time>2024-07-14T06:12:00Z</time>
      </trkpt>
      <trkpt lat="44.78672" lon="0.43705">
        <ele>115.4</ele>
        <time>2024-07-14T06:12:02Z</time>
      </trkpt>
      <trkpt lat="44.78674" lon="0.437">
        <ele>115.4</ele>
        <time>2024-07-14T06:12:03Z</time>
      </trkpt>
      <trkpt lat="44.78676" lon="0.43696">
        <ele>115.4</ele>
        <time>2024-07-14T06:12:04Z</time>
      </trkpt>
      <trkpt lat="44.78679" lon="0.43693">
        <ele>115.4</ele>
        <time>2024-07-14T06:12:05Z</time>
      </trkpt>
      <trkpt lat="44.78681" lon="0.43693">
        <ele>115.3</ele>
        <time>2024-07-14T06:12:06Z</time>
      </trkpt>
      <trkpt lat="44.78686" lon="0.43693">
        <ele>115.3</ele>
        <time>2024-07-14T06:12:08Z</time>
      </trkpt>
      <trkpt lat="44.78691" lon="0.43694">
        <ele>115.2</ele>
        <time>2024-07-14T06:12:10Z</time>
      </trkpt>
      <trkpt lat="44.78698" lon="0.43698">
        <ele>115.1</ele>
        <time>2024-07-14T06:12:12Z</time>
      </trkpt>
      <trkpt lat="44.78701" lon="0.43702">
        <ele>115.1</ele>
        <time>2024-07-14T06:12:13Z</time>
      </trkpt>
      <trkpt lat="44.78704" lon="0.43706">
        <ele>115.1</ele>
        <time>2024-07-14T06:12:14Z</time>
      </trkpt>
      <trkpt lat="44.78706" lon="0.4371">
        <ele>115</ele>
        <time>2024-07-14T06:12:15Z</time>
      </trkpt>
      <trkpt lat="44.78707" lon="0.43712">
        <ele>115</ele>
        <time>2024-07-14T06:12:16Z</time>
      </trkpt>
      <trkpt lat="44.78713" lon="0.43718">
        <ele>114.8</ele>
        <time>2024-07-14T06:12:18Z</time>
      </trkpt>
      <trkpt lat="44.78717" lon="0.43721">
        <ele>114.7</ele>
        <time>2024-07-14T06:12:20Z</time>
      </trkpt>
      <trkpt lat="44.78718" lon="0.4372">
        <ele>114.7</ele>
        <time>2024-07-14T06:12:21Z</time>
      </trkpt>
      <trkpt lat="44.78719" lon="0.43718">
        <ele>114.8</ele>
        <time>2024-07-14T06:12:22Z</time>
      </trkpt>
      <trkpt lat="44.78727" lon="0.43713">
        <ele>114.7</ele>
        <time>2024-07-14T06:12:24Z</time>
      </trkpt>
      <trkpt lat="44.7873" lon="0.4371">
        <ele>114.7</ele>
        <time>2024-07-14T06:12:25Z</time>
      </trkpt>
      <trkpt lat="44.78731" lon="0.43707">
        <ele>114.7</ele>
        <time>2024-07-14T06:12:26Z</time>
      </trkpt>
      <trkpt lat="44.7873" lon="0.43704">
        <ele>114.7</ele>
        <time>2024-07-14T06:12:27Z</time>
      </trkpt>
      <trkpt lat="44.78731" lon="0.43702">
        <ele>114.7</ele>
        <time>2024-07-14T06:12:28Z</time>
      </trkpt>
      <trkpt lat="44.78735" lon="0.43696">
        <ele>114.7</ele>
        <time>2024-07-14T06:12:30Z</time>
      </trkpt>
      <trkpt lat="44.78739" lon="0.4369">
        <ele>114.7</ele>
        <time>2024-07-14T06:12:32Z</time>
      </trkpt>
      <trkpt lat="44.7874" lon="0.43687">
        <ele>114.7</ele>
        <time>2024-07-14T06:12:33Z</time>
      </trkpt>
      <trkpt lat="44.7874" lon="0.43683">
        <ele>114.7</ele>
        <time>2024-07-14T06:12:34Z</time>
      </trkpt>
      <trkpt lat="44.78733" lon="0.43674">
        <ele>114.7</ele>
        <time>2024-07-14T06:12:36Z</time>
      </trkpt>
      <trkpt lat="44.78727" lon="0.43669">
        <ele>114.7</ele>
        <time>2024-07-14T06:12:38Z</time>
      </trkpt>
      <trkpt lat="44.78725" lon="0.43666">
        <ele>114.7</ele>
        <time>2024-07-14T06:12:39Z</time>
      </trkpt>
      <trkpt lat="44.78723" lon="0.43663">
        <ele>114.7</ele>
        <time>2024-07-14T06:12:40Z</time>
      </trkpt>
      <trkpt lat="44.78722" lon="0.43658">
        <ele>114.6</ele>
        <time>2024-07-14T06:12:42Z</time>
      </trkpt>
      <trkpt lat="44.78721" lon="0.43656">
        <ele>114.6</ele>
        <time>2024-07-14T06:12:43Z</time>
      </trkpt>
      <trkpt lat="44.78719" lon="0.43652">
        <ele>114.5</ele>
        <time>2024-07-14T06:12:44Z</time>
      </trkpt>
      <trkpt lat="44.78717" lon="0.4364">
        <ele>114.3</ele>
        <time>2024-07-14T06:12:46Z</time>
      </trkpt>
      <trkpt lat="44.78716" lon="0.43636">
        <ele>114.2</ele>
        <time>2024-07-14T06:12:47Z</time>
      </trkpt>
      <trkpt lat="44.78716" lon="0.43633">
        <ele>114.2</ele>
        <time>2024-07-14T06:12:48Z</time>
      </trkpt>
      <trkpt lat="44.78718" lon="0.43631">
        <ele>114.1</ele>
        <time>2024-07-14T06:12:49Z</time>
      </trkpt>
      <trkpt lat="44.7872" lon="0.4363">
        <ele>114.1</ele>
        <time>2024-07-14T06:12:50Z</time>
      </trkpt>
      <trkpt lat="44.78721" lon="0.4363">
        <ele>114.1</ele>
        <time>2024-07-14T06:12:51Z</time>
      </trkpt>
      <trkpt lat="44.78723" lon="0.43631">
        <ele>114.1</ele>
        <time>2024-07-14T06:12:52Z</time>
      </trkpt>
      <trkpt lat="44.78724" lon="0.43632">
        <ele>114.2</ele>
        <time>2024-07-14T06:12:53Z</time>
      </trkpt>
      <trkpt lat="44.78725" lon="0.43635">
        <ele>114.2</ele>
        <time>2024-07-14T06:12:54Z</time>
      </trkpt>
      <trkpt lat="44.78726" lon="0.43638">
        <ele>114.3</ele>
        <time>2024-07-14T06:12:55Z</time>
      </trkpt>
      <trkpt lat="44.78728" lon="0.43639">
        <ele>114.3</ele>
        <time>2024-07-14T06:12:56Z</time>
      </trkpt>
      <trkpt lat="44.78732" lon="0.43641">
        <ele>114.4</ele>
        <time>2024-07-14T06:12:58Z</time>
      </trkpt>
      <trkpt lat="44.78736" lon="0.43639">
        <ele>114.3</ele>
        <time>2024-07-14T06:13:00Z</time>
      </trkpt>
      <trkpt lat="44.78736" lon="0.43638">
        <ele>114.3</ele>
        <time>2024-07-14T06:13:01Z</time>
      </trkpt>
      <trkpt lat="44.78738" lon="0.43635">
        <ele>114.2</ele>
        <time>2024-07-14T06:13:02Z</time>
      </trkpt>
      <trkpt lat="44.78742" lon="0.43634">
        <ele>114.2</ele>
        <time>2024-07-14T06:13:04Z</time>
      </trkpt>
      <trkpt lat="44.78744" lon="0.43636">
        <ele>114.2</ele>
        <time>2024-07-14T06:13:05Z</time>
      </trkpt>
      <trkpt lat="44.78747" lon="0.43638">
        <ele>114.3</ele>
        <time>2024-07-14T06:13:06Z</time>
      </trkpt>
      <trkpt lat="44.78749" lon="0.43639">
        <ele>114.3</ele>
        <time>2024-07-14T06:13:07Z</time>
      </trkpt>
      <trkpt lat="44.7875" lon="0.4364">
        <ele>114.3</ele>
        <time>2024-07-14T06:13:08Z</time>
      </trkpt>
      <trkpt lat="44.78753" lon="0.43639">
        <ele>114.3</ele>
        <time>2024-07-14T06:13:10Z</time>
      </trkpt>
      <trkpt lat="44.78756" lon="0.43636">
        <ele>114.2</ele>
        <time>2024-07-14T06:13:12Z</time>
      </trkpt>
      <trkpt lat="44.78757" lon="0.43631">
        <ele>114.1</ele>
        <time>2024-07-14T06:13:14Z</time>
      </trkpt>
      <trkpt lat="44.7876" lon="0.43628">
        <ele>114</ele>
        <time>2024-07-14T06:13:16Z</time>
      </trkpt>
      <trkpt lat="44.78761" lon="0.43627">
        <ele>114</ele>
        <time>2024-07-14T06:13:17Z</time>
      </trkpt>
      <trkpt lat="44.78763" lon="0.43626">
        <ele>114</ele>
        <time>2024-07-14T06:13:18Z</time>
      </trkpt>
      <trkpt lat="44.78766" lon="0.43625">
        <ele>114</ele>
        <time>2024-07-14T06:13:19Z</time>
      </trkpt>
      <trkpt lat="44.78768" lon="0.43626">
        <ele>114</ele>
        <time>2024-07-14T06:13:20Z</time>
      </trkpt>
      <trkpt lat="44.78771" lon="0.43627">
        <ele>114</ele>
        <time>2024-07-14T06:13:21Z</time>
      </trkpt>
      <trkpt lat="44.78772" lon="0.43629">
        <ele>114</ele>
        <time>2024-07-14T06:13:22Z</time>
      </trkpt>
      <trkpt lat="44.78776" lon="0.43632">
        <ele>114</ele>
        <time>2024-07-14T06:13:24Z</time>
      </trkpt>
      <trkpt lat="44.78777" lon="0.43629">
        <ele>114</ele>
        <time>2024-07-14T06:13:26Z</time>
      </trkpt>
      <trkpt lat="44.78777" lon="0.43627">
        <ele>113.9</ele>
        <time>2024-07-14T06:13:27Z</time>
      </trkpt>
      <trkpt lat="44.78776" lon="0.43625">
        <ele>113.9</ele>
        <time>2024-07-14T06:13:28Z</time>
      </trkpt>
      <trkpt lat="44.78776" lon="0.43619">
        <ele>113.8</ele>
        <time>2024-07-14T06:13:30Z</time>
      </trkpt>
      <trkpt lat="44.78776" lon="0.43615">
        <ele>113.8</ele>
        <time>2024-07-14T06:13:32Z</time>
      </trkpt>
      <trkpt lat="44.78776" lon="0.43611">
        <ele>113.7</ele>
        <time>2024-07-14T06:13:33Z</time>
      </trkpt>
      <trkpt lat="44.78776" lon="0.43608">
        <ele>113.7</ele>
        <time>2024-07-14T06:13:34Z</time>
      </trkpt>
      <trkpt lat="44.78777" lon="0.43603">
        <ele>113.6</ele>
        <time>2024-07-14T06:13:35Z</time>
      </trkpt>
      <trkpt lat="44.78778" lon="0.43599">
        <ele>113.6</ele>
        <time>2024-07-14T06:13:36Z</time>
      </trkpt>
      <trkpt lat="44.7878" lon="0.43592">
        <ele>113.5</ele>
        <time>2024-07-14T06:13:38Z</time>
      </trkpt>
      <trkpt lat="44.78783" lon="0.43587">
        <ele>113.5</ele>
        <time>2024-07-14T06:13:40Z</time>
      </trkpt>
      <trkpt lat="44.78784" lon="0.43584">
        <ele>113.4</ele>
        <time>2024-07-14T06:13:41Z</time>
      </trkpt>
      <trkpt lat="44.78786" lon="0.43581">
        <ele>113.4</ele>
        <time>2024-07-14T06:13:42Z</time>
      </trkpt>
      <trkpt lat="44.78787" lon="0.43577">
        <ele>113.4</ele>
        <time>2024-07-14T06:13:43Z</time>
      </trkpt>
      <trkpt lat="44.7879" lon="0.43575">
        <ele>113.5</ele>
        <time>2024-07-14T06:13:44Z</time>
      </trkpt>
      <trkpt lat="44.78792" lon="0.4357">
        <ele>113.5</ele>
        <time>2024-07-14T06:13:46Z</time>
      </trkpt>
      <trkpt lat="44.78795" lon="0.43561">
        <ele>113.6</ele>
        <time>2024-07-14T06:13:48Z</time>
      </trkpt>
      <trkpt lat="44.78796" lon="0.43557">
        <ele>113.7</ele>
        <time>2024-07-14T06:13:49Z</time>
      </trkpt>
      <trkpt lat="44.78796" lon="0.43554">
        <ele>113.7</ele>
        <time>2024-07-14T06:13:50Z</time>
      </trkpt>
      <trkpt lat="44.78796" lon="0.4355">
        <ele>113.8</ele>
        <time>2024-07-14T06:13:52Z</time>
      </trkpt>
      <trkpt lat="44.78795" lon="0.43546">
        <ele>113.8</ele>
        <time>2024-07-14T06:13:53Z</time>
      </trkpt>
      <trkpt lat="44.78794" lon="0.43542">
        <ele>113.8</ele>
        <time>2024-07-14T06:13:54Z</time>
      </trkpt>
      <trkpt lat="44.78793" lon="0.43538">
        <ele>113.9</ele>
        <time>2024-07-14T06:13:55Z</time>
      </trkpt>
      <trkpt lat="44.78793" lon="0.43536">
        <ele>114</ele>
        <time>2024-07-14T06:13:56Z</time>
      </trkpt>
      <trkpt lat="44.78793" lon="0.43533">
        <ele>114.1</ele>
        <time>2024-07-14T06:13:57Z</time>
      </trkpt>
      <trkpt lat="44.78794" lon="0.43532">
        <ele>114.1</ele>
        <time>2024-07-14T06:13:58Z</time>
      </trkpt>
      <trkpt lat="44.78794" lon="0.43529">
        <ele>114.1</ele>
        <time>2024-07-14T06:13:59Z</time>
      </trkpt>
      <trkpt lat="44.78795" lon="0.43526">
        <ele>114.2</ele>
        <time>2024-07-14T06:14:00Z</time>
      </trkpt>
      <trkpt lat="44.78795" lon="0.43522">
        <ele>114.3</ele>
        <time>2024-07-14T06:14:01Z</time>
      </trkpt>
      <trkpt lat="44.78794" lon="0.43518">
        <ele>114.4</ele>
        <time>2024-07-14T06:14:02Z</time>
      </trkpt>
      <trkpt lat="44.78793" lon="0.43514">
        <ele>114.5</ele>
        <time>2024-07-14T06:14:04Z</time>
      </trkpt>
      <trkpt lat="44.78791" lon="0.43512">
        <ele>114.6</ele>
        <time>2024-07-14T06:14:05Z</time>
      </trkpt>
      <trkpt lat="44.7879" lon="0.4351">
        <ele>114.6</ele>
        <time>2024-07-14T06:14:06Z</time>
      </trkpt>
      <trkpt lat="44.78788" lon="0.43508">
        <ele>114.6</ele>
        <time>2024-07-14T06:14:07Z</time>
      </trkpt>
      <trkpt lat="44.78785" lon="0.43505">
        <ele>114.5</ele>
        <time>2024-07-14T06:14:08Z</time>
      </trkpt>
      <trkpt lat="44.78779" lon="0.43497">
        <ele>114.5</ele>
        <time>2024-07-14T06:14:10Z</time>
      </trkpt>
      <trkpt lat="44.78771" lon="0.43488">
        <ele>114.2</ele>
        <time>2024-07-14T06:14:12Z</time>
      </trkpt>
      <trkpt lat="44.7876" lon="0.43481">
        <ele>113.8</ele>
        <time>2024-07-14T06:14:14Z</time>
      </trkpt>
      <trkpt lat="44.78749" lon="0.43473">
        <ele>113.1</ele>
        <time>2024-07-14T06:14:16Z</time>
      </trkpt>
      <trkpt lat="44.78747" lon="0.43468">
        <ele>112.9</ele>
        <time>2024-07-14T06:14:17Z</time>
      </trkpt>
      <trkpt lat="44.78746" lon="0.43464">
        <ele>112.9</ele>
        <time>2024-07-14T06:14:18Z</time>
      </trkpt>
      <trkpt lat="44.78742" lon="0.43456">
        <ele>112.7</ele>
        <time>2024-07-14T06:14:20Z</time>
      </trkpt>
      <trkpt lat="44.78741" lon="0.43453">
        <ele>112.8</ele>
        <time>2024-07-14T06:14:21Z</time>
      </trkpt>
      <trkpt lat="44.78741" lon="0.4345">
        <ele>112.6</ele>
        <time>2024-07-14T06:14:22Z</time>
      </trkpt>
      <trkpt lat="44.7874" lon="0.43445">
        <ele>112.7</ele>
        <time>2024-07-14T06:14:23Z</time>
      </trkpt>
      <trkpt lat="44.78739" lon="0.43441">
        <ele>112.8</ele>
        <time>2024-07-14T06:14:24Z</time>
      </trkpt>
      <trkpt lat="44.78738" lon="0.43437">
        <ele>112.9</ele>
        <time>2024-07-14T06:14:25Z</time>
      </trkpt>
      <trkpt lat="44.78737" lon="0.43433">
        <ele>112.8</ele>
        <time>2024-07-14T06:14:26Z</time>
      </trkpt>
      <trkpt lat="44.78736" lon="0.43425">
        <ele>113</ele>
        <time>2024-07-14T06:14:28Z</time>
      </trkpt>
      <trkpt lat="44.78735" lon="0.43417">
        <ele>113.2</ele>
        <time>2024-07-14T06:14:30Z</time>
      </trkpt>
      <trkpt lat="44.78736" lon="0.43411">
        <ele>113.3</ele>
        <time>2024-07-14T06:14:32Z</time>
      </trkpt>
      <trkpt lat="44.78734" lon="0.43403">
        <ele>113.2</ele>
        <time>2024-07-14T06:14:34Z</time>
      </trkpt>
      <trkpt lat="44.78733" lon="0.43398">
        <ele>113.3</ele>
        <time>2024-07-14T06:14:36Z</time>
      </trkpt>
      <trkpt lat="44.78733" lon="0.43393">
        <ele>113.4</ele>
        <time>2024-07-14T06:14:37Z</time>
      </trkpt>
      <trkpt lat="44.78732" lon="0.43389">
        <ele>113.5</ele>
        <time>2024-07-14T06:14:38Z</time>
      </trkpt>
      <trkpt lat="44.78732" lon="0.43383">
        <ele>113.4</ele>
        <time>2024-07-14T06:14:40Z</time>
      </trkpt>
      <trkpt lat="44.78733" lon="0.43381">
        <ele>113.6</ele>
        <time>2024-07-14T06:14:42Z</time>
      </trkpt>
      <trkpt lat="44.78736" lon="0.43378">
        <ele>113.9</ele>
        <time>2024-07-14T06:14:44Z</time>
      </trkpt>
      <trkpt lat="44.78738" lon="0.43375">
        <ele>114.1</ele>
        <time>2024-07-14T06:14:46Z</time>
      </trkpt>
      <trkpt lat="44.78739" lon="0.43373">
        <ele>114.2</ele>
        <time>2024-07-14T06:14:47Z</time>
      </trkpt>
      <trkpt lat="44.78739" lon="0.43371">
        <ele>114.2</ele>
        <time>2024-07-14T06:14:48Z</time>
      </trkpt>
      <trkpt lat="44.78742" lon="0.43367">
        <ele>114.5</ele>
        <time>2024-07-14T06:14:50Z</time>
      </trkpt>
      <trkpt lat="44.78744" lon="0.43366">
        <ele>114.5</ele>
        <time>2024-07-14T06:14:51Z</time>
      </trkpt>
      <trkpt lat="44.78746" lon="0.43366">
        <ele>114.9</ele>
        <time>2024-07-14T06:14:52Z</time>
      </trkpt>
      <trkpt lat="44.78749" lon="0.43363">
        <ele>115.1</ele>
        <time>2024-07-14T06:14:54Z</time>
      </trkpt>
      <trkpt lat="44.78752" lon="0.43358">
        <ele>115.6</ele>
        <time>2024-07-14T06:14:56Z</time>
      </trkpt>
      <trkpt lat="44.78755" lon="0.43354">
        <ele>116</ele>
        <time>2024-07-14T06:14:58Z</time>
      </trkpt>
      <trkpt lat="44.78756" lon="0.43352">
        <ele>116.1</ele>
        <time>2024-07-14T06:14:59Z</time>
      </trkpt>
      <trkpt lat="44.78757" lon="0.4335">
        <ele>116.4</ele>
        <time>2024-07-14T06:15:00Z</time>
      </trkpt>
      <trkpt lat="44.78759" lon="0.43347">
        <ele>116.6</ele>
        <time>2024-07-14T06:15:02Z</time>
      </trkpt>
      <trkpt lat="44.7876" lon="0.43346">
        <ele>116.9</ele>
        <time>2024-07-14T06:15:03Z</time>
      </trkpt>
      <trkpt lat="44.78762" lon="0.43345">
        <ele>116.9</ele>
        <time>2024-07-14T06:15:04Z</time>
      </trkpt>
      <trkpt lat="44.78765" lon="0.43342">
        <ele>117.3</ele>
        <time>2024-07-14T06:15:06Z</time>
      </trkpt>
      <trkpt lat="44.78768" lon="0.43339">
        <ele>117.7</ele>
        <time>2024-07-14T06:15:08Z</time>
      </trkpt>
      <trkpt lat="44.78768" lon="0.43337">
        <ele>117.7</ele>
        <time>2024-07-14T06:15:09Z</time>
      </trkpt>
      <trkpt lat="44.78767" lon="0.43335">
        <ele>117.8</ele>
        <time>2024-07-14T06:15:10Z</time>
      </trkpt>
      <trkpt lat="44.78766" lon="0.43333">
        <ele>117.8</ele>
        <time>2024-07-14T06:15:12Z</time>
      </trkpt>
      <trkpt lat="44.78766" lon="0.43334">
        <ele>117.8</ele>
        <time>2024-07-14T06:15:13Z</time>
      </trkpt>
      <trkpt lat="44.78765" lon="0.43334">
        <ele>117.5</ele>
        <time>2024-07-14T06:15:14Z</time>
      </trkpt>
      <trkpt lat="44.78761" lon="0.43332">
        <ele>117.3</ele>
        <time>2024-07-14T06:15:15Z</time>
      </trkpt>
      <trkpt lat="44.78757" lon="0.4333">
        <ele>117</ele>
        <time>2024-07-14T06:15:16Z</time>
      </trkpt>
      <trkpt lat="44.78751" lon="0.43328">
        <ele>116.4</ele>
        <time>2024-07-14T06:15:18Z</time>
      </trkpt>
      <trkpt lat="44.7875" lon="0.43326">
        <ele>116.2</ele>
        <time>2024-07-14T06:15:19Z</time>
      </trkpt>
      <trkpt lat="44.78748" lon="0.43323">
        <ele>116.2</ele>
        <time>2024-07-14T06:15:20Z</time>
      </trkpt>
      <trkpt lat="44.78746" lon="0.43322">
        <ele>116.1</ele>
        <time>2024-07-14T06:15:21Z</time>
      </trkpt>
      <trkpt lat="44.78744" lon="0.4332">
        <ele>116.1</ele>
        <time>2024-07-14T06:15:22Z</time>
      </trkpt>
      <trkpt lat="44.78741" lon="0.43317">
        <ele>116</ele>
        <time>2024-07-14T06:15:24Z</time>
      </trkpt>
      <trkpt lat="44.78733" lon="0.43309">
        <ele>115.4</ele>
        <time>2024-07-14T06:15:26Z</time>
      </trkpt>
      <trkpt lat="44.7873" lon="0.43307">
        <ele>115.2</ele>
        <time>2024-07-14T06:15:27Z</time>
      </trkpt>
      <trkpt lat="44.78728" lon="0.43306">
        <ele>115</ele>
        <time>2024-07-14T06:15:28Z</time>
      </trkpt>
      <trkpt lat="44.78726" lon="0.4331">
        <ele>115</ele>
        <time>2024-07-14T06:15:30Z</time>
      </trkpt>
      <trkpt lat="44.78723" lon="0.43313">
        <ele>114.7</ele>
        <time>2024-07-14T06:15:32Z</time>
      </trkpt>
      <trkpt lat="44.78722" lon="0.43313">
        <ele>114.5</ele>
        <time>2024-07-14T06:15:33Z</time>
      </trkpt>
      <trkpt lat="44.78719" lon="0.43313">
        <ele>114.3</ele>
        <time>2024-07-14T06:15:34Z</time>
      </trkpt>
      <trkpt lat="44.78714" lon="0.43314">
        <ele>114.1</ele>
        <time>2024-07-14T06:15:36Z</time>
      </trkpt>
      <trkpt lat="44.78712" lon="0.43315">
        <ele>113.9</ele>
        <time>2024-07-14T06:15:37Z</time>
      </trkpt>
      <trkpt lat="44.7871" lon="0.43314">
        <ele>113.8</ele>
        <time>2024-07-14T06:15:38Z</time>
      </trkpt>
      <trkpt lat="44.78703" lon="0.43307">
        <ele>113.6</ele>
        <time>2024-07-14T06:15:40Z</time>
      </trkpt>
      <trkpt lat="44.78699" lon="0.43302">
        <ele>113.5</ele>
        <time>2024-07-14T06:15:41Z</time>
      </trkpt>
      <trkpt lat="44.78695" lon="0.43299">
        <ele>113.4</ele>
        <time>2024-07-14T06:15:42Z</time>
      </trkpt>
      <trkpt lat="44.78693" lon="0.43297">
        <ele>113.4</ele>
        <time>2024-07-14T06:15:44Z</time>
      </trkpt>
      <trkpt lat="44.78688" lon="0.43292">
        <ele>113.3</ele>
        <time>2024-07-14T06:15:46Z</time>
      </trkpt>
      <trkpt lat="44.78684" lon="0.43288">
        <ele>113.3</ele>
        <time>2024-07-14T06:15:48Z</time>
      </trkpt>
      <trkpt lat="44.78682" lon="0.43286">
        <ele>113.2</ele>
        <time>2024-07-14T06:15:49Z</time>
      </trkpt>
      <trkpt lat="44.7868" lon="0.43283">
        <ele>113.2</ele>
        <time>2024-07-14T06:15:50Z</time>
      </trkpt>
      <trkpt lat="44.78673" lon="0.4328">
        <ele>113.1</ele>
        <time>2024-07-14T06:15:52Z</time>
      </trkpt>
      <trkpt lat="44.78669" lon="0.43279">
        <ele>113</ele>
        <time>2024-07-14T06:15:53Z</time>
      </trkpt>
      <trkpt lat="44.78667" lon="0.43278">
        <ele>112.9</ele>
        <time>2024-07-14T06:15:54Z</time>
      </trkpt>
      <trkpt lat="44.78662" lon="0.43276">
        <ele>112.6</ele>
        <time>2024-07-14T06:15:56Z</time>
      </trkpt>
      <trkpt lat="44.78659" lon="0.43276">
        <ele>112.8</ele>
        <time>2024-07-14T06:15:57Z</time>
      </trkpt>
      <trkpt lat="44.78656" lon="0.43276">
        <ele>112.7</ele>
        <time>2024-07-14T06:15:58Z</time>
      </trkpt>
      <trkpt lat="44.7865" lon="0.43275">
        <ele>112.5</ele>
        <time>2024-07-14T06:16:00Z</time>
      </trkpt>
      <trkpt lat="44.78643" lon="0.43277">
        <ele>112</ele>
        <time>2024-07-14T06:16:02Z</time>
      </trkpt>
      <trkpt lat="44.7864" lon="0.43277">
        <ele>111.9</ele>
        <time>2024-07-14T06:16:03Z</time>
      </trkpt>
      <trkpt lat="44.78639" lon="0.43276">
        <ele>112</ele>
        <time>2024-07-14T06:16:04Z</time>
      </trkpt>
      <trkpt lat="44.78638" lon="0.43271">
        <ele>112.1</ele>
        <time>2024-07-14T06:16:06Z</time>
      </trkpt>
      <trkpt lat="44.78638" lon="0.43265">
        <ele>112.3</ele>
        <time>2024-07-14T06:16:08Z</time>
      </trkpt>
      <trkpt lat="44.78636" lon="0.4326">
        <ele>112.3</ele>
        <time>2024-07-14T06:16:10Z</time>
      </trkpt>
      <trkpt lat="44.78633" lon="0.43257">
        <ele>112.4</ele>
        <time>2024-07-14T06:16:12Z</time>
      </trkpt>
      <trkpt lat="44.7863" lon="0.43252">
        <ele>112.4</ele>
        <time>2024-07-14T06:16:14Z</time>
      </trkpt>
      <trkpt lat="44.78627" lon="0.43249">
        <ele>112.5</ele>
        <time>2024-07-14T06:16:16Z</time>
      </trkpt>
      <trkpt lat="44.78625" lon="0.43247">
        <ele>112.5</ele>
        <time>2024-07-14T06:16:17Z</time>
      </trkpt>
      <trkpt lat="44.78624" lon="0.43245">
        <ele>112.6</ele>
        <time>2024-07-14T06:16:18Z</time>
      </trkpt>
      <trkpt lat="44.78621" lon="0.43241">
        <ele>112.7</ele>
        <time>2024-07-14T06:16:20Z</time>
      </trkpt>
      <trkpt lat="44.78618" lon="0.43237">
        <ele>112.8</ele>
        <time>2024-07-14T06:16:22Z</time>
      </trkpt>
      <trkpt lat="44.78617" lon="0.43235">
        <ele>112.8</ele>
        <time>2024-07-14T06:16:23Z</time>
      </trkpt>
      <trkpt lat="44.78616" lon="0.43232">
        <ele>112.9</ele>
        <time>2024-07-14T06:16:24Z</time>
      </trkpt>
      <trkpt lat="44.78613" lon="0.43226">
        <ele>112.9</ele>
        <time>2024-07-14T06:16:26Z</time>
      </trkpt>
      <trkpt lat="44.7861" lon="0.43221">
        <ele>113.1</ele>
        <time>2024-07-14T06:16:28Z</time>
      </trkpt>
      <trkpt lat="44.78608" lon="0.43217">
        <ele>113.2</ele>
        <time>2024-07-14T06:16:30Z</time>
      </trkpt>
      <trkpt lat="44.78605" lon="0.43213">
        <ele>113.3</ele>
        <time>2024-07-14T06:16:32Z</time>
      </trkpt>
      <trkpt lat="44.78604" lon="0.43211">
        <ele>113.5</ele>
        <time>2024-07-14T06:16:33Z</time>
      </trkpt>
      <trkpt lat="44.78603" lon="0.43208">
        <ele>113.4</ele>
        <time>2024-07-14T06:16:34Z</time>
      </trkpt>
      <trkpt lat="44.78604" lon="0.43207">
        <ele>113.6</ele>
        <time>2024-07-14T06:16:35Z</time>
      </trkpt>
      <trkpt lat="44.78605" lon="0.43206">
        <ele>113.7</ele>
        <time>2024-07-14T06:16:36Z</time>
      </trkpt>
      <trkpt lat="44.78605" lon="0.43204">
        <ele>113.7</ele>
        <time>2024-07-14T06:16:37Z</time>
      </trkpt>
      <trkpt lat="44.78604" lon="0.43201">
        <ele>113.8</ele>
        <time>2024-07-14T06:16:38Z</time>
      </trkpt>
      <trkpt lat="44.78602" lon="0.43194">
        <ele>113.9</ele>
        <time>2024-07-14T06:16:40Z</time>
      </trkpt>
      <trkpt lat="44.78601" lon="0.43189">
        <ele>114.1</ele>
        <time>2024-07-14T06:16:42Z</time>
      </trkpt>
      <trkpt lat="44.78599" lon="0.43185">
        <ele>114.2</ele>
        <time>2024-07-14T06:16:44Z</time>
      </trkpt>
      <trkpt lat="44.78601" lon="0.43184">
        <ele>114.3</ele>
        <time>2024-07-14T06:16:46Z</time>
      </trkpt>
      <trkpt lat="44.78602" lon="0.43184">
        <ele>114.3</ele>
        <time>2024-07-14T06:16:47Z</time>
      </trkpt>
      <trkpt lat="44.78601" lon="0.4318">
        <ele>114.4</ele>
        <time>2024-07-14T06:16:48Z</time>
      </trkpt>
      <trkpt lat="44.78599" lon="0.43174">
        <ele>114.5</ele>
        <time>2024-07-14T06:16:50Z</time>
      </trkpt>
      <trkpt lat="44.786" lon="0.43167">
        <ele>114.7</ele>
        <time>2024-07-14T06:16:52Z</time>
      </trkpt>
      <trkpt lat="44.78599" lon="0.43161">
        <ele>114.8</ele>
        <time>2024-07-14T06:16:54Z</time>
      </trkpt>
      <trkpt lat="44.78596" lon="0.43154">
        <ele>114.9</ele>
        <time>2024-07-14T06:16:56Z</time>
      </trkpt>
      <trkpt lat="44.78593" lon="0.43151">
        <ele>114.9</ele>
        <time>2024-07-14T06:16:58Z</time>
      </trkpt>
      <trkpt lat="44.7859" lon="0.43145">
        <ele>115</ele>
        <time>2024-07-14T06:17:00Z</time>
      </trkpt>
      <trkpt lat="44.78588" lon="0.43143">
        <ele>114.9</ele>
        <time>2024-07-14T06:17:01Z</time>
      </trkpt>
      <trkpt lat="44.78588" lon="0.4314">
        <ele>115</ele>
        <time>2024-07-14T06:17:02Z</time>
      </trkpt>
      <trkpt lat="44.78587" lon="0.43135">
        <ele>115.1</ele>
        <time>2024-07-14T06:17:03Z</time>
      </trkpt>
      <trkpt lat="44.78587" lon="0.4313">
        <ele>115.2</ele>
        <time>2024-07-14T06:17:04Z</time>
      </trkpt>
      <trkpt lat="44.78583" lon="0.43121">
        <ele>115.3</ele>
        <time>2024-07-14T06:17:06Z</time>
      </trkpt>
      <trkpt lat="44.7858" lon="0.43115">
        <ele>115.3</ele>
        <time>2024-07-14T06:17:07Z</time>
      </trkpt>
      <trkpt lat="44.78577" lon="0.43109">
        <ele>115.2</ele>
        <time>2024-07-14T06:17:08Z</time>
      </trkpt>
      <trkpt lat="44.78574" lon="0.431">
        <ele>115.2</ele>
        <time>2024-07-14T06:17:09Z</time>
      </trkpt>
      <trkpt lat="44.78569" lon="0.43094">
        <ele>114.9</ele>
        <time>2024-07-14T06:17:10Z</time>
      </trkpt>
      <trkpt lat="44.78564" lon="0.43087">
        <ele>114.4</ele>
        <time>2024-07-14T06:17:11Z</time>
      </trkpt>
      <trkpt lat="44.78559" lon="0.43083">
        <ele>114.2</ele>
        <time>2024-07-14T06:17:12Z</time>
      </trkpt>
      <trkpt lat="44.78554" lon="0.43077">
        <ele>113.5</ele>
        <time>2024-07-14T06:17:13Z</time>
      </trkpt>
      <trkpt lat="44.78549" lon="0.43073">
        <ele>112.6</ele>
        <time>2024-07-14T06:17:14Z</time>
      </trkpt>
      <trkpt lat="44.78545" lon="0.43073">
        <ele>112.2</ele>
        <time>2024-07-14T06:17:15Z</time>
      </trkpt>
      <trkpt lat="44.78541" lon="0.43075">
        <ele>111.8</ele>
        <time>2024-07-14T06:17:16Z</time>
      </trkpt>
      <trkpt lat="44.78537" lon="0.43077">
        <ele>110.8</ele>
        <time>2024-07-14T06:17:17Z</time>
      </trkpt>
      <trkpt lat="44.78532" lon="0.43078">
        <ele>110.3</ele>
        <time>2024-07-14T06:17:18Z</time>
      </trkpt>
      <trkpt lat="44.78522" lon="0.43079">
        <ele>108.6</ele>
        <time>2024-07-14T06:17:20Z</time>
      </trkpt>
      <trkpt lat="44.78513" lon="0.4308">
        <ele>106.9</ele>
        <time>2024-07-14T06:17:22Z</time>
      </trkpt>
      <trkpt lat="44.78508" lon="0.43081">
        <ele>105.9</ele>
        <time>2024-07-14T06:17:23Z</time>
      </trkpt>
      <trkpt lat="44.78504" lon="0.43082">
        <ele>105.3</ele>
        <time>2024-07-14T06:17:24Z</time>
      </trkpt>
      <trkpt lat="44.78499" lon="0.43083">
        <ele>104.2</ele>
        <time>2024-07-14T06:17:25Z</time>
      </trkpt>
      <trkpt lat="44.78494" lon="0.43085">
        <ele>103.2</ele>
        <time>2024-07-14T06:17:26Z</time>
      </trkpt>
      <trkpt lat="44.78484" lon="0.43089">
        <ele>101.9</ele>
        <time>2024-07-14T06:17:28Z</time>
      </trkpt>
      <trkpt lat="44.78478" lon="0.43089">
        <ele>101</ele>
        <time>2024-07-14T06:17:29Z</time>
      </trkpt>
      <trkpt lat="44.78473" lon="0.43087">
        <ele>100.2</ele>
        <time>2024-07-14T06:17:30Z</time>
      </trkpt>
      <trkpt lat="44.78463" lon="0.43082">
        <ele>99.3</ele>
        <time>2024-07-14T06:17:32Z</time>
      </trkpt>
      <trkpt lat="44.78459" lon="0.43079">
        <ele>99.1</ele>
        <time>2024-07-14T06:17:33Z</time>
      </trkpt>
      <trkpt lat="44.78455" lon="0.43076">
        <ele>98.9</ele>
        <time>2024-07-14T06:17:34Z</time>
      </trkpt>
      <trkpt lat="44.78447" lon="0.43071">
        <ele>98.4</ele>
        <time>2024-07-14T06:17:36Z</time>
      </trkpt>
      <trkpt lat="44.78439" lon="0.43065">
        <ele>98.2</ele>
        <time>2024-07-14T06:17:38Z</time>
      </trkpt>
      <trkpt lat="44.78431" lon="0.43059">
        <ele>98</ele>
        <time>2024-07-14T06:17:40Z</time>
      </trkpt>
      <trkpt lat="44.78427" lon="0.43057">
        <ele>97.9</ele>
        <time>2024-07-14T06:17:41Z</time>
      </trkpt>
      <trkpt lat="44.78423" lon="0.43054">
        <ele>97.8</ele>
        <time>2024-07-14T06:17:42Z</time>
      </trkpt>
      <trkpt lat="44.78416" lon="0.43048">
        <ele>97.9</ele>
        <time>2024-07-14T06:17:44Z</time>
      </trkpt>
      <trkpt lat="44.78412" lon="0.43047">
        <ele>97.7</ele>
        <time>2024-07-14T06:17:45Z</time>
      </trkpt>
      <trkpt lat="44.78408" lon="0.43045">
        <ele>97.6</ele>
        <time>2024-07-14T06:17:46Z</time>
      </trkpt>
      <trkpt lat="44.784" lon="0.43041">
        <ele>97.7</ele>
        <time>2024-07-14T06:17:48Z</time>
      </trkpt>
      <trkpt lat="44.78392" lon="0.43037">
        <ele>97.9</ele>
        <time>2024-07-14T06:17:50Z</time>
      </trkpt>
      <trkpt lat="44.78388" lon="0.43034">
        <ele>98.1</ele>
        <time>2024-07-14T06:17:51Z</time>
      </trkpt>
      <trkpt lat="44.78384" lon="0.43032">
        <ele>98.1</ele>
        <time>2024-07-14T06:17:52Z</time>
      </trkpt>
      <trkpt lat="44.78375" lon="0.43028">
        <ele>98.4</ele>
        <time>2024-07-14T06:17:54Z</time>
      </trkpt>
      <trkpt lat="44.78367" lon="0.43024">
        <ele>98.7</ele>
        <time>2024-07-14T06:17:56Z</time>
      </trkpt>
      <trkpt lat="44.7836" lon="0.43019">
        <ele>98.9</ele>
        <time>2024-07-14T06:17:58Z</time>
      </trkpt>
      <trkpt lat="44.78353" lon="0.43015">
        <ele>99</ele>
        <time>2024-07-14T06:18:00Z</time>
      </trkpt>
      <trkpt lat="44.78347" lon="0.43012">
        <ele>99</ele>
        <time>2024-07-14T06:18:02Z</time>
      </trkpt>
      <trkpt lat="44.7834" lon="0.43008">
        <ele>98.9</ele>
        <time>2024-07-14T06:18:04Z</time>
      </trkpt>
      <trkpt lat="44.78333" lon="0.43002">
        <ele>98.8</ele>
        <time>2024-07-14T06:18:06Z</time>
      </trkpt>
      <trkpt lat="44.78325" lon="0.42998">
        <ele>98.7</ele>
        <time>2024-07-14T06:18:08Z</time>
      </trkpt>
      <trkpt lat="44.78321" lon="0.42996">
        <ele>98.7</ele>
        <time>2024-07-14T06:18:09Z</time>
      </trkpt>
      <trkpt lat="44.78317" lon="0.42995">
        <ele>98.7</ele>
        <time>2024-07-14T06:18:10Z</time>
      </trkpt>
      <trkpt lat="44.78309" lon="0.42994">
        <ele>98.6</ele>
        <time>2024-07-14T06:18:12Z</time>
      </trkpt>
      <trkpt lat="44.78304" lon="0.42989">
        <ele>98.8</ele>
        <time>2024-07-14T06:18:14Z</time>
      </trkpt>
      <trkpt lat="44.78299" lon="0.42982">
        <ele>99.1</ele>
        <time>2024-07-14T06:18:16Z</time>
      </trkpt>
      <trkpt lat="44.78295" lon="0.42974">
        <ele>99.6</ele>
        <time>2024-07-14T06:18:18Z</time>
      </trkpt>
      <trkpt lat="44.7829" lon="0.42965">
        <ele>100</ele>
        <time>2024-07-14T06:18:20Z</time>
      </trkpt>
      <trkpt lat="44.78285" lon="0.42957">
        <ele>100.4</ele>
        <time>2024-07-14T06:18:22Z</time>
      </trkpt>
      <trkpt lat="44.7828" lon="0.4295">
        <ele>100.6</ele>
        <time>2024-07-14T06:18:24Z</time>
      </trkpt>
      <trkpt lat="44.78274" lon="0.42943">
        <ele>100.9</ele>
        <time>2024-07-14T06:18:26Z</time>
      </trkpt>
      <trkpt lat="44.78271" lon="0.42943">
        <ele>100.9</ele>
        <time>2024-07-14T06:18:27Z</time>
      </trkpt>
      <trkpt lat="44.78269" lon="0.42945">
        <ele>100.9</ele>
        <time>2024-07-14T06:18:28Z</time>
      </trkpt>
      <trkpt lat="44.78268" lon="0.42949">
        <ele>100.7</ele>
        <time>2024-07-14T06:18:29Z</time>
      </trkpt>
      <trkpt lat="44.78266" lon="0.42954">
        <ele>100.6</ele>
        <time>2024-07-14T06:18:30Z</time>
      </trkpt>
      <trkpt lat="44.78262" lon="0.42964">
        <ele>100.1</ele>
        <time>2024-07-14T06:18:32Z</time>
      </trkpt>
      <trkpt lat="44.78256" lon="0.42976">
        <ele>99.6</ele>
        <time>2024-07-14T06:18:34Z</time>
      </trkpt>
      <trkpt lat="44.7825" lon="0.42988">
        <ele>99.3</ele>
        <time>2024-07-14T06:18:36Z</time>
      </trkpt>
      <trkpt lat="44.78248" lon="0.42992">
        <ele>99.1</ele>
        <time>2024-07-14T06:18:37Z</time>
      </trkpt>
      <trkpt lat="44.78245" lon="0.42997">
        <ele>98.6</ele>
        <time>2024-07-14T06:18:38Z</time>
      </trkpt>
      <trkpt lat="44.78238" lon="0.43009">
        <ele>98</ele>
        <time>2024-07-14T06:18:40Z</time>
      </trkpt>
      <trkpt lat="44.78234" lon="0.43016">
        <ele>97.5</ele>
        <time>2024-07-14T06:18:41Z</time>
      </trkpt>
      <trkpt lat="44.7823" lon="0.43024">
        <ele>96.9</ele>
        <time>2024-07-14T06:18:42Z</time>
      </trkpt>
      <trkpt lat="44.78227" lon="0.43031">
        <ele>96.3</ele>
        <time>2024-07-14T06:18:43Z</time>
      </trkpt>
      <trkpt lat="44.78222" lon="0.43039">
        <ele>96</ele>
        <time>2024-07-14T06:18:44Z</time>
      </trkpt>
      <trkpt lat="44.78218" lon="0.43046">
        <ele>95.5</ele>
        <time>2024-07-14T06:18:45Z</time>
      </trkpt>
      <trkpt lat="44.78214" lon="0.4305">
        <ele>95.2</ele>
        <time>2024-07-14T06:18:46Z</time>
      </trkpt>
      <trkpt lat="44.78208" lon="0.43055">
        <ele>94.9</ele>
        <time>2024-07-14T06:18:48Z</time>
      </trkpt>
      <trkpt lat="44.782" lon="0.43057">
        <ele>94.9</ele>
        <time>2024-07-14T06:18:50Z</time>
      </trkpt>
      <trkpt lat="44.7819" lon="0.43054">
        <ele>94.8</ele>
        <time>2024-07-14T06:18:52Z</time>
      </trkpt>
      <trkpt lat="44.78181" lon="0.43049">
        <ele>94.8</ele>
        <time>2024-07-14T06:18:54Z</time>
      </trkpt>
      <trkpt lat="44.78177" lon="0.43045">
        <ele>94.8</ele>
        <time>2024-07-14T06:18:55Z</time>
      </trkpt>
      <trkpt lat="44.78172" lon="0.43041">
        <ele>94.9</ele>
        <time>2024-07-14T06:18:56Z</time>
      </trkpt>
      <trkpt lat="44.78162" lon="0.43035">
        <ele>94.7</ele>
        <time>2024-07-14T06:18:58Z</time>
      </trkpt>
      <trkpt lat="44.78153" lon="0.4303">
        <ele>94.5</ele>
        <time>2024-07-14T06:19:00Z</time>
      </trkpt>
      <trkpt lat="44.7815" lon="0.43028">
        <ele>94.4</ele>
        <time>2024-07-14T06:19:01Z</time>
      </trkpt>
      <trkpt lat="44.78147" lon="0.43026">
        <ele>94.5</ele>
        <time>2024-07-14T06:19:02Z</time>
      </trkpt>
      <trkpt lat="44.78145" lon="0.43022">
        <ele>94.4</ele>
        <time>2024-07-14T06:19:04Z</time>
      </trkpt>
      <trkpt lat="44.78144" lon="0.4302">
        <ele>94.4</ele>
        <time>2024-07-14T06:19:05Z</time>
      </trkpt>
      <trkpt lat="44.78141" lon="0.43017">
        <ele>94.3</ele>
        <time>2024-07-14T06:19:07Z</time>
      </trkpt>
      <trkpt lat="44.78138" lon="0.43015">
        <ele>94.3</ele>
        <time>2024-07-14T06:19:08Z</time>
      </trkpt>
      <trkpt lat="44.78133" lon="0.43012">
        <ele>94.1</ele>
        <time>2024-07-14T06:19:10Z</time>
      </trkpt>
      <trkpt lat="44.78129" lon="0.43008">
        <ele>94.1</ele>
        <time>2024-07-14T06:19:12Z</time>
      </trkpt>
      <trkpt lat="44.78126" lon="0.43007">
        <ele>94</ele>
        <time>2024-07-14T06:19:13Z</time>
      </trkpt>
      <trkpt lat="44.78122" lon="0.43005">
        <ele>93.9</ele>
        <time>2024-07-14T06:19:14Z</time>
      </trkpt>
      <trkpt lat="44.78114" lon="0.43004">
        <ele>93.8</ele>
        <time>2024-07-14T06:19:16Z</time>
      </trkpt>
      <trkpt lat="44.78109" lon="0.43005">
        <ele>93.7</ele>
        <time>2024-07-14T06:19:18Z</time>
      </trkpt>
      <trkpt lat="44.78105" lon="0.43003">
        <ele>93.7</ele>
        <time>2024-07-14T06:19:19Z</time>
      </trkpt>
      <trkpt lat="44.78101" lon="0.43002">
        <ele>93.7</ele>
        <time>2024-07-14T06:19:20Z</time>
      </trkpt>
      <trkpt lat="44.78095" lon="0.42999">
        <ele>93.7</ele>
        <time>2024-07-14T06:19:22Z</time>
      </trkpt>
      <trkpt lat="44.78091" lon="0.42997">
        <ele>93.7</ele>
        <time>2024-07-14T06:19:23Z</time>
      </trkpt>
      <trkpt lat="44.78086" lon="0.42994">
        <ele>93.8</ele>
        <time>2024-07-14T06:19:24Z</time>
      </trkpt>
      <trkpt lat="44.7808" lon="0.42993">
        <ele>93.8</ele>
        <time>2024-07-14T06:19:26Z</time>
      </trkpt>
      <trkpt lat="44.78077" lon="0.42991">
        <ele>94</ele>
        <time>2024-07-14T06:19:28Z</time>
      </trkpt>
      <trkpt lat="44.78075" lon="0.42989">
        <ele>94</ele>
        <time>2024-07-14T06:19:29Z</time>
      </trkpt>
      <trkpt lat="44.78073" lon="0.42987">
        <ele>94.1</ele>
        <time>2024-07-14T06:19:30Z</time>
      </trkpt>
      <trkpt lat="44.7807" lon="0.42984">
        <ele>94.2</ele>
        <time>2024-07-14T06:19:32Z</time>
      </trkpt>
      <trkpt lat="44.78068" lon="0.42983">
        <ele>94.4</ele>
        <time>2024-07-14T06:19:33Z</time>
      </trkpt>
      <trkpt lat="44.78066" lon="0.42981">
        <ele>94.4</ele>
        <time>2024-07-14T06:19:34Z</time>
      </trkpt>
      <trkpt lat="44.78064" lon="0.42979">
        <ele>94.6</ele>
        <time>2024-07-14T06:19:36Z</time>
      </trkpt>
      <trkpt lat="44.78063" lon="0.42977">
        <ele>94.6</ele>
        <time>2024-07-14T06:19:37Z</time>
      </trkpt>
      <trkpt lat="44.78061" lon="0.42975">
        <ele>94.8</ele>
        <time>2024-07-14T06:19:38Z</time>
      </trkpt>
      <trkpt lat="44.78059" lon="0.42972">
        <ele>94.8</ele>
        <time>2024-07-14T06:19:40Z</time>
      </trkpt>
      <trkpt lat="44.78058" lon="0.42969">
        <ele>95</ele>
        <time>2024-07-14T06:19:41Z</time>
      </trkpt>
      <trkpt lat="44.78057" lon="0.42967">
        <ele>95</ele>
        <time>2024-07-14T06:19:42Z</time>
      </trkpt>
      <trkpt lat="44.78058" lon="0.42961">
        <ele>95</ele>
        <time>2024-07-14T06:19:44Z</time>
      </trkpt>
      <trkpt lat="44.78056" lon="0.42955">
        <ele>95</ele>
        <time>2024-07-14T06:19:46Z</time>
      </trkpt>
      <trkpt lat="44.78055" lon="0.42947">
        <ele>95.1</ele>
        <time>2024-07-14T06:19:48Z</time>
      </trkpt>
      <trkpt lat="44.78056" lon="0.42933">
        <ele>95</ele>
        <time>2024-07-14T06:19:50Z</time>
      </trkpt>
      <trkpt lat="44.78055" lon="0.42921">
        <ele>94.9</ele>
        <time>2024-07-14T06:19:52Z</time>
      </trkpt>
      <trkpt lat="44.78053" lon="0.42916">
        <ele>94.9</ele>
        <time>2024-07-14T06:19:53Z</time>
      </trkpt>
      <trkpt lat="44.7805" lon="0.42913">
        <ele>95</ele>
        <time>2024-07-14T06:19:54Z</time>
      </trkpt>
      <trkpt lat="44.78047" lon="0.4291">
        <ele>95</ele>
        <time>2024-07-14T06:19:55Z</time>
      </trkpt>
      <trkpt lat="44.78044" lon="0.42909">
        <ele>95.1</ele>
        <time>2024-07-14T06:19:56Z</time>
      </trkpt>
      <trkpt lat="44.7804" lon="0.42908">
        <ele>95.4</ele>
        <time>2024-07-14T06:19:57Z</time>
      </trkpt>
      <trkpt lat="44.78037" lon="0.42907">
        <ele>95.4</ele>
        <time>2024-07-14T06:19:58Z</time>
      </trkpt>
      <trkpt lat="44.78032" lon="0.42904">
        <ele>95.6</ele>
        <time>2024-07-14T06:20:00Z</time>
      </trkpt>
      <trkpt lat="44.78031" lon="0.429">
        <ele>95.5</ele>
        <time>2024-07-14T06:20:01Z</time>
      </trkpt>
      <trkpt lat="44.7803" lon="0.42895">
        <ele>95.5</ele>
        <time>2024-07-14T06:20:02Z</time>
      </trkpt>
      <trkpt lat="44.7803" lon="0.42889">
        <ele>95.4</ele>
        <time>2024-07-14T06:20:03Z</time>
      </trkpt>
      <trkpt lat="44.78031" lon="0.42883">
        <ele>95.3</ele>
        <time>2024-07-14T06:20:04Z</time>
      </trkpt>
      <trkpt lat="44.78033" lon="0.4287">
        <ele>94.8</ele>
        <time>2024-07-14T06:20:06Z</time>
      </trkpt>
      <trkpt lat="44.78033" lon="0.42865">
        <ele>94.7</ele>
        <time>2024-07-14T06:20:07Z</time>
      </trkpt>
      <trkpt lat="44.7803" lon="0.4286">
        <ele>94.7</ele>
        <time>2024-07-14T06:20:08Z</time>
      </trkpt>
      <trkpt lat="44.78025" lon="0.42858">
        <ele>94.9</ele>
        <time>2024-07-14T06:20:10Z</time>
      </trkpt>
      <trkpt lat="44.78021" lon="0.42855">
        <ele>95</ele>
        <time>2024-07-14T06:20:11Z</time>
      </trkpt>
      <trkpt lat="44.78018" lon="0.42853">
        <ele>95.1</ele>
        <time>2024-07-14T06:20:12Z</time>
      </trkpt>
      <trkpt lat="44.78014" lon="0.4285">
        <ele>95.1</ele>
        <time>2024-07-14T06:20:13Z</time>
      </trkpt>
      <trkpt lat="44.78011" lon="0.42846">
        <ele>95.1</ele>
        <time>2024-07-14T06:20:14Z</time>
      </trkpt>
      <trkpt lat="44.78006" lon="0.42839">
        <ele>95.1</ele>
        <time>2024-07-14T06:20:16Z</time>
      </trkpt>
      <trkpt lat="44.77999" lon="0.42833">
        <ele>95.2</ele>
        <time>2024-07-14T06:20:18Z</time>
      </trkpt>
      <trkpt lat="44.77995" lon="0.4283">
        <ele>95.2</ele>
        <time>2024-07-14T06:20:19Z</time>
      </trkpt>
      <trkpt lat="44.7799" lon="0.42825">
        <ele>95.2</ele>
        <time>2024-07-14T06:20:20Z</time>
      </trkpt>
      <trkpt lat="44.77986" lon="0.42823">
        <ele>95.3</ele>
        <time>2024-07-14T06:20:21Z</time>
      </trkpt>
      <trkpt lat="44.77983" lon="0.42819">
        <ele>95.3</ele>
        <time>2024-07-14T06:20:22Z</time>
      </trkpt>
      <trkpt lat="44.77979" lon="0.42813">
        <ele>95.4</ele>
        <time>2024-07-14T06:20:24Z</time>
      </trkpt>
      <trkpt lat="44.77977" lon="0.4281">
        <ele>95.4</ele>
        <time>2024-07-14T06:20:25Z</time>
      </trkpt>
      <trkpt lat="44.77975" lon="0.4281">
        <ele>95.4</ele>
        <time>2024-07-14T06:20:26Z</time>
      </trkpt>
      <trkpt lat="44.77973" lon="0.42809">
        <ele>95.4</ele>
        <time>2024-07-14T06:20:27Z</time>
      </trkpt>
      <trkpt lat="44.77971" lon="0.42808">
        <ele>95.5</ele>
        <time>2024-07-14T06:20:29Z</time>
      </trkpt>
      <trkpt lat="44.77969" lon="0.42805">
        <ele>95.5</ele>
        <time>2024-07-14T06:20:30Z</time>
      </trkpt>
      <trkpt lat="44.77966" lon="0.42801">
        <ele>95.5</ele>
        <time>2024-07-14T06:20:32Z</time>
      </trkpt>
      <trkpt lat="44.77966" lon="0.42795">
        <ele>95.6</ele>
        <time>2024-07-14T06:20:34Z</time>
      </trkpt>
      <trkpt lat="44.77965" lon="0.42783">
        <ele>95.6</ele>
        <time>2024-07-14T06:20:36Z</time>
      </trkpt>
      <trkpt lat="44.77961" lon="0.42778">
        <ele>95.6</ele>
        <time>2024-07-14T06:20:37Z</time>
      </trkpt>
      <trkpt lat="44.77958" lon="0.42774">
        <ele>95.5</ele>
        <time>2024-07-14T06:20:38Z</time>
      </trkpt>
      <trkpt lat="44.77952" lon="0.42767">
        <ele>95.4</ele>
        <time>2024-07-14T06:20:40Z</time>
      </trkpt>
      <trkpt lat="44.77948" lon="0.42766">
        <ele>95.4</ele>
        <time>2024-07-14T06:20:41Z</time>
      </trkpt>
      <trkpt lat="44.77944" lon="0.42762">
        <ele>95.4</ele>
        <time>2024-07-14T06:20:42Z</time>
      </trkpt>
      <trkpt lat="44.77942" lon="0.42758">
        <ele>95.5</ele>
        <time>2024-07-14T06:20:43Z</time>
      </trkpt>
      <trkpt lat="44.77938" lon="0.42752">
        <ele>95.5</ele>
        <time>2024-07-14T06:20:44Z</time>
      </trkpt>
      <trkpt lat="44.77936" lon="0.4275">
        <ele>95.5</ele>
        <time>2024-07-14T06:20:45Z</time>
      </trkpt>
      <trkpt lat="44.77935" lon="0.42751">
        <ele>95.5</ele>
        <time>2024-07-14T06:20:46Z</time>
      </trkpt>
      <trkpt lat="44.77934" lon="0.42752">
        <ele>95.5</ele>
        <time>2024-07-14T06:20:47Z</time>
      </trkpt>
      <trkpt lat="44.77933" lon="0.42754">
        <ele>95.5</ele>
        <time>2024-07-14T06:20:48Z</time>
      </trkpt>
      <trkpt lat="44.77932" lon="0.42757">
        <ele>95.4</ele>
        <time>2024-07-14T06:20:50Z</time>
      </trkpt>
      <trkpt lat="44.7793" lon="0.42759">
        <ele>95.4</ele>
        <time>2024-07-14T06:20:52Z</time>
      </trkpt>
      <trkpt lat="44.7793" lon="0.42761">
        <ele>95.4</ele>
        <time>2024-07-14T06:20:53Z</time>
      </trkpt>
      <trkpt lat="44.77929" lon="0.42763">
        <ele>95.4</ele>
        <time>2024-07-14T06:20:54Z</time>
      </trkpt>
      <trkpt lat="44.77926" lon="0.42766">
        <ele>95.3</ele>
        <time>2024-07-14T06:20:56Z</time>
      </trkpt>
      <trkpt lat="44.77925" lon="0.4277">
        <ele>95.3</ele>
        <time>2024-07-14T06:20:58Z</time>
      </trkpt>
      <trkpt lat="44.77924" lon="0.42772">
        <ele>95.3</ele>
        <time>2024-07-14T06:20:59Z</time>
      </trkpt>
      <trkpt lat="44.77924" lon="0.42774">
        <ele>95.3</ele>
        <time>2024-07-14T06:21:00Z</time>
      </trkpt>
      <trkpt lat="44.77923" lon="0.42778">
        <ele>95.3</ele>
        <time>2024-07-14T06:21:02Z</time>
      </trkpt>
      <trkpt lat="44.77922" lon="0.42783">
        <ele>95.3</ele>
        <time>2024-07-14T06:21:04Z</time>
      </trkpt>
      <trkpt lat="44.77921" lon="0.42788">
        <ele>95.3</ele>
        <time>2024-07-14T06:21:06Z</time>
      </trkpt>
      <trkpt lat="44.77922" lon="0.4279">
        <ele>95.3</ele>
        <time>2024-07-14T06:21:07Z</time>
      </trkpt>
      <trkpt lat="44.77922" lon="0.42792">
        <ele>95.3</ele>
        <time>2024-07-14T06:21:08Z</time>
      </trkpt>
      <trkpt lat="44.77924" lon="0.42795">
        <ele>95.3</ele>
        <time>2024-07-14T06:21:10Z</time>
      </trkpt>
      <trkpt lat="44.77925" lon="0.42797">
        <ele>95.3</ele>
        <time>2024-07-14T06:21:11Z</time>
      </trkpt>
      <trkpt lat="44.77926" lon="0.42799">
        <ele>95.3</ele>
        <time>2024-07-14T06:21:12Z</time>
      </trkpt>
      <trkpt lat="44.77926" lon="0.42804">
        <ele>95.4</ele>
        <time>2024-07-14T06:21:14Z</time>
      </trkpt>
      <trkpt lat="44.77926" lon="0.42809">
        <ele>95.4</ele>
        <time>2024-07-14T06:21:16Z</time>
      </trkpt>
      <trkpt lat="44.77926" lon="0.4281">
        <ele>95.4</ele>
        <time>2024-07-14T06:21:17Z</time>
      </trkpt>
      <trkpt lat="44.77925" lon="0.42812">
        <ele>95.4</ele>
        <time>2024-07-14T06:21:18Z</time>
      </trkpt>
      <trkpt lat="44.77924" lon="0.42816">
        <ele>95.6</ele>
        <time>2024-07-14T06:21:20Z</time>
      </trkpt>
      <trkpt lat="44.77923" lon="0.4282">
        <ele>95.7</ele>
        <time>2024-07-14T06:21:22Z</time>
      </trkpt>
      <trkpt lat="44.77922" lon="0.42821">
        <ele>95.9</ele>
        <time>2024-07-14T06:21:23Z</time>
      </trkpt>
      <trkpt lat="44.77922" lon="0.42823">
        <ele>95.9</ele>
        <time>2024-07-14T06:21:24Z</time>
      </trkpt>
      <trkpt lat="44.77921" lon="0.42826">
        <ele>96.1</ele>
        <time>2024-07-14T06:21:26Z</time>
      </trkpt>
      <trkpt lat="44.7792" lon="0.4283">
        <ele>96.3</ele>
        <time>2024-07-14T06:21:28Z</time>
      </trkpt>
      <trkpt lat="44.7792" lon="0.42834">
        <ele>96.5</ele>
        <time>2024-07-14T06:21:30Z</time>
      </trkpt>
      <trkpt lat="44.77919" lon="0.42839">
        <ele>96.7</ele>
        <time>2024-07-14T06:21:32Z</time>
      </trkpt>
      <trkpt lat="44.77919" lon="0.42843">
        <ele>96.9</ele>
        <time>2024-07-14T06:21:34Z</time>
      </trkpt>
      <trkpt lat="44.77918" lon="0.42847">
        <ele>97.2</ele>
        <time>2024-07-14T06:21:36Z</time>
      </trkpt>
      <trkpt lat="44.77917" lon="0.42851">
        <ele>97.2</ele>
        <time>2024-07-14T06:21:38Z</time>
      </trkpt>
      <trkpt lat="44.77916" lon="0.42855">
        <ele>97.4</ele>
        <time>2024-07-14T06:21:40Z</time>
      </trkpt>
      <trkpt lat="44.77915" lon="0.42859">
        <ele>97.6</ele>
        <time>2024-07-14T06:21:42Z</time>
      </trkpt>
      <trkpt lat="44.77913" lon="0.42862">
        <ele>97.8</ele>
        <time>2024-07-14T06:21:44Z</time>
      </trkpt>
      <trkpt lat="44.77913" lon="0.42866">
        <ele>98</ele>
        <time>2024-07-14T06:21:46Z</time>
      </trkpt>
      <trkpt lat="44.77912" lon="0.42868">
        <ele>98</ele>
        <time>2024-07-14T06:21:47Z</time>
      </trkpt>
      <trkpt lat="44.77912" lon="0.4287">
        <ele>98.2</ele>
        <time>2024-07-14T06:21:48Z</time>
      </trkpt>
      <trkpt lat="44.7791" lon="0.42874">
        <ele>98.3</ele>
        <time>2024-07-14T06:21:50Z</time>
      </trkpt>
      <trkpt lat="44.77909" lon="0.42878">
        <ele>98.4</ele>
        <time>2024-07-14T06:21:52Z</time>
      </trkpt>
      <trkpt lat="44.77908" lon="0.42882">
        <ele>98.5</ele>
        <time>2024-07-14T06:21:54Z</time>
      </trkpt>
      <trkpt lat="44.77908" lon="0.42884">
        <ele>98.5</ele>
        <time>2024-07-14T06:21:55Z</time>
      </trkpt>
      <trkpt lat="44.77908" lon="0.42886">
        <ele>98.6</ele>
        <time>2024-07-14T06:21:56Z</time>
      </trkpt>
      <trkpt lat="44.77907" lon="0.4289">
        <ele>98.8</ele>
        <time>2024-07-14T06:21:58Z</time>
      </trkpt>
      <trkpt lat="44.77905" lon="0.42894">
        <ele>98.7</ele>
        <time>2024-07-14T06:22:00Z</time>
      </trkpt>
      <trkpt lat="44.77905" lon="0.42898">
        <ele>98.8</ele>
        <time>2024-07-14T06:22:02Z</time>
      </trkpt>
      <trkpt lat="44.77904" lon="0.42902">
        <ele>99</ele>
        <time>2024-07-14T06:22:04Z</time>
      </trkpt>
      <trkpt lat="44.77903" lon="0.42906">
        <ele>99.1</ele>
        <time>2024-07-14T06:22:06Z</time>
      </trkpt>
      <trkpt lat="44.77902" lon="0.4291">
        <ele>99.2</ele>
        <time>2024-07-14T06:22:08Z</time>
      </trkpt>
      <trkpt lat="44.77901" lon="0.42913">
        <ele>99.3</ele>
        <time>2024-07-14T06:22:10Z</time>
      </trkpt>
      <trkpt lat="44.77899" lon="0.42917">
        <ele>99.5</ele>
        <time>2024-07-14T06:22:12Z</time>
      </trkpt>
      <trkpt lat="44.77898" lon="0.42921">
        <ele>99.6</ele>
        <time>2024-07-14T06:22:14Z</time>
      </trkpt>
      <trkpt lat="44.77897" lon="0.42925">
        <ele>99.7</ele>
        <time>2024-07-14T06:22:16Z</time>
      </trkpt>
      <trkpt lat="44.77896" lon="0.42929">
        <ele>99.9</ele>
        <time>2024-07-14T06:22:18Z</time>
      </trkpt>
      <trkpt lat="44.77895" lon="0.42933">
        <ele>99.9</ele>
        <time>2024-07-14T06:22:20Z</time>
      </trkpt>
      <trkpt lat="44.77894" lon="0.42934">
        <ele>100</ele>
        <time>2024-07-14T06:22:21Z</time>
      </trkpt>
      <trkpt lat="44.77894" lon="0.42936">
        <ele>100</ele>
        <time>2024-07-14T06:22:22Z</time>
      </trkpt>
      <trkpt lat="44.77893" lon="0.4294">
        <ele>100.2</ele>
        <time>2024-07-14T06:22:24Z</time>
      </trkpt>
      <trkpt lat="44.77892" lon="0.42944">
        <ele>100.4</ele>
        <time>2024-07-14T06:22:26Z</time>
      </trkpt>
      <trkpt lat="44.77891" lon="0.42948">
        <ele>100.6</ele>
        <time>2024-07-14T06:22:28Z</time>
      </trkpt>
      <trkpt lat="44.7789" lon="0.4295">
        <ele>100.7</ele>
        <time>2024-07-14T06:22:29Z</time>
      </trkpt>
      <trkpt lat="44.77889" lon="0.42953">
        <ele>100.7</ele>
        <time>2024-07-14T06:22:30Z</time>
      </trkpt>
      <trkpt lat="44.77887" lon="0.42957">
        <ele>100.9</ele>
        <time>2024-07-14T06:22:32Z</time>
      </trkpt>
      <trkpt lat="44.77885" lon="0.42962">
        <ele>101.1</ele>
        <time>2024-07-14T06:22:34Z</time>
      </trkpt>
      <trkpt lat="44.77883" lon="0.42967">
        <ele>101.2</ele>
        <time>2024-07-14T06:22:36Z</time>
      </trkpt>
      <trkpt lat="44.77881" lon="0.42972">
        <ele>101.5</ele>
        <time>2024-07-14T06:22:38Z</time>
      </trkpt>
      <trkpt lat="44.77879" lon="0.42976">
        <ele>101.7</ele>
        <time>2024-07-14T06:22:40Z</time>
      </trkpt>
      <trkpt lat="44.77877" lon="0.42981">
        <ele>101.8</ele>
        <time>2024-07-14T06:22:42Z</time>
      </trkpt>
      <trkpt lat="44.77876" lon="0.42983">
        <ele>101.8</ele>
        <time>2024-07-14T06:22:43Z</time>
      </trkpt>
      <trkpt lat="44.77874" lon="0.42986">
        <ele>102</ele>
        <time>2024-07-14T06:22:44Z</time>
      </trkpt>
      <trkpt lat="44.77872" lon="0.4299">
        <ele>102.2</ele>
        <time>2024-07-14T06:22:46Z</time>
      </trkpt>
      <trkpt lat="44.7787" lon="0.4299">
        <ele>102.2</ele>
        <time>2024-07-14T06:22:47Z</time>
      </trkpt>
      <trkpt lat="44.77868" lon="0.42989">
        <ele>102.2</ele>
        <time>2024-07-14T06:22:48Z</time>
      </trkpt>
      <trkpt lat="44.77863" lon="0.42985">
        <ele>101.9</ele>
        <time>2024-07-14T06:22:50Z</time>
      </trkpt>
      <trkpt lat="44.77857" lon="0.4298">
        <ele>101.4</ele>
        <time>2024-07-14T06:22:52Z</time>
      </trkpt>
      <trkpt lat="44.77853" lon="0.42976">
        <ele>101.4</ele>
        <time>2024-07-14T06:22:53Z</time>
      </trkpt>
      <trkpt lat="44.77848" lon="0.42973">
        <ele>101</ele>
        <time>2024-07-14T06:22:54Z</time>
      </trkpt>
      <trkpt lat="44.77839" lon="0.42965">
        <ele>100.3</ele>
        <time>2024-07-14T06:22:56Z</time>
      </trkpt>
      <trkpt lat="44.7783" lon="0.42957">
        <ele>99.9</ele>
        <time>2024-07-14T06:22:58Z</time>
      </trkpt>
      <trkpt lat="44.77821" lon="0.42949">
        <ele>99.6</ele>
        <time>2024-07-14T06:23:00Z</time>
      </trkpt>
      <trkpt lat="44.77812" lon="0.42942">
        <ele>99.5</ele>
        <time>2024-07-14T06:23:02Z</time>
      </trkpt>
      <trkpt lat="44.77803" lon="0.42935">
        <ele>99.2</ele>
        <time>2024-07-14T06:23:04Z</time>
      </trkpt>
      <trkpt lat="44.77795" lon="0.42928">
        <ele>99.1</ele>
        <time>2024-07-14T06:23:06Z</time>
      </trkpt>
      <trkpt lat="44.77788" lon="0.42924">
        <ele>99.2</ele>
        <time>2024-07-14T06:23:08Z</time>
      </trkpt>
      <trkpt lat="44.77785" lon="0.42924">
        <ele>99.6</ele>
        <time>2024-07-14T06:23:09Z</time>
      </trkpt>
      <trkpt lat="44.77783" lon="0.42926">
        <ele>99.7</ele>
        <time>2024-07-14T06:23:10Z</time>
      </trkpt>
      <trkpt lat="44.7778" lon="0.42928">
        <ele>99.9</ele>
        <time>2024-07-14T06:23:12Z</time>
      </trkpt>
      <trkpt lat="44.77779" lon="0.4293">
        <ele>100.1</ele>
        <time>2024-07-14T06:23:13Z</time>
      </trkpt>
      <trkpt lat="44.77778" lon="0.42931">
        <ele>100.2</ele>
        <time>2024-07-14T06:23:14Z</time>
      </trkpt>
      <trkpt lat="44.77776" lon="0.42935">
        <ele>100.5</ele>
        <time>2024-07-14T06:23:16Z</time>
      </trkpt>
      <trkpt lat="44.77775" lon="0.42938">
        <ele>100.8</ele>
        <time>2024-07-14T06:23:18Z</time>
      </trkpt>
      <trkpt lat="44.77773" lon="0.42941">
        <ele>100.8</ele>
        <time>2024-07-14T06:23:20Z</time>
      </trkpt>
      <trkpt lat="44.77771" lon="0.42943">
        <ele>101.1</ele>
        <time>2024-07-14T06:23:22Z</time>
      </trkpt>
      <trkpt lat="44.77768" lon="0.42944">
        <ele>101.2</ele>
        <time>2024-07-14T06:23:24Z</time>
      </trkpt>
      <trkpt lat="44.77765" lon="0.42945">
        <ele>101.3</ele>
        <time>2024-07-14T06:23:26Z</time>
      </trkpt>
      <trkpt lat="44.77763" lon="0.42944">
        <ele>101.4</ele>
        <time>2024-07-14T06:23:27Z</time>
      </trkpt>
      <trkpt lat="44.77761" lon="0.42944">
        <ele>101.4</ele>
        <time>2024-07-14T06:23:28Z</time>
      </trkpt>
      <trkpt lat="44.77759" lon="0.42942">
        <ele>101.5</ele>
        <time>2024-07-14T06:23:30Z</time>
      </trkpt>
      <trkpt lat="44.77756" lon="0.42941">
        <ele>101.6</ele>
        <time>2024-07-14T06:23:32Z</time>
      </trkpt>
      <trkpt lat="44.77752" lon="0.4294">
        <ele>101.5</ele>
        <time>2024-07-14T06:23:34Z</time>
      </trkpt>
      <trkpt lat="44.77749" lon="0.42938">
        <ele>101.6</ele>
        <time>2024-07-14T06:23:36Z</time>
      </trkpt>
      <trkpt lat="44.77745" lon="0.42935">
        <ele>101.5</ele>
        <time>2024-07-14T06:23:38Z</time>
      </trkpt>
      <trkpt lat="44.77741" lon="0.42933">
        <ele>101.9</ele>
        <time>2024-07-14T06:23:40Z</time>
      </trkpt>
      <trkpt lat="44.77738" lon="0.42932">
        <ele>101.9</ele>
        <time>2024-07-14T06:23:42Z</time>
      </trkpt>
      <trkpt lat="44.77734" lon="0.42931">
        <ele>102.2</ele>
        <time>2024-07-14T06:23:44Z</time>
      </trkpt>
      <trkpt lat="44.7773" lon="0.4293">
        <ele>102.4</ele>
        <time>2024-07-14T06:23:46Z</time>
      </trkpt>
      <trkpt lat="44.77728" lon="0.42929">
        <ele>102.7</ele>
        <time>2024-07-14T06:23:47Z</time>
      </trkpt>
      <trkpt lat="44.77727" lon="0.42929">
        <ele>103.1</ele>
        <time>2024-07-14T06:23:48Z</time>
      </trkpt>
      <trkpt lat="44.77723" lon="0.42928">
        <ele>103.3</ele>
        <time>2024-07-14T06:23:50Z</time>
      </trkpt>
      <trkpt lat="44.77719" lon="0.42927">
        <ele>103.7</ele>
        <time>2024-07-14T06:23:52Z</time>
      </trkpt>
      <trkpt lat="44.77715" lon="0.42926">
        <ele>104.1</ele>
        <time>2024-07-14T06:23:54Z</time>
      </trkpt>
      <trkpt lat="44.77713" lon="0.42926">
        <ele>104.5</ele>
        <time>2024-07-14T06:23:55Z</time>
      </trkpt>
      <trkpt lat="44.77712" lon="0.42925">
        <ele>104.5</ele>
        <time>2024-07-14T06:23:56Z</time>
      </trkpt>
      <trkpt lat="44.77708" lon="0.42924">
        <ele>105.3</ele>
        <time>2024-07-14T06:23:58Z</time>
      </trkpt>
      <trkpt lat="44.77704" lon="0.42923">
        <ele>105.4</ele>
        <time>2024-07-14T06:24:00Z</time>
      </trkpt>
      <trkpt lat="44.777" lon="0.42921">
        <ele>105.8</ele>
        <time>2024-07-14T06:24:02Z</time>
      </trkpt>
      <trkpt lat="44.77698" lon="0.4292">
        <ele>106.2</ele>
        <time>2024-07-14T06:24:03Z</time>
      </trkpt>
      <trkpt lat="44.77697" lon="0.42919">
        <ele>106</ele>
        <time>2024-07-14T06:24:04Z</time>
      </trkpt>
      <trkpt lat="44.77693" lon="0.42917">
        <ele>106.7</ele>
        <time>2024-07-14T06:24:06Z</time>
      </trkpt>
      <trkpt lat="44.77689" lon="0.42915">
        <ele>106.8</ele>
        <time>2024-07-14T06:24:08Z</time>
      </trkpt>
      <trkpt lat="44.77685" lon="0.42914">
        <ele>107.1</ele>
        <time>2024-07-14T06:24:10Z</time>
      </trkpt>
      <trkpt lat="44.77682" lon="0.42912">
        <ele>107.4</ele>
        <time>2024-07-14T06:24:12Z</time>
      </trkpt>
      <trkpt lat="44.77678" lon="0.42911">
        <ele>107.9</ele>
        <time>2024-07-14T06:24:14Z</time>
      </trkpt>
      <trkpt lat="44.77673" lon="0.42909">
        <ele>108.2</ele>
        <time>2024-07-14T06:24:16Z</time>
      </trkpt>
      <trkpt lat="44.77669" lon="0.42908">
        <ele>108.6</ele>
        <time>2024-07-14T06:24:18Z</time>
      </trkpt>
      <trkpt lat="44.77665" lon="0.42906">
        <ele>109.2</ele>
        <time>2024-07-14T06:24:20Z</time>
      </trkpt>
      <trkpt lat="44.77661" lon="0.42904">
        <ele>109.5</ele>
        <time>2024-07-14T06:24:22Z</time>
      </trkpt>
      <trkpt lat="44.77656" lon="0.42903">
        <ele>110.1</ele>
        <time>2024-07-14T06:24:24Z</time>
      </trkpt>
      <trkpt lat="44.77651" lon="0.42903">
        <ele>110.4</ele>
        <time>2024-07-14T06:24:26Z</time>
      </trkpt>
      <trkpt lat="44.77645" lon="0.42903">
        <ele>111</ele>
        <time>2024-07-14T06:24:28Z</time>
      </trkpt>
      <trkpt lat="44.7764" lon="0.42903">
        <ele>111.4</ele>
        <time>2024-07-14T06:24:30Z</time>
      </trkpt>
      <trkpt lat="44.77635" lon="0.42902">
        <ele>111.8</ele>
        <time>2024-07-14T06:24:32Z</time>
      </trkpt>
      <trkpt lat="44.77629" lon="0.42902">
        <ele>112</ele>
        <time>2024-07-14T06:24:34Z</time>
      </trkpt>
      <trkpt lat="44.77623" lon="0.42902">
        <ele>112.3</ele>
        <time>2024-07-14T06:24:36Z</time>
      </trkpt>
      <trkpt lat="44.77617" lon="0.429">
        <ele>112.6</ele>
        <time>2024-07-14T06:24:38Z</time>
      </trkpt>
      <trkpt lat="44.7761" lon="0.42898">
        <ele>112.8</ele>
        <time>2024-07-14T06:24:40Z</time>
      </trkpt>
      <trkpt lat="44.77604" lon="0.42896">
        <ele>113</ele>
        <time>2024-07-14T06:24:42Z</time>
      </trkpt>
      <trkpt lat="44.77598" lon="0.42893">
        <ele>113.1</ele>
        <time>2024-07-14T06:24:44Z</time>
      </trkpt>
      <trkpt lat="44.77592" lon="0.4289">
        <ele>113.1</ele>
        <time>2024-07-14T06:24:46Z</time>
      </trkpt>
      <trkpt lat="44.7759" lon="0.42887">
        <ele>113.1</ele>
        <time>2024-07-14T06:24:47Z</time>
      </trkpt>
      <trkpt lat="44.77589" lon="0.42884">
        <ele>113.2</ele>
        <time>2024-07-14T06:24:48Z</time>
      </trkpt>
      <trkpt lat="44.77592" lon="0.42878">
        <ele>113.1</ele>
        <time>2024-07-14T06:24:50Z</time>
      </trkpt>
      <trkpt lat="44.77594" lon="0.42873">
        <ele>113.1</ele>
        <time>2024-07-14T06:24:51Z</time>
      </trkpt>
      <trkpt lat="44.77594" lon="0.4287">
        <ele>113</ele>
        <time>2024-07-14T06:24:52Z</time>
      </trkpt>
      <trkpt lat="44.77594" lon="0.42864">
        <ele>113</ele>
        <time>2024-07-14T06:24:53Z</time>
      </trkpt>
      <trkpt lat="44.77591" lon="0.42857">
        <ele>112.9</ele>
        <time>2024-07-14T06:24:54Z</time>
      </trkpt>
      <trkpt lat="44.77587" lon="0.42852">
        <ele>113</ele>
        <time>2024-07-14T06:24:55Z</time>
      </trkpt>
      <trkpt lat="44.77584" lon="0.42849">
        <ele>113</ele>
        <time>2024-07-14T06:24:56Z</time>
      </trkpt>
      <trkpt lat="44.77579" lon="0.42844">
        <ele>113.2</ele>
        <time>2024-07-14T06:24:58Z</time>
      </trkpt>
      <trkpt lat="44.77574" lon="0.42837">
        <ele>113.1</ele>
        <time>2024-07-14T06:25:00Z</time>
      </trkpt>
      <trkpt lat="44.77572" lon="0.42834">
        <ele>113.1</ele>
        <time>2024-07-14T06:25:01Z</time>
      </trkpt>
      <trkpt lat="44.77567" lon="0.4283">
        <ele>113.1</ele>
        <time>2024-07-14T06:25:02Z</time>
      </trkpt>
      <trkpt lat="44.77561" lon="0.42825">
        <ele>112.9</ele>
        <time>2024-07-14T06:25:04Z</time>
      </trkpt>
      <trkpt lat="44.77556" lon="0.4282">
        <ele>112.5</ele>
        <time>2024-07-14T06:25:06Z</time>
      </trkpt>
      <trkpt lat="44.77553" lon="0.42817">
        <ele>112.4</ele>
        <time>2024-07-14T06:25:08Z</time>
      </trkpt>
      <trkpt lat="44.7755" lon="0.42813">
        <ele>112.2</ele>
        <time>2024-07-14T06:25:10Z</time>
      </trkpt>
      <trkpt lat="44.77548" lon="0.42808">
        <ele>111.7</ele>
        <time>2024-07-14T06:25:12Z</time>
      </trkpt>
      <trkpt lat="44.77546" lon="0.42803">
        <ele>111.4</ele>
        <time>2024-07-14T06:25:14Z</time>
      </trkpt>
      <trkpt lat="44.77544" lon="0.428">
        <ele>111.4</ele>
        <time>2024-07-14T06:25:15Z</time>
      </trkpt>
      <trkpt lat="44.77543" lon="0.42799">
        <ele>111.2</ele>
        <time>2024-07-14T06:25:16Z</time>
      </trkpt>
      <trkpt lat="44.7754" lon="0.42794">
        <ele>110.9</ele>
        <time>2024-07-14T06:25:18Z</time>
      </trkpt>
      <trkpt lat="44.77538" lon="0.42789">
        <ele>110.7</ele>
        <time>2024-07-14T06:25:20Z</time>
      </trkpt>
      <trkpt lat="44.77537" lon="0.42785">
        <ele>110.5</ele>
        <time>2024-07-14T06:25:21Z</time>
      </trkpt>
      <trkpt lat="44.77538" lon="0.42782">
        <ele>110.2</ele>
        <time>2024-07-14T06:25:22Z</time>
      </trkpt>
      <trkpt lat="44.77537" lon="0.42777">
        <ele>110</ele>
        <time>2024-07-14T06:25:24Z</time>
      </trkpt>
      <trkpt lat="44.77537" lon="0.42769">
        <ele>109.5</ele>
        <time>2024-07-14T06:25:26Z</time>
      </trkpt>
      <trkpt lat="44.77534" lon="0.42758">
        <ele>109</ele>
        <time>2024-07-14T06:25:28Z</time>
      </trkpt>
      <trkpt lat="44.77529" lon="0.4275">
        <ele>108.4</ele>
        <time>2024-07-14T06:25:30Z</time>
      </trkpt>
      <trkpt lat="44.77528" lon="0.42745">
        <ele>108.1</ele>
        <time>2024-07-14T06:25:31Z</time>
      </trkpt>
      <trkpt lat="44.77528" lon="0.42741">
        <ele>107.8</ele>
        <time>2024-07-14T06:25:32Z</time>
      </trkpt>
      <trkpt lat="44.77532" lon="0.42732">
        <ele>107.1</ele>
        <time>2024-07-14T06:25:34Z</time>
      </trkpt>
      <trkpt lat="44.77531" lon="0.42725">
        <ele>106.5</ele>
        <time>2024-07-14T06:25:35Z</time>
      </trkpt>
      <trkpt lat="44.7753" lon="0.4272">
        <ele>106.1</ele>
        <time>2024-07-14T06:25:36Z</time>
      </trkpt>
      <trkpt lat="44.77532" lon="0.42714">
        <ele>105.7</ele>
        <time>2024-07-14T06:25:38Z</time>
      </trkpt>
      <trkpt lat="44.77534" lon="0.42708">
        <ele>105</ele>
        <time>2024-07-14T06:25:40Z</time>
      </trkpt>
      <trkpt lat="44.77534" lon="0.42702">
        <ele>104.7</ele>
        <time>2024-07-14T06:25:42Z</time>
      </trkpt>
      <trkpt lat="44.7752" lon="0.4268">
        <ele>103.6</ele>
        <time>2024-07-14T06:25:48Z</time>
      </trkpt>
      <trkpt lat="44.77518" lon="0.42678">
        <ele>103.5</ele>
        <time>2024-07-14T06:25:49Z</time>
      </trkpt>
      <trkpt lat="44.77515" lon="0.42677">
        <ele>103.7</ele>
        <time>2024-07-14T06:25:50Z</time>
      </trkpt>
      <trkpt lat="44.7751" lon="0.42674">
        <ele>103.6</ele>
        <time>2024-07-14T06:25:52Z</time>
      </trkpt>
      <trkpt lat="44.7751" lon="0.42673">
        <ele>103.9</ele>
        <time>2024-07-14T06:25:53Z</time>
      </trkpt>
      <trkpt lat="44.7751" lon="0.42673">
        <ele>103.9</ele>
        <time>2024-07-14T06:25:54Z</time>
      </trkpt>
      <trkpt lat="44.77503" lon="0.42662">
        <ele>103.5</ele>
        <time>2024-07-14T06:25:57Z</time>
      </trkpt>
      <trkpt lat="44.775" lon="0.42659">
        <ele>103.7</ele>
        <time>2024-07-14T06:25:58Z</time>
      </trkpt>
      <trkpt lat="44.77493" lon="0.42655">
        <ele>103.8</ele>
        <time>2024-07-14T06:26:00Z</time>
      </trkpt>
      <trkpt lat="44.77485" lon="0.42652">
        <ele>104</ele>
        <time>2024-07-14T06:26:02Z</time>
      </trkpt>
      <trkpt lat="44.77479" lon="0.42651">
        <ele>104.4</ele>
        <time>2024-07-14T06:26:04Z</time>
      </trkpt>
      <trkpt lat="44.77474" lon="0.42651">
        <ele>104.8</ele>
        <time>2024-07-14T06:26:06Z</time>
      </trkpt>
      <trkpt lat="44.77472" lon="0.42651">
        <ele>104.8</ele>
        <time>2024-07-14T06:26:07Z</time>
      </trkpt>
      <trkpt lat="44.7747" lon="0.42651">
        <ele>104.9</ele>
        <time>2024-07-14T06:26:08Z</time>
      </trkpt>
      <trkpt lat="44.77468" lon="0.42654">
        <ele>105.2</ele>
        <time>2024-07-14T06:26:10Z</time>
      </trkpt>
      <trkpt lat="44.77465" lon="0.42655">
        <ele>105.3</ele>
        <time>2024-07-14T06:26:12Z</time>
      </trkpt>
      <trkpt lat="44.77462" lon="0.42658">
        <ele>105.4</ele>
        <time>2024-07-14T06:26:14Z</time>
      </trkpt>
      <trkpt lat="44.77459" lon="0.42659">
        <ele>105.7</ele>
        <time>2024-07-14T06:26:16Z</time>
      </trkpt>
      <trkpt lat="44.77456" lon="0.4266">
        <ele>105.8</ele>
        <time>2024-07-14T06:26:17Z</time>
      </trkpt>
      <trkpt lat="44.77454" lon="0.42661">
        <ele>105.8</ele>
        <time>2024-07-14T06:26:18Z</time>
      </trkpt>
      <trkpt lat="44.77451" lon="0.4266">
        <ele>105.9</ele>
        <time>2024-07-14T06:26:20Z</time>
      </trkpt>
      <trkpt lat="44.77447" lon="0.42662">
        <ele>106</ele>
        <time>2024-07-14T06:26:22Z</time>
      </trkpt>
      <trkpt lat="44.77445" lon="0.42662">
        <ele>106</ele>
        <time>2024-07-14T06:26:23Z</time>
      </trkpt>
      <trkpt lat="44.77442" lon="0.42663">
        <ele>106.2</ele>
        <time>2024-07-14T06:26:24Z</time>
      </trkpt>
      <trkpt lat="44.7744" lon="0.42664">
        <ele>106.2</ele>
        <time>2024-07-14T06:26:25Z</time>
      </trkpt>
      <trkpt lat="44.77437" lon="0.42666">
        <ele>106.2</ele>
        <time>2024-07-14T06:26:26Z</time>
      </trkpt>
      <trkpt lat="44.77434" lon="0.42668">
        <ele>106.4</ele>
        <time>2024-07-14T06:26:28Z</time>
      </trkpt>
      <trkpt lat="44.77432" lon="0.4267">
        <ele>106.4</ele>
        <time>2024-07-14T06:26:29Z</time>
      </trkpt>
      <trkpt lat="44.7743" lon="0.42673">
        <ele>106.6</ele>
        <time>2024-07-14T06:26:30Z</time>
      </trkpt>
      <trkpt lat="44.77427" lon="0.4268">
        <ele>106.9</ele>
        <time>2024-07-14T06:26:32Z</time>
      </trkpt>
      <trkpt lat="44.77425" lon="0.42682">
        <ele>106.9</ele>
        <time>2024-07-14T06:26:33Z</time>
      </trkpt>
      <trkpt lat="44.77424" lon="0.42685">
        <ele>107.1</ele>
        <time>2024-07-14T06:26:34Z</time>
      </trkpt>
      <trkpt lat="44.77422" lon="0.42691">
        <ele>107.3</ele>
        <time>2024-07-14T06:26:36Z</time>
      </trkpt>
      <trkpt lat="44.77422" lon="0.42697">
        <ele>107.5</ele>
        <time>2024-07-14T06:26:38Z</time>
      </trkpt>
      <trkpt lat="44.77422" lon="0.42699">
        <ele>107.5</ele>
        <time>2024-07-14T06:26:39Z</time>
      </trkpt>
      <trkpt lat="44.77423" lon="0.42703">
        <ele>107.7</ele>
        <time>2024-07-14T06:26:40Z</time>
      </trkpt>
      <trkpt lat="44.77424" lon="0.42708">
        <ele>107.8</ele>
        <time>2024-07-14T06:26:42Z</time>
      </trkpt>
      <trkpt lat="44.77425" lon="0.42712">
        <ele>107.9</ele>
        <time>2024-07-14T06:26:43Z</time>
      </trkpt>
      <trkpt lat="44.77425" lon="0.42715">
        <ele>108</ele>
        <time>2024-07-14T06:26:44Z</time>
      </trkpt>
      <trkpt lat="44.77426" lon="0.42721">
        <ele>108</ele>
        <time>2024-07-14T06:26:46Z</time>
      </trkpt>
      <trkpt lat="44.77425" lon="0.42727">
        <ele>108.1</ele>
        <time>2024-07-14T06:26:48Z</time>
      </trkpt>
      <trkpt lat="44.77425" lon="0.4273">
        <ele>108.1</ele>
        <time>2024-07-14T06:26:49Z</time>
      </trkpt>
      <trkpt lat="44.77425" lon="0.42733">
        <ele>108.2</ele>
        <time>2024-07-14T06:26:50Z</time>
      </trkpt>
      <trkpt lat="44.77425" lon="0.42742">
        <ele>108.3</ele>
        <time>2024-07-14T06:26:52Z</time>
      </trkpt>
      <trkpt lat="44.77424" lon="0.42745">
        <ele>108.3</ele>
        <time>2024-07-14T06:26:54Z</time>
      </trkpt>
      <trkpt lat="44.77424" lon="0.42751">
        <ele>108.4</ele>
        <time>2024-07-14T06:26:56Z</time>
      </trkpt>
      <trkpt lat="44.77423" lon="0.42757">
        <ele>108.5</ele>
        <time>2024-07-14T06:26:58Z</time>
      </trkpt>
      <trkpt lat="44.77421" lon="0.42764">
        <ele>108.6</ele>
        <time>2024-07-14T06:27:00Z</time>
      </trkpt>
      <trkpt lat="44.77421" lon="0.42771">
        <ele>108.6</ele>
        <time>2024-07-14T06:27:02Z</time>
      </trkpt>
      <trkpt lat="44.7742" lon="0.42777">
        <ele>108.7</ele>
        <time>2024-07-14T06:27:04Z</time>
      </trkpt>
      <trkpt lat="44.7742" lon="0.42784">
        <ele>108.7</ele>
        <time>2024-07-14T06:27:06Z</time>
      </trkpt>
      <trkpt lat="44.77419" lon="0.4279">
        <ele>108.7</ele>
        <time>2024-07-14T06:27:08Z</time>
      </trkpt>
      <trkpt lat="44.77419" lon="0.42796">
        <ele>108.7</ele>
        <time>2024-07-14T06:27:10Z</time>
      </trkpt>
      <trkpt lat="44.77418" lon="0.42803">
        <ele>108.8</ele>
        <time>2024-07-14T06:27:12Z</time>
      </trkpt>
      <trkpt lat="44.77417" lon="0.4281">
        <ele>108.8</ele>
        <time>2024-07-14T06:27:14Z</time>
      </trkpt>
      <trkpt lat="44.77416" lon="0.42816">
        <ele>108.8</ele>
        <time>2024-07-14T06:27:16Z</time>
      </trkpt>
      <trkpt lat="44.77415" lon="0.42823">
        <ele>108.8</ele>
        <time>2024-07-14T06:27:18Z</time>
      </trkpt>
      <trkpt lat="44.77413" lon="0.42829">
        <ele>108.8</ele>
        <time>2024-07-14T06:27:20Z</time>
      </trkpt>
      <trkpt lat="44.77412" lon="0.42832">
        <ele>108.8</ele>
        <time>2024-07-14T06:27:21Z</time>
      </trkpt>
      <trkpt lat="44.77411" lon="0.42835">
        <ele>108.9</ele>
        <time>2024-07-14T06:27:22Z</time>
      </trkpt>
      <trkpt lat="44.77409" lon="0.42842">
        <ele>108.9</ele>
        <time>2024-07-14T06:27:24Z</time>
      </trkpt>
      <trkpt lat="44.77407" lon="0.42848">
        <ele>108.9</ele>
        <time>2024-07-14T06:27:26Z</time>
      </trkpt>
      <trkpt lat="44.77405" lon="0.42855">
        <ele>108.9</ele>
        <time>2024-07-14T06:27:28Z</time>
      </trkpt>
      <trkpt lat="44.77404" lon="0.42858">
        <ele>108.8</ele>
        <time>2024-07-14T06:27:29Z</time>
      </trkpt>
      <trkpt lat="44.77404" lon="0.42861">
        <ele>108.8</ele>
        <time>2024-07-14T06:27:30Z</time>
      </trkpt>
      <trkpt lat="44.77403" lon="0.42868">
        <ele>108.8</ele>
        <time>2024-07-14T06:27:32Z</time>
      </trkpt>
      <trkpt lat="44.77402" lon="0.42875">
        <ele>108.8</ele>
        <time>2024-07-14T06:27:34Z</time>
      </trkpt>
      <trkpt lat="44.774" lon="0.42882">
        <ele>108.8</ele>
        <time>2024-07-14T06:27:36Z</time>
      </trkpt>
      <trkpt lat="44.774" lon="0.42885">
        <ele>108.8</ele>
        <time>2024-07-14T06:27:37Z</time>
      </trkpt>
      <trkpt lat="44.77399" lon="0.42888">
        <ele>108.8</ele>
        <time>2024-07-14T06:27:38Z</time>
      </trkpt>
      <trkpt lat="44.77397" lon="0.42895">
        <ele>108.7</ele>
        <time>2024-07-14T06:27:40Z</time>
      </trkpt>
      <trkpt lat="44.77397" lon="0.42902">
        <ele>108.7</ele>
        <time>2024-07-14T06:27:42Z</time>
      </trkpt>
      <trkpt lat="44.77396" lon="0.42909">
        <ele>108.7</ele>
        <time>2024-07-14T06:27:44Z</time>
      </trkpt>
      <trkpt lat="44.77395" lon="0.42917">
        <ele>108.7</ele>
        <time>2024-07-14T06:27:46Z</time>
      </trkpt>
      <trkpt lat="44.77394" lon="0.42924">
        <ele>108.6</ele>
        <time>2024-07-14T06:27:48Z</time>
      </trkpt>
      <trkpt lat="44.77393" lon="0.42927">
        <ele>108.6</ele>
        <time>2024-07-14T06:27:49Z</time>
      </trkpt>
      <trkpt lat="44.77392" lon="0.42931">
        <ele>108.6</ele>
        <time>2024-07-14T06:27:50Z</time>
      </trkpt>
      <trkpt lat="44.77391" lon="0.42938">
        <ele>108.5</ele>
        <time>2024-07-14T06:27:52Z</time>
      </trkpt>
      <trkpt lat="44.77391" lon="0.42945">
        <ele>108.5</ele>
        <time>2024-07-14T06:27:54Z</time>
      </trkpt>
      <trkpt lat="44.77393" lon="0.42952">
        <ele>108.4</ele>
        <time>2024-07-14T06:27:56Z</time>
      </trkpt>
      <trkpt lat="44.77397" lon="0.42958">
        <ele>108.4</ele>
        <time>2024-07-14T06:27:58Z</time>
      </trkpt>
      <trkpt lat="44.77402" lon="0.42961">
        <ele>108.3</ele>
        <time>2024-07-14T06:28:00Z</time>
      </trkpt>
      <trkpt lat="44.77407" lon="0.42964">
        <ele>108.2</ele>
        <time>2024-07-14T06:28:02Z</time>
      </trkpt>
      <trkpt lat="44.77412" lon="0.42968">
        <ele>108.1</ele>
        <time>2024-07-14T06:28:04Z</time>
      </trkpt>
      <trkpt lat="44.77413" lon="0.42971">
        <ele>108</ele>
        <time>2024-07-14T06:28:05Z</time>
      </trkpt>
      <trkpt lat="44.77413" lon="0.42975">
        <ele>107.9</ele>
        <time>2024-07-14T06:28:06Z</time>
      </trkpt>
      <trkpt lat="44.7741" lon="0.42983">
        <ele>107.7</ele>
        <time>2024-07-14T06:28:08Z</time>
      </trkpt>
      <trkpt lat="44.77409" lon="0.42987">
        <ele>107.5</ele>
        <time>2024-07-14T06:28:09Z</time>
      </trkpt>
      <trkpt lat="44.77407" lon="0.42992">
        <ele>107.4</ele>
        <time>2024-07-14T06:28:10Z</time>
      </trkpt>
      <trkpt lat="44.77403" lon="0.43002">
        <ele>106.9</ele>
        <time>2024-07-14T06:28:12Z</time>
      </trkpt>
      <trkpt lat="44.77401" lon="0.43008">
        <ele>106.7</ele>
        <time>2024-07-14T06:28:13Z</time>
      </trkpt>
      <trkpt lat="44.77399" lon="0.43015">
        <ele>106.5</ele>
        <time>2024-07-14T06:28:14Z</time>
      </trkpt>
      <trkpt lat="44.77394" lon="0.43028">
        <ele>105.9</ele>
        <time>2024-07-14T06:28:16Z</time>
      </trkpt>
      <trkpt lat="44.77391" lon="0.43034">
        <ele>105.6</ele>
        <time>2024-07-14T06:28:17Z</time>
      </trkpt>
      <trkpt lat="44.7739" lon="0.4304">
        <ele>104.6</ele>
        <time>2024-07-14T06:28:18Z</time>
      </trkpt>
      <trkpt lat="44.7739" lon="0.43046">
        <ele>104.4</ele>
        <time>2024-07-14T06:28:19Z</time>
      </trkpt>
      <trkpt lat="44.77391" lon="0.43051">
        <ele>104.1</ele>
        <time>2024-07-14T06:28:20Z</time>
      </trkpt>
      <trkpt lat="44.77394" lon="0.43056">
        <ele>103.9</ele>
        <time>2024-07-14T06:28:21Z</time>
      </trkpt>
      <trkpt lat="44.77397" lon="0.43061">
        <ele>103.7</ele>
        <time>2024-07-14T06:28:22Z</time>
      </trkpt>
      <trkpt lat="44.77402" lon="0.43069">
        <ele>103.5</ele>
        <time>2024-07-14T06:28:24Z</time>
      </trkpt>
      <trkpt lat="44.77408" lon="0.43078">
        <ele>103.3</ele>
        <time>2024-07-14T06:28:26Z</time>
      </trkpt>
      <trkpt lat="44.77413" lon="0.43086">
        <ele>103.2</ele>
        <time>2024-07-14T06:28:28Z</time>
      </trkpt>
      <trkpt lat="44.77418" lon="0.43095">
        <ele>103.1</ele>
        <time>2024-07-14T06:28:30Z</time>
      </trkpt>
      <trkpt lat="44.77423" lon="0.43104">
        <ele>103.1</ele>
        <time>2024-07-14T06:28:32Z</time>
      </trkpt>
      <trkpt lat="44.77428" lon="0.43112">
        <ele>103.1</ele>
        <time>2024-07-14T06:28:34Z</time>
      </trkpt>
      <trkpt lat="44.77433" lon="0.43121">
        <ele>103.1</ele>
        <time>2024-07-14T06:28:36Z</time>
      </trkpt>
      <trkpt lat="44.77438" lon="0.43131">
        <ele>103.2</ele>
        <time>2024-07-14T06:28:38Z</time>
      </trkpt>
      <trkpt lat="44.77443" lon="0.4314">
        <ele>103.2</ele>
        <time>2024-07-14T06:28:40Z</time>
      </trkpt>
      <trkpt lat="44.77447" lon="0.43149">
        <ele>103.3</ele>
        <time>2024-07-14T06:28:42Z</time>
      </trkpt>
      <trkpt lat="44.77452" lon="0.43158">
        <ele>103.4</ele>
        <time>2024-07-14T06:28:44Z</time>
      </trkpt>
      <trkpt lat="44.77458" lon="0.43167">
        <ele>103.5</ele>
        <time>2024-07-14T06:28:46Z</time>
      </trkpt>
      <trkpt lat="44.77462" lon="0.43175">
        <ele>103.6</ele>
        <time>2024-07-14T06:28:48Z</time>
      </trkpt>
      <trkpt lat="44.77468" lon="0.43183">
        <ele>103.7</ele>
        <time>2024-07-14T06:28:50Z</time>
      </trkpt>
      <trkpt lat="44.77473" lon="0.43192">
        <ele>103.7</ele>
        <time>2024-07-14T06:28:52Z</time>
      </trkpt>
      <trkpt lat="44.77475" lon="0.43196">
        <ele>103.8</ele>
        <time>2024-07-14T06:28:53Z</time>
      </trkpt>
      <trkpt lat="44.77478" lon="0.432">
        <ele>103.8</ele>
        <time>2024-07-14T06:28:54Z</time>
      </trkpt>
      <trkpt lat="44.77483" lon="0.43209">
        <ele>103.9</ele>
        <time>2024-07-14T06:28:56Z</time>
      </trkpt>
      <trkpt lat="44.77488" lon="0.43218">
        <ele>103.9</ele>
        <time>2024-07-14T06:28:58Z</time>
      </trkpt>
      <trkpt lat="44.77491" lon="0.43223">
        <ele>104</ele>
        <time>2024-07-14T06:28:59Z</time>
      </trkpt>
      <trkpt lat="44.77494" lon="0.43228">
        <ele>104</ele>
        <time>2024-07-14T06:29:00Z</time>
      </trkpt>
      <trkpt lat="44.77499" lon="0.43237">
        <ele>104</ele>
        <time>2024-07-14T06:29:02Z</time>
      </trkpt>
      <trkpt lat="44.77504" lon="0.43247">
        <ele>104</ele>
        <time>2024-07-14T06:29:04Z</time>
      </trkpt>
      <trkpt lat="44.77508" lon="0.43255">
        <ele>104.1</ele>
        <time>2024-07-14T06:29:06Z</time>
      </trkpt>
      <trkpt lat="44.77511" lon="0.43259">
        <ele>104.2</ele>
        <time>2024-07-14T06:29:07Z</time>
      </trkpt>
      <trkpt lat="44.77514" lon="0.43262">
        <ele>104.2</ele>
        <time>2024-07-14T06:29:08Z</time>
      </trkpt>
      <trkpt lat="44.77518" lon="0.4327">
        <ele>104.3</ele>
        <time>2024-07-14T06:29:10Z</time>
      </trkpt>
      <trkpt lat="44.77523" lon="0.43277">
        <ele>104.3</ele>
        <time>2024-07-14T06:29:12Z</time>
      </trkpt>
      <trkpt lat="44.77528" lon="0.43285">
        <ele>104.4</ele>
        <time>2024-07-14T06:29:14Z</time>
      </trkpt>
      <trkpt lat="44.7753" lon="0.4329">
        <ele>104.4</ele>
        <time>2024-07-14T06:29:15Z</time>
      </trkpt>
      <trkpt lat="44.77533" lon="0.43294">
        <ele>104.4</ele>
        <time>2024-07-14T06:29:16Z</time>
      </trkpt>
      <trkpt lat="44.77537" lon="0.43303">
        <ele>104.5</ele>
        <time>2024-07-14T06:29:18Z</time>
      </trkpt>
      <trkpt lat="44.7754" lon="0.43307">
        <ele>104.6</ele>
        <time>2024-07-14T06:29:19Z</time>
      </trkpt>
      <trkpt lat="44.77543" lon="0.43311">
        <ele>104.6</ele>
        <time>2024-07-14T06:29:20Z</time>
      </trkpt>
      <trkpt lat="44.7755" lon="0.4332">
        <ele>104.8</ele>
        <time>2024-07-14T06:29:22Z</time>
      </trkpt>
      <trkpt lat="44.77555" lon="0.43328">
        <ele>104.9</ele>
        <time>2024-07-14T06:29:24Z</time>
      </trkpt>
      <trkpt lat="44.77561" lon="0.43338">
        <ele>105.1</ele>
        <time>2024-07-14T06:29:26Z</time>
      </trkpt>
      <trkpt lat="44.77564" lon="0.43348">
        <ele>105.3</ele>
        <time>2024-07-14T06:29:28Z</time>
      </trkpt>
      <trkpt lat="44.77566" lon="0.43358">
        <ele>105.5</ele>
        <time>2024-07-14T06:29:30Z</time>
      </trkpt>
      <trkpt lat="44.77563" lon="0.43363">
        <ele>104.9</ele>
        <time>2024-07-14T06:29:32Z</time>
      </trkpt>
      <trkpt lat="44.77557" lon="0.43369">
        <ele>104.3</ele>
        <time>2024-07-14T06:29:34Z</time>
      </trkpt>
      <trkpt lat="44.77549" lon="0.43377">
        <ele>103.4</ele>
        <time>2024-07-14T06:29:36Z</time>
      </trkpt>
      <trkpt lat="44.77539" lon="0.43387">
        <ele>102.3</ele>
        <time>2024-07-14T06:29:38Z</time>
      </trkpt>
      <trkpt lat="44.7753" lon="0.43399">
        <ele>101.5</ele>
        <time>2024-07-14T06:29:40Z</time>
      </trkpt>
      <trkpt lat="44.7752" lon="0.43411">
        <ele>100.6</ele>
        <time>2024-07-14T06:29:42Z</time>
      </trkpt>
      <trkpt lat="44.77514" lon="0.43415">
        <ele>100</ele>
        <time>2024-07-14T06:29:43Z</time>
      </trkpt>
      <trkpt lat="44.77508" lon="0.43419">
        <ele>99.5</ele>
        <time>2024-07-14T06:29:44Z</time>
      </trkpt>
      <trkpt lat="44.7749" lon="0.43434">
        <ele>98</ele>
        <time>2024-07-14T06:29:46Z</time>
      </trkpt>
      <trkpt lat="44.77484" lon="0.43438">
        <ele>97.7</ele>
        <time>2024-07-14T06:29:47Z</time>
      </trkpt>
      <trkpt lat="44.77477" lon="0.43441">
        <ele>97.4</ele>
        <time>2024-07-14T06:29:48Z</time>
      </trkpt>
      <trkpt lat="44.77463" lon="0.43443">
        <ele>96.9</ele>
        <time>2024-07-14T06:29:50Z</time>
      </trkpt>
      <trkpt lat="44.77456" lon="0.43445">
        <ele>96.6</ele>
        <time>2024-07-14T06:29:51Z</time>
      </trkpt>
      <trkpt lat="44.77452" lon="0.43449">
        <ele>96.4</ele>
        <time>2024-07-14T06:29:52Z</time>
      </trkpt>
      <trkpt lat="44.77449" lon="0.43454">
        <ele>96.3</ele>
        <time>2024-07-14T06:29:53Z</time>
      </trkpt>
      <trkpt lat="44.77448" lon="0.43459">
        <ele>96.1</ele>
        <time>2024-07-14T06:29:54Z</time>
      </trkpt>
      <trkpt lat="44.77449" lon="0.43463">
        <ele>96</ele>
        <time>2024-07-14T06:29:55Z</time>
      </trkpt>
      <trkpt lat="44.77449" lon="0.43469">
        <ele>95.9</ele>
        <time>2024-07-14T06:29:56Z</time>
      </trkpt>
      <trkpt lat="44.77448" lon="0.43474">
        <ele>95.7</ele>
        <time>2024-07-14T06:29:57Z</time>
      </trkpt>
      <trkpt lat="44.77445" lon="0.43477">
        <ele>95.6</ele>
        <time>2024-07-14T06:29:58Z</time>
      </trkpt>
      <trkpt lat="44.77442" lon="0.43477">
        <ele>95.6</ele>
        <time>2024-07-14T06:30:00Z</time>
      </trkpt>
      <trkpt lat="44.77435" lon="0.43476">
        <ele>95.5</ele>
        <time>2024-07-14T06:30:02Z</time>
      </trkpt>
      <trkpt lat="44.7743" lon="0.43475">
        <ele>95.4</ele>
        <time>2024-07-14T06:30:04Z</time>
      </trkpt>
      <trkpt lat="44.77425" lon="0.43476">
        <ele>95.5</ele>
        <time>2024-07-14T06:30:06Z</time>
      </trkpt>
      <trkpt lat="44.7742" lon="0.43479">
        <ele>95.5</ele>
        <time>2024-07-14T06:30:08Z</time>
      </trkpt>
      <trkpt lat="44.77414" lon="0.4348">
        <ele>95.7</ele>
        <time>2024-07-14T06:30:10Z</time>
      </trkpt>
      <trkpt lat="44.7741" lon="0.43481">
        <ele>95.8</ele>
        <time>2024-07-14T06:30:12Z</time>
      </trkpt>
      <trkpt lat="44.77407" lon="0.4348">
        <ele>95.9</ele>
        <time>2024-07-14T06:30:14Z</time>
      </trkpt>
      <trkpt lat="44.77406" lon="0.43479">
        <ele>96</ele>
        <time>2024-07-14T06:30:15Z</time>
      </trkpt>
      <trkpt lat="44.77404" lon="0.43477">
        <ele>96.1</ele>
        <time>2024-07-14T06:30:16Z</time>
      </trkpt>
      <trkpt lat="44.77398" lon="0.43474">
        <ele>96.4</ele>
        <time>2024-07-14T06:30:18Z</time>
      </trkpt>
      <trkpt lat="44.77394" lon="0.4347">
        <ele>96.6</ele>
        <time>2024-07-14T06:30:20Z</time>
      </trkpt>
      <trkpt lat="44.77388" lon="0.43466">
        <ele>96.9</ele>
        <time>2024-07-14T06:30:22Z</time>
      </trkpt>
      <trkpt lat="44.77385" lon="0.43465">
        <ele>97</ele>
        <time>2024-07-14T06:30:23Z</time>
      </trkpt>
      <trkpt lat="44.77382" lon="0.43465">
        <ele>97.1</ele>
        <time>2024-07-14T06:30:24Z</time>
      </trkpt>
      <trkpt lat="44.77376" lon="0.43466">
        <ele>97.4</ele>
        <time>2024-07-14T06:30:26Z</time>
      </trkpt>
      <trkpt lat="44.77373" lon="0.43468">
        <ele>97.5</ele>
        <time>2024-07-14T06:30:27Z</time>
      </trkpt>
      <trkpt lat="44.77373" lon="0.43468">
        <ele>97.5</ele>
        <time>2024-07-14T06:30:28Z</time>
      </trkpt>
      <trkpt lat="44.77367" lon="0.4347">
        <ele>97.6</ele>
        <time>2024-07-14T06:30:30Z</time>
      </trkpt>
      <trkpt lat="44.77358" lon="0.43471">
        <ele>97.6</ele>
        <time>2024-07-14T06:30:32Z</time>
      </trkpt>
      <trkpt lat="44.77356" lon="0.4347">
        <ele>97.5</ele>
        <time>2024-07-14T06:30:33Z</time>
      </trkpt>
      <trkpt lat="44.77356" lon="0.4347">
        <ele>97.5</ele>
        <time>2024-07-14T06:30:34Z</time>
      </trkpt>
      <trkpt lat="44.77354" lon="0.43467">
        <ele>97.4</ele>
        <time>2024-07-14T06:30:35Z</time>
      </trkpt>
      <trkpt lat="44.77354" lon="0.43465">
        <ele>97.4</ele>
        <time>2024-07-14T06:30:36Z</time>
      </trkpt>
      <trkpt lat="44.7735" lon="0.43457">
        <ele>97</ele>
        <time>2024-07-14T06:30:38Z</time>
      </trkpt>
      <trkpt lat="44.77347" lon="0.43454">
        <ele>96.9</ele>
        <time>2024-07-14T06:30:39Z</time>
      </trkpt>
      <trkpt lat="44.77343" lon="0.43453">
        <ele>96.7</ele>
        <time>2024-07-14T06:30:40Z</time>
      </trkpt>
      <trkpt lat="44.77339" lon="0.43452">
        <ele>96.6</ele>
        <time>2024-07-14T06:30:41Z</time>
      </trkpt>
      <trkpt lat="44.77337" lon="0.43453">
        <ele>96.5</ele>
        <time>2024-07-14T06:30:42Z</time>
      </trkpt>
      <trkpt lat="44.77336" lon="0.43456">
        <ele>96.5</ele>
        <time>2024-07-14T06:30:43Z</time>
      </trkpt>
      <trkpt lat="44.77334" lon="0.43456">
        <ele>96.5</ele>
        <time>2024-07-14T06:30:44Z</time>
      </trkpt>
      <trkpt lat="44.77332" lon="0.43455">
        <ele>96.4</ele>
        <time>2024-07-14T06:30:45Z</time>
      </trkpt>
      <trkpt lat="44.7733" lon="0.43452">
        <ele>96.4</ele>
        <time>2024-07-14T06:30:46Z</time>
      </trkpt>
      <trkpt lat="44.77328" lon="0.43451">
        <ele>96.4</ele>
        <time>2024-07-14T06:30:47Z</time>
      </trkpt>
      <trkpt lat="44.77326" lon="0.43448">
        <ele>96.4</ele>
        <time>2024-07-14T06:30:48Z</time>
      </trkpt>
      <trkpt lat="44.77324" lon="0.43445">
        <ele>96.4</ele>
        <time>2024-07-14T06:30:49Z</time>
      </trkpt>
      <trkpt lat="44.77323" lon="0.43443">
        <ele>96.4</ele>
        <time>2024-07-14T06:30:50Z</time>
      </trkpt>
      <trkpt lat="44.7732" lon="0.43441">
        <ele>96.4</ele>
        <time>2024-07-14T06:30:52Z</time>
      </trkpt>
      <trkpt lat="44.77315" lon="0.43436">
        <ele>96.4</ele>
        <time>2024-07-14T06:30:54Z</time>
      </trkpt>
      <trkpt lat="44.77308" lon="0.4343">
        <ele>96.3</ele>
        <time>2024-07-14T06:30:56Z</time>
      </trkpt>
      <trkpt lat="44.77301" lon="0.43424">
        <ele>96.2</ele>
        <time>2024-07-14T06:30:58Z</time>
      </trkpt>
      <trkpt lat="44.77296" lon="0.43419">
        <ele>96.1</ele>
        <time>2024-07-14T06:31:00Z</time>
      </trkpt>
      <trkpt lat="44.77293" lon="0.43415">
        <ele>96</ele>
        <time>2024-07-14T06:31:02Z</time>
      </trkpt>
      <trkpt lat="44.77287" lon="0.43412">
        <ele>95.8</ele>
        <time>2024-07-14T06:31:04Z</time>
      </trkpt>
      <trkpt lat="44.77284" lon="0.4341">
        <ele>95.7</ele>
        <time>2024-07-14T06:31:06Z</time>
      </trkpt>
      <trkpt lat="44.7728" lon="0.43408">
        <ele>95.6</ele>
        <time>2024-07-14T06:31:08Z</time>
      </trkpt>
      <trkpt lat="44.77278" lon="0.43406">
        <ele>95.5</ele>
        <time>2024-07-14T06:31:09Z</time>
      </trkpt>
      <trkpt lat="44.77277" lon="0.43403">
        <ele>95.5</ele>
        <time>2024-07-14T06:31:10Z</time>
      </trkpt>
      <trkpt lat="44.77277" lon="0.43401">
        <ele>95.4</ele>
        <time>2024-07-14T06:31:11Z</time>
      </trkpt>
      <trkpt lat="44.77275" lon="0.43398">
        <ele>95.3</ele>
        <time>2024-07-14T06:31:12Z</time>
      </trkpt>
      <trkpt lat="44.7727" lon="0.43393">
        <ele>95.2</ele>
        <time>2024-07-14T06:31:14Z</time>
      </trkpt>
      <trkpt lat="44.77267" lon="0.43389">
        <ele>95.1</ele>
        <time>2024-07-14T06:31:16Z</time>
      </trkpt>
      <trkpt lat="44.77266" lon="0.43385">
        <ele>95</ele>
        <time>2024-07-14T06:31:17Z</time>
      </trkpt>
      <trkpt lat="44.77265" lon="0.43382">
        <ele>95</ele>
        <time>2024-07-14T06:31:18Z</time>
      </trkpt>
      <trkpt lat="44.77261" lon="0.43372">
        <ele>94.8</ele>
        <time>2024-07-14T06:31:20Z</time>
      </trkpt>
      <trkpt lat="44.7726" lon="0.43366">
        <ele>94.7</ele>
        <time>2024-07-14T06:31:21Z</time>
      </trkpt>
      <trkpt lat="44.77258" lon="0.43363">
        <ele>94.6</ele>
        <time>2024-07-14T06:31:22Z</time>
      </trkpt>
      <trkpt lat="44.77255" lon="0.43358">
        <ele>94.5</ele>
        <time>2024-07-14T06:31:23Z</time>
      </trkpt>
      <trkpt lat="44.77252" lon="0.43354">
        <ele>94.5</ele>
        <time>2024-07-14T06:31:24Z</time>
      </trkpt>
      <trkpt lat="44.77249" lon="0.43351">
        <ele>94.5</ele>
        <time>2024-07-14T06:31:25Z</time>
      </trkpt>
      <trkpt lat="44.77246" lon="0.43349">
        <ele>94.5</ele>
        <time>2024-07-14T06:31:26Z</time>
      </trkpt>
      <trkpt lat="44.77243" lon="0.43348">
        <ele>94.6</ele>
        <time>2024-07-14T06:31:27Z</time>
      </trkpt>
      <trkpt lat="44.77241" lon="0.43347">
        <ele>94.6</ele>
        <time>2024-07-14T06:31:28Z</time>
      </trkpt>
      <trkpt lat="44.77237" lon="0.43346">
        <ele>94.8</ele>
        <time>2024-07-14T06:31:30Z</time>
      </trkpt>
      <trkpt lat="44.77233" lon="0.43345">
        <ele>94.9</ele>
        <time>2024-07-14T06:31:32Z</time>
      </trkpt>
      <trkpt lat="44.77231" lon="0.43345">
        <ele>95</ele>
        <time>2024-07-14T06:31:33Z</time>
      </trkpt>
      <trkpt lat="44.7723" lon="0.43345">
        <ele>95</ele>
        <time>2024-07-14T06:31:34Z</time>
      </trkpt>
      <trkpt lat="44.77229" lon="0.43346">
        <ele>95.1</ele>
        <time>2024-07-14T06:31:36Z</time>
      </trkpt>
      <trkpt lat="44.77228" lon="0.43344">
        <ele>95.1</ele>
        <time>2024-07-14T06:31:37Z</time>
      </trkpt>
      <trkpt lat="44.77227" lon="0.43342">
        <ele>95.2</ele>
        <time>2024-07-14T06:31:38Z</time>
      </trkpt>
      <trkpt lat="44.77226" lon="0.4334">
        <ele>95.3</ele>
        <time>2024-07-14T06:31:40Z</time>
      </trkpt>
      <trkpt lat="44.77223" lon="0.4334">
        <ele>95.3</ele>
        <time>2024-07-14T06:31:42Z</time>
      </trkpt>
      <trkpt lat="44.77222" lon="0.43338">
        <ele>95.4</ele>
        <time>2024-07-14T06:31:43Z</time>
      </trkpt>
      <trkpt lat="44.7722" lon="0.43335">
        <ele>95.4</ele>
        <time>2024-07-14T06:31:44Z</time>
      </trkpt>
      <trkpt lat="44.77217" lon="0.4333">
        <ele>95.4</ele>
        <time>2024-07-14T06:31:45Z</time>
      </trkpt>
      <trkpt lat="44.77215" lon="0.43323">
        <ele>95.4</ele>
        <time>2024-07-14T06:31:46Z</time>
      </trkpt>
      <trkpt lat="44.7721" lon="0.43308">
        <ele>95.2</ele>
        <time>2024-07-14T06:31:48Z</time>
      </trkpt>
      <trkpt lat="44.77208" lon="0.43302">
        <ele>95</ele>
        <time>2024-07-14T06:31:49Z</time>
      </trkpt>
      <trkpt lat="44.77206" lon="0.43297">
        <ele>94.8</ele>
        <time>2024-07-14T06:31:50Z</time>
      </trkpt>
      <trkpt lat="44.77203" lon="0.43292">
        <ele>94.5</ele>
        <time>2024-07-14T06:31:52Z</time>
      </trkpt>
      <trkpt lat="44.77197" lon="0.43285">
        <ele>94.4</ele>
        <time>2024-07-14T06:31:54Z</time>
      </trkpt>
      <trkpt lat="44.7719" lon="0.43278">
        <ele>94.4</ele>
        <time>2024-07-14T06:31:56Z</time>
      </trkpt>
      <trkpt lat="44.77186" lon="0.43271">
        <ele>94.5</ele>
        <time>2024-07-14T06:31:58Z</time>
      </trkpt>
      <trkpt lat="44.7718" lon="0.43265">
        <ele>94.6</ele>
        <time>2024-07-14T06:32:00Z</time>
      </trkpt>
      <trkpt lat="44.77173" lon="0.43257">
        <ele>94.8</ele>
        <time>2024-07-14T06:32:02Z</time>
      </trkpt>
      <trkpt lat="44.77164" lon="0.43248">
        <ele>95.1</ele>
        <time>2024-07-14T06:32:04Z</time>
      </trkpt>
      <trkpt lat="44.7716" lon="0.43245">
        <ele>95.3</ele>
        <time>2024-07-14T06:32:05Z</time>
      </trkpt>
      <trkpt lat="44.77156" lon="0.43243">
        <ele>95.4</ele>
        <time>2024-07-14T06:32:06Z</time>
      </trkpt>
      <trkpt lat="44.77148" lon="0.43238">
        <ele>95.4</ele>
        <time>2024-07-14T06:32:08Z</time>
      </trkpt>
      <trkpt lat="44.77144" lon="0.43235">
        <ele>95.2</ele>
        <time>2024-07-14T06:32:09Z</time>
      </trkpt>
      <trkpt lat="44.7714" lon="0.43232">
        <ele>95</ele>
        <time>2024-07-14T06:32:10Z</time>
      </trkpt>
      <trkpt lat="44.77132" lon="0.43226">
        <ele>94.7</ele>
        <time>2024-07-14T06:32:12Z</time>
      </trkpt>
      <trkpt lat="44.77128" lon="0.43222">
        <ele>94.6</ele>
        <time>2024-07-14T06:32:13Z</time>
      </trkpt>
      <trkpt lat="44.77124" lon="0.43219">
        <ele>94.5</ele>
        <time>2024-07-14T06:32:14Z</time>
      </trkpt>
      <trkpt lat="44.77121" lon="0.43216">
        <ele>94.4</ele>
        <time>2024-07-14T06:32:15Z</time>
      </trkpt>
      <trkpt lat="44.77117" lon="0.43213">
        <ele>94.4</ele>
        <time>2024-07-14T06:32:16Z</time>
      </trkpt>
      <trkpt lat="44.7711" lon="0.43207">
        <ele>94.3</ele>
        <time>2024-07-14T06:32:18Z</time>
      </trkpt>
      <trkpt lat="44.77103" lon="0.43202">
        <ele>94.3</ele>
        <time>2024-07-14T06:32:20Z</time>
      </trkpt>
      <trkpt lat="44.77096" lon="0.43197">
        <ele>94.3</ele>
        <time>2024-07-14T06:32:22Z</time>
      </trkpt>
      <trkpt lat="44.77089" lon="0.43194">
        <ele>94.3</ele>
        <time>2024-07-14T06:32:24Z</time>
      </trkpt>
      <trkpt lat="44.77082" lon="0.43191">
        <ele>94.4</ele>
        <time>2024-07-14T06:32:26Z</time>
      </trkpt>
      <trkpt lat="44.77076" lon="0.43188">
        <ele>94.5</ele>
        <time>2024-07-14T06:32:28Z</time>
      </trkpt>
      <trkpt lat="44.77071" lon="0.43186">
        <ele>94.6</ele>
        <time>2024-07-14T06:32:30Z</time>
      </trkpt>
      <trkpt lat="44.77065" lon="0.43183">
        <ele>94.6</ele>
        <time>2024-07-14T06:32:32Z</time>
      </trkpt>
      <trkpt lat="44.77062" lon="0.43181">
        <ele>94.7</ele>
        <time>2024-07-14T06:32:33Z</time>
      </trkpt>
      <trkpt lat="44.77059" lon="0.4318">
        <ele>94.7</ele>
        <time>2024-07-14T06:32:34Z</time>
      </trkpt>
      <trkpt lat="44.77053" lon="0.43176">
        <ele>94.7</ele>
        <time>2024-07-14T06:32:36Z</time>
      </trkpt>
      <trkpt lat="44.77046" lon="0.4317">
        <ele>94.7</ele>
        <time>2024-07-14T06:32:38Z</time>
      </trkpt>
      <trkpt lat="44.77042" lon="0.43167">
        <ele>94.7</ele>
        <time>2024-07-14T06:32:39Z</time>
      </trkpt>
      <trkpt lat="44.77038" lon="0.43164">
        <ele>94.6</ele>
        <time>2024-07-14T06:32:40Z</time>
      </trkpt>
      <trkpt lat="44.77031" lon="0.43157">
        <ele>94.6</ele>
        <time>2024-07-14T06:32:42Z</time>
      </trkpt>
      <trkpt lat="44.77024" lon="0.43151">
        <ele>94.6</ele>
        <time>2024-07-14T06:32:44Z</time>
      </trkpt>
      <trkpt lat="44.77019" lon="0.43141">
        <ele>94.5</ele>
        <time>2024-07-14T06:32:46Z</time>
      </trkpt>
      <trkpt lat="44.77013" lon="0.43132">
        <ele>94.4</ele>
        <time>2024-07-14T06:32:48Z</time>
      </trkpt>
      <trkpt lat="44.77005" lon="0.43124">
        <ele>94.2</ele>
        <time>2024-07-14T06:32:50Z</time>
      </trkpt>
      <trkpt lat="44.76997" lon="0.43117">
        <ele>94.2</ele>
        <time>2024-07-14T06:32:52Z</time>
      </trkpt>
      <trkpt lat="44.76994" lon="0.43113">
        <ele>94.2</ele>
        <time>2024-07-14T06:32:53Z</time>
      </trkpt>
      <trkpt lat="44.76991" lon="0.43109">
        <ele>94.1</ele>
        <time>2024-07-14T06:32:54Z</time>
      </trkpt>
      <trkpt lat="44.76989" lon="0.43104">
        <ele>94.1</ele>
        <time>2024-07-14T06:32:55Z</time>
      </trkpt>
      <trkpt lat="44.76987" lon="0.431">
        <ele>94.1</ele>
        <time>2024-07-14T06:32:56Z</time>
      </trkpt>
      <trkpt lat="44.76984" lon="0.43096">
        <ele>94</ele>
        <time>2024-07-14T06:32:57Z</time>
      </trkpt>
      <trkpt lat="44.76981" lon="0.43093">
        <ele>93.9</ele>
        <time>2024-07-14T06:32:58Z</time>
      </trkpt>
      <trkpt lat="44.76977" lon="0.43091">
        <ele>93.9</ele>
        <time>2024-07-14T06:32:59Z</time>
      </trkpt>
      <trkpt lat="44.76972" lon="0.43088">
        <ele>93.7</ele>
        <time>2024-07-14T06:33:00Z</time>
      </trkpt>
      <trkpt lat="44.76968" lon="0.43086">
        <ele>93.6</ele>
        <time>2024-07-14T06:33:01Z</time>
      </trkpt>
      <trkpt lat="44.76963" lon="0.43084">
        <ele>93.4</ele>
        <time>2024-07-14T06:33:02Z</time>
      </trkpt>
      <trkpt lat="44.76958" lon="0.43082">
        <ele>93.2</ele>
        <time>2024-07-14T06:33:03Z</time>
      </trkpt>
      <trkpt lat="44.76952" lon="0.43078">
        <ele>92.9</ele>
        <time>2024-07-14T06:33:04Z</time>
      </trkpt>
      <trkpt lat="44.76946" lon="0.43075">
        <ele>92.6</ele>
        <time>2024-07-14T06:33:05Z</time>
      </trkpt>
      <trkpt lat="44.76943" lon="0.43077">
        <ele>92.3</ele>
        <time>2024-07-14T06:33:06Z</time>
      </trkpt>
      <trkpt lat="44.7694" lon="0.4308">
        <ele>92.1</ele>
        <time>2024-07-14T06:33:07Z</time>
      </trkpt>
      <trkpt lat="44.76938" lon="0.43086">
        <ele>91.8</ele>
        <time>2024-07-14T06:33:08Z</time>
      </trkpt>
      <trkpt lat="44.76935" lon="0.43094">
        <ele>91.3</ele>
        <time>2024-07-14T06:33:09Z</time>
      </trkpt>
      <trkpt lat="44.76932" lon="0.43104">
        <ele>90.8</ele>
        <time>2024-07-14T06:33:10Z</time>
      </trkpt>
      <trkpt lat="44.76928" lon="0.43115">
        <ele>90.4</ele>
        <time>2024-07-14T06:33:11Z</time>
      </trkpt>
      <trkpt lat="44.76925" lon="0.43128">
        <ele>90</ele>
        <time>2024-07-14T06:33:12Z</time>
      </trkpt>
      <trkpt lat="44.76919" lon="0.43148">
        <ele>89.1</ele>
        <time>2024-07-14T06:33:14Z</time>
      </trkpt>
      <trkpt lat="44.76917" lon="0.43154">
        <ele>88.6</ele>
        <time>2024-07-14T06:33:15Z</time>
      </trkpt>
      <trkpt lat="44.76915" lon="0.43156">
        <ele>88.3</ele>
        <time>2024-07-14T06:33:16Z</time>
      </trkpt>
      <trkpt lat="44.76914" lon="0.43154">
        <ele>88.2</ele>
        <time>2024-07-14T06:33:18Z</time>
      </trkpt>
      <trkpt lat="44.76917" lon="0.43149">
        <ele>87.5</ele>
        <time>2024-07-14T06:33:20Z</time>
      </trkpt>
      <trkpt lat="44.76919" lon="0.43147">
        <ele>87.2</ele>
        <time>2024-07-14T06:33:21Z</time>
      </trkpt>
      <trkpt lat="44.7692" lon="0.43144">
        <ele>86.8</ele>
        <time>2024-07-14T06:33:22Z</time>
      </trkpt>
      <trkpt lat="44.76923" lon="0.43136">
        <ele>85.8</ele>
        <time>2024-07-14T06:33:24Z</time>
      </trkpt>
      <trkpt lat="44.76925" lon="0.43131">
        <ele>85.3</ele>
        <time>2024-07-14T06:33:25Z</time>
      </trkpt>
      <trkpt lat="44.76926" lon="0.43126">
        <ele>84.7</ele>
        <time>2024-07-14T06:33:26Z</time>
      </trkpt>
      <trkpt lat="44.76928" lon="0.43112">
        <ele>83.3</ele>
        <time>2024-07-14T06:33:28Z</time>
      </trkpt>
      <trkpt lat="44.7693" lon="0.43105">
        <ele>82.7</ele>
        <time>2024-07-14T06:33:29Z</time>
      </trkpt>
      <trkpt lat="44.76931" lon="0.43099">
        <ele>82.1</ele>
        <time>2024-07-14T06:33:30Z</time>
      </trkpt>
      <trkpt lat="44.76932" lon="0.43093">
        <ele>81.5</ele>
        <time>2024-07-14T06:33:31Z</time>
      </trkpt>
      <trkpt lat="44.76934" lon="0.43087">
        <ele>80.9</ele>
        <time>2024-07-14T06:33:32Z</time>
      </trkpt>
      <trkpt lat="44.76938" lon="0.43072">
        <ele>79.6</ele>
        <time>2024-07-14T06:33:34Z</time>
      </trkpt>
      <trkpt lat="44.76941" lon="0.43066">
        <ele>79.1</ele>
        <time>2024-07-14T06:33:35Z</time>
      </trkpt>
      <trkpt lat="44.76944" lon="0.4306">
        <ele>78.6</ele>
        <time>2024-07-14T06:33:36Z</time>
      </trkpt>
      <trkpt lat="44.76949" lon="0.43049">
        <ele>77.8</ele>
        <time>2024-07-14T06:33:38Z</time>
      </trkpt>
      <trkpt lat="44.76953" lon="0.43044">
        <ele>77.5</ele>
        <time>2024-07-14T06:33:39Z</time>
      </trkpt>
      <trkpt lat="44.76957" lon="0.4304">
        <ele>77.2</ele>
        <time>2024-07-14T06:33:40Z</time>
      </trkpt>
      <trkpt lat="44.76964" lon="0.43035">
        <ele>76.9</ele>
        <time>2024-07-14T06:33:42Z</time>
      </trkpt>
      <trkpt lat="44.76965" lon="0.43034">
        <ele>76.8</ele>
        <time>2024-07-14T06:33:43Z</time>
      </trkpt>
      <trkpt lat="44.76967" lon="0.43032">
        <ele>76.7</ele>
        <time>2024-07-14T06:33:44Z</time>
      </trkpt>
      <trkpt lat="44.76975" lon="0.43026">
        <ele>76.3</ele>
        <time>2024-07-14T06:33:46Z</time>
      </trkpt>
      <trkpt lat="44.76983" lon="0.43012">
        <ele>75.8</ele>
        <time>2024-07-14T06:33:48Z</time>
      </trkpt>
      <trkpt lat="44.76984" lon="0.43004">
        <ele>75.5</ele>
        <time>2024-07-14T06:33:49Z</time>
      </trkpt>
      <trkpt lat="44.76987" lon="0.42996">
        <ele>75.2</ele>
        <time>2024-07-14T06:33:50Z</time>
      </trkpt>
      <trkpt lat="44.76989" lon="0.4299">
        <ele>74.9</ele>
        <time>2024-07-14T06:33:51Z</time>
      </trkpt>
      <trkpt lat="44.76986" lon="0.4298">
        <ele>74.6</ele>
        <time>2024-07-14T06:33:52Z</time>
      </trkpt>
      <trkpt lat="44.7698" lon="0.42971">
        <ele>74.2</ele>
        <time>2024-07-14T06:33:54Z</time>
      </trkpt>
      <trkpt lat="44.76976" lon="0.42967">
        <ele>74</ele>
        <time>2024-07-14T06:33:55Z</time>
      </trkpt>
      <trkpt lat="44.76972" lon="0.42961">
        <ele>73.8</ele>
        <time>2024-07-14T06:33:56Z</time>
      </trkpt>
      <trkpt lat="44.76969" lon="0.42955">
        <ele>73.5</ele>
        <time>2024-07-14T06:33:57Z</time>
      </trkpt>
      <trkpt lat="44.76967" lon="0.4295">
        <ele>73.3</ele>
        <time>2024-07-14T06:33:58Z</time>
      </trkpt>
      <trkpt lat="44.76967" lon="0.42945">
        <ele>73.2</ele>
        <time>2024-07-14T06:33:59Z</time>
      </trkpt>
      <trkpt lat="44.76969" lon="0.4294">
        <ele>73</ele>
        <time>2024-07-14T06:34:00Z</time>
      </trkpt>
      <trkpt lat="44.7697" lon="0.42935">
        <ele>72.9</ele>
        <time>2024-07-14T06:34:01Z</time>
      </trkpt>
      <trkpt lat="44.76971" lon="0.42929">
        <ele>72.7</ele>
        <time>2024-07-14T06:34:02Z</time>
      </trkpt>
      <trkpt lat="44.76971" lon="0.42925">
        <ele>72.6</ele>
        <time>2024-07-14T06:34:03Z</time>
      </trkpt>
      <trkpt lat="44.76968" lon="0.42922">
        <ele>72.5</ele>
        <time>2024-07-14T06:34:04Z</time>
      </trkpt>
      <trkpt lat="44.76963" lon="0.42917">
        <ele>72.2</ele>
        <time>2024-07-14T06:34:06Z</time>
      </trkpt>
      <trkpt lat="44.76955" lon="0.42914">
        <ele>71.9</ele>
        <time>2024-07-14T06:34:08Z</time>
      </trkpt>
      <trkpt lat="44.76952" lon="0.42912">
        <ele>71.7</ele>
        <time>2024-07-14T06:34:09Z</time>
      </trkpt>
      <trkpt lat="44.7695" lon="0.42908">
        <ele>71.6</ele>
        <time>2024-07-14T06:34:10Z</time>
      </trkpt>
      <trkpt lat="44.76945" lon="0.42902">
        <ele>71.4</ele>
        <time>2024-07-14T06:34:11Z</time>
      </trkpt>
      <trkpt lat="44.76941" lon="0.42896">
        <ele>71.2</ele>
        <time>2024-07-14T06:34:12Z</time>
      </trkpt>
      <trkpt lat="44.76936" lon="0.42894">
        <ele>71.1</ele>
        <time>2024-07-14T06:34:13Z</time>
      </trkpt>
      <trkpt lat="44.76933" lon="0.42895">
        <ele>70.9</ele>
        <time>2024-07-14T06:34:14Z</time>
      </trkpt>
      <trkpt lat="44.76926" lon="0.42896">
        <ele>70.6</ele>
        <time>2024-07-14T06:34:16Z</time>
      </trkpt>
      <trkpt lat="44.76923" lon="0.42897">
        <ele>70.5</ele>
        <time>2024-07-14T06:34:17Z</time>
      </trkpt>
      <trkpt lat="44.76922" lon="0.42899">
        <ele>70.4</ele>
        <time>2024-07-14T06:34:18Z</time>
      </trkpt>
      <trkpt lat="44.76919" lon="0.42898">
        <ele>70.2</ele>
        <time>2024-07-14T06:34:20Z</time>
      </trkpt>
      <trkpt lat="44.76918" lon="0.42896">
        <ele>70</ele>
        <time>2024-07-14T06:34:21Z</time>
      </trkpt>
      <trkpt lat="44.76916" lon="0.42894">
        <ele>68</ele>
        <time>2024-07-14T06:34:22Z</time>
      </trkpt>
      <trkpt lat="44.76913" lon="0.42891">
        <ele>64.6</ele>
        <time>2024-07-14T06:34:24Z</time>
      </trkpt>
      <trkpt lat="44.76909" lon="0.42891">
        <ele>64.6</ele>
        <time>2024-07-14T06:34:26Z</time>
      </trkpt>
      <trkpt lat="44.76902" lon="0.42894">
        <ele>64.7</ele>
        <time>2024-07-14T06:34:28Z</time>
      </trkpt>
      <trkpt lat="44.76896" lon="0.42897">
        <ele>64.7</ele>
        <time>2024-07-14T06:34:30Z</time>
      </trkpt>
      <trkpt lat="44.76893" lon="0.42898">
        <ele>64.8</ele>
        <time>2024-07-14T06:34:31Z</time>
      </trkpt>
      <trkpt lat="44.7689" lon="0.42899">
        <ele>64.8</ele>
        <time>2024-07-14T06:34:32Z</time>
      </trkpt>
      <trkpt lat="44.76883" lon="0.42898">
        <ele>64.9</ele>
        <time>2024-07-14T06:34:34Z</time>
      </trkpt>
      <trkpt lat="44.76879" lon="0.42897">
        <ele>64.9</ele>
        <time>2024-07-14T06:34:35Z</time>
      </trkpt>
      <trkpt lat="44.76876" lon="0.42898">
        <ele>65</ele>
        <time>2024-07-14T06:34:36Z</time>
      </trkpt>
      <trkpt lat="44.7687" lon="0.42901">
        <ele>65</ele>
        <time>2024-07-14T06:34:38Z</time>
      </trkpt>
      <trkpt lat="44.76867" lon="0.42907">
        <ele>65.1</ele>
        <time>2024-07-14T06:34:40Z</time>
      </trkpt>
      <trkpt lat="44.76863" lon="0.42913">
        <ele>65.1</ele>
        <time>2024-07-14T06:34:42Z</time>
      </trkpt>
      <trkpt lat="44.76862" lon="0.42916">
        <ele>65.1</ele>
        <time>2024-07-14T06:34:43Z</time>
      </trkpt>
      <trkpt lat="44.7686" lon="0.4292">
        <ele>65.1</ele>
        <time>2024-07-14T06:34:44Z</time>
      </trkpt>
      <trkpt lat="44.7686" lon="0.42927">
        <ele>65.1</ele>
        <time>2024-07-14T06:34:46Z</time>
      </trkpt>
      <trkpt lat="44.76859" lon="0.42934">
        <ele>65.2</ele>
        <time>2024-07-14T06:34:48Z</time>
      </trkpt>
      <trkpt lat="44.76857" lon="0.42944">
        <ele>65.5</ele>
        <time>2024-07-14T06:34:50Z</time>
      </trkpt>
      <trkpt lat="44.76856" lon="0.42953">
        <ele>65.7</ele>
        <time>2024-07-14T06:34:52Z</time>
      </trkpt>
      <trkpt lat="44.76854" lon="0.4296">
        <ele>65.9</ele>
        <time>2024-07-14T06:34:54Z</time>
      </trkpt>
      <trkpt lat="44.76852" lon="0.4297">
        <ele>66.1</ele>
        <time>2024-07-14T06:34:56Z</time>
      </trkpt>
      <trkpt lat="44.76851" lon="0.42978">
        <ele>66.2</ele>
        <time>2024-07-14T06:34:58Z</time>
      </trkpt>
      <trkpt lat="44.7685" lon="0.42987">
        <ele>66.2</ele>
        <time>2024-07-14T06:35:00Z</time>
      </trkpt>
      <trkpt lat="44.76849" lon="0.42997">
        <ele>66.3</ele>
        <time>2024-07-14T06:35:02Z</time>
      </trkpt>
      <trkpt lat="44.76847" lon="0.43009">
        <ele>66.3</ele>
        <time>2024-07-14T06:35:04Z</time>
      </trkpt>
      <trkpt lat="44.76846" lon="0.43015">
        <ele>66.2</ele>
        <time>2024-07-14T06:35:05Z</time>
      </trkpt>
      <trkpt lat="44.76845" lon="0.43021">
        <ele>66.2</ele>
        <time>2024-07-14T06:35:06Z</time>
      </trkpt>
      <trkpt lat="44.76844" lon="0.4303">
        <ele>66.2</ele>
        <time>2024-07-14T06:35:08Z</time>
      </trkpt>
      <trkpt lat="44.76843" lon="0.43037">
        <ele>66.2</ele>
        <time>2024-07-14T06:35:09Z</time>
      </trkpt>
      <trkpt lat="44.76842" lon="0.43044">
        <ele>66.2</ele>
        <time>2024-07-14T06:35:10Z</time>
      </trkpt>
      <trkpt lat="44.7684" lon="0.43056">
        <ele>66.2</ele>
        <time>2024-07-14T06:35:12Z</time>
      </trkpt>
      <trkpt lat="44.7684" lon="0.43067">
        <ele>66.2</ele>
        <time>2024-07-14T06:35:14Z</time>
      </trkpt>
      <trkpt lat="44.76838" lon="0.43076">
        <ele>66.2</ele>
        <time>2024-07-14T06:35:16Z</time>
      </trkpt>
      <trkpt lat="44.76836" lon="0.43085">
        <ele>66.2</ele>
        <time>2024-07-14T06:35:18Z</time>
      </trkpt>
      <trkpt lat="44.76835" lon="0.43092">
        <ele>66.2</ele>
        <time>2024-07-14T06:35:20Z</time>
      </trkpt>
      <trkpt lat="44.76832" lon="0.431">
        <ele>66.2</ele>
        <time>2024-07-14T06:35:22Z</time>
      </trkpt>
      <trkpt lat="44.76831" lon="0.43105">
        <ele>66.2</ele>
        <time>2024-07-14T06:35:24Z</time>
      </trkpt>
      <trkpt lat="44.7683" lon="0.43107">
        <ele>66.2</ele>
        <time>2024-07-14T06:35:25Z</time>
      </trkpt>
      <trkpt lat="44.76829" lon="0.43111">
        <ele>66.2</ele>
        <time>2024-07-14T06:35:26Z</time>
      </trkpt>
      <trkpt lat="44.76826" lon="0.4312">
        <ele>66.2</ele>
        <time>2024-07-14T06:35:28Z</time>
      </trkpt>
      <trkpt lat="44.76821" lon="0.43129">
        <ele>66.2</ele>
        <time>2024-07-14T06:35:30Z</time>
      </trkpt>
      <trkpt lat="44.76817" lon="0.43138">
        <ele>66.2</ele>
        <time>2024-07-14T06:35:32Z</time>
      </trkpt>
      <trkpt lat="44.76814" lon="0.43146">
        <ele>66.2</ele>
        <time>2024-07-14T06:35:34Z</time>
      </trkpt>
      <trkpt lat="44.76811" lon="0.43156">
        <ele>66.2</ele>
        <time>2024-07-14T06:35:36Z</time>
      </trkpt>
      <trkpt lat="44.76807" lon="0.43169">
        <ele>66.3</ele>
        <time>2024-07-14T06:35:38Z</time>
      </trkpt>
      <trkpt lat="44.76804" lon="0.4318">
        <ele>66.3</ele>
        <time>2024-07-14T06:35:40Z</time>
      </trkpt>
      <trkpt lat="44.76801" lon="0.43189">
        <ele>66.3</ele>
        <time>2024-07-14T06:35:42Z</time>
      </trkpt>
      <trkpt lat="44.76797" lon="0.43199">
        <ele>66.4</ele>
        <time>2024-07-14T06:35:44Z</time>
      </trkpt>
      <trkpt lat="44.76794" lon="0.43209">
        <ele>66.4</ele>
        <time>2024-07-14T06:35:46Z</time>
      </trkpt>
      <trkpt lat="44.76791" lon="0.43218">
        <ele>66.4</ele>
        <time>2024-07-14T06:35:48Z</time>
      </trkpt>
      <trkpt lat="44.76786" lon="0.43228">
        <ele>66.4</ele>
        <time>2024-07-14T06:35:50Z</time>
      </trkpt>
      <trkpt lat="44.76783" lon="0.43237">
        <ele>66.4</ele>
        <time>2024-07-14T06:35:52Z</time>
      </trkpt>
      <trkpt lat="44.76782" lon="0.43241">
        <ele>66.4</ele>
        <time>2024-07-14T06:35:53Z</time>
      </trkpt>
      <trkpt lat="44.7678" lon="0.43245">
        <ele>66.4</ele>
        <time>2024-07-14T06:35:54Z</time>
      </trkpt>
      <trkpt lat="44.76775" lon="0.43252">
        <ele>66.4</ele>
        <time>2024-07-14T06:35:56Z</time>
      </trkpt>
      <trkpt lat="44.76773" lon="0.43255">
        <ele>66.5</ele>
        <time>2024-07-14T06:35:57Z</time>
      </trkpt>
      <trkpt lat="44.7677" lon="0.43259">
        <ele>66.5</ele>
        <time>2024-07-14T06:35:58Z</time>
      </trkpt>
      <trkpt lat="44.76766" lon="0.43268">
        <ele>66.5</ele>
        <time>2024-07-14T06:36:00Z</time>
      </trkpt>
      <trkpt lat="44.76764" lon="0.43272">
        <ele>66.5</ele>
        <time>2024-07-14T06:36:01Z</time>
      </trkpt>
      <trkpt lat="44.76762" lon="0.43277">
        <ele>66.5</ele>
        <time>2024-07-14T06:36:02Z</time>
      </trkpt>
      <trkpt lat="44.76759" lon="0.43285">
        <ele>66.5</ele>
        <time>2024-07-14T06:36:04Z</time>
      </trkpt>
      <trkpt lat="44.76758" lon="0.43294">
        <ele>66.5</ele>
        <time>2024-07-14T06:36:06Z</time>
      </trkpt>
      <trkpt lat="44.76757" lon="0.43299">
        <ele>66.6</ele>
        <time>2024-07-14T06:36:07Z</time>
      </trkpt>
      <trkpt lat="44.76757" lon="0.43304">
        <ele>66.6</ele>
        <time>2024-07-14T06:36:08Z</time>
      </trkpt>
      <trkpt lat="44.76755" lon="0.43307">
        <ele>66.6</ele>
        <time>2024-07-14T06:36:09Z</time>
      </trkpt>
      <trkpt lat="44.76753" lon="0.43311">
        <ele>66.6</ele>
        <time>2024-07-14T06:36:10Z</time>
      </trkpt>
      <trkpt lat="44.7675" lon="0.43314">
        <ele>66.6</ele>
        <time>2024-07-14T06:36:11Z</time>
      </trkpt>
      <trkpt lat="44.76747" lon="0.43318">
        <ele>66.6</ele>
        <time>2024-07-14T06:36:12Z</time>
      </trkpt>
      <trkpt lat="44.76741" lon="0.43325">
        <ele>66.6</ele>
        <time>2024-07-14T06:36:14Z</time>
      </trkpt>
      <trkpt lat="44.76736" lon="0.43334">
        <ele>66.6</ele>
        <time>2024-07-14T06:36:16Z</time>
      </trkpt>
      <trkpt lat="44.76735" lon="0.43343">
        <ele>66.6</ele>
        <time>2024-07-14T06:36:18Z</time>
      </trkpt>
      <trkpt lat="44.76734" lon="0.43348">
        <ele>66.6</ele>
        <time>2024-07-14T06:36:19Z</time>
      </trkpt>
      <trkpt lat="44.76733" lon="0.43352">
        <ele>66.6</ele>
        <time>2024-07-14T06:36:20Z</time>
      </trkpt>
      <trkpt lat="44.76733" lon="0.43362">
        <ele>66.6</ele>
        <time>2024-07-14T06:36:22Z</time>
      </trkpt>
      <trkpt lat="44.76731" lon="0.43372">
        <ele>66.6</ele>
        <time>2024-07-14T06:36:24Z</time>
      </trkpt>
      <trkpt lat="44.76727" lon="0.43381">
        <ele>66.6</ele>
        <time>2024-07-14T06:36:26Z</time>
      </trkpt>
      <trkpt lat="44.76723" lon="0.43389">
        <ele>66.6</ele>
        <time>2024-07-14T06:36:28Z</time>
      </trkpt>
      <trkpt lat="44.76718" lon="0.43397">
        <ele>66.7</ele>
        <time>2024-07-14T06:36:30Z</time>
      </trkpt>
      <trkpt lat="44.76712" lon="0.43409">
        <ele>66.7</ele>
        <time>2024-07-14T06:36:32Z</time>
      </trkpt>
      <trkpt lat="44.76706" lon="0.43417">
        <ele>66.8</ele>
        <time>2024-07-14T06:36:34Z</time>
      </trkpt>
      <trkpt lat="44.76701" lon="0.43424">
        <ele>66.9</ele>
        <time>2024-07-14T06:36:36Z</time>
      </trkpt>
      <trkpt lat="44.76696" lon="0.43431">
        <ele>67</ele>
        <time>2024-07-14T06:36:38Z</time>
      </trkpt>
      <trkpt lat="44.76691" lon="0.43437">
        <ele>67.1</ele>
        <time>2024-07-14T06:36:40Z</time>
      </trkpt>
      <trkpt lat="44.76686" lon="0.43444">
        <ele>67.1</ele>
        <time>2024-07-14T06:36:42Z</time>
      </trkpt>
      <trkpt lat="44.76684" lon="0.43448">
        <ele>67.2</ele>
        <time>2024-07-14T06:36:43Z</time>
      </trkpt>
      <trkpt lat="44.76682" lon="0.43451">
        <ele>67.2</ele>
        <time>2024-07-14T06:36:44Z</time>
      </trkpt>
      <trkpt lat="44.76677" lon="0.43457">
        <ele>67.3</ele>
        <time>2024-07-14T06:36:46Z</time>
      </trkpt>
      <trkpt lat="44.76675" lon="0.4346">
        <ele>67.4</ele>
        <time>2024-07-14T06:36:47Z</time>
      </trkpt>
      <trkpt lat="44.76674" lon="0.43464">
        <ele>67.5</ele>
        <time>2024-07-14T06:36:48Z</time>
      </trkpt>
      <trkpt lat="44.76674" lon="0.4347">
        <ele>67.6</ele>
        <time>2024-07-14T06:36:50Z</time>
      </trkpt>
      <trkpt lat="44.76673" lon="0.43473">
        <ele>67.7</ele>
        <time>2024-07-14T06:36:51Z</time>
      </trkpt>
      <trkpt lat="44.76673" lon="0.43476">
        <ele>67.8</ele>
        <time>2024-07-14T06:36:52Z</time>
      </trkpt>
      <trkpt lat="44.76674" lon="0.43481">
        <ele>67.9</ele>
        <time>2024-07-14T06:36:54Z</time>
      </trkpt>
      <trkpt lat="44.76675" lon="0.43484">
        <ele>68</ele>
        <time>2024-07-14T06:36:55Z</time>
      </trkpt>
      <trkpt lat="44.76675" lon="0.43486">
        <ele>68.1</ele>
        <time>2024-07-14T06:36:56Z</time>
      </trkpt>
      <trkpt lat="44.76676" lon="0.43493">
        <ele>68.3</ele>
        <time>2024-07-14T06:36:58Z</time>
      </trkpt>
      <trkpt lat="44.76676" lon="0.43498">
        <ele>68.4</ele>
        <time>2024-07-14T06:37:00Z</time>
      </trkpt>
      <trkpt lat="44.76677" lon="0.43505">
        <ele>68.6</ele>
        <time>2024-07-14T06:37:02Z</time>
      </trkpt>
      <trkpt lat="44.76677" lon="0.43515">
        <ele>68.8</ele>
        <time>2024-07-14T06:37:04Z</time>
      </trkpt>
      <trkpt lat="44.76678" lon="0.43525">
        <ele>69</ele>
        <time>2024-07-14T06:37:06Z</time>
      </trkpt>
      <trkpt lat="44.76678" lon="0.43533">
        <ele>69.1</ele>
        <time>2024-07-14T06:37:08Z</time>
      </trkpt>
      <trkpt lat="44.76678" lon="0.43539">
        <ele>69.1</ele>
        <time>2024-07-14T06:37:09Z</time>
      </trkpt>
      <trkpt lat="44.76679" lon="0.43544">
        <ele>69.2</ele>
        <time>2024-07-14T06:37:10Z</time>
      </trkpt>
      <trkpt lat="44.7668" lon="0.43554">
        <ele>69.2</ele>
        <time>2024-07-14T06:37:12Z</time>
      </trkpt>
      <trkpt lat="44.7668" lon="0.43565">
        <ele>69.3</ele>
        <time>2024-07-14T06:37:14Z</time>
      </trkpt>
      <trkpt lat="44.7668" lon="0.43574">
        <ele>69.3</ele>
        <time>2024-07-14T06:37:16Z</time>
      </trkpt>
      <trkpt lat="44.7668" lon="0.43578">
        <ele>69.3</ele>
        <time>2024-07-14T06:37:17Z</time>
      </trkpt>
      <trkpt lat="44.7668" lon="0.43583">
        <ele>69.3</ele>
        <time>2024-07-14T06:37:18Z</time>
      </trkpt>
      <trkpt lat="44.7668" lon="0.43592">
        <ele>69.4</ele>
        <time>2024-07-14T06:37:20Z</time>
      </trkpt>
      <trkpt lat="44.76681" lon="0.436">
        <ele>69.4</ele>
        <time>2024-07-14T06:37:22Z</time>
      </trkpt>
      <trkpt lat="44.76683" lon="0.43609">
        <ele>69.4</ele>
        <time>2024-07-14T06:37:24Z</time>
      </trkpt>
      <trkpt lat="44.76685" lon="0.43619">
        <ele>69.5</ele>
        <time>2024-07-14T06:37:26Z</time>
      </trkpt>
      <trkpt lat="44.76685" lon="0.43623">
        <ele>69.5</ele>
        <time>2024-07-14T06:37:27Z</time>
      </trkpt>
      <trkpt lat="44.76685" lon="0.43627">
        <ele>69.6</ele>
        <time>2024-07-14T06:37:28Z</time>
      </trkpt>
      <trkpt lat="44.76687" lon="0.43636">
        <ele>69.6</ele>
        <time>2024-07-14T06:37:30Z</time>
      </trkpt>
      <trkpt lat="44.76689" lon="0.43644">
        <ele>69.7</ele>
        <time>2024-07-14T06:37:32Z</time>
      </trkpt>
      <trkpt lat="44.7669" lon="0.4365">
        <ele>69.8</ele>
        <time>2024-07-14T06:37:34Z</time>
      </trkpt>
      <trkpt lat="44.76691" lon="0.43653">
        <ele>69.8</ele>
        <time>2024-07-14T06:37:35Z</time>
      </trkpt>
      <trkpt lat="44.76692" lon="0.43658">
        <ele>69.8</ele>
        <time>2024-07-14T06:37:36Z</time>
      </trkpt>
      <trkpt lat="44.76693" lon="0.43668">
        <ele>69.9</ele>
        <time>2024-07-14T06:37:38Z</time>
      </trkpt>
      <trkpt lat="44.76693" lon="0.43677">
        <ele>70</ele>
        <time>2024-07-14T06:37:40Z</time>
      </trkpt>
      <trkpt lat="44.76693" lon="0.43687">
        <ele>70.1</ele>
        <time>2024-07-14T06:37:42Z</time>
      </trkpt>
      <trkpt lat="44.76692" lon="0.43697">
        <ele>70.4</ele>
        <time>2024-07-14T06:37:44Z</time>
      </trkpt>
      <trkpt lat="44.76692" lon="0.43701">
        <ele>70.5</ele>
        <time>2024-07-14T06:37:45Z</time>
      </trkpt>
      <trkpt lat="44.76692" lon="0.43704">
        <ele>70.6</ele>
        <time>2024-07-14T06:37:46Z</time>
      </trkpt>
      <trkpt lat="44.76689" lon="0.43712">
        <ele>70.8</ele>
        <time>2024-07-14T06:37:48Z</time>
      </trkpt>
      <trkpt lat="44.76688" lon="0.43716">
        <ele>71</ele>
        <time>2024-07-14T06:37:49Z</time>
      </trkpt>
      <trkpt lat="44.76688" lon="0.4372">
        <ele>71.1</ele>
        <time>2024-07-14T06:37:50Z</time>
      </trkpt>
      <trkpt lat="44.76686" lon="0.43727">
        <ele>71.5</ele>
        <time>2024-07-14T06:37:52Z</time>
      </trkpt>
      <trkpt lat="44.76684" lon="0.43735">
        <ele>71.9</ele>
        <time>2024-07-14T06:37:54Z</time>
      </trkpt>
      <trkpt lat="44.76683" lon="0.43743">
        <ele>72.3</ele>
        <time>2024-07-14T06:37:56Z</time>
      </trkpt>
      <trkpt lat="44.76682" lon="0.43746">
        <ele>72.5</ele>
        <time>2024-07-14T06:37:57Z</time>
      </trkpt>
      <trkpt lat="44.7668" lon="0.43748">
        <ele>72.6</ele>
        <time>2024-07-14T06:37:58Z</time>
      </trkpt>
      <trkpt lat="44.76679" lon="0.43751">
        <ele>72.8</ele>
        <time>2024-07-14T06:37:59Z</time>
      </trkpt>
      <trkpt lat="44.76678" lon="0.43754">
        <ele>73</ele>
        <time>2024-07-14T06:38:00Z</time>
      </trkpt>
      <trkpt lat="44.76677" lon="0.43757">
        <ele>73.1</ele>
        <time>2024-07-14T06:38:01Z</time>
      </trkpt>
      <trkpt lat="44.76677" lon="0.43761">
        <ele>73.3</ele>
        <time>2024-07-14T06:38:02Z</time>
      </trkpt>
      <trkpt lat="44.76675" lon="0.43769">
        <ele>73.6</ele>
        <time>2024-07-14T06:38:04Z</time>
      </trkpt>
      <trkpt lat="44.76675" lon="0.43773">
        <ele>73.8</ele>
        <time>2024-07-14T06:38:05Z</time>
      </trkpt>
      <trkpt lat="44.76675" lon="0.43776">
        <ele>73.9</ele>
        <time>2024-07-14T06:38:06Z</time>
      </trkpt>
      <trkpt lat="44.76675" lon="0.4378">
        <ele>74.1</ele>
        <time>2024-07-14T06:38:07Z</time>
      </trkpt>
      <trkpt lat="44.76676" lon="0.43783">
        <ele>74.2</ele>
        <time>2024-07-14T06:38:08Z</time>
      </trkpt>
      <trkpt lat="44.76675" lon="0.43789">
        <ele>74.5</ele>
        <time>2024-07-14T06:38:10Z</time>
      </trkpt>
      <trkpt lat="44.76673" lon="0.43795">
        <ele>74.8</ele>
        <time>2024-07-14T06:38:12Z</time>
      </trkpt>
      <trkpt lat="44.76671" lon="0.43801">
        <ele>75.2</ele>
        <time>2024-07-14T06:38:14Z</time>
      </trkpt>
      <trkpt lat="44.76669" lon="0.43807">
        <ele>75.5</ele>
        <time>2024-07-14T06:38:16Z</time>
      </trkpt>
      <trkpt lat="44.76669" lon="0.4381">
        <ele>75.7</ele>
        <time>2024-07-14T06:38:17Z</time>
      </trkpt>
      <trkpt lat="44.76669" lon="0.43813">
        <ele>75.9</ele>
        <time>2024-07-14T06:38:18Z</time>
      </trkpt>
      <trkpt lat="44.7667" lon="0.4382">
        <ele>76.2</ele>
        <time>2024-07-14T06:38:20Z</time>
      </trkpt>
      <trkpt lat="44.7667" lon="0.43823">
        <ele>76.4</ele>
        <time>2024-07-14T06:38:21Z</time>
      </trkpt>
      <trkpt lat="44.76671" lon="0.43825">
        <ele>76.5</ele>
        <time>2024-07-14T06:38:22Z</time>
      </trkpt>
      <trkpt lat="44.76671" lon="0.43827">
        <ele>76.6</ele>
        <time>2024-07-14T06:38:23Z</time>
      </trkpt>
      <trkpt lat="44.7667" lon="0.43831">
        <ele>76.8</ele>
        <time>2024-07-14T06:38:24Z</time>
      </trkpt>
      <trkpt lat="44.76669" lon="0.43833">
        <ele>77</ele>
        <time>2024-07-14T06:38:25Z</time>
      </trkpt>
      <trkpt lat="44.76669" lon="0.43836">
        <ele>77.1</ele>
        <time>2024-07-14T06:38:26Z</time>
      </trkpt>
      <trkpt lat="44.76668" lon="0.4384">
        <ele>77.4</ele>
        <time>2024-07-14T06:38:28Z</time>
      </trkpt>
      <trkpt lat="44.76667" lon="0.43845">
        <ele>77.6</ele>
        <time>2024-07-14T06:38:30Z</time>
      </trkpt>
      <trkpt lat="44.76666" lon="0.43851">
        <ele>77.9</ele>
        <time>2024-07-14T06:38:32Z</time>
      </trkpt>
      <trkpt lat="44.76664" lon="0.43854">
        <ele>78.1</ele>
        <time>2024-07-14T06:38:33Z</time>
      </trkpt>
      <trkpt lat="44.76663" lon="0.43857">
        <ele>78.2</ele>
        <time>2024-07-14T06:38:34Z</time>
      </trkpt>
      <trkpt lat="44.76663" lon="0.43863">
        <ele>78.3</ele>
        <time>2024-07-14T06:38:36Z</time>
      </trkpt>
      <trkpt lat="44.76663" lon="0.43867">
        <ele>78.4</ele>
        <time>2024-07-14T06:38:37Z</time>
      </trkpt>
      <trkpt lat="44.76663" lon="0.43871">
        <ele>78.4</ele>
        <time>2024-07-14T06:38:38Z</time>
      </trkpt>
      <trkpt lat="44.76663" lon="0.4388">
        <ele>78.5</ele>
        <time>2024-07-14T06:38:40Z</time>
      </trkpt>
      <trkpt lat="44.76663" lon="0.43884">
        <ele>78.5</ele>
        <time>2024-07-14T06:38:41Z</time>
      </trkpt>
      <trkpt lat="44.76663" lon="0.43888">
        <ele>78.4</ele>
        <time>2024-07-14T06:38:42Z</time>
      </trkpt>
      <trkpt lat="44.76664" lon="0.43898">
        <ele>78.3</ele>
        <time>2024-07-14T06:38:44Z</time>
      </trkpt>
      <trkpt lat="44.76665" lon="0.43903">
        <ele>78.2</ele>
        <time>2024-07-14T06:38:45Z</time>
      </trkpt>
      <trkpt lat="44.76665" lon="0.43908">
        <ele>78.1</ele>
        <time>2024-07-14T06:38:46Z</time>
      </trkpt>
      <trkpt lat="44.76664" lon="0.43922">
        <ele>77.7</ele>
        <time>2024-07-14T06:38:48Z</time>
      </trkpt>
      <trkpt lat="44.76663" lon="0.43935">
        <ele>77.4</ele>
        <time>2024-07-14T06:38:50Z</time>
      </trkpt>
      <trkpt lat="44.76661" lon="0.43951">
        <ele>77.2</ele>
        <time>2024-07-14T06:38:52Z</time>
      </trkpt>
      <trkpt lat="44.76658" lon="0.43967">
        <ele>76.9</ele>
        <time>2024-07-14T06:38:54Z</time>
      </trkpt>
      <trkpt lat="44.76657" lon="0.43975">
        <ele>76.7</ele>
        <time>2024-07-14T06:38:55Z</time>
      </trkpt>
      <trkpt lat="44.76656" lon="0.43983">
        <ele>76.5</ele>
        <time>2024-07-14T06:38:56Z</time>
      </trkpt>
      <trkpt lat="44.76654" lon="0.43999">
        <ele>76.2</ele>
        <time>2024-07-14T06:38:58Z</time>
      </trkpt>
      <trkpt lat="44.76652" lon="0.44015">
        <ele>75.9</ele>
        <time>2024-07-14T06:39:00Z</time>
      </trkpt>
      <trkpt lat="44.76649" lon="0.4403">
        <ele>75.6</ele>
        <time>2024-07-14T06:39:02Z</time>
      </trkpt>
      <trkpt lat="44.76646" lon="0.44045">
        <ele>75.4</ele>
        <time>2024-07-14T06:39:04Z</time>
      </trkpt>
      <trkpt lat="44.76643" lon="0.44059">
        <ele>75.3</ele>
        <time>2024-07-14T06:39:06Z</time>
      </trkpt>
      <trkpt lat="44.76638" lon="0.44072">
        <ele>75.2</ele>
        <time>2024-07-14T06:39:08Z</time>
      </trkpt>
      <trkpt lat="44.76632" lon="0.44083">
        <ele>75.3</ele>
        <time>2024-07-14T06:39:10Z</time>
      </trkpt>
      <trkpt lat="44.76626" lon="0.44091">
        <ele>75.3</ele>
        <time>2024-07-14T06:39:12Z</time>
      </trkpt>
      <trkpt lat="44.76624" lon="0.44096">
        <ele>74.5</ele>
        <time>2024-07-14T06:39:13Z</time>
      </trkpt>
      <trkpt lat="44.76623" lon="0.44101">
        <ele>74.5</ele>
        <time>2024-07-14T06:39:14Z</time>
      </trkpt>
      <trkpt lat="44.76626" lon="0.44106">
        <ele>73.8</ele>
        <time>2024-07-14T06:39:16Z</time>
      </trkpt>
      <trkpt lat="44.76629" lon="0.44107">
        <ele>73.5</ele>
        <time>2024-07-14T06:39:17Z</time>
      </trkpt>
      <trkpt lat="44.76633" lon="0.44106">
        <ele>73.4</ele>
        <time>2024-07-14T06:39:18Z</time>
      </trkpt>
      <trkpt lat="44.76642" lon="0.44104">
        <ele>73.2</ele>
        <time>2024-07-14T06:39:20Z</time>
      </trkpt>
      <trkpt lat="44.76652" lon="0.44102">
        <ele>73</ele>
        <time>2024-07-14T06:39:22Z</time>
      </trkpt>
      <trkpt lat="44.76662" lon="0.44101">
        <ele>72.9</ele>
        <time>2024-07-14T06:39:24Z</time>
      </trkpt>
      <trkpt lat="44.76672" lon="0.44096">
        <ele>72.8</ele>
        <time>2024-07-14T06:39:26Z</time>
      </trkpt>
      <trkpt lat="44.76681" lon="0.4409">
        <ele>72.8</ele>
        <time>2024-07-14T06:39:28Z</time>
      </trkpt>
      <trkpt lat="44.76689" lon="0.44083">
        <ele>72.9</ele>
        <time>2024-07-14T06:39:30Z</time>
      </trkpt>
      <trkpt lat="44.76696" lon="0.44078">
        <ele>73</ele>
        <time>2024-07-14T06:39:32Z</time>
      </trkpt>
      <trkpt lat="44.76699" lon="0.44076">
        <ele>73</ele>
        <time>2024-07-14T06:39:33Z</time>
      </trkpt>
      <trkpt lat="44.76702" lon="0.44074">
        <ele>73</ele>
        <time>2024-07-14T06:39:34Z</time>
      </trkpt>
      <trkpt lat="44.76706" lon="0.4407">
        <ele>73.1</ele>
        <time>2024-07-14T06:39:36Z</time>
      </trkpt>
      <trkpt lat="44.76709" lon="0.44066">
        <ele>73.2</ele>
        <time>2024-07-14T06:39:38Z</time>
      </trkpt>
      <trkpt lat="44.76711" lon="0.44066">
        <ele>73.3</ele>
        <time>2024-07-14T06:39:40Z</time>
      </trkpt>
      <trkpt lat="44.76712" lon="0.44067">
        <ele>73.3</ele>
        <time>2024-07-14T06:39:41Z</time>
      </trkpt>
      <trkpt lat="44.76713" lon="0.44068">
        <ele>73.3</ele>
        <time>2024-07-14T06:39:42Z</time>
      </trkpt>
      <trkpt lat="44.76714" lon="0.44072">
        <ele>73.4</ele>
        <time>2024-07-14T06:39:44Z</time>
      </trkpt>
      <trkpt lat="44.76715" lon="0.44074">
        <ele>73.4</ele>
        <time>2024-07-14T06:39:45Z</time>
      </trkpt>
      <trkpt lat="44.76715" lon="0.44075">
        <ele>73.5</ele>
        <time>2024-07-14T06:39:46Z</time>
      </trkpt>
      <trkpt lat="44.76717" lon="0.44076">
        <ele>73.5</ele>
        <time>2024-07-14T06:39:48Z</time>
      </trkpt>
      <trkpt lat="44.76717" lon="0.44076">
        <ele>73.5</ele>
        <time>2024-07-14T06:39:49Z</time>
      </trkpt>
      <trkpt lat="44.76721" lon="0.44105">
        <ele>73.3</ele>
        <time>2024-07-14T06:40:20Z</time>
      </trkpt>
      <trkpt lat="44.76718" lon="0.44108">
        <ele>73.3</ele>
        <time>2024-07-14T06:40:22Z</time>
      </trkpt>
      <trkpt lat="44.76714" lon="0.44111">
        <ele>73.2</ele>
        <time>2024-07-14T06:40:24Z</time>
      </trkpt>
      <trkpt lat="44.7671" lon="0.44113">
        <ele>73.1</ele>
        <time>2024-07-14T06:40:26Z</time>
      </trkpt>
      <trkpt lat="44.76706" lon="0.44117">
        <ele>73</ele>
        <time>2024-07-14T06:40:28Z</time>
      </trkpt>
      <trkpt lat="44.76702" lon="0.44119">
        <ele>73</ele>
        <time>2024-07-14T06:40:30Z</time>
      </trkpt>
      <trkpt lat="44.76699" lon="0.44122">
        <ele>72.9</ele>
        <time>2024-07-14T06:40:32Z</time>
      </trkpt>
      <trkpt lat="44.76697" lon="0.44123">
        <ele>72.9</ele>
        <time>2024-07-14T06:40:33Z</time>
      </trkpt>
      <trkpt lat="44.76695" lon="0.44124">
        <ele>72.9</ele>
        <time>2024-07-14T06:40:34Z</time>
      </trkpt>
      <trkpt lat="44.76691" lon="0.44126">
        <ele>72.8</ele>
        <time>2024-07-14T06:40:36Z</time>
      </trkpt>
      <trkpt lat="44.76687" lon="0.44129">
        <ele>72.8</ele>
        <time>2024-07-14T06:40:38Z</time>
      </trkpt>
      <trkpt lat="44.76684" lon="0.44131">
        <ele>72.8</ele>
        <time>2024-07-14T06:40:40Z</time>
      </trkpt>
      <trkpt lat="44.76682" lon="0.44132">
        <ele>72.8</ele>
        <time>2024-07-14T06:40:41Z</time>
      </trkpt>
      <trkpt lat="44.7668" lon="0.44133">
        <ele>72.8</ele>
        <time>2024-07-14T06:40:42Z</time>
      </trkpt>
      <trkpt lat="44.76677" lon="0.44135">
        <ele>72.8</ele>
        <time>2024-07-14T06:40:44Z</time>
      </trkpt>
      <trkpt lat="44.76674" lon="0.44136">
        <ele>72.8</ele>
        <time>2024-07-14T06:40:46Z</time>
      </trkpt>
      <trkpt lat="44.76672" lon="0.44137">
        <ele>72.8</ele>
        <time>2024-07-14T06:40:47Z</time>
      </trkpt>
      <trkpt lat="44.7667" lon="0.44138">
        <ele>72.8</ele>
        <time>2024-07-14T06:40:48Z</time>
      </trkpt>
      <trkpt lat="44.76666" lon="0.44141">
        <ele>72.9</ele>
        <time>2024-07-14T06:40:50Z</time>
      </trkpt>
      <trkpt lat="44.76663" lon="0.44144">
        <ele>72.9</ele>
        <time>2024-07-14T06:40:52Z</time>
      </trkpt>
      <trkpt lat="44.7666" lon="0.44149">
        <ele>73</ele>
        <time>2024-07-14T06:40:54Z</time>
      </trkpt>
      <trkpt lat="44.76658" lon="0.44151">
        <ele>73</ele>
        <time>2024-07-14T06:40:55Z</time>
      </trkpt>
      <trkpt lat="44.76657" lon="0.44153">
        <ele>73.1</ele>
        <time>2024-07-14T06:40:56Z</time>
      </trkpt>
      <trkpt lat="44.76653" lon="0.44158">
        <ele>73.1</ele>
        <time>2024-07-14T06:40:58Z</time>
      </trkpt>
      <trkpt lat="44.7665" lon="0.44162">
        <ele>73.2</ele>
        <time>2024-07-14T06:41:00Z</time>
      </trkpt>
      <trkpt lat="44.76646" lon="0.44166">
        <ele>73.3</ele>
        <time>2024-07-14T06:41:02Z</time>
      </trkpt>
      <trkpt lat="44.76641" lon="0.44166">
        <ele>73.4</ele>
        <time>2024-07-14T06:41:04Z</time>
      </trkpt>
      <trkpt lat="44.76636" lon="0.44165">
        <ele>73.5</ele>
        <time>2024-07-14T06:41:06Z</time>
      </trkpt>
      <trkpt lat="44.76634" lon="0.44164">
        <ele>73.6</ele>
        <time>2024-07-14T06:41:07Z</time>
      </trkpt>
      <trkpt lat="44.76632" lon="0.44164">
        <ele>73.7</ele>
        <time>2024-07-14T06:41:08Z</time>
      </trkpt>
      <trkpt lat="44.76627" lon="0.44162">
        <ele>73.8</ele>
        <time>2024-07-14T06:41:10Z</time>
      </trkpt>
      <trkpt lat="44.76623" lon="0.4416">
        <ele>73.9</ele>
        <time>2024-07-14T06:41:12Z</time>
      </trkpt>
      <trkpt lat="44.76619" lon="0.44159">
        <ele>74</ele>
        <time>2024-07-14T06:41:14Z</time>
      </trkpt>
      <trkpt lat="44.76614" lon="0.44157">
        <ele>74.1</ele>
        <time>2024-07-14T06:41:16Z</time>
      </trkpt>
      <trkpt lat="44.7661" lon="0.44155">
        <ele>74.3</ele>
        <time>2024-07-14T06:41:18Z</time>
      </trkpt>
      <trkpt lat="44.76607" lon="0.44153">
        <ele>74.4</ele>
        <time>2024-07-14T06:41:20Z</time>
      </trkpt>
      <trkpt lat="44.76602" lon="0.44152">
        <ele>74.5</ele>
        <time>2024-07-14T06:41:22Z</time>
      </trkpt>
      <trkpt lat="44.76598" lon="0.44153">
        <ele>74.7</ele>
        <time>2024-07-14T06:41:24Z</time>
      </trkpt>
      <trkpt lat="44.76596" lon="0.44154">
        <ele>74.7</ele>
        <time>2024-07-14T06:41:25Z</time>
      </trkpt>
      <trkpt lat="44.76594" lon="0.44157">
        <ele>74.7</ele>
        <time>2024-07-14T06:41:26Z</time>
      </trkpt>
      <trkpt lat="44.76591" lon="0.44163">
        <ele>74.5</ele>
        <time>2024-07-14T06:41:28Z</time>
      </trkpt>
      <trkpt lat="44.7659" lon="0.44168">
        <ele>74.4</ele>
        <time>2024-07-14T06:41:29Z</time>
      </trkpt>
      <trkpt lat="44.76588" lon="0.44173">
        <ele>74.4</ele>
        <time>2024-07-14T06:41:30Z</time>
      </trkpt>
      <trkpt lat="44.76585" lon="0.44183">
        <ele>74.3</ele>
        <time>2024-07-14T06:41:32Z</time>
      </trkpt>
      <trkpt lat="44.76582" lon="0.44194">
        <ele>74.2</ele>
        <time>2024-07-14T06:41:34Z</time>
      </trkpt>
      <trkpt lat="44.76579" lon="0.44204">
        <ele>74.2</ele>
        <time>2024-07-14T06:41:36Z</time>
      </trkpt>
      <trkpt lat="44.76576" lon="0.44214">
        <ele>74.4</ele>
        <time>2024-07-14T06:41:38Z</time>
      </trkpt>
      <trkpt lat="44.76574" lon="0.44221">
        <ele>74.5</ele>
        <time>2024-07-14T06:41:40Z</time>
      </trkpt>
      <trkpt lat="44.76572" lon="0.44227">
        <ele>74.5</ele>
        <time>2024-07-14T06:41:42Z</time>
      </trkpt>
      <trkpt lat="44.76571" lon="0.44232">
        <ele>74.7</ele>
        <time>2024-07-14T06:41:44Z</time>
      </trkpt>
      <trkpt lat="44.76569" lon="0.44236">
        <ele>75.1</ele>
        <time>2024-07-14T06:41:46Z</time>
      </trkpt>
      <trkpt lat="44.76569" lon="0.44238">
        <ele>75.2</ele>
        <time>2024-07-14T06:41:47Z</time>
      </trkpt>
      <trkpt lat="44.76568" lon="0.4424">
        <ele>75.4</ele>
        <time>2024-07-14T06:41:48Z</time>
      </trkpt>
      <trkpt lat="44.76567" lon="0.44244">
        <ele>75.7</ele>
        <time>2024-07-14T06:41:50Z</time>
      </trkpt>
      <trkpt lat="44.76567" lon="0.44248">
        <ele>76.1</ele>
        <time>2024-07-14T06:41:52Z</time>
      </trkpt>
      <trkpt lat="44.76566" lon="0.44251">
        <ele>76.4</ele>
        <time>2024-07-14T06:41:54Z</time>
      </trkpt>
      <trkpt lat="44.76565" lon="0.44253">
        <ele>76.6</ele>
        <time>2024-07-14T06:41:55Z</time>
      </trkpt>
      <trkpt lat="44.76565" lon="0.44255">
        <ele>76.8</ele>
        <time>2024-07-14T06:41:56Z</time>
      </trkpt>
      <trkpt lat="44.76564" lon="0.44259">
        <ele>77.3</ele>
        <time>2024-07-14T06:41:58Z</time>
      </trkpt>
      <trkpt lat="44.76563" lon="0.44262">
        <ele>77.7</ele>
        <time>2024-07-14T06:42:00Z</time>
      </trkpt>
      <trkpt lat="44.76563" lon="0.44266">
        <ele>78.2</ele>
        <time>2024-07-14T06:42:02Z</time>
      </trkpt>
      <trkpt lat="44.76562" lon="0.44268">
        <ele>78.4</ele>
        <time>2024-07-14T06:42:03Z</time>
      </trkpt>
      <trkpt lat="44.76562" lon="0.4427">
        <ele>78.7</ele>
        <time>2024-07-14T06:42:04Z</time>
      </trkpt>
      <trkpt lat="44.76561" lon="0.44274">
        <ele>79.2</ele>
        <time>2024-07-14T06:42:06Z</time>
      </trkpt>
      <trkpt lat="44.7656" lon="0.44278">
        <ele>79.7</ele>
        <time>2024-07-14T06:42:08Z</time>
      </trkpt>
      <trkpt lat="44.76559" lon="0.44281">
        <ele>80.1</ele>
        <time>2024-07-14T06:42:10Z</time>
      </trkpt>
      <trkpt lat="44.76559" lon="0.44284">
        <ele>80.5</ele>
        <time>2024-07-14T06:42:12Z</time>
      </trkpt>
      <trkpt lat="44.76558" lon="0.44288">
        <ele>81</ele>
        <time>2024-07-14T06:42:14Z</time>
      </trkpt>
      <trkpt lat="44.76556" lon="0.44292">
        <ele>81.5</ele>
        <time>2024-07-14T06:42:16Z</time>
      </trkpt>
      <trkpt lat="44.76556" lon="0.44294">
        <ele>81.8</ele>
        <time>2024-07-14T06:42:17Z</time>
      </trkpt>
      <trkpt lat="44.76555" lon="0.44295">
        <ele>82</ele>
        <time>2024-07-14T06:42:18Z</time>
      </trkpt>
      <trkpt lat="44.76553" lon="0.44298">
        <ele>82.5</ele>
        <time>2024-07-14T06:42:20Z</time>
      </trkpt>
      <trkpt lat="44.76552" lon="0.44302">
        <ele>83</ele>
        <time>2024-07-14T06:42:22Z</time>
      </trkpt>
      <trkpt lat="44.7655" lon="0.44305">
        <ele>83.4</ele>
        <time>2024-07-14T06:42:24Z</time>
      </trkpt>
      <trkpt lat="44.76548" lon="0.44309">
        <ele>84</ele>
        <time>2024-07-14T06:42:26Z</time>
      </trkpt>
      <trkpt lat="44.76547" lon="0.44314">
        <ele>84.5</ele>
        <time>2024-07-14T06:42:28Z</time>
      </trkpt>
      <trkpt lat="44.76546" lon="0.44317">
        <ele>84.9</ele>
        <time>2024-07-14T06:42:30Z</time>
      </trkpt>
      <trkpt lat="44.76545" lon="0.44319">
        <ele>85.1</ele>
        <time>2024-07-14T06:42:31Z</time>
      </trkpt>
      <trkpt lat="44.76545" lon="0.44321">
        <ele>85.3</ele>
        <time>2024-07-14T06:42:32Z</time>
      </trkpt>
      <trkpt lat="44.76544" lon="0.44325">
        <ele>85.7</ele>
        <time>2024-07-14T06:42:34Z</time>
      </trkpt>
      <trkpt lat="44.76543" lon="0.44329">
        <ele>86.1</ele>
        <time>2024-07-14T06:42:36Z</time>
      </trkpt>
      <trkpt lat="44.76543" lon="0.44331">
        <ele>86.2</ele>
        <time>2024-07-14T06:42:37Z</time>
      </trkpt>
      <trkpt lat="44.76542" lon="0.44333">
        <ele>86.4</ele>
        <time>2024-07-14T06:42:38Z</time>
      </trkpt>
      <trkpt lat="44.76541" lon="0.44335">
        <ele>86.6</ele>
        <time>2024-07-14T06:42:39Z</time>
      </trkpt>
      <trkpt lat="44.7654" lon="0.44336">
        <ele>86.7</ele>
        <time>2024-07-14T06:42:40Z</time>
      </trkpt>
      <trkpt lat="44.76539" lon="0.4434">
        <ele>87</ele>
        <time>2024-07-14T06:42:42Z</time>
      </trkpt>
      <trkpt lat="44.76538" lon="0.44341">
        <ele>87.2</ele>
        <time>2024-07-14T06:42:43Z</time>
      </trkpt>
      <trkpt lat="44.76537" lon="0.44343">
        <ele>87.3</ele>
        <time>2024-07-14T06:42:44Z</time>
      </trkpt>
      <trkpt lat="44.76536" lon="0.44346">
        <ele>87.6</ele>
        <time>2024-07-14T06:42:46Z</time>
      </trkpt>
      <trkpt lat="44.76535" lon="0.44351">
        <ele>87.8</ele>
        <time>2024-07-14T06:42:48Z</time>
      </trkpt>
      <trkpt lat="44.76534" lon="0.44355">
        <ele>88.1</ele>
        <time>2024-07-14T06:42:50Z</time>
      </trkpt>
      <trkpt lat="44.76533" lon="0.4436">
        <ele>88.3</ele>
        <time>2024-07-14T06:42:52Z</time>
      </trkpt>
      <trkpt lat="44.76531" lon="0.44363">
        <ele>88.5</ele>
        <time>2024-07-14T06:42:54Z</time>
      </trkpt>
      <trkpt lat="44.7653" lon="0.44367">
        <ele>88.7</ele>
        <time>2024-07-14T06:42:56Z</time>
      </trkpt>
      <trkpt lat="44.76529" lon="0.44372">
        <ele>88.8</ele>
        <time>2024-07-14T06:42:58Z</time>
      </trkpt>
      <trkpt lat="44.76529" lon="0.44378">
        <ele>89</ele>
        <time>2024-07-14T06:43:00Z</time>
      </trkpt>
      <trkpt lat="44.76529" lon="0.44381">
        <ele>89.1</ele>
        <time>2024-07-14T06:43:01Z</time>
      </trkpt>
      <trkpt lat="44.76528" lon="0.44384">
        <ele>89.1</ele>
        <time>2024-07-14T06:43:02Z</time>
      </trkpt>
      <trkpt lat="44.76527" lon="0.44391">
        <ele>89.3</ele>
        <time>2024-07-14T06:43:04Z</time>
      </trkpt>
      <trkpt lat="44.76527" lon="0.44397">
        <ele>89.4</ele>
        <time>2024-07-14T06:43:06Z</time>
      </trkpt>
      <trkpt lat="44.76526" lon="0.44404">
        <ele>89.5</ele>
        <time>2024-07-14T06:43:08Z</time>
      </trkpt>
      <trkpt lat="44.76525" lon="0.4441">
        <ele>89.5</ele>
        <time>2024-07-14T06:43:10Z</time>
      </trkpt>
      <trkpt lat="44.76525" lon="0.44413">
        <ele>89.6</ele>
        <time>2024-07-14T06:43:11Z</time>
      </trkpt>
      <trkpt lat="44.76524" lon="0.44416">
        <ele>89.6</ele>
        <time>2024-07-14T06:43:12Z</time>
      </trkpt>
      <trkpt lat="44.76523" lon="0.44424">
        <ele>89.7</ele>
        <time>2024-07-14T06:43:14Z</time>
      </trkpt>
      <trkpt lat="44.76522" lon="0.44432">
        <ele>89.7</ele>
        <time>2024-07-14T06:43:16Z</time>
      </trkpt>
      <trkpt lat="44.76521" lon="0.44437">
        <ele>89.8</ele>
        <time>2024-07-14T06:43:17Z</time>
      </trkpt>
      <trkpt lat="44.7652" lon="0.4444">
        <ele>89.8</ele>
        <time>2024-07-14T06:43:18Z</time>
      </trkpt>
      <trkpt lat="44.76518" lon="0.44448">
        <ele>89.9</ele>
        <time>2024-07-14T06:43:20Z</time>
      </trkpt>
      <trkpt lat="44.76517" lon="0.44458">
        <ele>89.9</ele>
        <time>2024-07-14T06:43:22Z</time>
      </trkpt>
      <trkpt lat="44.76515" lon="0.44467">
        <ele>90</ele>
        <time>2024-07-14T06:43:24Z</time>
      </trkpt>
      <trkpt lat="44.76513" lon="0.44477">
        <ele>90.1</ele>
        <time>2024-07-14T06:43:26Z</time>
      </trkpt>
      <trkpt lat="44.76512" lon="0.44486">
        <ele>90.1</ele>
        <time>2024-07-14T06:43:28Z</time>
      </trkpt>
      <trkpt lat="44.76511" lon="0.4449">
        <ele>90.1</ele>
        <time>2024-07-14T06:43:29Z</time>
      </trkpt>
      <trkpt lat="44.76511" lon="0.44494">
        <ele>90.1</ele>
        <time>2024-07-14T06:43:30Z</time>
      </trkpt>
      <trkpt lat="44.7651" lon="0.44502">
        <ele>90.2</ele>
        <time>2024-07-14T06:43:32Z</time>
      </trkpt>
      <trkpt lat="44.76509" lon="0.44511">
        <ele>90.2</ele>
        <time>2024-07-14T06:43:34Z</time>
      </trkpt>
      <trkpt lat="44.76508" lon="0.44515">
        <ele>90.2</ele>
        <time>2024-07-14T06:43:35Z</time>
      </trkpt>
      <trkpt lat="44.76508" lon="0.44519">
        <ele>90.2</ele>
        <time>2024-07-14T06:43:36Z</time>
      </trkpt>
      <trkpt lat="44.76506" lon="0.44527">
        <ele>90.2</ele>
        <time>2024-07-14T06:43:38Z</time>
      </trkpt>
      <trkpt lat="44.76505" lon="0.44537">
        <ele>90.3</ele>
        <time>2024-07-14T06:43:40Z</time>
      </trkpt>
      <trkpt lat="44.76505" lon="0.44542">
        <ele>90.3</ele>
        <time>2024-07-14T06:43:41Z</time>
      </trkpt>
      <trkpt lat="44.76504" lon="0.44546">
        <ele>90.3</ele>
        <time>2024-07-14T06:43:42Z</time>
      </trkpt>
      <trkpt lat="44.76503" lon="0.44554">
        <ele>90.4</ele>
        <time>2024-07-14T06:43:44Z</time>
      </trkpt>
      <trkpt lat="44.76501" lon="0.44562">
        <ele>90.4</ele>
        <time>2024-07-14T06:43:46Z</time>
      </trkpt>
      <trkpt lat="44.765" lon="0.4457">
        <ele>90.5</ele>
        <time>2024-07-14T06:43:48Z</time>
      </trkpt>
      <trkpt lat="44.765" lon="0.44574">
        <ele>90.6</ele>
        <time>2024-07-14T06:43:49Z</time>
      </trkpt>
      <trkpt lat="44.76499" lon="0.44579">
        <ele>90.6</ele>
        <time>2024-07-14T06:43:50Z</time>
      </trkpt>
      <trkpt lat="44.76498" lon="0.44587">
        <ele>90.8</ele>
        <time>2024-07-14T06:43:52Z</time>
      </trkpt>
      <trkpt lat="44.76497" lon="0.44595">
        <ele>90.9</ele>
        <time>2024-07-14T06:43:54Z</time>
      </trkpt>
      <trkpt lat="44.76496" lon="0.44599">
        <ele>91</ele>
        <time>2024-07-14T06:43:55Z</time>
      </trkpt>
      <trkpt lat="44.76495" lon="0.44603">
        <ele>91.1</ele>
        <time>2024-07-14T06:43:56Z</time>
      </trkpt>
      <trkpt lat="44.76494" lon="0.44611">
        <ele>91.3</ele>
        <time>2024-07-14T06:43:58Z</time>
      </trkpt>
      <trkpt lat="44.76492" lon="0.44619">
        <ele>91.5</ele>
        <time>2024-07-14T06:44:00Z</time>
      </trkpt>
      <trkpt lat="44.76491" lon="0.44622">
        <ele>91.6</ele>
        <time>2024-07-14T06:44:01Z</time>
      </trkpt>
      <trkpt lat="44.76491" lon="0.44625">
        <ele>91.7</ele>
        <time>2024-07-14T06:44:02Z</time>
      </trkpt>
      <trkpt lat="44.76489" lon="0.44633">
        <ele>91.9</ele>
        <time>2024-07-14T06:44:04Z</time>
      </trkpt>
      <trkpt lat="44.76486" lon="0.44641">
        <ele>92.1</ele>
        <time>2024-07-14T06:44:06Z</time>
      </trkpt>
      <trkpt lat="44.76485" lon="0.44645">
        <ele>92.2</ele>
        <time>2024-07-14T06:44:07Z</time>
      </trkpt>
      <trkpt lat="44.76483" lon="0.4465">
        <ele>92.3</ele>
        <time>2024-07-14T06:44:08Z</time>
      </trkpt>
      <trkpt lat="44.76481" lon="0.44658">
        <ele>92.4</ele>
        <time>2024-07-14T06:44:10Z</time>
      </trkpt>
      <trkpt lat="44.7648" lon="0.44662">
        <ele>92.5</ele>
        <time>2024-07-14T06:44:11Z</time>
      </trkpt>
      <trkpt lat="44.7648" lon="0.44667">
        <ele>92.5</ele>
        <time>2024-07-14T06:44:12Z</time>
      </trkpt>
      <trkpt lat="44.76478" lon="0.44679">
        <ele>92.5</ele>
        <time>2024-07-14T06:44:14Z</time>
      </trkpt>
      <trkpt lat="44.76476" lon="0.44691">
        <ele>92.4</ele>
        <time>2024-07-14T06:44:16Z</time>
      </trkpt>
      <trkpt lat="44.76475" lon="0.44697">
        <ele>92.3</ele>
        <time>2024-07-14T06:44:17Z</time>
      </trkpt>
      <trkpt lat="44.76475" lon="0.44704">
        <ele>92.2</ele>
        <time>2024-07-14T06:44:18Z</time>
      </trkpt>
      <trkpt lat="44.76474" lon="0.44716">
        <ele>91.9</ele>
        <time>2024-07-14T06:44:20Z</time>
      </trkpt>
      <trkpt lat="44.76474" lon="0.44723">
        <ele>91.8</ele>
        <time>2024-07-14T06:44:21Z</time>
      </trkpt>
      <trkpt lat="44.76475" lon="0.4473">
        <ele>91.6</ele>
        <time>2024-07-14T06:44:22Z</time>
      </trkpt>
      <trkpt lat="44.76477" lon="0.44745">
        <ele>91.3</ele>
        <time>2024-07-14T06:44:24Z</time>
      </trkpt>
      <trkpt lat="44.7648" lon="0.4476">
        <ele>90.9</ele>
        <time>2024-07-14T06:44:26Z</time>
      </trkpt>
      <trkpt lat="44.76482" lon="0.44768">
        <ele>90.7</ele>
        <time>2024-07-14T06:44:27Z</time>
      </trkpt>
      <trkpt lat="44.76485" lon="0.44775">
        <ele>90.6</ele>
        <time>2024-07-14T06:44:28Z</time>
      </trkpt>
      <trkpt lat="44.76489" lon="0.44788">
        <ele>90.6</ele>
        <time>2024-07-14T06:44:30Z</time>
      </trkpt>
      <trkpt lat="44.76493" lon="0.44802">
        <ele>90.6</ele>
        <time>2024-07-14T06:44:32Z</time>
      </trkpt>
      <trkpt lat="44.76497" lon="0.44815">
        <ele>90.6</ele>
        <time>2024-07-14T06:44:34Z</time>
      </trkpt>
      <trkpt lat="44.76501" lon="0.44828">
        <ele>90.6</ele>
        <time>2024-07-14T06:44:36Z</time>
      </trkpt>
      <trkpt lat="44.76505" lon="0.44841">
        <ele>90.6</ele>
        <time>2024-07-14T06:44:38Z</time>
      </trkpt>
      <trkpt lat="44.76507" lon="0.44854">
        <ele>90.7</ele>
        <time>2024-07-14T06:44:40Z</time>
      </trkpt>
      <trkpt lat="44.76508" lon="0.44866">
        <ele>90.8</ele>
        <time>2024-07-14T06:44:42Z</time>
      </trkpt>
      <trkpt lat="44.76508" lon="0.44878">
        <ele>91</ele>
        <time>2024-07-14T06:44:44Z</time>
      </trkpt>
      <trkpt lat="44.7651" lon="0.44888">
        <ele>91.2</ele>
        <time>2024-07-14T06:44:46Z</time>
      </trkpt>
      <trkpt lat="44.76511" lon="0.44899">
        <ele>91.4</ele>
        <time>2024-07-14T06:44:48Z</time>
      </trkpt>
      <trkpt lat="44.76512" lon="0.4491">
        <ele>91.6</ele>
        <time>2024-07-14T06:44:50Z</time>
      </trkpt>
      <trkpt lat="44.76512" lon="0.44916">
        <ele>91.7</ele>
        <time>2024-07-14T06:44:51Z</time>
      </trkpt>
      <trkpt lat="44.76513" lon="0.44923">
        <ele>91.8</ele>
        <time>2024-07-14T06:44:52Z</time>
      </trkpt>
      <trkpt lat="44.76514" lon="0.44936">
        <ele>92</ele>
        <time>2024-07-14T06:44:54Z</time>
      </trkpt>
      <trkpt lat="44.76515" lon="0.44949">
        <ele>92</ele>
        <time>2024-07-14T06:44:56Z</time>
      </trkpt>
      <trkpt lat="44.76516" lon="0.44963">
        <ele>92</ele>
        <time>2024-07-14T06:44:58Z</time>
      </trkpt>
      <trkpt lat="44.76516" lon="0.44977">
        <ele>91.8</ele>
        <time>2024-07-14T06:45:00Z</time>
      </trkpt>
      <trkpt lat="44.76518" lon="0.4499">
        <ele>91.6</ele>
        <time>2024-07-14T06:45:02Z</time>
      </trkpt>
      <trkpt lat="44.76519" lon="0.44996">
        <ele>91.4</ele>
        <time>2024-07-14T06:45:03Z</time>
      </trkpt>
      <trkpt lat="44.76518" lon="0.45002">
        <ele>91.3</ele>
        <time>2024-07-14T06:45:04Z</time>
      </trkpt>
      <trkpt lat="44.76516" lon="0.45008">
        <ele>91.1</ele>
        <time>2024-07-14T06:45:05Z</time>
      </trkpt>
      <trkpt lat="44.76514" lon="0.45014">
        <ele>90.9</ele>
        <time>2024-07-14T06:45:06Z</time>
      </trkpt>
      <trkpt lat="44.7651" lon="0.45019">
        <ele>90.8</ele>
        <time>2024-07-14T06:45:07Z</time>
      </trkpt>
      <trkpt lat="44.76505" lon="0.45023">
        <ele>90.6</ele>
        <time>2024-07-14T06:45:08Z</time>
      </trkpt>
      <trkpt lat="44.76501" lon="0.45025">
        <ele>90.5</ele>
        <time>2024-07-14T06:45:09Z</time>
      </trkpt>
      <trkpt lat="44.76496" lon="0.45027">
        <ele>90.5</ele>
        <time>2024-07-14T06:45:10Z</time>
      </trkpt>
      <trkpt lat="44.76492" lon="0.45028">
        <ele>90.4</ele>
        <time>2024-07-14T06:45:11Z</time>
      </trkpt>
      <trkpt lat="44.76488" lon="0.4503">
        <ele>90.3</ele>
        <time>2024-07-14T06:45:12Z</time>
      </trkpt>
      <trkpt lat="44.76479" lon="0.45034">
        <ele>90.2</ele>
        <time>2024-07-14T06:45:14Z</time>
      </trkpt>
      <trkpt lat="44.7647" lon="0.45037">
        <ele>90.1</ele>
        <time>2024-07-14T06:45:16Z</time>
      </trkpt>
      <trkpt lat="44.76465" lon="0.45039">
        <ele>90.1</ele>
        <time>2024-07-14T06:45:17Z</time>
      </trkpt>
      <trkpt lat="44.76461" lon="0.45041">
        <ele>90.1</ele>
        <time>2024-07-14T06:45:18Z</time>
      </trkpt>
      <trkpt lat="44.76457" lon="0.45043">
        <ele>90.1</ele>
        <time>2024-07-14T06:45:19Z</time>
      </trkpt>
      <trkpt lat="44.76452" lon="0.45046">
        <ele>90.1</ele>
        <time>2024-07-14T06:45:20Z</time>
      </trkpt>
      <trkpt lat="44.76444" lon="0.45049">
        <ele>90.1</ele>
        <time>2024-07-14T06:45:22Z</time>
      </trkpt>
      <trkpt lat="44.76437" lon="0.45053">
        <ele>90.1</ele>
        <time>2024-07-14T06:45:24Z</time>
      </trkpt>
      <trkpt lat="44.76429" lon="0.45057">
        <ele>90.2</ele>
        <time>2024-07-14T06:45:26Z</time>
      </trkpt>
      <trkpt lat="44.76421" lon="0.4506">
        <ele>90.2</ele>
        <time>2024-07-14T06:45:28Z</time>
      </trkpt>
      <trkpt lat="44.76414" lon="0.45063">
        <ele>90.3</ele>
        <time>2024-07-14T06:45:30Z</time>
      </trkpt>
      <trkpt lat="44.76406" lon="0.45064">
        <ele>90.5</ele>
        <time>2024-07-14T06:45:32Z</time>
      </trkpt>
      <trkpt lat="44.76397" lon="0.45064">
        <ele>90.7</ele>
        <time>2024-07-14T06:45:34Z</time>
      </trkpt>
      <trkpt lat="44.7639" lon="0.45063">
        <ele>91</ele>
        <time>2024-07-14T06:45:36Z</time>
      </trkpt>
      <trkpt lat="44.76382" lon="0.45062">
        <ele>91.2</ele>
        <time>2024-07-14T06:45:38Z</time>
      </trkpt>
      <trkpt lat="44.76378" lon="0.45062">
        <ele>91.3</ele>
        <time>2024-07-14T06:45:39Z</time>
      </trkpt>
      <trkpt lat="44.76376" lon="0.45062">
        <ele>91.4</ele>
        <time>2024-07-14T06:45:40Z</time>
      </trkpt>
      <trkpt lat="44.76371" lon="0.45063">
        <ele>91.6</ele>
        <time>2024-07-14T06:45:42Z</time>
      </trkpt>
      <trkpt lat="44.76368" lon="0.45062">
        <ele>91.7</ele>
        <time>2024-07-14T06:45:43Z</time>
      </trkpt>
      <trkpt lat="44.76365" lon="0.45062">
        <ele>91.8</ele>
        <time>2024-07-14T06:45:44Z</time>
      </trkpt>
      <trkpt lat="44.76359" lon="0.4506">
        <ele>92</ele>
        <time>2024-07-14T06:45:46Z</time>
      </trkpt>
      <trkpt lat="44.76356" lon="0.45059">
        <ele>92.1</ele>
        <time>2024-07-14T06:45:47Z</time>
      </trkpt>
      <trkpt lat="44.76353" lon="0.45057">
        <ele>92.2</ele>
        <time>2024-07-14T06:45:48Z</time>
      </trkpt>
      <trkpt lat="44.76348" lon="0.45054">
        <ele>92.3</ele>
        <time>2024-07-14T06:45:50Z</time>
      </trkpt>
      <trkpt lat="44.76344" lon="0.45052">
        <ele>92.3</ele>
        <time>2024-07-14T06:45:51Z</time>
      </trkpt>
      <trkpt lat="44.76341" lon="0.45051">
        <ele>92.4</ele>
        <time>2024-07-14T06:45:52Z</time>
      </trkpt>
      <trkpt lat="44.76335" lon="0.4505">
        <ele>92.4</ele>
        <time>2024-07-14T06:45:54Z</time>
      </trkpt>
      <trkpt lat="44.76328" lon="0.45049">
        <ele>92.6</ele>
        <time>2024-07-14T06:45:56Z</time>
      </trkpt>
      <trkpt lat="44.76321" lon="0.45049">
        <ele>92.7</ele>
        <time>2024-07-14T06:45:58Z</time>
      </trkpt>
      <trkpt lat="44.76314" lon="0.4505">
        <ele>92.8</ele>
        <time>2024-07-14T06:46:00Z</time>
      </trkpt>
      <trkpt lat="44.76307" lon="0.45051">
        <ele>93</ele>
        <time>2024-07-14T06:46:02Z</time>
      </trkpt>
      <trkpt lat="44.76304" lon="0.45052">
        <ele>93.1</ele>
        <time>2024-07-14T06:46:03Z</time>
      </trkpt>
      <trkpt lat="44.76302" lon="0.45053">
        <ele>93.1</ele>
        <time>2024-07-14T06:46:04Z</time>
      </trkpt>
      <trkpt lat="44.76296" lon="0.45058">
        <ele>93.3</ele>
        <time>2024-07-14T06:46:06Z</time>
      </trkpt>
      <trkpt lat="44.7629" lon="0.4506">
        <ele>93.5</ele>
        <time>2024-07-14T06:46:08Z</time>
      </trkpt>
      <trkpt lat="44.76284" lon="0.45063">
        <ele>93.7</ele>
        <time>2024-07-14T06:46:10Z</time>
      </trkpt>
      <trkpt lat="44.76277" lon="0.45067">
        <ele>93.9</ele>
        <time>2024-07-14T06:46:12Z</time>
      </trkpt>
      <trkpt lat="44.76271" lon="0.45071">
        <ele>94.1</ele>
        <time>2024-07-14T06:46:14Z</time>
      </trkpt>
      <trkpt lat="44.76266" lon="0.45075">
        <ele>94.2</ele>
        <time>2024-07-14T06:46:16Z</time>
      </trkpt>
      <trkpt lat="44.76264" lon="0.45077">
        <ele>94.3</ele>
        <time>2024-07-14T06:46:17Z</time>
      </trkpt>
      <trkpt lat="44.76261" lon="0.45078">
        <ele>94.3</ele>
        <time>2024-07-14T06:46:18Z</time>
      </trkpt>
      <trkpt lat="44.76256" lon="0.45079">
        <ele>94.4</ele>
        <time>2024-07-14T06:46:20Z</time>
      </trkpt>
      <trkpt lat="44.76253" lon="0.45078">
        <ele>94.4</ele>
        <time>2024-07-14T06:46:21Z</time>
      </trkpt>
      <trkpt lat="44.76251" lon="0.45079">
        <ele>94.5</ele>
        <time>2024-07-14T06:46:22Z</time>
      </trkpt>
      <trkpt lat="44.76246" lon="0.45078">
        <ele>94.5</ele>
        <time>2024-07-14T06:46:24Z</time>
      </trkpt>
      <trkpt lat="44.76242" lon="0.45078">
        <ele>94.5</ele>
        <time>2024-07-14T06:46:26Z</time>
      </trkpt>
      <trkpt lat="44.76237" lon="0.45075">
        <ele>94.5</ele>
        <time>2024-07-14T06:46:28Z</time>
      </trkpt>
      <trkpt lat="44.76232" lon="0.45071">
        <ele>94.5</ele>
        <time>2024-07-14T06:46:30Z</time>
      </trkpt>
      <trkpt lat="44.76225" lon="0.45066">
        <ele>94.5</ele>
        <time>2024-07-14T06:46:32Z</time>
      </trkpt>
      <trkpt lat="44.76219" lon="0.45061">
        <ele>94.4</ele>
        <time>2024-07-14T06:46:34Z</time>
      </trkpt>
      <trkpt lat="44.76213" lon="0.45055">
        <ele>94.3</ele>
        <time>2024-07-14T06:46:36Z</time>
      </trkpt>
      <trkpt lat="44.7621" lon="0.45053">
        <ele>94.2</ele>
        <time>2024-07-14T06:46:37Z</time>
      </trkpt>
      <trkpt lat="44.76207" lon="0.4505">
        <ele>94.2</ele>
        <time>2024-07-14T06:46:38Z</time>
      </trkpt>
      <trkpt lat="44.762" lon="0.45045">
        <ele>94.1</ele>
        <time>2024-07-14T06:46:40Z</time>
      </trkpt>
      <trkpt lat="44.76195" lon="0.4504">
        <ele>94</ele>
        <time>2024-07-14T06:46:42Z</time>
      </trkpt>
      <trkpt lat="44.7619" lon="0.45036">
        <ele>94</ele>
        <time>2024-07-14T06:46:44Z</time>
      </trkpt>
      <trkpt lat="44.76188" lon="0.45034">
        <ele>94</ele>
        <time>2024-07-14T06:46:45Z</time>
      </trkpt>
      <trkpt lat="44.76186" lon="0.45032">
        <ele>94</ele>
        <time>2024-07-14T06:46:46Z</time>
      </trkpt>
      <trkpt lat="44.76181" lon="0.45029">
        <ele>94.1</ele>
        <time>2024-07-14T06:46:48Z</time>
      </trkpt>
      <trkpt lat="44.76177" lon="0.45026">
        <ele>94.1</ele>
        <time>2024-07-14T06:46:50Z</time>
      </trkpt>
      <trkpt lat="44.76174" lon="0.45023">
        <ele>94.2</ele>
        <time>2024-07-14T06:46:52Z</time>
      </trkpt>
      <trkpt lat="44.76169" lon="0.4502">
        <ele>94.3</ele>
        <time>2024-07-14T06:46:54Z</time>
      </trkpt>
      <trkpt lat="44.76165" lon="0.45018">
        <ele>94.4</ele>
        <time>2024-07-14T06:46:56Z</time>
      </trkpt>
      <trkpt lat="44.76162" lon="0.45017">
        <ele>94.4</ele>
        <time>2024-07-14T06:46:57Z</time>
      </trkpt>
      <trkpt lat="44.76161" lon="0.45015">
        <ele>94.4</ele>
        <time>2024-07-14T06:46:58Z</time>
      </trkpt>
      <trkpt lat="44.76157" lon="0.45013">
        <ele>94.5</ele>
        <time>2024-07-14T06:47:00Z</time>
      </trkpt>
      <trkpt lat="44.76153" lon="0.4501">
        <ele>94.6</ele>
        <time>2024-07-14T06:47:02Z</time>
      </trkpt>
      <trkpt lat="44.76151" lon="0.45009">
        <ele>94.6</ele>
        <time>2024-07-14T06:47:03Z</time>
      </trkpt>
      <trkpt lat="44.76149" lon="0.45007">
        <ele>94.6</ele>
        <time>2024-07-14T06:47:04Z</time>
      </trkpt>
      <trkpt lat="44.76145" lon="0.45003">
        <ele>94.7</ele>
        <time>2024-07-14T06:47:06Z</time>
      </trkpt>
      <trkpt lat="44.76141" lon="0.44999">
        <ele>94.8</ele>
        <time>2024-07-14T06:47:08Z</time>
      </trkpt>
      <trkpt lat="44.76138" lon="0.44996">
        <ele>94.9</ele>
        <time>2024-07-14T06:47:10Z</time>
      </trkpt>
      <trkpt lat="44.76136" lon="0.44994">
        <ele>95</ele>
        <time>2024-07-14T06:47:11Z</time>
      </trkpt>
      <trkpt lat="44.76134" lon="0.44992">
        <ele>95</ele>
        <time>2024-07-14T06:47:12Z</time>
      </trkpt>
      <trkpt lat="44.76131" lon="0.44988">
        <ele>95.2</ele>
        <time>2024-07-14T06:47:14Z</time>
      </trkpt>
      <trkpt lat="44.76128" lon="0.44985">
        <ele>95.3</ele>
        <time>2024-07-14T06:47:16Z</time>
      </trkpt>
      <trkpt lat="44.76124" lon="0.44982">
        <ele>95.5</ele>
        <time>2024-07-14T06:47:18Z</time>
      </trkpt>
      <trkpt lat="44.76122" lon="0.44981">
        <ele>95.6</ele>
        <time>2024-07-14T06:47:19Z</time>
      </trkpt>
      <trkpt lat="44.7612" lon="0.44979">
        <ele>95.7</ele>
        <time>2024-07-14T06:47:20Z</time>
      </trkpt>
      <trkpt lat="44.76116" lon="0.44976">
        <ele>95.9</ele>
        <time>2024-07-14T06:47:22Z</time>
      </trkpt>
      <trkpt lat="44.76111" lon="0.44974">
        <ele>96.1</ele>
        <time>2024-07-14T06:47:24Z</time>
      </trkpt>
      <trkpt lat="44.76106" lon="0.44972">
        <ele>96.3</ele>
        <time>2024-07-14T06:47:26Z</time>
      </trkpt>
      <trkpt lat="44.76101" lon="0.44972">
        <ele>96.5</ele>
        <time>2024-07-14T06:47:28Z</time>
      </trkpt>
      <trkpt lat="44.76097" lon="0.44971">
        <ele>96.7</ele>
        <time>2024-07-14T06:47:30Z</time>
      </trkpt>
      <trkpt lat="44.76095" lon="0.44971">
        <ele>96.8</ele>
        <time>2024-07-14T06:47:31Z</time>
      </trkpt>
      <trkpt lat="44.76092" lon="0.4497">
        <ele>96.9</ele>
        <time>2024-07-14T06:47:32Z</time>
      </trkpt>
      <trkpt lat="44.76089" lon="0.44969">
        <ele>97</ele>
        <time>2024-07-14T06:47:34Z</time>
      </trkpt>
      <trkpt lat="44.76085" lon="0.44968">
        <ele>97.1</ele>
        <time>2024-07-14T06:47:36Z</time>
      </trkpt>
      <trkpt lat="44.76081" lon="0.44965">
        <ele>97.3</ele>
        <time>2024-07-14T06:47:38Z</time>
      </trkpt>
      <trkpt lat="44.76079" lon="0.44963">
        <ele>97.4</ele>
        <time>2024-07-14T06:47:39Z</time>
      </trkpt>
      <trkpt lat="44.76077" lon="0.44962">
        <ele>97.4</ele>
        <time>2024-07-14T06:47:40Z</time>
      </trkpt>
      <trkpt lat="44.76073" lon="0.44958">
        <ele>97.6</ele>
        <time>2024-07-14T06:47:42Z</time>
      </trkpt>
      <trkpt lat="44.7607" lon="0.44953">
        <ele>97.8</ele>
        <time>2024-07-14T06:47:44Z</time>
      </trkpt>
      <trkpt lat="44.76066" lon="0.4495">
        <ele>97.9</ele>
        <time>2024-07-14T06:47:46Z</time>
      </trkpt>
      <trkpt lat="44.76062" lon="0.44946">
        <ele>98.1</ele>
        <time>2024-07-14T06:47:48Z</time>
      </trkpt>
      <trkpt lat="44.76059" lon="0.44941">
        <ele>98.3</ele>
        <time>2024-07-14T06:47:50Z</time>
      </trkpt>
      <trkpt lat="44.76056" lon="0.44938">
        <ele>98.5</ele>
        <time>2024-07-14T06:47:52Z</time>
      </trkpt>
      <trkpt lat="44.76053" lon="0.44934">
        <ele>98.7</ele>
        <time>2024-07-14T06:47:54Z</time>
      </trkpt>
      <trkpt lat="44.76051" lon="0.44932">
        <ele>98.8</ele>
        <time>2024-07-14T06:47:55Z</time>
      </trkpt>
      <trkpt lat="44.7605" lon="0.4493">
        <ele>98.9</ele>
        <time>2024-07-14T06:47:56Z</time>
      </trkpt>
      <trkpt lat="44.76047" lon="0.44926">
        <ele>99.2</ele>
        <time>2024-07-14T06:47:58Z</time>
      </trkpt>
      <trkpt lat="44.76043" lon="0.44921">
        <ele>99.4</ele>
        <time>2024-07-14T06:48:00Z</time>
      </trkpt>
      <trkpt lat="44.76041" lon="0.4492">
        <ele>99.5</ele>
        <time>2024-07-14T06:48:01Z</time>
      </trkpt>
      <trkpt lat="44.76039" lon="0.44918">
        <ele>99.6</ele>
        <time>2024-07-14T06:48:02Z</time>
      </trkpt>
      <trkpt lat="44.76036" lon="0.44913">
        <ele>99.9</ele>
        <time>2024-07-14T06:48:04Z</time>
      </trkpt>
      <trkpt lat="44.76033" lon="0.4491">
        <ele>100.1</ele>
        <time>2024-07-14T06:48:06Z</time>
      </trkpt>
      <trkpt lat="44.76029" lon="0.44906">
        <ele>100.3</ele>
        <time>2024-07-14T06:48:08Z</time>
      </trkpt>
      <trkpt lat="44.76026" lon="0.44903">
        <ele>100.5</ele>
        <time>2024-07-14T06:48:10Z</time>
      </trkpt>
      <trkpt lat="44.76022" lon="0.44899">
        <ele>100.6</ele>
        <time>2024-07-14T06:48:12Z</time>
      </trkpt>
      <trkpt lat="44.76019" lon="0.44896">
        <ele>100.8</ele>
        <time>2024-07-14T06:48:14Z</time>
      </trkpt>
      <trkpt lat="44.76016" lon="0.44892">
        <ele>101.1</ele>
        <time>2024-07-14T06:48:16Z</time>
      </trkpt>
      <trkpt lat="44.76012" lon="0.44888">
        <ele>101.3</ele>
        <time>2024-07-14T06:48:18Z</time>
      </trkpt>
      <trkpt lat="44.76008" lon="0.44885">
        <ele>101.5</ele>
        <time>2024-07-14T06:48:20Z</time>
      </trkpt>
      <trkpt lat="44.76005" lon="0.44883">
        <ele>101.8</ele>
        <time>2024-07-14T06:48:22Z</time>
      </trkpt>
      <trkpt lat="44.76001" lon="0.44879">
        <ele>102</ele>
        <time>2024-07-14T06:48:24Z</time>
      </trkpt>
      <trkpt lat="44.75998" lon="0.44875">
        <ele>102.2</ele>
        <time>2024-07-14T06:48:26Z</time>
      </trkpt>
      <trkpt lat="44.75995" lon="0.44871">
        <ele>102.3</ele>
        <time>2024-07-14T06:48:28Z</time>
      </trkpt>
      <trkpt lat="44.75991" lon="0.44868">
        <ele>102.5</ele>
        <time>2024-07-14T06:48:30Z</time>
      </trkpt>
      <trkpt lat="44.75988" lon="0.44864">
        <ele>102.7</ele>
        <time>2024-07-14T06:48:32Z</time>
      </trkpt>
      <trkpt lat="44.75986" lon="0.44863">
        <ele>102.7</ele>
        <time>2024-07-14T06:48:33Z</time>
      </trkpt>
      <trkpt lat="44.75984" lon="0.44861">
        <ele>102.8</ele>
        <time>2024-07-14T06:48:34Z</time>
      </trkpt>
      <trkpt lat="44.75981" lon="0.44857">
        <ele>103</ele>
        <time>2024-07-14T06:48:36Z</time>
      </trkpt>
      <trkpt lat="44.75977" lon="0.44853">
        <ele>103.1</ele>
        <time>2024-07-14T06:48:38Z</time>
      </trkpt>
      <trkpt lat="44.75974" lon="0.4485">
        <ele>103.3</ele>
        <time>2024-07-14T06:48:40Z</time>
      </trkpt>
      <trkpt lat="44.7597" lon="0.44847">
        <ele>103.4</ele>
        <time>2024-07-14T06:48:42Z</time>
      </trkpt>
      <trkpt lat="44.75967" lon="0.44843">
        <ele>103.6</ele>
        <time>2024-07-14T06:48:44Z</time>
      </trkpt>
      <trkpt lat="44.75963" lon="0.4484">
        <ele>103.7</ele>
        <time>2024-07-14T06:48:46Z</time>
      </trkpt>
      <trkpt lat="44.7596" lon="0.44836">
        <ele>103.9</ele>
        <time>2024-07-14T06:48:48Z</time>
      </trkpt>
      <trkpt lat="44.75958" lon="0.44834">
        <ele>103.9</ele>
        <time>2024-07-14T06:48:49Z</time>
      </trkpt>
      <trkpt lat="44.75957" lon="0.44833">
        <ele>104</ele>
        <time>2024-07-14T06:48:50Z</time>
      </trkpt>
      <trkpt lat="44.75953" lon="0.44829">
        <ele>104.2</ele>
        <time>2024-07-14T06:48:52Z</time>
      </trkpt>
      <trkpt lat="44.75949" lon="0.44827">
        <ele>104.3</ele>
        <time>2024-07-14T06:48:54Z</time>
      </trkpt>
      <trkpt lat="44.75945" lon="0.44824">
        <ele>104.5</ele>
        <time>2024-07-14T06:48:56Z</time>
      </trkpt>
      <trkpt lat="44.75941" lon="0.44821">
        <ele>104.7</ele>
        <time>2024-07-14T06:48:58Z</time>
      </trkpt>
      <trkpt lat="44.75937" lon="0.44818">
        <ele>104.9</ele>
        <time>2024-07-14T06:49:00Z</time>
      </trkpt>
      <trkpt lat="44.75934" lon="0.44815">
        <ele>105</ele>
        <time>2024-07-14T06:49:02Z</time>
      </trkpt>
      <trkpt lat="44.7593" lon="0.44812">
        <ele>105.3</ele>
        <time>2024-07-14T06:49:04Z</time>
      </trkpt>
      <trkpt lat="44.75927" lon="0.44809">
        <ele>105.5</ele>
        <time>2024-07-14T06:49:06Z</time>
      </trkpt>
      <trkpt lat="44.75923" lon="0.44806">
        <ele>105.7</ele>
        <time>2024-07-14T06:49:08Z</time>
      </trkpt>
      <trkpt lat="44.7592" lon="0.44803">
        <ele>105.9</ele>
        <time>2024-07-14T06:49:10Z</time>
      </trkpt>
      <trkpt lat="44.75917" lon="0.44801">
        <ele>106.1</ele>
        <time>2024-07-14T06:49:12Z</time>
      </trkpt>
      <trkpt lat="44.75915" lon="0.44799">
        <ele>106.2</ele>
        <time>2024-07-14T06:49:14Z</time>
      </trkpt>
      <trkpt lat="44.75912" lon="0.44796">
        <ele>106.4</ele>
        <time>2024-07-14T06:49:16Z</time>
      </trkpt>
      <trkpt lat="44.7591" lon="0.44793">
        <ele>106.6</ele>
        <time>2024-07-14T06:49:17Z</time>
      </trkpt>
      <trkpt lat="44.75908" lon="0.44792">
        <ele>106.7</ele>
        <time>2024-07-14T06:49:18Z</time>
      </trkpt>
      <trkpt lat="44.75903" lon="0.44788">
        <ele>107</ele>
        <time>2024-07-14T06:49:20Z</time>
      </trkpt>
      <trkpt lat="44.75899" lon="0.44785">
        <ele>107.2</ele>
        <time>2024-07-14T06:49:22Z</time>
      </trkpt>
      <trkpt lat="44.75896" lon="0.44784">
        <ele>107.3</ele>
        <time>2024-07-14T06:49:23Z</time>
      </trkpt>
      <trkpt lat="44.75894" lon="0.44783">
        <ele>107.4</ele>
        <time>2024-07-14T06:49:24Z</time>
      </trkpt>
      <trkpt lat="44.75889" lon="0.4478">
        <ele>107.7</ele>
        <time>2024-07-14T06:49:26Z</time>
      </trkpt>
      <trkpt lat="44.75885" lon="0.44779">
        <ele>107.9</ele>
        <time>2024-07-14T06:49:28Z</time>
      </trkpt>
      <trkpt lat="44.75883" lon="0.44778">
        <ele>108</ele>
        <time>2024-07-14T06:49:29Z</time>
      </trkpt>
      <trkpt lat="44.75881" lon="0.44778">
        <ele>108.1</ele>
        <time>2024-07-14T06:49:30Z</time>
      </trkpt>
      <trkpt lat="44.75877" lon="0.4478">
        <ele>108.3</ele>
        <time>2024-07-14T06:49:32Z</time>
      </trkpt>
      <trkpt lat="44.75872" lon="0.44782">
        <ele>108.5</ele>
        <time>2024-07-14T06:49:34Z</time>
      </trkpt>
      <trkpt lat="44.75868" lon="0.44784">
        <ele>108.6</ele>
        <time>2024-07-14T06:49:36Z</time>
      </trkpt>
      <trkpt lat="44.75864" lon="0.44787">
        <ele>108.8</ele>
        <time>2024-07-14T06:49:38Z</time>
      </trkpt>
      <trkpt lat="44.7586" lon="0.44789">
        <ele>108.9</ele>
        <time>2024-07-14T06:49:40Z</time>
      </trkpt>
      <trkpt lat="44.75856" lon="0.44791">
        <ele>109.1</ele>
        <time>2024-07-14T06:49:42Z</time>
      </trkpt>
      <trkpt lat="44.75855" lon="0.44793">
        <ele>109.2</ele>
        <time>2024-07-14T06:49:43Z</time>
      </trkpt>
      <trkpt lat="44.75853" lon="0.44794">
        <ele>109.2</ele>
        <time>2024-07-14T06:49:44Z</time>
      </trkpt>
      <trkpt lat="44.75851" lon="0.44796">
        <ele>109.3</ele>
        <time>2024-07-14T06:49:45Z</time>
      </trkpt>
      <trkpt lat="44.7585" lon="0.44799">
        <ele>109.4</ele>
        <time>2024-07-14T06:49:46Z</time>
      </trkpt>
      <trkpt lat="44.75851" lon="0.44805">
        <ele>109.5</ele>
        <time>2024-07-14T06:49:48Z</time>
      </trkpt>
      <trkpt lat="44.75853" lon="0.44809">
        <ele>109.5</ele>
        <time>2024-07-14T06:49:49Z</time>
      </trkpt>
      <trkpt lat="44.75854" lon="0.44813">
        <ele>109.5</ele>
        <time>2024-07-14T06:49:50Z</time>
      </trkpt>
      <trkpt lat="44.75856" lon="0.44821">
        <ele>109.4</ele>
        <time>2024-07-14T06:49:52Z</time>
      </trkpt>
      <trkpt lat="44.75859" lon="0.44829">
        <ele>109.4</ele>
        <time>2024-07-14T06:49:54Z</time>
      </trkpt>
      <trkpt lat="44.7586" lon="0.44833">
        <ele>109.4</ele>
        <time>2024-07-14T06:49:55Z</time>
      </trkpt>
      <trkpt lat="44.75861" lon="0.44837">
        <ele>109.4</ele>
        <time>2024-07-14T06:49:56Z</time>
      </trkpt>
      <trkpt lat="44.75863" lon="0.44845">
        <ele>109.4</ele>
        <time>2024-07-14T06:49:58Z</time>
      </trkpt>
      <trkpt lat="44.75865" lon="0.44854">
        <ele>109.5</ele>
        <time>2024-07-14T06:50:00Z</time>
      </trkpt>
      <trkpt lat="44.75866" lon="0.44861">
        <ele>109.6</ele>
        <time>2024-07-14T06:50:02Z</time>
      </trkpt>
      <trkpt lat="44.75869" lon="0.44869">
        <ele>109.7</ele>
        <time>2024-07-14T06:50:04Z</time>
      </trkpt>
      <trkpt lat="44.75871" lon="0.44877">
        <ele>109.8</ele>
        <time>2024-07-14T06:50:06Z</time>
      </trkpt>
      <trkpt lat="44.75872" lon="0.44885">
        <ele>109.8</ele>
        <time>2024-07-14T06:50:08Z</time>
      </trkpt>
      <trkpt lat="44.75873" lon="0.44895">
        <ele>109.9</ele>
        <time>2024-07-14T06:50:10Z</time>
      </trkpt>
      <trkpt lat="44.75872" lon="0.44903">
        <ele>110</ele>
        <time>2024-07-14T06:50:12Z</time>
      </trkpt>
      <trkpt lat="44.7587" lon="0.44912">
        <ele>110</ele>
        <time>2024-07-14T06:50:14Z</time>
      </trkpt>
      <trkpt lat="44.75869" lon="0.44917">
        <ele>110.1</ele>
        <time>2024-07-14T06:50:15Z</time>
      </trkpt>
      <trkpt lat="44.75869" lon="0.44921">
        <ele>110.1</ele>
        <time>2024-07-14T06:50:16Z</time>
      </trkpt>
      <trkpt lat="44.7587" lon="0.44932">
        <ele>110.1</ele>
        <time>2024-07-14T06:50:18Z</time>
      </trkpt>
      <trkpt lat="44.75871" lon="0.44937">
        <ele>110.1</ele>
        <time>2024-07-14T06:50:19Z</time>
      </trkpt>
      <trkpt lat="44.75872" lon="0.44942">
        <ele>110</ele>
        <time>2024-07-14T06:50:20Z</time>
      </trkpt>
      <trkpt lat="44.75871" lon="0.44954">
        <ele>109.8</ele>
        <time>2024-07-14T06:50:22Z</time>
      </trkpt>
      <trkpt lat="44.75869" lon="0.44966">
        <ele>109.7</ele>
        <time>2024-07-14T06:50:24Z</time>
      </trkpt>
      <trkpt lat="44.75866" lon="0.44978">
        <ele>109.5</ele>
        <time>2024-07-14T06:50:26Z</time>
      </trkpt>
      <trkpt lat="44.75862" lon="0.44989">
        <ele>109.3</ele>
        <time>2024-07-14T06:50:28Z</time>
      </trkpt>
      <trkpt lat="44.75858" lon="0.45">
        <ele>109.1</ele>
        <time>2024-07-14T06:50:30Z</time>
      </trkpt>
      <trkpt lat="44.75856" lon="0.45011">
        <ele>109</ele>
        <time>2024-07-14T06:50:32Z</time>
      </trkpt>
      <trkpt lat="44.75852" lon="0.45021">
        <ele>108.8</ele>
        <time>2024-07-14T06:50:34Z</time>
      </trkpt>
      <trkpt lat="44.75849" lon="0.45031">
        <ele>108.6</ele>
        <time>2024-07-14T06:50:36Z</time>
      </trkpt>
      <trkpt lat="44.75845" lon="0.45042">
        <ele>108.5</ele>
        <time>2024-07-14T06:50:38Z</time>
      </trkpt>
      <trkpt lat="44.75842" lon="0.45052">
        <ele>108.4</ele>
        <time>2024-07-14T06:50:40Z</time>
      </trkpt>
      <trkpt lat="44.75838" lon="0.45062">
        <ele>108.3</ele>
        <time>2024-07-14T06:50:42Z</time>
      </trkpt>
      <trkpt lat="44.75835" lon="0.45072">
        <ele>108.3</ele>
        <time>2024-07-14T06:50:44Z</time>
      </trkpt>
      <trkpt lat="44.75835" lon="0.45077">
        <ele>108.2</ele>
        <time>2024-07-14T06:50:45Z</time>
      </trkpt>
      <trkpt lat="44.75836" lon="0.45082">
        <ele>107.9</ele>
        <time>2024-07-14T06:50:46Z</time>
      </trkpt>
      <trkpt lat="44.75839" lon="0.45087">
        <ele>107.6</ele>
        <time>2024-07-14T06:50:47Z</time>
      </trkpt>
      <trkpt lat="44.75843" lon="0.45091">
        <ele>107.3</ele>
        <time>2024-07-14T06:50:48Z</time>
      </trkpt>
      <trkpt lat="44.75848" lon="0.45094">
        <ele>106.9</ele>
        <time>2024-07-14T06:50:49Z</time>
      </trkpt>
      <trkpt lat="44.75853" lon="0.45096">
        <ele>106.5</ele>
        <time>2024-07-14T06:50:50Z</time>
      </trkpt>
      <trkpt lat="44.75865" lon="0.45103">
        <ele>105.5</ele>
        <time>2024-07-14T06:50:52Z</time>
      </trkpt>
      <trkpt lat="44.75879" lon="0.4511">
        <ele>104.4</ele>
        <time>2024-07-14T06:50:54Z</time>
      </trkpt>
      <trkpt lat="44.75894" lon="0.45118">
        <ele>103.1</ele>
        <time>2024-07-14T06:50:56Z</time>
      </trkpt>
      <trkpt lat="44.75902" lon="0.45122">
        <ele>102.4</ele>
        <time>2024-07-14T06:50:57Z</time>
      </trkpt>
      <trkpt lat="44.7591" lon="0.45126">
        <ele>101.8</ele>
        <time>2024-07-14T06:50:58Z</time>
      </trkpt>
      <trkpt lat="44.75927" lon="0.45136">
        <ele>100.5</ele>
        <time>2024-07-14T06:51:00Z</time>
      </trkpt>
      <trkpt lat="44.75944" lon="0.45148">
        <ele>99.5</ele>
        <time>2024-07-14T06:51:02Z</time>
      </trkpt>
      <trkpt lat="44.75952" lon="0.45155">
        <ele>99.2</ele>
        <time>2024-07-14T06:51:03Z</time>
      </trkpt>
      <trkpt lat="44.7596" lon="0.45163">
        <ele>98.8</ele>
        <time>2024-07-14T06:51:04Z</time>
      </trkpt>
      <trkpt lat="44.75976" lon="0.45177">
        <ele>98.2</ele>
        <time>2024-07-14T06:51:06Z</time>
      </trkpt>
      <trkpt lat="44.75983" lon="0.45185">
        <ele>97.9</ele>
        <time>2024-07-14T06:51:07Z</time>
      </trkpt>
      <trkpt lat="44.7599" lon="0.45193">
        <ele>97.6</ele>
        <time>2024-07-14T06:51:08Z</time>
      </trkpt>
      <trkpt lat="44.75997" lon="0.452">
        <ele>97.3</ele>
        <time>2024-07-14T06:51:09Z</time>
      </trkpt>
      <trkpt lat="44.76002" lon="0.45206">
        <ele>97.1</ele>
        <time>2024-07-14T06:51:10Z</time>
      </trkpt>
      <trkpt lat="44.76013" lon="0.45219">
        <ele>96.7</ele>
        <time>2024-07-14T06:51:12Z</time>
      </trkpt>
      <trkpt lat="44.76023" lon="0.45232">
        <ele>96.1</ele>
        <time>2024-07-14T06:51:14Z</time>
      </trkpt>
      <trkpt lat="44.76033" lon="0.45247">
        <ele>95.6</ele>
        <time>2024-07-14T06:51:16Z</time>
      </trkpt>
      <trkpt lat="44.76042" lon="0.45262">
        <ele>95.1</ele>
        <time>2024-07-14T06:51:18Z</time>
      </trkpt>
      <trkpt lat="44.7605" lon="0.45278">
        <ele>94.6</ele>
        <time>2024-07-14T06:51:20Z</time>
      </trkpt>
      <trkpt lat="44.7606" lon="0.45294">
        <ele>94</ele>
        <time>2024-07-14T06:51:22Z</time>
      </trkpt>
      <trkpt lat="44.76068" lon="0.4531">
        <ele>93.4</ele>
        <time>2024-07-14T06:51:24Z</time>
      </trkpt>
      <trkpt lat="44.76077" lon="0.45328">
        <ele>92.9</ele>
        <time>2024-07-14T06:51:26Z</time>
      </trkpt>
      <trkpt lat="44.76085" lon="0.45346">
        <ele>92.8</ele>
        <time>2024-07-14T06:51:28Z</time>
      </trkpt>
      <trkpt lat="44.76094" lon="0.45363">
        <ele>92.7</ele>
        <time>2024-07-14T06:51:30Z</time>
      </trkpt>
      <trkpt lat="44.76098" lon="0.4537">
        <ele>92.7</ele>
        <time>2024-07-14T06:51:31Z</time>
      </trkpt>
      <trkpt lat="44.76101" lon="0.45374">
        <ele>92.7</ele>
        <time>2024-07-14T06:51:32Z</time>
      </trkpt>
      <trkpt lat="44.76103" lon="0.45376">
        <ele>92.6</ele>
        <time>2024-07-14T06:51:33Z</time>
      </trkpt>
      <trkpt lat="44.76105" lon="0.45376">
        <ele>92.6</ele>
        <time>2024-07-14T06:51:34Z</time>
      </trkpt>
      <trkpt lat="44.7611" lon="0.45372">
        <ele>92.5</ele>
        <time>2024-07-14T06:51:36Z</time>
      </trkpt>
      <trkpt lat="44.76113" lon="0.45366">
        <ele>92.3</ele>
        <time>2024-07-14T06:51:38Z</time>
      </trkpt>
      <trkpt lat="44.76114" lon="0.45363">
        <ele>92.3</ele>
        <time>2024-07-14T06:51:40Z</time>
      </trkpt>
      <trkpt lat="44.76116" lon="0.45357">
        <ele>92.1</ele>
        <time>2024-07-14T06:51:42Z</time>
      </trkpt>
      <trkpt lat="44.76118" lon="0.45352">
        <ele>92</ele>
        <time>2024-07-14T06:51:44Z</time>
      </trkpt>
      <trkpt lat="44.76123" lon="0.45347">
        <ele>91.7</ele>
        <time>2024-07-14T06:51:46Z</time>
      </trkpt>
      <trkpt lat="44.76131" lon="0.4534">
        <ele>91.3</ele>
        <time>2024-07-14T06:51:48Z</time>
      </trkpt>
      <trkpt lat="44.76139" lon="0.45334">
        <ele>91</ele>
        <time>2024-07-14T06:51:50Z</time>
      </trkpt>
      <trkpt lat="44.7614" lon="0.45331">
        <ele>91</ele>
        <time>2024-07-14T06:51:51Z</time>
      </trkpt>
      <trkpt lat="44.76142" lon="0.45328">
        <ele>90.9</ele>
        <time>2024-07-14T06:51:52Z</time>
      </trkpt>
      <trkpt lat="44.76151" lon="0.45323">
        <ele>91</ele>
        <time>2024-07-14T06:51:54Z</time>
      </trkpt>
      <trkpt lat="44.76153" lon="0.45321">
        <ele>91</ele>
        <time>2024-07-14T06:51:55Z</time>
      </trkpt>
      <trkpt lat="44.76156" lon="0.45317">
        <ele>91.1</ele>
        <time>2024-07-14T06:51:56Z</time>
      </trkpt>
      <trkpt lat="44.7616" lon="0.45312">
        <ele>91.1</ele>
        <time>2024-07-14T06:51:58Z</time>
      </trkpt>
      <trkpt lat="44.76162" lon="0.45309">
        <ele>91.2</ele>
        <time>2024-07-14T06:51:59Z</time>
      </trkpt>
      <trkpt lat="44.76165" lon="0.45308">
        <ele>91.2</ele>
        <time>2024-07-14T06:52:00Z</time>
      </trkpt>
      <trkpt lat="44.76171" lon="0.45305">
        <ele>91.3</ele>
        <time>2024-07-14T06:52:02Z</time>
      </trkpt>
      <trkpt lat="44.76174" lon="0.45304">
        <ele>91.3</ele>
        <time>2024-07-14T06:52:03Z</time>
      </trkpt>
      <trkpt lat="44.76178" lon="0.45304">
        <ele>91.3</ele>
        <time>2024-07-14T06:52:04Z</time>
      </trkpt>
      <trkpt lat="44.76185" lon="0.45303">
        <ele>91.4</ele>
        <time>2024-07-14T06:52:06Z</time>
      </trkpt>
      <trkpt lat="44.76188" lon="0.45304">
        <ele>91.4</ele>
        <time>2024-07-14T06:52:07Z</time>
      </trkpt>
      <trkpt lat="44.76192" lon="0.45304">
        <ele>91.5</ele>
        <time>2024-07-14T06:52:08Z</time>
      </trkpt>
      <trkpt lat="44.76197" lon="0.45302">
        <ele>91.5</ele>
        <time>2024-07-14T06:52:10Z</time>
      </trkpt>
      <trkpt lat="44.76201" lon="0.45302">
        <ele>91.6</ele>
        <time>2024-07-14T06:52:11Z</time>
      </trkpt>
      <trkpt lat="44.76204" lon="0.45302">
        <ele>91.7</ele>
        <time>2024-07-14T06:52:12Z</time>
      </trkpt>
      <trkpt lat="44.76209" lon="0.45302">
        <ele>91.8</ele>
        <time>2024-07-14T06:52:14Z</time>
      </trkpt>
      <trkpt lat="44.76212" lon="0.453">
        <ele>91.8</ele>
        <time>2024-07-14T06:52:15Z</time>
      </trkpt>
      <trkpt lat="44.76214" lon="0.45299">
        <ele>91.9</ele>
        <time>2024-07-14T06:52:16Z</time>
      </trkpt>
      <trkpt lat="44.76221" lon="0.45295">
        <ele>92.1</ele>
        <time>2024-07-14T06:52:18Z</time>
      </trkpt>
      <trkpt lat="44.76225" lon="0.45294">
        <ele>92.2</ele>
        <time>2024-07-14T06:52:20Z</time>
      </trkpt>
      <trkpt lat="44.76227" lon="0.45293">
        <ele>92.2</ele>
        <time>2024-07-14T06:52:21Z</time>
      </trkpt>
      <trkpt lat="44.76228" lon="0.45292">
        <ele>92.3</ele>
        <time>2024-07-14T06:52:22Z</time>
      </trkpt>
      <trkpt lat="44.7623" lon="0.45291">
        <ele>92.3</ele>
        <time>2024-07-14T06:52:23Z</time>
      </trkpt>
      <trkpt lat="44.76233" lon="0.45289">
        <ele>92.4</ele>
        <time>2024-07-14T06:52:24Z</time>
      </trkpt>
      <trkpt lat="44.76239" lon="0.45287">
        <ele>92.5</ele>
        <time>2024-07-14T06:52:26Z</time>
      </trkpt>
      <trkpt lat="44.76245" lon="0.45285">
        <ele>92.7</ele>
        <time>2024-07-14T06:52:28Z</time>
      </trkpt>
      <trkpt lat="44.76247" lon="0.45285">
        <ele>92.7</ele>
        <time>2024-07-14T06:52:30Z</time>
      </trkpt>
      <trkpt lat="44.76252" lon="0.4528">
        <ele>92.9</ele>
        <time>2024-07-14T06:52:33Z</time>
      </trkpt>
      <trkpt lat="44.76255" lon="0.45278">
        <ele>92.9</ele>
        <time>2024-07-14T06:52:34Z</time>
      </trkpt>
      <trkpt lat="44.76258" lon="0.45276">
        <ele>93</ele>
        <time>2024-07-14T06:52:35Z</time>
      </trkpt>
      <trkpt lat="44.76261" lon="0.45274">
        <ele>93</ele>
        <time>2024-07-14T06:52:36Z</time>
      </trkpt>
      <trkpt lat="44.76264" lon="0.45272">
        <ele>93.1</ele>
        <time>2024-07-14T06:52:37Z</time>
      </trkpt>
      <trkpt lat="44.76269" lon="0.45269">
        <ele>93.1</ele>
        <time>2024-07-14T06:52:38Z</time>
      </trkpt>
      <trkpt lat="44.76277" lon="0.45261">
        <ele>93</ele>
        <time>2024-07-14T06:52:40Z</time>
      </trkpt>
      <trkpt lat="44.7628" lon="0.45257">
        <ele>93</ele>
        <time>2024-07-14T06:52:41Z</time>
      </trkpt>
      <trkpt lat="44.76284" lon="0.45251">
        <ele>92.9</ele>
        <time>2024-07-14T06:52:42Z</time>
      </trkpt>
      <trkpt lat="44.76289" lon="0.45246">
        <ele>92.7</ele>
        <time>2024-07-14T06:52:43Z</time>
      </trkpt>
      <trkpt lat="44.76291" lon="0.45241">
        <ele>92.6</ele>
        <time>2024-07-14T06:52:44Z</time>
      </trkpt>
      <trkpt lat="44.76294" lon="0.45236">
        <ele>92.5</ele>
        <time>2024-07-14T06:52:45Z</time>
      </trkpt>
      <trkpt lat="44.76298" lon="0.45232">
        <ele>92.3</ele>
        <time>2024-07-14T06:52:46Z</time>
      </trkpt>
      <trkpt lat="44.76304" lon="0.45231">
        <ele>92.1</ele>
        <time>2024-07-14T06:52:47Z</time>
      </trkpt>
      <trkpt lat="44.7631" lon="0.4523">
        <ele>91.9</ele>
        <time>2024-07-14T06:52:48Z</time>
      </trkpt>
      <trkpt lat="44.76314" lon="0.45229">
        <ele>91.6</ele>
        <time>2024-07-14T06:52:49Z</time>
      </trkpt>
      <trkpt lat="44.76318" lon="0.45227">
        <ele>91.3</ele>
        <time>2024-07-14T06:52:50Z</time>
      </trkpt>
      <trkpt lat="44.76328" lon="0.4522">
        <ele>90.4</ele>
        <time>2024-07-14T06:52:52Z</time>
      </trkpt>
      <trkpt lat="44.76332" lon="0.45216">
        <ele>89.9</ele>
        <time>2024-07-14T06:52:53Z</time>
      </trkpt>
      <trkpt lat="44.76336" lon="0.45214">
        <ele>89.4</ele>
        <time>2024-07-14T06:52:54Z</time>
      </trkpt>
      <trkpt lat="44.7634" lon="0.45212">
        <ele>88.9</ele>
        <time>2024-07-14T06:52:55Z</time>
      </trkpt>
      <trkpt lat="44.76346" lon="0.4521">
        <ele>88.3</ele>
        <time>2024-07-14T06:52:56Z</time>
      </trkpt>
      <trkpt lat="44.76354" lon="0.45209">
        <ele>87.4</ele>
        <time>2024-07-14T06:52:58Z</time>
      </trkpt>
      <trkpt lat="44.76364" lon="0.45208">
        <ele>86.3</ele>
        <time>2024-07-14T06:53:00Z</time>
      </trkpt>
      <trkpt lat="44.76367" lon="0.45209">
        <ele>86.1</ele>
        <time>2024-07-14T06:53:01Z</time>
      </trkpt>
      <trkpt lat="44.7637" lon="0.4521">
        <ele>85.8</ele>
        <time>2024-07-14T06:53:02Z</time>
      </trkpt>
      <trkpt lat="44.76374" lon="0.45209">
        <ele>85.4</ele>
        <time>2024-07-14T06:53:03Z</time>
      </trkpt>
      <trkpt lat="44.76381" lon="0.45207">
        <ele>84.7</ele>
        <time>2024-07-14T06:53:04Z</time>
      </trkpt>
      <trkpt lat="44.76384" lon="0.45206">
        <ele>84.5</ele>
        <time>2024-07-14T06:53:05Z</time>
      </trkpt>
      <trkpt lat="44.76386" lon="0.45205">
        <ele>84.2</ele>
        <time>2024-07-14T06:53:06Z</time>
      </trkpt>
      <trkpt lat="44.76389" lon="0.45205">
        <ele>83.9</ele>
        <time>2024-07-14T06:53:07Z</time>
      </trkpt>
      <trkpt lat="44.76392" lon="0.45204">
        <ele>83.6</ele>
        <time>2024-07-14T06:53:08Z</time>
      </trkpt>
      <trkpt lat="44.76395" lon="0.45203">
        <ele>83.4</ele>
        <time>2024-07-14T06:53:10Z</time>
      </trkpt>
      <trkpt lat="44.76398" lon="0.45202">
        <ele>83.1</ele>
        <time>2024-07-14T06:53:11Z</time>
      </trkpt>
      <trkpt lat="44.76401" lon="0.45201">
        <ele>82.8</ele>
        <time>2024-07-14T06:53:12Z</time>
      </trkpt>
      <trkpt lat="44.76404" lon="0.45201">
        <ele>82.6</ele>
        <time>2024-07-14T06:53:13Z</time>
      </trkpt>
      <trkpt lat="44.7641" lon="0.45195">
        <ele>81.9</ele>
        <time>2024-07-14T06:53:14Z</time>
      </trkpt>
      <trkpt lat="44.76426" lon="0.4518">
        <ele>80.8</ele>
        <time>2024-07-14T06:53:16Z</time>
      </trkpt>
      <trkpt lat="44.76434" lon="0.45174">
        <ele>80.6</ele>
        <time>2024-07-14T06:53:36Z</time>
      </trkpt>
      <trkpt lat="44.76442" lon="0.45168">
        <ele>80.6</ele>
        <time>2024-07-14T06:53:37Z</time>
      </trkpt>
      <trkpt lat="44.76449" lon="0.45166">
        <ele>80.8</ele>
        <time>2024-07-14T06:53:38Z</time>
      </trkpt>
      <trkpt lat="44.76459" lon="0.45159">
        <ele>81.4</ele>
        <time>2024-07-14T06:53:40Z</time>
      </trkpt>
      <trkpt lat="44.76464" lon="0.45157">
        <ele>81.6</ele>
        <time>2024-07-14T06:53:41Z</time>
      </trkpt>
      <trkpt lat="44.76469" lon="0.45156">
        <ele>81.7</ele>
        <time>2024-07-14T06:53:42Z</time>
      </trkpt>
      <trkpt lat="44.76477" lon="0.45155">
        <ele>81.4</ele>
        <time>2024-07-14T06:53:44Z</time>
      </trkpt>
      <trkpt lat="44.76486" lon="0.45154">
        <ele>81.1</ele>
        <time>2024-07-14T06:53:46Z</time>
      </trkpt>
      <trkpt lat="44.76491" lon="0.45154">
        <ele>80.9</ele>
        <time>2024-07-14T06:53:48Z</time>
      </trkpt>
      <trkpt lat="44.76494" lon="0.45153">
        <ele>80.9</ele>
        <time>2024-07-14T06:53:49Z</time>
      </trkpt>
      <trkpt lat="44.76507" lon="0.4515">
        <ele>80.5</ele>
        <time>2024-07-14T06:53:54Z</time>
      </trkpt>
      <trkpt lat="44.76509" lon="0.4515">
        <ele>80.5</ele>
        <time>2024-07-14T06:53:55Z</time>
      </trkpt>
      <trkpt lat="44.76512" lon="0.45151">
        <ele>80.4</ele>
        <time>2024-07-14T06:53:56Z</time>
      </trkpt>
      <trkpt lat="44.76515" lon="0.45152">
        <ele>80.3</ele>
        <time>2024-07-14T06:53:57Z</time>
      </trkpt>
      <trkpt lat="44.76518" lon="0.45155">
        <ele>80.1</ele>
        <time>2024-07-14T06:53:58Z</time>
      </trkpt>
      <trkpt lat="44.76521" lon="0.45158">
        <ele>79.9</ele>
        <time>2024-07-14T06:53:59Z</time>
      </trkpt>
      <trkpt lat="44.76524" lon="0.45162">
        <ele>79.7</ele>
        <time>2024-07-14T06:54:00Z</time>
      </trkpt>
      <trkpt lat="44.76528" lon="0.45169">
        <ele>79.3</ele>
        <time>2024-07-14T06:54:02Z</time>
      </trkpt>
      <trkpt lat="44.7653" lon="0.45172">
        <ele>79.1</ele>
        <time>2024-07-14T06:54:03Z</time>
      </trkpt>
      <trkpt lat="44.76534" lon="0.45176">
        <ele>78.7</ele>
        <time>2024-07-14T06:54:04Z</time>
      </trkpt>
      <trkpt lat="44.76538" lon="0.45182">
        <ele>78.4</ele>
        <time>2024-07-14T06:54:05Z</time>
      </trkpt>
      <trkpt lat="44.76541" lon="0.45186">
        <ele>78.2</ele>
        <time>2024-07-14T06:54:06Z</time>
      </trkpt>
      <trkpt lat="44.76546" lon="0.45196">
        <ele>77.7</ele>
        <time>2024-07-14T06:54:08Z</time>
      </trkpt>
      <trkpt lat="44.76549" lon="0.45201">
        <ele>77.5</ele>
        <time>2024-07-14T06:54:09Z</time>
      </trkpt>
      <trkpt lat="44.76551" lon="0.45205">
        <ele>77.4</ele>
        <time>2024-07-14T06:54:10Z</time>
      </trkpt>
      <trkpt lat="44.76553" lon="0.45212">
        <ele>77.2</ele>
        <time>2024-07-14T06:54:12Z</time>
      </trkpt>
      <trkpt lat="44.76554" lon="0.45217">
        <ele>77.1</ele>
        <time>2024-07-14T06:54:13Z</time>
      </trkpt>
      <trkpt lat="44.76555" lon="0.4522">
        <ele>77.1</ele>
        <time>2024-07-14T06:54:14Z</time>
      </trkpt>
      <trkpt lat="44.76557" lon="0.45228">
        <ele>76.9</ele>
        <time>2024-07-14T06:54:16Z</time>
      </trkpt>
      <trkpt lat="44.76558" lon="0.45231">
        <ele>76.9</ele>
        <time>2024-07-14T06:54:17Z</time>
      </trkpt>
      <trkpt lat="44.76559" lon="0.45236">
        <ele>76.9</ele>
        <time>2024-07-14T06:54:18Z</time>
      </trkpt>
      <trkpt lat="44.76562" lon="0.45245">
        <ele>76.8</ele>
        <time>2024-07-14T06:54:20Z</time>
      </trkpt>
      <trkpt lat="44.76565" lon="0.45247">
        <ele>76.8</ele>
        <time>2024-07-14T06:54:21Z</time>
      </trkpt>
      <trkpt lat="44.76567" lon="0.4525">
        <ele>76.8</ele>
        <time>2024-07-14T06:54:22Z</time>
      </trkpt>
      <trkpt lat="44.76572" lon="0.45255">
        <ele>76.9</ele>
        <time>2024-07-14T06:54:24Z</time>
      </trkpt>
      <trkpt lat="44.76574" lon="0.4526">
        <ele>76.9</ele>
        <time>2024-07-14T06:54:25Z</time>
      </trkpt>
      <trkpt lat="44.76577" lon="0.45266">
        <ele>76.9</ele>
        <time>2024-07-14T06:54:26Z</time>
      </trkpt>
      <trkpt lat="44.76583" lon="0.45277">
        <ele>77.3</ele>
        <time>2024-07-14T06:54:28Z</time>
      </trkpt>
      <trkpt lat="44.76585" lon="0.45282">
        <ele>77.8</ele>
        <time>2024-07-14T06:54:29Z</time>
      </trkpt>
      <trkpt lat="44.76586" lon="0.45286">
        <ele>78.3</ele>
        <time>2024-07-14T06:54:30Z</time>
      </trkpt>
      <trkpt lat="44.7659" lon="0.45296">
        <ele>79.5</ele>
        <time>2024-07-14T06:54:32Z</time>
      </trkpt>
      <trkpt lat="44.76593" lon="0.45301">
        <ele>80.1</ele>
        <time>2024-07-14T06:54:33Z</time>
      </trkpt>
      <trkpt lat="44.76595" lon="0.45306">
        <ele>80.7</ele>
        <time>2024-07-14T06:54:34Z</time>
      </trkpt>
      <trkpt lat="44.76599" lon="0.45313">
        <ele>81.6</ele>
        <time>2024-07-14T06:54:36Z</time>
      </trkpt>
      <trkpt lat="44.76601" lon="0.45321">
        <ele>82.6</ele>
        <time>2024-07-14T06:54:38Z</time>
      </trkpt>
      <trkpt lat="44.76603" lon="0.45329">
        <ele>83.5</ele>
        <time>2024-07-14T06:54:40Z</time>
      </trkpt>
      <trkpt lat="44.76605" lon="0.45337">
        <ele>84.3</ele>
        <time>2024-07-14T06:54:42Z</time>
      </trkpt>
      <trkpt lat="44.76606" lon="0.45342">
        <ele>84.8</ele>
        <time>2024-07-14T06:54:43Z</time>
      </trkpt>
      <trkpt lat="44.76609" lon="0.45347">
        <ele>85.4</ele>
        <time>2024-07-14T06:54:44Z</time>
      </trkpt>
      <trkpt lat="44.76615" lon="0.45355">
        <ele>86.6</ele>
        <time>2024-07-14T06:54:46Z</time>
      </trkpt>
      <trkpt lat="44.76618" lon="0.4536">
        <ele>87.2</ele>
        <time>2024-07-14T06:54:47Z</time>
      </trkpt>
      <trkpt lat="44.7662" lon="0.45363">
        <ele>87.7</ele>
        <time>2024-07-14T06:54:48Z</time>
      </trkpt>
      <trkpt lat="44.76626" lon="0.4537">
        <ele>88.7</ele>
        <time>2024-07-14T06:54:50Z</time>
      </trkpt>
      <trkpt lat="44.7663" lon="0.45377">
        <ele>89.7</ele>
        <time>2024-07-14T06:54:52Z</time>
      </trkpt>
      <trkpt lat="44.76636" lon="0.45384">
        <ele>90.8</ele>
        <time>2024-07-14T06:54:54Z</time>
      </trkpt>
      <trkpt lat="44.7664" lon="0.45393">
        <ele>91.9</ele>
        <time>2024-07-14T06:54:56Z</time>
      </trkpt>
      <trkpt lat="44.76643" lon="0.45402">
        <ele>92.9</ele>
        <time>2024-07-14T06:54:58Z</time>
      </trkpt>
      <trkpt lat="44.76644" lon="0.45405">
        <ele>93.4</ele>
        <time>2024-07-14T06:54:59Z</time>
      </trkpt>
      <trkpt lat="44.76647" lon="0.45407">
        <ele>93.8</ele>
        <time>2024-07-14T06:55:00Z</time>
      </trkpt>
      <trkpt lat="44.7665" lon="0.45408">
        <ele>94.4</ele>
        <time>2024-07-14T06:55:02Z</time>
      </trkpt>
      <trkpt lat="44.76652" lon="0.4541">
        <ele>94.5</ele>
        <time>2024-07-14T06:55:03Z</time>
      </trkpt>
      <trkpt lat="44.76654" lon="0.45412">
        <ele>94.5</ele>
        <time>2024-07-14T06:55:04Z</time>
      </trkpt>
      <trkpt lat="44.76654" lon="0.45414">
        <ele>94.5</ele>
        <time>2024-07-14T06:55:05Z</time>
      </trkpt>
      <trkpt lat="44.76655" lon="0.45416">
        <ele>94.5</ele>
        <time>2024-07-14T06:55:06Z</time>
      </trkpt>
      <trkpt lat="44.76662" lon="0.45424">
        <ele>94.5</ele>
        <time>2024-07-14T06:55:08Z</time>
      </trkpt>
      <trkpt lat="44.76663" lon="0.45427">
        <ele>94.5</ele>
        <time>2024-07-14T06:55:09Z</time>
      </trkpt>
      <trkpt lat="44.76665" lon="0.45428">
        <ele>94.6</ele>
        <time>2024-07-14T06:55:10Z</time>
      </trkpt>
      <trkpt lat="44.76666" lon="0.45428">
        <ele>94.6</ele>
        <time>2024-07-14T06:55:11Z</time>
      </trkpt>
      <trkpt lat="44.76668" lon="0.45427">
        <ele>94.6</ele>
        <time>2024-07-14T06:55:12Z</time>
      </trkpt>
      <trkpt lat="44.76674" lon="0.45425">
        <ele>94.6</ele>
        <time>2024-07-14T06:55:14Z</time>
      </trkpt>
      <trkpt lat="44.7668" lon="0.45423">
        <ele>94.7</ele>
        <time>2024-07-14T06:55:16Z</time>
      </trkpt>
      <trkpt lat="44.76684" lon="0.45424">
        <ele>94.7</ele>
        <time>2024-07-14T06:55:17Z</time>
      </trkpt>
      <trkpt lat="44.76688" lon="0.45427">
        <ele>94.7</ele>
        <time>2024-07-14T06:55:18Z</time>
      </trkpt>
      <trkpt lat="44.76692" lon="0.45435">
        <ele>94.8</ele>
        <time>2024-07-14T06:55:20Z</time>
      </trkpt>
      <trkpt lat="44.76693" lon="0.45445">
        <ele>94.8</ele>
        <time>2024-07-14T06:55:22Z</time>
      </trkpt>
      <trkpt lat="44.76693" lon="0.45448">
        <ele>94.8</ele>
        <time>2024-07-14T06:55:23Z</time>
      </trkpt>
      <trkpt lat="44.76693" lon="0.45452">
        <ele>94.8</ele>
        <time>2024-07-14T06:55:24Z</time>
      </trkpt>
      <trkpt lat="44.76695" lon="0.45459">
        <ele>94.7</ele>
        <time>2024-07-14T06:55:26Z</time>
      </trkpt>
      <trkpt lat="44.76697" lon="0.4546">
        <ele>94.7</ele>
        <time>2024-07-14T06:55:27Z</time>
      </trkpt>
      <trkpt lat="44.76699" lon="0.45461">
        <ele>94.7</ele>
        <time>2024-07-14T06:55:28Z</time>
      </trkpt>
      <trkpt lat="44.76702" lon="0.45464">
        <ele>94.7</ele>
        <time>2024-07-14T06:55:30Z</time>
      </trkpt>
      <trkpt lat="44.76704" lon="0.45465">
        <ele>94.7</ele>
        <time>2024-07-14T06:55:31Z</time>
      </trkpt>
      <trkpt lat="44.76706" lon="0.45467">
        <ele>94.7</ele>
        <time>2024-07-14T06:55:32Z</time>
      </trkpt>
      <trkpt lat="44.76709" lon="0.4547">
        <ele>94.6</ele>
        <time>2024-07-14T06:55:34Z</time>
      </trkpt>
      <trkpt lat="44.76716" lon="0.45471">
        <ele>94.6</ele>
        <time>2024-07-14T06:55:38Z</time>
      </trkpt>
      <trkpt lat="44.76721" lon="0.45469">
        <ele>94.5</ele>
        <time>2024-07-14T06:55:40Z</time>
      </trkpt>
      <trkpt lat="44.76727" lon="0.4547">
        <ele>94.4</ele>
        <time>2024-07-14T06:55:42Z</time>
      </trkpt>
      <trkpt lat="44.76731" lon="0.45472">
        <ele>94.3</ele>
        <time>2024-07-14T06:55:44Z</time>
      </trkpt>
      <trkpt lat="44.76734" lon="0.45475">
        <ele>94.2</ele>
        <time>2024-07-14T06:55:45Z</time>
      </trkpt>
      <trkpt lat="44.76736" lon="0.45477">
        <ele>94.2</ele>
        <time>2024-07-14T06:55:46Z</time>
      </trkpt>
      <trkpt lat="44.76741" lon="0.45481">
        <ele>94.1</ele>
        <time>2024-07-14T06:55:48Z</time>
      </trkpt>
      <trkpt lat="44.76744" lon="0.45484">
        <ele>94.1</ele>
        <time>2024-07-14T06:55:49Z</time>
      </trkpt>
      <trkpt lat="44.76746" lon="0.45486">
        <ele>94.1</ele>
        <time>2024-07-14T06:55:50Z</time>
      </trkpt>
      <trkpt lat="44.76751" lon="0.45489">
        <ele>94.1</ele>
        <time>2024-07-14T06:55:52Z</time>
      </trkpt>
      <trkpt lat="44.76755" lon="0.45491">
        <ele>94.1</ele>
        <time>2024-07-14T06:55:53Z</time>
      </trkpt>
      <trkpt lat="44.76758" lon="0.45493">
        <ele>94.1</ele>
        <time>2024-07-14T06:55:54Z</time>
      </trkpt>
      <trkpt lat="44.76763" lon="0.45499">
        <ele>94.2</ele>
        <time>2024-07-14T06:55:56Z</time>
      </trkpt>
      <trkpt lat="44.76765" lon="0.45501">
        <ele>94.2</ele>
        <time>2024-07-14T06:55:57Z</time>
      </trkpt>
      <trkpt lat="44.76768" lon="0.45504">
        <ele>94.3</ele>
        <time>2024-07-14T06:55:58Z</time>
      </trkpt>
      <trkpt lat="44.76772" lon="0.4551">
        <ele>94.3</ele>
        <time>2024-07-14T06:56:00Z</time>
      </trkpt>
      <trkpt lat="44.76773" lon="0.45514">
        <ele>94.4</ele>
        <time>2024-07-14T06:56:01Z</time>
      </trkpt>
      <trkpt lat="44.76775" lon="0.45516">
        <ele>94.4</ele>
        <time>2024-07-14T06:56:02Z</time>
      </trkpt>
      <trkpt lat="44.76782" lon="0.45523">
        <ele>94.6</ele>
        <time>2024-07-14T06:56:04Z</time>
      </trkpt>
      <trkpt lat="44.76784" lon="0.45528">
        <ele>94.6</ele>
        <time>2024-07-14T06:56:05Z</time>
      </trkpt>
      <trkpt lat="44.76785" lon="0.45532">
        <ele>94.7</ele>
        <time>2024-07-14T06:56:06Z</time>
      </trkpt>
      <trkpt lat="44.76786" lon="0.45536">
        <ele>94.8</ele>
        <time>2024-07-14T06:56:07Z</time>
      </trkpt>
      <trkpt lat="44.76785" lon="0.45538">
        <ele>94.9</ele>
        <time>2024-07-14T06:56:08Z</time>
      </trkpt>
      <trkpt lat="44.76783" lon="0.45541">
        <ele>95</ele>
        <time>2024-07-14T06:56:09Z</time>
      </trkpt>
      <trkpt lat="44.76781" lon="0.45544">
        <ele>95.1</ele>
        <time>2024-07-14T06:56:10Z</time>
      </trkpt>
      <trkpt lat="44.76779" lon="0.45546">
        <ele>95.2</ele>
        <time>2024-07-14T06:56:11Z</time>
      </trkpt>
      <trkpt lat="44.76777" lon="0.45548">
        <ele>95.3</ele>
        <time>2024-07-14T06:56:12Z</time>
      </trkpt>
      <trkpt lat="44.76775" lon="0.45551">
        <ele>95.4</ele>
        <time>2024-07-14T06:56:14Z</time>
      </trkpt>
      <trkpt lat="44.76775" lon="0.45553">
        <ele>95.5</ele>
        <time>2024-07-14T06:56:15Z</time>
      </trkpt>
      <trkpt lat="44.76789" lon="0.45564">
        <ele>96</ele>
        <time>2024-07-14T06:56:26Z</time>
      </trkpt>
      <trkpt lat="44.76791" lon="0.45565">
        <ele>96.1</ele>
        <time>2024-07-14T06:56:27Z</time>
      </trkpt>
      <trkpt lat="44.76793" lon="0.45568">
        <ele>96.1</ele>
        <time>2024-07-14T06:56:28Z</time>
      </trkpt>
      <trkpt lat="44.76797" lon="0.45572">
        <ele>96.2</ele>
        <time>2024-07-14T06:56:30Z</time>
      </trkpt>
      <trkpt lat="44.76798" lon="0.45574">
        <ele>96.2</ele>
        <time>2024-07-14T06:56:31Z</time>
      </trkpt>
      <trkpt lat="44.76802" lon="0.45576">
        <ele>96.1</ele>
        <time>2024-07-14T06:56:32Z</time>
      </trkpt>
      <trkpt lat="44.76809" lon="0.45579">
        <ele>95.4</ele>
        <time>2024-07-14T06:56:34Z</time>
      </trkpt>
      <trkpt lat="44.76813" lon="0.45581">
        <ele>95.1</ele>
        <time>2024-07-14T06:56:35Z</time>
      </trkpt>
      <trkpt lat="44.76815" lon="0.45582">
        <ele>94.8</ele>
        <time>2024-07-14T06:56:36Z</time>
      </trkpt>
      <trkpt lat="44.76821" lon="0.45583">
        <ele>94.2</ele>
        <time>2024-07-14T06:56:38Z</time>
      </trkpt>
      <trkpt lat="44.76823" lon="0.45584">
        <ele>94</ele>
        <time>2024-07-14T06:56:39Z</time>
      </trkpt>
      <trkpt lat="44.76826" lon="0.45586">
        <ele>93.6</ele>
        <time>2024-07-14T06:56:40Z</time>
      </trkpt>
      <trkpt lat="44.76829" lon="0.45587">
        <ele>93.2</ele>
        <time>2024-07-14T06:56:41Z</time>
      </trkpt>
      <trkpt lat="44.76832" lon="0.45591">
        <ele>92.7</ele>
        <time>2024-07-14T06:56:42Z</time>
      </trkpt>
      <trkpt lat="44.76838" lon="0.45599">
        <ele>91.6</ele>
        <time>2024-07-14T06:56:44Z</time>
      </trkpt>
      <trkpt lat="44.76841" lon="0.45607">
        <ele>90.8</ele>
        <time>2024-07-14T06:56:46Z</time>
      </trkpt>
      <trkpt lat="44.76844" lon="0.45612">
        <ele>90.4</ele>
        <time>2024-07-14T06:56:47Z</time>
      </trkpt>
      <trkpt lat="44.76845" lon="0.45617">
        <ele>90</ele>
        <time>2024-07-14T06:56:48Z</time>
      </trkpt>
      <trkpt lat="44.76847" lon="0.45628">
        <ele>89.3</ele>
        <time>2024-07-14T06:56:50Z</time>
      </trkpt>
      <trkpt lat="44.76847" lon="0.45637">
        <ele>88.7</ele>
        <time>2024-07-14T06:56:52Z</time>
      </trkpt>
      <trkpt lat="44.76847" lon="0.45641">
        <ele>88.5</ele>
        <time>2024-07-14T06:56:53Z</time>
      </trkpt>
      <trkpt lat="44.76847" lon="0.45645">
        <ele>88.3</ele>
        <time>2024-07-14T06:56:54Z</time>
      </trkpt>
      <trkpt lat="44.76846" lon="0.45649">
        <ele>88.1</ele>
        <time>2024-07-14T06:56:55Z</time>
      </trkpt>
      <trkpt lat="44.76845" lon="0.45653">
        <ele>87.8</ele>
        <time>2024-07-14T06:56:56Z</time>
      </trkpt>
      <trkpt lat="44.76843" lon="0.45658">
        <ele>87.5</ele>
        <time>2024-07-14T06:56:57Z</time>
      </trkpt>
      <trkpt lat="44.76841" lon="0.45662">
        <ele>87.2</ele>
        <time>2024-07-14T06:56:58Z</time>
      </trkpt>
      <trkpt lat="44.76837" lon="0.45669">
        <ele>86.8</ele>
        <time>2024-07-14T06:57:00Z</time>
      </trkpt>
      <trkpt lat="44.76832" lon="0.45674">
        <ele>86.4</ele>
        <time>2024-07-14T06:57:02Z</time>
      </trkpt>
      <trkpt lat="44.76827" lon="0.45679">
        <ele>86</ele>
        <time>2024-07-14T06:57:04Z</time>
      </trkpt>
      <trkpt lat="44.76823" lon="0.45685">
        <ele>85.6</ele>
        <time>2024-07-14T06:57:06Z</time>
      </trkpt>
      <trkpt lat="44.76818" lon="0.45693">
        <ele>85</ele>
        <time>2024-07-14T06:57:08Z</time>
      </trkpt>
      <trkpt lat="44.76814" lon="0.45703">
        <ele>84.3</ele>
        <time>2024-07-14T06:57:10Z</time>
      </trkpt>
      <trkpt lat="44.76813" lon="0.45712">
        <ele>83.8</ele>
        <time>2024-07-14T06:57:12Z</time>
      </trkpt>
      <trkpt lat="44.76811" lon="0.45722">
        <ele>83.2</ele>
        <time>2024-07-14T06:57:14Z</time>
      </trkpt>
      <trkpt lat="44.76811" lon="0.45734">
        <ele>82.7</ele>
        <time>2024-07-14T06:57:16Z</time>
      </trkpt>
      <trkpt lat="44.76811" lon="0.45739">
        <ele>82.4</ele>
        <time>2024-07-14T06:57:17Z</time>
      </trkpt>
      <trkpt lat="44.76812" lon="0.45744">
        <ele>82.2</ele>
        <time>2024-07-14T06:57:18Z</time>
      </trkpt>
      <trkpt lat="44.76812" lon="0.45753">
        <ele>81.9</ele>
        <time>2024-07-14T06:57:20Z</time>
      </trkpt>
      <trkpt lat="44.76813" lon="0.45762">
        <ele>81.7</ele>
        <time>2024-07-14T06:57:22Z</time>
      </trkpt>
      <trkpt lat="44.76813" lon="0.45769">
        <ele>81.7</ele>
        <time>2024-07-14T06:57:24Z</time>
      </trkpt>
      <trkpt lat="44.76813" lon="0.45774">
        <ele>81.7</ele>
        <time>2024-07-14T06:57:26Z</time>
      </trkpt>
      <trkpt lat="44.76813" lon="0.45775">
        <ele>81.7</ele>
        <time>2024-07-14T06:57:27Z</time>
      </trkpt>
      <trkpt lat="44.76812" lon="0.45777">
        <ele>81.8</ele>
        <time>2024-07-14T06:57:28Z</time>
      </trkpt>
      <trkpt lat="44.7681" lon="0.45777">
        <ele>82</ele>
        <time>2024-07-14T06:57:29Z</time>
      </trkpt>
      <trkpt lat="44.76809" lon="0.45777">
        <ele>82.1</ele>
        <time>2024-07-14T06:57:30Z</time>
      </trkpt>
      <trkpt lat="44.76805" lon="0.45778">
        <ele>82.4</ele>
        <time>2024-07-14T06:57:32Z</time>
      </trkpt>
      <trkpt lat="44.76804" lon="0.45779">
        <ele>82.6</ele>
        <time>2024-07-14T06:57:33Z</time>
      </trkpt>
      <trkpt lat="44.76802" lon="0.4578">
        <ele>82.7</ele>
        <time>2024-07-14T06:57:34Z</time>
      </trkpt>
      <trkpt lat="44.768" lon="0.45782">
        <ele>83</ele>
        <time>2024-07-14T06:57:36Z</time>
      </trkpt>
      <trkpt lat="44.76798" lon="0.45783">
        <ele>83.2</ele>
        <time>2024-07-14T06:57:37Z</time>
      </trkpt>
      <trkpt lat="44.76797" lon="0.45784">
        <ele>83.3</ele>
        <time>2024-07-14T06:57:38Z</time>
      </trkpt>
      <trkpt lat="44.76794" lon="0.45787">
        <ele>83.7</ele>
        <time>2024-07-14T06:57:40Z</time>
      </trkpt>
      <trkpt lat="44.76792" lon="0.45789">
        <ele>83.9</ele>
        <time>2024-07-14T06:57:42Z</time>
      </trkpt>
      <trkpt lat="44.7679" lon="0.45791">
        <ele>84.1</ele>
        <time>2024-07-14T06:57:44Z</time>
      </trkpt>
      <trkpt lat="44.76789" lon="0.45793">
        <ele>84.2</ele>
        <time>2024-07-14T06:57:45Z</time>
      </trkpt>
      <trkpt lat="44.76788" lon="0.45794">
        <ele>84.4</ele>
        <time>2024-07-14T06:57:46Z</time>
      </trkpt>
      <trkpt lat="44.76786" lon="0.45798">
        <ele>84.7</ele>
        <time>2024-07-14T06:57:48Z</time>
      </trkpt>
      <trkpt lat="44.76784" lon="0.45802">
        <ele>85</ele>
        <time>2024-07-14T06:57:50Z</time>
      </trkpt>
      <trkpt lat="44.76782" lon="0.45805">
        <ele>85.2</ele>
        <time>2024-07-14T06:57:52Z</time>
      </trkpt>
      <trkpt lat="44.76781" lon="0.45808">
        <ele>85.4</ele>
        <time>2024-07-14T06:57:54Z</time>
      </trkpt>
      <trkpt lat="44.76779" lon="0.45811">
        <ele>85.6</ele>
        <time>2024-07-14T06:57:56Z</time>
      </trkpt>
      <trkpt lat="44.76778" lon="0.45814">
        <ele>85.8</ele>
        <time>2024-07-14T06:57:58Z</time>
      </trkpt>
      <trkpt lat="44.76776" lon="0.45816">
        <ele>86</ele>
        <time>2024-07-14T06:58:00Z</time>
      </trkpt>
      <trkpt lat="44.76774" lon="0.45819">
        <ele>86.2</ele>
        <time>2024-07-14T06:58:02Z</time>
      </trkpt>
      <trkpt lat="44.76772" lon="0.45821">
        <ele>86.4</ele>
        <time>2024-07-14T06:58:04Z</time>
      </trkpt>
      <trkpt lat="44.76771" lon="0.45826">
        <ele>86.7</ele>
        <time>2024-07-14T06:58:06Z</time>
      </trkpt>
      <trkpt lat="44.76771" lon="0.45831">
        <ele>87</ele>
        <time>2024-07-14T06:58:08Z</time>
      </trkpt>
      <trkpt lat="44.7677" lon="0.45834">
        <ele>87.1</ele>
        <time>2024-07-14T06:58:09Z</time>
      </trkpt>
      <trkpt lat="44.7677" lon="0.45836">
        <ele>87.3</ele>
        <time>2024-07-14T06:58:10Z</time>
      </trkpt>
      <trkpt lat="44.76769" lon="0.45838">
        <ele>87.4</ele>
        <time>2024-07-14T06:58:11Z</time>
      </trkpt>
      <trkpt lat="44.76768" lon="0.45839">
        <ele>87.5</ele>
        <time>2024-07-14T06:58:12Z</time>
      </trkpt>
      <trkpt lat="44.76765" lon="0.45841">
        <ele>87.8</ele>
        <time>2024-07-14T06:58:14Z</time>
      </trkpt>
      <trkpt lat="44.76763" lon="0.45844">
        <ele>88</ele>
        <time>2024-07-14T06:58:16Z</time>
      </trkpt>
      <trkpt lat="44.76762" lon="0.45847">
        <ele>88.1</ele>
        <time>2024-07-14T06:58:17Z</time>
      </trkpt>
      <trkpt lat="44.76762" lon="0.45848">
        <ele>88.2</ele>
        <time>2024-07-14T06:58:18Z</time>
      </trkpt>
      <trkpt lat="44.7676" lon="0.45852">
        <ele>88.4</ele>
        <time>2024-07-14T06:58:20Z</time>
      </trkpt>
      <trkpt lat="44.76758" lon="0.45855">
        <ele>88.6</ele>
        <time>2024-07-14T06:58:22Z</time>
      </trkpt>
      <trkpt lat="44.76757" lon="0.45859">
        <ele>88.8</ele>
        <time>2024-07-14T06:58:24Z</time>
      </trkpt>
      <trkpt lat="44.76756" lon="0.45863">
        <ele>89.1</ele>
        <time>2024-07-14T06:58:26Z</time>
      </trkpt>
      <trkpt lat="44.76755" lon="0.45868">
        <ele>89.3</ele>
        <time>2024-07-14T06:58:28Z</time>
      </trkpt>
      <trkpt lat="44.76754" lon="0.45871">
        <ele>89.5</ele>
        <time>2024-07-14T06:58:30Z</time>
      </trkpt>
      <trkpt lat="44.76752" lon="0.45873">
        <ele>89.7</ele>
        <time>2024-07-14T06:58:32Z</time>
      </trkpt>
      <trkpt lat="44.7675" lon="0.45874">
        <ele>89.8</ele>
        <time>2024-07-14T06:58:33Z</time>
      </trkpt>
      <trkpt lat="44.7675" lon="0.45875">
        <ele>89.8</ele>
        <time>2024-07-14T06:58:34Z</time>
      </trkpt>
      <trkpt lat="44.76748" lon="0.45877">
        <ele>90</ele>
        <time>2024-07-14T06:58:36Z</time>
      </trkpt>
      <trkpt lat="44.76747" lon="0.4588">
        <ele>90.2</ele>
        <time>2024-07-14T06:58:37Z</time>
      </trkpt>
      <trkpt lat="44.76746" lon="0.45882">
        <ele>90.4</ele>
        <time>2024-07-14T06:58:38Z</time>
      </trkpt>
      <trkpt lat="44.76744" lon="0.45886">
        <ele>90.6</ele>
        <time>2024-07-14T06:58:40Z</time>
      </trkpt>
      <trkpt lat="44.76743" lon="0.45892">
        <ele>90.9</ele>
        <time>2024-07-14T06:58:42Z</time>
      </trkpt>
      <trkpt lat="44.76742" lon="0.45895">
        <ele>91.2</ele>
        <time>2024-07-14T06:58:44Z</time>
      </trkpt>
      <trkpt lat="44.7674" lon="0.45899">
        <ele>91.5</ele>
        <time>2024-07-14T06:58:46Z</time>
      </trkpt>
      <trkpt lat="44.76739" lon="0.45903">
        <ele>91.7</ele>
        <time>2024-07-14T06:58:48Z</time>
      </trkpt>
      <trkpt lat="44.76737" lon="0.45906">
        <ele>92</ele>
        <time>2024-07-14T06:58:50Z</time>
      </trkpt>
      <trkpt lat="44.76734" lon="0.45908">
        <ele>92.3</ele>
        <time>2024-07-14T06:58:52Z</time>
      </trkpt>
      <trkpt lat="44.76733" lon="0.45913">
        <ele>92.6</ele>
        <time>2024-07-14T06:58:54Z</time>
      </trkpt>
      <trkpt lat="44.76732" lon="0.45914">
        <ele>92.7</ele>
        <time>2024-07-14T06:58:55Z</time>
      </trkpt>
      <trkpt lat="44.76731" lon="0.45916">
        <ele>92.9</ele>
        <time>2024-07-14T06:58:56Z</time>
      </trkpt>
      <trkpt lat="44.7673" lon="0.45919">
        <ele>93.1</ele>
        <time>2024-07-14T06:58:58Z</time>
      </trkpt>
      <trkpt lat="44.76729" lon="0.45923">
        <ele>93.4</ele>
        <time>2024-07-14T06:59:00Z</time>
      </trkpt>
      <trkpt lat="44.76728" lon="0.45927">
        <ele>93.7</ele>
        <time>2024-07-14T06:59:02Z</time>
      </trkpt>
      <trkpt lat="44.76728" lon="0.45929">
        <ele>93.8</ele>
        <time>2024-07-14T06:59:03Z</time>
      </trkpt>
      <trkpt lat="44.76727" lon="0.45931">
        <ele>93.9</ele>
        <time>2024-07-14T06:59:04Z</time>
      </trkpt>
      <trkpt lat="44.76726" lon="0.45935">
        <ele>94.2</ele>
        <time>2024-07-14T06:59:06Z</time>
      </trkpt>
      <trkpt lat="44.76726" lon="0.4594">
        <ele>94.5</ele>
        <time>2024-07-14T06:59:08Z</time>
      </trkpt>
      <trkpt lat="44.76725" lon="0.45944">
        <ele>94.8</ele>
        <time>2024-07-14T06:59:10Z</time>
      </trkpt>
      <trkpt lat="44.76725" lon="0.45948">
        <ele>95</ele>
        <time>2024-07-14T06:59:12Z</time>
      </trkpt>
      <trkpt lat="44.76724" lon="0.45952">
        <ele>95.3</ele>
        <time>2024-07-14T06:59:14Z</time>
      </trkpt>
      <trkpt lat="44.76723" lon="0.45955">
        <ele>95.5</ele>
        <time>2024-07-14T06:59:16Z</time>
      </trkpt>
      <trkpt lat="44.76722" lon="0.45959">
        <ele>95.7</ele>
        <time>2024-07-14T06:59:18Z</time>
      </trkpt>
      <trkpt lat="44.76721" lon="0.45963">
        <ele>95.9</ele>
        <time>2024-07-14T06:59:20Z</time>
      </trkpt>
      <trkpt lat="44.76722" lon="0.45965">
        <ele>96</ele>
        <time>2024-07-14T06:59:21Z</time>
      </trkpt>
      <trkpt lat="44.76722" lon="0.45968">
        <ele>96.1</ele>
        <time>2024-07-14T06:59:22Z</time>
      </trkpt>
      <trkpt lat="44.76723" lon="0.45973">
        <ele>96.4</ele>
        <time>2024-07-14T06:59:24Z</time>
      </trkpt>
      <trkpt lat="44.76725" lon="0.45977">
        <ele>96.6</ele>
        <time>2024-07-14T06:59:26Z</time>
      </trkpt>
      <trkpt lat="44.76727" lon="0.4598">
        <ele>96.7</ele>
        <time>2024-07-14T06:59:28Z</time>
      </trkpt>
      <trkpt lat="44.76729" lon="0.45984">
        <ele>96.9</ele>
        <time>2024-07-14T06:59:30Z</time>
      </trkpt>
      <trkpt lat="44.76732" lon="0.45987">
        <ele>97.1</ele>
        <time>2024-07-14T06:59:32Z</time>
      </trkpt>
      <trkpt lat="44.76734" lon="0.45988">
        <ele>97.2</ele>
        <time>2024-07-14T06:59:33Z</time>
      </trkpt>
      <trkpt lat="44.76735" lon="0.4599">
        <ele>97.3</ele>
        <time>2024-07-14T06:59:34Z</time>
      </trkpt>
      <trkpt lat="44.76738" lon="0.45994">
        <ele>97.5</ele>
        <time>2024-07-14T06:59:36Z</time>
      </trkpt>
      <trkpt lat="44.76738" lon="0.45996">
        <ele>97.6</ele>
        <time>2024-07-14T06:59:37Z</time>
      </trkpt>
      <trkpt lat="44.76738" lon="0.45999">
        <ele>97.7</ele>
        <time>2024-07-14T06:59:38Z</time>
      </trkpt>
      <trkpt lat="44.76738" lon="0.46001">
        <ele>97.8</ele>
        <time>2024-07-14T06:59:39Z</time>
      </trkpt>
      <trkpt lat="44.76736" lon="0.46004">
        <ele>98</ele>
        <time>2024-07-14T06:59:40Z</time>
      </trkpt>
      <trkpt lat="44.76733" lon="0.46007">
        <ele>97.9</ele>
        <time>2024-07-14T06:59:42Z</time>
      </trkpt>
      <trkpt lat="44.76731" lon="0.46008">
        <ele>97.9</ele>
        <time>2024-07-14T06:59:43Z</time>
      </trkpt>
      <trkpt lat="44.76728" lon="0.4601">
        <ele>97.9</ele>
        <time>2024-07-14T06:59:44Z</time>
      </trkpt>
      <trkpt lat="44.76724" lon="0.46011">
        <ele>97.9</ele>
        <time>2024-07-14T06:59:46Z</time>
      </trkpt>
      <trkpt lat="44.76718" lon="0.46012">
        <ele>97.8</ele>
        <time>2024-07-14T06:59:48Z</time>
      </trkpt>
      <trkpt lat="44.76711" lon="0.46014">
        <ele>97.7</ele>
        <time>2024-07-14T06:59:50Z</time>
      </trkpt>
      <trkpt lat="44.76704" lon="0.46015">
        <ele>97.5</ele>
        <time>2024-07-14T06:59:52Z</time>
      </trkpt>
      <trkpt lat="44.76697" lon="0.46016">
        <ele>97.4</ele>
        <time>2024-07-14T06:59:54Z</time>
      </trkpt>
      <trkpt lat="44.76688" lon="0.46017">
        <ele>97.2</ele>
        <time>2024-07-14T06:59:56Z</time>
      </trkpt>
      <trkpt lat="44.7668" lon="0.46018">
        <ele>97</ele>
        <time>2024-07-14T06:59:58Z</time>
      </trkpt>
      <trkpt lat="44.76672" lon="0.46019">
        <ele>96.9</ele>
        <time>2024-07-14T07:00:00Z</time>
      </trkpt>
      <trkpt lat="44.76667" lon="0.46019">
        <ele>96.8</ele>
        <time>2024-07-14T07:00:01Z</time>
      </trkpt>
      <trkpt lat="44.76663" lon="0.46019">
        <ele>96.7</ele>
        <time>2024-07-14T07:00:02Z</time>
      </trkpt>
      <trkpt lat="44.76654" lon="0.46018">
        <ele>96.6</ele>
        <time>2024-07-14T07:00:04Z</time>
      </trkpt>
      <trkpt lat="44.76645" lon="0.46016">
        <ele>96.4</ele>
        <time>2024-07-14T07:00:06Z</time>
      </trkpt>
      <trkpt lat="44.76641" lon="0.46015">
        <ele>96.3</ele>
        <time>2024-07-14T07:00:07Z</time>
      </trkpt>
      <trkpt lat="44.76637" lon="0.46014">
        <ele>96.2</ele>
        <time>2024-07-14T07:00:08Z</time>
      </trkpt>
      <trkpt lat="44.76627" lon="0.46009">
        <ele>96</ele>
        <time>2024-07-14T07:00:10Z</time>
      </trkpt>
      <trkpt lat="44.76617" lon="0.46006">
        <ele>95.9</ele>
        <time>2024-07-14T07:00:12Z</time>
      </trkpt>
      <trkpt lat="44.76608" lon="0.46003">
        <ele>95.8</ele>
        <time>2024-07-14T07:00:14Z</time>
      </trkpt>
      <trkpt lat="44.76599" lon="0.46">
        <ele>95.8</ele>
        <time>2024-07-14T07:00:16Z</time>
      </trkpt>
      <trkpt lat="44.76595" lon="0.45999">
        <ele>95.8</ele>
        <time>2024-07-14T07:00:17Z</time>
      </trkpt>
      <trkpt lat="44.7659" lon="0.45997">
        <ele>95.8</ele>
        <time>2024-07-14T07:00:18Z</time>
      </trkpt>
      <trkpt lat="44.76582" lon="0.45993">
        <ele>95.9</ele>
        <time>2024-07-14T07:00:20Z</time>
      </trkpt>
      <trkpt lat="44.76577" lon="0.45991">
        <ele>95.9</ele>
        <time>2024-07-14T07:00:21Z</time>
      </trkpt>
      <trkpt lat="44.76573" lon="0.45988">
        <ele>95.9</ele>
        <time>2024-07-14T07:00:22Z</time>
      </trkpt>
      <trkpt lat="44.76567" lon="0.45981">
        <ele>95.8</ele>
        <time>2024-07-14T07:00:24Z</time>
      </trkpt>
      <trkpt lat="44.76566" lon="0.45976">
        <ele>95.8</ele>
        <time>2024-07-14T07:00:25Z</time>
      </trkpt>
      <trkpt lat="44.76564" lon="0.45971">
        <ele>95.8</ele>
        <time>2024-07-14T07:00:26Z</time>
      </trkpt>
      <trkpt lat="44.76563" lon="0.45961">
        <ele>95.8</ele>
        <time>2024-07-14T07:00:28Z</time>
      </trkpt>
      <trkpt lat="44.76561" lon="0.4595">
        <ele>96.1</ele>
        <time>2024-07-14T07:00:30Z</time>
      </trkpt>
      <trkpt lat="44.76561" lon="0.45944">
        <ele>96.3</ele>
        <time>2024-07-14T07:00:31Z</time>
      </trkpt>
      <trkpt lat="44.7656" lon="0.45939">
        <ele>96.6</ele>
        <time>2024-07-14T07:00:32Z</time>
      </trkpt>
      <trkpt lat="44.76559" lon="0.4593">
        <ele>97</ele>
        <time>2024-07-14T07:00:34Z</time>
      </trkpt>
      <trkpt lat="44.76558" lon="0.45927">
        <ele>97.2</ele>
        <time>2024-07-14T07:00:35Z</time>
      </trkpt>
      <trkpt lat="44.76558" lon="0.45923">
        <ele>97.4</ele>
        <time>2024-07-14T07:00:36Z</time>
      </trkpt>
      <trkpt lat="44.76556" lon="0.45916">
        <ele>97.9</ele>
        <time>2024-07-14T07:00:38Z</time>
      </trkpt>
      <trkpt lat="44.76553" lon="0.4591">
        <ele>98.3</ele>
        <time>2024-07-14T07:00:40Z</time>
      </trkpt>
      <trkpt lat="44.7655" lon="0.45904">
        <ele>98.7</ele>
        <time>2024-07-14T07:00:42Z</time>
      </trkpt>
      <trkpt lat="44.76546" lon="0.45898">
        <ele>99.2</ele>
        <time>2024-07-14T07:00:44Z</time>
      </trkpt>
      <trkpt lat="44.76543" lon="0.45894">
        <ele>99.5</ele>
        <time>2024-07-14T07:00:46Z</time>
      </trkpt>
      <trkpt lat="44.76539" lon="0.45891">
        <ele>99.9</ele>
        <time>2024-07-14T07:00:48Z</time>
      </trkpt>
      <trkpt lat="44.76536" lon="0.45889">
        <ele>100</ele>
        <time>2024-07-14T07:00:49Z</time>
      </trkpt>
      <trkpt lat="44.76534" lon="0.45888">
        <ele>100.2</ele>
        <time>2024-07-14T07:00:50Z</time>
      </trkpt>
      <trkpt lat="44.7653" lon="0.45885">
        <ele>100.5</ele>
        <time>2024-07-14T07:00:52Z</time>
      </trkpt>
      <trkpt lat="44.76525" lon="0.45882">
        <ele>100.8</ele>
        <time>2024-07-14T07:00:54Z</time>
      </trkpt>
      <trkpt lat="44.76521" lon="0.4588">
        <ele>101.1</ele>
        <time>2024-07-14T07:00:56Z</time>
      </trkpt>
      <trkpt lat="44.76517" lon="0.45877">
        <ele>101.5</ele>
        <time>2024-07-14T07:00:58Z</time>
      </trkpt>
      <trkpt lat="44.76513" lon="0.45874">
        <ele>101.8</ele>
        <time>2024-07-14T07:01:00Z</time>
      </trkpt>
      <trkpt lat="44.76508" lon="0.45872">
        <ele>102.1</ele>
        <time>2024-07-14T07:01:02Z</time>
      </trkpt>
      <trkpt lat="44.76504" lon="0.4587">
        <ele>102.4</ele>
        <time>2024-07-14T07:01:04Z</time>
      </trkpt>
      <trkpt lat="44.765" lon="0.45868">
        <ele>102.7</ele>
        <time>2024-07-14T07:01:06Z</time>
      </trkpt>
      <trkpt lat="44.76498" lon="0.45867">
        <ele>102.8</ele>
        <time>2024-07-14T07:01:07Z</time>
      </trkpt>
      <trkpt lat="44.76496" lon="0.45865">
        <ele>102.9</ele>
        <time>2024-07-14T07:01:08Z</time>
      </trkpt>
      <trkpt lat="44.76491" lon="0.45863">
        <ele>103.2</ele>
        <time>2024-07-14T07:01:10Z</time>
      </trkpt>
      <trkpt lat="44.76487" lon="0.45861">
        <ele>103.5</ele>
        <time>2024-07-14T07:01:12Z</time>
      </trkpt>
      <trkpt lat="44.76483" lon="0.45858">
        <ele>103.7</ele>
        <time>2024-07-14T07:01:14Z</time>
      </trkpt>
      <trkpt lat="44.76481" lon="0.45857">
        <ele>103.9</ele>
        <time>2024-07-14T07:01:15Z</time>
      </trkpt>
      <trkpt lat="44.76479" lon="0.45856">
        <ele>104</ele>
        <time>2024-07-14T07:01:16Z</time>
      </trkpt>
      <trkpt lat="44.76475" lon="0.45854">
        <ele>104.2</ele>
        <time>2024-07-14T07:01:18Z</time>
      </trkpt>
      <trkpt lat="44.76471" lon="0.45851">
        <ele>104.5</ele>
        <time>2024-07-14T07:01:20Z</time>
      </trkpt>
      <trkpt lat="44.76467" lon="0.4585">
        <ele>104.7</ele>
        <time>2024-07-14T07:01:22Z</time>
      </trkpt>
      <trkpt lat="44.76463" lon="0.45847">
        <ele>105</ele>
        <time>2024-07-14T07:01:24Z</time>
      </trkpt>
      <trkpt lat="44.76458" lon="0.45844">
        <ele>105.3</ele>
        <time>2024-07-14T07:01:26Z</time>
      </trkpt>
      <trkpt lat="44.76454" lon="0.45841">
        <ele>105.6</ele>
        <time>2024-07-14T07:01:28Z</time>
      </trkpt>
      <trkpt lat="44.76451" lon="0.45838">
        <ele>105.9</ele>
        <time>2024-07-14T07:01:30Z</time>
      </trkpt>
      <trkpt lat="44.76447" lon="0.45834">
        <ele>106.2</ele>
        <time>2024-07-14T07:01:32Z</time>
      </trkpt>
      <trkpt lat="44.76444" lon="0.4583">
        <ele>106.4</ele>
        <time>2024-07-14T07:01:34Z</time>
      </trkpt>
      <trkpt lat="44.7644" lon="0.45825">
        <ele>106.7</ele>
        <time>2024-07-14T07:01:36Z</time>
      </trkpt>
      <trkpt lat="44.76436" lon="0.45821">
        <ele>107</ele>
        <time>2024-07-14T07:01:38Z</time>
      </trkpt>
      <trkpt lat="44.76433" lon="0.45816">
        <ele>107.3</ele>
        <time>2024-07-14T07:01:40Z</time>
      </trkpt>
      <trkpt lat="44.76431" lon="0.45813">
        <ele>107.4</ele>
        <time>2024-07-14T07:01:41Z</time>
      </trkpt>
      <trkpt lat="44.76429" lon="0.45811">
        <ele>107.6</ele>
        <time>2024-07-14T07:01:42Z</time>
      </trkpt>
      <trkpt lat="44.76426" lon="0.45806">
        <ele>107.8</ele>
        <time>2024-07-14T07:01:44Z</time>
      </trkpt>
      <trkpt lat="44.76423" lon="0.45801">
        <ele>108.1</ele>
        <time>2024-07-14T07:01:46Z</time>
      </trkpt>
      <trkpt lat="44.7642" lon="0.45796">
        <ele>108.3</ele>
        <time>2024-07-14T07:01:48Z</time>
      </trkpt>
      <trkpt lat="44.76417" lon="0.45792">
        <ele>108.5</ele>
        <time>2024-07-14T07:01:50Z</time>
      </trkpt>
      <trkpt lat="44.76415" lon="0.4579">
        <ele>108.7</ele>
        <time>2024-07-14T07:01:51Z</time>
      </trkpt>
      <trkpt lat="44.76413" lon="0.45789">
        <ele>108.8</ele>
        <time>2024-07-14T07:01:52Z</time>
      </trkpt>
      <trkpt lat="44.76411" lon="0.45784">
        <ele>109</ele>
        <time>2024-07-14T07:01:54Z</time>
      </trkpt>
      <trkpt lat="44.76408" lon="0.45778">
        <ele>109.3</ele>
        <time>2024-07-14T07:01:56Z</time>
      </trkpt>
      <trkpt lat="44.76406" lon="0.45776">
        <ele>109.4</ele>
        <time>2024-07-14T07:01:57Z</time>
      </trkpt>
      <trkpt lat="44.76404" lon="0.45773">
        <ele>109.6</ele>
        <time>2024-07-14T07:01:58Z</time>
      </trkpt>
      <trkpt lat="44.76401" lon="0.45768">
        <ele>109.8</ele>
        <time>2024-07-14T07:02:00Z</time>
      </trkpt>
      <trkpt lat="44.76397" lon="0.45763">
        <ele>110.1</ele>
        <time>2024-07-14T07:02:02Z</time>
      </trkpt>
      <trkpt lat="44.76394" lon="0.45759">
        <ele>110.4</ele>
        <time>2024-07-14T07:02:04Z</time>
      </trkpt>
      <trkpt lat="44.76392" lon="0.45756">
        <ele>110.5</ele>
        <time>2024-07-14T07:02:05Z</time>
      </trkpt>
      <trkpt lat="44.76391" lon="0.45754">
        <ele>110.7</ele>
        <time>2024-07-14T07:02:06Z</time>
      </trkpt>
      <trkpt lat="44.76388" lon="0.45749">
        <ele>110.9</ele>
        <time>2024-07-14T07:02:08Z</time>
      </trkpt>
      <trkpt lat="44.76385" lon="0.45745">
        <ele>111.2</ele>
        <time>2024-07-14T07:02:10Z</time>
      </trkpt>
      <trkpt lat="44.76383" lon="0.4574">
        <ele>111.4</ele>
        <time>2024-07-14T07:02:12Z</time>
      </trkpt>
      <trkpt lat="44.76379" lon="0.45735">
        <ele>111.7</ele>
        <time>2024-07-14T07:02:14Z</time>
      </trkpt>
      <trkpt lat="44.76376" lon="0.4573">
        <ele>112</ele>
        <time>2024-07-14T07:02:16Z</time>
      </trkpt>
      <trkpt lat="44.76372" lon="0.45726">
        <ele>112.3</ele>
        <time>2024-07-14T07:02:18Z</time>
      </trkpt>
      <trkpt lat="44.76369" lon="0.45722">
        <ele>112.6</ele>
        <time>2024-07-14T07:02:20Z</time>
      </trkpt>
      <trkpt lat="44.76365" lon="0.45717">
        <ele>112.8</ele>
        <time>2024-07-14T07:02:22Z</time>
      </trkpt>
      <trkpt lat="44.76361" lon="0.45713">
        <ele>113.1</ele>
        <time>2024-07-14T07:02:24Z</time>
      </trkpt>
      <trkpt lat="44.76357" lon="0.4571">
        <ele>113.3</ele>
        <time>2024-07-14T07:02:26Z</time>
      </trkpt>
      <trkpt lat="44.76353" lon="0.45708">
        <ele>113.5</ele>
        <time>2024-07-14T07:02:28Z</time>
      </trkpt>
      <trkpt lat="44.76348" lon="0.45705">
        <ele>113.7</ele>
        <time>2024-07-14T07:02:30Z</time>
      </trkpt>
      <trkpt lat="44.76346" lon="0.45705">
        <ele>113.8</ele>
        <time>2024-07-14T07:02:31Z</time>
      </trkpt>
      <trkpt lat="44.76344" lon="0.45704">
        <ele>113.9</ele>
        <time>2024-07-14T07:02:32Z</time>
      </trkpt>
      <trkpt lat="44.76339" lon="0.45702">
        <ele>114.1</ele>
        <time>2024-07-14T07:02:34Z</time>
      </trkpt>
      <trkpt lat="44.76334" lon="0.45701">
        <ele>114.2</ele>
        <time>2024-07-14T07:02:36Z</time>
      </trkpt>
      <trkpt lat="44.76328" lon="0.45699">
        <ele>114.4</ele>
        <time>2024-07-14T07:02:38Z</time>
      </trkpt>
      <trkpt lat="44.76323" lon="0.45698">
        <ele>114.5</ele>
        <time>2024-07-14T07:02:40Z</time>
      </trkpt>
      <trkpt lat="44.76317" lon="0.45696">
        <ele>114.6</ele>
        <time>2024-07-14T07:02:42Z</time>
      </trkpt>
      <trkpt lat="44.76312" lon="0.45694">
        <ele>114.7</ele>
        <time>2024-07-14T07:02:44Z</time>
      </trkpt>
      <trkpt lat="44.76307" lon="0.45693">
        <ele>114.8</ele>
        <time>2024-07-14T07:02:46Z</time>
      </trkpt>
      <trkpt lat="44.76304" lon="0.45692">
        <ele>114.8</ele>
        <time>2024-07-14T07:02:47Z</time>
      </trkpt>
      <trkpt lat="44.76302" lon="0.45692">
        <ele>114.9</ele>
        <time>2024-07-14T07:02:48Z</time>
      </trkpt>
      <trkpt lat="44.76296" lon="0.45693">
        <ele>115.1</ele>
        <time>2024-07-14T07:02:50Z</time>
      </trkpt>
      <trkpt lat="44.76289" lon="0.45695">
        <ele>115.3</ele>
        <time>2024-07-14T07:02:52Z</time>
      </trkpt>
      <trkpt lat="44.76283" lon="0.45697">
        <ele>115.5</ele>
        <time>2024-07-14T07:02:54Z</time>
      </trkpt>
      <trkpt lat="44.76278" lon="0.457">
        <ele>115.8</ele>
        <time>2024-07-14T07:02:56Z</time>
      </trkpt>
      <trkpt lat="44.76272" lon="0.45701">
        <ele>116</ele>
        <time>2024-07-14T07:02:58Z</time>
      </trkpt>
      <trkpt lat="44.76269" lon="0.45702">
        <ele>116.1</ele>
        <time>2024-07-14T07:02:59Z</time>
      </trkpt>
      <trkpt lat="44.76266" lon="0.45703">
        <ele>116.3</ele>
        <time>2024-07-14T07:03:00Z</time>
      </trkpt>
      <trkpt lat="44.7626" lon="0.45705">
        <ele>116.6</ele>
        <time>2024-07-14T07:03:02Z</time>
      </trkpt>
      <trkpt lat="44.76255" lon="0.45707">
        <ele>116.9</ele>
        <time>2024-07-14T07:03:04Z</time>
      </trkpt>
      <trkpt lat="44.76252" lon="0.45708">
        <ele>117.1</ele>
        <time>2024-07-14T07:03:05Z</time>
      </trkpt>
      <trkpt lat="44.76249" lon="0.45709">
        <ele>117.3</ele>
        <time>2024-07-14T07:03:06Z</time>
      </trkpt>
      <trkpt lat="44.76244" lon="0.45711">
        <ele>117.7</ele>
        <time>2024-07-14T07:03:08Z</time>
      </trkpt>
      <trkpt lat="44.76238" lon="0.45713">
        <ele>118</ele>
        <time>2024-07-14T07:03:10Z</time>
      </trkpt>
      <trkpt lat="44.76232" lon="0.45715">
        <ele>118.4</ele>
        <time>2024-07-14T07:03:12Z</time>
      </trkpt>
      <trkpt lat="44.76227" lon="0.45715">
        <ele>118.7</ele>
        <time>2024-07-14T07:03:14Z</time>
      </trkpt>
      <trkpt lat="44.76221" lon="0.45717">
        <ele>119</ele>
        <time>2024-07-14T07:03:16Z</time>
      </trkpt>
      <trkpt lat="44.76216" lon="0.45718">
        <ele>119.2</ele>
        <time>2024-07-14T07:03:18Z</time>
      </trkpt>
      <trkpt lat="44.7621" lon="0.4572">
        <ele>119.5</ele>
        <time>2024-07-14T07:03:20Z</time>
      </trkpt>
      <trkpt lat="44.76204" lon="0.45722">
        <ele>119.7</ele>
        <time>2024-07-14T07:03:22Z</time>
      </trkpt>
      <trkpt lat="44.76202" lon="0.45723">
        <ele>119.9</ele>
        <time>2024-07-14T07:03:23Z</time>
      </trkpt>
      <trkpt lat="44.76199" lon="0.45724">
        <ele>120</ele>
        <time>2024-07-14T07:03:24Z</time>
      </trkpt>
      <trkpt lat="44.76193" lon="0.45726">
        <ele>120.2</ele>
        <time>2024-07-14T07:03:26Z</time>
      </trkpt>
      <trkpt lat="44.76188" lon="0.45727">
        <ele>120.4</ele>
        <time>2024-07-14T07:03:28Z</time>
      </trkpt>
      <trkpt lat="44.76182" lon="0.45729">
        <ele>120.6</ele>
        <time>2024-07-14T07:03:30Z</time>
      </trkpt>
      <trkpt lat="44.76176" lon="0.45731">
        <ele>120.7</ele>
        <time>2024-07-14T07:03:32Z</time>
      </trkpt>
      <trkpt lat="44.76174" lon="0.45733">
        <ele>120.8</ele>
        <time>2024-07-14T07:03:33Z</time>
      </trkpt>
      <trkpt lat="44.76171" lon="0.45734">
        <ele>120.9</ele>
        <time>2024-07-14T07:03:34Z</time>
      </trkpt>
      <trkpt lat="44.76165" lon="0.45735">
        <ele>121</ele>
        <time>2024-07-14T07:03:36Z</time>
      </trkpt>
      <trkpt lat="44.76159" lon="0.45738">
        <ele>121.1</ele>
        <time>2024-07-14T07:03:38Z</time>
      </trkpt>
      <trkpt lat="44.76153" lon="0.45741">
        <ele>121.2</ele>
        <time>2024-07-14T07:03:40Z</time>
      </trkpt>
      <trkpt lat="44.76148" lon="0.45745">
        <ele>121.3</ele>
        <time>2024-07-14T07:03:42Z</time>
      </trkpt>
      <trkpt lat="44.76143" lon="0.45749">
        <ele>121.3</ele>
        <time>2024-07-14T07:03:44Z</time>
      </trkpt>
      <trkpt lat="44.76137" lon="0.45752">
        <ele>121.4</ele>
        <time>2024-07-14T07:03:46Z</time>
      </trkpt>
      <trkpt lat="44.76131" lon="0.45756">
        <ele>121.5</ele>
        <time>2024-07-14T07:03:48Z</time>
      </trkpt>
      <trkpt lat="44.76129" lon="0.45758">
        <ele>121.5</ele>
        <time>2024-07-14T07:03:49Z</time>
      </trkpt>
      <trkpt lat="44.76126" lon="0.45759">
        <ele>121.5</ele>
        <time>2024-07-14T07:03:50Z</time>
      </trkpt>
      <trkpt lat="44.7612" lon="0.45762">
        <ele>121.6</ele>
        <time>2024-07-14T07:03:52Z</time>
      </trkpt>
      <trkpt lat="44.76115" lon="0.45764">
        <ele>121.6</ele>
        <time>2024-07-14T07:03:54Z</time>
      </trkpt>
      <trkpt lat="44.76109" lon="0.45768">
        <ele>121.7</ele>
        <time>2024-07-14T07:03:56Z</time>
      </trkpt>
      <trkpt lat="44.76105" lon="0.4577">
        <ele>121.7</ele>
        <time>2024-07-14T07:03:58Z</time>
      </trkpt>
      <trkpt lat="44.761" lon="0.45774">
        <ele>121.8</ele>
        <time>2024-07-14T07:04:00Z</time>
      </trkpt>
      <trkpt lat="44.76094" lon="0.45777">
        <ele>121.8</ele>
        <time>2024-07-14T07:04:02Z</time>
      </trkpt>
      <trkpt lat="44.76088" lon="0.4578">
        <ele>121.9</ele>
        <time>2024-07-14T07:04:04Z</time>
      </trkpt>
      <trkpt lat="44.76083" lon="0.45784">
        <ele>121.9</ele>
        <time>2024-07-14T07:04:06Z</time>
      </trkpt>
      <trkpt lat="44.76077" lon="0.45787">
        <ele>121.9</ele>
        <time>2024-07-14T07:04:08Z</time>
      </trkpt>
      <trkpt lat="44.76074" lon="0.45789">
        <ele>121.9</ele>
        <time>2024-07-14T07:04:09Z</time>
      </trkpt>
      <trkpt lat="44.76071" lon="0.45791">
        <ele>121.8</ele>
        <time>2024-07-14T07:04:10Z</time>
      </trkpt>
      <trkpt lat="44.76065" lon="0.45795">
        <ele>121.8</ele>
        <time>2024-07-14T07:04:12Z</time>
      </trkpt>
      <trkpt lat="44.76058" lon="0.458">
        <ele>121.7</ele>
        <time>2024-07-14T07:04:14Z</time>
      </trkpt>
      <trkpt lat="44.76052" lon="0.45804">
        <ele>121.7</ele>
        <time>2024-07-14T07:04:16Z</time>
      </trkpt>
      <trkpt lat="44.76048" lon="0.45805">
        <ele>121.6</ele>
        <time>2024-07-14T07:04:17Z</time>
      </trkpt>
      <trkpt lat="44.76045" lon="0.45807">
        <ele>121.6</ele>
        <time>2024-07-14T07:04:18Z</time>
      </trkpt>
      <trkpt lat="44.76038" lon="0.45812">
        <ele>121.5</ele>
        <time>2024-07-14T07:04:20Z</time>
      </trkpt>
      <trkpt lat="44.76032" lon="0.45816">
        <ele>121.4</ele>
        <time>2024-07-14T07:04:22Z</time>
      </trkpt>
      <trkpt lat="44.76026" lon="0.45817">
        <ele>121.2</ele>
        <time>2024-07-14T07:04:24Z</time>
      </trkpt>
      <trkpt lat="44.7602" lon="0.45809">
        <ele>121</ele>
        <time>2024-07-14T07:04:26Z</time>
      </trkpt>
      <trkpt lat="44.76016" lon="0.458">
        <ele>120.7</ele>
        <time>2024-07-14T07:04:28Z</time>
      </trkpt>
      <trkpt lat="44.76011" lon="0.45789">
        <ele>120.3</ele>
        <time>2024-07-14T07:04:30Z</time>
      </trkpt>
      <trkpt lat="44.76005" lon="0.45778">
        <ele>119.8</ele>
        <time>2024-07-14T07:04:32Z</time>
      </trkpt>
      <trkpt lat="44.75999" lon="0.45768">
        <ele>119.3</ele>
        <time>2024-07-14T07:04:34Z</time>
      </trkpt>
      <trkpt lat="44.75993" lon="0.45764">
        <ele>118.9</ele>
        <time>2024-07-14T07:04:36Z</time>
      </trkpt>
      <trkpt lat="44.75989" lon="0.45764">
        <ele>118.7</ele>
        <time>2024-07-14T07:04:37Z</time>
      </trkpt>
      <trkpt lat="44.75986" lon="0.45766">
        <ele>118.5</ele>
        <time>2024-07-14T07:04:38Z</time>
      </trkpt>
      <trkpt lat="44.75983" lon="0.45769">
        <ele>118.4</ele>
        <time>2024-07-14T07:04:40Z</time>
      </trkpt>
      <trkpt lat="44.75979" lon="0.45772">
        <ele>118.2</ele>
        <time>2024-07-14T07:04:42Z</time>
      </trkpt>
      <trkpt lat="44.75974" lon="0.45776">
        <ele>118</ele>
        <time>2024-07-14T07:04:44Z</time>
      </trkpt>
      <trkpt lat="44.75968" lon="0.4578">
        <ele>117.8</ele>
        <time>2024-07-14T07:04:46Z</time>
      </trkpt>
      <trkpt lat="44.7596" lon="0.45782">
        <ele>117.6</ele>
        <time>2024-07-14T07:04:48Z</time>
      </trkpt>
      <trkpt lat="44.75952" lon="0.45785">
        <ele>117.4</ele>
        <time>2024-07-14T07:04:50Z</time>
      </trkpt>
      <trkpt lat="44.75948" lon="0.45786">
        <ele>117.3</ele>
        <time>2024-07-14T07:04:51Z</time>
      </trkpt>
      <trkpt lat="44.75945" lon="0.45787">
        <ele>117.3</ele>
        <time>2024-07-14T07:04:52Z</time>
      </trkpt>
      <trkpt lat="44.75941" lon="0.45788">
        <ele>117.2</ele>
        <time>2024-07-14T07:04:53Z</time>
      </trkpt>
      <trkpt lat="44.75938" lon="0.45788">
        <ele>117.1</ele>
        <time>2024-07-14T07:04:54Z</time>
      </trkpt>
      <trkpt lat="44.75934" lon="0.45788">
        <ele>117.1</ele>
        <time>2024-07-14T07:04:55Z</time>
      </trkpt>
      <trkpt lat="44.75931" lon="0.45789">
        <ele>117</ele>
        <time>2024-07-14T07:04:56Z</time>
      </trkpt>
      <trkpt lat="44.75924" lon="0.45791">
        <ele>116.9</ele>
        <time>2024-07-14T07:04:58Z</time>
      </trkpt>
      <trkpt lat="44.75917" lon="0.45794">
        <ele>116.8</ele>
        <time>2024-07-14T07:05:00Z</time>
      </trkpt>
      <trkpt lat="44.75909" lon="0.45795">
        <ele>116.7</ele>
        <time>2024-07-14T07:05:02Z</time>
      </trkpt>
      <trkpt lat="44.75902" lon="0.45797">
        <ele>116.6</ele>
        <time>2024-07-14T07:05:04Z</time>
      </trkpt>
      <trkpt lat="44.75898" lon="0.45798">
        <ele>116.5</ele>
        <time>2024-07-14T07:05:05Z</time>
      </trkpt>
      <trkpt lat="44.75895" lon="0.458">
        <ele>116.4</ele>
        <time>2024-07-14T07:05:06Z</time>
      </trkpt>
      <trkpt lat="44.75887" lon="0.45805">
        <ele>116.4</ele>
        <time>2024-07-14T07:05:08Z</time>
      </trkpt>
      <trkpt lat="44.75883" lon="0.45807">
        <ele>116.3</ele>
        <time>2024-07-14T07:05:09Z</time>
      </trkpt>
      <trkpt lat="44.75879" lon="0.45809">
        <ele>116.3</ele>
        <time>2024-07-14T07:05:10Z</time>
      </trkpt>
      <trkpt lat="44.75872" lon="0.45815">
        <ele>116.2</ele>
        <time>2024-07-14T07:05:12Z</time>
      </trkpt>
      <trkpt lat="44.75868" lon="0.45818">
        <ele>116.1</ele>
        <time>2024-07-14T07:05:13Z</time>
      </trkpt>
      <trkpt lat="44.75864" lon="0.45822">
        <ele>116</ele>
        <time>2024-07-14T07:05:14Z</time>
      </trkpt>
      <trkpt lat="44.75856" lon="0.45828">
        <ele>115.7</ele>
        <time>2024-07-14T07:05:16Z</time>
      </trkpt>
      <trkpt lat="44.75851" lon="0.45832">
        <ele>115.4</ele>
        <time>2024-07-14T07:05:17Z</time>
      </trkpt>
      <trkpt lat="44.75846" lon="0.45837">
        <ele>115.2</ele>
        <time>2024-07-14T07:05:18Z</time>
      </trkpt>
      <trkpt lat="44.75838" lon="0.45845">
        <ele>114.7</ele>
        <time>2024-07-14T07:05:20Z</time>
      </trkpt>
      <trkpt lat="44.75835" lon="0.45847">
        <ele>114.6</ele>
        <time>2024-07-14T07:05:21Z</time>
      </trkpt>
      <trkpt lat="44.75832" lon="0.45848">
        <ele>114.4</ele>
        <time>2024-07-14T07:05:22Z</time>
      </trkpt>
      <trkpt lat="44.7583" lon="0.4585">
        <ele>114.3</ele>
        <time>2024-07-14T07:05:24Z</time>
      </trkpt>
      <trkpt lat="44.75823" lon="0.45857">
        <ele>113.9</ele>
        <time>2024-07-14T07:05:29Z</time>
      </trkpt>
      <trkpt lat="44.75821" lon="0.4586">
        <ele>113.8</ele>
        <time>2024-07-14T07:05:30Z</time>
      </trkpt>
      <trkpt lat="44.75819" lon="0.45862">
        <ele>113.6</ele>
        <time>2024-07-14T07:05:31Z</time>
      </trkpt>
      <trkpt lat="44.75817" lon="0.45865">
        <ele>113.5</ele>
        <time>2024-07-14T07:05:32Z</time>
      </trkpt>
      <trkpt lat="44.75813" lon="0.4587">
        <ele>113.2</ele>
        <time>2024-07-14T07:05:34Z</time>
      </trkpt>
      <trkpt lat="44.75809" lon="0.45877">
        <ele>112.7</ele>
        <time>2024-07-14T07:05:36Z</time>
      </trkpt>
      <trkpt lat="44.75802" lon="0.45883">
        <ele>112.2</ele>
        <time>2024-07-14T07:05:38Z</time>
      </trkpt>
      <trkpt lat="44.75796" lon="0.45888">
        <ele>111.5</ele>
        <time>2024-07-14T07:05:40Z</time>
      </trkpt>
      <trkpt lat="44.75789" lon="0.45894">
        <ele>110.7</ele>
        <time>2024-07-14T07:05:42Z</time>
      </trkpt>
      <trkpt lat="44.75784" lon="0.45896">
        <ele>109.9</ele>
        <time>2024-07-14T07:05:44Z</time>
      </trkpt>
      <trkpt lat="44.75778" lon="0.45894">
        <ele>109</ele>
        <time>2024-07-14T07:05:46Z</time>
      </trkpt>
      <trkpt lat="44.75774" lon="0.45892">
        <ele>108.5</ele>
        <time>2024-07-14T07:05:47Z</time>
      </trkpt>
      <trkpt lat="44.7577" lon="0.45888">
        <ele>107.9</ele>
        <time>2024-07-14T07:05:48Z</time>
      </trkpt>
      <trkpt lat="44.75767" lon="0.45884">
        <ele>107.3</ele>
        <time>2024-07-14T07:05:49Z</time>
      </trkpt>
      <trkpt lat="44.75763" lon="0.45878">
        <ele>106.7</ele>
        <time>2024-07-14T07:05:50Z</time>
      </trkpt>
      <trkpt lat="44.7576" lon="0.45871">
        <ele>106.1</ele>
        <time>2024-07-14T07:05:51Z</time>
      </trkpt>
      <trkpt lat="44.75757" lon="0.45865">
        <ele>105.4</ele>
        <time>2024-07-14T07:05:52Z</time>
      </trkpt>
      <trkpt lat="44.75752" lon="0.45859">
        <ele>104.7</ele>
        <time>2024-07-14T07:05:53Z</time>
      </trkpt>
      <trkpt lat="44.75747" lon="0.45854">
        <ele>103.8</ele>
        <time>2024-07-14T07:05:54Z</time>
      </trkpt>
      <trkpt lat="44.75741" lon="0.45848">
        <ele>102.9</ele>
        <time>2024-07-14T07:05:55Z</time>
      </trkpt>
      <trkpt lat="44.75735" lon="0.45842">
        <ele>101.9</ele>
        <time>2024-07-14T07:05:56Z</time>
      </trkpt>
      <trkpt lat="44.75722" lon="0.45828">
        <ele>100.1</ele>
        <time>2024-07-14T07:05:58Z</time>
      </trkpt>
      <trkpt lat="44.75715" lon="0.4582">
        <ele>99.5</ele>
        <time>2024-07-14T07:05:59Z</time>
      </trkpt>
      <trkpt lat="44.75709" lon="0.45813">
        <ele>99</ele>
        <time>2024-07-14T07:06:00Z</time>
      </trkpt>
      <trkpt lat="44.75699" lon="0.45802">
        <ele>98.5</ele>
        <time>2024-07-14T07:06:02Z</time>
      </trkpt>
      <trkpt lat="44.75694" lon="0.45796">
        <ele>98.3</ele>
        <time>2024-07-14T07:06:04Z</time>
      </trkpt>
      <trkpt lat="44.75693" lon="0.45795">
        <ele>98.3</ele>
        <time>2024-07-14T07:06:05Z</time>
      </trkpt>
      <trkpt lat="44.75693" lon="0.45793">
        <ele>98.3</ele>
        <time>2024-07-14T07:06:06Z</time>
      </trkpt>
      <trkpt lat="44.75692" lon="0.4579">
        <ele>98.2</ele>
        <time>2024-07-14T07:06:07Z</time>
      </trkpt>
      <trkpt lat="44.75691" lon="0.45789">
        <ele>98.2</ele>
        <time>2024-07-14T07:06:08Z</time>
      </trkpt>
      <trkpt lat="44.75688" lon="0.45785">
        <ele>98.2</ele>
        <time>2024-07-14T07:06:10Z</time>
      </trkpt>
      <trkpt lat="44.75686" lon="0.45781">
        <ele>98.1</ele>
        <time>2024-07-14T07:06:12Z</time>
      </trkpt>
      <trkpt lat="44.75686" lon="0.45781">
        <ele>98.1</ele>
        <time>2024-07-14T07:06:13Z</time>
      </trkpt>
      <trkpt lat="44.75674" lon="0.45771">
        <ele>98.2</ele>
        <time>2024-07-14T07:06:35Z</time>
      </trkpt>
      <trkpt lat="44.75672" lon="0.4577">
        <ele>98.2</ele>
        <time>2024-07-14T07:06:36Z</time>
      </trkpt>
      <trkpt lat="44.75667" lon="0.45767">
        <ele>98.3</ele>
        <time>2024-07-14T07:06:38Z</time>
      </trkpt>
      <trkpt lat="44.75661" lon="0.45764">
        <ele>98.4</ele>
        <time>2024-07-14T07:06:40Z</time>
      </trkpt>
      <trkpt lat="44.75655" lon="0.4576">
        <ele>98.5</ele>
        <time>2024-07-14T07:06:42Z</time>
      </trkpt>
      <trkpt lat="44.7565" lon="0.45757">
        <ele>98.7</ele>
        <time>2024-07-14T07:06:44Z</time>
      </trkpt>
      <trkpt lat="44.75645" lon="0.45753">
        <ele>98.9</ele>
        <time>2024-07-14T07:06:46Z</time>
      </trkpt>
      <trkpt lat="44.75642" lon="0.45751">
        <ele>99</ele>
        <time>2024-07-14T07:06:47Z</time>
      </trkpt>
      <trkpt lat="44.75639" lon="0.45749">
        <ele>99.2</ele>
        <time>2024-07-14T07:06:48Z</time>
      </trkpt>
      <trkpt lat="44.75634" lon="0.45745">
        <ele>99.5</ele>
        <time>2024-07-14T07:06:50Z</time>
      </trkpt>
      <trkpt lat="44.75628" lon="0.45742">
        <ele>99.8</ele>
        <time>2024-07-14T07:06:52Z</time>
      </trkpt>
      <trkpt lat="44.75626" lon="0.4574">
        <ele>100</ele>
        <time>2024-07-14T07:06:53Z</time>
      </trkpt>
      <trkpt lat="44.75623" lon="0.45738">
        <ele>100.2</ele>
        <time>2024-07-14T07:06:54Z</time>
      </trkpt>
      <trkpt lat="44.75618" lon="0.45734">
        <ele>100.6</ele>
        <time>2024-07-14T07:06:56Z</time>
      </trkpt>
      <trkpt lat="44.75613" lon="0.45731">
        <ele>100.9</ele>
        <time>2024-07-14T07:06:58Z</time>
      </trkpt>
      <trkpt lat="44.75607" lon="0.45727">
        <ele>101.2</ele>
        <time>2024-07-14T07:07:00Z</time>
      </trkpt>
      <trkpt lat="44.75605" lon="0.45725">
        <ele>101.3</ele>
        <time>2024-07-14T07:07:01Z</time>
      </trkpt>
      <trkpt lat="44.75603" lon="0.45722">
        <ele>101.5</ele>
        <time>2024-07-14T07:07:02Z</time>
      </trkpt>
      <trkpt lat="44.75598" lon="0.45719">
        <ele>101.7</ele>
        <time>2024-07-14T07:07:04Z</time>
      </trkpt>
      <trkpt lat="44.75593" lon="0.45716">
        <ele>101.9</ele>
        <time>2024-07-14T07:07:06Z</time>
      </trkpt>
      <trkpt lat="44.75588" lon="0.45713">
        <ele>102.1</ele>
        <time>2024-07-14T07:07:08Z</time>
      </trkpt>
      <trkpt lat="44.75582" lon="0.45709">
        <ele>102.3</ele>
        <time>2024-07-14T07:07:10Z</time>
      </trkpt>
      <trkpt lat="44.75577" lon="0.45705">
        <ele>102.5</ele>
        <time>2024-07-14T07:07:12Z</time>
      </trkpt>
      <trkpt lat="44.75572" lon="0.45701">
        <ele>102.7</ele>
        <time>2024-07-14T07:07:14Z</time>
      </trkpt>
      <trkpt lat="44.7557" lon="0.45699">
        <ele>102.9</ele>
        <time>2024-07-14T07:07:15Z</time>
      </trkpt>
      <trkpt lat="44.75567" lon="0.45697">
        <ele>103</ele>
        <time>2024-07-14T07:07:16Z</time>
      </trkpt>
      <trkpt lat="44.75562" lon="0.45693">
        <ele>103.2</ele>
        <time>2024-07-14T07:07:18Z</time>
      </trkpt>
      <trkpt lat="44.75557" lon="0.4569">
        <ele>103.4</ele>
        <time>2024-07-14T07:07:20Z</time>
      </trkpt>
      <trkpt lat="44.75552" lon="0.45686">
        <ele>103.6</ele>
        <time>2024-07-14T07:07:22Z</time>
      </trkpt>
      <trkpt lat="44.75546" lon="0.45683">
        <ele>103.9</ele>
        <time>2024-07-14T07:07:24Z</time>
      </trkpt>
      <trkpt lat="44.75543" lon="0.45681">
        <ele>104.1</ele>
        <time>2024-07-14T07:07:25Z</time>
      </trkpt>
      <trkpt lat="44.75541" lon="0.4568">
        <ele>104.2</ele>
        <time>2024-07-14T07:07:26Z</time>
      </trkpt>
      <trkpt lat="44.75535" lon="0.45677">
        <ele>104.5</ele>
        <time>2024-07-14T07:07:28Z</time>
      </trkpt>
      <trkpt lat="44.7553" lon="0.45674">
        <ele>105</ele>
        <time>2024-07-14T07:07:30Z</time>
      </trkpt>
      <trkpt lat="44.75524" lon="0.45672">
        <ele>105.4</ele>
        <time>2024-07-14T07:07:32Z</time>
      </trkpt>
      <trkpt lat="44.7552" lon="0.4567">
        <ele>105.7</ele>
        <time>2024-07-14T07:07:34Z</time>
      </trkpt>
      <trkpt lat="44.75514" lon="0.45668">
        <ele>106.2</ele>
        <time>2024-07-14T07:07:36Z</time>
      </trkpt>
      <trkpt lat="44.7551" lon="0.45666">
        <ele>106.5</ele>
        <time>2024-07-14T07:07:38Z</time>
      </trkpt>
      <trkpt lat="44.75505" lon="0.45665">
        <ele>106.9</ele>
        <time>2024-07-14T07:07:40Z</time>
      </trkpt>
      <trkpt lat="44.75501" lon="0.45665">
        <ele>107.2</ele>
        <time>2024-07-14T07:07:42Z</time>
      </trkpt>
      <trkpt lat="44.75496" lon="0.45664">
        <ele>107.5</ele>
        <time>2024-07-14T07:07:44Z</time>
      </trkpt>
      <trkpt lat="44.75494" lon="0.45663">
        <ele>107.7</ele>
        <time>2024-07-14T07:07:45Z</time>
      </trkpt>
      <trkpt lat="44.75492" lon="0.45663">
        <ele>107.9</ele>
        <time>2024-07-14T07:07:46Z</time>
      </trkpt>
      <trkpt lat="44.75488" lon="0.45659">
        <ele>108.1</ele>
        <time>2024-07-14T07:07:48Z</time>
      </trkpt>
      <trkpt lat="44.75484" lon="0.45655">
        <ele>108.3</ele>
        <time>2024-07-14T07:07:50Z</time>
      </trkpt>
      <trkpt lat="44.7548" lon="0.45652">
        <ele>108.5</ele>
        <time>2024-07-14T07:07:52Z</time>
      </trkpt>
      <trkpt lat="44.75478" lon="0.45648">
        <ele>108.6</ele>
        <time>2024-07-14T07:07:54Z</time>
      </trkpt>
      <trkpt lat="44.75476" lon="0.45645">
        <ele>108.7</ele>
        <time>2024-07-14T07:07:55Z</time>
      </trkpt>
      <trkpt lat="44.75474" lon="0.45642">
        <ele>108.9</ele>
        <time>2024-07-14T07:07:56Z</time>
      </trkpt>
      <trkpt lat="44.75469" lon="0.45637">
        <ele>109.1</ele>
        <time>2024-07-14T07:07:58Z</time>
      </trkpt>
      <trkpt lat="44.75464" lon="0.45635">
        <ele>109.3</ele>
        <time>2024-07-14T07:08:00Z</time>
      </trkpt>
      <trkpt lat="44.75461" lon="0.45634">
        <ele>109.4</ele>
        <time>2024-07-14T07:08:01Z</time>
      </trkpt>
      <trkpt lat="44.75459" lon="0.45633">
        <ele>109.4</ele>
        <time>2024-07-14T07:08:02Z</time>
      </trkpt>
      <trkpt lat="44.75454" lon="0.4563">
        <ele>109.5</ele>
        <time>2024-07-14T07:08:04Z</time>
      </trkpt>
      <trkpt lat="44.75449" lon="0.45627">
        <ele>109.6</ele>
        <time>2024-07-14T07:08:06Z</time>
      </trkpt>
      <trkpt lat="44.75446" lon="0.45626">
        <ele>109.7</ele>
        <time>2024-07-14T07:08:07Z</time>
      </trkpt>
      <trkpt lat="44.75444" lon="0.45625">
        <ele>109.7</ele>
        <time>2024-07-14T07:08:08Z</time>
      </trkpt>
      <trkpt lat="44.75438" lon="0.45622">
        <ele>109.8</ele>
        <time>2024-07-14T07:08:10Z</time>
      </trkpt>
      <trkpt lat="44.75432" lon="0.45618">
        <ele>109.9</ele>
        <time>2024-07-14T07:08:12Z</time>
      </trkpt>
      <trkpt lat="44.75426" lon="0.45615">
        <ele>109.9</ele>
        <time>2024-07-14T07:08:14Z</time>
      </trkpt>
      <trkpt lat="44.7542" lon="0.45612">
        <ele>109.8</ele>
        <time>2024-07-14T07:08:16Z</time>
      </trkpt>
      <trkpt lat="44.75417" lon="0.4561">
        <ele>109.8</ele>
        <time>2024-07-14T07:08:17Z</time>
      </trkpt>
      <trkpt lat="44.75413" lon="0.45608">
        <ele>109.7</ele>
        <time>2024-07-14T07:08:18Z</time>
      </trkpt>
      <trkpt lat="44.75407" lon="0.45605">
        <ele>109.7</ele>
        <time>2024-07-14T07:08:20Z</time>
      </trkpt>
      <trkpt lat="44.754" lon="0.45601">
        <ele>109.6</ele>
        <time>2024-07-14T07:08:22Z</time>
      </trkpt>
      <trkpt lat="44.75393" lon="0.45597">
        <ele>109.5</ele>
        <time>2024-07-14T07:08:24Z</time>
      </trkpt>
      <trkpt lat="44.75389" lon="0.45594">
        <ele>109.4</ele>
        <time>2024-07-14T07:08:25Z</time>
      </trkpt>
      <trkpt lat="44.75386" lon="0.45591">
        <ele>109.3</ele>
        <time>2024-07-14T07:08:26Z</time>
      </trkpt>
      <trkpt lat="44.7538" lon="0.45583">
        <ele>109.3</ele>
        <time>2024-07-14T07:08:28Z</time>
      </trkpt>
      <trkpt lat="44.75377" lon="0.45578">
        <ele>109.3</ele>
        <time>2024-07-14T07:08:29Z</time>
      </trkpt>
      <trkpt lat="44.75375" lon="0.45573">
        <ele>109.3</ele>
        <time>2024-07-14T07:08:30Z</time>
      </trkpt>
      <trkpt lat="44.7537" lon="0.45565">
        <ele>109.4</ele>
        <time>2024-07-14T07:08:32Z</time>
      </trkpt>
      <trkpt lat="44.75366" lon="0.45557">
        <ele>109.5</ele>
        <time>2024-07-14T07:08:34Z</time>
      </trkpt>
      <trkpt lat="44.75361" lon="0.45551">
        <ele>109.8</ele>
        <time>2024-07-14T07:08:36Z</time>
      </trkpt>
      <trkpt lat="44.75355" lon="0.45546">
        <ele>110.2</ele>
        <time>2024-07-14T07:08:38Z</time>
      </trkpt>
      <trkpt lat="44.75353" lon="0.45545">
        <ele>110.4</ele>
        <time>2024-07-14T07:08:39Z</time>
      </trkpt>
      <trkpt lat="44.7535" lon="0.45544">
        <ele>110.5</ele>
        <time>2024-07-14T07:08:40Z</time>
      </trkpt>
      <trkpt lat="44.75346" lon="0.45543">
        <ele>110.9</ele>
        <time>2024-07-14T07:08:42Z</time>
      </trkpt>
      <trkpt lat="44.75342" lon="0.45542">
        <ele>111.2</ele>
        <time>2024-07-14T07:08:44Z</time>
      </trkpt>
      <trkpt lat="44.75341" lon="0.45542">
        <ele>111.3</ele>
        <time>2024-07-14T07:08:45Z</time>
      </trkpt>
      <trkpt lat="44.75339" lon="0.45542">
        <ele>111.5</ele>
        <time>2024-07-14T07:08:46Z</time>
      </trkpt>
      <trkpt lat="44.75334" lon="0.45541">
        <ele>111.9</ele>
        <time>2024-07-14T07:08:48Z</time>
      </trkpt>
      <trkpt lat="44.7533" lon="0.45539">
        <ele>112.4</ele>
        <time>2024-07-14T07:08:50Z</time>
      </trkpt>
      <trkpt lat="44.75326" lon="0.45536">
        <ele>112.7</ele>
        <time>2024-07-14T07:08:52Z</time>
      </trkpt>
      <trkpt lat="44.75322" lon="0.45533">
        <ele>113.1</ele>
        <time>2024-07-14T07:08:54Z</time>
      </trkpt>
      <trkpt lat="44.75319" lon="0.45531">
        <ele>113.5</ele>
        <time>2024-07-14T07:08:56Z</time>
      </trkpt>
      <trkpt lat="44.75318" lon="0.4553">
        <ele>113.6</ele>
        <time>2024-07-14T07:08:57Z</time>
      </trkpt>
      <trkpt lat="44.75316" lon="0.45529">
        <ele>113.8</ele>
        <time>2024-07-14T07:08:58Z</time>
      </trkpt>
      <trkpt lat="44.75313" lon="0.45527">
        <ele>114.1</ele>
        <time>2024-07-14T07:09:00Z</time>
      </trkpt>
      <trkpt lat="44.7531" lon="0.45524">
        <ele>114.4</ele>
        <time>2024-07-14T07:09:02Z</time>
      </trkpt>
      <trkpt lat="44.75309" lon="0.45522">
        <ele>114.5</ele>
        <time>2024-07-14T07:09:03Z</time>
      </trkpt>
      <trkpt lat="44.75307" lon="0.4552">
        <ele>114.7</ele>
        <time>2024-07-14T07:09:04Z</time>
      </trkpt>
      <trkpt lat="44.75303" lon="0.45517">
        <ele>115</ele>
        <time>2024-07-14T07:09:06Z</time>
      </trkpt>
      <trkpt lat="44.75299" lon="0.45513">
        <ele>115.3</ele>
        <time>2024-07-14T07:09:08Z</time>
      </trkpt>
      <trkpt lat="44.75295" lon="0.45509">
        <ele>115.6</ele>
        <time>2024-07-14T07:09:10Z</time>
      </trkpt>
      <trkpt lat="44.75293" lon="0.45508">
        <ele>115.7</ele>
        <time>2024-07-14T07:09:11Z</time>
      </trkpt>
      <trkpt lat="44.75291" lon="0.45507">
        <ele>115.9</ele>
        <time>2024-07-14T07:09:12Z</time>
      </trkpt>
      <trkpt lat="44.75287" lon="0.45505">
        <ele>116.1</ele>
        <time>2024-07-14T07:09:14Z</time>
      </trkpt>
      <trkpt lat="44.75283" lon="0.45502">
        <ele>116.4</ele>
        <time>2024-07-14T07:09:16Z</time>
      </trkpt>
      <trkpt lat="44.75279" lon="0.455">
        <ele>116.6</ele>
        <time>2024-07-14T07:09:18Z</time>
      </trkpt>
      <trkpt lat="44.75277" lon="0.45499">
        <ele>116.7</ele>
        <time>2024-07-14T07:09:19Z</time>
      </trkpt>
      <trkpt lat="44.75274" lon="0.45498">
        <ele>116.8</ele>
        <time>2024-07-14T07:09:20Z</time>
      </trkpt>
      <trkpt lat="44.7527" lon="0.45495">
        <ele>117</ele>
        <time>2024-07-14T07:09:22Z</time>
      </trkpt>
      <trkpt lat="44.75265" lon="0.45491">
        <ele>117.2</ele>
        <time>2024-07-14T07:09:24Z</time>
      </trkpt>
      <trkpt lat="44.75263" lon="0.4549">
        <ele>117.2</ele>
        <time>2024-07-14T07:09:25Z</time>
      </trkpt>
      <trkpt lat="44.75261" lon="0.45489">
        <ele>117.3</ele>
        <time>2024-07-14T07:09:26Z</time>
      </trkpt>
      <trkpt lat="44.75257" lon="0.45487">
        <ele>117.4</ele>
        <time>2024-07-14T07:09:28Z</time>
      </trkpt>
      <trkpt lat="44.75253" lon="0.45486">
        <ele>117.5</ele>
        <time>2024-07-14T07:09:30Z</time>
      </trkpt>
      <trkpt lat="44.75251" lon="0.45484">
        <ele>117.5</ele>
        <time>2024-07-14T07:09:31Z</time>
      </trkpt>
      <trkpt lat="44.75249" lon="0.45483">
        <ele>117.5</ele>
        <time>2024-07-14T07:09:32Z</time>
      </trkpt>
      <trkpt lat="44.75244" lon="0.45481">
        <ele>117.6</ele>
        <time>2024-07-14T07:09:34Z</time>
      </trkpt>
      <trkpt lat="44.75239" lon="0.45477">
        <ele>117.6</ele>
        <time>2024-07-14T07:09:36Z</time>
      </trkpt>
      <trkpt lat="44.75234" lon="0.45474">
        <ele>117.7</ele>
        <time>2024-07-14T07:09:38Z</time>
      </trkpt>
      <trkpt lat="44.75228" lon="0.45471">
        <ele>117.7</ele>
        <time>2024-07-14T07:09:40Z</time>
      </trkpt>
      <trkpt lat="44.75223" lon="0.45469">
        <ele>117.8</ele>
        <time>2024-07-14T07:09:42Z</time>
      </trkpt>
      <trkpt lat="44.75217" lon="0.45466">
        <ele>117.8</ele>
        <time>2024-07-14T07:09:44Z</time>
      </trkpt>
      <trkpt lat="44.75212" lon="0.45464">
        <ele>117.8</ele>
        <time>2024-07-14T07:09:46Z</time>
      </trkpt>
      <trkpt lat="44.75206" lon="0.45462">
        <ele>117.9</ele>
        <time>2024-07-14T07:09:48Z</time>
      </trkpt>
      <trkpt lat="44.75201" lon="0.45459">
        <ele>117.9</ele>
        <time>2024-07-14T07:09:50Z</time>
      </trkpt>
      <trkpt lat="44.75195" lon="0.45457">
        <ele>117.9</ele>
        <time>2024-07-14T07:09:52Z</time>
      </trkpt>
      <trkpt lat="44.75189" lon="0.45455">
        <ele>117.9</ele>
        <time>2024-07-14T07:09:54Z</time>
      </trkpt>
      <trkpt lat="44.75183" lon="0.45453">
        <ele>117.8</ele>
        <time>2024-07-14T07:09:56Z</time>
      </trkpt>
      <trkpt lat="44.75176" lon="0.4545">
        <ele>117.8</ele>
        <time>2024-07-14T07:09:58Z</time>
      </trkpt>
      <trkpt lat="44.7517" lon="0.45448">
        <ele>117.8</ele>
        <time>2024-07-14T07:10:00Z</time>
      </trkpt>
      <trkpt lat="44.75166" lon="0.45447">
        <ele>117.8</ele>
        <time>2024-07-14T07:10:01Z</time>
      </trkpt>
      <trkpt lat="44.75163" lon="0.45446">
        <ele>117.8</ele>
        <time>2024-07-14T07:10:02Z</time>
      </trkpt>
      <trkpt lat="44.75158" lon="0.45445">
        <ele>117.9</ele>
        <time>2024-07-14T07:10:04Z</time>
      </trkpt>
      <trkpt lat="44.75153" lon="0.45443">
        <ele>117.9</ele>
        <time>2024-07-14T07:10:06Z</time>
      </trkpt>
      <trkpt lat="44.75148" lon="0.4544">
        <ele>117.9</ele>
        <time>2024-07-14T07:10:08Z</time>
      </trkpt>
      <trkpt lat="44.75142" lon="0.45439">
        <ele>118</ele>
        <time>2024-07-14T07:10:10Z</time>
      </trkpt>
      <trkpt lat="44.7514" lon="0.45439">
        <ele>118</ele>
        <time>2024-07-14T07:10:11Z</time>
      </trkpt>
      <trkpt lat="44.75136" lon="0.45438">
        <ele>118</ele>
        <time>2024-07-14T07:10:12Z</time>
      </trkpt>
      <trkpt lat="44.7513" lon="0.45438">
        <ele>118</ele>
        <time>2024-07-14T07:10:14Z</time>
      </trkpt>
      <trkpt lat="44.75123" lon="0.45439">
        <ele>118</ele>
        <time>2024-07-14T07:10:16Z</time>
      </trkpt>
      <trkpt lat="44.75117" lon="0.45438">
        <ele>118</ele>
        <time>2024-07-14T07:10:18Z</time>
      </trkpt>
      <trkpt lat="44.75111" lon="0.45438">
        <ele>118</ele>
        <time>2024-07-14T07:10:20Z</time>
      </trkpt>
      <trkpt lat="44.75105" lon="0.45436">
        <ele>117.9</ele>
        <time>2024-07-14T07:10:22Z</time>
      </trkpt>
      <trkpt lat="44.75101" lon="0.45435">
        <ele>117.9</ele>
        <time>2024-07-14T07:10:24Z</time>
      </trkpt>
      <trkpt lat="44.75098" lon="0.45431">
        <ele>117.8</ele>
        <time>2024-07-14T07:10:26Z</time>
      </trkpt>
      <trkpt lat="44.75096" lon="0.45431">
        <ele>117.8</ele>
        <time>2024-07-14T07:10:27Z</time>
      </trkpt>
      <trkpt lat="44.75094" lon="0.4543">
        <ele>117.8</ele>
        <time>2024-07-14T07:10:28Z</time>
      </trkpt>
      <trkpt lat="44.75091" lon="0.45428">
        <ele>117.8</ele>
        <time>2024-07-14T07:10:30Z</time>
      </trkpt>
      <trkpt lat="44.7509" lon="0.45426">
        <ele>117.8</ele>
        <time>2024-07-14T07:10:31Z</time>
      </trkpt>
      <trkpt lat="44.75089" lon="0.45425">
        <ele>117.7</ele>
        <time>2024-07-14T07:10:32Z</time>
      </trkpt>
      <trkpt lat="44.75085" lon="0.45422">
        <ele>117.7</ele>
        <time>2024-07-14T07:10:34Z</time>
      </trkpt>
      <trkpt lat="44.75082" lon="0.45419">
        <ele>117.7</ele>
        <time>2024-07-14T07:10:36Z</time>
      </trkpt>
      <trkpt lat="44.75077" lon="0.45417">
        <ele>117.7</ele>
        <time>2024-07-14T07:10:38Z</time>
      </trkpt>
      <trkpt lat="44.75073" lon="0.45414">
        <ele>117.7</ele>
        <time>2024-07-14T07:10:40Z</time>
      </trkpt>
      <trkpt lat="44.75067" lon="0.45411">
        <ele>117.7</ele>
        <time>2024-07-14T07:10:42Z</time>
      </trkpt>
      <trkpt lat="44.7506" lon="0.4541">
        <ele>117.9</ele>
        <time>2024-07-14T07:10:44Z</time>
      </trkpt>
      <trkpt lat="44.75054" lon="0.45411">
        <ele>118</ele>
        <time>2024-07-14T07:10:46Z</time>
      </trkpt>
      <trkpt lat="44.75049" lon="0.45412">
        <ele>118.1</ele>
        <time>2024-07-14T07:10:48Z</time>
      </trkpt>
      <trkpt lat="44.75044" lon="0.45412">
        <ele>118.2</ele>
        <time>2024-07-14T07:10:50Z</time>
      </trkpt>
      <trkpt lat="44.75038" lon="0.45413">
        <ele>118.3</ele>
        <time>2024-07-14T07:10:52Z</time>
      </trkpt>
      <trkpt lat="44.75036" lon="0.45414">
        <ele>118.4</ele>
        <time>2024-07-14T07:10:53Z</time>
      </trkpt>
      <trkpt lat="44.75033" lon="0.45415">
        <ele>118.4</ele>
        <time>2024-07-14T07:10:54Z</time>
      </trkpt>
      <trkpt lat="44.75028" lon="0.45415">
        <ele>118.5</ele>
        <time>2024-07-14T07:10:56Z</time>
      </trkpt>
      <trkpt lat="44.75023" lon="0.45417">
        <ele>118.6</ele>
        <time>2024-07-14T07:10:58Z</time>
      </trkpt>
      <trkpt lat="44.75018" lon="0.45418">
        <ele>118.7</ele>
        <time>2024-07-14T07:11:00Z</time>
      </trkpt>
      <trkpt lat="44.75012" lon="0.45419">
        <ele>118.9</ele>
        <time>2024-07-14T07:11:02Z</time>
      </trkpt>
      <trkpt lat="44.75007" lon="0.4542">
        <ele>119</ele>
        <time>2024-07-14T07:11:04Z</time>
      </trkpt>
      <trkpt lat="44.75002" lon="0.45421">
        <ele>119.2</ele>
        <time>2024-07-14T07:11:06Z</time>
      </trkpt>
      <trkpt lat="44.74999" lon="0.45422">
        <ele>119.2</ele>
        <time>2024-07-14T07:11:07Z</time>
      </trkpt>
      <trkpt lat="44.74997" lon="0.45423">
        <ele>119.3</ele>
        <time>2024-07-14T07:11:08Z</time>
      </trkpt>
      <trkpt lat="44.74992" lon="0.45425">
        <ele>119.4</ele>
        <time>2024-07-14T07:11:10Z</time>
      </trkpt>
      <trkpt lat="44.74987" lon="0.45427">
        <ele>119.6</ele>
        <time>2024-07-14T07:11:12Z</time>
      </trkpt>
      <trkpt lat="44.74983" lon="0.45428">
        <ele>119.7</ele>
        <time>2024-07-14T07:11:14Z</time>
      </trkpt>
      <trkpt lat="44.7498" lon="0.45429">
        <ele>119.8</ele>
        <time>2024-07-14T07:11:15Z</time>
      </trkpt>
      <trkpt lat="44.74978" lon="0.4543">
        <ele>119.9</ele>
        <time>2024-07-14T07:11:16Z</time>
      </trkpt>
      <trkpt lat="44.74973" lon="0.45432">
        <ele>120</ele>
        <time>2024-07-14T07:11:18Z</time>
      </trkpt>
      <trkpt lat="44.74968" lon="0.45434">
        <ele>120.2</ele>
        <time>2024-07-14T07:11:20Z</time>
      </trkpt>
      <trkpt lat="44.74963" lon="0.45436">
        <ele>120.3</ele>
        <time>2024-07-14T07:11:22Z</time>
      </trkpt>
      <trkpt lat="44.74959" lon="0.45437">
        <ele>120.5</ele>
        <time>2024-07-14T07:11:24Z</time>
      </trkpt>
      <trkpt lat="44.74954" lon="0.45438">
        <ele>120.6</ele>
        <time>2024-07-14T07:11:26Z</time>
      </trkpt>
      <trkpt lat="44.74948" lon="0.45438">
        <ele>120.8</ele>
        <time>2024-07-14T07:11:28Z</time>
      </trkpt>
      <trkpt lat="44.74943" lon="0.45437">
        <ele>120.9</ele>
        <time>2024-07-14T07:11:30Z</time>
      </trkpt>
      <trkpt lat="44.74941" lon="0.45437">
        <ele>120.9</ele>
        <time>2024-07-14T07:11:31Z</time>
      </trkpt>
      <trkpt lat="44.74939" lon="0.45437">
        <ele>121</ele>
        <time>2024-07-14T07:11:32Z</time>
      </trkpt>
      <trkpt lat="44.74934" lon="0.45435">
        <ele>121.1</ele>
        <time>2024-07-14T07:11:34Z</time>
      </trkpt>
      <trkpt lat="44.74929" lon="0.45434">
        <ele>121.2</ele>
        <time>2024-07-14T07:11:36Z</time>
      </trkpt>
      <trkpt lat="44.74924" lon="0.45432">
        <ele>121.3</ele>
        <time>2024-07-14T07:11:38Z</time>
      </trkpt>
      <trkpt lat="44.74919" lon="0.45431">
        <ele>121.4</ele>
        <time>2024-07-14T07:11:40Z</time>
      </trkpt>
      <trkpt lat="44.74914" lon="0.45429">
        <ele>121.6</ele>
        <time>2024-07-14T07:11:42Z</time>
      </trkpt>
      <trkpt lat="44.74909" lon="0.45428">
        <ele>121.7</ele>
        <time>2024-07-14T07:11:44Z</time>
      </trkpt>
      <trkpt lat="44.74904" lon="0.45426">
        <ele>121.9</ele>
        <time>2024-07-14T07:11:46Z</time>
      </trkpt>
      <trkpt lat="44.74899" lon="0.45425">
        <ele>122</ele>
        <time>2024-07-14T07:11:48Z</time>
      </trkpt>
      <trkpt lat="44.74895" lon="0.45424">
        <ele>122.2</ele>
        <time>2024-07-14T07:11:50Z</time>
      </trkpt>
      <trkpt lat="44.74892" lon="0.45423">
        <ele>122.3</ele>
        <time>2024-07-14T07:11:51Z</time>
      </trkpt>
      <trkpt lat="44.7489" lon="0.45423">
        <ele>122.4</ele>
        <time>2024-07-14T07:11:52Z</time>
      </trkpt>
      <trkpt lat="44.74885" lon="0.45422">
        <ele>122.6</ele>
        <time>2024-07-14T07:11:54Z</time>
      </trkpt>
      <trkpt lat="44.74881" lon="0.4542">
        <ele>122.8</ele>
        <time>2024-07-14T07:11:56Z</time>
      </trkpt>
      <trkpt lat="44.74876" lon="0.45418">
        <ele>123</ele>
        <time>2024-07-14T07:11:58Z</time>
      </trkpt>
      <trkpt lat="44.74871" lon="0.45417">
        <ele>123.3</ele>
        <time>2024-07-14T07:12:00Z</time>
      </trkpt>
      <trkpt lat="44.74866" lon="0.45415">
        <ele>123.6</ele>
        <time>2024-07-14T07:12:02Z</time>
      </trkpt>
      <trkpt lat="44.74861" lon="0.45414">
        <ele>123.9</ele>
        <time>2024-07-14T07:12:04Z</time>
      </trkpt>
      <trkpt lat="44.74856" lon="0.45412">
        <ele>124.3</ele>
        <time>2024-07-14T07:12:06Z</time>
      </trkpt>
      <trkpt lat="44.74854" lon="0.45412">
        <ele>124.5</ele>
        <time>2024-07-14T07:12:07Z</time>
      </trkpt>
      <trkpt lat="44.74852" lon="0.45411">
        <ele>124.7</ele>
        <time>2024-07-14T07:12:08Z</time>
      </trkpt>
      <trkpt lat="44.74847" lon="0.4541">
        <ele>125.1</ele>
        <time>2024-07-14T07:12:10Z</time>
      </trkpt>
      <trkpt lat="44.74842" lon="0.45409">
        <ele>125.6</ele>
        <time>2024-07-14T07:12:12Z</time>
      </trkpt>
      <trkpt lat="44.74839" lon="0.45409">
        <ele>125.9</ele>
        <time>2024-07-14T07:12:14Z</time>
      </trkpt>
      <trkpt lat="44.74836" lon="0.45409">
        <ele>126.3</ele>
        <time>2024-07-14T07:12:16Z</time>
      </trkpt>
      <trkpt lat="44.74833" lon="0.45408">
        <ele>126.5</ele>
        <time>2024-07-14T07:12:18Z</time>
      </trkpt>
      <trkpt lat="44.74831" lon="0.45408">
        <ele>126.8</ele>
        <time>2024-07-14T07:12:20Z</time>
      </trkpt>
      <trkpt lat="44.7483" lon="0.45407">
        <ele>126.9</ele>
        <time>2024-07-14T07:12:21Z</time>
      </trkpt>
      <trkpt lat="44.74829" lon="0.45407">
        <ele>127</ele>
        <time>2024-07-14T07:12:22Z</time>
      </trkpt>
      <trkpt lat="44.74826" lon="0.45406">
        <ele>127.2</ele>
        <time>2024-07-14T07:12:24Z</time>
      </trkpt>
      <trkpt lat="44.74824" lon="0.45406">
        <ele>127.4</ele>
        <time>2024-07-14T07:12:26Z</time>
      </trkpt>
      <trkpt lat="44.74823" lon="0.45403">
        <ele>127.6</ele>
        <time>2024-07-14T07:12:28Z</time>
      </trkpt>
      <trkpt lat="44.74821" lon="0.45402">
        <ele>127.7</ele>
        <time>2024-07-14T07:12:29Z</time>
      </trkpt>
      <trkpt lat="44.74819" lon="0.45403">
        <ele>127.8</ele>
        <time>2024-07-14T07:12:30Z</time>
      </trkpt>
      <trkpt lat="44.74818" lon="0.45405">
        <ele>127.9</ele>
        <time>2024-07-14T07:12:31Z</time>
      </trkpt>
      <trkpt lat="44.74817" lon="0.45407">
        <ele>128</ele>
        <time>2024-07-14T07:12:32Z</time>
      </trkpt>
      <trkpt lat="44.74814" lon="0.45411">
        <ele>128.2</ele>
        <time>2024-07-14T07:12:34Z</time>
      </trkpt>
      <trkpt lat="44.74812" lon="0.45416">
        <ele>128.4</ele>
        <time>2024-07-14T07:12:36Z</time>
      </trkpt>
      <trkpt lat="44.7481" lon="0.45417">
        <ele>128.4</ele>
        <time>2024-07-14T07:12:37Z</time>
      </trkpt>
      <trkpt lat="44.74809" lon="0.45419">
        <ele>128.5</ele>
        <time>2024-07-14T07:12:38Z</time>
      </trkpt>
      <trkpt lat="44.74805" lon="0.45422">
        <ele>128.7</ele>
        <time>2024-07-14T07:12:40Z</time>
      </trkpt>
      <trkpt lat="44.74802" lon="0.45425">
        <ele>128.9</ele>
        <time>2024-07-14T07:12:42Z</time>
      </trkpt>
      <trkpt lat="44.74799" lon="0.45428">
        <ele>129.2</ele>
        <time>2024-07-14T07:12:44Z</time>
      </trkpt>
      <trkpt lat="44.74795" lon="0.45432">
        <ele>129.4</ele>
        <time>2024-07-14T07:12:46Z</time>
      </trkpt>
      <trkpt lat="44.74792" lon="0.45437">
        <ele>129.7</ele>
        <time>2024-07-14T07:12:48Z</time>
      </trkpt>
      <trkpt lat="44.74789" lon="0.4544">
        <ele>129.9</ele>
        <time>2024-07-14T07:12:50Z</time>
      </trkpt>
      <trkpt lat="44.74786" lon="0.45444">
        <ele>130.2</ele>
        <time>2024-07-14T07:12:52Z</time>
      </trkpt>
      <trkpt lat="44.74783" lon="0.45448">
        <ele>130.4</ele>
        <time>2024-07-14T07:12:54Z</time>
      </trkpt>
      <trkpt lat="44.74781" lon="0.45452">
        <ele>130.7</ele>
        <time>2024-07-14T07:12:56Z</time>
      </trkpt>
      <trkpt lat="44.74779" lon="0.45457">
        <ele>131</ele>
        <time>2024-07-14T07:12:58Z</time>
      </trkpt>
      <trkpt lat="44.74777" lon="0.45458">
        <ele>131.2</ele>
        <time>2024-07-14T07:12:59Z</time>
      </trkpt>
      <trkpt lat="44.74776" lon="0.45459">
        <ele>131.3</ele>
        <time>2024-07-14T07:13:00Z</time>
      </trkpt>
      <trkpt lat="44.74774" lon="0.45459">
        <ele>131.5</ele>
        <time>2024-07-14T07:13:01Z</time>
      </trkpt>
      <trkpt lat="44.74773" lon="0.45458">
        <ele>131.7</ele>
        <time>2024-07-14T07:13:02Z</time>
      </trkpt>
      <trkpt lat="44.7477" lon="0.45456">
        <ele>132</ele>
        <time>2024-07-14T07:13:04Z</time>
      </trkpt>
      <trkpt lat="44.74767" lon="0.45455">
        <ele>132.3</ele>
        <time>2024-07-14T07:13:06Z</time>
      </trkpt>
      <trkpt lat="44.74766" lon="0.45454">
        <ele>132.5</ele>
        <time>2024-07-14T07:13:07Z</time>
      </trkpt>
      <trkpt lat="44.74765" lon="0.45453">
        <ele>132.6</ele>
        <time>2024-07-14T07:13:08Z</time>
      </trkpt>
      <trkpt lat="44.74763" lon="0.45452">
        <ele>132.8</ele>
        <time>2024-07-14T07:13:10Z</time>
      </trkpt>
      <trkpt lat="44.7476" lon="0.45451">
        <ele>133</ele>
        <time>2024-07-14T07:13:12Z</time>
      </trkpt>
      <trkpt lat="44.74757" lon="0.4545">
        <ele>133.3</ele>
        <time>2024-07-14T07:13:14Z</time>
      </trkpt>
      <trkpt lat="44.74753" lon="0.4545">
        <ele>133.5</ele>
        <time>2024-07-14T07:13:16Z</time>
      </trkpt>
      <trkpt lat="44.7475" lon="0.4545">
        <ele>133.7</ele>
        <time>2024-07-14T07:13:18Z</time>
      </trkpt>
      <trkpt lat="44.74749" lon="0.4545">
        <ele>133.9</ele>
        <time>2024-07-14T07:13:19Z</time>
      </trkpt>
      <trkpt lat="44.74747" lon="0.45449">
        <ele>134</ele>
        <time>2024-07-14T07:13:20Z</time>
      </trkpt>
      <trkpt lat="44.74743" lon="0.4545">
        <ele>134.2</ele>
        <time>2024-07-14T07:13:22Z</time>
      </trkpt>
      <trkpt lat="44.7474" lon="0.45449">
        <ele>134.4</ele>
        <time>2024-07-14T07:13:24Z</time>
      </trkpt>
      <trkpt lat="44.74738" lon="0.45449">
        <ele>134.5</ele>
        <time>2024-07-14T07:13:25Z</time>
      </trkpt>
      <trkpt lat="44.74736" lon="0.45449">
        <ele>134.7</ele>
        <time>2024-07-14T07:13:26Z</time>
      </trkpt>
      <trkpt lat="44.74732" lon="0.45448">
        <ele>134.9</ele>
        <time>2024-07-14T07:13:28Z</time>
      </trkpt>
      <trkpt lat="44.7473" lon="0.45448">
        <ele>135</ele>
        <time>2024-07-14T07:13:29Z</time>
      </trkpt>
      <trkpt lat="44.74728" lon="0.45447">
        <ele>135.1</ele>
        <time>2024-07-14T07:13:30Z</time>
      </trkpt>
      <trkpt lat="44.74723" lon="0.45446">
        <ele>135.3</ele>
        <time>2024-07-14T07:13:32Z</time>
      </trkpt>
      <trkpt lat="44.74719" lon="0.45445">
        <ele>135.5</ele>
        <time>2024-07-14T07:13:34Z</time>
      </trkpt>
      <trkpt lat="44.74717" lon="0.45445">
        <ele>135.6</ele>
        <time>2024-07-14T07:13:35Z</time>
      </trkpt>
      <trkpt lat="44.74714" lon="0.45444">
        <ele>135.6</ele>
        <time>2024-07-14T07:13:36Z</time>
      </trkpt>
      <trkpt lat="44.7471" lon="0.45442">
        <ele>135.7</ele>
        <time>2024-07-14T07:13:38Z</time>
      </trkpt>
      <trkpt lat="44.74708" lon="0.45435">
        <ele>135.8</ele>
        <time>2024-07-14T07:13:40Z</time>
      </trkpt>
      <trkpt lat="44.74707" lon="0.45428">
        <ele>135.8</ele>
        <time>2024-07-14T07:13:42Z</time>
      </trkpt>
      <trkpt lat="44.74707" lon="0.4542">
        <ele>135.7</ele>
        <time>2024-07-14T07:13:44Z</time>
      </trkpt>
      <trkpt lat="44.74707" lon="0.45413">
        <ele>135.7</ele>
        <time>2024-07-14T07:13:46Z</time>
      </trkpt>
      <trkpt lat="44.74708" lon="0.45408">
        <ele>135.7</ele>
        <time>2024-07-14T07:13:47Z</time>
      </trkpt>
      <trkpt lat="44.74708" lon="0.45404">
        <ele>135.6</ele>
        <time>2024-07-14T07:13:48Z</time>
      </trkpt>
      <trkpt lat="44.74709" lon="0.45396">
        <ele>135.6</ele>
        <time>2024-07-14T07:13:50Z</time>
      </trkpt>
      <trkpt lat="44.74709" lon="0.45387">
        <ele>135.7</ele>
        <time>2024-07-14T07:13:52Z</time>
      </trkpt>
      <trkpt lat="44.74709" lon="0.45379">
        <ele>135.7</ele>
        <time>2024-07-14T07:13:54Z</time>
      </trkpt>
      <trkpt lat="44.74709" lon="0.45375">
        <ele>135.8</ele>
        <time>2024-07-14T07:13:55Z</time>
      </trkpt>
      <trkpt lat="44.7471" lon="0.45371">
        <ele>135.8</ele>
        <time>2024-07-14T07:13:56Z</time>
      </trkpt>
      <trkpt lat="44.7471" lon="0.45363">
        <ele>135.9</ele>
        <time>2024-07-14T07:13:58Z</time>
      </trkpt>
      <trkpt lat="44.7471" lon="0.45355">
        <ele>136</ele>
        <time>2024-07-14T07:14:00Z</time>
      </trkpt>
      <trkpt lat="44.74711" lon="0.45346">
        <ele>136.1</ele>
        <time>2024-07-14T07:14:02Z</time>
      </trkpt>
      <trkpt lat="44.74711" lon="0.45338">
        <ele>136.3</ele>
        <time>2024-07-14T07:14:04Z</time>
      </trkpt>
      <trkpt lat="44.74711" lon="0.4533">
        <ele>136.5</ele>
        <time>2024-07-14T07:14:06Z</time>
      </trkpt>
      <trkpt lat="44.74711" lon="0.45323">
        <ele>136.6</ele>
        <time>2024-07-14T07:14:08Z</time>
      </trkpt>
      <trkpt lat="44.74711" lon="0.45315">
        <ele>136.6</ele>
        <time>2024-07-14T07:14:10Z</time>
      </trkpt>
      <trkpt lat="44.74711" lon="0.45306">
        <ele>136.6</ele>
        <time>2024-07-14T07:14:12Z</time>
      </trkpt>
      <trkpt lat="44.74711" lon="0.45298">
        <ele>136.6</ele>
        <time>2024-07-14T07:14:14Z</time>
      </trkpt>
      <trkpt lat="44.7471" lon="0.45289">
        <ele>136.6</ele>
        <time>2024-07-14T07:14:16Z</time>
      </trkpt>
      <trkpt lat="44.7471" lon="0.4528">
        <ele>136.5</ele>
        <time>2024-07-14T07:14:18Z</time>
      </trkpt>
      <trkpt lat="44.7471" lon="0.4527">
        <ele>136.5</ele>
        <time>2024-07-14T07:14:20Z</time>
      </trkpt>
      <trkpt lat="44.7471" lon="0.4526">
        <ele>136.4</ele>
        <time>2024-07-14T07:14:22Z</time>
      </trkpt>
      <trkpt lat="44.7471" lon="0.4525">
        <ele>136.4</ele>
        <time>2024-07-14T07:14:24Z</time>
      </trkpt>
      <trkpt lat="44.7471" lon="0.45239">
        <ele>136.4</ele>
        <time>2024-07-14T07:14:26Z</time>
      </trkpt>
      <trkpt lat="44.7471" lon="0.45229">
        <ele>136.4</ele>
        <time>2024-07-14T07:14:28Z</time>
      </trkpt>
      <trkpt lat="44.7471" lon="0.45219">
        <ele>136.5</ele>
        <time>2024-07-14T07:14:30Z</time>
      </trkpt>
      <trkpt lat="44.7471" lon="0.45214">
        <ele>136.5</ele>
        <time>2024-07-14T07:14:31Z</time>
      </trkpt>
      <trkpt lat="44.74711" lon="0.45209">
        <ele>136.5</ele>
        <time>2024-07-14T07:14:32Z</time>
      </trkpt>
      <trkpt lat="44.74712" lon="0.45198">
        <ele>136.6</ele>
        <time>2024-07-14T07:14:34Z</time>
      </trkpt>
      <trkpt lat="44.74713" lon="0.45187">
        <ele>136.7</ele>
        <time>2024-07-14T07:14:36Z</time>
      </trkpt>
      <trkpt lat="44.74714" lon="0.45176">
        <ele>136.8</ele>
        <time>2024-07-14T07:14:38Z</time>
      </trkpt>
      <trkpt lat="44.74714" lon="0.45165">
        <ele>136.9</ele>
        <time>2024-07-14T07:14:40Z</time>
      </trkpt>
      <trkpt lat="44.74712" lon="0.45155">
        <ele>137.1</ele>
        <time>2024-07-14T07:14:42Z</time>
      </trkpt>
      <trkpt lat="44.74707" lon="0.45147">
        <ele>137.3</ele>
        <time>2024-07-14T07:14:44Z</time>
      </trkpt>
      <trkpt lat="44.747" lon="0.45142">
        <ele>137.5</ele>
        <time>2024-07-14T07:14:46Z</time>
      </trkpt>
      <trkpt lat="44.74692" lon="0.45142">
        <ele>137.7</ele>
        <time>2024-07-14T07:14:48Z</time>
      </trkpt>
      <trkpt lat="44.74685" lon="0.45145">
        <ele>138</ele>
        <time>2024-07-14T07:14:50Z</time>
      </trkpt>
      <trkpt lat="44.74677" lon="0.45147">
        <ele>138.2</ele>
        <time>2024-07-14T07:14:52Z</time>
      </trkpt>
      <trkpt lat="44.7467" lon="0.45148">
        <ele>138.4</ele>
        <time>2024-07-14T07:14:54Z</time>
      </trkpt>
      <trkpt lat="44.74666" lon="0.45149">
        <ele>138.4</ele>
        <time>2024-07-14T07:14:55Z</time>
      </trkpt>
      <trkpt lat="44.74663" lon="0.45149">
        <ele>138.5</ele>
        <time>2024-07-14T07:14:56Z</time>
      </trkpt>
      <trkpt lat="44.74656" lon="0.4515">
        <ele>138.6</ele>
        <time>2024-07-14T07:14:58Z</time>
      </trkpt>
      <trkpt lat="44.74649" lon="0.4515">
        <ele>138.7</ele>
        <time>2024-07-14T07:15:00Z</time>
      </trkpt>
      <trkpt lat="44.74641" lon="0.45151">
        <ele>138.8</ele>
        <time>2024-07-14T07:15:02Z</time>
      </trkpt>
      <trkpt lat="44.74634" lon="0.45152">
        <ele>138.8</ele>
        <time>2024-07-14T07:15:04Z</time>
      </trkpt>
      <trkpt lat="44.74626" lon="0.45152">
        <ele>138.8</ele>
        <time>2024-07-14T07:15:06Z</time>
      </trkpt>
      <trkpt lat="44.74618" lon="0.45154">
        <ele>138.8</ele>
        <time>2024-07-14T07:15:08Z</time>
      </trkpt>
      <trkpt lat="44.7461" lon="0.45157">
        <ele>138.8</ele>
        <time>2024-07-14T07:15:10Z</time>
      </trkpt>
      <trkpt lat="44.74602" lon="0.45161">
        <ele>138.7</ele>
        <time>2024-07-14T07:15:12Z</time>
      </trkpt>
      <trkpt lat="44.74598" lon="0.45163">
        <ele>138.7</ele>
        <time>2024-07-14T07:15:13Z</time>
      </trkpt>
      <trkpt lat="44.74594" lon="0.45165">
        <ele>138.7</ele>
        <time>2024-07-14T07:15:14Z</time>
      </trkpt>
      <trkpt lat="44.74586" lon="0.4517">
        <ele>138.6</ele>
        <time>2024-07-14T07:15:16Z</time>
      </trkpt>
      <trkpt lat="44.74577" lon="0.45176">
        <ele>138.5</ele>
        <time>2024-07-14T07:15:18Z</time>
      </trkpt>
      <trkpt lat="44.74568" lon="0.45181">
        <ele>138.4</ele>
        <time>2024-07-14T07:15:20Z</time>
      </trkpt>
      <trkpt lat="44.74559" lon="0.45186">
        <ele>138.4</ele>
        <time>2024-07-14T07:15:22Z</time>
      </trkpt>
      <trkpt lat="44.7455" lon="0.45191">
        <ele>138.3</ele>
        <time>2024-07-14T07:15:24Z</time>
      </trkpt>
      <trkpt lat="44.74542" lon="0.45196">
        <ele>138.3</ele>
        <time>2024-07-14T07:15:26Z</time>
      </trkpt>
      <trkpt lat="44.74535" lon="0.452">
        <ele>138.2</ele>
        <time>2024-07-14T07:15:28Z</time>
      </trkpt>
      <trkpt lat="44.74527" lon="0.45205">
        <ele>138.1</ele>
        <time>2024-07-14T07:15:30Z</time>
      </trkpt>
      <trkpt lat="44.74519" lon="0.45209">
        <ele>137.9</ele>
        <time>2024-07-14T07:15:32Z</time>
      </trkpt>
      <trkpt lat="44.74511" lon="0.45215">
        <ele>137.8</ele>
        <time>2024-07-14T07:15:34Z</time>
      </trkpt>
      <trkpt lat="44.74503" lon="0.45219">
        <ele>137.5</ele>
        <time>2024-07-14T07:15:36Z</time>
      </trkpt>
      <trkpt lat="44.74495" lon="0.45225">
        <ele>137.3</ele>
        <time>2024-07-14T07:15:38Z</time>
      </trkpt>
      <trkpt lat="44.74486" lon="0.4523">
        <ele>137</ele>
        <time>2024-07-14T07:15:40Z</time>
      </trkpt>
      <trkpt lat="44.74481" lon="0.45232">
        <ele>136.8</ele>
        <time>2024-07-14T07:15:41Z</time>
      </trkpt>
      <trkpt lat="44.74477" lon="0.45235">
        <ele>136.6</ele>
        <time>2024-07-14T07:15:42Z</time>
      </trkpt>
      <trkpt lat="44.74467" lon="0.45241">
        <ele>136.3</ele>
        <time>2024-07-14T07:15:44Z</time>
      </trkpt>
      <trkpt lat="44.74458" lon="0.45247">
        <ele>136</ele>
        <time>2024-07-14T07:15:46Z</time>
      </trkpt>
      <trkpt lat="44.74447" lon="0.45253">
        <ele>135.6</ele>
        <time>2024-07-14T07:15:48Z</time>
      </trkpt>
      <trkpt lat="44.74442" lon="0.45256">
        <ele>135.5</ele>
        <time>2024-07-14T07:15:49Z</time>
      </trkpt>
      <trkpt lat="44.74437" lon="0.45259">
        <ele>135.3</ele>
        <time>2024-07-14T07:15:50Z</time>
      </trkpt>
      <trkpt lat="44.74426" lon="0.45266">
        <ele>134.9</ele>
        <time>2024-07-14T07:15:52Z</time>
      </trkpt>
      <trkpt lat="44.7442" lon="0.45269">
        <ele>134.8</ele>
        <time>2024-07-14T07:15:53Z</time>
      </trkpt>
      <trkpt lat="44.74415" lon="0.45272">
        <ele>134.6</ele>
        <time>2024-07-14T07:15:54Z</time>
      </trkpt>
      <trkpt lat="44.74409" lon="0.45276">
        <ele>134.5</ele>
        <time>2024-07-14T07:15:55Z</time>
      </trkpt>
      <trkpt lat="44.74404" lon="0.45279">
        <ele>134.4</ele>
        <time>2024-07-14T07:15:56Z</time>
      </trkpt>
      <trkpt lat="44.74399" lon="0.45283">
        <ele>134.3</ele>
        <time>2024-07-14T07:15:57Z</time>
      </trkpt>
      <trkpt lat="44.74394" lon="0.45286">
        <ele>134.3</ele>
        <time>2024-07-14T07:15:58Z</time>
      </trkpt>
      <trkpt lat="44.74384" lon="0.45291">
        <ele>134.2</ele>
        <time>2024-07-14T07:16:00Z</time>
      </trkpt>
      <trkpt lat="44.74381" lon="0.45292">
        <ele>134.2</ele>
        <time>2024-07-14T07:16:01Z</time>
      </trkpt>
      <trkpt lat="44.74378" lon="0.45293">
        <ele>134.2</ele>
        <time>2024-07-14T07:16:02Z</time>
      </trkpt>
      <trkpt lat="44.74371" lon="0.45296">
        <ele>134.1</ele>
        <time>2024-07-14T07:16:04Z</time>
      </trkpt>
      <trkpt lat="44.74364" lon="0.45298">
        <ele>133.8</ele>
        <time>2024-07-14T07:16:06Z</time>
      </trkpt>
      <trkpt lat="44.74359" lon="0.45299">
        <ele>133.7</ele>
        <time>2024-07-14T07:16:07Z</time>
      </trkpt>
      <trkpt lat="44.74355" lon="0.453">
        <ele>133.7</ele>
        <time>2024-07-14T07:16:08Z</time>
      </trkpt>
      <trkpt lat="44.74347" lon="0.45303">
        <ele>133.6</ele>
        <time>2024-07-14T07:16:10Z</time>
      </trkpt>
      <trkpt lat="44.74339" lon="0.45306">
        <ele>133.6</ele>
        <time>2024-07-14T07:16:12Z</time>
      </trkpt>
      <trkpt lat="44.74335" lon="0.45307">
        <ele>133.6</ele>
        <time>2024-07-14T07:16:13Z</time>
      </trkpt>
      <trkpt lat="44.74331" lon="0.45308">
        <ele>133.7</ele>
        <time>2024-07-14T07:16:14Z</time>
      </trkpt>
      <trkpt lat="44.74323" lon="0.4531">
        <ele>133.8</ele>
        <time>2024-07-14T07:16:16Z</time>
      </trkpt>
      <trkpt lat="44.74315" lon="0.45313">
        <ele>133.9</ele>
        <time>2024-07-14T07:16:18Z</time>
      </trkpt>
      <trkpt lat="44.74308" lon="0.45315">
        <ele>134.1</ele>
        <time>2024-07-14T07:16:20Z</time>
      </trkpt>
      <trkpt lat="44.743" lon="0.45318">
        <ele>134.3</ele>
        <time>2024-07-14T07:16:22Z</time>
      </trkpt>
      <trkpt lat="44.74292" lon="0.45321">
        <ele>134.5</ele>
        <time>2024-07-14T07:16:24Z</time>
      </trkpt>
      <trkpt lat="44.74284" lon="0.45323">
        <ele>134.7</ele>
        <time>2024-07-14T07:16:26Z</time>
      </trkpt>
      <trkpt lat="44.7428" lon="0.45324">
        <ele>134.9</ele>
        <time>2024-07-14T07:16:27Z</time>
      </trkpt>
      <trkpt lat="44.74277" lon="0.45326">
        <ele>135</ele>
        <time>2024-07-14T07:16:28Z</time>
      </trkpt>
      <trkpt lat="44.74269" lon="0.45328">
        <ele>135.3</ele>
        <time>2024-07-14T07:16:30Z</time>
      </trkpt>
      <trkpt lat="44.74262" lon="0.4533">
        <ele>135.6</ele>
        <time>2024-07-14T07:16:32Z</time>
      </trkpt>
      <trkpt lat="44.74254" lon="0.45331">
        <ele>135.9</ele>
        <time>2024-07-14T07:16:34Z</time>
      </trkpt>
      <trkpt lat="44.74246" lon="0.45334">
        <ele>136.4</ele>
        <time>2024-07-14T07:16:36Z</time>
      </trkpt>
      <trkpt lat="44.7424" lon="0.45337">
        <ele>136.8</ele>
        <time>2024-07-14T07:16:38Z</time>
      </trkpt>
      <trkpt lat="44.74235" lon="0.45339">
        <ele>137.2</ele>
        <time>2024-07-14T07:16:40Z</time>
      </trkpt>
      <trkpt lat="44.74229" lon="0.45341">
        <ele>137.7</ele>
        <time>2024-07-14T07:16:42Z</time>
      </trkpt>
      <trkpt lat="44.74224" lon="0.45343">
        <ele>138.1</ele>
        <time>2024-07-14T07:16:44Z</time>
      </trkpt>
      <trkpt lat="44.7422" lon="0.45344">
        <ele>138.5</ele>
        <time>2024-07-14T07:16:46Z</time>
      </trkpt>
      <trkpt lat="44.74216" lon="0.45345">
        <ele>138.9</ele>
        <time>2024-07-14T07:16:48Z</time>
      </trkpt>
      <trkpt lat="44.74212" lon="0.45346">
        <ele>139.2</ele>
        <time>2024-07-14T07:16:50Z</time>
      </trkpt>
      <trkpt lat="44.74208" lon="0.45348">
        <ele>139.5</ele>
        <time>2024-07-14T07:16:52Z</time>
      </trkpt>
      <trkpt lat="44.74205" lon="0.45349">
        <ele>139.7</ele>
        <time>2024-07-14T07:16:53Z</time>
      </trkpt>
      <trkpt lat="44.74203" lon="0.4535">
        <ele>139.9</ele>
        <time>2024-07-14T07:16:54Z</time>
      </trkpt>
      <trkpt lat="44.74199" lon="0.45351">
        <ele>140.2</ele>
        <time>2024-07-14T07:16:56Z</time>
      </trkpt>
      <trkpt lat="44.74195" lon="0.45351">
        <ele>140.5</ele>
        <time>2024-07-14T07:16:58Z</time>
      </trkpt>
      <trkpt lat="44.74191" lon="0.45352">
        <ele>140.8</ele>
        <time>2024-07-14T07:17:00Z</time>
      </trkpt>
      <trkpt lat="44.74189" lon="0.45352">
        <ele>141</ele>
        <time>2024-07-14T07:17:01Z</time>
      </trkpt>
      <trkpt lat="44.74186" lon="0.45352">
        <ele>141.2</ele>
        <time>2024-07-14T07:17:02Z</time>
      </trkpt>
      <trkpt lat="44.74182" lon="0.45353">
        <ele>141.5</ele>
        <time>2024-07-14T07:17:04Z</time>
      </trkpt>
      <trkpt lat="44.74178" lon="0.45354">
        <ele>141.8</ele>
        <time>2024-07-14T07:17:06Z</time>
      </trkpt>
      <trkpt lat="44.74174" lon="0.45355">
        <ele>142.1</ele>
        <time>2024-07-14T07:17:08Z</time>
      </trkpt>
      <trkpt lat="44.74172" lon="0.45355">
        <ele>142.3</ele>
        <time>2024-07-14T07:17:09Z</time>
      </trkpt>
      <trkpt lat="44.74169" lon="0.45356">
        <ele>142.5</ele>
        <time>2024-07-14T07:17:10Z</time>
      </trkpt>
      <trkpt lat="44.74165" lon="0.45356">
        <ele>142.8</ele>
        <time>2024-07-14T07:17:12Z</time>
      </trkpt>
      <trkpt lat="44.74161" lon="0.45357">
        <ele>143.2</ele>
        <time>2024-07-14T07:17:14Z</time>
      </trkpt>
      <trkpt lat="44.74157" lon="0.45358">
        <ele>143.5</ele>
        <time>2024-07-14T07:17:16Z</time>
      </trkpt>
      <trkpt lat="44.74153" lon="0.45359">
        <ele>143.9</ele>
        <time>2024-07-14T07:17:18Z</time>
      </trkpt>
      <trkpt lat="44.74149" lon="0.45359">
        <ele>144.2</ele>
        <time>2024-07-14T07:17:20Z</time>
      </trkpt>
      <trkpt lat="44.74148" lon="0.45359">
        <ele>144.4</ele>
        <time>2024-07-14T07:17:21Z</time>
      </trkpt>
      <trkpt lat="44.74146" lon="0.4536">
        <ele>144.6</ele>
        <time>2024-07-14T07:17:22Z</time>
      </trkpt>
      <trkpt lat="44.74145" lon="0.4536">
        <ele>144.7</ele>
        <time>2024-07-14T07:17:23Z</time>
      </trkpt>
      <trkpt lat="44.74144" lon="0.4536">
        <ele>144.8</ele>
        <time>2024-07-14T07:17:24Z</time>
      </trkpt>
      <trkpt lat="44.74141" lon="0.45361">
        <ele>145.1</ele>
        <time>2024-07-14T07:17:26Z</time>
      </trkpt>
      <trkpt lat="44.74137" lon="0.45362">
        <ele>145.6</ele>
        <time>2024-07-14T07:17:28Z</time>
      </trkpt>
      <trkpt lat="44.74133" lon="0.45362">
        <ele>146.1</ele>
        <time>2024-07-14T07:17:30Z</time>
      </trkpt>
      <trkpt lat="44.7413" lon="0.45364">
        <ele>146.5</ele>
        <time>2024-07-14T07:17:32Z</time>
      </trkpt>
      <trkpt lat="44.74127" lon="0.45365">
        <ele>146.9</ele>
        <time>2024-07-14T07:17:34Z</time>
      </trkpt>
      <trkpt lat="44.74124" lon="0.45367">
        <ele>147.3</ele>
        <time>2024-07-14T07:17:36Z</time>
      </trkpt>
      <trkpt lat="44.74122" lon="0.45367">
        <ele>147.5</ele>
        <time>2024-07-14T07:17:37Z</time>
      </trkpt>
      <trkpt lat="44.74121" lon="0.45367">
        <ele>147.6</ele>
        <time>2024-07-14T07:17:38Z</time>
      </trkpt>
      <trkpt lat="44.74118" lon="0.45368">
        <ele>147.9</ele>
        <time>2024-07-14T07:17:40Z</time>
      </trkpt>
      <trkpt lat="44.74116" lon="0.4537">
        <ele>148.2</ele>
        <time>2024-07-14T07:17:42Z</time>
      </trkpt>
      <trkpt lat="44.74113" lon="0.45371">
        <ele>148.5</ele>
        <time>2024-07-14T07:17:44Z</time>
      </trkpt>
      <trkpt lat="44.74111" lon="0.45372">
        <ele>148.7</ele>
        <time>2024-07-14T07:17:46Z</time>
      </trkpt>
      <trkpt lat="44.74107" lon="0.45373">
        <ele>149</ele>
        <time>2024-07-14T07:17:48Z</time>
      </trkpt>
      <trkpt lat="44.74104" lon="0.45373">
        <ele>149.4</ele>
        <time>2024-07-14T07:17:50Z</time>
      </trkpt>
      <trkpt lat="44.74101" lon="0.45374">
        <ele>149.7</ele>
        <time>2024-07-14T07:17:52Z</time>
      </trkpt>
      <trkpt lat="44.74097" lon="0.45374">
        <ele>150</ele>
        <time>2024-07-14T07:17:54Z</time>
      </trkpt>
      <trkpt lat="44.74094" lon="0.45374">
        <ele>150.3</ele>
        <time>2024-07-14T07:17:56Z</time>
      </trkpt>
      <trkpt lat="44.74092" lon="0.45374">
        <ele>150.5</ele>
        <time>2024-07-14T07:17:57Z</time>
      </trkpt>
      <trkpt lat="44.7409" lon="0.45374">
        <ele>150.7</ele>
        <time>2024-07-14T07:17:58Z</time>
      </trkpt>
      <trkpt lat="44.74087" lon="0.45374">
        <ele>151</ele>
        <time>2024-07-14T07:18:00Z</time>
      </trkpt>
      <trkpt lat="44.74083" lon="0.45374">
        <ele>151.3</ele>
        <time>2024-07-14T07:18:02Z</time>
      </trkpt>
      <trkpt lat="44.7408" lon="0.45373">
        <ele>151.6</ele>
        <time>2024-07-14T07:18:04Z</time>
      </trkpt>
      <trkpt lat="44.74079" lon="0.45372">
        <ele>151.7</ele>
        <time>2024-07-14T07:18:05Z</time>
      </trkpt>
      <trkpt lat="44.74077" lon="0.45372">
        <ele>151.9</ele>
        <time>2024-07-14T07:18:06Z</time>
      </trkpt>
      <trkpt lat="44.74073" lon="0.45372">
        <ele>152.2</ele>
        <time>2024-07-14T07:18:08Z</time>
      </trkpt>
      <trkpt lat="44.7407" lon="0.45371">
        <ele>152.4</ele>
        <time>2024-07-14T07:18:10Z</time>
      </trkpt>
      <trkpt lat="44.74066" lon="0.45371">
        <ele>152.7</ele>
        <time>2024-07-14T07:18:12Z</time>
      </trkpt>
      <trkpt lat="44.74065" lon="0.45371">
        <ele>152.8</ele>
        <time>2024-07-14T07:18:13Z</time>
      </trkpt>
      <trkpt lat="44.74063" lon="0.45371">
        <ele>152.9</ele>
        <time>2024-07-14T07:18:14Z</time>
      </trkpt>
      <trkpt lat="44.74059" lon="0.4537">
        <ele>153.1</ele>
        <time>2024-07-14T07:18:16Z</time>
      </trkpt>
      <trkpt lat="44.74056" lon="0.4537">
        <ele>153.3</ele>
        <time>2024-07-14T07:18:18Z</time>
      </trkpt>
      <trkpt lat="44.74052" lon="0.45369">
        <ele>153.5</ele>
        <time>2024-07-14T07:18:20Z</time>
      </trkpt>
      <trkpt lat="44.74048" lon="0.45369">
        <ele>153.8</ele>
        <time>2024-07-14T07:18:22Z</time>
      </trkpt>
      <trkpt lat="44.74046" lon="0.45369">
        <ele>153.9</ele>
        <time>2024-07-14T07:18:23Z</time>
      </trkpt>
      <trkpt lat="44.74044" lon="0.45369">
        <ele>153.9</ele>
        <time>2024-07-14T07:18:24Z</time>
      </trkpt>
      <trkpt lat="44.74041" lon="0.45369">
        <ele>154.1</ele>
        <time>2024-07-14T07:18:26Z</time>
      </trkpt>
      <trkpt lat="44.74037" lon="0.45368">
        <ele>154.3</ele>
        <time>2024-07-14T07:18:28Z</time>
      </trkpt>
      <trkpt lat="44.74034" lon="0.45368">
        <ele>154.5</ele>
        <time>2024-07-14T07:18:30Z</time>
      </trkpt>
      <trkpt lat="44.74032" lon="0.45367">
        <ele>154.5</ele>
        <time>2024-07-14T07:18:31Z</time>
      </trkpt>
      <trkpt lat="44.7403" lon="0.45367">
        <ele>154.6</ele>
        <time>2024-07-14T07:18:32Z</time>
      </trkpt>
      <trkpt lat="44.74027" lon="0.45366">
        <ele>154.7</ele>
        <time>2024-07-14T07:18:34Z</time>
      </trkpt>
      <trkpt lat="44.74024" lon="0.45366">
        <ele>154.9</ele>
        <time>2024-07-14T07:18:36Z</time>
      </trkpt>
      <trkpt lat="44.74021" lon="0.45365">
        <ele>155</ele>
        <time>2024-07-14T07:18:38Z</time>
      </trkpt>
      <trkpt lat="44.74018" lon="0.45364">
        <ele>155.1</ele>
        <time>2024-07-14T07:18:40Z</time>
      </trkpt>
      <trkpt lat="44.74015" lon="0.45364">
        <ele>155.3</ele>
        <time>2024-07-14T07:18:42Z</time>
      </trkpt>
      <trkpt lat="44.74011" lon="0.45363">
        <ele>155.5</ele>
        <time>2024-07-14T07:18:44Z</time>
      </trkpt>
      <trkpt lat="44.74006" lon="0.45362">
        <ele>155.7</ele>
        <time>2024-07-14T07:18:46Z</time>
      </trkpt>
      <trkpt lat="44.74001" lon="0.45361">
        <ele>156</ele>
        <time>2024-07-14T07:18:48Z</time>
      </trkpt>
      <trkpt lat="44.73997" lon="0.45361">
        <ele>156.3</ele>
        <time>2024-07-14T07:18:50Z</time>
      </trkpt>
      <trkpt lat="44.73995" lon="0.4536">
        <ele>156.4</ele>
        <time>2024-07-14T07:18:51Z</time>
      </trkpt>
      <trkpt lat="44.73993" lon="0.45361">
        <ele>156.6</ele>
        <time>2024-07-14T07:18:52Z</time>
      </trkpt>
      <trkpt lat="44.73989" lon="0.45361">
        <ele>156.8</ele>
        <time>2024-07-14T07:18:54Z</time>
      </trkpt>
      <trkpt lat="44.73986" lon="0.45361">
        <ele>157</ele>
        <time>2024-07-14T07:18:56Z</time>
      </trkpt>
      <trkpt lat="44.73982" lon="0.45361">
        <ele>157.2</ele>
        <time>2024-07-14T07:18:58Z</time>
      </trkpt>
      <trkpt lat="44.73981" lon="0.4536">
        <ele>157.3</ele>
        <time>2024-07-14T07:18:59Z</time>
      </trkpt>
      <trkpt lat="44.73979" lon="0.45361">
        <ele>157.4</ele>
        <time>2024-07-14T07:19:00Z</time>
      </trkpt>
      <trkpt lat="44.73976" lon="0.4536">
        <ele>157.6</ele>
        <time>2024-07-14T07:19:02Z</time>
      </trkpt>
      <trkpt lat="44.73972" lon="0.45359">
        <ele>157.8</ele>
        <time>2024-07-14T07:19:04Z</time>
      </trkpt>
      <trkpt lat="44.73968" lon="0.45358">
        <ele>158</ele>
        <time>2024-07-14T07:19:06Z</time>
      </trkpt>
      <trkpt lat="44.73964" lon="0.45358">
        <ele>158.2</ele>
        <time>2024-07-14T07:19:08Z</time>
      </trkpt>
      <trkpt lat="44.73961" lon="0.45358">
        <ele>158.4</ele>
        <time>2024-07-14T07:19:10Z</time>
      </trkpt>
      <trkpt lat="44.73957" lon="0.45357">
        <ele>158.6</ele>
        <time>2024-07-14T07:19:12Z</time>
      </trkpt>
      <trkpt lat="44.73954" lon="0.45357">
        <ele>158.8</ele>
        <time>2024-07-14T07:19:14Z</time>
      </trkpt>
      <trkpt lat="44.73951" lon="0.45356">
        <ele>159.1</ele>
        <time>2024-07-14T07:19:16Z</time>
      </trkpt>
      <trkpt lat="44.73947" lon="0.45356">
        <ele>159.3</ele>
        <time>2024-07-14T07:19:18Z</time>
      </trkpt>
      <trkpt lat="44.73944" lon="0.45355">
        <ele>159.6</ele>
        <time>2024-07-14T07:19:20Z</time>
      </trkpt>
      <trkpt lat="44.7394" lon="0.45355">
        <ele>159.8</ele>
        <time>2024-07-14T07:19:22Z</time>
      </trkpt>
      <trkpt lat="44.73939" lon="0.45355">
        <ele>159.9</ele>
        <time>2024-07-14T07:19:23Z</time>
      </trkpt>
      <trkpt lat="44.73937" lon="0.45355">
        <ele>160.1</ele>
        <time>2024-07-14T07:19:24Z</time>
      </trkpt>
      <trkpt lat="44.73934" lon="0.45354">
        <ele>160.3</ele>
        <time>2024-07-14T07:19:26Z</time>
      </trkpt>
      <trkpt lat="44.7393" lon="0.45354">
        <ele>160.6</ele>
        <time>2024-07-14T07:19:28Z</time>
      </trkpt>
      <trkpt lat="44.73927" lon="0.45353">
        <ele>160.8</ele>
        <time>2024-07-14T07:19:30Z</time>
      </trkpt>
      <trkpt lat="44.73925" lon="0.45353">
        <ele>161</ele>
        <time>2024-07-14T07:19:31Z</time>
      </trkpt>
      <trkpt lat="44.73924" lon="0.45352">
        <ele>161.1</ele>
        <time>2024-07-14T07:19:32Z</time>
      </trkpt>
      <trkpt lat="44.7392" lon="0.45352">
        <ele>161.3</ele>
        <time>2024-07-14T07:19:34Z</time>
      </trkpt>
      <trkpt lat="44.73917" lon="0.45352">
        <ele>161.6</ele>
        <time>2024-07-14T07:19:36Z</time>
      </trkpt>
      <trkpt lat="44.73913" lon="0.45352">
        <ele>161.9</ele>
        <time>2024-07-14T07:19:38Z</time>
      </trkpt>
      <trkpt lat="44.73912" lon="0.45352">
        <ele>162</ele>
        <time>2024-07-14T07:19:39Z</time>
      </trkpt>
      <trkpt lat="44.7391" lon="0.45352">
        <ele>162.1</ele>
        <time>2024-07-14T07:19:40Z</time>
      </trkpt>
      <trkpt lat="44.73907" lon="0.45352">
        <ele>162.4</ele>
        <time>2024-07-14T07:19:42Z</time>
      </trkpt>
      <trkpt lat="44.73904" lon="0.45351">
        <ele>162.6</ele>
        <time>2024-07-14T07:19:44Z</time>
      </trkpt>
      <trkpt lat="44.73901" lon="0.45351">
        <ele>162.8</ele>
        <time>2024-07-14T07:19:46Z</time>
      </trkpt>
      <trkpt lat="44.73898" lon="0.45351">
        <ele>163.1</ele>
        <time>2024-07-14T07:19:48Z</time>
      </trkpt>
      <trkpt lat="44.73894" lon="0.45349">
        <ele>163.5</ele>
        <time>2024-07-14T07:19:50Z</time>
      </trkpt>
      <trkpt lat="44.7389" lon="0.45348">
        <ele>163.8</ele>
        <time>2024-07-14T07:19:52Z</time>
      </trkpt>
      <trkpt lat="44.73888" lon="0.45348">
        <ele>164</ele>
        <time>2024-07-14T07:19:53Z</time>
      </trkpt>
      <trkpt lat="44.73887" lon="0.45347">
        <ele>164.2</ele>
        <time>2024-07-14T07:19:54Z</time>
      </trkpt>
      <trkpt lat="44.73884" lon="0.45347">
        <ele>164.5</ele>
        <time>2024-07-14T07:19:56Z</time>
      </trkpt>
      <trkpt lat="44.7388" lon="0.45347">
        <ele>164.8</ele>
        <time>2024-07-14T07:19:58Z</time>
      </trkpt>
      <trkpt lat="44.73879" lon="0.45347">
        <ele>164.9</ele>
        <time>2024-07-14T07:19:59Z</time>
      </trkpt>
      <trkpt lat="44.73877" lon="0.45346">
        <ele>165.1</ele>
        <time>2024-07-14T07:20:00Z</time>
      </trkpt>
      <trkpt lat="44.73874" lon="0.45346">
        <ele>165.4</ele>
        <time>2024-07-14T07:20:02Z</time>
      </trkpt>
      <trkpt lat="44.73871" lon="0.45346">
        <ele>165.7</ele>
        <time>2024-07-14T07:20:04Z</time>
      </trkpt>
      <trkpt lat="44.73869" lon="0.45344">
        <ele>165.9</ele>
        <time>2024-07-14T07:20:05Z</time>
      </trkpt>
      <trkpt lat="44.73868" lon="0.45344">
        <ele>166.1</ele>
        <time>2024-07-14T07:20:06Z</time>
      </trkpt>
      <trkpt lat="44.73865" lon="0.45344">
        <ele>166.3</ele>
        <time>2024-07-14T07:20:08Z</time>
      </trkpt>
      <trkpt lat="44.73862" lon="0.45343">
        <ele>166.7</ele>
        <time>2024-07-14T07:20:10Z</time>
      </trkpt>
      <trkpt lat="44.73859" lon="0.45342">
        <ele>167.1</ele>
        <time>2024-07-14T07:20:12Z</time>
      </trkpt>
      <trkpt lat="44.73858" lon="0.45342">
        <ele>167.2</ele>
        <time>2024-07-14T07:20:13Z</time>
      </trkpt>
      <trkpt lat="44.73857" lon="0.45342">
        <ele>167.3</ele>
        <time>2024-07-14T07:20:14Z</time>
      </trkpt>
      <trkpt lat="44.73854" lon="0.45342">
        <ele>167.7</ele>
        <time>2024-07-14T07:20:16Z</time>
      </trkpt>
      <trkpt lat="44.73851" lon="0.45341">
        <ele>168</ele>
        <time>2024-07-14T07:20:18Z</time>
      </trkpt>
      <trkpt lat="44.7385" lon="0.45341">
        <ele>168.2</ele>
        <time>2024-07-14T07:20:19Z</time>
      </trkpt>
      <trkpt lat="44.73849" lon="0.45341">
        <ele>168.3</ele>
        <time>2024-07-14T07:20:20Z</time>
      </trkpt>
      <trkpt lat="44.73847" lon="0.45339">
        <ele>168.6</ele>
        <time>2024-07-14T07:20:22Z</time>
      </trkpt>
      <trkpt lat="44.73845" lon="0.45339">
        <ele>168.8</ele>
        <time>2024-07-14T07:20:24Z</time>
      </trkpt>
      <trkpt lat="44.73844" lon="0.45339">
        <ele>169</ele>
        <time>2024-07-14T07:20:25Z</time>
      </trkpt>
      <trkpt lat="44.73843" lon="0.45338">
        <ele>169.2</ele>
        <time>2024-07-14T07:20:26Z</time>
      </trkpt>
      <trkpt lat="44.73839" lon="0.45338">
        <ele>169.7</ele>
        <time>2024-07-14T07:20:28Z</time>
      </trkpt>
      <trkpt lat="44.73838" lon="0.45338">
        <ele>169.9</ele>
        <time>2024-07-14T07:20:29Z</time>
      </trkpt>
      <trkpt lat="44.73836" lon="0.45338">
        <ele>170.1</ele>
        <time>2024-07-14T07:20:30Z</time>
      </trkpt>
      <trkpt lat="44.73834" lon="0.45338">
        <ele>170.5</ele>
        <time>2024-07-14T07:20:32Z</time>
      </trkpt>
      <trkpt lat="44.73831" lon="0.45338">
        <ele>170.9</ele>
        <time>2024-07-14T07:20:34Z</time>
      </trkpt>
      <trkpt lat="44.73829" lon="0.45337">
        <ele>171.3</ele>
        <time>2024-07-14T07:20:36Z</time>
      </trkpt>
      <trkpt lat="44.73827" lon="0.45338">
        <ele>171.5</ele>
        <time>2024-07-14T07:20:37Z</time>
      </trkpt>
      <trkpt lat="44.73827" lon="0.45337">
        <ele>171.7</ele>
        <time>2024-07-14T07:20:38Z</time>
      </trkpt>
      <trkpt lat="44.73825" lon="0.45336">
        <ele>172</ele>
        <time>2024-07-14T07:20:40Z</time>
      </trkpt>
      <trkpt lat="44.73823" lon="0.45336">
        <ele>172.3</ele>
        <time>2024-07-14T07:20:42Z</time>
      </trkpt>
      <trkpt lat="44.73822" lon="0.45337">
        <ele>172.4</ele>
        <time>2024-07-14T07:20:43Z</time>
      </trkpt>
      <trkpt lat="44.73821" lon="0.45336">
        <ele>172.6</ele>
        <time>2024-07-14T07:20:44Z</time>
      </trkpt>
      <trkpt lat="44.73819" lon="0.45337">
        <ele>172.9</ele>
        <time>2024-07-14T07:20:46Z</time>
      </trkpt>
      <trkpt lat="44.73817" lon="0.45338">
        <ele>173.3</ele>
        <time>2024-07-14T07:20:48Z</time>
      </trkpt>
      <trkpt lat="44.73816" lon="0.45337">
        <ele>173.4</ele>
        <time>2024-07-14T07:20:49Z</time>
      </trkpt>
      <trkpt lat="44.73815" lon="0.45337">
        <ele>173.6</ele>
        <time>2024-07-14T07:20:50Z</time>
      </trkpt>
      <trkpt lat="44.73812" lon="0.45336">
        <ele>174</ele>
        <time>2024-07-14T07:20:52Z</time>
      </trkpt>
      <trkpt lat="44.73809" lon="0.45336">
        <ele>174.5</ele>
        <time>2024-07-14T07:20:54Z</time>
      </trkpt>
      <trkpt lat="44.73805" lon="0.45335">
        <ele>175</ele>
        <time>2024-07-14T07:20:56Z</time>
      </trkpt>
      <trkpt lat="44.73801" lon="0.45335">
        <ele>175.4</ele>
        <time>2024-07-14T07:20:58Z</time>
      </trkpt>
      <trkpt lat="44.738" lon="0.45335">
        <ele>175.5</ele>
        <time>2024-07-14T07:20:59Z</time>
      </trkpt>
      <trkpt lat="44.73799" lon="0.45334">
        <ele>175.6</ele>
        <time>2024-07-14T07:21:00Z</time>
      </trkpt>
      <trkpt lat="44.73795" lon="0.45335">
        <ele>175.9</ele>
        <time>2024-07-14T07:21:02Z</time>
      </trkpt>
      <trkpt lat="44.73794" lon="0.45336">
        <ele>176</ele>
        <time>2024-07-14T07:21:03Z</time>
      </trkpt>
      <trkpt lat="44.73792" lon="0.45336">
        <ele>176.1</ele>
        <time>2024-07-14T07:21:04Z</time>
      </trkpt>
      <trkpt lat="44.7379" lon="0.45336">
        <ele>176.2</ele>
        <time>2024-07-14T07:21:05Z</time>
      </trkpt>
      <trkpt lat="44.73788" lon="0.45336">
        <ele>176.3</ele>
        <time>2024-07-14T07:21:06Z</time>
      </trkpt>
      <trkpt lat="44.73784" lon="0.45337">
        <ele>176.5</ele>
        <time>2024-07-14T07:21:08Z</time>
      </trkpt>
      <trkpt lat="44.7378" lon="0.45337">
        <ele>176.6</ele>
        <time>2024-07-14T07:21:10Z</time>
      </trkpt>
      <trkpt lat="44.73778" lon="0.45337">
        <ele>176.6</ele>
        <time>2024-07-14T07:21:11Z</time>
      </trkpt>
      <trkpt lat="44.73775" lon="0.45336">
        <ele>176.6</ele>
        <time>2024-07-14T07:21:12Z</time>
      </trkpt>
      <trkpt lat="44.73769" lon="0.45333">
        <ele>176.6</ele>
        <time>2024-07-14T07:21:14Z</time>
      </trkpt>
      <trkpt lat="44.73764" lon="0.45329">
        <ele>176.5</ele>
        <time>2024-07-14T07:21:16Z</time>
      </trkpt>
      <trkpt lat="44.73763" lon="0.45324">
        <ele>176.4</ele>
        <time>2024-07-14T07:21:18Z</time>
      </trkpt>
      <trkpt lat="44.73764" lon="0.45319">
        <ele>176.3</ele>
        <time>2024-07-14T07:21:20Z</time>
      </trkpt>
      <trkpt lat="44.73766" lon="0.45317">
        <ele>176.3</ele>
        <time>2024-07-14T07:21:21Z</time>
      </trkpt>
      <trkpt lat="44.73767" lon="0.45314">
        <ele>176.3</ele>
        <time>2024-07-14T07:21:22Z</time>
      </trkpt>
      <trkpt lat="44.73768" lon="0.45306">
        <ele>176.3</ele>
        <time>2024-07-14T07:21:24Z</time>
      </trkpt>
      <trkpt lat="44.7377" lon="0.45302">
        <ele>176.3</ele>
        <time>2024-07-14T07:21:25Z</time>
      </trkpt>
      <trkpt lat="44.7377" lon="0.453">
        <ele>176.3</ele>
        <time>2024-07-14T07:21:26Z</time>
      </trkpt>
      <trkpt lat="44.73774" lon="0.45293">
        <ele>176.3</ele>
        <time>2024-07-14T07:21:28Z</time>
      </trkpt>
      <trkpt lat="44.73776" lon="0.4529">
        <ele>176.3</ele>
        <time>2024-07-14T07:21:29Z</time>
      </trkpt>
      <trkpt lat="44.73777" lon="0.45286">
        <ele>176.3</ele>
        <time>2024-07-14T07:21:30Z</time>
      </trkpt>
      <trkpt lat="44.73779" lon="0.45281">
        <ele>176.3</ele>
        <time>2024-07-14T07:21:32Z</time>
      </trkpt>
      <trkpt lat="44.73782" lon="0.45275">
        <ele>176.3</ele>
        <time>2024-07-14T07:21:34Z</time>
      </trkpt>
      <trkpt lat="44.73783" lon="0.45272">
        <ele>176.2</ele>
        <time>2024-07-14T07:21:35Z</time>
      </trkpt>
      <trkpt lat="44.73785" lon="0.4527">
        <ele>176.2</ele>
        <time>2024-07-14T07:21:36Z</time>
      </trkpt>
      <trkpt lat="44.73788" lon="0.45262">
        <ele>176.2</ele>
        <time>2024-07-14T07:21:38Z</time>
      </trkpt>
      <trkpt lat="44.73789" lon="0.45259">
        <ele>176.2</ele>
        <time>2024-07-14T07:21:39Z</time>
      </trkpt>
      <trkpt lat="44.73791" lon="0.45256">
        <ele>176.2</ele>
        <time>2024-07-14T07:21:40Z</time>
      </trkpt>
      <trkpt lat="44.73793" lon="0.45255">
        <ele>176.1</ele>
        <time>2024-07-14T07:21:41Z</time>
      </trkpt>
      <trkpt lat="44.73795" lon="0.45254">
        <ele>176.1</ele>
        <time>2024-07-14T07:21:42Z</time>
      </trkpt>
      <trkpt lat="44.73799" lon="0.45248">
        <ele>176</ele>
        <time>2024-07-14T07:21:44Z</time>
      </trkpt>
      <trkpt lat="44.73802" lon="0.45238">
        <ele>175.7</ele>
        <time>2024-07-14T07:21:46Z</time>
      </trkpt>
      <trkpt lat="44.73804" lon="0.45234">
        <ele>175.6</ele>
        <time>2024-07-14T07:21:47Z</time>
      </trkpt>
      <trkpt lat="44.73806" lon="0.45228">
        <ele>175.4</ele>
        <time>2024-07-14T07:21:48Z</time>
      </trkpt>
      <trkpt lat="44.73811" lon="0.45221">
        <ele>175.2</ele>
        <time>2024-07-14T07:21:50Z</time>
      </trkpt>
      <trkpt lat="44.73815" lon="0.45208">
        <ele>174.8</ele>
        <time>2024-07-14T07:21:52Z</time>
      </trkpt>
      <trkpt lat="44.7382" lon="0.45196">
        <ele>174.4</ele>
        <time>2024-07-14T07:21:54Z</time>
      </trkpt>
      <trkpt lat="44.73822" lon="0.45188">
        <ele>174.2</ele>
        <time>2024-07-14T07:21:55Z</time>
      </trkpt>
      <trkpt lat="44.73825" lon="0.45183">
        <ele>174.1</ele>
        <time>2024-07-14T07:21:56Z</time>
      </trkpt>
      <trkpt lat="44.73827" lon="0.45177">
        <ele>173.9</ele>
        <time>2024-07-14T07:21:57Z</time>
      </trkpt>
      <trkpt lat="44.73829" lon="0.4517">
        <ele>173.8</ele>
        <time>2024-07-14T07:21:58Z</time>
      </trkpt>
      <trkpt lat="44.73831" lon="0.45163">
        <ele>173.7</ele>
        <time>2024-07-14T07:21:59Z</time>
      </trkpt>
      <trkpt lat="44.73833" lon="0.45158">
        <ele>173.6</ele>
        <time>2024-07-14T07:22:00Z</time>
      </trkpt>
      <trkpt lat="44.73835" lon="0.45145">
        <ele>173.4</ele>
        <time>2024-07-14T07:22:02Z</time>
      </trkpt>
      <trkpt lat="44.73835" lon="0.45136">
        <ele>173.3</ele>
        <time>2024-07-14T07:22:04Z</time>
      </trkpt>
      <trkpt lat="44.73834" lon="0.45126">
        <ele>173.2</ele>
        <time>2024-07-14T07:22:06Z</time>
      </trkpt>
      <trkpt lat="44.73834" lon="0.45118">
        <ele>173.2</ele>
        <time>2024-07-14T07:22:08Z</time>
      </trkpt>
      <trkpt lat="44.73832" lon="0.45116">
        <ele>173.2</ele>
        <time>2024-07-14T07:22:09Z</time>
      </trkpt>
      <trkpt lat="44.73831" lon="0.45114">
        <ele>173.2</ele>
        <time>2024-07-14T07:22:10Z</time>
      </trkpt>
      <trkpt lat="44.73824" lon="0.45112">
        <ele>173.3</ele>
        <time>2024-07-14T07:22:12Z</time>
      </trkpt>
      <trkpt lat="44.73819" lon="0.45112">
        <ele>173.3</ele>
        <time>2024-07-14T07:22:14Z</time>
      </trkpt>
      <trkpt lat="44.73816" lon="0.45112">
        <ele>173.3</ele>
        <time>2024-07-14T07:22:15Z</time>
      </trkpt>
      <trkpt lat="44.73814" lon="0.45112">
        <ele>173.2</ele>
        <time>2024-07-14T07:22:16Z</time>
      </trkpt>
      <trkpt lat="44.73808" lon="0.4511">
        <ele>173.1</ele>
        <time>2024-07-14T07:22:18Z</time>
      </trkpt>
      <trkpt lat="44.73805" lon="0.45108">
        <ele>172.9</ele>
        <time>2024-07-14T07:22:19Z</time>
      </trkpt>
      <trkpt lat="44.73801" lon="0.45105">
        <ele>172.7</ele>
        <time>2024-07-14T07:22:20Z</time>
      </trkpt>
      <trkpt lat="44.73797" lon="0.45101">
        <ele>172.4</ele>
        <time>2024-07-14T07:22:21Z</time>
      </trkpt>
      <trkpt lat="44.73794" lon="0.45098">
        <ele>172.2</ele>
        <time>2024-07-14T07:22:22Z</time>
      </trkpt>
      <trkpt lat="44.73792" lon="0.45095">
        <ele>172</ele>
        <time>2024-07-14T07:22:23Z</time>
      </trkpt>
      <trkpt lat="44.7379" lon="0.45093">
        <ele>171.9</ele>
        <time>2024-07-14T07:22:24Z</time>
      </trkpt>
      <trkpt lat="44.73788" lon="0.45092">
        <ele>171.8</ele>
        <time>2024-07-14T07:22:26Z</time>
      </trkpt>
      <trkpt lat="44.73783" lon="0.4509">
        <ele>171.4</ele>
        <time>2024-07-14T07:22:35Z</time>
      </trkpt>
      <trkpt lat="44.73782" lon="0.45088">
        <ele>171.3</ele>
        <time>2024-07-14T07:22:36Z</time>
      </trkpt>
      <trkpt lat="44.73782" lon="0.45083">
        <ele>171</ele>
        <time>2024-07-14T07:22:38Z</time>
      </trkpt>
      <trkpt lat="44.73778" lon="0.45075">
        <ele>170.5</ele>
        <time>2024-07-14T07:22:40Z</time>
      </trkpt>
      <trkpt lat="44.73777" lon="0.45071">
        <ele>170.2</ele>
        <time>2024-07-14T07:22:41Z</time>
      </trkpt>
      <trkpt lat="44.73775" lon="0.45065">
        <ele>169.9</ele>
        <time>2024-07-14T07:22:42Z</time>
      </trkpt>
      <trkpt lat="44.73773" lon="0.45059">
        <ele>169.5</ele>
        <time>2024-07-14T07:22:43Z</time>
      </trkpt>
      <trkpt lat="44.73771" lon="0.45052">
        <ele>169.1</ele>
        <time>2024-07-14T07:22:44Z</time>
      </trkpt>
      <trkpt lat="44.73766" lon="0.45041">
        <ele>168.4</ele>
        <time>2024-07-14T07:22:46Z</time>
      </trkpt>
      <trkpt lat="44.73761" lon="0.45036">
        <ele>168</ele>
        <time>2024-07-14T07:22:47Z</time>
      </trkpt>
      <trkpt lat="44.73757" lon="0.45032">
        <ele>167.6</ele>
        <time>2024-07-14T07:22:48Z</time>
      </trkpt>
      <trkpt lat="44.73752" lon="0.45028">
        <ele>167.2</ele>
        <time>2024-07-14T07:22:49Z</time>
      </trkpt>
      <trkpt lat="44.73746" lon="0.45025">
        <ele>166.7</ele>
        <time>2024-07-14T07:22:50Z</time>
      </trkpt>
      <trkpt lat="44.73739" lon="0.45023">
        <ele>166.1</ele>
        <time>2024-07-14T07:22:51Z</time>
      </trkpt>
      <trkpt lat="44.73733" lon="0.4502">
        <ele>165.5</ele>
        <time>2024-07-14T07:22:52Z</time>
      </trkpt>
      <trkpt lat="44.7372" lon="0.45014">
        <ele>164.5</ele>
        <time>2024-07-14T07:22:54Z</time>
      </trkpt>
      <trkpt lat="44.73707" lon="0.4501">
        <ele>163.7</ele>
        <time>2024-07-14T07:22:56Z</time>
      </trkpt>
      <trkpt lat="44.737" lon="0.45006">
        <ele>163.3</ele>
        <time>2024-07-14T07:22:57Z</time>
      </trkpt>
      <trkpt lat="44.73694" lon="0.45002">
        <ele>162.9</ele>
        <time>2024-07-14T07:22:58Z</time>
      </trkpt>
      <trkpt lat="44.7368" lon="0.44997">
        <ele>162</ele>
        <time>2024-07-14T07:23:00Z</time>
      </trkpt>
      <trkpt lat="44.73666" lon="0.44988">
        <ele>161</ele>
        <time>2024-07-14T07:23:02Z</time>
      </trkpt>
      <trkpt lat="44.73651" lon="0.4498">
        <ele>160</ele>
        <time>2024-07-14T07:23:04Z</time>
      </trkpt>
      <trkpt lat="44.73637" lon="0.44975">
        <ele>159.3</ele>
        <time>2024-07-14T07:23:06Z</time>
      </trkpt>
      <trkpt lat="44.73624" lon="0.4497">
        <ele>158.6</ele>
        <time>2024-07-14T07:23:08Z</time>
      </trkpt>
      <trkpt lat="44.73616" lon="0.4497">
        <ele>158.3</ele>
        <time>2024-07-14T07:23:09Z</time>
      </trkpt>
      <trkpt lat="44.7361" lon="0.4497">
        <ele>158</ele>
        <time>2024-07-14T07:23:10Z</time>
      </trkpt>
      <trkpt lat="44.73597" lon="0.44966">
        <ele>157.4</ele>
        <time>2024-07-14T07:23:12Z</time>
      </trkpt>
      <trkpt lat="44.73591" lon="0.44963">
        <ele>157.2</ele>
        <time>2024-07-14T07:23:13Z</time>
      </trkpt>
      <trkpt lat="44.73584" lon="0.44961">
        <ele>156.9</ele>
        <time>2024-07-14T07:23:14Z</time>
      </trkpt>
      <trkpt lat="44.73571" lon="0.4496">
        <ele>156.2</ele>
        <time>2024-07-14T07:23:16Z</time>
      </trkpt>
      <trkpt lat="44.73564" lon="0.44961">
        <ele>155.7</ele>
        <time>2024-07-14T07:23:17Z</time>
      </trkpt>
      <trkpt lat="44.73558" lon="0.44959">
        <ele>155.2</ele>
        <time>2024-07-14T07:23:18Z</time>
      </trkpt>
      <trkpt lat="44.73545" lon="0.44953">
        <ele>154.1</ele>
        <time>2024-07-14T07:23:20Z</time>
      </trkpt>
      <trkpt lat="44.73539" lon="0.44949">
        <ele>153.5</ele>
        <time>2024-07-14T07:23:21Z</time>
      </trkpt>
      <trkpt lat="44.73532" lon="0.44942">
        <ele>153.1</ele>
        <time>2024-07-14T07:23:22Z</time>
      </trkpt>
      <trkpt lat="44.73523" lon="0.44929">
        <ele>152.5</ele>
        <time>2024-07-14T07:23:24Z</time>
      </trkpt>
      <trkpt lat="44.73513" lon="0.44914">
        <ele>152.1</ele>
        <time>2024-07-14T07:23:26Z</time>
      </trkpt>
      <trkpt lat="44.73505" lon="0.44898">
        <ele>151.7</ele>
        <time>2024-07-14T07:23:28Z</time>
      </trkpt>
      <trkpt lat="44.73501" lon="0.4489">
        <ele>151.5</ele>
        <time>2024-07-14T07:23:29Z</time>
      </trkpt>
      <trkpt lat="44.73498" lon="0.44883">
        <ele>151.3</ele>
        <time>2024-07-14T07:23:30Z</time>
      </trkpt>
      <trkpt lat="44.73496" lon="0.44877">
        <ele>151.2</ele>
        <time>2024-07-14T07:23:31Z</time>
      </trkpt>
      <trkpt lat="44.73496" lon="0.44871">
        <ele>151.2</ele>
        <time>2024-07-14T07:23:32Z</time>
      </trkpt>
      <trkpt lat="44.73497" lon="0.44867">
        <ele>151.1</ele>
        <time>2024-07-14T07:23:33Z</time>
      </trkpt>
      <trkpt lat="44.735" lon="0.44863">
        <ele>151.1</ele>
        <time>2024-07-14T07:23:34Z</time>
      </trkpt>
      <trkpt lat="44.73502" lon="0.4486">
        <ele>151</ele>
        <time>2024-07-14T07:23:35Z</time>
      </trkpt>
      <trkpt lat="44.73504" lon="0.44855">
        <ele>151</ele>
        <time>2024-07-14T07:23:36Z</time>
      </trkpt>
      <trkpt lat="44.73508" lon="0.44847">
        <ele>150.9</ele>
        <time>2024-07-14T07:23:38Z</time>
      </trkpt>
      <trkpt lat="44.73511" lon="0.44836">
        <ele>150.8</ele>
        <time>2024-07-14T07:23:40Z</time>
      </trkpt>
      <trkpt lat="44.73514" lon="0.44825">
        <ele>150.6</ele>
        <time>2024-07-14T07:23:42Z</time>
      </trkpt>
      <trkpt lat="44.73515" lon="0.44811">
        <ele>150.5</ele>
        <time>2024-07-14T07:23:44Z</time>
      </trkpt>
      <trkpt lat="44.73512" lon="0.44795">
        <ele>150.3</ele>
        <time>2024-07-14T07:23:46Z</time>
      </trkpt>
      <trkpt lat="44.73509" lon="0.44789">
        <ele>150.3</ele>
        <time>2024-07-14T07:23:47Z</time>
      </trkpt>
      <trkpt lat="44.73505" lon="0.44784">
        <ele>150.3</ele>
        <time>2024-07-14T07:23:48Z</time>
      </trkpt>
      <trkpt lat="44.73498" lon="0.44775">
        <ele>150.4</ele>
        <time>2024-07-14T07:23:50Z</time>
      </trkpt>
      <trkpt lat="44.73492" lon="0.44767">
        <ele>150.6</ele>
        <time>2024-07-14T07:23:52Z</time>
      </trkpt>
      <trkpt lat="44.73487" lon="0.44763">
        <ele>150.7</ele>
        <time>2024-07-14T07:23:54Z</time>
      </trkpt>
      <trkpt lat="44.73481" lon="0.44761">
        <ele>151.1</ele>
        <time>2024-07-14T07:23:56Z</time>
      </trkpt>
      <trkpt lat="44.73476" lon="0.44759">
        <ele>151.3</ele>
        <time>2024-07-14T07:23:58Z</time>
      </trkpt>
      <trkpt lat="44.73472" lon="0.44757">
        <ele>151.6</ele>
        <time>2024-07-14T07:24:00Z</time>
      </trkpt>
      <trkpt lat="44.7347" lon="0.44755">
        <ele>151.7</ele>
        <time>2024-07-14T07:24:01Z</time>
      </trkpt>
      <trkpt lat="44.73468" lon="0.44753">
        <ele>151.9</ele>
        <time>2024-07-14T07:24:02Z</time>
      </trkpt>
      <trkpt lat="44.73463" lon="0.44751">
        <ele>152.3</ele>
        <time>2024-07-14T07:24:04Z</time>
      </trkpt>
      <trkpt lat="44.7346" lon="0.44748">
        <ele>152.7</ele>
        <time>2024-07-14T07:24:06Z</time>
      </trkpt>
      <trkpt lat="44.73455" lon="0.44746">
        <ele>153.1</ele>
        <time>2024-07-14T07:24:08Z</time>
      </trkpt>
      <trkpt lat="44.73453" lon="0.44744">
        <ele>153.4</ele>
        <time>2024-07-14T07:24:09Z</time>
      </trkpt>
      <trkpt lat="44.73451" lon="0.44742">
        <ele>153.6</ele>
        <time>2024-07-14T07:24:10Z</time>
      </trkpt>
      <trkpt lat="44.73446" lon="0.4474">
        <ele>153.9</ele>
        <time>2024-07-14T07:24:12Z</time>
      </trkpt>
      <trkpt lat="44.73442" lon="0.44738">
        <ele>154.2</ele>
        <time>2024-07-14T07:24:14Z</time>
      </trkpt>
      <trkpt lat="44.73437" lon="0.44736">
        <ele>154.5</ele>
        <time>2024-07-14T07:24:16Z</time>
      </trkpt>
      <trkpt lat="44.73435" lon="0.44735">
        <ele>154.7</ele>
        <time>2024-07-14T07:24:17Z</time>
      </trkpt>
      <trkpt lat="44.73433" lon="0.44735">
        <ele>154.7</ele>
        <time>2024-07-14T07:24:18Z</time>
      </trkpt>
      <trkpt lat="44.73429" lon="0.44731">
        <ele>154.9</ele>
        <time>2024-07-14T07:24:20Z</time>
      </trkpt>
      <trkpt lat="44.73423" lon="0.44728">
        <ele>155</ele>
        <time>2024-07-14T07:24:22Z</time>
      </trkpt>
      <trkpt lat="44.7342" lon="0.44726">
        <ele>155.1</ele>
        <time>2024-07-14T07:24:23Z</time>
      </trkpt>
      <trkpt lat="44.73417" lon="0.44725">
        <ele>155.1</ele>
        <time>2024-07-14T07:24:24Z</time>
      </trkpt>
      <trkpt lat="44.73411" lon="0.4472">
        <ele>155.1</ele>
        <time>2024-07-14T07:24:26Z</time>
      </trkpt>
      <trkpt lat="44.73405" lon="0.44715">
        <ele>155.2</ele>
        <time>2024-07-14T07:24:28Z</time>
      </trkpt>
      <trkpt lat="44.73402" lon="0.44714">
        <ele>155.2</ele>
        <time>2024-07-14T07:24:29Z</time>
      </trkpt>
      <trkpt lat="44.73399" lon="0.44712">
        <ele>155.3</ele>
        <time>2024-07-14T07:24:30Z</time>
      </trkpt>
      <trkpt lat="44.73393" lon="0.4471">
        <ele>155.6</ele>
        <time>2024-07-14T07:24:32Z</time>
      </trkpt>
      <trkpt lat="44.73386" lon="0.44707">
        <ele>155.9</ele>
        <time>2024-07-14T07:24:34Z</time>
      </trkpt>
      <trkpt lat="44.73379" lon="0.44705">
        <ele>156.3</ele>
        <time>2024-07-14T07:24:36Z</time>
      </trkpt>
      <trkpt lat="44.73372" lon="0.44703">
        <ele>156.7</ele>
        <time>2024-07-14T07:24:38Z</time>
      </trkpt>
      <trkpt lat="44.73367" lon="0.44698">
        <ele>157.1</ele>
        <time>2024-07-14T07:24:40Z</time>
      </trkpt>
      <trkpt lat="44.73364" lon="0.44696">
        <ele>157.2</ele>
        <time>2024-07-14T07:24:41Z</time>
      </trkpt>
      <trkpt lat="44.73361" lon="0.44695">
        <ele>157.4</ele>
        <time>2024-07-14T07:24:42Z</time>
      </trkpt>
      <trkpt lat="44.73359" lon="0.44693">
        <ele>157.5</ele>
        <time>2024-07-14T07:24:43Z</time>
      </trkpt>
      <trkpt lat="44.73356" lon="0.44691">
        <ele>157.7</ele>
        <time>2024-07-14T07:24:44Z</time>
      </trkpt>
      <trkpt lat="44.73351" lon="0.44688">
        <ele>157.9</ele>
        <time>2024-07-14T07:24:46Z</time>
      </trkpt>
      <trkpt lat="44.73348" lon="0.44686">
        <ele>158.1</ele>
        <time>2024-07-14T07:24:47Z</time>
      </trkpt>
      <trkpt lat="44.73345" lon="0.44685">
        <ele>158.2</ele>
        <time>2024-07-14T07:24:48Z</time>
      </trkpt>
      <trkpt lat="44.73342" lon="0.44684">
        <ele>158.3</ele>
        <time>2024-07-14T07:24:49Z</time>
      </trkpt>
      <trkpt lat="44.73339" lon="0.44682">
        <ele>158.3</ele>
        <time>2024-07-14T07:24:50Z</time>
      </trkpt>
      <trkpt lat="44.73333" lon="0.44677">
        <ele>158.3</ele>
        <time>2024-07-14T07:24:52Z</time>
      </trkpt>
      <trkpt lat="44.73327" lon="0.44671">
        <ele>158.2</ele>
        <time>2024-07-14T07:24:54Z</time>
      </trkpt>
      <trkpt lat="44.73324" lon="0.44668">
        <ele>158.2</ele>
        <time>2024-07-14T07:24:55Z</time>
      </trkpt>
      <trkpt lat="44.73321" lon="0.44665">
        <ele>158.1</ele>
        <time>2024-07-14T07:24:56Z</time>
      </trkpt>
      <trkpt lat="44.73314" lon="0.4466">
        <ele>157.9</ele>
        <time>2024-07-14T07:24:58Z</time>
      </trkpt>
      <trkpt lat="44.73308" lon="0.44653">
        <ele>157.7</ele>
        <time>2024-07-14T07:25:00Z</time>
      </trkpt>
      <trkpt lat="44.733" lon="0.44647">
        <ele>157.5</ele>
        <time>2024-07-14T07:25:02Z</time>
      </trkpt>
      <trkpt lat="44.73297" lon="0.44644">
        <ele>157.4</ele>
        <time>2024-07-14T07:25:03Z</time>
      </trkpt>
      <trkpt lat="44.73293" lon="0.4464">
        <ele>157.3</ele>
        <time>2024-07-14T07:25:04Z</time>
      </trkpt>
      <trkpt lat="44.73285" lon="0.44634">
        <ele>157.1</ele>
        <time>2024-07-14T07:25:06Z</time>
      </trkpt>
      <trkpt lat="44.73277" lon="0.44628">
        <ele>156.9</ele>
        <time>2024-07-14T07:25:08Z</time>
      </trkpt>
      <trkpt lat="44.73273" lon="0.44625">
        <ele>156.7</ele>
        <time>2024-07-14T07:25:09Z</time>
      </trkpt>
      <trkpt lat="44.73269" lon="0.44622">
        <ele>156.6</ele>
        <time>2024-07-14T07:25:10Z</time>
      </trkpt>
      <trkpt lat="44.73259" lon="0.44615">
        <ele>156.3</ele>
        <time>2024-07-14T07:25:12Z</time>
      </trkpt>
      <trkpt lat="44.7325" lon="0.44608">
        <ele>156</ele>
        <time>2024-07-14T07:25:14Z</time>
      </trkpt>
      <trkpt lat="44.73241" lon="0.44601">
        <ele>155.7</ele>
        <time>2024-07-14T07:25:16Z</time>
      </trkpt>
      <trkpt lat="44.73236" lon="0.44598">
        <ele>155.6</ele>
        <time>2024-07-14T07:25:17Z</time>
      </trkpt>
      <trkpt lat="44.73231" lon="0.44595">
        <ele>155.5</ele>
        <time>2024-07-14T07:25:18Z</time>
      </trkpt>
      <trkpt lat="44.73222" lon="0.44588">
        <ele>155.2</ele>
        <time>2024-07-14T07:25:20Z</time>
      </trkpt>
      <trkpt lat="44.73214" lon="0.44581">
        <ele>155.1</ele>
        <time>2024-07-14T07:25:22Z</time>
      </trkpt>
      <trkpt lat="44.73206" lon="0.44575">
        <ele>155</ele>
        <time>2024-07-14T07:25:24Z</time>
      </trkpt>
      <trkpt lat="44.73202" lon="0.44573">
        <ele>155</ele>
        <time>2024-07-14T07:25:25Z</time>
      </trkpt>
      <trkpt lat="44.73198" lon="0.44571">
        <ele>155</ele>
        <time>2024-07-14T07:25:26Z</time>
      </trkpt>
      <trkpt lat="44.73195" lon="0.4457">
        <ele>155.1</ele>
        <time>2024-07-14T07:25:27Z</time>
      </trkpt>
      <trkpt lat="44.73193" lon="0.44572">
        <ele>155.1</ele>
        <time>2024-07-14T07:25:28Z</time>
      </trkpt>
      <trkpt lat="44.7319" lon="0.44579">
        <ele>155.2</ele>
        <time>2024-07-14T07:25:30Z</time>
      </trkpt>
      <trkpt lat="44.73188" lon="0.44587">
        <ele>155.3</ele>
        <time>2024-07-14T07:25:32Z</time>
      </trkpt>
      <trkpt lat="44.73185" lon="0.44596">
        <ele>155.4</ele>
        <time>2024-07-14T07:25:34Z</time>
      </trkpt>
      <trkpt lat="44.73183" lon="0.44605">
        <ele>155.6</ele>
        <time>2024-07-14T07:25:36Z</time>
      </trkpt>
      <trkpt lat="44.7318" lon="0.44613">
        <ele>155.7</ele>
        <time>2024-07-14T07:25:38Z</time>
      </trkpt>
      <trkpt lat="44.73178" lon="0.44617">
        <ele>155.8</ele>
        <time>2024-07-14T07:25:39Z</time>
      </trkpt>
      <trkpt lat="44.73177" lon="0.44621">
        <ele>155.9</ele>
        <time>2024-07-14T07:25:40Z</time>
      </trkpt>
      <trkpt lat="44.73174" lon="0.4463">
        <ele>156.1</ele>
        <time>2024-07-14T07:25:42Z</time>
      </trkpt>
      <trkpt lat="44.73171" lon="0.44638">
        <ele>156.3</ele>
        <time>2024-07-14T07:25:44Z</time>
      </trkpt>
      <trkpt lat="44.73168" lon="0.44647">
        <ele>156.6</ele>
        <time>2024-07-14T07:25:46Z</time>
      </trkpt>
      <trkpt lat="44.73165" lon="0.44655">
        <ele>156.8</ele>
        <time>2024-07-14T07:25:48Z</time>
      </trkpt>
      <trkpt lat="44.73163" lon="0.44664">
        <ele>157</ele>
        <time>2024-07-14T07:25:50Z</time>
      </trkpt>
      <trkpt lat="44.73161" lon="0.44673">
        <ele>157.2</ele>
        <time>2024-07-14T07:25:52Z</time>
      </trkpt>
      <trkpt lat="44.73159" lon="0.44681">
        <ele>157.4</ele>
        <time>2024-07-14T07:25:54Z</time>
      </trkpt>
      <trkpt lat="44.73157" lon="0.4469">
        <ele>157.6</ele>
        <time>2024-07-14T07:25:56Z</time>
      </trkpt>
      <trkpt lat="44.73155" lon="0.44699">
        <ele>157.8</ele>
        <time>2024-07-14T07:25:58Z</time>
      </trkpt>
      <trkpt lat="44.73153" lon="0.44707">
        <ele>158</ele>
        <time>2024-07-14T07:26:00Z</time>
      </trkpt>
      <trkpt lat="44.73151" lon="0.44715">
        <ele>158.2</ele>
        <time>2024-07-14T07:26:02Z</time>
      </trkpt>
      <trkpt lat="44.7315" lon="0.44724">
        <ele>158.5</ele>
        <time>2024-07-14T07:26:04Z</time>
      </trkpt>
      <trkpt lat="44.73149" lon="0.44728">
        <ele>158.7</ele>
        <time>2024-07-14T07:26:05Z</time>
      </trkpt>
      <trkpt lat="44.73149" lon="0.44732">
        <ele>158.8</ele>
        <time>2024-07-14T07:26:06Z</time>
      </trkpt>
      <trkpt lat="44.73147" lon="0.44739">
        <ele>159.2</ele>
        <time>2024-07-14T07:26:08Z</time>
      </trkpt>
      <trkpt lat="44.73146" lon="0.44746">
        <ele>159.5</ele>
        <time>2024-07-14T07:26:10Z</time>
      </trkpt>
      <trkpt lat="44.73144" lon="0.44753">
        <ele>159.7</ele>
        <time>2024-07-14T07:26:12Z</time>
      </trkpt>
      <trkpt lat="44.73143" lon="0.4476">
        <ele>159.9</ele>
        <time>2024-07-14T07:26:14Z</time>
      </trkpt>
      <trkpt lat="44.73142" lon="0.44766">
        <ele>160.1</ele>
        <time>2024-07-14T07:26:16Z</time>
      </trkpt>
      <trkpt lat="44.73141" lon="0.44773">
        <ele>160.3</ele>
        <time>2024-07-14T07:26:18Z</time>
      </trkpt>
      <trkpt lat="44.7314" lon="0.4478">
        <ele>160.5</ele>
        <time>2024-07-14T07:26:20Z</time>
      </trkpt>
      <trkpt lat="44.73138" lon="0.44786">
        <ele>160.7</ele>
        <time>2024-07-14T07:26:22Z</time>
      </trkpt>
      <trkpt lat="44.73136" lon="0.44792">
        <ele>160.8</ele>
        <time>2024-07-14T07:26:24Z</time>
      </trkpt>
      <trkpt lat="44.73135" lon="0.448">
        <ele>160.9</ele>
        <time>2024-07-14T07:26:26Z</time>
      </trkpt>
      <trkpt lat="44.73133" lon="0.44807">
        <ele>160.9</ele>
        <time>2024-07-14T07:26:28Z</time>
      </trkpt>
      <trkpt lat="44.73131" lon="0.44815">
        <ele>160.9</ele>
        <time>2024-07-14T07:26:30Z</time>
      </trkpt>
      <trkpt lat="44.73131" lon="0.44818">
        <ele>160.8</ele>
        <time>2024-07-14T07:26:31Z</time>
      </trkpt>
      <trkpt lat="44.73129" lon="0.44822">
        <ele>160.8</ele>
        <time>2024-07-14T07:26:32Z</time>
      </trkpt>
      <trkpt lat="44.73128" lon="0.44824">
        <ele>160.7</ele>
        <time>2024-07-14T07:26:33Z</time>
      </trkpt>
      <trkpt lat="44.73125" lon="0.44825">
        <ele>160.6</ele>
        <time>2024-07-14T07:26:34Z</time>
      </trkpt>
      <trkpt lat="44.73123" lon="0.44826">
        <ele>160.5</ele>
        <time>2024-07-14T07:26:35Z</time>
      </trkpt>
      <trkpt lat="44.7312" lon="0.44826">
        <ele>160.4</ele>
        <time>2024-07-14T07:26:36Z</time>
      </trkpt>
      <trkpt lat="44.73114" lon="0.44827">
        <ele>160.2</ele>
        <time>2024-07-14T07:26:38Z</time>
      </trkpt>
      <trkpt lat="44.73108" lon="0.44826">
        <ele>159.9</ele>
        <time>2024-07-14T07:26:40Z</time>
      </trkpt>
      <trkpt lat="44.73105" lon="0.44825">
        <ele>159.7</ele>
        <time>2024-07-14T07:26:41Z</time>
      </trkpt>
      <trkpt lat="44.73101" lon="0.44823">
        <ele>159.5</ele>
        <time>2024-07-14T07:26:42Z</time>
      </trkpt>
      <trkpt lat="44.73094" lon="0.44821">
        <ele>159.1</ele>
        <time>2024-07-14T07:26:44Z</time>
      </trkpt>
      <trkpt lat="44.73087" lon="0.44816">
        <ele>158.7</ele>
        <time>2024-07-14T07:26:46Z</time>
      </trkpt>
      <trkpt lat="44.73083" lon="0.44813">
        <ele>158.6</ele>
        <time>2024-07-14T07:26:47Z</time>
      </trkpt>
      <trkpt lat="44.73079" lon="0.4481">
        <ele>158.4</ele>
        <time>2024-07-14T07:26:48Z</time>
      </trkpt>
      <trkpt lat="44.7307" lon="0.44802">
        <ele>158</ele>
        <time>2024-07-14T07:26:50Z</time>
      </trkpt>
      <trkpt lat="44.73062" lon="0.44794">
        <ele>157.4</ele>
        <time>2024-07-14T07:26:52Z</time>
      </trkpt>
      <trkpt lat="44.73054" lon="0.44786">
        <ele>156.5</ele>
        <time>2024-07-14T07:26:54Z</time>
      </trkpt>
      <trkpt lat="44.73049" lon="0.44782">
        <ele>155.6</ele>
        <time>2024-07-14T07:26:55Z</time>
      </trkpt>
      <trkpt lat="44.73043" lon="0.44779">
        <ele>154.9</ele>
        <time>2024-07-14T07:26:56Z</time>
      </trkpt>
      <trkpt lat="44.73036" lon="0.44778">
        <ele>154.1</ele>
        <time>2024-07-14T07:26:57Z</time>
      </trkpt>
      <trkpt lat="44.73029" lon="0.44778">
        <ele>153.3</ele>
        <time>2024-07-14T07:26:58Z</time>
      </trkpt>
      <trkpt lat="44.73015" lon="0.44778">
        <ele>151.7</ele>
        <time>2024-07-14T07:27:00Z</time>
      </trkpt>
      <trkpt lat="44.72999" lon="0.44778">
        <ele>150.1</ele>
        <time>2024-07-14T07:27:02Z</time>
      </trkpt>
      <trkpt lat="44.72983" lon="0.44777">
        <ele>147.9</ele>
        <time>2024-07-14T07:27:04Z</time>
      </trkpt>
      <trkpt lat="44.72965" lon="0.44776">
        <ele>145.8</ele>
        <time>2024-07-14T07:27:06Z</time>
      </trkpt>
      <trkpt lat="44.72947" lon="0.44776">
        <ele>144</ele>
        <time>2024-07-14T07:27:08Z</time>
      </trkpt>
      <trkpt lat="44.72937" lon="0.44776">
        <ele>143.2</ele>
        <time>2024-07-14T07:27:09Z</time>
      </trkpt>
      <trkpt lat="44.72928" lon="0.44775">
        <ele>142.4</ele>
        <time>2024-07-14T07:27:10Z</time>
      </trkpt>
      <trkpt lat="44.72908" lon="0.44773">
        <ele>141</ele>
        <time>2024-07-14T07:27:12Z</time>
      </trkpt>
      <trkpt lat="44.72889" lon="0.44772">
        <ele>139.7</ele>
        <time>2024-07-14T07:27:14Z</time>
      </trkpt>
      <trkpt lat="44.7287" lon="0.44771">
        <ele>138.3</ele>
        <time>2024-07-14T07:27:16Z</time>
      </trkpt>
      <trkpt lat="44.72851" lon="0.4477">
        <ele>136.7</ele>
        <time>2024-07-14T07:27:18Z</time>
      </trkpt>
      <trkpt lat="44.72832" lon="0.44767">
        <ele>134.9</ele>
        <time>2024-07-14T07:27:20Z</time>
      </trkpt>
      <trkpt lat="44.72813" lon="0.44766">
        <ele>133.2</ele>
        <time>2024-07-14T07:27:22Z</time>
      </trkpt>
      <trkpt lat="44.72793" lon="0.44766">
        <ele>131.5</ele>
        <time>2024-07-14T07:27:24Z</time>
      </trkpt>
      <trkpt lat="44.72774" lon="0.44765">
        <ele>130.2</ele>
        <time>2024-07-14T07:27:26Z</time>
      </trkpt>
      <trkpt lat="44.72755" lon="0.44765">
        <ele>129.1</ele>
        <time>2024-07-14T07:27:28Z</time>
      </trkpt>
      <trkpt lat="44.72746" lon="0.44765">
        <ele>128.7</ele>
        <time>2024-07-14T07:27:29Z</time>
      </trkpt>
      <trkpt lat="44.72737" lon="0.44764">
        <ele>128.3</ele>
        <time>2024-07-14T07:27:30Z</time>
      </trkpt>
      <trkpt lat="44.7272" lon="0.44764">
        <ele>127.4</ele>
        <time>2024-07-14T07:27:32Z</time>
      </trkpt>
      <trkpt lat="44.72704" lon="0.44765">
        <ele>126.4</ele>
        <time>2024-07-14T07:27:34Z</time>
      </trkpt>
      <trkpt lat="44.72687" lon="0.44765">
        <ele>125.5</ele>
        <time>2024-07-14T07:27:36Z</time>
      </trkpt>
      <trkpt lat="44.7267" lon="0.44765">
        <ele>124.6</ele>
        <time>2024-07-14T07:27:38Z</time>
      </trkpt>
      <trkpt lat="44.72653" lon="0.44767">
        <ele>123.9</ele>
        <time>2024-07-14T07:27:40Z</time>
      </trkpt>
      <trkpt lat="44.72636" lon="0.44768">
        <ele>123.2</ele>
        <time>2024-07-14T07:27:42Z</time>
      </trkpt>
      <trkpt lat="44.72628" lon="0.44768">
        <ele>122.9</ele>
        <time>2024-07-14T07:27:43Z</time>
      </trkpt>
      <trkpt lat="44.7262" lon="0.44769">
        <ele>122.5</ele>
        <time>2024-07-14T07:27:44Z</time>
      </trkpt>
      <trkpt lat="44.72612" lon="0.44769">
        <ele>122.1</ele>
        <time>2024-07-14T07:27:45Z</time>
      </trkpt>
      <trkpt lat="44.72604" lon="0.4477">
        <ele>121.6</ele>
        <time>2024-07-14T07:27:46Z</time>
      </trkpt>
      <trkpt lat="44.72587" lon="0.44768">
        <ele>120.4</ele>
        <time>2024-07-14T07:27:48Z</time>
      </trkpt>
      <trkpt lat="44.72579" lon="0.44766">
        <ele>119.7</ele>
        <time>2024-07-14T07:27:49Z</time>
      </trkpt>
      <trkpt lat="44.72571" lon="0.44764">
        <ele>119</ele>
        <time>2024-07-14T07:27:50Z</time>
      </trkpt>
      <trkpt lat="44.72562" lon="0.44762">
        <ele>118.2</ele>
        <time>2024-07-14T07:27:51Z</time>
      </trkpt>
      <trkpt lat="44.72553" lon="0.44759">
        <ele>117.6</ele>
        <time>2024-07-14T07:27:52Z</time>
      </trkpt>
      <trkpt lat="44.72544" lon="0.44755">
        <ele>117</ele>
        <time>2024-07-14T07:27:53Z</time>
      </trkpt>
      <trkpt lat="44.72535" lon="0.44752">
        <ele>116.5</ele>
        <time>2024-07-14T07:27:54Z</time>
      </trkpt>
      <trkpt lat="44.72517" lon="0.44747">
        <ele>115.5</ele>
        <time>2024-07-14T07:27:56Z</time>
      </trkpt>
      <trkpt lat="44.72499" lon="0.44743">
        <ele>114.9</ele>
        <time>2024-07-14T07:27:58Z</time>
      </trkpt>
      <trkpt lat="44.7249" lon="0.44741">
        <ele>114.6</ele>
        <time>2024-07-14T07:27:59Z</time>
      </trkpt>
      <trkpt lat="44.72482" lon="0.44739">
        <ele>114.3</ele>
        <time>2024-07-14T07:28:00Z</time>
      </trkpt>
      <trkpt lat="44.72465" lon="0.44733">
        <ele>113.7</ele>
        <time>2024-07-14T07:28:02Z</time>
      </trkpt>
      <trkpt lat="44.72449" lon="0.44729">
        <ele>113.3</ele>
        <time>2024-07-14T07:28:04Z</time>
      </trkpt>
      <trkpt lat="44.72433" lon="0.44725">
        <ele>112.9</ele>
        <time>2024-07-14T07:28:06Z</time>
      </trkpt>
      <trkpt lat="44.72417" lon="0.44721">
        <ele>112.4</ele>
        <time>2024-07-14T07:28:08Z</time>
      </trkpt>
      <trkpt lat="44.72401" lon="0.44717">
        <ele>111.8</ele>
        <time>2024-07-14T07:28:10Z</time>
      </trkpt>
      <trkpt lat="44.72386" lon="0.44714">
        <ele>111.2</ele>
        <time>2024-07-14T07:28:12Z</time>
      </trkpt>
      <trkpt lat="44.72373" lon="0.44712">
        <ele>110.8</ele>
        <time>2024-07-14T07:28:14Z</time>
      </trkpt>
      <trkpt lat="44.72362" lon="0.44708">
        <ele>110.4</ele>
        <time>2024-07-14T07:28:16Z</time>
      </trkpt>
      <trkpt lat="44.72356" lon="0.44705">
        <ele>110.2</ele>
        <time>2024-07-14T07:28:18Z</time>
      </trkpt>
      <trkpt lat="44.72354" lon="0.44706">
        <ele>110.2</ele>
        <time>2024-07-14T07:28:19Z</time>
      </trkpt>
      <trkpt lat="44.72352" lon="0.44707">
        <ele>110.2</ele>
        <time>2024-07-14T07:28:20Z</time>
      </trkpt>
      <trkpt lat="44.7235" lon="0.4471">
        <ele>110.3</ele>
        <time>2024-07-14T07:28:21Z</time>
      </trkpt>
      <trkpt lat="44.72348" lon="0.44714">
        <ele>110.3</ele>
        <time>2024-07-14T07:28:22Z</time>
      </trkpt>
      <trkpt lat="44.72346" lon="0.44718">
        <ele>110.4</ele>
        <time>2024-07-14T07:28:23Z</time>
      </trkpt>
      <trkpt lat="44.72345" lon="0.44722">
        <ele>110.4</ele>
        <time>2024-07-14T07:28:24Z</time>
      </trkpt>
      <trkpt lat="44.72341" lon="0.44731">
        <ele>110.5</ele>
        <time>2024-07-14T07:28:26Z</time>
      </trkpt>
      <trkpt lat="44.72337" lon="0.4474">
        <ele>110.7</ele>
        <time>2024-07-14T07:28:28Z</time>
      </trkpt>
      <trkpt lat="44.72335" lon="0.44745">
        <ele>110.7</ele>
        <time>2024-07-14T07:28:29Z</time>
      </trkpt>
      <trkpt lat="44.72333" lon="0.4475">
        <ele>110.8</ele>
        <time>2024-07-14T07:28:30Z</time>
      </trkpt>
      <trkpt lat="44.72329" lon="0.4476">
        <ele>110.9</ele>
        <time>2024-07-14T07:28:32Z</time>
      </trkpt>
      <trkpt lat="44.72325" lon="0.44771">
        <ele>111</ele>
        <time>2024-07-14T07:28:34Z</time>
      </trkpt>
      <trkpt lat="44.72324" lon="0.44776">
        <ele>111</ele>
        <time>2024-07-14T07:28:35Z</time>
      </trkpt>
      <trkpt lat="44.72321" lon="0.44781">
        <ele>111.1</ele>
        <time>2024-07-14T07:28:36Z</time>
      </trkpt>
      <trkpt lat="44.72317" lon="0.44791">
        <ele>111.2</ele>
        <time>2024-07-14T07:28:38Z</time>
      </trkpt>
      <trkpt lat="44.72313" lon="0.44803">
        <ele>111.3</ele>
        <time>2024-07-14T07:28:40Z</time>
      </trkpt>
      <trkpt lat="44.72312" lon="0.44808">
        <ele>111.3</ele>
        <time>2024-07-14T07:28:41Z</time>
      </trkpt>
      <trkpt lat="44.72309" lon="0.44814">
        <ele>111.4</ele>
        <time>2024-07-14T07:28:42Z</time>
      </trkpt>
      <trkpt lat="44.72306" lon="0.44825">
        <ele>111.4</ele>
        <time>2024-07-14T07:28:44Z</time>
      </trkpt>
      <trkpt lat="44.72302" lon="0.44835">
        <ele>111.5</ele>
        <time>2024-07-14T07:28:46Z</time>
      </trkpt>
      <trkpt lat="44.72297" lon="0.44846">
        <ele>111.5</ele>
        <time>2024-07-14T07:28:48Z</time>
      </trkpt>
      <trkpt lat="44.72293" lon="0.44857">
        <ele>111.4</ele>
        <time>2024-07-14T07:28:50Z</time>
      </trkpt>
      <trkpt lat="44.72289" lon="0.44869">
        <ele>111.3</ele>
        <time>2024-07-14T07:28:52Z</time>
      </trkpt>
      <trkpt lat="44.72285" lon="0.4488">
        <ele>111.1</ele>
        <time>2024-07-14T07:28:54Z</time>
      </trkpt>
      <trkpt lat="44.72283" lon="0.44886">
        <ele>111</ele>
        <time>2024-07-14T07:28:55Z</time>
      </trkpt>
      <trkpt lat="44.72281" lon="0.44892">
        <ele>110.9</ele>
        <time>2024-07-14T07:28:56Z</time>
      </trkpt>
      <trkpt lat="44.72277" lon="0.44905">
        <ele>110.6</ele>
        <time>2024-07-14T07:28:58Z</time>
      </trkpt>
      <trkpt lat="44.72272" lon="0.44919">
        <ele>110.2</ele>
        <time>2024-07-14T07:29:00Z</time>
      </trkpt>
      <trkpt lat="44.72268" lon="0.44935">
        <ele>109.8</ele>
        <time>2024-07-14T07:29:02Z</time>
      </trkpt>
      <trkpt lat="44.72264" lon="0.44951">
        <ele>109.4</ele>
        <time>2024-07-14T07:29:04Z</time>
      </trkpt>
      <trkpt lat="44.7226" lon="0.44968">
        <ele>109.2</ele>
        <time>2024-07-14T07:29:06Z</time>
      </trkpt>
      <trkpt lat="44.72257" lon="0.44986">
        <ele>109</ele>
        <time>2024-07-14T07:29:08Z</time>
      </trkpt>
      <trkpt lat="44.72255" lon="0.44995">
        <ele>108.9</ele>
        <time>2024-07-14T07:29:09Z</time>
      </trkpt>
      <trkpt lat="44.72253" lon="0.45003">
        <ele>108.8</ele>
        <time>2024-07-14T07:29:10Z</time>
      </trkpt>
      <trkpt lat="44.72249" lon="0.45019">
        <ele>108.8</ele>
        <time>2024-07-14T07:29:12Z</time>
      </trkpt>
      <trkpt lat="44.72245" lon="0.45035">
        <ele>109.1</ele>
        <time>2024-07-14T07:29:14Z</time>
      </trkpt>
      <trkpt lat="44.72244" lon="0.45042">
        <ele>109.2</ele>
        <time>2024-07-14T07:29:15Z</time>
      </trkpt>
      <trkpt lat="44.72243" lon="0.45049">
        <ele>109.4</ele>
        <time>2024-07-14T07:29:16Z</time>
      </trkpt>
      <trkpt lat="44.7224" lon="0.45062">
        <ele>109.7</ele>
        <time>2024-07-14T07:29:18Z</time>
      </trkpt>
      <trkpt lat="44.72239" lon="0.45074">
        <ele>110.1</ele>
        <time>2024-07-14T07:29:20Z</time>
      </trkpt>
      <trkpt lat="44.72238" lon="0.4508">
        <ele>110.3</ele>
        <time>2024-07-14T07:29:21Z</time>
      </trkpt>
      <trkpt lat="44.72238" lon="0.45086">
        <ele>110.5</ele>
        <time>2024-07-14T07:29:22Z</time>
      </trkpt>
      <trkpt lat="44.72237" lon="0.45098">
        <ele>110.8</ele>
        <time>2024-07-14T07:29:24Z</time>
      </trkpt>
      <trkpt lat="44.72237" lon="0.4511">
        <ele>111.1</ele>
        <time>2024-07-14T07:29:26Z</time>
      </trkpt>
      <trkpt lat="44.72238" lon="0.45122">
        <ele>111.4</ele>
        <time>2024-07-14T07:29:28Z</time>
      </trkpt>
      <trkpt lat="44.72238" lon="0.45133">
        <ele>111.7</ele>
        <time>2024-07-14T07:29:30Z</time>
      </trkpt>
      <trkpt lat="44.72239" lon="0.45145">
        <ele>112</ele>
        <time>2024-07-14T07:29:32Z</time>
      </trkpt>
      <trkpt lat="44.7224" lon="0.45156">
        <ele>112.2</ele>
        <time>2024-07-14T07:29:34Z</time>
      </trkpt>
      <trkpt lat="44.7224" lon="0.45166">
        <ele>112.5</ele>
        <time>2024-07-14T07:29:36Z</time>
      </trkpt>
      <trkpt lat="44.72241" lon="0.45176">
        <ele>112.8</ele>
        <time>2024-07-14T07:29:38Z</time>
      </trkpt>
      <trkpt lat="44.72242" lon="0.45186">
        <ele>113.1</ele>
        <time>2024-07-14T07:29:40Z</time>
      </trkpt>
      <trkpt lat="44.72242" lon="0.45195">
        <ele>113.4</ele>
        <time>2024-07-14T07:29:42Z</time>
      </trkpt>
      <trkpt lat="44.72242" lon="0.45205">
        <ele>113.7</ele>
        <time>2024-07-14T07:29:44Z</time>
      </trkpt>
      <trkpt lat="44.72243" lon="0.45214">
        <ele>114</ele>
        <time>2024-07-14T07:29:46Z</time>
      </trkpt>
      <trkpt lat="44.72243" lon="0.45223">
        <ele>114.3</ele>
        <time>2024-07-14T07:29:48Z</time>
      </trkpt>
      <trkpt lat="44.72242" lon="0.45232">
        <ele>114.6</ele>
        <time>2024-07-14T07:29:50Z</time>
      </trkpt>
      <trkpt lat="44.72242" lon="0.45236">
        <ele>114.8</ele>
        <time>2024-07-14T07:29:51Z</time>
      </trkpt>
      <trkpt lat="44.72243" lon="0.4524">
        <ele>114.9</ele>
        <time>2024-07-14T07:29:52Z</time>
      </trkpt>
      <trkpt lat="44.72245" lon="0.45248">
        <ele>115.3</ele>
        <time>2024-07-14T07:29:54Z</time>
      </trkpt>
      <trkpt lat="44.72247" lon="0.45251">
        <ele>115.4</ele>
        <time>2024-07-14T07:29:55Z</time>
      </trkpt>
      <trkpt lat="44.7225" lon="0.45254">
        <ele>115.5</ele>
        <time>2024-07-14T07:29:56Z</time>
      </trkpt>
      <trkpt lat="44.72257" lon="0.45257">
        <ele>115.6</ele>
        <time>2024-07-14T07:29:58Z</time>
      </trkpt>
      <trkpt lat="44.7226" lon="0.45258">
        <ele>115.7</ele>
        <time>2024-07-14T07:29:59Z</time>
      </trkpt>
      <trkpt lat="44.72263" lon="0.45259">
        <ele>115.7</ele>
        <time>2024-07-14T07:30:00Z</time>
      </trkpt>
      <trkpt lat="44.7227" lon="0.45261">
        <ele>115.7</ele>
        <time>2024-07-14T07:30:02Z</time>
      </trkpt>
      <trkpt lat="44.72277" lon="0.45263">
        <ele>115.7</ele>
        <time>2024-07-14T07:30:04Z</time>
      </trkpt>
      <trkpt lat="44.72284" lon="0.45265">
        <ele>115.6</ele>
        <time>2024-07-14T07:30:06Z</time>
      </trkpt>
      <trkpt lat="44.72292" lon="0.45267">
        <ele>115.5</ele>
        <time>2024-07-14T07:30:08Z</time>
      </trkpt>
      <trkpt lat="44.723" lon="0.4527">
        <ele>115.4</ele>
        <time>2024-07-14T07:30:10Z</time>
      </trkpt>
      <trkpt lat="44.72308" lon="0.45273">
        <ele>115.3</ele>
        <time>2024-07-14T07:30:12Z</time>
      </trkpt>
      <trkpt lat="44.72313" lon="0.45274">
        <ele>115.2</ele>
        <time>2024-07-14T07:30:13Z</time>
      </trkpt>
      <trkpt lat="44.72317" lon="0.45276">
        <ele>115.1</ele>
        <time>2024-07-14T07:30:14Z</time>
      </trkpt>
      <trkpt lat="44.72326" lon="0.45278">
        <ele>114.8</ele>
        <time>2024-07-14T07:30:16Z</time>
      </trkpt>
      <trkpt lat="44.72335" lon="0.45282">
        <ele>114.6</ele>
        <time>2024-07-14T07:30:18Z</time>
      </trkpt>
      <trkpt lat="44.7234" lon="0.45283">
        <ele>114.5</ele>
        <time>2024-07-14T07:30:19Z</time>
      </trkpt>
      <trkpt lat="44.72345" lon="0.45284">
        <ele>114.4</ele>
        <time>2024-07-14T07:30:20Z</time>
      </trkpt>
      <trkpt lat="44.72355" lon="0.45287">
        <ele>114.3</ele>
        <time>2024-07-14T07:30:22Z</time>
      </trkpt>
      <trkpt lat="44.7236" lon="0.45288">
        <ele>114.3</ele>
        <time>2024-07-14T07:30:23Z</time>
      </trkpt>
      <trkpt lat="44.72365" lon="0.4529">
        <ele>114.2</ele>
        <time>2024-07-14T07:30:24Z</time>
      </trkpt>
      <trkpt lat="44.7237" lon="0.45292">
        <ele>114.2</ele>
        <time>2024-07-14T07:30:25Z</time>
      </trkpt>
      <trkpt lat="44.72375" lon="0.45293">
        <ele>114.2</ele>
        <time>2024-07-14T07:30:26Z</time>
      </trkpt>
      <trkpt lat="44.72384" lon="0.45296">
        <ele>114</ele>
        <time>2024-07-14T07:30:28Z</time>
      </trkpt>
      <trkpt lat="44.72393" lon="0.45299">
        <ele>113.7</ele>
        <time>2024-07-14T07:30:30Z</time>
      </trkpt>
      <trkpt lat="44.72403" lon="0.45303">
        <ele>113.4</ele>
        <time>2024-07-14T07:30:32Z</time>
      </trkpt>
      <trkpt lat="44.72413" lon="0.45306">
        <ele>113.1</ele>
        <time>2024-07-14T07:30:34Z</time>
      </trkpt>
      <trkpt lat="44.72418" lon="0.45307">
        <ele>113</ele>
        <time>2024-07-14T07:30:35Z</time>
      </trkpt>
      <trkpt lat="44.72423" lon="0.45309">
        <ele>112.8</ele>
        <time>2024-07-14T07:30:36Z</time>
      </trkpt>
      <trkpt lat="44.72434" lon="0.45314">
        <ele>112.7</ele>
        <time>2024-07-14T07:30:38Z</time>
      </trkpt>
      <trkpt lat="44.72445" lon="0.45316">
        <ele>112.6</ele>
        <time>2024-07-14T07:30:40Z</time>
      </trkpt>
      <trkpt lat="44.72455" lon="0.45319">
        <ele>112.7</ele>
        <time>2024-07-14T07:30:42Z</time>
      </trkpt>
      <trkpt lat="44.72466" lon="0.45322">
        <ele>112.8</ele>
        <time>2024-07-14T07:30:44Z</time>
      </trkpt>
      <trkpt lat="44.72476" lon="0.45325">
        <ele>113</ele>
        <time>2024-07-14T07:30:46Z</time>
      </trkpt>
      <trkpt lat="44.7248" lon="0.45327">
        <ele>113.1</ele>
        <time>2024-07-14T07:30:47Z</time>
      </trkpt>
      <trkpt lat="44.72485" lon="0.45329">
        <ele>113.3</ele>
        <time>2024-07-14T07:30:48Z</time>
      </trkpt>
      <trkpt lat="44.72493" lon="0.4533">
        <ele>113.5</ele>
        <time>2024-07-14T07:30:50Z</time>
      </trkpt>
      <trkpt lat="44.72501" lon="0.45333">
        <ele>113.8</ele>
        <time>2024-07-14T07:30:52Z</time>
      </trkpt>
      <trkpt lat="44.72504" lon="0.45336">
        <ele>113.9</ele>
        <time>2024-07-14T07:30:53Z</time>
      </trkpt>
      <trkpt lat="44.72505" lon="0.4534">
        <ele>114.1</ele>
        <time>2024-07-14T07:30:54Z</time>
      </trkpt>
      <trkpt lat="44.72505" lon="0.45345">
        <ele>114.2</ele>
        <time>2024-07-14T07:30:55Z</time>
      </trkpt>
      <trkpt lat="44.72505" lon="0.4535">
        <ele>114.3</ele>
        <time>2024-07-14T07:30:56Z</time>
      </trkpt>
      <trkpt lat="44.72504" lon="0.4536">
        <ele>114.6</ele>
        <time>2024-07-14T07:30:58Z</time>
      </trkpt>
      <trkpt lat="44.72504" lon="0.45368">
        <ele>114.8</ele>
        <time>2024-07-14T07:31:00Z</time>
      </trkpt>
      <trkpt lat="44.72504" lon="0.45378">
        <ele>115.1</ele>
        <time>2024-07-14T07:31:02Z</time>
      </trkpt>
      <trkpt lat="44.72503" lon="0.45382">
        <ele>115.2</ele>
        <time>2024-07-14T07:31:03Z</time>
      </trkpt>
      <trkpt lat="44.72503" lon="0.45387">
        <ele>115.3</ele>
        <time>2024-07-14T07:31:04Z</time>
      </trkpt>
      <trkpt lat="44.72503" lon="0.45396">
        <ele>115.6</ele>
        <time>2024-07-14T07:31:06Z</time>
      </trkpt>
      <trkpt lat="44.72502" lon="0.45405">
        <ele>115.9</ele>
        <time>2024-07-14T07:31:08Z</time>
      </trkpt>
      <trkpt lat="44.72502" lon="0.45414">
        <ele>116.1</ele>
        <time>2024-07-14T07:31:10Z</time>
      </trkpt>
      <trkpt lat="44.72503" lon="0.45418">
        <ele>116.3</ele>
        <time>2024-07-14T07:31:11Z</time>
      </trkpt>
      <trkpt lat="44.72503" lon="0.45422">
        <ele>116.4</ele>
        <time>2024-07-14T07:31:12Z</time>
      </trkpt>
      <trkpt lat="44.72505" lon="0.45431">
        <ele>116.6</ele>
        <time>2024-07-14T07:31:14Z</time>
      </trkpt>
      <trkpt lat="44.72509" lon="0.45439">
        <ele>116.8</ele>
        <time>2024-07-14T07:31:16Z</time>
      </trkpt>
      <trkpt lat="44.72513" lon="0.45447">
        <ele>117</ele>
        <time>2024-07-14T07:31:18Z</time>
      </trkpt>
      <trkpt lat="44.72517" lon="0.45454">
        <ele>117.2</ele>
        <time>2024-07-14T07:31:20Z</time>
      </trkpt>
      <trkpt lat="44.72521" lon="0.45461">
        <ele>117.3</ele>
        <time>2024-07-14T07:31:22Z</time>
      </trkpt>
      <trkpt lat="44.72524" lon="0.45468">
        <ele>117.5</ele>
        <time>2024-07-14T07:31:24Z</time>
      </trkpt>
      <trkpt lat="44.72526" lon="0.45475">
        <ele>117.7</ele>
        <time>2024-07-14T07:31:26Z</time>
      </trkpt>
      <trkpt lat="44.72528" lon="0.45482">
        <ele>117.9</ele>
        <time>2024-07-14T07:31:28Z</time>
      </trkpt>
      <trkpt lat="44.72529" lon="0.4549">
        <ele>118.1</ele>
        <time>2024-07-14T07:31:30Z</time>
      </trkpt>
      <trkpt lat="44.72528" lon="0.45498">
        <ele>118.3</ele>
        <time>2024-07-14T07:31:32Z</time>
      </trkpt>
      <trkpt lat="44.72528" lon="0.45506">
        <ele>118.5</ele>
        <time>2024-07-14T07:31:34Z</time>
      </trkpt>
      <trkpt lat="44.72527" lon="0.45514">
        <ele>118.7</ele>
        <time>2024-07-14T07:31:36Z</time>
      </trkpt>
      <trkpt lat="44.72527" lon="0.45521">
        <ele>119</ele>
        <time>2024-07-14T07:31:38Z</time>
      </trkpt>
      <trkpt lat="44.72527" lon="0.45529">
        <ele>119.2</ele>
        <time>2024-07-14T07:31:40Z</time>
      </trkpt>
      <trkpt lat="44.72527" lon="0.45532">
        <ele>119.4</ele>
        <time>2024-07-14T07:31:41Z</time>
      </trkpt>
      <trkpt lat="44.72526" lon="0.45536">
        <ele>119.5</ele>
        <time>2024-07-14T07:31:42Z</time>
      </trkpt>
      <trkpt lat="44.72526" lon="0.45544">
        <ele>119.8</ele>
        <time>2024-07-14T07:31:44Z</time>
      </trkpt>
      <trkpt lat="44.72526" lon="0.45551">
        <ele>120.1</ele>
        <time>2024-07-14T07:31:46Z</time>
      </trkpt>
      <trkpt lat="44.72527" lon="0.45554">
        <ele>120.2</ele>
        <time>2024-07-14T07:31:47Z</time>
      </trkpt>
      <trkpt lat="44.72526" lon="0.45557">
        <ele>120.3</ele>
        <time>2024-07-14T07:31:48Z</time>
      </trkpt>
      <trkpt lat="44.72524" lon="0.45564">
        <ele>120.5</ele>
        <time>2024-07-14T07:31:50Z</time>
      </trkpt>
      <trkpt lat="44.72523" lon="0.45568">
        <ele>120.7</ele>
        <time>2024-07-14T07:31:51Z</time>
      </trkpt>
      <trkpt lat="44.72522" lon="0.45573">
        <ele>120.8</ele>
        <time>2024-07-14T07:31:52Z</time>
      </trkpt>
      <trkpt lat="44.72521" lon="0.45581">
        <ele>121.1</ele>
        <time>2024-07-14T07:31:54Z</time>
      </trkpt>
      <trkpt lat="44.72521" lon="0.45589">
        <ele>121.5</ele>
        <time>2024-07-14T07:31:56Z</time>
      </trkpt>
      <trkpt lat="44.72521" lon="0.45598">
        <ele>121.8</ele>
        <time>2024-07-14T07:31:58Z</time>
      </trkpt>
      <trkpt lat="44.72521" lon="0.45606">
        <ele>122.2</ele>
        <time>2024-07-14T07:32:00Z</time>
      </trkpt>
      <trkpt lat="44.72522" lon="0.45614">
        <ele>122.6</ele>
        <time>2024-07-14T07:32:02Z</time>
      </trkpt>
      <trkpt lat="44.72522" lon="0.45621">
        <ele>123</ele>
        <time>2024-07-14T07:32:04Z</time>
      </trkpt>
      <trkpt lat="44.72522" lon="0.45629">
        <ele>123.5</ele>
        <time>2024-07-14T07:32:06Z</time>
      </trkpt>
      <trkpt lat="44.72522" lon="0.45635">
        <ele>124</ele>
        <time>2024-07-14T07:32:08Z</time>
      </trkpt>
      <trkpt lat="44.72523" lon="0.45641">
        <ele>124.5</ele>
        <time>2024-07-14T07:32:10Z</time>
      </trkpt>
      <trkpt lat="44.72524" lon="0.45646">
        <ele>124.9</ele>
        <time>2024-07-14T07:32:12Z</time>
      </trkpt>
      <trkpt lat="44.72525" lon="0.4565">
        <ele>125.2</ele>
        <time>2024-07-14T07:32:14Z</time>
      </trkpt>
      <trkpt lat="44.72526" lon="0.45654">
        <ele>125.5</ele>
        <time>2024-07-14T07:32:16Z</time>
      </trkpt>
      <trkpt lat="44.72527" lon="0.45659">
        <ele>125.9</ele>
        <time>2024-07-14T07:32:18Z</time>
      </trkpt>
      <trkpt lat="44.72527" lon="0.45662">
        <ele>126.1</ele>
        <time>2024-07-14T07:32:19Z</time>
      </trkpt>
      <trkpt lat="44.72528" lon="0.45664">
        <ele>126.3</ele>
        <time>2024-07-14T07:32:20Z</time>
      </trkpt>
      <trkpt lat="44.72529" lon="0.4567">
        <ele>126.6</ele>
        <time>2024-07-14T07:32:22Z</time>
      </trkpt>
      <trkpt lat="44.7253" lon="0.45675">
        <ele>127</ele>
        <time>2024-07-14T07:32:24Z</time>
      </trkpt>
      <trkpt lat="44.72531" lon="0.4568">
        <ele>127.3</ele>
        <time>2024-07-14T07:32:26Z</time>
      </trkpt>
      <trkpt lat="44.72532" lon="0.45682">
        <ele>127.5</ele>
        <time>2024-07-14T07:32:27Z</time>
      </trkpt>
      <trkpt lat="44.72532" lon="0.45685">
        <ele>127.6</ele>
        <time>2024-07-14T07:32:28Z</time>
      </trkpt>
      <trkpt lat="44.72534" lon="0.45689">
        <ele>127.9</ele>
        <time>2024-07-14T07:32:30Z</time>
      </trkpt>
      <trkpt lat="44.72535" lon="0.45692">
        <ele>128.1</ele>
        <time>2024-07-14T07:32:32Z</time>
      </trkpt>
      <trkpt lat="44.72537" lon="0.45696">
        <ele>128.3</ele>
        <time>2024-07-14T07:32:34Z</time>
      </trkpt>
      <trkpt lat="44.72538" lon="0.45701">
        <ele>128.5</ele>
        <time>2024-07-14T07:32:36Z</time>
      </trkpt>
      <trkpt lat="44.72539" lon="0.45703">
        <ele>128.5</ele>
        <time>2024-07-14T07:32:37Z</time>
      </trkpt>
      <trkpt lat="44.72539" lon="0.45705">
        <ele>128.6</ele>
        <time>2024-07-14T07:32:38Z</time>
      </trkpt>
      <trkpt lat="44.72541" lon="0.45711">
        <ele>128.8</ele>
        <time>2024-07-14T07:32:40Z</time>
      </trkpt>
      <trkpt lat="44.72542" lon="0.45716">
        <ele>128.9</ele>
        <time>2024-07-14T07:32:42Z</time>
      </trkpt>
      <trkpt lat="44.72542" lon="0.45721">
        <ele>129.1</ele>
        <time>2024-07-14T07:32:44Z</time>
      </trkpt>
      <trkpt lat="44.72543" lon="0.45726">
        <ele>129.2</ele>
        <time>2024-07-14T07:32:46Z</time>
      </trkpt>
      <trkpt lat="44.72543" lon="0.45732">
        <ele>129.3</ele>
        <time>2024-07-14T07:32:48Z</time>
      </trkpt>
      <trkpt lat="44.72544" lon="0.45738">
        <ele>129.4</ele>
        <time>2024-07-14T07:32:50Z</time>
      </trkpt>
      <trkpt lat="44.72545" lon="0.45743">
        <ele>129.6</ele>
        <time>2024-07-14T07:32:52Z</time>
      </trkpt>
      <trkpt lat="44.72545" lon="0.45749">
        <ele>129.7</ele>
        <time>2024-07-14T07:32:54Z</time>
      </trkpt>
      <trkpt lat="44.72544" lon="0.45754">
        <ele>129.9</ele>
        <time>2024-07-14T07:32:56Z</time>
      </trkpt>
      <trkpt lat="44.72544" lon="0.4576">
        <ele>130.1</ele>
        <time>2024-07-14T07:32:58Z</time>
      </trkpt>
      <trkpt lat="44.72544" lon="0.45766">
        <ele>130.3</ele>
        <time>2024-07-14T07:33:00Z</time>
      </trkpt>
      <trkpt lat="44.72543" lon="0.45771">
        <ele>130.6</ele>
        <time>2024-07-14T07:33:02Z</time>
      </trkpt>
      <trkpt lat="44.72543" lon="0.45774">
        <ele>130.7</ele>
        <time>2024-07-14T07:33:03Z</time>
      </trkpt>
      <trkpt lat="44.72543" lon="0.45777">
        <ele>130.8</ele>
        <time>2024-07-14T07:33:04Z</time>
      </trkpt>
      <trkpt lat="44.72542" lon="0.45782">
        <ele>131</ele>
        <time>2024-07-14T07:33:06Z</time>
      </trkpt>
      <trkpt lat="44.72541" lon="0.45787">
        <ele>131.3</ele>
        <time>2024-07-14T07:33:08Z</time>
      </trkpt>
      <trkpt lat="44.72541" lon="0.45793">
        <ele>131.5</ele>
        <time>2024-07-14T07:33:10Z</time>
      </trkpt>
      <trkpt lat="44.72541" lon="0.45796">
        <ele>131.7</ele>
        <time>2024-07-14T07:33:11Z</time>
      </trkpt>
      <trkpt lat="44.72541" lon="0.45798">
        <ele>131.8</ele>
        <time>2024-07-14T07:33:12Z</time>
      </trkpt>
      <trkpt lat="44.72541" lon="0.45803">
        <ele>132.1</ele>
        <time>2024-07-14T07:33:14Z</time>
      </trkpt>
      <trkpt lat="44.72541" lon="0.45808">
        <ele>132.3</ele>
        <time>2024-07-14T07:33:16Z</time>
      </trkpt>
      <trkpt lat="44.72541" lon="0.45814">
        <ele>132.6</ele>
        <time>2024-07-14T07:33:18Z</time>
      </trkpt>
      <trkpt lat="44.72541" lon="0.45816">
        <ele>132.7</ele>
        <time>2024-07-14T07:33:19Z</time>
      </trkpt>
      <trkpt lat="44.72541" lon="0.45819">
        <ele>132.8</ele>
        <time>2024-07-14T07:33:20Z</time>
      </trkpt>
      <trkpt lat="44.72541" lon="0.45824">
        <ele>133.1</ele>
        <time>2024-07-14T07:33:22Z</time>
      </trkpt>
      <trkpt lat="44.72541" lon="0.45829">
        <ele>133.4</ele>
        <time>2024-07-14T07:33:24Z</time>
      </trkpt>
      <trkpt lat="44.72541" lon="0.45834">
        <ele>133.6</ele>
        <time>2024-07-14T07:33:26Z</time>
      </trkpt>
      <trkpt lat="44.7254" lon="0.45839">
        <ele>133.9</ele>
        <time>2024-07-14T07:33:28Z</time>
      </trkpt>
      <trkpt lat="44.7254" lon="0.45842">
        <ele>134.1</ele>
        <time>2024-07-14T07:33:29Z</time>
      </trkpt>
      <trkpt lat="44.7254" lon="0.45844">
        <ele>134.2</ele>
        <time>2024-07-14T07:33:30Z</time>
      </trkpt>
      <trkpt lat="44.72538" lon="0.45849">
        <ele>134.5</ele>
        <time>2024-07-14T07:33:32Z</time>
      </trkpt>
      <trkpt lat="44.72538" lon="0.45854">
        <ele>134.7</ele>
        <time>2024-07-14T07:33:34Z</time>
      </trkpt>
      <trkpt lat="44.72537" lon="0.45858">
        <ele>135</ele>
        <time>2024-07-14T07:33:36Z</time>
      </trkpt>
      <trkpt lat="44.72536" lon="0.45862">
        <ele>135.3</ele>
        <time>2024-07-14T07:33:38Z</time>
      </trkpt>
      <trkpt lat="44.72536" lon="0.45864">
        <ele>135.5</ele>
        <time>2024-07-14T07:33:39Z</time>
      </trkpt>
      <trkpt lat="44.72535" lon="0.45867">
        <ele>135.7</ele>
        <time>2024-07-14T07:33:40Z</time>
      </trkpt>
      <trkpt lat="44.72534" lon="0.45871">
        <ele>136</ele>
        <time>2024-07-14T07:33:42Z</time>
      </trkpt>
      <trkpt lat="44.72534" lon="0.45875">
        <ele>136.4</ele>
        <time>2024-07-14T07:33:44Z</time>
      </trkpt>
      <trkpt lat="44.72533" lon="0.45879">
        <ele>136.7</ele>
        <time>2024-07-14T07:33:46Z</time>
      </trkpt>
      <trkpt lat="44.72532" lon="0.45882">
        <ele>137.1</ele>
        <time>2024-07-14T07:33:48Z</time>
      </trkpt>
      <trkpt lat="44.72531" lon="0.45886">
        <ele>137.4</ele>
        <time>2024-07-14T07:33:50Z</time>
      </trkpt>
      <trkpt lat="44.7253" lon="0.4589">
        <ele>137.7</ele>
        <time>2024-07-14T07:33:52Z</time>
      </trkpt>
      <trkpt lat="44.72529" lon="0.45894">
        <ele>138.1</ele>
        <time>2024-07-14T07:33:54Z</time>
      </trkpt>
      <trkpt lat="44.72529" lon="0.45897">
        <ele>138.4</ele>
        <time>2024-07-14T07:33:56Z</time>
      </trkpt>
      <trkpt lat="44.72529" lon="0.45901">
        <ele>138.7</ele>
        <time>2024-07-14T07:33:58Z</time>
      </trkpt>
      <trkpt lat="44.72531" lon="0.45905">
        <ele>138.8</ele>
        <time>2024-07-14T07:34:00Z</time>
      </trkpt>
      <trkpt lat="44.72532" lon="0.45907">
        <ele>138.9</ele>
        <time>2024-07-14T07:34:01Z</time>
      </trkpt>
      <trkpt lat="44.72533" lon="0.45908">
        <ele>138.9</ele>
        <time>2024-07-14T07:34:02Z</time>
      </trkpt>
      <trkpt lat="44.72536" lon="0.45912">
        <ele>139.1</ele>
        <time>2024-07-14T07:34:04Z</time>
      </trkpt>
      <trkpt lat="44.7254" lon="0.45916">
        <ele>139.2</ele>
        <time>2024-07-14T07:34:06Z</time>
      </trkpt>
      <trkpt lat="44.72543" lon="0.45918">
        <ele>139.3</ele>
        <time>2024-07-14T07:34:08Z</time>
      </trkpt>
      <trkpt lat="44.72547" lon="0.45921">
        <ele>139.5</ele>
        <time>2024-07-14T07:34:10Z</time>
      </trkpt>
      <trkpt lat="44.7255" lon="0.45924">
        <ele>139.6</ele>
        <time>2024-07-14T07:34:12Z</time>
      </trkpt>
      <trkpt lat="44.72554" lon="0.45927">
        <ele>139.7</ele>
        <time>2024-07-14T07:34:14Z</time>
      </trkpt>
      <trkpt lat="44.72557" lon="0.45929">
        <ele>139.8</ele>
        <time>2024-07-14T07:34:16Z</time>
      </trkpt>
      <trkpt lat="44.7256" lon="0.45931">
        <ele>139.9</ele>
        <time>2024-07-14T07:34:18Z</time>
      </trkpt>
      <trkpt lat="44.72563" lon="0.45934">
        <ele>139.9</ele>
        <time>2024-07-14T07:34:20Z</time>
      </trkpt>
      <trkpt lat="44.72566" lon="0.45937">
        <ele>140</ele>
        <time>2024-07-14T07:34:22Z</time>
      </trkpt>
      <trkpt lat="44.7257" lon="0.45939">
        <ele>140</ele>
        <time>2024-07-14T07:34:24Z</time>
      </trkpt>
      <trkpt lat="44.72573" lon="0.45942">
        <ele>140</ele>
        <time>2024-07-14T07:34:26Z</time>
      </trkpt>
      <trkpt lat="44.72578" lon="0.45946">
        <ele>140</ele>
        <time>2024-07-14T07:34:28Z</time>
      </trkpt>
      <trkpt lat="44.7258" lon="0.45947">
        <ele>140</ele>
        <time>2024-07-14T07:34:29Z</time>
      </trkpt>
      <trkpt lat="44.72582" lon="0.45949">
        <ele>140.1</ele>
        <time>2024-07-14T07:34:30Z</time>
      </trkpt>
      <trkpt lat="44.72587" lon="0.45953">
        <ele>140.1</ele>
        <time>2024-07-14T07:34:32Z</time>
      </trkpt>
      <trkpt lat="44.72591" lon="0.45956">
        <ele>140.2</ele>
        <time>2024-07-14T07:34:34Z</time>
      </trkpt>
      <trkpt lat="44.72596" lon="0.45959">
        <ele>140.4</ele>
        <time>2024-07-14T07:34:36Z</time>
      </trkpt>
      <trkpt lat="44.726" lon="0.45963">
        <ele>140.7</ele>
        <time>2024-07-14T07:34:38Z</time>
      </trkpt>
      <trkpt lat="44.72604" lon="0.45966">
        <ele>140.9</ele>
        <time>2024-07-14T07:34:40Z</time>
      </trkpt>
      <trkpt lat="44.72608" lon="0.45968">
        <ele>141.1</ele>
        <time>2024-07-14T07:34:42Z</time>
      </trkpt>
      <trkpt lat="44.72609" lon="0.4597">
        <ele>141.2</ele>
        <time>2024-07-14T07:34:43Z</time>
      </trkpt>
      <trkpt lat="44.7261" lon="0.45971">
        <ele>141.3</ele>
        <time>2024-07-14T07:34:44Z</time>
      </trkpt>
      <trkpt lat="44.72613" lon="0.45974">
        <ele>141.6</ele>
        <time>2024-07-14T07:34:46Z</time>
      </trkpt>
      <trkpt lat="44.72615" lon="0.45978">
        <ele>141.8</ele>
        <time>2024-07-14T07:34:48Z</time>
      </trkpt>
      <trkpt lat="44.72616" lon="0.45983">
        <ele>142</ele>
        <time>2024-07-14T07:34:50Z</time>
      </trkpt>
      <trkpt lat="44.72617" lon="0.45988">
        <ele>142.3</ele>
        <time>2024-07-14T07:34:52Z</time>
      </trkpt>
      <trkpt lat="44.72616" lon="0.45994">
        <ele>142.5</ele>
        <time>2024-07-14T07:34:54Z</time>
      </trkpt>
      <trkpt lat="44.72615" lon="0.45999">
        <ele>142.7</ele>
        <time>2024-07-14T07:34:56Z</time>
      </trkpt>
      <trkpt lat="44.72614" lon="0.46004">
        <ele>143</ele>
        <time>2024-07-14T07:34:58Z</time>
      </trkpt>
      <trkpt lat="44.72613" lon="0.46009">
        <ele>143.2</ele>
        <time>2024-07-14T07:35:00Z</time>
      </trkpt>
      <trkpt lat="44.72613" lon="0.46013">
        <ele>143.5</ele>
        <time>2024-07-14T07:35:02Z</time>
      </trkpt>
      <trkpt lat="44.72612" lon="0.46018">
        <ele>143.7</ele>
        <time>2024-07-14T07:35:04Z</time>
      </trkpt>
      <trkpt lat="44.72611" lon="0.46023">
        <ele>144</ele>
        <time>2024-07-14T07:35:06Z</time>
      </trkpt>
      <trkpt lat="44.7261" lon="0.46026">
        <ele>144.1</ele>
        <time>2024-07-14T07:35:07Z</time>
      </trkpt>
      <trkpt lat="44.7261" lon="0.46028">
        <ele>144.2</ele>
        <time>2024-07-14T07:35:08Z</time>
      </trkpt>
      <trkpt lat="44.72609" lon="0.46033">
        <ele>144.5</ele>
        <time>2024-07-14T07:35:10Z</time>
      </trkpt>
      <trkpt lat="44.72608" lon="0.46038">
        <ele>144.7</ele>
        <time>2024-07-14T07:35:12Z</time>
      </trkpt>
      <trkpt lat="44.72607" lon="0.46042">
        <ele>145</ele>
        <time>2024-07-14T07:35:14Z</time>
      </trkpt>
      <trkpt lat="44.72606" lon="0.46046">
        <ele>145.3</ele>
        <time>2024-07-14T07:35:16Z</time>
      </trkpt>
      <trkpt lat="44.72606" lon="0.4605">
        <ele>145.5</ele>
        <time>2024-07-14T07:35:18Z</time>
      </trkpt>
      <trkpt lat="44.72605" lon="0.46055">
        <ele>145.8</ele>
        <time>2024-07-14T07:35:20Z</time>
      </trkpt>
      <trkpt lat="44.72605" lon="0.46059">
        <ele>146.1</ele>
        <time>2024-07-14T07:35:22Z</time>
      </trkpt>
      <trkpt lat="44.72604" lon="0.46063">
        <ele>146.3</ele>
        <time>2024-07-14T07:35:24Z</time>
      </trkpt>
      <trkpt lat="44.72603" lon="0.46065">
        <ele>146.4</ele>
        <time>2024-07-14T07:35:25Z</time>
      </trkpt>
      <trkpt lat="44.72603" lon="0.46067">
        <ele>146.6</ele>
        <time>2024-07-14T07:35:26Z</time>
      </trkpt>
      <trkpt lat="44.72602" lon="0.46071">
        <ele>146.9</ele>
        <time>2024-07-14T07:35:28Z</time>
      </trkpt>
      <trkpt lat="44.72602" lon="0.46075">
        <ele>147.1</ele>
        <time>2024-07-14T07:35:30Z</time>
      </trkpt>
      <trkpt lat="44.72601" lon="0.46079">
        <ele>147.4</ele>
        <time>2024-07-14T07:35:32Z</time>
      </trkpt>
      <trkpt lat="44.72601" lon="0.46083">
        <ele>147.6</ele>
        <time>2024-07-14T07:35:34Z</time>
      </trkpt>
      <trkpt lat="44.726" lon="0.46087">
        <ele>147.9</ele>
        <time>2024-07-14T07:35:36Z</time>
      </trkpt>
      <trkpt lat="44.726" lon="0.4609">
        <ele>148.1</ele>
        <time>2024-07-14T07:35:38Z</time>
      </trkpt>
      <trkpt lat="44.72599" lon="0.46094">
        <ele>148.3</ele>
        <time>2024-07-14T07:35:40Z</time>
      </trkpt>
      <trkpt lat="44.72599" lon="0.46097">
        <ele>148.5</ele>
        <time>2024-07-14T07:35:41Z</time>
      </trkpt>
      <trkpt lat="44.72598" lon="0.46098">
        <ele>148.6</ele>
        <time>2024-07-14T07:35:42Z</time>
      </trkpt>
      <trkpt lat="44.72598" lon="0.46102">
        <ele>148.8</ele>
        <time>2024-07-14T07:35:44Z</time>
      </trkpt>
      <trkpt lat="44.72597" lon="0.46106">
        <ele>149</ele>
        <time>2024-07-14T07:35:46Z</time>
      </trkpt>
      <trkpt lat="44.72596" lon="0.4611">
        <ele>149.2</ele>
        <time>2024-07-14T07:35:48Z</time>
      </trkpt>
      <trkpt lat="44.72596" lon="0.46113">
        <ele>149.3</ele>
        <time>2024-07-14T07:35:50Z</time>
      </trkpt>
      <trkpt lat="44.72595" lon="0.46117">
        <ele>149.5</ele>
        <time>2024-07-14T07:35:52Z</time>
      </trkpt>
      <trkpt lat="44.72595" lon="0.46121">
        <ele>149.7</ele>
        <time>2024-07-14T07:35:54Z</time>
      </trkpt>
      <trkpt lat="44.72594" lon="0.46125">
        <ele>149.8</ele>
        <time>2024-07-14T07:35:56Z</time>
      </trkpt>
      <trkpt lat="44.72594" lon="0.46129">
        <ele>149.9</ele>
        <time>2024-07-14T07:35:58Z</time>
      </trkpt>
      <trkpt lat="44.72593" lon="0.46134">
        <ele>150</ele>
        <time>2024-07-14T07:36:00Z</time>
      </trkpt>
      <trkpt lat="44.72592" lon="0.46138">
        <ele>150.1</ele>
        <time>2024-07-14T07:36:02Z</time>
      </trkpt>
      <trkpt lat="44.72592" lon="0.46141">
        <ele>150.2</ele>
        <time>2024-07-14T07:36:03Z</time>
      </trkpt>
      <trkpt lat="44.72592" lon="0.46144">
        <ele>150.2</ele>
        <time>2024-07-14T07:36:04Z</time>
      </trkpt>
      <trkpt lat="44.72592" lon="0.46149">
        <ele>150.2</ele>
        <time>2024-07-14T07:36:06Z</time>
      </trkpt>
      <trkpt lat="44.72591" lon="0.46155">
        <ele>150.2</ele>
        <time>2024-07-14T07:36:08Z</time>
      </trkpt>
      <trkpt lat="44.72591" lon="0.46158">
        <ele>150.2</ele>
        <time>2024-07-14T07:36:09Z</time>
      </trkpt>
      <trkpt lat="44.72592" lon="0.46161">
        <ele>150.2</ele>
        <time>2024-07-14T07:36:10Z</time>
      </trkpt>
      <trkpt lat="44.72595" lon="0.46167">
        <ele>150</ele>
        <time>2024-07-14T07:36:12Z</time>
      </trkpt>
      <trkpt lat="44.72598" lon="0.4617">
        <ele>149.9</ele>
        <time>2024-07-14T07:36:13Z</time>
      </trkpt>
      <trkpt lat="44.726" lon="0.46172">
        <ele>149.8</ele>
        <time>2024-07-14T07:36:14Z</time>
      </trkpt>
      <trkpt lat="44.72606" lon="0.46177">
        <ele>149.6</ele>
        <time>2024-07-14T07:36:16Z</time>
      </trkpt>
      <trkpt lat="44.72612" lon="0.4618">
        <ele>149.4</ele>
        <time>2024-07-14T07:36:18Z</time>
      </trkpt>
      <trkpt lat="44.72616" lon="0.46182">
        <ele>149.3</ele>
        <time>2024-07-14T07:36:19Z</time>
      </trkpt>
      <trkpt lat="44.72619" lon="0.46183">
        <ele>149.2</ele>
        <time>2024-07-14T07:36:20Z</time>
      </trkpt>
      <trkpt lat="44.72627" lon="0.46185">
        <ele>149.1</ele>
        <time>2024-07-14T07:36:22Z</time>
      </trkpt>
      <trkpt lat="44.72634" lon="0.46186">
        <ele>148.9</ele>
        <time>2024-07-14T07:36:24Z</time>
      </trkpt>
      <trkpt lat="44.72638" lon="0.46187">
        <ele>148.8</ele>
        <time>2024-07-14T07:36:25Z</time>
      </trkpt>
      <trkpt lat="44.72642" lon="0.46187">
        <ele>148.8</ele>
        <time>2024-07-14T07:36:26Z</time>
      </trkpt>
      <trkpt lat="44.7265" lon="0.46188">
        <ele>148.6</ele>
        <time>2024-07-14T07:36:28Z</time>
      </trkpt>
      <trkpt lat="44.72658" lon="0.46188">
        <ele>148.5</ele>
        <time>2024-07-14T07:36:30Z</time>
      </trkpt>
      <trkpt lat="44.72665" lon="0.4619">
        <ele>148.5</ele>
        <time>2024-07-14T07:36:32Z</time>
      </trkpt>
      <trkpt lat="44.72668" lon="0.4619">
        <ele>148.5</ele>
        <time>2024-07-14T07:36:33Z</time>
      </trkpt>
      <trkpt lat="44.72672" lon="0.4619">
        <ele>148.4</ele>
        <time>2024-07-14T07:36:34Z</time>
      </trkpt>
      <trkpt lat="44.72678" lon="0.46189">
        <ele>148.4</ele>
        <time>2024-07-14T07:36:36Z</time>
      </trkpt>
      <trkpt lat="44.72685" lon="0.4619">
        <ele>148.3</ele>
        <time>2024-07-14T07:36:38Z</time>
      </trkpt>
      <trkpt lat="44.72692" lon="0.46191">
        <ele>148.3</ele>
        <time>2024-07-14T07:36:40Z</time>
      </trkpt>
      <trkpt lat="44.72699" lon="0.46192">
        <ele>148.3</ele>
        <time>2024-07-14T07:36:42Z</time>
      </trkpt>
      <trkpt lat="44.72707" lon="0.46193">
        <ele>148.3</ele>
        <time>2024-07-14T07:36:44Z</time>
      </trkpt>
      <trkpt lat="44.72714" lon="0.46193">
        <ele>148.3</ele>
        <time>2024-07-14T07:36:46Z</time>
      </trkpt>
      <trkpt lat="44.72718" lon="0.46194">
        <ele>148.3</ele>
        <time>2024-07-14T07:36:47Z</time>
      </trkpt>
      <trkpt lat="44.72721" lon="0.46194">
        <ele>148.3</ele>
        <time>2024-07-14T07:36:48Z</time>
      </trkpt>
      <trkpt lat="44.72724" lon="0.46195">
        <ele>148.3</ele>
        <time>2024-07-14T07:36:49Z</time>
      </trkpt>
      <trkpt lat="44.72728" lon="0.46196">
        <ele>148.3</ele>
        <time>2024-07-14T07:36:50Z</time>
      </trkpt>
      <trkpt lat="44.72735" lon="0.46196">
        <ele>148.3</ele>
        <time>2024-07-14T07:36:52Z</time>
      </trkpt>
      <trkpt lat="44.72742" lon="0.46197">
        <ele>148.4</ele>
        <time>2024-07-14T07:36:54Z</time>
      </trkpt>
      <trkpt lat="44.7275" lon="0.462">
        <ele>148.5</ele>
        <time>2024-07-14T07:36:56Z</time>
      </trkpt>
      <trkpt lat="44.72757" lon="0.46201">
        <ele>148.6</ele>
        <time>2024-07-14T07:36:58Z</time>
      </trkpt>
      <trkpt lat="44.72764" lon="0.46203">
        <ele>148.7</ele>
        <time>2024-07-14T07:37:00Z</time>
      </trkpt>
      <trkpt lat="44.72771" lon="0.46206">
        <ele>148.8</ele>
        <time>2024-07-14T07:37:02Z</time>
      </trkpt>
      <trkpt lat="44.72778" lon="0.46208">
        <ele>148.9</ele>
        <time>2024-07-14T07:37:04Z</time>
      </trkpt>
      <trkpt lat="44.72784" lon="0.46211">
        <ele>149.1</ele>
        <time>2024-07-14T07:37:06Z</time>
      </trkpt>
      <trkpt lat="44.72791" lon="0.46213">
        <ele>149.2</ele>
        <time>2024-07-14T07:37:08Z</time>
      </trkpt>
      <trkpt lat="44.72797" lon="0.46215">
        <ele>149.4</ele>
        <time>2024-07-14T07:37:10Z</time>
      </trkpt>
      <trkpt lat="44.72801" lon="0.46217">
        <ele>149.5</ele>
        <time>2024-07-14T07:37:11Z</time>
      </trkpt>
      <trkpt lat="44.72804" lon="0.46219">
        <ele>149.6</ele>
        <time>2024-07-14T07:37:12Z</time>
      </trkpt>
      <trkpt lat="44.7281" lon="0.46223">
        <ele>149.9</ele>
        <time>2024-07-14T07:37:14Z</time>
      </trkpt>
      <trkpt lat="44.72816" lon="0.46227">
        <ele>150.2</ele>
        <time>2024-07-14T07:37:16Z</time>
      </trkpt>
      <trkpt lat="44.72822" lon="0.46233">
        <ele>150.5</ele>
        <time>2024-07-14T07:37:18Z</time>
      </trkpt>
      <trkpt lat="44.72825" lon="0.46235">
        <ele>150.7</ele>
        <time>2024-07-14T07:37:19Z</time>
      </trkpt>
      <trkpt lat="44.72828" lon="0.46238">
        <ele>150.9</ele>
        <time>2024-07-14T07:37:20Z</time>
      </trkpt>
      <trkpt lat="44.72832" lon="0.46243">
        <ele>151.3</ele>
        <time>2024-07-14T07:37:22Z</time>
      </trkpt>
      <trkpt lat="44.72837" lon="0.46247">
        <ele>151.6</ele>
        <time>2024-07-14T07:37:24Z</time>
      </trkpt>
      <trkpt lat="44.72839" lon="0.46249">
        <ele>151.8</ele>
        <time>2024-07-14T07:37:25Z</time>
      </trkpt>
      <trkpt lat="44.72841" lon="0.46251">
        <ele>152</ele>
        <time>2024-07-14T07:37:26Z</time>
      </trkpt>
      <trkpt lat="44.72846" lon="0.46256">
        <ele>152.4</ele>
        <time>2024-07-14T07:37:28Z</time>
      </trkpt>
      <trkpt lat="44.7285" lon="0.4626">
        <ele>152.9</ele>
        <time>2024-07-14T07:37:30Z</time>
      </trkpt>
      <trkpt lat="44.72854" lon="0.46263">
        <ele>153.3</ele>
        <time>2024-07-14T07:37:32Z</time>
      </trkpt>
      <trkpt lat="44.72857" lon="0.46264">
        <ele>153.5</ele>
        <time>2024-07-14T07:37:33Z</time>
      </trkpt>
      <trkpt lat="44.72859" lon="0.46266">
        <ele>153.8</ele>
        <time>2024-07-14T07:37:34Z</time>
      </trkpt>
      <trkpt lat="44.72864" lon="0.46268">
        <ele>154.2</ele>
        <time>2024-07-14T07:37:36Z</time>
      </trkpt>
      <trkpt lat="44.72868" lon="0.46269">
        <ele>154.7</ele>
        <time>2024-07-14T07:37:38Z</time>
      </trkpt>
      <trkpt lat="44.72873" lon="0.46269">
        <ele>155.1</ele>
        <time>2024-07-14T07:37:40Z</time>
      </trkpt>
      <trkpt lat="44.72875" lon="0.46269">
        <ele>155.3</ele>
        <time>2024-07-14T07:37:41Z</time>
      </trkpt>
      <trkpt lat="44.72877" lon="0.46268">
        <ele>155.5</ele>
        <time>2024-07-14T07:37:42Z</time>
      </trkpt>
      <trkpt lat="44.72881" lon="0.46267">
        <ele>156</ele>
        <time>2024-07-14T07:37:44Z</time>
      </trkpt>
      <trkpt lat="44.72886" lon="0.46266">
        <ele>156.4</ele>
        <time>2024-07-14T07:37:46Z</time>
      </trkpt>
      <trkpt lat="44.7289" lon="0.46266">
        <ele>156.8</ele>
        <time>2024-07-14T07:37:48Z</time>
      </trkpt>
      <trkpt lat="44.72895" lon="0.46265">
        <ele>157.2</ele>
        <time>2024-07-14T07:37:50Z</time>
      </trkpt>
      <trkpt lat="44.72899" lon="0.46262">
        <ele>157.6</ele>
        <time>2024-07-14T07:37:52Z</time>
      </trkpt>
      <trkpt lat="44.72901" lon="0.46257">
        <ele>157.8</ele>
        <time>2024-07-14T07:37:54Z</time>
      </trkpt>
      <trkpt lat="44.72902" lon="0.46254">
        <ele>157.9</ele>
        <time>2024-07-14T07:37:55Z</time>
      </trkpt>
      <trkpt lat="44.72903" lon="0.46251">
        <ele>158</ele>
        <time>2024-07-14T07:37:56Z</time>
      </trkpt>
      <trkpt lat="44.72903" lon="0.46248">
        <ele>158.1</ele>
        <time>2024-07-14T07:37:57Z</time>
      </trkpt>
      <trkpt lat="44.72903" lon="0.46245">
        <ele>158.3</ele>
        <time>2024-07-14T07:37:58Z</time>
      </trkpt>
      <trkpt lat="44.72904" lon="0.46239">
        <ele>158.5</ele>
        <time>2024-07-14T07:38:00Z</time>
      </trkpt>
      <trkpt lat="44.72906" lon="0.46235">
        <ele>158.7</ele>
        <time>2024-07-14T07:38:02Z</time>
      </trkpt>
      <trkpt lat="44.72908" lon="0.46231">
        <ele>158.9</ele>
        <time>2024-07-14T07:38:04Z</time>
      </trkpt>
      <trkpt lat="44.7291" lon="0.46226">
        <ele>159.2</ele>
        <time>2024-07-14T07:38:06Z</time>
      </trkpt>
      <trkpt lat="44.72912" lon="0.4622">
        <ele>159.5</ele>
        <time>2024-07-14T07:38:08Z</time>
      </trkpt>
      <trkpt lat="44.72913" lon="0.46217">
        <ele>159.6</ele>
        <time>2024-07-14T07:38:09Z</time>
      </trkpt>
      <trkpt lat="44.72913" lon="0.46215">
        <ele>159.8</ele>
        <time>2024-07-14T07:38:10Z</time>
      </trkpt>
      <trkpt lat="44.72915" lon="0.46209">
        <ele>160.1</ele>
        <time>2024-07-14T07:38:12Z</time>
      </trkpt>
      <trkpt lat="44.72917" lon="0.46204">
        <ele>160.3</ele>
        <time>2024-07-14T07:38:14Z</time>
      </trkpt>
      <trkpt lat="44.72919" lon="0.46199">
        <ele>160.5</ele>
        <time>2024-07-14T07:38:16Z</time>
      </trkpt>
      <trkpt lat="44.72921" lon="0.46197">
        <ele>160.6</ele>
        <time>2024-07-14T07:38:18Z</time>
      </trkpt>
      <trkpt lat="44.72922" lon="0.46195">
        <ele>160.7</ele>
        <time>2024-07-14T07:38:19Z</time>
      </trkpt>
      <trkpt lat="44.72923" lon="0.46193">
        <ele>160.7</ele>
        <time>2024-07-14T07:38:20Z</time>
      </trkpt>
      <trkpt lat="44.72925" lon="0.46185">
        <ele>160.9</ele>
        <time>2024-07-14T07:38:22Z</time>
      </trkpt>
      <trkpt lat="44.72927" lon="0.46179">
        <ele>161.1</ele>
        <time>2024-07-14T07:38:24Z</time>
      </trkpt>
      <trkpt lat="44.72927" lon="0.46176">
        <ele>161.2</ele>
        <time>2024-07-14T07:38:25Z</time>
      </trkpt>
      <trkpt lat="44.72928" lon="0.46172">
        <ele>161.3</ele>
        <time>2024-07-14T07:38:26Z</time>
      </trkpt>
      <trkpt lat="44.7293" lon="0.46166">
        <ele>161.4</ele>
        <time>2024-07-14T07:38:28Z</time>
      </trkpt>
      <trkpt lat="44.72931" lon="0.46162">
        <ele>161.5</ele>
        <time>2024-07-14T07:38:29Z</time>
      </trkpt>
      <trkpt lat="44.72932" lon="0.46159">
        <ele>161.6</ele>
        <time>2024-07-14T07:38:30Z</time>
      </trkpt>
      <trkpt lat="44.72934" lon="0.46151">
        <ele>161.7</ele>
        <time>2024-07-14T07:38:32Z</time>
      </trkpt>
      <trkpt lat="44.72937" lon="0.46144">
        <ele>161.9</ele>
        <time>2024-07-14T07:38:34Z</time>
      </trkpt>
      <trkpt lat="44.72938" lon="0.46143">
        <ele>161.9</ele>
        <time>2024-07-14T07:38:35Z</time>
      </trkpt>
      <trkpt lat="44.72939" lon="0.4614">
        <ele>162</ele>
        <time>2024-07-14T07:38:36Z</time>
      </trkpt>
      <trkpt lat="44.72942" lon="0.46133">
        <ele>162.1</ele>
        <time>2024-07-14T07:38:38Z</time>
      </trkpt>
      <trkpt lat="44.72943" lon="0.46131">
        <ele>162.2</ele>
        <time>2024-07-14T07:38:39Z</time>
      </trkpt>
      <trkpt lat="44.72944" lon="0.46128">
        <ele>162.3</ele>
        <time>2024-07-14T07:38:40Z</time>
      </trkpt>
      <trkpt lat="44.72946" lon="0.46122">
        <ele>162.4</ele>
        <time>2024-07-14T07:38:42Z</time>
      </trkpt>
      <trkpt lat="44.72949" lon="0.46117">
        <ele>162.5</ele>
        <time>2024-07-14T07:38:44Z</time>
      </trkpt>
      <trkpt lat="44.7295" lon="0.46115">
        <ele>162.6</ele>
        <time>2024-07-14T07:38:45Z</time>
      </trkpt>
      <trkpt lat="44.72951" lon="0.46114">
        <ele>162.6</ele>
        <time>2024-07-14T07:38:46Z</time>
      </trkpt>
      <trkpt lat="44.72953" lon="0.4611">
        <ele>162.7</ele>
        <time>2024-07-14T07:38:47Z</time>
      </trkpt>
      <trkpt lat="44.72954" lon="0.46106">
        <ele>162.8</ele>
        <time>2024-07-14T07:38:48Z</time>
      </trkpt>
      <trkpt lat="44.72957" lon="0.46102">
        <ele>162.9</ele>
        <time>2024-07-14T07:38:50Z</time>
      </trkpt>
      <trkpt lat="44.72958" lon="0.46099">
        <ele>163</ele>
        <time>2024-07-14T07:38:51Z</time>
      </trkpt>
      <trkpt lat="44.7296" lon="0.46096">
        <ele>163</ele>
        <time>2024-07-14T07:38:52Z</time>
      </trkpt>
      <trkpt lat="44.72962" lon="0.46092">
        <ele>163.1</ele>
        <time>2024-07-14T07:38:54Z</time>
      </trkpt>
      <trkpt lat="44.72963" lon="0.4609">
        <ele>163.2</ele>
        <time>2024-07-14T07:38:55Z</time>
      </trkpt>
      <trkpt lat="44.72965" lon="0.46087">
        <ele>163.3</ele>
        <time>2024-07-14T07:38:56Z</time>
      </trkpt>
      <trkpt lat="44.72967" lon="0.46081">
        <ele>163.4</ele>
        <time>2024-07-14T07:38:58Z</time>
      </trkpt>
      <trkpt lat="44.7297" lon="0.46073">
        <ele>163.5</ele>
        <time>2024-07-14T07:39:00Z</time>
      </trkpt>
      <trkpt lat="44.72971" lon="0.4607">
        <ele>163.6</ele>
        <time>2024-07-14T07:39:01Z</time>
      </trkpt>
      <trkpt lat="44.72972" lon="0.46067">
        <ele>163.7</ele>
        <time>2024-07-14T07:39:02Z</time>
      </trkpt>
      <trkpt lat="44.72975" lon="0.46059">
        <ele>163.8</ele>
        <time>2024-07-14T07:39:04Z</time>
      </trkpt>
      <trkpt lat="44.72976" lon="0.46056">
        <ele>163.9</ele>
        <time>2024-07-14T07:39:05Z</time>
      </trkpt>
      <trkpt lat="44.72977" lon="0.46054">
        <ele>163.9</ele>
        <time>2024-07-14T07:39:06Z</time>
      </trkpt>
      <trkpt lat="44.72979" lon="0.46049">
        <ele>164</ele>
        <time>2024-07-14T07:39:08Z</time>
      </trkpt>
      <trkpt lat="44.7298" lon="0.46042">
        <ele>164.2</ele>
        <time>2024-07-14T07:39:10Z</time>
      </trkpt>
      <trkpt lat="44.72981" lon="0.4604">
        <ele>164.2</ele>
        <time>2024-07-14T07:39:11Z</time>
      </trkpt>
      <trkpt lat="44.72982" lon="0.46036">
        <ele>164.3</ele>
        <time>2024-07-14T07:39:12Z</time>
      </trkpt>
      <trkpt lat="44.72982" lon="0.4603">
        <ele>164.4</ele>
        <time>2024-07-14T07:39:13Z</time>
      </trkpt>
      <trkpt lat="44.72983" lon="0.46026">
        <ele>164.4</ele>
        <time>2024-07-14T07:39:14Z</time>
      </trkpt>
      <trkpt lat="44.72984" lon="0.46021">
        <ele>164.5</ele>
        <time>2024-07-14T07:39:15Z</time>
      </trkpt>
      <trkpt lat="44.72986" lon="0.46017">
        <ele>164.6</ele>
        <time>2024-07-14T07:39:16Z</time>
      </trkpt>
      <trkpt lat="44.72987" lon="0.46012">
        <ele>164.7</ele>
        <time>2024-07-14T07:39:17Z</time>
      </trkpt>
      <trkpt lat="44.72987" lon="0.46008">
        <ele>164.8</ele>
        <time>2024-07-14T07:39:18Z</time>
      </trkpt>
      <trkpt lat="44.72988" lon="0.46006">
        <ele>164.8</ele>
        <time>2024-07-14T07:39:19Z</time>
      </trkpt>
      <trkpt lat="44.72988" lon="0.46003">
        <ele>164.9</ele>
        <time>2024-07-14T07:39:20Z</time>
      </trkpt>
      <trkpt lat="44.72989" lon="0.45999">
        <ele>165</ele>
        <time>2024-07-14T07:39:21Z</time>
      </trkpt>
      <trkpt lat="44.7299" lon="0.45997">
        <ele>165</ele>
        <time>2024-07-14T07:39:22Z</time>
      </trkpt>
      <trkpt lat="44.7299" lon="0.45992">
        <ele>165.2</ele>
        <time>2024-07-14T07:39:24Z</time>
      </trkpt>
      <trkpt lat="44.72992" lon="0.45985">
        <ele>165.3</ele>
        <time>2024-07-14T07:39:26Z</time>
      </trkpt>
      <trkpt lat="44.72993" lon="0.45973">
        <ele>165.6</ele>
        <time>2024-07-14T07:39:28Z</time>
      </trkpt>
      <trkpt lat="44.72996" lon="0.4596">
        <ele>165.9</ele>
        <time>2024-07-14T07:39:30Z</time>
      </trkpt>
      <trkpt lat="44.72998" lon="0.45954">
        <ele>166</ele>
        <time>2024-07-14T07:39:31Z</time>
      </trkpt>
      <trkpt lat="44.73" lon="0.4595">
        <ele>166.1</ele>
        <time>2024-07-14T07:39:32Z</time>
      </trkpt>
      <trkpt lat="44.73004" lon="0.45942">
        <ele>166.3</ele>
        <time>2024-07-14T07:39:34Z</time>
      </trkpt>
      <trkpt lat="44.73007" lon="0.45937">
        <ele>166.4</ele>
        <time>2024-07-14T07:39:35Z</time>
      </trkpt>
      <trkpt lat="44.7301" lon="0.45933">
        <ele>166.5</ele>
        <time>2024-07-14T07:39:36Z</time>
      </trkpt>
      <trkpt lat="44.73016" lon="0.45926">
        <ele>166.7</ele>
        <time>2024-07-14T07:39:38Z</time>
      </trkpt>
      <trkpt lat="44.73018" lon="0.45922">
        <ele>166.8</ele>
        <time>2024-07-14T07:39:39Z</time>
      </trkpt>
      <trkpt lat="44.73021" lon="0.45918">
        <ele>166.9</ele>
        <time>2024-07-14T07:39:40Z</time>
      </trkpt>
      <trkpt lat="44.73026" lon="0.45912">
        <ele>167.2</ele>
        <time>2024-07-14T07:39:42Z</time>
      </trkpt>
      <trkpt lat="44.7303" lon="0.45908">
        <ele>167.3</ele>
        <time>2024-07-14T07:39:44Z</time>
      </trkpt>
      <trkpt lat="44.73035" lon="0.45906">
        <ele>167.5</ele>
        <time>2024-07-14T07:39:46Z</time>
      </trkpt>
      <trkpt lat="44.73041" lon="0.45901">
        <ele>167.7</ele>
        <time>2024-07-14T07:39:48Z</time>
      </trkpt>
      <trkpt lat="44.73045" lon="0.459">
        <ele>167.8</ele>
        <time>2024-07-14T07:39:49Z</time>
      </trkpt>
      <trkpt lat="44.73048" lon="0.45899">
        <ele>167.9</ele>
        <time>2024-07-14T07:39:50Z</time>
      </trkpt>
      <trkpt lat="44.73053" lon="0.45896">
        <ele>168.1</ele>
        <time>2024-07-14T07:39:52Z</time>
      </trkpt>
      <trkpt lat="44.73058" lon="0.45894">
        <ele>168.3</ele>
        <time>2024-07-14T07:39:54Z</time>
      </trkpt>
      <trkpt lat="44.73063" lon="0.45893">
        <ele>168.4</ele>
        <time>2024-07-14T07:39:56Z</time>
      </trkpt>
      <trkpt lat="44.73066" lon="0.45893">
        <ele>168.5</ele>
        <time>2024-07-14T07:39:57Z</time>
      </trkpt>
      <trkpt lat="44.73069" lon="0.45894">
        <ele>168.6</ele>
        <time>2024-07-14T07:39:58Z</time>
      </trkpt>
      <trkpt lat="44.73076" lon="0.45895">
        <ele>168.9</ele>
        <time>2024-07-14T07:40:00Z</time>
      </trkpt>
      <trkpt lat="44.73083" lon="0.45893">
        <ele>169.1</ele>
        <time>2024-07-14T07:40:02Z</time>
      </trkpt>
      <trkpt lat="44.73091" lon="0.45892">
        <ele>169.3</ele>
        <time>2024-07-14T07:40:04Z</time>
      </trkpt>
      <trkpt lat="44.73097" lon="0.4589">
        <ele>169.5</ele>
        <time>2024-07-14T07:40:06Z</time>
      </trkpt>
      <trkpt lat="44.73103" lon="0.45887">
        <ele>169.6</ele>
        <time>2024-07-14T07:40:08Z</time>
      </trkpt>
      <trkpt lat="44.73108" lon="0.45883">
        <ele>169.7</ele>
        <time>2024-07-14T07:40:10Z</time>
      </trkpt>
      <trkpt lat="44.73111" lon="0.45881">
        <ele>169.8</ele>
        <time>2024-07-14T07:40:11Z</time>
      </trkpt>
      <trkpt lat="44.73114" lon="0.4588">
        <ele>169.9</ele>
        <time>2024-07-14T07:40:12Z</time>
      </trkpt>
      <trkpt lat="44.7312" lon="0.45876">
        <ele>170</ele>
        <time>2024-07-14T07:40:14Z</time>
      </trkpt>
      <trkpt lat="44.73123" lon="0.45875">
        <ele>170.1</ele>
        <time>2024-07-14T07:40:15Z</time>
      </trkpt>
      <trkpt lat="44.73126" lon="0.45873">
        <ele>170.2</ele>
        <time>2024-07-14T07:40:16Z</time>
      </trkpt>
      <trkpt lat="44.73132" lon="0.45869">
        <ele>170.3</ele>
        <time>2024-07-14T07:40:18Z</time>
      </trkpt>
      <trkpt lat="44.73139" lon="0.45865">
        <ele>170.5</ele>
        <time>2024-07-14T07:40:20Z</time>
      </trkpt>
      <trkpt lat="44.73144" lon="0.4586">
        <ele>170.6</ele>
        <time>2024-07-14T07:40:22Z</time>
      </trkpt>
      <trkpt lat="44.73146" lon="0.45859">
        <ele>170.7</ele>
        <time>2024-07-14T07:40:23Z</time>
      </trkpt>
      <trkpt lat="44.73149" lon="0.45857">
        <ele>170.7</ele>
        <time>2024-07-14T07:40:24Z</time>
      </trkpt>
      <trkpt lat="44.73154" lon="0.45853">
        <ele>170.9</ele>
        <time>2024-07-14T07:40:26Z</time>
      </trkpt>
      <trkpt lat="44.73156" lon="0.4585">
        <ele>171</ele>
        <time>2024-07-14T07:40:27Z</time>
      </trkpt>
      <trkpt lat="44.73159" lon="0.45847">
        <ele>171.1</ele>
        <time>2024-07-14T07:40:28Z</time>
      </trkpt>
      <trkpt lat="44.73165" lon="0.45844">
        <ele>171.2</ele>
        <time>2024-07-14T07:40:30Z</time>
      </trkpt>
      <trkpt lat="44.73168" lon="0.45841">
        <ele>171.3</ele>
        <time>2024-07-14T07:40:31Z</time>
      </trkpt>
      <trkpt lat="44.73171" lon="0.45838">
        <ele>171.4</ele>
        <time>2024-07-14T07:40:32Z</time>
      </trkpt>
      <trkpt lat="44.73176" lon="0.45833">
        <ele>171.6</ele>
        <time>2024-07-14T07:40:34Z</time>
      </trkpt>
      <trkpt lat="44.7318" lon="0.45829">
        <ele>171.7</ele>
        <time>2024-07-14T07:40:36Z</time>
      </trkpt>
      <trkpt lat="44.73185" lon="0.45825">
        <ele>171.7</ele>
        <time>2024-07-14T07:40:38Z</time>
      </trkpt>
      <trkpt lat="44.7319" lon="0.45824">
        <ele>171.7</ele>
        <time>2024-07-14T07:40:40Z</time>
      </trkpt>
      <trkpt lat="44.73192" lon="0.45822">
        <ele>171.6</ele>
        <time>2024-07-14T07:40:41Z</time>
      </trkpt>
      <trkpt lat="44.73195" lon="0.4582">
        <ele>171.5</ele>
        <time>2024-07-14T07:40:42Z</time>
      </trkpt>
      <trkpt lat="44.73199" lon="0.45815">
        <ele>171.2</ele>
        <time>2024-07-14T07:40:44Z</time>
      </trkpt>
      <trkpt lat="44.73201" lon="0.45813">
        <ele>171</ele>
        <time>2024-07-14T07:40:45Z</time>
      </trkpt>
      <trkpt lat="44.73204" lon="0.45811">
        <ele>170.7</ele>
        <time>2024-07-14T07:40:46Z</time>
      </trkpt>
      <trkpt lat="44.73209" lon="0.45808">
        <ele>170.2</ele>
        <time>2024-07-14T07:40:48Z</time>
      </trkpt>
      <trkpt lat="44.73214" lon="0.45806">
        <ele>169.7</ele>
        <time>2024-07-14T07:40:50Z</time>
      </trkpt>
      <trkpt lat="44.73219" lon="0.45808">
        <ele>169.2</ele>
        <time>2024-07-14T07:40:52Z</time>
      </trkpt>
      <trkpt lat="44.73223" lon="0.45813">
        <ele>168.5</ele>
        <time>2024-07-14T07:40:54Z</time>
      </trkpt>
      <trkpt lat="44.73226" lon="0.45817">
        <ele>168.1</ele>
        <time>2024-07-14T07:40:55Z</time>
      </trkpt>
      <trkpt lat="44.73229" lon="0.45822">
        <ele>167.5</ele>
        <time>2024-07-14T07:40:56Z</time>
      </trkpt>
      <trkpt lat="44.73234" lon="0.45832">
        <ele>166.3</ele>
        <time>2024-07-14T07:40:58Z</time>
      </trkpt>
      <trkpt lat="44.73236" lon="0.45836">
        <ele>165.7</ele>
        <time>2024-07-14T07:40:59Z</time>
      </trkpt>
      <trkpt lat="44.73238" lon="0.45842">
        <ele>165.1</ele>
        <time>2024-07-14T07:41:00Z</time>
      </trkpt>
      <trkpt lat="44.73237" lon="0.45843">
        <ele>165</ele>
        <time>2024-07-14T07:41:01Z</time>
      </trkpt>
      <trkpt lat="44.73237" lon="0.45845">
        <ele>164.8</ele>
        <time>2024-07-14T07:41:02Z</time>
      </trkpt>
      <trkpt lat="44.7324" lon="0.45849">
        <ele>164.3</ele>
        <time>2024-07-14T07:41:04Z</time>
      </trkpt>
      <trkpt lat="44.73242" lon="0.45853">
        <ele>163.8</ele>
        <time>2024-07-14T07:41:05Z</time>
      </trkpt>
      <trkpt lat="44.73243" lon="0.45853">
        <ele>163.6</ele>
        <time>2024-07-14T07:41:06Z</time>
      </trkpt>
      <trkpt lat="44.73247" lon="0.45861">
        <ele>162.7</ele>
        <time>2024-07-14T07:41:08Z</time>
      </trkpt>
      <trkpt lat="44.73252" lon="0.4588">
        <ele>160.9</ele>
        <time>2024-07-14T07:41:10Z</time>
      </trkpt>
      <trkpt lat="44.73253" lon="0.4589">
        <ele>160.1</ele>
        <time>2024-07-14T07:41:11Z</time>
      </trkpt>
      <trkpt lat="44.73255" lon="0.459">
        <ele>159.3</ele>
        <time>2024-07-14T07:41:12Z</time>
      </trkpt>
      <trkpt lat="44.73261" lon="0.45918">
        <ele>157.6</ele>
        <time>2024-07-14T07:41:14Z</time>
      </trkpt>
      <trkpt lat="44.7327" lon="0.45929">
        <ele>156.4</ele>
        <time>2024-07-14T07:41:16Z</time>
      </trkpt>
      <trkpt lat="44.73278" lon="0.4595">
        <ele>155</ele>
        <time>2024-07-14T07:41:18Z</time>
      </trkpt>
      <trkpt lat="44.73281" lon="0.45958">
        <ele>154.4</ele>
        <time>2024-07-14T07:41:19Z</time>
      </trkpt>
      <trkpt lat="44.73285" lon="0.45964">
        <ele>154</ele>
        <time>2024-07-14T07:41:20Z</time>
      </trkpt>
      <trkpt lat="44.73293" lon="0.45976">
        <ele>153.3</ele>
        <time>2024-07-14T07:41:22Z</time>
      </trkpt>
      <trkpt lat="44.73303" lon="0.4599">
        <ele>152.3</ele>
        <time>2024-07-14T07:41:24Z</time>
      </trkpt>
      <trkpt lat="44.73308" lon="0.45998">
        <ele>151.8</ele>
        <time>2024-07-14T07:41:25Z</time>
      </trkpt>
      <trkpt lat="44.73313" lon="0.46006">
        <ele>151.3</ele>
        <time>2024-07-14T07:41:26Z</time>
      </trkpt>
      <trkpt lat="44.73325" lon="0.46021">
        <ele>150</ele>
        <time>2024-07-14T07:41:28Z</time>
      </trkpt>
      <trkpt lat="44.73335" lon="0.46035">
        <ele>148.7</ele>
        <time>2024-07-14T07:41:30Z</time>
      </trkpt>
      <trkpt lat="44.73346" lon="0.46053">
        <ele>147.4</ele>
        <time>2024-07-14T07:41:32Z</time>
      </trkpt>
      <trkpt lat="44.73351" lon="0.46062">
        <ele>146.9</ele>
        <time>2024-07-14T07:41:33Z</time>
      </trkpt>
      <trkpt lat="44.73358" lon="0.46071">
        <ele>146.4</ele>
        <time>2024-07-14T07:41:34Z</time>
      </trkpt>
      <trkpt lat="44.7337" lon="0.46086">
        <ele>145.6</ele>
        <time>2024-07-14T07:41:36Z</time>
      </trkpt>
      <trkpt lat="44.73383" lon="0.46101">
        <ele>144.9</ele>
        <time>2024-07-14T07:41:38Z</time>
      </trkpt>
      <trkpt lat="44.73389" lon="0.46107">
        <ele>144.7</ele>
        <time>2024-07-14T07:41:39Z</time>
      </trkpt>
      <trkpt lat="44.73395" lon="0.46113">
        <ele>144.5</ele>
        <time>2024-07-14T07:41:40Z</time>
      </trkpt>
      <trkpt lat="44.73407" lon="0.46124">
        <ele>144</ele>
        <time>2024-07-14T07:41:42Z</time>
      </trkpt>
      <trkpt lat="44.7342" lon="0.46136">
        <ele>143.1</ele>
        <time>2024-07-14T07:41:44Z</time>
      </trkpt>
      <trkpt lat="44.73426" lon="0.46141">
        <ele>142.7</ele>
        <time>2024-07-14T07:41:45Z</time>
      </trkpt>
      <trkpt lat="44.73432" lon="0.46145">
        <ele>142.2</ele>
        <time>2024-07-14T07:41:46Z</time>
      </trkpt>
      <trkpt lat="44.73445" lon="0.46155">
        <ele>141.2</ele>
        <time>2024-07-14T07:41:48Z</time>
      </trkpt>
      <trkpt lat="44.73457" lon="0.46167">
        <ele>140.3</ele>
        <time>2024-07-14T07:41:50Z</time>
      </trkpt>
      <trkpt lat="44.73469" lon="0.4618">
        <ele>139.3</ele>
        <time>2024-07-14T07:41:52Z</time>
      </trkpt>
      <trkpt lat="44.73475" lon="0.46188">
        <ele>138.8</ele>
        <time>2024-07-14T07:41:53Z</time>
      </trkpt>
      <trkpt lat="44.7348" lon="0.46196">
        <ele>138.3</ele>
        <time>2024-07-14T07:41:54Z</time>
      </trkpt>
      <trkpt lat="44.73486" lon="0.46205">
        <ele>137.8</ele>
        <time>2024-07-14T07:41:55Z</time>
      </trkpt>
      <trkpt lat="44.73491" lon="0.46214">
        <ele>137.4</ele>
        <time>2024-07-14T07:41:56Z</time>
      </trkpt>
      <trkpt lat="44.73501" lon="0.46233">
        <ele>136.4</ele>
        <time>2024-07-14T07:41:58Z</time>
      </trkpt>
      <trkpt lat="44.73505" lon="0.46244">
        <ele>136</ele>
        <time>2024-07-14T07:41:59Z</time>
      </trkpt>
      <trkpt lat="44.73508" lon="0.46255">
        <ele>135.5</ele>
        <time>2024-07-14T07:42:00Z</time>
      </trkpt>
      <trkpt lat="44.7351" lon="0.46267">
        <ele>134.9</ele>
        <time>2024-07-14T07:42:01Z</time>
      </trkpt>
      <trkpt lat="44.73513" lon="0.46278">
        <ele>134.3</ele>
        <time>2024-07-14T07:42:02Z</time>
      </trkpt>
      <trkpt lat="44.73519" lon="0.46301">
        <ele>133.5</ele>
        <time>2024-07-14T07:42:04Z</time>
      </trkpt>
      <trkpt lat="44.73525" lon="0.46324">
        <ele>133.1</ele>
        <time>2024-07-14T07:42:06Z</time>
      </trkpt>
      <trkpt lat="44.73527" lon="0.46335">
        <ele>132.9</ele>
        <time>2024-07-14T07:42:07Z</time>
      </trkpt>
      <trkpt lat="44.7353" lon="0.46345">
        <ele>132.8</ele>
        <time>2024-07-14T07:42:08Z</time>
      </trkpt>
      <trkpt lat="44.73535" lon="0.46364">
        <ele>132.6</ele>
        <time>2024-07-14T07:42:10Z</time>
      </trkpt>
      <trkpt lat="44.73536" lon="0.46372">
        <ele>132.5</ele>
        <time>2024-07-14T07:42:11Z</time>
      </trkpt>
      <trkpt lat="44.73538" lon="0.46378">
        <ele>132.5</ele>
        <time>2024-07-14T07:42:12Z</time>
      </trkpt>
      <trkpt lat="44.73542" lon="0.46389">
        <ele>132.6</ele>
        <time>2024-07-14T07:42:14Z</time>
      </trkpt>
      <trkpt lat="44.73548" lon="0.46399">
        <ele>132.8</ele>
        <time>2024-07-14T07:42:16Z</time>
      </trkpt>
      <trkpt lat="44.73554" lon="0.46406">
        <ele>133</ele>
        <time>2024-07-14T07:42:18Z</time>
      </trkpt>
      <trkpt lat="44.73561" lon="0.46412">
        <ele>133.2</ele>
        <time>2024-07-14T07:42:20Z</time>
      </trkpt>
      <trkpt lat="44.73568" lon="0.46418">
        <ele>133.5</ele>
        <time>2024-07-14T07:42:22Z</time>
      </trkpt>
      <trkpt lat="44.73571" lon="0.46421">
        <ele>133.7</ele>
        <time>2024-07-14T07:42:23Z</time>
      </trkpt>
      <trkpt lat="44.73574" lon="0.46424">
        <ele>133.9</ele>
        <time>2024-07-14T07:42:24Z</time>
      </trkpt>
      <trkpt lat="44.73581" lon="0.46431">
        <ele>134.3</ele>
        <time>2024-07-14T07:42:26Z</time>
      </trkpt>
      <trkpt lat="44.73587" lon="0.46437">
        <ele>134.7</ele>
        <time>2024-07-14T07:42:28Z</time>
      </trkpt>
      <trkpt lat="44.73593" lon="0.46442">
        <ele>135.2</ele>
        <time>2024-07-14T07:42:30Z</time>
      </trkpt>
      <trkpt lat="44.73599" lon="0.46447">
        <ele>135.6</ele>
        <time>2024-07-14T07:42:32Z</time>
      </trkpt>
      <trkpt lat="44.73605" lon="0.46453">
        <ele>136.1</ele>
        <time>2024-07-14T07:42:34Z</time>
      </trkpt>
      <trkpt lat="44.7361" lon="0.46458">
        <ele>136.6</ele>
        <time>2024-07-14T07:42:36Z</time>
      </trkpt>
      <trkpt lat="44.73613" lon="0.4646">
        <ele>136.7</ele>
        <time>2024-07-14T07:42:37Z</time>
      </trkpt>
      <trkpt lat="44.73615" lon="0.46462">
        <ele>136.9</ele>
        <time>2024-07-14T07:42:38Z</time>
      </trkpt>
      <trkpt lat="44.7362" lon="0.46467">
        <ele>137.3</ele>
        <time>2024-07-14T07:42:40Z</time>
      </trkpt>
      <trkpt lat="44.73624" lon="0.46471">
        <ele>137.6</ele>
        <time>2024-07-14T07:42:42Z</time>
      </trkpt>
      <trkpt lat="44.73628" lon="0.46476">
        <ele>138</ele>
        <time>2024-07-14T07:42:44Z</time>
      </trkpt>
      <trkpt lat="44.7363" lon="0.46479">
        <ele>138.3</ele>
        <time>2024-07-14T07:42:45Z</time>
      </trkpt>
      <trkpt lat="44.73632" lon="0.46482">
        <ele>138.6</ele>
        <time>2024-07-14T07:42:46Z</time>
      </trkpt>
      <trkpt lat="44.73636" lon="0.46488">
        <ele>139.2</ele>
        <time>2024-07-14T07:42:48Z</time>
      </trkpt>
      <trkpt lat="44.73639" lon="0.46493">
        <ele>139.6</ele>
        <time>2024-07-14T07:42:50Z</time>
      </trkpt>
      <trkpt lat="44.7364" lon="0.46494">
        <ele>139.8</ele>
        <time>2024-07-14T07:42:51Z</time>
      </trkpt>
      <trkpt lat="44.73641" lon="0.46496">
        <ele>140</ele>
        <time>2024-07-14T07:42:52Z</time>
      </trkpt>
      <trkpt lat="44.73644" lon="0.465">
        <ele>140.4</ele>
        <time>2024-07-14T07:42:54Z</time>
      </trkpt>
      <trkpt lat="44.73645" lon="0.46502">
        <ele>140.6</ele>
        <time>2024-07-14T07:42:55Z</time>
      </trkpt>
      <trkpt lat="44.73646" lon="0.46505">
        <ele>140.7</ele>
        <time>2024-07-14T07:42:56Z</time>
      </trkpt>
      <trkpt lat="44.73648" lon="0.46509">
        <ele>141.1</ele>
        <time>2024-07-14T07:42:58Z</time>
      </trkpt>
      <trkpt lat="44.7365" lon="0.46514">
        <ele>141.4</ele>
        <time>2024-07-14T07:43:00Z</time>
      </trkpt>
      <trkpt lat="44.73652" lon="0.46516">
        <ele>141.6</ele>
        <time>2024-07-14T07:43:01Z</time>
      </trkpt>
      <trkpt lat="44.73653" lon="0.46519">
        <ele>141.7</ele>
        <time>2024-07-14T07:43:02Z</time>
      </trkpt>
      <trkpt lat="44.73657" lon="0.46524">
        <ele>142</ele>
        <time>2024-07-14T07:43:04Z</time>
      </trkpt>
      <trkpt lat="44.7366" lon="0.46529">
        <ele>142.3</ele>
        <time>2024-07-14T07:43:06Z</time>
      </trkpt>
      <trkpt lat="44.73664" lon="0.46532">
        <ele>142.6</ele>
        <time>2024-07-14T07:43:08Z</time>
      </trkpt>
      <trkpt lat="44.73669" lon="0.46535">
        <ele>142.8</ele>
        <time>2024-07-14T07:43:10Z</time>
      </trkpt>
      <trkpt lat="44.73671" lon="0.46536">
        <ele>143</ele>
        <time>2024-07-14T07:43:11Z</time>
      </trkpt>
      <trkpt lat="44.73674" lon="0.46536">
        <ele>143.1</ele>
        <time>2024-07-14T07:43:12Z</time>
      </trkpt>
      <trkpt lat="44.73679" lon="0.46537">
        <ele>143.3</ele>
        <time>2024-07-14T07:43:14Z</time>
      </trkpt>
      <trkpt lat="44.73684" lon="0.46537">
        <ele>143.4</ele>
        <time>2024-07-14T07:43:16Z</time>
      </trkpt>
      <trkpt lat="44.73688" lon="0.46538">
        <ele>143.6</ele>
        <time>2024-07-14T07:43:18Z</time>
      </trkpt>
      <trkpt lat="44.73693" lon="0.46538">
        <ele>143.7</ele>
        <time>2024-07-14T07:43:20Z</time>
      </trkpt>
      <trkpt lat="44.73697" lon="0.4654">
        <ele>143.8</ele>
        <time>2024-07-14T07:43:22Z</time>
      </trkpt>
      <trkpt lat="44.73702" lon="0.46541">
        <ele>143.9</ele>
        <time>2024-07-14T07:43:24Z</time>
      </trkpt>
      <trkpt lat="44.73706" lon="0.46543">
        <ele>144.1</ele>
        <time>2024-07-14T07:43:26Z</time>
      </trkpt>
      <trkpt lat="44.73711" lon="0.46545">
        <ele>144.2</ele>
        <time>2024-07-14T07:43:28Z</time>
      </trkpt>
      <trkpt lat="44.73716" lon="0.46547">
        <ele>144.4</ele>
        <time>2024-07-14T07:43:30Z</time>
      </trkpt>
      <trkpt lat="44.73722" lon="0.46548">
        <ele>144.5</ele>
        <time>2024-07-14T07:43:32Z</time>
      </trkpt>
      <trkpt lat="44.73726" lon="0.4655">
        <ele>144.7</ele>
        <time>2024-07-14T07:43:34Z</time>
      </trkpt>
      <trkpt lat="44.73729" lon="0.46551">
        <ele>144.8</ele>
        <time>2024-07-14T07:43:35Z</time>
      </trkpt>
      <trkpt lat="44.73731" lon="0.46552">
        <ele>144.9</ele>
        <time>2024-07-14T07:43:36Z</time>
      </trkpt>
      <trkpt lat="44.73736" lon="0.46553">
        <ele>145.1</ele>
        <time>2024-07-14T07:43:38Z</time>
      </trkpt>
      <trkpt lat="44.73741" lon="0.46554">
        <ele>145.3</ele>
        <time>2024-07-14T07:43:40Z</time>
      </trkpt>
      <trkpt lat="44.73743" lon="0.46555">
        <ele>145.4</ele>
        <time>2024-07-14T07:43:41Z</time>
      </trkpt>
      <trkpt lat="44.73745" lon="0.46556">
        <ele>145.5</ele>
        <time>2024-07-14T07:43:42Z</time>
      </trkpt>
      <trkpt lat="44.73747" lon="0.46557">
        <ele>145.6</ele>
        <time>2024-07-14T07:43:43Z</time>
      </trkpt>
      <trkpt lat="44.7375" lon="0.46557">
        <ele>145.6</ele>
        <time>2024-07-14T07:43:44Z</time>
      </trkpt>
      <trkpt lat="44.73752" lon="0.46558">
        <ele>145.7</ele>
        <time>2024-07-14T07:43:45Z</time>
      </trkpt>
      <trkpt lat="44.73754" lon="0.46559">
        <ele>145.8</ele>
        <time>2024-07-14T07:43:46Z</time>
      </trkpt>
      <trkpt lat="44.73759" lon="0.4656">
        <ele>146</ele>
        <time>2024-07-14T07:43:48Z</time>
      </trkpt>
      <trkpt lat="44.73761" lon="0.46561">
        <ele>146.1</ele>
        <time>2024-07-14T07:43:49Z</time>
      </trkpt>
      <trkpt lat="44.73763" lon="0.46561">
        <ele>146.2</ele>
        <time>2024-07-14T07:43:50Z</time>
      </trkpt>
      <trkpt lat="44.73768" lon="0.46563">
        <ele>146.4</ele>
        <time>2024-07-14T07:43:52Z</time>
      </trkpt>
      <trkpt lat="44.73774" lon="0.46565">
        <ele>146.6</ele>
        <time>2024-07-14T07:43:54Z</time>
      </trkpt>
      <trkpt lat="44.73779" lon="0.46568">
        <ele>146.9</ele>
        <time>2024-07-14T07:43:56Z</time>
      </trkpt>
      <trkpt lat="44.73784" lon="0.4657">
        <ele>147.1</ele>
        <time>2024-07-14T07:43:58Z</time>
      </trkpt>
      <trkpt lat="44.73789" lon="0.46573">
        <ele>147.4</ele>
        <time>2024-07-14T07:44:00Z</time>
      </trkpt>
      <trkpt lat="44.73792" lon="0.46574">
        <ele>147.5</ele>
        <time>2024-07-14T07:44:01Z</time>
      </trkpt>
      <trkpt lat="44.73794" lon="0.46575">
        <ele>147.7</ele>
        <time>2024-07-14T07:44:02Z</time>
      </trkpt>
      <trkpt lat="44.73799" lon="0.46577">
        <ele>147.9</ele>
        <time>2024-07-14T07:44:04Z</time>
      </trkpt>
      <trkpt lat="44.73804" lon="0.46579">
        <ele>148.2</ele>
        <time>2024-07-14T07:44:06Z</time>
      </trkpt>
      <trkpt lat="44.73809" lon="0.4658">
        <ele>148.5</ele>
        <time>2024-07-14T07:44:08Z</time>
      </trkpt>
      <trkpt lat="44.73814" lon="0.46582">
        <ele>148.7</ele>
        <time>2024-07-14T07:44:10Z</time>
      </trkpt>
      <trkpt lat="44.73816" lon="0.46583">
        <ele>148.9</ele>
        <time>2024-07-14T07:44:11Z</time>
      </trkpt>
      <trkpt lat="44.73819" lon="0.46583">
        <ele>149</ele>
        <time>2024-07-14T07:44:12Z</time>
      </trkpt>
      <trkpt lat="44.73823" lon="0.46585">
        <ele>149.2</ele>
        <time>2024-07-14T07:44:14Z</time>
      </trkpt>
      <trkpt lat="44.73828" lon="0.46586">
        <ele>149.4</ele>
        <time>2024-07-14T07:44:16Z</time>
      </trkpt>
      <trkpt lat="44.73833" lon="0.46588">
        <ele>149.7</ele>
        <time>2024-07-14T07:44:18Z</time>
      </trkpt>
      <trkpt lat="44.73838" lon="0.4659">
        <ele>149.9</ele>
        <time>2024-07-14T07:44:20Z</time>
      </trkpt>
      <trkpt lat="44.73843" lon="0.46591">
        <ele>150.1</ele>
        <time>2024-07-14T07:44:22Z</time>
      </trkpt>
      <trkpt lat="44.73845" lon="0.46591">
        <ele>150.3</ele>
        <time>2024-07-14T07:44:23Z</time>
      </trkpt>
      <trkpt lat="44.73847" lon="0.46591">
        <ele>150.4</ele>
        <time>2024-07-14T07:44:24Z</time>
      </trkpt>
      <trkpt lat="44.73852" lon="0.46592">
        <ele>150.6</ele>
        <time>2024-07-14T07:44:26Z</time>
      </trkpt>
      <trkpt lat="44.73857" lon="0.46594">
        <ele>150.9</ele>
        <time>2024-07-14T07:44:28Z</time>
      </trkpt>
      <trkpt lat="44.73861" lon="0.46597">
        <ele>151.1</ele>
        <time>2024-07-14T07:44:30Z</time>
      </trkpt>
      <trkpt lat="44.73863" lon="0.46599">
        <ele>151.2</ele>
        <time>2024-07-14T07:44:31Z</time>
      </trkpt>
      <trkpt lat="44.73865" lon="0.46602">
        <ele>151.3</ele>
        <time>2024-07-14T07:44:32Z</time>
      </trkpt>
      <trkpt lat="44.73868" lon="0.46608">
        <ele>151.4</ele>
        <time>2024-07-14T07:44:34Z</time>
      </trkpt>
      <trkpt lat="44.73869" lon="0.46615">
        <ele>151.6</ele>
        <time>2024-07-14T07:44:36Z</time>
      </trkpt>
      <trkpt lat="44.7387" lon="0.46622">
        <ele>151.7</ele>
        <time>2024-07-14T07:44:38Z</time>
      </trkpt>
      <trkpt lat="44.73871" lon="0.46629">
        <ele>151.9</ele>
        <time>2024-07-14T07:44:40Z</time>
      </trkpt>
      <trkpt lat="44.73873" lon="0.46636">
        <ele>152.1</ele>
        <time>2024-07-14T07:44:42Z</time>
      </trkpt>
      <trkpt lat="44.73875" lon="0.46642">
        <ele>152.3</ele>
        <time>2024-07-14T07:44:44Z</time>
      </trkpt>
      <trkpt lat="44.73877" lon="0.46648">
        <ele>152.5</ele>
        <time>2024-07-14T07:44:46Z</time>
      </trkpt>
      <trkpt lat="44.7388" lon="0.46654">
        <ele>152.7</ele>
        <time>2024-07-14T07:44:48Z</time>
      </trkpt>
      <trkpt lat="44.73883" lon="0.4666">
        <ele>153</ele>
        <time>2024-07-14T07:44:50Z</time>
      </trkpt>
      <trkpt lat="44.73886" lon="0.46665">
        <ele>153.2</ele>
        <time>2024-07-14T07:44:52Z</time>
      </trkpt>
      <trkpt lat="44.73889" lon="0.4667">
        <ele>153.5</ele>
        <time>2024-07-14T07:44:54Z</time>
      </trkpt>
      <trkpt lat="44.7389" lon="0.46673">
        <ele>153.7</ele>
        <time>2024-07-14T07:44:55Z</time>
      </trkpt>
      <trkpt lat="44.73892" lon="0.46676">
        <ele>153.9</ele>
        <time>2024-07-14T07:44:56Z</time>
      </trkpt>
      <trkpt lat="44.73895" lon="0.46681">
        <ele>154.2</ele>
        <time>2024-07-14T07:44:58Z</time>
      </trkpt>
      <trkpt lat="44.73898" lon="0.46686">
        <ele>154.6</ele>
        <time>2024-07-14T07:45:00Z</time>
      </trkpt>
      <trkpt lat="44.73901" lon="0.46691">
        <ele>155</ele>
        <time>2024-07-14T07:45:02Z</time>
      </trkpt>
      <trkpt lat="44.73905" lon="0.46696">
        <ele>155.3</ele>
        <time>2024-07-14T07:45:04Z</time>
      </trkpt>
      <trkpt lat="44.73908" lon="0.467">
        <ele>155.6</ele>
        <time>2024-07-14T07:45:06Z</time>
      </trkpt>
      <trkpt lat="44.73911" lon="0.46704">
        <ele>156</ele>
        <time>2024-07-14T07:45:08Z</time>
      </trkpt>
      <trkpt lat="44.73913" lon="0.46706">
        <ele>156.2</ele>
        <time>2024-07-14T07:45:09Z</time>
      </trkpt>
      <trkpt lat="44.73914" lon="0.46708">
        <ele>156.3</ele>
        <time>2024-07-14T07:45:10Z</time>
      </trkpt>
      <trkpt lat="44.73916" lon="0.4671">
        <ele>156.5</ele>
        <time>2024-07-14T07:45:11Z</time>
      </trkpt>
      <trkpt lat="44.73917" lon="0.46713">
        <ele>156.6</ele>
        <time>2024-07-14T07:45:12Z</time>
      </trkpt>
      <trkpt lat="44.73921" lon="0.46717">
        <ele>156.9</ele>
        <time>2024-07-14T07:45:14Z</time>
      </trkpt>
      <trkpt lat="44.73924" lon="0.46721">
        <ele>157.2</ele>
        <time>2024-07-14T07:45:16Z</time>
      </trkpt>
      <trkpt lat="44.73927" lon="0.46726">
        <ele>157.4</ele>
        <time>2024-07-14T07:45:18Z</time>
      </trkpt>
      <trkpt lat="44.73931" lon="0.4673">
        <ele>157.7</ele>
        <time>2024-07-14T07:45:20Z</time>
      </trkpt>
      <trkpt lat="44.73934" lon="0.46735">
        <ele>157.9</ele>
        <time>2024-07-14T07:45:22Z</time>
      </trkpt>
      <trkpt lat="44.73938" lon="0.4674">
        <ele>158.1</ele>
        <time>2024-07-14T07:45:24Z</time>
      </trkpt>
      <trkpt lat="44.73942" lon="0.46744">
        <ele>158.3</ele>
        <time>2024-07-14T07:45:26Z</time>
      </trkpt>
      <trkpt lat="44.73945" lon="0.46748">
        <ele>158.4</ele>
        <time>2024-07-14T07:45:28Z</time>
      </trkpt>
      <trkpt lat="44.73948" lon="0.46753">
        <ele>158.4</ele>
        <time>2024-07-14T07:45:30Z</time>
      </trkpt>
      <trkpt lat="44.73952" lon="0.46758">
        <ele>158.5</ele>
        <time>2024-07-14T07:45:32Z</time>
      </trkpt>
      <trkpt lat="44.73956" lon="0.46763">
        <ele>158.5</ele>
        <time>2024-07-14T07:45:34Z</time>
      </trkpt>
      <trkpt lat="44.7396" lon="0.46768">
        <ele>158.4</ele>
        <time>2024-07-14T07:45:36Z</time>
      </trkpt>
      <trkpt lat="44.73963" lon="0.46771">
        <ele>158.3</ele>
        <time>2024-07-14T07:45:37Z</time>
      </trkpt>
      <trkpt lat="44.73965" lon="0.46774">
        <ele>158.2</ele>
        <time>2024-07-14T07:45:38Z</time>
      </trkpt>
      <trkpt lat="44.7397" lon="0.4678">
        <ele>157.9</ele>
        <time>2024-07-14T07:45:40Z</time>
      </trkpt>
      <trkpt lat="44.73975" lon="0.46787">
        <ele>157.5</ele>
        <time>2024-07-14T07:45:42Z</time>
      </trkpt>
      <trkpt lat="44.73982" lon="0.46795">
        <ele>156.8</ele>
        <time>2024-07-14T07:45:44Z</time>
      </trkpt>
      <trkpt lat="44.73989" lon="0.46806">
        <ele>156</ele>
        <time>2024-07-14T07:45:46Z</time>
      </trkpt>
      <trkpt lat="44.73994" lon="0.46812">
        <ele>155.6</ele>
        <time>2024-07-14T07:45:47Z</time>
      </trkpt>
      <trkpt lat="44.73999" lon="0.46816">
        <ele>155</ele>
        <time>2024-07-14T07:45:48Z</time>
      </trkpt>
      <trkpt lat="44.74009" lon="0.46828">
        <ele>153.8</ele>
        <time>2024-07-14T07:45:50Z</time>
      </trkpt>
      <trkpt lat="44.7402" lon="0.46839">
        <ele>152.6</ele>
        <time>2024-07-14T07:45:52Z</time>
      </trkpt>
      <trkpt lat="44.74027" lon="0.46845">
        <ele>152</ele>
        <time>2024-07-14T07:45:53Z</time>
      </trkpt>
      <trkpt lat="44.74033" lon="0.46851">
        <ele>151.4</ele>
        <time>2024-07-14T07:45:54Z</time>
      </trkpt>
      <trkpt lat="44.74046" lon="0.46863">
        <ele>150.4</ele>
        <time>2024-07-14T07:45:56Z</time>
      </trkpt>
      <trkpt lat="44.7406" lon="0.46874">
        <ele>149.5</ele>
        <time>2024-07-14T07:45:58Z</time>
      </trkpt>
      <trkpt lat="44.74067" lon="0.46878">
        <ele>149</ele>
        <time>2024-07-14T07:45:59Z</time>
      </trkpt>
      <trkpt lat="44.74074" lon="0.46883">
        <ele>148.5</ele>
        <time>2024-07-14T07:46:00Z</time>
      </trkpt>
      <trkpt lat="44.74088" lon="0.46893">
        <ele>147.5</ele>
        <time>2024-07-14T07:46:02Z</time>
      </trkpt>
      <trkpt lat="44.74095" lon="0.46898">
        <ele>147</ele>
        <time>2024-07-14T07:46:03Z</time>
      </trkpt>
      <trkpt lat="44.74101" lon="0.46904">
        <ele>146.5</ele>
        <time>2024-07-14T07:46:04Z</time>
      </trkpt>
      <trkpt lat="44.74115" lon="0.46914">
        <ele>145.9</ele>
        <time>2024-07-14T07:46:06Z</time>
      </trkpt>
      <trkpt lat="44.74121" lon="0.4692">
        <ele>145.7</ele>
        <time>2024-07-14T07:46:07Z</time>
      </trkpt>
      <trkpt lat="44.74127" lon="0.46926">
        <ele>145.5</ele>
        <time>2024-07-14T07:46:08Z</time>
      </trkpt>
      <trkpt lat="44.74137" lon="0.46938">
        <ele>145.2</ele>
        <time>2024-07-14T07:46:10Z</time>
      </trkpt>
      <trkpt lat="44.74147" lon="0.46949">
        <ele>145</ele>
        <time>2024-07-14T07:46:12Z</time>
      </trkpt>
      <trkpt lat="44.74156" lon="0.4696">
        <ele>144.8</ele>
        <time>2024-07-14T07:46:14Z</time>
      </trkpt>
      <trkpt lat="44.74164" lon="0.4697">
        <ele>144.6</ele>
        <time>2024-07-14T07:46:16Z</time>
      </trkpt>
      <trkpt lat="44.74173" lon="0.4698">
        <ele>144.5</ele>
        <time>2024-07-14T07:46:18Z</time>
      </trkpt>
      <trkpt lat="44.74181" lon="0.46989">
        <ele>144.5</ele>
        <time>2024-07-14T07:46:20Z</time>
      </trkpt>
      <trkpt lat="44.74188" lon="0.46996">
        <ele>144.4</ele>
        <time>2024-07-14T07:46:22Z</time>
      </trkpt>
      <trkpt lat="44.74195" lon="0.47004">
        <ele>144.3</ele>
        <time>2024-07-14T07:46:24Z</time>
      </trkpt>
      <trkpt lat="44.74202" lon="0.47011">
        <ele>144.2</ele>
        <time>2024-07-14T07:46:26Z</time>
      </trkpt>
      <trkpt lat="44.74209" lon="0.47017">
        <ele>144.1</ele>
        <time>2024-07-14T07:46:28Z</time>
      </trkpt>
      <trkpt lat="44.74213" lon="0.47021">
        <ele>144.1</ele>
        <time>2024-07-14T07:46:29Z</time>
      </trkpt>
      <trkpt lat="44.74216" lon="0.47024">
        <ele>144.1</ele>
        <time>2024-07-14T07:46:30Z</time>
      </trkpt>
      <trkpt lat="44.74224" lon="0.4703">
        <ele>144</ele>
        <time>2024-07-14T07:46:32Z</time>
      </trkpt>
      <trkpt lat="44.74231" lon="0.47036">
        <ele>143.9</ele>
        <time>2024-07-14T07:46:34Z</time>
      </trkpt>
      <trkpt lat="44.74238" lon="0.47042">
        <ele>143.8</ele>
        <time>2024-07-14T07:46:36Z</time>
      </trkpt>
      <trkpt lat="44.74241" lon="0.47045">
        <ele>143.7</ele>
        <time>2024-07-14T07:46:37Z</time>
      </trkpt>
      <trkpt lat="44.74243" lon="0.47048">
        <ele>143.6</ele>
        <time>2024-07-14T07:46:38Z</time>
      </trkpt>
      <trkpt lat="44.74249" lon="0.47056">
        <ele>143.3</ele>
        <time>2024-07-14T07:46:40Z</time>
      </trkpt>
      <trkpt lat="44.74251" lon="0.47059">
        <ele>143.2</ele>
        <time>2024-07-14T07:46:41Z</time>
      </trkpt>
      <trkpt lat="44.74254" lon="0.47063">
        <ele>143</ele>
        <time>2024-07-14T07:46:42Z</time>
      </trkpt>
      <trkpt lat="44.74259" lon="0.4707">
        <ele>142.8</ele>
        <time>2024-07-14T07:46:44Z</time>
      </trkpt>
      <trkpt lat="44.74261" lon="0.47073">
        <ele>142.7</ele>
        <time>2024-07-14T07:46:45Z</time>
      </trkpt>
      <trkpt lat="44.74262" lon="0.47074">
        <ele>142.6</ele>
        <time>2024-07-14T07:46:46Z</time>
      </trkpt>
      <trkpt lat="44.74264" lon="0.47077">
        <ele>142.6</ele>
        <time>2024-07-14T07:46:48Z</time>
      </trkpt>
      <trkpt lat="44.74264" lon="0.47078">
        <ele>142.5</ele>
        <time>2024-07-14T07:46:49Z</time>
      </trkpt>
      <trkpt lat="44.74265" lon="0.47078">
        <ele>142.5</ele>
        <time>2024-07-14T07:46:50Z</time>
      </trkpt>
      <trkpt lat="44.74265" lon="0.4708">
        <ele>142.5</ele>
        <time>2024-07-14T07:46:52Z</time>
      </trkpt>
      <trkpt lat="44.74265" lon="0.4708">
        <ele>142.5</ele>
        <time>2024-07-14T07:46:53Z</time>
      </trkpt>
      <trkpt lat="44.74268" lon="0.47089">
        <ele>142.6</ele>
        <time>2024-07-14T07:50:17Z</time>
      </trkpt>
      <trkpt lat="44.74268" lon="0.47092">
        <ele>142.7</ele>
        <time>2024-07-14T07:50:18Z</time>
      </trkpt>
      <trkpt lat="44.74265" lon="0.47096">
        <ele>142.8</ele>
        <time>2024-07-14T07:50:20Z</time>
      </trkpt>
      <trkpt lat="44.74263" lon="0.47101">
        <ele>143</ele>
        <time>2024-07-14T07:50:22Z</time>
      </trkpt>
      <trkpt lat="44.74261" lon="0.47105">
        <ele>143.1</ele>
        <time>2024-07-14T07:50:24Z</time>
      </trkpt>
      <trkpt lat="44.7426" lon="0.4711">
        <ele>143.2</ele>
        <time>2024-07-14T07:50:26Z</time>
      </trkpt>
      <trkpt lat="44.74258" lon="0.47116">
        <ele>143.3</ele>
        <time>2024-07-14T07:50:28Z</time>
      </trkpt>
      <trkpt lat="44.74256" lon="0.47122">
        <ele>143.5</ele>
        <time>2024-07-14T07:50:30Z</time>
      </trkpt>
      <trkpt lat="44.74252" lon="0.47129">
        <ele>143.6</ele>
        <time>2024-07-14T07:50:32Z</time>
      </trkpt>
      <trkpt lat="44.74249" lon="0.47135">
        <ele>143.8</ele>
        <time>2024-07-14T07:50:34Z</time>
      </trkpt>
      <trkpt lat="44.74246" lon="0.47142">
        <ele>143.9</ele>
        <time>2024-07-14T07:50:36Z</time>
      </trkpt>
      <trkpt lat="44.74244" lon="0.47148">
        <ele>144</ele>
        <time>2024-07-14T07:50:38Z</time>
      </trkpt>
      <trkpt lat="44.74242" lon="0.47152">
        <ele>144.1</ele>
        <time>2024-07-14T07:50:39Z</time>
      </trkpt>
      <trkpt lat="44.74241" lon="0.47155">
        <ele>144.1</ele>
        <time>2024-07-14T07:50:40Z</time>
      </trkpt>
      <trkpt lat="44.74238" lon="0.47161">
        <ele>144.1</ele>
        <time>2024-07-14T07:50:42Z</time>
      </trkpt>
      <trkpt lat="44.74234" lon="0.47168">
        <ele>144.1</ele>
        <time>2024-07-14T07:50:44Z</time>
      </trkpt>
      <trkpt lat="44.74231" lon="0.47173">
        <ele>144.2</ele>
        <time>2024-07-14T07:50:46Z</time>
      </trkpt>
      <trkpt lat="44.74228" lon="0.47179">
        <ele>144.2</ele>
        <time>2024-07-14T07:50:48Z</time>
      </trkpt>
      <trkpt lat="44.74224" lon="0.47185">
        <ele>144.2</ele>
        <time>2024-07-14T07:50:50Z</time>
      </trkpt>
      <trkpt lat="44.7422" lon="0.47192">
        <ele>144.2</ele>
        <time>2024-07-14T07:50:52Z</time>
      </trkpt>
      <trkpt lat="44.74218" lon="0.47195">
        <ele>144.2</ele>
        <time>2024-07-14T07:50:53Z</time>
      </trkpt>
      <trkpt lat="44.74216" lon="0.47198">
        <ele>144.3</ele>
        <time>2024-07-14T07:50:54Z</time>
      </trkpt>
      <trkpt lat="44.74212" lon="0.47204">
        <ele>144.4</ele>
        <time>2024-07-14T07:50:56Z</time>
      </trkpt>
      <trkpt lat="44.74209" lon="0.47211">
        <ele>144.5</ele>
        <time>2024-07-14T07:50:58Z</time>
      </trkpt>
      <trkpt lat="44.74205" lon="0.47218">
        <ele>144.6</ele>
        <time>2024-07-14T07:51:00Z</time>
      </trkpt>
      <trkpt lat="44.74202" lon="0.47224">
        <ele>144.7</ele>
        <time>2024-07-14T07:51:02Z</time>
      </trkpt>
      <trkpt lat="44.74198" lon="0.4723">
        <ele>144.9</ele>
        <time>2024-07-14T07:51:04Z</time>
      </trkpt>
      <trkpt lat="44.74195" lon="0.47238">
        <ele>145</ele>
        <time>2024-07-14T07:51:06Z</time>
      </trkpt>
      <trkpt lat="44.74194" lon="0.47241">
        <ele>145.1</ele>
        <time>2024-07-14T07:51:07Z</time>
      </trkpt>
      <trkpt lat="44.74192" lon="0.47245">
        <ele>145.2</ele>
        <time>2024-07-14T07:51:08Z</time>
      </trkpt>
      <trkpt lat="44.7419" lon="0.47252">
        <ele>145.4</ele>
        <time>2024-07-14T07:51:10Z</time>
      </trkpt>
      <trkpt lat="44.74188" lon="0.47258">
        <ele>145.6</ele>
        <time>2024-07-14T07:51:12Z</time>
      </trkpt>
      <trkpt lat="44.74186" lon="0.47265">
        <ele>145.8</ele>
        <time>2024-07-14T07:51:14Z</time>
      </trkpt>
      <trkpt lat="44.74185" lon="0.47268">
        <ele>145.9</ele>
        <time>2024-07-14T07:51:15Z</time>
      </trkpt>
      <trkpt lat="44.74184" lon="0.47271">
        <ele>146</ele>
        <time>2024-07-14T07:51:16Z</time>
      </trkpt>
      <trkpt lat="44.74182" lon="0.47276">
        <ele>146.3</ele>
        <time>2024-07-14T07:51:18Z</time>
      </trkpt>
      <trkpt lat="44.7418" lon="0.47282">
        <ele>146.5</ele>
        <time>2024-07-14T07:51:20Z</time>
      </trkpt>
      <trkpt lat="44.74179" lon="0.47289">
        <ele>146.9</ele>
        <time>2024-07-14T07:51:22Z</time>
      </trkpt>
      <trkpt lat="44.74176" lon="0.47295">
        <ele>147.2</ele>
        <time>2024-07-14T07:51:24Z</time>
      </trkpt>
      <trkpt lat="44.74175" lon="0.47297">
        <ele>147.3</ele>
        <time>2024-07-14T07:51:25Z</time>
      </trkpt>
      <trkpt lat="44.74174" lon="0.473">
        <ele>147.5</ele>
        <time>2024-07-14T07:51:26Z</time>
      </trkpt>
      <trkpt lat="44.74172" lon="0.47306">
        <ele>147.8</ele>
        <time>2024-07-14T07:51:28Z</time>
      </trkpt>
      <trkpt lat="44.7417" lon="0.47312">
        <ele>148.1</ele>
        <time>2024-07-14T07:51:30Z</time>
      </trkpt>
      <trkpt lat="44.74169" lon="0.47319">
        <ele>148.4</ele>
        <time>2024-07-14T07:51:32Z</time>
      </trkpt>
      <trkpt lat="44.74167" lon="0.47321">
        <ele>148.6</ele>
        <time>2024-07-14T07:51:33Z</time>
      </trkpt>
      <trkpt lat="44.74166" lon="0.47324">
        <ele>148.7</ele>
        <time>2024-07-14T07:51:34Z</time>
      </trkpt>
      <trkpt lat="44.74164" lon="0.4733">
        <ele>149.1</ele>
        <time>2024-07-14T07:51:36Z</time>
      </trkpt>
      <trkpt lat="44.74162" lon="0.47335">
        <ele>149.3</ele>
        <time>2024-07-14T07:51:38Z</time>
      </trkpt>
      <trkpt lat="44.7416" lon="0.4734">
        <ele>149.6</ele>
        <time>2024-07-14T07:51:40Z</time>
      </trkpt>
      <trkpt lat="44.74157" lon="0.47346">
        <ele>149.9</ele>
        <time>2024-07-14T07:51:42Z</time>
      </trkpt>
      <trkpt lat="44.74155" lon="0.47352">
        <ele>150.2</ele>
        <time>2024-07-14T07:51:44Z</time>
      </trkpt>
      <trkpt lat="44.74153" lon="0.47358">
        <ele>150.5</ele>
        <time>2024-07-14T07:51:46Z</time>
      </trkpt>
      <trkpt lat="44.74152" lon="0.4736">
        <ele>150.6</ele>
        <time>2024-07-14T07:51:47Z</time>
      </trkpt>
      <trkpt lat="44.74151" lon="0.47363">
        <ele>150.8</ele>
        <time>2024-07-14T07:51:48Z</time>
      </trkpt>
      <trkpt lat="44.7415" lon="0.47368">
        <ele>151</ele>
        <time>2024-07-14T07:51:50Z</time>
      </trkpt>
      <trkpt lat="44.74148" lon="0.47371">
        <ele>151.1</ele>
        <time>2024-07-14T07:51:51Z</time>
      </trkpt>
      <trkpt lat="44.74147" lon="0.47373">
        <ele>151.3</ele>
        <time>2024-07-14T07:51:52Z</time>
      </trkpt>
      <trkpt lat="44.74144" lon="0.47379">
        <ele>151.5</ele>
        <time>2024-07-14T07:51:54Z</time>
      </trkpt>
      <trkpt lat="44.74143" lon="0.47382">
        <ele>151.6</ele>
        <time>2024-07-14T07:51:55Z</time>
      </trkpt>
      <trkpt lat="44.74141" lon="0.47385">
        <ele>151.7</ele>
        <time>2024-07-14T07:51:56Z</time>
      </trkpt>
      <trkpt lat="44.74139" lon="0.47391">
        <ele>151.9</ele>
        <time>2024-07-14T07:51:58Z</time>
      </trkpt>
      <trkpt lat="44.74135" lon="0.47396">
        <ele>152</ele>
        <time>2024-07-14T07:52:00Z</time>
      </trkpt>
      <trkpt lat="44.74133" lon="0.47403">
        <ele>152.1</ele>
        <time>2024-07-14T07:52:02Z</time>
      </trkpt>
      <trkpt lat="44.7413" lon="0.47409">
        <ele>152.2</ele>
        <time>2024-07-14T07:52:04Z</time>
      </trkpt>
      <trkpt lat="44.74127" lon="0.47415">
        <ele>152.2</ele>
        <time>2024-07-14T07:52:06Z</time>
      </trkpt>
      <trkpt lat="44.74124" lon="0.47421">
        <ele>152.2</ele>
        <time>2024-07-14T07:52:08Z</time>
      </trkpt>
      <trkpt lat="44.74122" lon="0.47428">
        <ele>152.2</ele>
        <time>2024-07-14T07:52:10Z</time>
      </trkpt>
      <trkpt lat="44.74118" lon="0.47432">
        <ele>152.2</ele>
        <time>2024-07-14T07:52:12Z</time>
      </trkpt>
      <trkpt lat="44.74113" lon="0.47435">
        <ele>152.1</ele>
        <time>2024-07-14T07:52:14Z</time>
      </trkpt>
      <trkpt lat="44.7411" lon="0.47436">
        <ele>152.4</ele>
        <time>2024-07-14T07:52:15Z</time>
      </trkpt>
      <trkpt lat="44.74107" lon="0.47435">
        <ele>152.8</ele>
        <time>2024-07-14T07:52:16Z</time>
      </trkpt>
      <trkpt lat="44.74102" lon="0.47433">
        <ele>153.4</ele>
        <time>2024-07-14T07:52:18Z</time>
      </trkpt>
      <trkpt lat="44.741" lon="0.47432">
        <ele>153.6</ele>
        <time>2024-07-14T07:52:19Z</time>
      </trkpt>
      <trkpt lat="44.74097" lon="0.47431">
        <ele>153.9</ele>
        <time>2024-07-14T07:52:20Z</time>
      </trkpt>
      <trkpt lat="44.74092" lon="0.47427">
        <ele>154</ele>
        <time>2024-07-14T07:52:22Z</time>
      </trkpt>
      <trkpt lat="44.7409" lon="0.47425">
        <ele>154.2</ele>
        <time>2024-07-14T07:52:23Z</time>
      </trkpt>
      <trkpt lat="44.74087" lon="0.47421">
        <ele>154.2</ele>
        <time>2024-07-14T07:52:24Z</time>
      </trkpt>
      <trkpt lat="44.74082" lon="0.47415">
        <ele>154.4</ele>
        <time>2024-07-14T07:52:26Z</time>
      </trkpt>
      <trkpt lat="44.74077" lon="0.47409">
        <ele>154.4</ele>
        <time>2024-07-14T07:52:28Z</time>
      </trkpt>
      <trkpt lat="44.74075" lon="0.47406">
        <ele>154.3</ele>
        <time>2024-07-14T07:52:29Z</time>
      </trkpt>
      <trkpt lat="44.74072" lon="0.47404">
        <ele>154.3</ele>
        <time>2024-07-14T07:52:30Z</time>
      </trkpt>
      <trkpt lat="44.74067" lon="0.47402">
        <ele>154.4</ele>
        <time>2024-07-14T07:52:32Z</time>
      </trkpt>
      <trkpt lat="44.74064" lon="0.47407">
        <ele>154.6</ele>
        <time>2024-07-14T07:52:34Z</time>
      </trkpt>
      <trkpt lat="44.74061" lon="0.47412">
        <ele>154.9</ele>
        <time>2024-07-14T07:52:36Z</time>
      </trkpt>
      <trkpt lat="44.74056" lon="0.47417">
        <ele>155.2</ele>
        <time>2024-07-14T07:52:38Z</time>
      </trkpt>
      <trkpt lat="44.74051" lon="0.47422">
        <ele>155.4</ele>
        <time>2024-07-14T07:52:40Z</time>
      </trkpt>
      <trkpt lat="44.74049" lon="0.47424">
        <ele>155.4</ele>
        <time>2024-07-14T07:52:41Z</time>
      </trkpt>
      <trkpt lat="44.74047" lon="0.47427">
        <ele>155.5</ele>
        <time>2024-07-14T07:52:42Z</time>
      </trkpt>
      <trkpt lat="44.74044" lon="0.47433">
        <ele>155.6</ele>
        <time>2024-07-14T07:52:44Z</time>
      </trkpt>
      <trkpt lat="44.74041" lon="0.47437">
        <ele>155.7</ele>
        <time>2024-07-14T07:52:46Z</time>
      </trkpt>
      <trkpt lat="44.74039" lon="0.4744">
        <ele>155.8</ele>
        <time>2024-07-14T07:52:47Z</time>
      </trkpt>
      <trkpt lat="44.74038" lon="0.47442">
        <ele>155.9</ele>
        <time>2024-07-14T07:52:48Z</time>
      </trkpt>
      <trkpt lat="44.74034" lon="0.47448">
        <ele>156.1</ele>
        <time>2024-07-14T07:52:50Z</time>
      </trkpt>
      <trkpt lat="44.7403" lon="0.47452">
        <ele>156.2</ele>
        <time>2024-07-14T07:52:52Z</time>
      </trkpt>
      <trkpt lat="44.74027" lon="0.47456">
        <ele>156.3</ele>
        <time>2024-07-14T07:52:54Z</time>
      </trkpt>
      <trkpt lat="44.74025" lon="0.47459">
        <ele>156.3</ele>
        <time>2024-07-14T07:52:55Z</time>
      </trkpt>
      <trkpt lat="44.74023" lon="0.47461">
        <ele>156.5</ele>
        <time>2024-07-14T07:52:56Z</time>
      </trkpt>
      <trkpt lat="44.74021" lon="0.47463">
        <ele>156.5</ele>
        <time>2024-07-14T07:52:57Z</time>
      </trkpt>
      <trkpt lat="44.74019" lon="0.47465">
        <ele>156.6</ele>
        <time>2024-07-14T07:52:58Z</time>
      </trkpt>
      <trkpt lat="44.74015" lon="0.47469">
        <ele>156.7</ele>
        <time>2024-07-14T07:53:00Z</time>
      </trkpt>
      <trkpt lat="44.74012" lon="0.47472">
        <ele>156.8</ele>
        <time>2024-07-14T07:53:02Z</time>
      </trkpt>
      <trkpt lat="44.74009" lon="0.47475">
        <ele>157</ele>
        <time>2024-07-14T07:53:04Z</time>
      </trkpt>
      <trkpt lat="44.74006" lon="0.4748">
        <ele>157.2</ele>
        <time>2024-07-14T07:53:06Z</time>
      </trkpt>
      <trkpt lat="44.74003" lon="0.47485">
        <ele>157.3</ele>
        <time>2024-07-14T07:53:08Z</time>
      </trkpt>
      <trkpt lat="44.74" lon="0.4749">
        <ele>157.5</ele>
        <time>2024-07-14T07:53:10Z</time>
      </trkpt>
      <trkpt lat="44.73998" lon="0.47493">
        <ele>157.7</ele>
        <time>2024-07-14T07:53:11Z</time>
      </trkpt>
      <trkpt lat="44.73996" lon="0.47496">
        <ele>157.8</ele>
        <time>2024-07-14T07:53:12Z</time>
      </trkpt>
      <trkpt lat="44.73993" lon="0.47504">
        <ele>158</ele>
        <time>2024-07-14T07:53:14Z</time>
      </trkpt>
      <trkpt lat="44.7399" lon="0.47511">
        <ele>158.1</ele>
        <time>2024-07-14T07:53:16Z</time>
      </trkpt>
      <trkpt lat="44.73989" lon="0.47515">
        <ele>158.2</ele>
        <time>2024-07-14T07:53:17Z</time>
      </trkpt>
      <trkpt lat="44.73988" lon="0.47519">
        <ele>158.2</ele>
        <time>2024-07-14T07:53:18Z</time>
      </trkpt>
      <trkpt lat="44.73986" lon="0.47527">
        <ele>158.3</ele>
        <time>2024-07-14T07:53:20Z</time>
      </trkpt>
      <trkpt lat="44.73983" lon="0.47534">
        <ele>158.3</ele>
        <time>2024-07-14T07:53:22Z</time>
      </trkpt>
      <trkpt lat="44.73981" lon="0.47542">
        <ele>158.4</ele>
        <time>2024-07-14T07:53:24Z</time>
      </trkpt>
      <trkpt lat="44.73979" lon="0.47548">
        <ele>158.4</ele>
        <time>2024-07-14T07:53:26Z</time>
      </trkpt>
      <trkpt lat="44.73978" lon="0.47552">
        <ele>158.4</ele>
        <time>2024-07-14T07:53:27Z</time>
      </trkpt>
      <trkpt lat="44.73977" lon="0.47555">
        <ele>158.4</ele>
        <time>2024-07-14T07:53:28Z</time>
      </trkpt>
      <trkpt lat="44.73975" lon="0.47563">
        <ele>158.5</ele>
        <time>2024-07-14T07:53:30Z</time>
      </trkpt>
      <trkpt lat="44.73972" lon="0.4757">
        <ele>158.4</ele>
        <time>2024-07-14T07:53:32Z</time>
      </trkpt>
      <trkpt lat="44.73971" lon="0.47574">
        <ele>158.5</ele>
        <time>2024-07-14T07:53:33Z</time>
      </trkpt>
      <trkpt lat="44.7397" lon="0.47577">
        <ele>158.5</ele>
        <time>2024-07-14T07:53:34Z</time>
      </trkpt>
      <trkpt lat="44.73968" lon="0.47584">
        <ele>158.5</ele>
        <time>2024-07-14T07:53:36Z</time>
      </trkpt>
      <trkpt lat="44.73966" lon="0.47592">
        <ele>158.5</ele>
        <time>2024-07-14T07:53:38Z</time>
      </trkpt>
      <trkpt lat="44.73965" lon="0.47596">
        <ele>158.5</ele>
        <time>2024-07-14T07:53:39Z</time>
      </trkpt>
      <trkpt lat="44.73964" lon="0.47601">
        <ele>158.5</ele>
        <time>2024-07-14T07:53:40Z</time>
      </trkpt>
      <trkpt lat="44.73962" lon="0.4761">
        <ele>158.5</ele>
        <time>2024-07-14T07:53:42Z</time>
      </trkpt>
      <trkpt lat="44.73959" lon="0.47619">
        <ele>158.5</ele>
        <time>2024-07-14T07:53:44Z</time>
      </trkpt>
      <trkpt lat="44.73956" lon="0.47627">
        <ele>158.6</ele>
        <time>2024-07-14T07:53:46Z</time>
      </trkpt>
      <trkpt lat="44.73955" lon="0.47632">
        <ele>158.6</ele>
        <time>2024-07-14T07:53:47Z</time>
      </trkpt>
      <trkpt lat="44.73954" lon="0.47636">
        <ele>158.7</ele>
        <time>2024-07-14T07:53:48Z</time>
      </trkpt>
      <trkpt lat="44.7395" lon="0.47643">
        <ele>158.7</ele>
        <time>2024-07-14T07:53:50Z</time>
      </trkpt>
      <trkpt lat="44.73948" lon="0.47649">
        <ele>158.8</ele>
        <time>2024-07-14T07:53:52Z</time>
      </trkpt>
      <trkpt lat="44.73946" lon="0.47655">
        <ele>158.7</ele>
        <time>2024-07-14T07:53:54Z</time>
      </trkpt>
      <trkpt lat="44.73946" lon="0.47663">
        <ele>158.6</ele>
        <time>2024-07-14T07:53:56Z</time>
      </trkpt>
      <trkpt lat="44.73946" lon="0.47667">
        <ele>158.4</ele>
        <time>2024-07-14T07:53:57Z</time>
      </trkpt>
      <trkpt lat="44.73946" lon="0.47669">
        <ele>158.3</ele>
        <time>2024-07-14T07:53:58Z</time>
      </trkpt>
      <trkpt lat="44.73946" lon="0.47669">
        <ele>158.3</ele>
        <time>2024-07-14T07:53:59Z</time>
      </trkpt>
      <trkpt lat="44.73946" lon="0.47672">
        <ele>158.1</ele>
        <time>2024-07-14T07:54:04Z</time>
      </trkpt>
      <trkpt lat="44.73947" lon="0.4768">
        <ele>157.7</ele>
        <time>2024-07-14T07:54:06Z</time>
      </trkpt>
      <trkpt lat="44.73948" lon="0.47686">
        <ele>157.3</ele>
        <time>2024-07-14T07:54:07Z</time>
      </trkpt>
      <trkpt lat="44.73951" lon="0.47693">
        <ele>156.8</ele>
        <time>2024-07-14T07:54:08Z</time>
      </trkpt>
      <trkpt lat="44.73956" lon="0.47708">
        <ele>155.8</ele>
        <time>2024-07-14T07:54:10Z</time>
      </trkpt>
      <trkpt lat="44.73963" lon="0.47726">
        <ele>154.7</ele>
        <time>2024-07-14T07:54:12Z</time>
      </trkpt>
      <trkpt lat="44.73971" lon="0.47744">
        <ele>153.8</ele>
        <time>2024-07-14T07:54:14Z</time>
      </trkpt>
      <trkpt lat="44.73979" lon="0.47761">
        <ele>153</ele>
        <time>2024-07-14T07:54:16Z</time>
      </trkpt>
      <trkpt lat="44.73986" lon="0.47776">
        <ele>152.4</ele>
        <time>2024-07-14T07:54:18Z</time>
      </trkpt>
      <trkpt lat="44.73994" lon="0.4779">
        <ele>151.8</ele>
        <time>2024-07-14T07:54:20Z</time>
      </trkpt>
      <trkpt lat="44.74001" lon="0.47802">
        <ele>151.3</ele>
        <time>2024-07-14T07:54:22Z</time>
      </trkpt>
      <trkpt lat="44.74004" lon="0.47807">
        <ele>151.1</ele>
        <time>2024-07-14T07:54:23Z</time>
      </trkpt>
      <trkpt lat="44.74008" lon="0.47812">
        <ele>150.9</ele>
        <time>2024-07-14T07:54:24Z</time>
      </trkpt>
      <trkpt lat="44.74011" lon="0.47817">
        <ele>150.7</ele>
        <time>2024-07-14T07:54:25Z</time>
      </trkpt>
      <trkpt lat="44.74016" lon="0.47822">
        <ele>150.5</ele>
        <time>2024-07-14T07:54:26Z</time>
      </trkpt>
      <trkpt lat="44.74019" lon="0.47827">
        <ele>150.4</ele>
        <time>2024-07-14T07:54:27Z</time>
      </trkpt>
      <trkpt lat="44.74022" lon="0.47833">
        <ele>150.3</ele>
        <time>2024-07-14T07:54:28Z</time>
      </trkpt>
      <trkpt lat="44.74026" lon="0.47841">
        <ele>150.2</ele>
        <time>2024-07-14T07:54:30Z</time>
      </trkpt>
      <trkpt lat="44.74027" lon="0.47847">
        <ele>150.2</ele>
        <time>2024-07-14T07:54:32Z</time>
      </trkpt>
      <trkpt lat="44.74024" lon="0.47853">
        <ele>150.3</ele>
        <time>2024-07-14T07:54:34Z</time>
      </trkpt>
      <trkpt lat="44.74024" lon="0.47857">
        <ele>150.4</ele>
        <time>2024-07-14T07:54:35Z</time>
      </trkpt>
      <trkpt lat="44.74026" lon="0.4786">
        <ele>150.4</ele>
        <time>2024-07-14T07:54:36Z</time>
      </trkpt>
      <trkpt lat="44.74026" lon="0.47863">
        <ele>150.5</ele>
        <time>2024-07-14T07:54:37Z</time>
      </trkpt>
      <trkpt lat="44.74025" lon="0.47867">
        <ele>150.5</ele>
        <time>2024-07-14T07:54:38Z</time>
      </trkpt>
      <trkpt lat="44.74021" lon="0.47873">
        <ele>150.7</ele>
        <time>2024-07-14T07:54:40Z</time>
      </trkpt>
      <trkpt lat="44.74019" lon="0.47875">
        <ele>150.7</ele>
        <time>2024-07-14T07:54:41Z</time>
      </trkpt>
      <trkpt lat="44.74017" lon="0.47878">
        <ele>150.8</ele>
        <time>2024-07-14T07:54:42Z</time>
      </trkpt>
      <trkpt lat="44.74013" lon="0.47883">
        <ele>150.9</ele>
        <time>2024-07-14T07:54:44Z</time>
      </trkpt>
      <trkpt lat="44.74009" lon="0.47888">
        <ele>151</ele>
        <time>2024-07-14T07:54:46Z</time>
      </trkpt>
      <trkpt lat="44.74007" lon="0.47891">
        <ele>151.1</ele>
        <time>2024-07-14T07:54:47Z</time>
      </trkpt>
      <trkpt lat="44.74005" lon="0.47893">
        <ele>151.2</ele>
        <time>2024-07-14T07:54:48Z</time>
      </trkpt>
      <trkpt lat="44.74004" lon="0.47896">
        <ele>151.2</ele>
        <time>2024-07-14T07:54:49Z</time>
      </trkpt>
      <trkpt lat="44.74002" lon="0.47898">
        <ele>151.3</ele>
        <time>2024-07-14T07:54:50Z</time>
      </trkpt>
      <trkpt lat="44.73998" lon="0.47903">
        <ele>151.4</ele>
        <time>2024-07-14T07:54:52Z</time>
      </trkpt>
      <trkpt lat="44.73997" lon="0.47905">
        <ele>151.4</ele>
        <time>2024-07-14T07:54:53Z</time>
      </trkpt>
      <trkpt lat="44.73995" lon="0.47908">
        <ele>151.5</ele>
        <time>2024-07-14T07:54:54Z</time>
      </trkpt>
      <trkpt lat="44.73992" lon="0.47913">
        <ele>151.6</ele>
        <time>2024-07-14T07:54:56Z</time>
      </trkpt>
      <trkpt lat="44.73988" lon="0.47919">
        <ele>151.7</ele>
        <time>2024-07-14T07:54:58Z</time>
      </trkpt>
      <trkpt lat="44.73986" lon="0.47926">
        <ele>152.1</ele>
        <time>2024-07-14T07:55:00Z</time>
      </trkpt>
      <trkpt lat="44.73985" lon="0.4793">
        <ele>152.3</ele>
        <time>2024-07-14T07:55:01Z</time>
      </trkpt>
      <trkpt lat="44.73986" lon="0.47934">
        <ele>152.4</ele>
        <time>2024-07-14T07:55:02Z</time>
      </trkpt>
      <trkpt lat="44.73989" lon="0.47942">
        <ele>152.6</ele>
        <time>2024-07-14T07:55:04Z</time>
      </trkpt>
      <trkpt lat="44.7399" lon="0.47945">
        <ele>152.7</ele>
        <time>2024-07-14T07:55:05Z</time>
      </trkpt>
      <trkpt lat="44.73992" lon="0.47949">
        <ele>152.8</ele>
        <time>2024-07-14T07:55:06Z</time>
      </trkpt>
      <trkpt lat="44.73994" lon="0.47956">
        <ele>153.1</ele>
        <time>2024-07-14T07:55:08Z</time>
      </trkpt>
      <trkpt lat="44.73998" lon="0.47963">
        <ele>153.3</ele>
        <time>2024-07-14T07:55:10Z</time>
      </trkpt>
      <trkpt lat="44.74001" lon="0.4797">
        <ele>153.5</ele>
        <time>2024-07-14T07:55:12Z</time>
      </trkpt>
      <trkpt lat="44.74004" lon="0.47976">
        <ele>153.6</ele>
        <time>2024-07-14T07:55:14Z</time>
      </trkpt>
      <trkpt lat="44.74007" lon="0.47983">
        <ele>153.8</ele>
        <time>2024-07-14T07:55:16Z</time>
      </trkpt>
      <trkpt lat="44.74011" lon="0.4799">
        <ele>154</ele>
        <time>2024-07-14T07:55:18Z</time>
      </trkpt>
      <trkpt lat="44.74014" lon="0.47996">
        <ele>154.2</ele>
        <time>2024-07-14T07:55:20Z</time>
      </trkpt>
      <trkpt lat="44.74018" lon="0.48003">
        <ele>154.3</ele>
        <time>2024-07-14T07:55:22Z</time>
      </trkpt>
      <trkpt lat="44.74021" lon="0.48009">
        <ele>154.5</ele>
        <time>2024-07-14T07:55:24Z</time>
      </trkpt>
      <trkpt lat="44.74023" lon="0.48013">
        <ele>154.6</ele>
        <time>2024-07-14T07:55:25Z</time>
      </trkpt>
      <trkpt lat="44.74025" lon="0.48016">
        <ele>154.7</ele>
        <time>2024-07-14T07:55:26Z</time>
      </trkpt>
      <trkpt lat="44.74029" lon="0.48023">
        <ele>154.9</ele>
        <time>2024-07-14T07:55:28Z</time>
      </trkpt>
      <trkpt lat="44.74032" lon="0.48029">
        <ele>155.2</ele>
        <time>2024-07-14T07:55:30Z</time>
      </trkpt>
      <trkpt lat="44.74036" lon="0.48036">
        <ele>155.4</ele>
        <time>2024-07-14T07:55:32Z</time>
      </trkpt>
      <trkpt lat="44.74039" lon="0.48043">
        <ele>155.7</ele>
        <time>2024-07-14T07:55:34Z</time>
      </trkpt>
      <trkpt lat="44.74043" lon="0.48049">
        <ele>155.9</ele>
        <time>2024-07-14T07:55:36Z</time>
      </trkpt>
      <trkpt lat="44.74047" lon="0.48056">
        <ele>156.2</ele>
        <time>2024-07-14T07:55:38Z</time>
      </trkpt>
      <trkpt lat="44.74049" lon="0.48059">
        <ele>156.3</ele>
        <time>2024-07-14T07:55:39Z</time>
      </trkpt>
      <trkpt lat="44.74051" lon="0.48062">
        <ele>156.5</ele>
        <time>2024-07-14T07:55:40Z</time>
      </trkpt>
      <trkpt lat="44.74055" lon="0.48068">
        <ele>156.7</ele>
        <time>2024-07-14T07:55:42Z</time>
      </trkpt>
      <trkpt lat="44.74059" lon="0.48075">
        <ele>157</ele>
        <time>2024-07-14T07:55:44Z</time>
      </trkpt>
      <trkpt lat="44.74063" lon="0.48081">
        <ele>157.2</ele>
        <time>2024-07-14T07:55:46Z</time>
      </trkpt>
      <trkpt lat="44.74064" lon="0.48084">
        <ele>157.4</ele>
        <time>2024-07-14T07:55:47Z</time>
      </trkpt>
      <trkpt lat="44.74067" lon="0.48087">
        <ele>157.5</ele>
        <time>2024-07-14T07:55:48Z</time>
      </trkpt>
      <trkpt lat="44.74069" lon="0.4809">
        <ele>157.6</ele>
        <time>2024-07-14T07:55:49Z</time>
      </trkpt>
      <trkpt lat="44.74071" lon="0.48093">
        <ele>157.7</ele>
        <time>2024-07-14T07:55:50Z</time>
      </trkpt>
      <trkpt lat="44.74074" lon="0.48099">
        <ele>158</ele>
        <time>2024-07-14T07:55:52Z</time>
      </trkpt>
      <trkpt lat="44.74078" lon="0.48105">
        <ele>158.2</ele>
        <time>2024-07-14T07:55:54Z</time>
      </trkpt>
      <trkpt lat="44.74082" lon="0.48111">
        <ele>158.5</ele>
        <time>2024-07-14T07:55:56Z</time>
      </trkpt>
      <trkpt lat="44.74084" lon="0.48114">
        <ele>158.6</ele>
        <time>2024-07-14T07:55:57Z</time>
      </trkpt>
      <trkpt lat="44.74086" lon="0.48118">
        <ele>158.8</ele>
        <time>2024-07-14T07:55:58Z</time>
      </trkpt>
      <trkpt lat="44.74089" lon="0.48125">
        <ele>159.1</ele>
        <time>2024-07-14T07:56:00Z</time>
      </trkpt>
      <trkpt lat="44.74093" lon="0.48131">
        <ele>159.4</ele>
        <time>2024-07-14T07:56:02Z</time>
      </trkpt>
      <trkpt lat="44.74097" lon="0.48137">
        <ele>159.6</ele>
        <time>2024-07-14T07:56:04Z</time>
      </trkpt>
      <trkpt lat="44.74101" lon="0.48143">
        <ele>159.8</ele>
        <time>2024-07-14T07:56:06Z</time>
      </trkpt>
      <trkpt lat="44.74104" lon="0.4815">
        <ele>160</ele>
        <time>2024-07-14T07:56:08Z</time>
      </trkpt>
      <trkpt lat="44.74108" lon="0.48157">
        <ele>160.2</ele>
        <time>2024-07-14T07:56:10Z</time>
      </trkpt>
      <trkpt lat="44.74112" lon="0.48163">
        <ele>160.4</ele>
        <time>2024-07-14T07:56:12Z</time>
      </trkpt>
      <trkpt lat="44.74116" lon="0.4817">
        <ele>160.6</ele>
        <time>2024-07-14T07:56:14Z</time>
      </trkpt>
      <trkpt lat="44.74121" lon="0.48176">
        <ele>160.8</ele>
        <time>2024-07-14T07:56:16Z</time>
      </trkpt>
      <trkpt lat="44.74125" lon="0.48181">
        <ele>161</ele>
        <time>2024-07-14T07:56:18Z</time>
      </trkpt>
      <trkpt lat="44.74127" lon="0.48185">
        <ele>161.1</ele>
        <time>2024-07-14T07:56:19Z</time>
      </trkpt>
      <trkpt lat="44.74129" lon="0.48188">
        <ele>161.2</ele>
        <time>2024-07-14T07:56:20Z</time>
      </trkpt>
      <trkpt lat="44.74131" lon="0.48191">
        <ele>161.2</ele>
        <time>2024-07-14T07:56:21Z</time>
      </trkpt>
      <trkpt lat="44.74133" lon="0.48194">
        <ele>161.3</ele>
        <time>2024-07-14T07:56:22Z</time>
      </trkpt>
      <trkpt lat="44.74135" lon="0.48197">
        <ele>161.4</ele>
        <time>2024-07-14T07:56:23Z</time>
      </trkpt>
      <trkpt lat="44.74137" lon="0.482">
        <ele>161.4</ele>
        <time>2024-07-14T07:56:24Z</time>
      </trkpt>
      <trkpt lat="44.7414" lon="0.48204">
        <ele>161.5</ele>
        <time>2024-07-14T07:56:25Z</time>
      </trkpt>
      <trkpt lat="44.74142" lon="0.48207">
        <ele>161.6</ele>
        <time>2024-07-14T07:56:26Z</time>
      </trkpt>
      <trkpt lat="44.74144" lon="0.4821">
        <ele>161.6</ele>
        <time>2024-07-14T07:56:27Z</time>
      </trkpt>
      <trkpt lat="44.74146" lon="0.48213">
        <ele>161.7</ele>
        <time>2024-07-14T07:56:28Z</time>
      </trkpt>
      <trkpt lat="44.74148" lon="0.48216">
        <ele>161.7</ele>
        <time>2024-07-14T07:56:29Z</time>
      </trkpt>
      <trkpt lat="44.7415" lon="0.48219">
        <ele>161.8</ele>
        <time>2024-07-14T07:56:30Z</time>
      </trkpt>
      <trkpt lat="44.74154" lon="0.48226">
        <ele>161.9</ele>
        <time>2024-07-14T07:56:32Z</time>
      </trkpt>
      <trkpt lat="44.74157" lon="0.48232">
        <ele>162</ele>
        <time>2024-07-14T07:56:34Z</time>
      </trkpt>
      <trkpt lat="44.74159" lon="0.48236">
        <ele>162.1</ele>
        <time>2024-07-14T07:56:35Z</time>
      </trkpt>
      <trkpt lat="44.74161" lon="0.48238">
        <ele>162.2</ele>
        <time>2024-07-14T07:56:36Z</time>
      </trkpt>
      <trkpt lat="44.74166" lon="0.48245">
        <ele>162.3</ele>
        <time>2024-07-14T07:56:38Z</time>
      </trkpt>
      <trkpt lat="44.7417" lon="0.48251">
        <ele>162.4</ele>
        <time>2024-07-14T07:56:40Z</time>
      </trkpt>
      <trkpt lat="44.74172" lon="0.48255">
        <ele>162.5</ele>
        <time>2024-07-14T07:56:41Z</time>
      </trkpt>
      <trkpt lat="44.74173" lon="0.48258">
        <ele>162.6</ele>
        <time>2024-07-14T07:56:42Z</time>
      </trkpt>
      <trkpt lat="44.74174" lon="0.48267">
        <ele>162.7</ele>
        <time>2024-07-14T07:56:44Z</time>
      </trkpt>
      <trkpt lat="44.74173" lon="0.48271">
        <ele>162.8</ele>
        <time>2024-07-14T07:56:45Z</time>
      </trkpt>
      <trkpt lat="44.74172" lon="0.48275">
        <ele>163</ele>
        <time>2024-07-14T07:56:46Z</time>
      </trkpt>
      <trkpt lat="44.74168" lon="0.48282">
        <ele>163.2</ele>
        <time>2024-07-14T07:56:48Z</time>
      </trkpt>
      <trkpt lat="44.74164" lon="0.48288">
        <ele>163.5</ele>
        <time>2024-07-14T07:56:50Z</time>
      </trkpt>
      <trkpt lat="44.74161" lon="0.48295">
        <ele>163.7</ele>
        <time>2024-07-14T07:56:52Z</time>
      </trkpt>
      <trkpt lat="44.74158" lon="0.48302">
        <ele>163.9</ele>
        <time>2024-07-14T07:56:54Z</time>
      </trkpt>
      <trkpt lat="44.74158" lon="0.48309">
        <ele>164</ele>
        <time>2024-07-14T07:56:56Z</time>
      </trkpt>
      <trkpt lat="44.74159" lon="0.48312">
        <ele>164</ele>
        <time>2024-07-14T07:56:57Z</time>
      </trkpt>
      <trkpt lat="44.74161" lon="0.48314">
        <ele>164</ele>
        <time>2024-07-14T07:56:58Z</time>
      </trkpt>
      <trkpt lat="44.74164" lon="0.48316">
        <ele>164</ele>
        <time>2024-07-14T07:56:59Z</time>
      </trkpt>
      <trkpt lat="44.74166" lon="0.48319">
        <ele>164</ele>
        <time>2024-07-14T07:57:00Z</time>
      </trkpt>
      <trkpt lat="44.74172" lon="0.48325">
        <ele>163.9</ele>
        <time>2024-07-14T07:57:02Z</time>
      </trkpt>
      <trkpt lat="44.74175" lon="0.48327">
        <ele>163.8</ele>
        <time>2024-07-14T07:57:03Z</time>
      </trkpt>
      <trkpt lat="44.74178" lon="0.48331">
        <ele>163.8</ele>
        <time>2024-07-14T07:57:04Z</time>
      </trkpt>
      <trkpt lat="44.74185" lon="0.48337">
        <ele>163.8</ele>
        <time>2024-07-14T07:57:06Z</time>
      </trkpt>
      <trkpt lat="44.74191" lon="0.48344">
        <ele>163.7</ele>
        <time>2024-07-14T07:57:08Z</time>
      </trkpt>
      <trkpt lat="44.74197" lon="0.48352">
        <ele>163.7</ele>
        <time>2024-07-14T07:57:10Z</time>
      </trkpt>
      <trkpt lat="44.74203" lon="0.4836">
        <ele>163.6</ele>
        <time>2024-07-14T07:57:12Z</time>
      </trkpt>
      <trkpt lat="44.74207" lon="0.48368">
        <ele>163.6</ele>
        <time>2024-07-14T07:57:14Z</time>
      </trkpt>
      <trkpt lat="44.74211" lon="0.48376">
        <ele>163.4</ele>
        <time>2024-07-14T07:57:16Z</time>
      </trkpt>
      <trkpt lat="44.74214" lon="0.48381">
        <ele>163.3</ele>
        <time>2024-07-14T07:57:17Z</time>
      </trkpt>
      <trkpt lat="44.74218" lon="0.48384">
        <ele>163.2</ele>
        <time>2024-07-14T07:57:18Z</time>
      </trkpt>
      <trkpt lat="44.74221" lon="0.48386">
        <ele>163.1</ele>
        <time>2024-07-14T07:57:19Z</time>
      </trkpt>
      <trkpt lat="44.74225" lon="0.48384">
        <ele>162.9</ele>
        <time>2024-07-14T07:57:20Z</time>
      </trkpt>
      <trkpt lat="44.74229" lon="0.48381">
        <ele>162.6</ele>
        <time>2024-07-14T07:57:21Z</time>
      </trkpt>
      <trkpt lat="44.74233" lon="0.48377">
        <ele>162.5</ele>
        <time>2024-07-14T07:57:22Z</time>
      </trkpt>
      <trkpt lat="44.7424" lon="0.48368">
        <ele>162.1</ele>
        <time>2024-07-14T07:57:24Z</time>
      </trkpt>
      <trkpt lat="44.74244" lon="0.48364">
        <ele>161.6</ele>
        <time>2024-07-14T07:57:25Z</time>
      </trkpt>
      <trkpt lat="44.74248" lon="0.48359">
        <ele>161.3</ele>
        <time>2024-07-14T07:57:26Z</time>
      </trkpt>
      <trkpt lat="44.74252" lon="0.48355">
        <ele>160.9</ele>
        <time>2024-07-14T07:57:27Z</time>
      </trkpt>
      <trkpt lat="44.74255" lon="0.4835">
        <ele>160.6</ele>
        <time>2024-07-14T07:57:28Z</time>
      </trkpt>
      <trkpt lat="44.74259" lon="0.48345">
        <ele>160.2</ele>
        <time>2024-07-14T07:57:29Z</time>
      </trkpt>
      <trkpt lat="44.74262" lon="0.4834">
        <ele>159.7</ele>
        <time>2024-07-14T07:57:30Z</time>
      </trkpt>
      <trkpt lat="44.7427" lon="0.48332">
        <ele>158.9</ele>
        <time>2024-07-14T07:57:32Z</time>
      </trkpt>
      <trkpt lat="44.74273" lon="0.48327">
        <ele>158.3</ele>
        <time>2024-07-14T07:57:33Z</time>
      </trkpt>
      <trkpt lat="44.74275" lon="0.48321">
        <ele>158</ele>
        <time>2024-07-14T07:57:34Z</time>
      </trkpt>
      <trkpt lat="44.74278" lon="0.48315">
        <ele>157.6</ele>
        <time>2024-07-14T07:57:35Z</time>
      </trkpt>
      <trkpt lat="44.74281" lon="0.4831">
        <ele>157.3</ele>
        <time>2024-07-14T07:57:36Z</time>
      </trkpt>
      <trkpt lat="44.74285" lon="0.48305">
        <ele>156.7</ele>
        <time>2024-07-14T07:57:37Z</time>
      </trkpt>
      <trkpt lat="44.74288" lon="0.483">
        <ele>156.4</ele>
        <time>2024-07-14T07:57:38Z</time>
      </trkpt>
      <trkpt lat="44.74296" lon="0.4829">
        <ele>155.8</ele>
        <time>2024-07-14T07:57:40Z</time>
      </trkpt>
      <trkpt lat="44.74303" lon="0.48279">
        <ele>155.1</ele>
        <time>2024-07-14T07:57:42Z</time>
      </trkpt>
      <trkpt lat="44.74307" lon="0.48273">
        <ele>154.8</ele>
        <time>2024-07-14T07:57:43Z</time>
      </trkpt>
      <trkpt lat="44.74311" lon="0.48265">
        <ele>154.3</ele>
        <time>2024-07-14T07:57:44Z</time>
      </trkpt>
      <trkpt lat="44.74316" lon="0.48257">
        <ele>153.6</ele>
        <time>2024-07-14T07:57:45Z</time>
      </trkpt>
      <trkpt lat="44.74322" lon="0.4825">
        <ele>152.9</ele>
        <time>2024-07-14T07:57:46Z</time>
      </trkpt>
      <trkpt lat="44.74335" lon="0.48235">
        <ele>151.5</ele>
        <time>2024-07-14T07:57:48Z</time>
      </trkpt>
      <trkpt lat="44.74348" lon="0.48219">
        <ele>150</ele>
        <time>2024-07-14T07:57:50Z</time>
      </trkpt>
      <trkpt lat="44.74354" lon="0.48212">
        <ele>149.6</ele>
        <time>2024-07-14T07:57:51Z</time>
      </trkpt>
      <trkpt lat="44.7436" lon="0.48205">
        <ele>149</ele>
        <time>2024-07-14T07:57:52Z</time>
      </trkpt>
      <trkpt lat="44.74369" lon="0.48194">
        <ele>148.4</ele>
        <time>2024-07-14T07:57:54Z</time>
      </trkpt>
      <trkpt lat="44.74378" lon="0.48183">
        <ele>147.7</ele>
        <time>2024-07-14T07:57:56Z</time>
      </trkpt>
      <trkpt lat="44.74387" lon="0.48172">
        <ele>147.1</ele>
        <time>2024-07-14T07:57:58Z</time>
      </trkpt>
      <trkpt lat="44.74391" lon="0.48166">
        <ele>146.9</ele>
        <time>2024-07-14T07:57:59Z</time>
      </trkpt>
      <trkpt lat="44.74396" lon="0.48159">
        <ele>146.7</ele>
        <time>2024-07-14T07:58:00Z</time>
      </trkpt>
      <trkpt lat="44.744" lon="0.48152">
        <ele>146.5</ele>
        <time>2024-07-14T07:58:01Z</time>
      </trkpt>
      <trkpt lat="44.74405" lon="0.48147">
        <ele>146.3</ele>
        <time>2024-07-14T07:58:02Z</time>
      </trkpt>
      <trkpt lat="44.7441" lon="0.48141">
        <ele>146.2</ele>
        <time>2024-07-14T07:58:03Z</time>
      </trkpt>
      <trkpt lat="44.74414" lon="0.48133">
        <ele>145.9</ele>
        <time>2024-07-14T07:58:04Z</time>
      </trkpt>
      <trkpt lat="44.74419" lon="0.48126">
        <ele>145.7</ele>
        <time>2024-07-14T07:58:05Z</time>
      </trkpt>
      <trkpt lat="44.74424" lon="0.4812">
        <ele>145.4</ele>
        <time>2024-07-14T07:58:06Z</time>
      </trkpt>
      <trkpt lat="44.74429" lon="0.48114">
        <ele>145.3</ele>
        <time>2024-07-14T07:58:07Z</time>
      </trkpt>
      <trkpt lat="44.74433" lon="0.48108">
        <ele>145.1</ele>
        <time>2024-07-14T07:58:08Z</time>
      </trkpt>
      <trkpt lat="44.74437" lon="0.48101">
        <ele>145.1</ele>
        <time>2024-07-14T07:58:09Z</time>
      </trkpt>
      <trkpt lat="44.74442" lon="0.48095">
        <ele>145.1</ele>
        <time>2024-07-14T07:58:10Z</time>
      </trkpt>
      <trkpt lat="44.74452" lon="0.48083">
        <ele>144.8</ele>
        <time>2024-07-14T07:58:12Z</time>
      </trkpt>
      <trkpt lat="44.74456" lon="0.48077">
        <ele>144.5</ele>
        <time>2024-07-14T07:58:13Z</time>
      </trkpt>
      <trkpt lat="44.74461" lon="0.4807">
        <ele>144.3</ele>
        <time>2024-07-14T07:58:14Z</time>
      </trkpt>
      <trkpt lat="44.7447" lon="0.48059">
        <ele>143.9</ele>
        <time>2024-07-14T07:58:16Z</time>
      </trkpt>
      <trkpt lat="44.7448" lon="0.48045">
        <ele>143.4</ele>
        <time>2024-07-14T07:58:18Z</time>
      </trkpt>
      <trkpt lat="44.74492" lon="0.48032">
        <ele>142.6</ele>
        <time>2024-07-14T07:58:20Z</time>
      </trkpt>
      <trkpt lat="44.74501" lon="0.48019">
        <ele>141.8</ele>
        <time>2024-07-14T07:58:22Z</time>
      </trkpt>
      <trkpt lat="44.74505" lon="0.48013">
        <ele>141.3</ele>
        <time>2024-07-14T07:58:23Z</time>
      </trkpt>
      <trkpt lat="44.74509" lon="0.48008">
        <ele>140.9</ele>
        <time>2024-07-14T07:58:24Z</time>
      </trkpt>
      <trkpt lat="44.74514" lon="0.48004">
        <ele>140.6</ele>
        <time>2024-07-14T07:58:25Z</time>
      </trkpt>
      <trkpt lat="44.74518" lon="0.48">
        <ele>140.2</ele>
        <time>2024-07-14T07:58:26Z</time>
      </trkpt>
      <trkpt lat="44.74522" lon="0.47996">
        <ele>139.8</ele>
        <time>2024-07-14T07:58:27Z</time>
      </trkpt>
      <trkpt lat="44.74528" lon="0.47994">
        <ele>139.6</ele>
        <time>2024-07-14T07:58:28Z</time>
      </trkpt>
      <trkpt lat="44.74539" lon="0.47989">
        <ele>139</ele>
        <time>2024-07-14T07:58:30Z</time>
      </trkpt>
      <trkpt lat="44.74545" lon="0.47989">
        <ele>138.8</ele>
        <time>2024-07-14T07:58:31Z</time>
      </trkpt>
      <trkpt lat="44.74551" lon="0.47988">
        <ele>138.3</ele>
        <time>2024-07-14T07:58:32Z</time>
      </trkpt>
      <trkpt lat="44.74564" lon="0.47986">
        <ele>137.6</ele>
        <time>2024-07-14T07:58:34Z</time>
      </trkpt>
      <trkpt lat="44.74573" lon="0.47983">
        <ele>137</ele>
        <time>2024-07-14T07:58:35Z</time>
      </trkpt>
      <trkpt lat="44.74583" lon="0.47978">
        <ele>136.4</ele>
        <time>2024-07-14T07:58:36Z</time>
      </trkpt>
      <trkpt lat="44.7459" lon="0.47972">
        <ele>135.9</ele>
        <time>2024-07-14T07:58:37Z</time>
      </trkpt>
      <trkpt lat="44.74596" lon="0.47966">
        <ele>135.1</ele>
        <time>2024-07-14T07:58:38Z</time>
      </trkpt>
      <trkpt lat="44.74607" lon="0.47954">
        <ele>134.1</ele>
        <time>2024-07-14T07:58:40Z</time>
      </trkpt>
      <trkpt lat="44.74612" lon="0.47948">
        <ele>133.4</ele>
        <time>2024-07-14T07:58:41Z</time>
      </trkpt>
      <trkpt lat="44.74618" lon="0.47943">
        <ele>132.9</ele>
        <time>2024-07-14T07:58:42Z</time>
      </trkpt>
      <trkpt lat="44.74625" lon="0.47938">
        <ele>132.4</ele>
        <time>2024-07-14T07:58:43Z</time>
      </trkpt>
      <trkpt lat="44.74633" lon="0.47935">
        <ele>131.9</ele>
        <time>2024-07-14T07:58:44Z</time>
      </trkpt>
      <trkpt lat="44.74648" lon="0.47927">
        <ele>131.1</ele>
        <time>2024-07-14T07:58:46Z</time>
      </trkpt>
      <trkpt lat="44.74659" lon="0.47921">
        <ele>130.6</ele>
        <time>2024-07-14T07:58:48Z</time>
      </trkpt>
      <trkpt lat="44.74663" lon="0.4792">
        <ele>130.6</ele>
        <time>2024-07-14T07:58:49Z</time>
      </trkpt>
      <trkpt lat="44.74666" lon="0.47919">
        <ele>130.4</ele>
        <time>2024-07-14T07:58:50Z</time>
      </trkpt>
      <trkpt lat="44.7467" lon="0.4792">
        <ele>130.5</ele>
        <time>2024-07-14T07:58:51Z</time>
      </trkpt>
      <trkpt lat="44.74672" lon="0.47922">
        <ele>130.3</ele>
        <time>2024-07-14T07:58:52Z</time>
      </trkpt>
      <trkpt lat="44.74678" lon="0.4793">
        <ele>129.9</ele>
        <time>2024-07-14T07:58:54Z</time>
      </trkpt>
      <trkpt lat="44.74682" lon="0.47941">
        <ele>129.6</ele>
        <time>2024-07-14T07:58:56Z</time>
      </trkpt>
      <trkpt lat="44.74685" lon="0.47954">
        <ele>129.4</ele>
        <time>2024-07-14T07:58:58Z</time>
      </trkpt>
      <trkpt lat="44.74687" lon="0.47968">
        <ele>129.4</ele>
        <time>2024-07-14T07:59:00Z</time>
      </trkpt>
      <trkpt lat="44.74688" lon="0.47982">
        <ele>129.4</ele>
        <time>2024-07-14T07:59:02Z</time>
      </trkpt>
      <trkpt lat="44.74689" lon="0.47997">
        <ele>129.4</ele>
        <time>2024-07-14T07:59:04Z</time>
      </trkpt>
      <trkpt lat="44.7469" lon="0.48011">
        <ele>129.3</ele>
        <time>2024-07-14T07:59:06Z</time>
      </trkpt>
      <trkpt lat="44.74691" lon="0.48025">
        <ele>129.1</ele>
        <time>2024-07-14T07:59:08Z</time>
      </trkpt>
      <trkpt lat="44.74692" lon="0.4804">
        <ele>129</ele>
        <time>2024-07-14T07:59:10Z</time>
      </trkpt>
      <trkpt lat="44.74692" lon="0.48054">
        <ele>128.8</ele>
        <time>2024-07-14T07:59:12Z</time>
      </trkpt>
      <trkpt lat="44.74693" lon="0.48069">
        <ele>128.7</ele>
        <time>2024-07-14T07:59:14Z</time>
      </trkpt>
      <trkpt lat="44.74693" lon="0.48084">
        <ele>128.8</ele>
        <time>2024-07-14T07:59:16Z</time>
      </trkpt>
      <trkpt lat="44.74694" lon="0.48099">
        <ele>128.9</ele>
        <time>2024-07-14T07:59:18Z</time>
      </trkpt>
      <trkpt lat="44.74694" lon="0.48106">
        <ele>128.8</ele>
        <time>2024-07-14T07:59:19Z</time>
      </trkpt>
      <trkpt lat="44.74695" lon="0.48114">
        <ele>128.8</ele>
        <time>2024-07-14T07:59:20Z</time>
      </trkpt>
      <trkpt lat="44.74697" lon="0.48128">
        <ele>128.8</ele>
        <time>2024-07-14T07:59:22Z</time>
      </trkpt>
      <trkpt lat="44.74698" lon="0.48142">
        <ele>128.8</ele>
        <time>2024-07-14T07:59:24Z</time>
      </trkpt>
      <trkpt lat="44.74699" lon="0.4815">
        <ele>128.8</ele>
        <time>2024-07-14T07:59:25Z</time>
      </trkpt>
      <trkpt lat="44.74699" lon="0.48157">
        <ele>128.8</ele>
        <time>2024-07-14T07:59:26Z</time>
      </trkpt>
      <trkpt lat="44.747" lon="0.48171">
        <ele>128.9</ele>
        <time>2024-07-14T07:59:28Z</time>
      </trkpt>
      <trkpt lat="44.74701" lon="0.48186">
        <ele>128.9</ele>
        <time>2024-07-14T07:59:30Z</time>
      </trkpt>
      <trkpt lat="44.74702" lon="0.48201">
        <ele>129</ele>
        <time>2024-07-14T07:59:32Z</time>
      </trkpt>
      <trkpt lat="44.74702" lon="0.48208">
        <ele>129</ele>
        <time>2024-07-14T07:59:33Z</time>
      </trkpt>
      <trkpt lat="44.74702" lon="0.48216">
        <ele>129</ele>
        <time>2024-07-14T07:59:34Z</time>
      </trkpt>
      <trkpt lat="44.74703" lon="0.48231">
        <ele>128.9</ele>
        <time>2024-07-14T07:59:36Z</time>
      </trkpt>
      <trkpt lat="44.74704" lon="0.48245">
        <ele>128.9</ele>
        <time>2024-07-14T07:59:38Z</time>
      </trkpt>
      <trkpt lat="44.74706" lon="0.4826">
        <ele>128.8</ele>
        <time>2024-07-14T07:59:40Z</time>
      </trkpt>
      <trkpt lat="44.74708" lon="0.48268">
        <ele>128.7</ele>
        <time>2024-07-14T07:59:41Z</time>
      </trkpt>
      <trkpt lat="44.7471" lon="0.48276">
        <ele>128.6</ele>
        <time>2024-07-14T07:59:42Z</time>
      </trkpt>
      <trkpt lat="44.74713" lon="0.48284">
        <ele>128.5</ele>
        <time>2024-07-14T07:59:43Z</time>
      </trkpt>
      <trkpt lat="44.74716" lon="0.48291">
        <ele>128.4</ele>
        <time>2024-07-14T07:59:44Z</time>
      </trkpt>
      <trkpt lat="44.74723" lon="0.48305">
        <ele>128.3</ele>
        <time>2024-07-14T07:59:46Z</time>
      </trkpt>
      <trkpt lat="44.7473" lon="0.48319">
        <ele>128.3</ele>
        <time>2024-07-14T07:59:48Z</time>
      </trkpt>
      <trkpt lat="44.74737" lon="0.48331">
        <ele>128.3</ele>
        <time>2024-07-14T07:59:50Z</time>
      </trkpt>
      <trkpt lat="44.74742" lon="0.48341">
        <ele>128.4</ele>
        <time>2024-07-14T07:59:52Z</time>
      </trkpt>
      <trkpt lat="44.74742" lon="0.48346">
        <ele>128.4</ele>
        <time>2024-07-14T07:59:53Z</time>
      </trkpt>
      <trkpt lat="44.74741" lon="0.4835">
        <ele>128.4</ele>
        <time>2024-07-14T07:59:54Z</time>
      </trkpt>
      <trkpt lat="44.74738" lon="0.48353">
        <ele>128.5</ele>
        <time>2024-07-14T07:59:55Z</time>
      </trkpt>
      <trkpt lat="44.74734" lon="0.48356">
        <ele>128.7</ele>
        <time>2024-07-14T07:59:56Z</time>
      </trkpt>
      <trkpt lat="44.74728" lon="0.48362">
        <ele>129</ele>
        <time>2024-07-14T07:59:58Z</time>
      </trkpt>
      <trkpt lat="44.74722" lon="0.48367">
        <ele>129.3</ele>
        <time>2024-07-14T08:00:00Z</time>
      </trkpt>
      <trkpt lat="44.74719" lon="0.48369">
        <ele>129.5</ele>
        <time>2024-07-14T08:00:01Z</time>
      </trkpt>
      <trkpt lat="44.74716" lon="0.48372">
        <ele>129.7</ele>
        <time>2024-07-14T08:00:02Z</time>
      </trkpt>
      <trkpt lat="44.74713" lon="0.48374">
        <ele>129.8</ele>
        <time>2024-07-14T08:00:03Z</time>
      </trkpt>
      <trkpt lat="44.7471" lon="0.48376">
        <ele>129.9</ele>
        <time>2024-07-14T08:00:04Z</time>
      </trkpt>
      <trkpt lat="44.74704" lon="0.48381">
        <ele>130.2</ele>
        <time>2024-07-14T08:00:06Z</time>
      </trkpt>
      <trkpt lat="44.74699" lon="0.48386">
        <ele>130.5</ele>
        <time>2024-07-14T08:00:08Z</time>
      </trkpt>
      <trkpt lat="44.74693" lon="0.48391">
        <ele>130.8</ele>
        <time>2024-07-14T08:00:10Z</time>
      </trkpt>
      <trkpt lat="44.74687" lon="0.48395">
        <ele>131.1</ele>
        <time>2024-07-14T08:00:12Z</time>
      </trkpt>
      <trkpt lat="44.74681" lon="0.484">
        <ele>131.4</ele>
        <time>2024-07-14T08:00:14Z</time>
      </trkpt>
      <trkpt lat="44.74679" lon="0.48402">
        <ele>131.6</ele>
        <time>2024-07-14T08:00:15Z</time>
      </trkpt>
      <trkpt lat="44.74676" lon="0.48404">
        <ele>131.7</ele>
        <time>2024-07-14T08:00:16Z</time>
      </trkpt>
      <trkpt lat="44.74673" lon="0.48405">
        <ele>131.9</ele>
        <time>2024-07-14T08:00:17Z</time>
      </trkpt>
      <trkpt lat="44.74671" lon="0.48407">
        <ele>131.9</ele>
        <time>2024-07-14T08:00:18Z</time>
      </trkpt>
      <trkpt lat="44.74666" lon="0.48411">
        <ele>132.3</ele>
        <time>2024-07-14T08:00:20Z</time>
      </trkpt>
      <trkpt lat="44.74661" lon="0.48415">
        <ele>132.7</ele>
        <time>2024-07-14T08:00:22Z</time>
      </trkpt>
      <trkpt lat="44.74657" lon="0.48417">
        <ele>132.9</ele>
        <time>2024-07-14T08:00:24Z</time>
      </trkpt>
      <trkpt lat="44.74654" lon="0.48418">
        <ele>133.1</ele>
        <time>2024-07-14T08:00:26Z</time>
      </trkpt>
      <trkpt lat="44.74651" lon="0.48418">
        <ele>133.3</ele>
        <time>2024-07-14T08:00:28Z</time>
      </trkpt>
      <trkpt lat="44.74649" lon="0.48418">
        <ele>133.2</ele>
        <time>2024-07-14T08:00:29Z</time>
      </trkpt>
      <trkpt lat="44.74648" lon="0.48419">
        <ele>133.4</ele>
        <time>2024-07-14T08:00:30Z</time>
      </trkpt>
      <trkpt lat="44.74647" lon="0.48419">
        <ele>133.4</ele>
        <time>2024-07-14T08:00:31Z</time>
      </trkpt>
      <trkpt lat="44.74645" lon="0.4842">
        <ele>133.5</ele>
        <time>2024-07-14T08:00:32Z</time>
      </trkpt>
      <trkpt lat="44.74641" lon="0.48422">
        <ele>133.7</ele>
        <time>2024-07-14T08:00:34Z</time>
      </trkpt>
      <trkpt lat="44.74639" lon="0.48423">
        <ele>133.9</ele>
        <time>2024-07-14T08:00:35Z</time>
      </trkpt>
      <trkpt lat="44.74636" lon="0.48424">
        <ele>134</ele>
        <time>2024-07-14T08:00:36Z</time>
      </trkpt>
      <trkpt lat="44.74633" lon="0.48426">
        <ele>134.3</ele>
        <time>2024-07-14T08:00:38Z</time>
      </trkpt>
      <trkpt lat="44.74628" lon="0.48427">
        <ele>134.4</ele>
        <time>2024-07-14T08:00:40Z</time>
      </trkpt>
      <trkpt lat="44.74627" lon="0.48428">
        <ele>134.4</ele>
        <time>2024-07-14T08:00:41Z</time>
      </trkpt>
      <trkpt lat="44.74625" lon="0.48429">
        <ele>134.4</ele>
        <time>2024-07-14T08:00:42Z</time>
      </trkpt>
      <trkpt lat="44.74623" lon="0.48432">
        <ele>134.7</ele>
        <time>2024-07-14T08:00:44Z</time>
      </trkpt>
      <trkpt lat="44.74619" lon="0.48434">
        <ele>134.8</ele>
        <time>2024-07-14T08:00:46Z</time>
      </trkpt>
      <trkpt lat="44.74616" lon="0.48435">
        <ele>135</ele>
        <time>2024-07-14T08:00:48Z</time>
      </trkpt>
      <trkpt lat="44.74614" lon="0.48436">
        <ele>135.2</ele>
        <time>2024-07-14T08:00:49Z</time>
      </trkpt>
      <trkpt lat="44.74613" lon="0.48438">
        <ele>135.1</ele>
        <time>2024-07-14T08:00:50Z</time>
      </trkpt>
      <trkpt lat="44.74612" lon="0.48438">
        <ele>135.3</ele>
        <time>2024-07-14T08:00:51Z</time>
      </trkpt>
      <trkpt lat="44.7461" lon="0.48438">
        <ele>135.3</ele>
        <time>2024-07-14T08:00:52Z</time>
      </trkpt>
      <trkpt lat="44.74608" lon="0.48438">
        <ele>135.4</ele>
        <time>2024-07-14T08:00:53Z</time>
      </trkpt>
      <trkpt lat="44.74607" lon="0.48439">
        <ele>135.5</ele>
        <time>2024-07-14T08:00:54Z</time>
      </trkpt>
      <trkpt lat="44.74603" lon="0.48442">
        <ele>135.7</ele>
        <time>2024-07-14T08:00:56Z</time>
      </trkpt>
      <trkpt lat="44.74599" lon="0.48444">
        <ele>136</ele>
        <time>2024-07-14T08:00:58Z</time>
      </trkpt>
      <trkpt lat="44.74595" lon="0.48447">
        <ele>136.1</ele>
        <time>2024-07-14T08:01:00Z</time>
      </trkpt>
      <trkpt lat="44.74591" lon="0.4845">
        <ele>136.5</ele>
        <time>2024-07-14T08:01:02Z</time>
      </trkpt>
      <trkpt lat="44.74588" lon="0.48453">
        <ele>136.7</ele>
        <time>2024-07-14T08:01:04Z</time>
      </trkpt>
      <trkpt lat="44.74585" lon="0.48456">
        <ele>137.3</ele>
        <time>2024-07-14T08:01:06Z</time>
      </trkpt>
      <trkpt lat="44.74582" lon="0.48459">
        <ele>137.3</ele>
        <time>2024-07-14T08:01:08Z</time>
      </trkpt>
      <trkpt lat="44.7458" lon="0.48461">
        <ele>137.7</ele>
        <time>2024-07-14T08:01:09Z</time>
      </trkpt>
      <trkpt lat="44.74579" lon="0.48462">
        <ele>137.8</ele>
        <time>2024-07-14T08:01:10Z</time>
      </trkpt>
      <trkpt lat="44.74575" lon="0.48466">
        <ele>138.2</ele>
        <time>2024-07-14T08:01:12Z</time>
      </trkpt>
      <trkpt lat="44.74574" lon="0.48467">
        <ele>138.2</ele>
        <time>2024-07-14T08:01:13Z</time>
      </trkpt>
      <trkpt lat="44.74572" lon="0.48468">
        <ele>138.4</ele>
        <time>2024-07-14T08:01:14Z</time>
      </trkpt>
      <trkpt lat="44.74569" lon="0.48471">
        <ele>138.8</ele>
        <time>2024-07-14T08:01:16Z</time>
      </trkpt>
      <trkpt lat="44.74566" lon="0.48475">
        <ele>139.1</ele>
        <time>2024-07-14T08:01:18Z</time>
      </trkpt>
      <trkpt lat="44.74563" lon="0.48479">
        <ele>139.5</ele>
        <time>2024-07-14T08:01:20Z</time>
      </trkpt>
      <trkpt lat="44.7456" lon="0.48482">
        <ele>139.9</ele>
        <time>2024-07-14T08:01:21Z</time>
      </trkpt>
      <trkpt lat="44.74558" lon="0.48484">
        <ele>139.9</ele>
        <time>2024-07-14T08:01:22Z</time>
      </trkpt>
      <trkpt lat="44.74554" lon="0.48488">
        <ele>140.5</ele>
        <time>2024-07-14T08:01:24Z</time>
      </trkpt>
      <trkpt lat="44.74552" lon="0.48494">
        <ele>140.7</ele>
        <time>2024-07-14T08:01:26Z</time>
      </trkpt>
      <trkpt lat="44.74548" lon="0.48496">
        <ele>141.3</ele>
        <time>2024-07-14T08:01:28Z</time>
      </trkpt>
      <trkpt lat="44.74544" lon="0.48498">
        <ele>141.5</ele>
        <time>2024-07-14T08:01:30Z</time>
      </trkpt>
      <trkpt lat="44.7454" lon="0.485">
        <ele>141.9</ele>
        <time>2024-07-14T08:01:32Z</time>
      </trkpt>
      <trkpt lat="44.74537" lon="0.48504">
        <ele>142.3</ele>
        <time>2024-07-14T08:01:34Z</time>
      </trkpt>
      <trkpt lat="44.74535" lon="0.48506">
        <ele>142.4</ele>
        <time>2024-07-14T08:01:35Z</time>
      </trkpt>
      <trkpt lat="44.74534" lon="0.48508">
        <ele>142.6</ele>
        <time>2024-07-14T08:01:36Z</time>
      </trkpt>
      <trkpt lat="44.7453" lon="0.48511">
        <ele>142.9</ele>
        <time>2024-07-14T08:01:38Z</time>
      </trkpt>
      <trkpt lat="44.74525" lon="0.48515">
        <ele>143.3</ele>
        <time>2024-07-14T08:01:40Z</time>
      </trkpt>
      <trkpt lat="44.74522" lon="0.48518">
        <ele>143.6</ele>
        <time>2024-07-14T08:01:42Z</time>
      </trkpt>
      <trkpt lat="44.74519" lon="0.48522">
        <ele>144</ele>
        <time>2024-07-14T08:01:44Z</time>
      </trkpt>
      <trkpt lat="44.74517" lon="0.48524">
        <ele>144</ele>
        <time>2024-07-14T08:01:45Z</time>
      </trkpt>
      <trkpt lat="44.74515" lon="0.48526">
        <ele>144.3</ele>
        <time>2024-07-14T08:01:46Z</time>
      </trkpt>
      <trkpt lat="44.7451" lon="0.48529">
        <ele>144.6</ele>
        <time>2024-07-14T08:01:48Z</time>
      </trkpt>
      <trkpt lat="44.74506" lon="0.48532">
        <ele>144.7</ele>
        <time>2024-07-14T08:01:50Z</time>
      </trkpt>
      <trkpt lat="44.74504" lon="0.48534">
        <ele>145</ele>
        <time>2024-07-14T08:01:51Z</time>
      </trkpt>
      <trkpt lat="44.74502" lon="0.48536">
        <ele>145.2</ele>
        <time>2024-07-14T08:01:52Z</time>
      </trkpt>
      <trkpt lat="44.74501" lon="0.48538">
        <ele>145.4</ele>
        <time>2024-07-14T08:01:53Z</time>
      </trkpt>
      <trkpt lat="44.74499" lon="0.4854">
        <ele>145.5</ele>
        <time>2024-07-14T08:01:54Z</time>
      </trkpt>
      <trkpt lat="44.74497" lon="0.48542">
        <ele>145.8</ele>
        <time>2024-07-14T08:01:55Z</time>
      </trkpt>
      <trkpt lat="44.74495" lon="0.48546">
        <ele>145.9</ele>
        <time>2024-07-14T08:01:56Z</time>
      </trkpt>
      <trkpt lat="44.7449" lon="0.48551">
        <ele>146.7</ele>
        <time>2024-07-14T08:01:58Z</time>
      </trkpt>
      <trkpt lat="44.74488" lon="0.48552">
        <ele>146.7</ele>
        <time>2024-07-14T08:01:59Z</time>
      </trkpt>
      <trkpt lat="44.74485" lon="0.48553">
        <ele>146.9</ele>
        <time>2024-07-14T08:02:00Z</time>
      </trkpt>
      <trkpt lat="44.74483" lon="0.48554">
        <ele>147.1</ele>
        <time>2024-07-14T08:02:01Z</time>
      </trkpt>
      <trkpt lat="44.7448" lon="0.48555">
        <ele>147.6</ele>
        <time>2024-07-14T08:02:02Z</time>
      </trkpt>
      <trkpt lat="44.74476" lon="0.48559">
        <ele>148.1</ele>
        <time>2024-07-14T08:02:04Z</time>
      </trkpt>
      <trkpt lat="44.74472" lon="0.48564">
        <ele>148.8</ele>
        <time>2024-07-14T08:02:06Z</time>
      </trkpt>
      <trkpt lat="44.74468" lon="0.48568">
        <ele>149.3</ele>
        <time>2024-07-14T08:02:08Z</time>
      </trkpt>
      <trkpt lat="44.74463" lon="0.48569">
        <ele>149.9</ele>
        <time>2024-07-14T08:02:10Z</time>
      </trkpt>
      <trkpt lat="44.7446" lon="0.4857">
        <ele>149.9</ele>
        <time>2024-07-14T08:02:11Z</time>
      </trkpt>
      <trkpt lat="44.74458" lon="0.48572">
        <ele>150.2</ele>
        <time>2024-07-14T08:02:12Z</time>
      </trkpt>
      <trkpt lat="44.74453" lon="0.48575">
        <ele>150.7</ele>
        <time>2024-07-14T08:02:14Z</time>
      </trkpt>
      <trkpt lat="44.74449" lon="0.48578">
        <ele>151</ele>
        <time>2024-07-14T08:02:16Z</time>
      </trkpt>
      <trkpt lat="44.74444" lon="0.48582">
        <ele>151.6</ele>
        <time>2024-07-14T08:02:18Z</time>
      </trkpt>
      <trkpt lat="44.74442" lon="0.48584">
        <ele>151.6</ele>
        <time>2024-07-14T08:02:19Z</time>
      </trkpt>
      <trkpt lat="44.7444" lon="0.48586">
        <ele>151.9</ele>
        <time>2024-07-14T08:02:20Z</time>
      </trkpt>
      <trkpt lat="44.74436" lon="0.48589">
        <ele>152.2</ele>
        <time>2024-07-14T08:02:22Z</time>
      </trkpt>
      <trkpt lat="44.74432" lon="0.48591">
        <ele>152.7</ele>
        <time>2024-07-14T08:02:24Z</time>
      </trkpt>
      <trkpt lat="44.74428" lon="0.48594">
        <ele>152.9</ele>
        <time>2024-07-14T08:02:26Z</time>
      </trkpt>
      <trkpt lat="44.74422" lon="0.48597">
        <ele>153.4</ele>
        <time>2024-07-14T08:02:28Z</time>
      </trkpt>
      <trkpt lat="44.74419" lon="0.48599">
        <ele>153.7</ele>
        <time>2024-07-14T08:02:29Z</time>
      </trkpt>
      <trkpt lat="44.74416" lon="0.486">
        <ele>153.9</ele>
        <time>2024-07-14T08:02:30Z</time>
      </trkpt>
      <trkpt lat="44.74412" lon="0.48604">
        <ele>154.2</ele>
        <time>2024-07-14T08:02:32Z</time>
      </trkpt>
      <trkpt lat="44.7441" lon="0.48606">
        <ele>154.4</ele>
        <time>2024-07-14T08:02:33Z</time>
      </trkpt>
      <trkpt lat="44.74408" lon="0.48608">
        <ele>154.6</ele>
        <time>2024-07-14T08:02:34Z</time>
      </trkpt>
      <trkpt lat="44.74403" lon="0.48611">
        <ele>154.8</ele>
        <time>2024-07-14T08:02:36Z</time>
      </trkpt>
      <trkpt lat="44.74398" lon="0.48614">
        <ele>155.2</ele>
        <time>2024-07-14T08:02:38Z</time>
      </trkpt>
      <trkpt lat="44.74396" lon="0.48617">
        <ele>155.2</ele>
        <time>2024-07-14T08:02:39Z</time>
      </trkpt>
      <trkpt lat="44.74394" lon="0.48619">
        <ele>155.4</ele>
        <time>2024-07-14T08:02:40Z</time>
      </trkpt>
      <trkpt lat="44.74392" lon="0.48624">
        <ele>155.5</ele>
        <time>2024-07-14T08:02:42Z</time>
      </trkpt>
      <trkpt lat="44.74391" lon="0.4863">
        <ele>155.5</ele>
        <time>2024-07-14T08:02:44Z</time>
      </trkpt>
      <trkpt lat="44.74391" lon="0.48633">
        <ele>155.4</ele>
        <time>2024-07-14T08:02:45Z</time>
      </trkpt>
      <trkpt lat="44.74389" lon="0.48635">
        <ele>155.6</ele>
        <time>2024-07-14T08:02:46Z</time>
      </trkpt>
      <trkpt lat="44.74387" lon="0.48636">
        <ele>155.8</ele>
        <time>2024-07-14T08:02:47Z</time>
      </trkpt>
      <trkpt lat="44.74385" lon="0.48638">
        <ele>156</ele>
        <time>2024-07-14T08:02:48Z</time>
      </trkpt>
      <trkpt lat="44.74382" lon="0.48642">
        <ele>156.4</ele>
        <time>2024-07-14T08:02:50Z</time>
      </trkpt>
      <trkpt lat="44.7438" lon="0.48644">
        <ele>156.7</ele>
        <time>2024-07-14T08:02:51Z</time>
      </trkpt>
      <trkpt lat="44.74378" lon="0.48646">
        <ele>156.9</ele>
        <time>2024-07-14T08:02:52Z</time>
      </trkpt>
      <trkpt lat="44.74374" lon="0.48649">
        <ele>157.3</ele>
        <time>2024-07-14T08:02:54Z</time>
      </trkpt>
      <trkpt lat="44.7437" lon="0.48652">
        <ele>157.7</ele>
        <time>2024-07-14T08:02:56Z</time>
      </trkpt>
      <trkpt lat="44.74366" lon="0.48653">
        <ele>158.1</ele>
        <time>2024-07-14T08:02:58Z</time>
      </trkpt>
      <trkpt lat="44.74362" lon="0.48655">
        <ele>158.4</ele>
        <time>2024-07-14T08:03:00Z</time>
      </trkpt>
      <trkpt lat="44.74358" lon="0.48657">
        <ele>158.6</ele>
        <time>2024-07-14T08:03:02Z</time>
      </trkpt>
      <trkpt lat="44.74354" lon="0.48662">
        <ele>158.9</ele>
        <time>2024-07-14T08:03:04Z</time>
      </trkpt>
      <trkpt lat="44.74352" lon="0.48665">
        <ele>159.1</ele>
        <time>2024-07-14T08:03:05Z</time>
      </trkpt>
      <trkpt lat="44.7435" lon="0.48668">
        <ele>159.3</ele>
        <time>2024-07-14T08:03:06Z</time>
      </trkpt>
      <trkpt lat="44.74347" lon="0.48672">
        <ele>159.6</ele>
        <time>2024-07-14T08:03:08Z</time>
      </trkpt>
      <trkpt lat="44.74343" lon="0.48677">
        <ele>159.9</ele>
        <time>2024-07-14T08:03:10Z</time>
      </trkpt>
      <trkpt lat="44.7434" lon="0.48682">
        <ele>160.2</ele>
        <time>2024-07-14T08:03:12Z</time>
      </trkpt>
      <trkpt lat="44.74337" lon="0.48683">
        <ele>160.4</ele>
        <time>2024-07-14T08:03:14Z</time>
      </trkpt>
      <trkpt lat="44.74334" lon="0.48685">
        <ele>160.6</ele>
        <time>2024-07-14T08:03:16Z</time>
      </trkpt>
      <trkpt lat="44.74331" lon="0.48688">
        <ele>160.9</ele>
        <time>2024-07-14T08:03:18Z</time>
      </trkpt>
      <trkpt lat="44.74328" lon="0.48691">
        <ele>161.2</ele>
        <time>2024-07-14T08:03:20Z</time>
      </trkpt>
      <trkpt lat="44.74325" lon="0.48693">
        <ele>161.6</ele>
        <time>2024-07-14T08:03:22Z</time>
      </trkpt>
      <trkpt lat="44.74321" lon="0.48695">
        <ele>161.9</ele>
        <time>2024-07-14T08:03:24Z</time>
      </trkpt>
      <trkpt lat="44.74317" lon="0.48698">
        <ele>162.3</ele>
        <time>2024-07-14T08:03:26Z</time>
      </trkpt>
      <trkpt lat="44.74313" lon="0.48701">
        <ele>162.7</ele>
        <time>2024-07-14T08:03:28Z</time>
      </trkpt>
      <trkpt lat="44.74311" lon="0.48703">
        <ele>162.8</ele>
        <time>2024-07-14T08:03:29Z</time>
      </trkpt>
      <trkpt lat="44.7431" lon="0.48704">
        <ele>163</ele>
        <time>2024-07-14T08:03:30Z</time>
      </trkpt>
      <trkpt lat="44.74307" lon="0.48708">
        <ele>163.3</ele>
        <time>2024-07-14T08:03:32Z</time>
      </trkpt>
      <trkpt lat="44.74304" lon="0.4871">
        <ele>163.5</ele>
        <time>2024-07-14T08:03:34Z</time>
      </trkpt>
      <trkpt lat="44.74303" lon="0.48711">
        <ele>163.6</ele>
        <time>2024-07-14T08:03:35Z</time>
      </trkpt>
      <trkpt lat="44.74301" lon="0.48712">
        <ele>163.7</ele>
        <time>2024-07-14T08:03:36Z</time>
      </trkpt>
      <trkpt lat="44.74297" lon="0.48715">
        <ele>164.1</ele>
        <time>2024-07-14T08:03:38Z</time>
      </trkpt>
      <trkpt lat="44.7429" lon="0.48718">
        <ele>164.5</ele>
        <time>2024-07-14T08:03:40Z</time>
      </trkpt>
      <trkpt lat="44.74288" lon="0.48719">
        <ele>164.6</ele>
        <time>2024-07-14T08:03:41Z</time>
      </trkpt>
      <trkpt lat="44.74285" lon="0.4872">
        <ele>164.8</ele>
        <time>2024-07-14T08:03:42Z</time>
      </trkpt>
      <trkpt lat="44.74279" lon="0.48722">
        <ele>165</ele>
        <time>2024-07-14T08:03:44Z</time>
      </trkpt>
      <trkpt lat="44.74274" lon="0.48727">
        <ele>165.3</ele>
        <time>2024-07-14T08:03:46Z</time>
      </trkpt>
      <trkpt lat="44.7427" lon="0.48732">
        <ele>165.5</ele>
        <time>2024-07-14T08:03:48Z</time>
      </trkpt>
      <trkpt lat="44.74266" lon="0.48739">
        <ele>165.7</ele>
        <time>2024-07-14T08:03:50Z</time>
      </trkpt>
      <trkpt lat="44.74265" lon="0.48742">
        <ele>165.8</ele>
        <time>2024-07-14T08:03:51Z</time>
      </trkpt>
      <trkpt lat="44.74263" lon="0.48744">
        <ele>165.8</ele>
        <time>2024-07-14T08:03:52Z</time>
      </trkpt>
      <trkpt lat="44.74259" lon="0.48748">
        <ele>165.9</ele>
        <time>2024-07-14T08:03:54Z</time>
      </trkpt>
      <trkpt lat="44.74255" lon="0.48753">
        <ele>166</ele>
        <time>2024-07-14T08:03:56Z</time>
      </trkpt>
      <trkpt lat="44.74251" lon="0.48756">
        <ele>166.1</ele>
        <time>2024-07-14T08:03:58Z</time>
      </trkpt>
      <trkpt lat="44.74246" lon="0.48758">
        <ele>166.3</ele>
        <time>2024-07-14T08:04:00Z</time>
      </trkpt>
      <trkpt lat="44.74244" lon="0.48759">
        <ele>166.3</ele>
        <time>2024-07-14T08:04:01Z</time>
      </trkpt>
      <trkpt lat="44.74242" lon="0.48761">
        <ele>166.4</ele>
        <time>2024-07-14T08:04:02Z</time>
      </trkpt>
      <trkpt lat="44.74238" lon="0.48764">
        <ele>166.6</ele>
        <time>2024-07-14T08:04:04Z</time>
      </trkpt>
      <trkpt lat="44.74237" lon="0.48766">
        <ele>166.7</ele>
        <time>2024-07-14T08:04:05Z</time>
      </trkpt>
      <trkpt lat="44.74235" lon="0.48767">
        <ele>166.7</ele>
        <time>2024-07-14T08:04:06Z</time>
      </trkpt>
      <trkpt lat="44.7423" lon="0.48769">
        <ele>167</ele>
        <time>2024-07-14T08:04:08Z</time>
      </trkpt>
      <trkpt lat="44.74227" lon="0.48771">
        <ele>167.1</ele>
        <time>2024-07-14T08:04:09Z</time>
      </trkpt>
      <trkpt lat="44.74225" lon="0.48773">
        <ele>167.2</ele>
        <time>2024-07-14T08:04:10Z</time>
      </trkpt>
      <trkpt lat="44.7422" lon="0.48776">
        <ele>167.5</ele>
        <time>2024-07-14T08:04:12Z</time>
      </trkpt>
      <trkpt lat="44.74217" lon="0.4878">
        <ele>167.7</ele>
        <time>2024-07-14T08:04:14Z</time>
      </trkpt>
      <trkpt lat="44.74213" lon="0.48785">
        <ele>167.9</ele>
        <time>2024-07-14T08:04:16Z</time>
      </trkpt>
      <trkpt lat="44.74209" lon="0.4879">
        <ele>168.1</ele>
        <time>2024-07-14T08:04:18Z</time>
      </trkpt>
      <trkpt lat="44.74203" lon="0.48794">
        <ele>168.4</ele>
        <time>2024-07-14T08:04:20Z</time>
      </trkpt>
      <trkpt lat="44.74199" lon="0.488">
        <ele>168.7</ele>
        <time>2024-07-14T08:04:22Z</time>
      </trkpt>
      <trkpt lat="44.74194" lon="0.48806">
        <ele>169.1</ele>
        <time>2024-07-14T08:04:24Z</time>
      </trkpt>
      <trkpt lat="44.74189" lon="0.4881">
        <ele>169.5</ele>
        <time>2024-07-14T08:04:26Z</time>
      </trkpt>
      <trkpt lat="44.74184" lon="0.48813">
        <ele>169.9</ele>
        <time>2024-07-14T08:04:28Z</time>
      </trkpt>
      <trkpt lat="44.74181" lon="0.48816">
        <ele>170.2</ele>
        <time>2024-07-14T08:04:30Z</time>
      </trkpt>
      <trkpt lat="44.74179" lon="0.48818">
        <ele>170.4</ele>
        <time>2024-07-14T08:04:31Z</time>
      </trkpt>
      <trkpt lat="44.74178" lon="0.4882">
        <ele>170.5</ele>
        <time>2024-07-14T08:04:32Z</time>
      </trkpt>
      <trkpt lat="44.74175" lon="0.48824">
        <ele>170.8</ele>
        <time>2024-07-14T08:04:34Z</time>
      </trkpt>
      <trkpt lat="44.74173" lon="0.48826">
        <ele>170.9</ele>
        <time>2024-07-14T08:04:35Z</time>
      </trkpt>
      <trkpt lat="44.74172" lon="0.48827">
        <ele>171</ele>
        <time>2024-07-14T08:04:36Z</time>
      </trkpt>
      <trkpt lat="44.74171" lon="0.48828">
        <ele>171.1</ele>
        <time>2024-07-14T08:04:37Z</time>
      </trkpt>
      <trkpt lat="44.7417" lon="0.4883">
        <ele>171.2</ele>
        <time>2024-07-14T08:04:38Z</time>
      </trkpt>
      <trkpt lat="44.74168" lon="0.48834">
        <ele>171.4</ele>
        <time>2024-07-14T08:04:40Z</time>
      </trkpt>
      <trkpt lat="44.74168" lon="0.48834">
        <ele>171.4</ele>
        <time>2024-07-14T08:04:42Z</time>
      </trkpt>
      <trkpt lat="44.74168" lon="0.48834">
        <ele>171.4</ele>
        <time>2024-07-14T08:04:43Z</time>
      </trkpt>
      <trkpt lat="44.74159" lon="0.48845">
        <ele>171.9</ele>
        <time>2024-07-14T08:04:58Z</time>
      </trkpt>
      <trkpt lat="44.74155" lon="0.48849">
        <ele>172.1</ele>
        <time>2024-07-14T08:05:00Z</time>
      </trkpt>
      <trkpt lat="44.74153" lon="0.4885">
        <ele>172.1</ele>
        <time>2024-07-14T08:05:01Z</time>
      </trkpt>
      <trkpt lat="44.74151" lon="0.48852">
        <ele>172.2</ele>
        <time>2024-07-14T08:05:02Z</time>
      </trkpt>
      <trkpt lat="44.74146" lon="0.48855">
        <ele>172.3</ele>
        <time>2024-07-14T08:05:04Z</time>
      </trkpt>
      <trkpt lat="44.74142" lon="0.48859">
        <ele>172.5</ele>
        <time>2024-07-14T08:05:06Z</time>
      </trkpt>
      <trkpt lat="44.74137" lon="0.48862">
        <ele>172.6</ele>
        <time>2024-07-14T08:05:08Z</time>
      </trkpt>
      <trkpt lat="44.74132" lon="0.48867">
        <ele>172.8</ele>
        <time>2024-07-14T08:05:10Z</time>
      </trkpt>
      <trkpt lat="44.7413" lon="0.48869">
        <ele>173</ele>
        <time>2024-07-14T08:05:11Z</time>
      </trkpt>
      <trkpt lat="44.74127" lon="0.48871">
        <ele>173.1</ele>
        <time>2024-07-14T08:05:12Z</time>
      </trkpt>
      <trkpt lat="44.74123" lon="0.48874">
        <ele>173.4</ele>
        <time>2024-07-14T08:05:14Z</time>
      </trkpt>
      <trkpt lat="44.74122" lon="0.48877">
        <ele>173.6</ele>
        <time>2024-07-14T08:05:15Z</time>
      </trkpt>
      <trkpt lat="44.74121" lon="0.4888">
        <ele>173.8</ele>
        <time>2024-07-14T08:05:16Z</time>
      </trkpt>
      <trkpt lat="44.74121" lon="0.48884">
        <ele>174.5</ele>
        <time>2024-07-14T08:05:17Z</time>
      </trkpt>
      <trkpt lat="44.74122" lon="0.48889">
        <ele>174</ele>
        <time>2024-07-14T08:05:18Z</time>
      </trkpt>
      <trkpt lat="44.74125" lon="0.48894">
        <ele>173.5</ele>
        <time>2024-07-14T08:05:19Z</time>
      </trkpt>
      <trkpt lat="44.74129" lon="0.48897">
        <ele>172.9</ele>
        <time>2024-07-14T08:05:20Z</time>
      </trkpt>
      <trkpt lat="44.74134" lon="0.48899">
        <ele>172.3</ele>
        <time>2024-07-14T08:05:21Z</time>
      </trkpt>
      <trkpt lat="44.74138" lon="0.48901">
        <ele>171.8</ele>
        <time>2024-07-14T08:05:22Z</time>
      </trkpt>
      <trkpt lat="44.74147" lon="0.48907">
        <ele>170.7</ele>
        <time>2024-07-14T08:05:24Z</time>
      </trkpt>
      <trkpt lat="44.74154" lon="0.48919">
        <ele>169.6</ele>
        <time>2024-07-14T08:05:26Z</time>
      </trkpt>
      <trkpt lat="44.74156" lon="0.48935">
        <ele>168.6</ele>
        <time>2024-07-14T08:05:28Z</time>
      </trkpt>
      <trkpt lat="44.74158" lon="0.48942">
        <ele>168.2</ele>
        <time>2024-07-14T08:05:29Z</time>
      </trkpt>
      <trkpt lat="44.7416" lon="0.48949">
        <ele>167.9</ele>
        <time>2024-07-14T08:05:30Z</time>
      </trkpt>
      <trkpt lat="44.74164" lon="0.48962">
        <ele>167.3</ele>
        <time>2024-07-14T08:05:32Z</time>
      </trkpt>
      <trkpt lat="44.7417" lon="0.48974">
        <ele>166.7</ele>
        <time>2024-07-14T08:05:34Z</time>
      </trkpt>
      <trkpt lat="44.74175" lon="0.48985">
        <ele>166.3</ele>
        <time>2024-07-14T08:05:36Z</time>
      </trkpt>
      <trkpt lat="44.74179" lon="0.48997">
        <ele>165.9</ele>
        <time>2024-07-14T08:05:38Z</time>
      </trkpt>
      <trkpt lat="44.74184" lon="0.49008">
        <ele>165.5</ele>
        <time>2024-07-14T08:05:40Z</time>
      </trkpt>
      <trkpt lat="44.74188" lon="0.49012">
        <ele>165.4</ele>
        <time>2024-07-14T08:05:41Z</time>
      </trkpt>
      <trkpt lat="44.74192" lon="0.49014">
        <ele>165.2</ele>
        <time>2024-07-14T08:05:42Z</time>
      </trkpt>
      <trkpt lat="44.74197" lon="0.49015">
        <ele>165</ele>
        <time>2024-07-14T08:05:43Z</time>
      </trkpt>
      <trkpt lat="44.74201" lon="0.49015">
        <ele>164.7</ele>
        <time>2024-07-14T08:05:44Z</time>
      </trkpt>
      <trkpt lat="44.74205" lon="0.49014">
        <ele>164.4</ele>
        <time>2024-07-14T08:05:45Z</time>
      </trkpt>
      <trkpt lat="44.74209" lon="0.49012">
        <ele>164.1</ele>
        <time>2024-07-14T08:05:46Z</time>
      </trkpt>
      <trkpt lat="44.74213" lon="0.4901">
        <ele>163.8</ele>
        <time>2024-07-14T08:05:47Z</time>
      </trkpt>
      <trkpt lat="44.74217" lon="0.49008">
        <ele>163.5</ele>
        <time>2024-07-14T08:05:48Z</time>
      </trkpt>
      <trkpt lat="44.74227" lon="0.49004">
        <ele>162.8</ele>
        <time>2024-07-14T08:05:50Z</time>
      </trkpt>
      <trkpt lat="44.74232" lon="0.49001">
        <ele>162.5</ele>
        <time>2024-07-14T08:05:51Z</time>
      </trkpt>
      <trkpt lat="44.74236" lon="0.48997">
        <ele>162.1</ele>
        <time>2024-07-14T08:05:52Z</time>
      </trkpt>
      <trkpt lat="44.74244" lon="0.48991">
        <ele>161.6</ele>
        <time>2024-07-14T08:05:54Z</time>
      </trkpt>
      <trkpt lat="44.74253" lon="0.48987">
        <ele>161.1</ele>
        <time>2024-07-14T08:05:56Z</time>
      </trkpt>
      <trkpt lat="44.74258" lon="0.48986">
        <ele>160.9</ele>
        <time>2024-07-14T08:05:57Z</time>
      </trkpt>
      <trkpt lat="44.74263" lon="0.48986">
        <ele>160.7</ele>
        <time>2024-07-14T08:05:58Z</time>
      </trkpt>
      <trkpt lat="44.74268" lon="0.48986">
        <ele>160.5</ele>
        <time>2024-07-14T08:05:59Z</time>
      </trkpt>
      <trkpt lat="44.74274" lon="0.48987">
        <ele>160.4</ele>
        <time>2024-07-14T08:06:00Z</time>
      </trkpt>
      <trkpt lat="44.74279" lon="0.4899">
        <ele>160.2</ele>
        <time>2024-07-14T08:06:01Z</time>
      </trkpt>
      <trkpt lat="44.74283" lon="0.48995">
        <ele>160.1</ele>
        <time>2024-07-14T08:06:02Z</time>
      </trkpt>
      <trkpt lat="44.74287" lon="0.49">
        <ele>160</ele>
        <time>2024-07-14T08:06:03Z</time>
      </trkpt>
      <trkpt lat="44.74291" lon="0.49006">
        <ele>159.9</ele>
        <time>2024-07-14T08:06:04Z</time>
      </trkpt>
      <trkpt lat="44.74294" lon="0.49012">
        <ele>159.8</ele>
        <time>2024-07-14T08:06:05Z</time>
      </trkpt>
      <trkpt lat="44.74298" lon="0.49018">
        <ele>159.7</ele>
        <time>2024-07-14T08:06:06Z</time>
      </trkpt>
      <trkpt lat="44.74304" lon="0.49029">
        <ele>159.6</ele>
        <time>2024-07-14T08:06:08Z</time>
      </trkpt>
      <trkpt lat="44.74311" lon="0.4904">
        <ele>159.5</ele>
        <time>2024-07-14T08:06:10Z</time>
      </trkpt>
      <trkpt lat="44.74317" lon="0.4905">
        <ele>159.5</ele>
        <time>2024-07-14T08:06:12Z</time>
      </trkpt>
      <trkpt lat="44.7432" lon="0.49056">
        <ele>159.4</ele>
        <time>2024-07-14T08:06:13Z</time>
      </trkpt>
      <trkpt lat="44.74322" lon="0.49062">
        <ele>159.3</ele>
        <time>2024-07-14T08:06:14Z</time>
      </trkpt>
      <trkpt lat="44.74327" lon="0.49073">
        <ele>159.2</ele>
        <time>2024-07-14T08:06:16Z</time>
      </trkpt>
      <trkpt lat="44.74331" lon="0.49084">
        <ele>159</ele>
        <time>2024-07-14T08:06:18Z</time>
      </trkpt>
      <trkpt lat="44.74333" lon="0.4909">
        <ele>158.9</ele>
        <time>2024-07-14T08:06:19Z</time>
      </trkpt>
      <trkpt lat="44.74336" lon="0.49095">
        <ele>158.7</ele>
        <time>2024-07-14T08:06:20Z</time>
      </trkpt>
      <trkpt lat="44.7434" lon="0.491">
        <ele>158.5</ele>
        <time>2024-07-14T08:06:21Z</time>
      </trkpt>
      <trkpt lat="44.74344" lon="0.49104">
        <ele>158.2</ele>
        <time>2024-07-14T08:06:22Z</time>
      </trkpt>
      <trkpt lat="44.74349" lon="0.49108">
        <ele>157.9</ele>
        <time>2024-07-14T08:06:23Z</time>
      </trkpt>
      <trkpt lat="44.74354" lon="0.49112">
        <ele>157.5</ele>
        <time>2024-07-14T08:06:24Z</time>
      </trkpt>
      <trkpt lat="44.74364" lon="0.4912">
        <ele>156.5</ele>
        <time>2024-07-14T08:06:26Z</time>
      </trkpt>
      <trkpt lat="44.74376" lon="0.49131">
        <ele>155.4</ele>
        <time>2024-07-14T08:06:28Z</time>
      </trkpt>
      <trkpt lat="44.74381" lon="0.49138">
        <ele>154.9</ele>
        <time>2024-07-14T08:06:29Z</time>
      </trkpt>
      <trkpt lat="44.74386" lon="0.49145">
        <ele>154.4</ele>
        <time>2024-07-14T08:06:30Z</time>
      </trkpt>
      <trkpt lat="44.74397" lon="0.49158">
        <ele>153.6</ele>
        <time>2024-07-14T08:06:32Z</time>
      </trkpt>
      <trkpt lat="44.74402" lon="0.49164">
        <ele>153.4</ele>
        <time>2024-07-14T08:06:33Z</time>
      </trkpt>
      <trkpt lat="44.74407" lon="0.49169">
        <ele>153.2</ele>
        <time>2024-07-14T08:06:34Z</time>
      </trkpt>
      <trkpt lat="44.74415" lon="0.4918">
        <ele>153</ele>
        <time>2024-07-14T08:06:36Z</time>
      </trkpt>
      <trkpt lat="44.74421" lon="0.49191">
        <ele>152.9</ele>
        <time>2024-07-14T08:06:38Z</time>
      </trkpt>
      <trkpt lat="44.74421" lon="0.49201">
        <ele>153.1</ele>
        <time>2024-07-14T08:06:40Z</time>
      </trkpt>
      <trkpt lat="44.74419" lon="0.49206">
        <ele>153.4</ele>
        <time>2024-07-14T08:06:41Z</time>
      </trkpt>
      <trkpt lat="44.74417" lon="0.49211">
        <ele>153.7</ele>
        <time>2024-07-14T08:06:42Z</time>
      </trkpt>
      <trkpt lat="44.74413" lon="0.4922">
        <ele>154.3</ele>
        <time>2024-07-14T08:06:44Z</time>
      </trkpt>
      <trkpt lat="44.7441" lon="0.49229">
        <ele>154.8</ele>
        <time>2024-07-14T08:06:46Z</time>
      </trkpt>
      <trkpt lat="44.74409" lon="0.49233">
        <ele>154.8</ele>
        <time>2024-07-14T08:06:47Z</time>
      </trkpt>
      <trkpt lat="44.74407" lon="0.49237">
        <ele>155.1</ele>
        <time>2024-07-14T08:06:48Z</time>
      </trkpt>
      <trkpt lat="44.74405" lon="0.49244">
        <ele>155.4</ele>
        <time>2024-07-14T08:06:50Z</time>
      </trkpt>
      <trkpt lat="44.74402" lon="0.4925">
        <ele>155.7</ele>
        <time>2024-07-14T08:06:52Z</time>
      </trkpt>
      <trkpt lat="44.74401" lon="0.49253">
        <ele>155.8</ele>
        <time>2024-07-14T08:06:53Z</time>
      </trkpt>
      <trkpt lat="44.744" lon="0.49257">
        <ele>156</ele>
        <time>2024-07-14T08:06:54Z</time>
      </trkpt>
      <trkpt lat="44.74397" lon="0.49263">
        <ele>156.5</ele>
        <time>2024-07-14T08:06:56Z</time>
      </trkpt>
      <trkpt lat="44.74394" lon="0.49269">
        <ele>156.8</ele>
        <time>2024-07-14T08:06:58Z</time>
      </trkpt>
      <trkpt lat="44.74392" lon="0.49274">
        <ele>157.1</ele>
        <time>2024-07-14T08:07:00Z</time>
      </trkpt>
      <trkpt lat="44.74392" lon="0.49279">
        <ele>157.3</ele>
        <time>2024-07-14T08:07:02Z</time>
      </trkpt>
      <trkpt lat="44.74391" lon="0.49282">
        <ele>157.4</ele>
        <time>2024-07-14T08:07:03Z</time>
      </trkpt>
      <trkpt lat="44.7439" lon="0.49283">
        <ele>157.3</ele>
        <time>2024-07-14T08:07:04Z</time>
      </trkpt>
      <trkpt lat="44.7439" lon="0.49285">
        <ele>157.7</ele>
        <time>2024-07-14T08:07:05Z</time>
      </trkpt>
      <trkpt lat="44.74389" lon="0.49287">
        <ele>157.6</ele>
        <time>2024-07-14T08:07:06Z</time>
      </trkpt>
      <trkpt lat="44.74388" lon="0.49292">
        <ele>157.8</ele>
        <time>2024-07-14T08:07:08Z</time>
      </trkpt>
      <trkpt lat="44.74387" lon="0.49295">
        <ele>158.2</ele>
        <time>2024-07-14T08:07:09Z</time>
      </trkpt>
      <trkpt lat="44.74386" lon="0.49297">
        <ele>158.3</ele>
        <time>2024-07-14T08:07:10Z</time>
      </trkpt>
      <trkpt lat="44.74384" lon="0.49302">
        <ele>158.5</ele>
        <time>2024-07-14T08:07:12Z</time>
      </trkpt>
      <trkpt lat="44.74383" lon="0.49308">
        <ele>158.8</ele>
        <time>2024-07-14T08:07:14Z</time>
      </trkpt>
      <trkpt lat="44.74382" lon="0.49314">
        <ele>159.1</ele>
        <time>2024-07-14T08:07:16Z</time>
      </trkpt>
      <trkpt lat="44.7438" lon="0.49321">
        <ele>159.5</ele>
        <time>2024-07-14T08:07:18Z</time>
      </trkpt>
      <trkpt lat="44.74378" lon="0.49328">
        <ele>159.8</ele>
        <time>2024-07-14T08:07:20Z</time>
      </trkpt>
      <trkpt lat="44.74377" lon="0.49332">
        <ele>160.1</ele>
        <time>2024-07-14T08:07:21Z</time>
      </trkpt>
      <trkpt lat="44.74377" lon="0.49335">
        <ele>160.1</ele>
        <time>2024-07-14T08:07:22Z</time>
      </trkpt>
      <trkpt lat="44.74374" lon="0.49341">
        <ele>160.6</ele>
        <time>2024-07-14T08:07:24Z</time>
      </trkpt>
      <trkpt lat="44.74372" lon="0.49347">
        <ele>160.8</ele>
        <time>2024-07-14T08:07:26Z</time>
      </trkpt>
      <trkpt lat="44.74371" lon="0.4935">
        <ele>161.1</ele>
        <time>2024-07-14T08:07:27Z</time>
      </trkpt>
      <trkpt lat="44.74371" lon="0.49353">
        <ele>161.2</ele>
        <time>2024-07-14T08:07:28Z</time>
      </trkpt>
      <trkpt lat="44.74371" lon="0.49359">
        <ele>161.3</ele>
        <time>2024-07-14T08:07:30Z</time>
      </trkpt>
      <trkpt lat="44.7437" lon="0.49364">
        <ele>161.4</ele>
        <time>2024-07-14T08:07:32Z</time>
      </trkpt>
      <trkpt lat="44.74369" lon="0.4937">
        <ele>161.7</ele>
        <time>2024-07-14T08:07:34Z</time>
      </trkpt>
      <trkpt lat="44.74369" lon="0.4937">
        <ele>161.6</ele>
        <time>2024-07-14T08:07:35Z</time>
      </trkpt>
      <trkpt lat="44.74368" lon="0.49373">
        <ele>161.8</ele>
        <time>2024-07-14T08:07:36Z</time>
      </trkpt>
      <trkpt lat="44.74367" lon="0.49377">
        <ele>162</ele>
        <time>2024-07-14T08:07:37Z</time>
      </trkpt>
      <trkpt lat="44.74366" lon="0.49381">
        <ele>162.1</ele>
        <time>2024-07-14T08:07:38Z</time>
      </trkpt>
      <trkpt lat="44.74366" lon="0.4939">
        <ele>162.4</ele>
        <time>2024-07-14T08:07:40Z</time>
      </trkpt>
      <trkpt lat="44.74365" lon="0.49394">
        <ele>162.8</ele>
        <time>2024-07-14T08:07:41Z</time>
      </trkpt>
      <trkpt lat="44.74365" lon="0.49398">
        <ele>162.9</ele>
        <time>2024-07-14T08:07:42Z</time>
      </trkpt>
      <trkpt lat="44.74363" lon="0.49406">
        <ele>163.3</ele>
        <time>2024-07-14T08:07:44Z</time>
      </trkpt>
      <trkpt lat="44.74363" lon="0.4941">
        <ele>163.4</ele>
        <time>2024-07-14T08:07:45Z</time>
      </trkpt>
      <trkpt lat="44.74362" lon="0.49413">
        <ele>163.8</ele>
        <time>2024-07-14T08:07:46Z</time>
      </trkpt>
      <trkpt lat="44.7436" lon="0.49419">
        <ele>163.9</ele>
        <time>2024-07-14T08:07:48Z</time>
      </trkpt>
      <trkpt lat="44.74359" lon="0.49427">
        <ele>164.5</ele>
        <time>2024-07-14T08:07:50Z</time>
      </trkpt>
      <trkpt lat="44.74357" lon="0.49433">
        <ele>164.6</ele>
        <time>2024-07-14T08:07:52Z</time>
      </trkpt>
      <trkpt lat="44.74355" lon="0.49439">
        <ele>165</ele>
        <time>2024-07-14T08:07:54Z</time>
      </trkpt>
      <trkpt lat="44.74352" lon="0.49444">
        <ele>165.3</ele>
        <time>2024-07-14T08:07:56Z</time>
      </trkpt>
      <trkpt lat="44.74349" lon="0.49451">
        <ele>165.5</ele>
        <time>2024-07-14T08:07:58Z</time>
      </trkpt>
      <trkpt lat="44.74348" lon="0.49453">
        <ele>165.5</ele>
        <time>2024-07-14T08:07:59Z</time>
      </trkpt>
      <trkpt lat="44.74347" lon="0.49456">
        <ele>165.6</ele>
        <time>2024-07-14T08:08:00Z</time>
      </trkpt>
      <trkpt lat="44.74344" lon="0.49462">
        <ele>165.8</ele>
        <time>2024-07-14T08:08:02Z</time>
      </trkpt>
      <trkpt lat="44.74341" lon="0.49468">
        <ele>165.7</ele>
        <time>2024-07-14T08:08:04Z</time>
      </trkpt>
      <trkpt lat="44.74338" lon="0.49475">
        <ele>165.9</ele>
        <time>2024-07-14T08:08:06Z</time>
      </trkpt>
      <trkpt lat="44.74335" lon="0.49482">
        <ele>166.4</ele>
        <time>2024-07-14T08:08:08Z</time>
      </trkpt>
      <trkpt lat="44.74334" lon="0.49485">
        <ele>166.3</ele>
        <time>2024-07-14T08:08:09Z</time>
      </trkpt>
      <trkpt lat="44.74333" lon="0.49488">
        <ele>166.3</ele>
        <time>2024-07-14T08:08:10Z</time>
      </trkpt>
      <trkpt lat="44.7433" lon="0.49496">
        <ele>166.5</ele>
        <time>2024-07-14T08:08:12Z</time>
      </trkpt>
      <trkpt lat="44.74326" lon="0.49502">
        <ele>166.6</ele>
        <time>2024-07-14T08:08:14Z</time>
      </trkpt>
      <trkpt lat="44.74325" lon="0.49506">
        <ele>166.7</ele>
        <time>2024-07-14T08:08:15Z</time>
      </trkpt>
      <trkpt lat="44.74323" lon="0.49509">
        <ele>166.6</ele>
        <time>2024-07-14T08:08:16Z</time>
      </trkpt>
      <trkpt lat="44.7432" lon="0.49516">
        <ele>166.7</ele>
        <time>2024-07-14T08:08:18Z</time>
      </trkpt>
      <trkpt lat="44.74317" lon="0.49523">
        <ele>166.6</ele>
        <time>2024-07-14T08:08:20Z</time>
      </trkpt>
      <trkpt lat="44.74316" lon="0.49527">
        <ele>166.6</ele>
        <time>2024-07-14T08:08:21Z</time>
      </trkpt>
      <trkpt lat="44.74314" lon="0.4953">
        <ele>166.5</ele>
        <time>2024-07-14T08:08:22Z</time>
      </trkpt>
      <trkpt lat="44.74311" lon="0.49538">
        <ele>166.5</ele>
        <time>2024-07-14T08:08:24Z</time>
      </trkpt>
      <trkpt lat="44.74308" lon="0.49545">
        <ele>166.8</ele>
        <time>2024-07-14T08:08:26Z</time>
      </trkpt>
      <trkpt lat="44.74305" lon="0.49551">
        <ele>167</ele>
        <time>2024-07-14T08:08:28Z</time>
      </trkpt>
      <trkpt lat="44.74301" lon="0.49557">
        <ele>167.6</ele>
        <time>2024-07-14T08:08:30Z</time>
      </trkpt>
      <trkpt lat="44.743" lon="0.4956">
        <ele>167.4</ele>
        <time>2024-07-14T08:08:31Z</time>
      </trkpt>
      <trkpt lat="44.74299" lon="0.49563">
        <ele>167.2</ele>
        <time>2024-07-14T08:08:32Z</time>
      </trkpt>
      <trkpt lat="44.74297" lon="0.49569">
        <ele>167.3</ele>
        <time>2024-07-14T08:08:34Z</time>
      </trkpt>
      <trkpt lat="44.74294" lon="0.49576">
        <ele>167.4</ele>
        <time>2024-07-14T08:08:36Z</time>
      </trkpt>
      <trkpt lat="44.74291" lon="0.49582">
        <ele>167.3</ele>
        <time>2024-07-14T08:08:38Z</time>
      </trkpt>
      <trkpt lat="44.7429" lon="0.49586">
        <ele>167</ele>
        <time>2024-07-14T08:08:39Z</time>
      </trkpt>
      <trkpt lat="44.74289" lon="0.4959">
        <ele>167</ele>
        <time>2024-07-14T08:08:40Z</time>
      </trkpt>
      <trkpt lat="44.74285" lon="0.49596">
        <ele>167</ele>
        <time>2024-07-14T08:08:42Z</time>
      </trkpt>
      <trkpt lat="44.74284" lon="0.496">
        <ele>166.7</ele>
        <time>2024-07-14T08:08:43Z</time>
      </trkpt>
      <trkpt lat="44.74282" lon="0.49604">
        <ele>166.6</ele>
        <time>2024-07-14T08:08:44Z</time>
      </trkpt>
      <trkpt lat="44.7428" lon="0.49614">
        <ele>166.2</ele>
        <time>2024-07-14T08:08:46Z</time>
      </trkpt>
      <trkpt lat="44.74277" lon="0.49625">
        <ele>165.6</ele>
        <time>2024-07-14T08:08:48Z</time>
      </trkpt>
      <trkpt lat="44.74275" lon="0.4963">
        <ele>165.3</ele>
        <time>2024-07-14T08:08:49Z</time>
      </trkpt>
      <trkpt lat="44.74274" lon="0.49635">
        <ele>165.3</ele>
        <time>2024-07-14T08:08:50Z</time>
      </trkpt>
      <trkpt lat="44.74271" lon="0.49645">
        <ele>164.6</ele>
        <time>2024-07-14T08:08:52Z</time>
      </trkpt>
      <trkpt lat="44.74269" lon="0.49654">
        <ele>164.4</ele>
        <time>2024-07-14T08:08:54Z</time>
      </trkpt>
      <trkpt lat="44.74267" lon="0.49663">
        <ele>164.1</ele>
        <time>2024-07-14T08:08:56Z</time>
      </trkpt>
      <trkpt lat="44.74266" lon="0.49667">
        <ele>163.8</ele>
        <time>2024-07-14T08:08:57Z</time>
      </trkpt>
      <trkpt lat="44.74265" lon="0.49672">
        <ele>163.7</ele>
        <time>2024-07-14T08:08:58Z</time>
      </trkpt>
      <trkpt lat="44.74262" lon="0.49681">
        <ele>163.2</ele>
        <time>2024-07-14T08:09:00Z</time>
      </trkpt>
      <trkpt lat="44.7426" lon="0.49689">
        <ele>163</ele>
        <time>2024-07-14T08:09:02Z</time>
      </trkpt>
      <trkpt lat="44.74258" lon="0.49696">
        <ele>162.9</ele>
        <time>2024-07-14T08:09:04Z</time>
      </trkpt>
      <trkpt lat="44.74256" lon="0.49703">
        <ele>162.7</ele>
        <time>2024-07-14T08:09:06Z</time>
      </trkpt>
      <trkpt lat="44.74255" lon="0.4971">
        <ele>162.8</ele>
        <time>2024-07-14T08:09:08Z</time>
      </trkpt>
      <trkpt lat="44.74253" lon="0.49717">
        <ele>162.7</ele>
        <time>2024-07-14T08:09:10Z</time>
      </trkpt>
      <trkpt lat="44.74251" lon="0.49725">
        <ele>162.8</ele>
        <time>2024-07-14T08:09:12Z</time>
      </trkpt>
      <trkpt lat="44.74249" lon="0.49731">
        <ele>163.1</ele>
        <time>2024-07-14T08:09:14Z</time>
      </trkpt>
      <trkpt lat="44.74247" lon="0.49738">
        <ele>163.1</ele>
        <time>2024-07-14T08:09:16Z</time>
      </trkpt>
      <trkpt lat="44.74246" lon="0.49741">
        <ele>163.2</ele>
        <time>2024-07-14T08:09:17Z</time>
      </trkpt>
      <trkpt lat="44.74245" lon="0.49745">
        <ele>163.2</ele>
        <time>2024-07-14T08:09:18Z</time>
      </trkpt>
      <trkpt lat="44.74243" lon="0.49752">
        <ele>163.4</ele>
        <time>2024-07-14T08:09:20Z</time>
      </trkpt>
      <trkpt lat="44.74241" lon="0.49759">
        <ele>163.4</ele>
        <time>2024-07-14T08:09:22Z</time>
      </trkpt>
      <trkpt lat="44.74239" lon="0.49766">
        <ele>163.6</ele>
        <time>2024-07-14T08:09:24Z</time>
      </trkpt>
      <trkpt lat="44.74237" lon="0.49772">
        <ele>163.7</ele>
        <time>2024-07-14T08:09:26Z</time>
      </trkpt>
      <trkpt lat="44.74235" lon="0.49778">
        <ele>164</ele>
        <time>2024-07-14T08:09:28Z</time>
      </trkpt>
      <trkpt lat="44.74232" lon="0.49785">
        <ele>164.2</ele>
        <time>2024-07-14T08:09:30Z</time>
      </trkpt>
      <trkpt lat="44.74229" lon="0.4979">
        <ele>164.4</ele>
        <time>2024-07-14T08:09:32Z</time>
      </trkpt>
      <trkpt lat="44.74228" lon="0.49793">
        <ele>164.6</ele>
        <time>2024-07-14T08:09:33Z</time>
      </trkpt>
      <trkpt lat="44.74226" lon="0.49796">
        <ele>164.9</ele>
        <time>2024-07-14T08:09:34Z</time>
      </trkpt>
      <trkpt lat="44.74223" lon="0.49802">
        <ele>165.1</ele>
        <time>2024-07-14T08:09:36Z</time>
      </trkpt>
      <trkpt lat="44.74221" lon="0.4981">
        <ele>165.6</ele>
        <time>2024-07-14T08:09:38Z</time>
      </trkpt>
      <trkpt lat="44.74219" lon="0.49818">
        <ele>166.2</ele>
        <time>2024-07-14T08:09:40Z</time>
      </trkpt>
      <trkpt lat="44.74216" lon="0.49828">
        <ele>166.8</ele>
        <time>2024-07-14T08:09:42Z</time>
      </trkpt>
      <trkpt lat="44.74214" lon="0.49833">
        <ele>167.1</ele>
        <time>2024-07-14T08:09:43Z</time>
      </trkpt>
      <trkpt lat="44.74212" lon="0.49838">
        <ele>167.6</ele>
        <time>2024-07-14T08:09:44Z</time>
      </trkpt>
      <trkpt lat="44.7421" lon="0.49844">
        <ele>167.8</ele>
        <time>2024-07-14T08:09:45Z</time>
      </trkpt>
      <trkpt lat="44.74208" lon="0.49849">
        <ele>167.9</ele>
        <time>2024-07-14T08:09:46Z</time>
      </trkpt>
      <trkpt lat="44.74206" lon="0.49855">
        <ele>168.2</ele>
        <time>2024-07-14T08:09:47Z</time>
      </trkpt>
      <trkpt lat="44.74204" lon="0.49861">
        <ele>168.2</ele>
        <time>2024-07-14T08:09:48Z</time>
      </trkpt>
      <trkpt lat="44.74201" lon="0.49874">
        <ele>168.3</ele>
        <time>2024-07-14T08:09:50Z</time>
      </trkpt>
      <trkpt lat="44.742" lon="0.4988">
        <ele>168.3</ele>
        <time>2024-07-14T08:09:51Z</time>
      </trkpt>
      <trkpt lat="44.74199" lon="0.49887">
        <ele>168.3</ele>
        <time>2024-07-14T08:09:52Z</time>
      </trkpt>
      <trkpt lat="44.742" lon="0.49894">
        <ele>168.3</ele>
        <time>2024-07-14T08:09:53Z</time>
      </trkpt>
      <trkpt lat="44.74201" lon="0.499">
        <ele>168.3</ele>
        <time>2024-07-14T08:09:54Z</time>
      </trkpt>
      <trkpt lat="44.74201" lon="0.49906">
        <ele>168.3</ele>
        <time>2024-07-14T08:09:55Z</time>
      </trkpt>
      <trkpt lat="44.74199" lon="0.49911">
        <ele>168.3</ele>
        <time>2024-07-14T08:09:56Z</time>
      </trkpt>
      <trkpt lat="44.74195" lon="0.49922">
        <ele>168.3</ele>
        <time>2024-07-14T08:09:58Z</time>
      </trkpt>
      <trkpt lat="44.74193" lon="0.49935">
        <ele>168.5</ele>
        <time>2024-07-14T08:10:00Z</time>
      </trkpt>
      <trkpt lat="44.74191" lon="0.4994">
        <ele>168.5</ele>
        <time>2024-07-14T08:10:01Z</time>
      </trkpt>
      <trkpt lat="44.74189" lon="0.49946">
        <ele>168.6</ele>
        <time>2024-07-14T08:10:02Z</time>
      </trkpt>
      <trkpt lat="44.74187" lon="0.49952">
        <ele>168.6</ele>
        <time>2024-07-14T08:10:03Z</time>
      </trkpt>
      <trkpt lat="44.74185" lon="0.49957">
        <ele>168.7</ele>
        <time>2024-07-14T08:10:04Z</time>
      </trkpt>
      <trkpt lat="44.74182" lon="0.49966">
        <ele>168.8</ele>
        <time>2024-07-14T08:10:06Z</time>
      </trkpt>
      <trkpt lat="44.74181" lon="0.4997">
        <ele>168.8</ele>
        <time>2024-07-14T08:10:07Z</time>
      </trkpt>
      <trkpt lat="44.74179" lon="0.49974">
        <ele>168.9</ele>
        <time>2024-07-14T08:10:08Z</time>
      </trkpt>
      <trkpt lat="44.74177" lon="0.49984">
        <ele>169.1</ele>
        <time>2024-07-14T08:10:10Z</time>
      </trkpt>
      <trkpt lat="44.74176" lon="0.49989">
        <ele>169.2</ele>
        <time>2024-07-14T08:10:11Z</time>
      </trkpt>
      <trkpt lat="44.74174" lon="0.49994">
        <ele>169.2</ele>
        <time>2024-07-14T08:10:12Z</time>
      </trkpt>
      <trkpt lat="44.7417" lon="0.50006">
        <ele>169.3</ele>
        <time>2024-07-14T08:10:14Z</time>
      </trkpt>
      <trkpt lat="44.74167" lon="0.5002">
        <ele>169.3</ele>
        <time>2024-07-14T08:10:16Z</time>
      </trkpt>
      <trkpt lat="44.74166" lon="0.50028">
        <ele>169.1</ele>
        <time>2024-07-14T08:10:17Z</time>
      </trkpt>
      <trkpt lat="44.74163" lon="0.50037">
        <ele>168.9</ele>
        <time>2024-07-14T08:10:18Z</time>
      </trkpt>
      <trkpt lat="44.74157" lon="0.50054">
        <ele>168.3</ele>
        <time>2024-07-14T08:10:20Z</time>
      </trkpt>
      <trkpt lat="44.74151" lon="0.50072">
        <ele>167.5</ele>
        <time>2024-07-14T08:10:22Z</time>
      </trkpt>
      <trkpt lat="44.74148" lon="0.50082">
        <ele>167.1</ele>
        <time>2024-07-14T08:10:23Z</time>
      </trkpt>
      <trkpt lat="44.74143" lon="0.50091">
        <ele>166.6</ele>
        <time>2024-07-14T08:10:24Z</time>
      </trkpt>
      <trkpt lat="44.74137" lon="0.50102">
        <ele>165.9</ele>
        <time>2024-07-14T08:10:26Z</time>
      </trkpt>
      <trkpt lat="44.74136" lon="0.50107">
        <ele>165.6</ele>
        <time>2024-07-14T08:10:27Z</time>
      </trkpt>
      <trkpt lat="44.74135" lon="0.5011">
        <ele>165.4</ele>
        <time>2024-07-14T08:10:28Z</time>
      </trkpt>
      <trkpt lat="44.74133" lon="0.50116">
        <ele>165.1</ele>
        <time>2024-07-14T08:10:30Z</time>
      </trkpt>
      <trkpt lat="44.74134" lon="0.50118">
        <ele>164.9</ele>
        <time>2024-07-14T08:10:31Z</time>
      </trkpt>
      <trkpt lat="44.74134" lon="0.50122">
        <ele>164.8</ele>
        <time>2024-07-14T08:10:32Z</time>
      </trkpt>
      <trkpt lat="44.74133" lon="0.50126">
        <ele>164.6</ele>
        <time>2024-07-14T08:10:33Z</time>
      </trkpt>
      <trkpt lat="44.74131" lon="0.5013">
        <ele>164.5</ele>
        <time>2024-07-14T08:10:34Z</time>
      </trkpt>
      <trkpt lat="44.74127" lon="0.50141">
        <ele>163.8</ele>
        <time>2024-07-14T08:10:36Z</time>
      </trkpt>
      <trkpt lat="44.74124" lon="0.50155">
        <ele>163.1</ele>
        <time>2024-07-14T08:10:38Z</time>
      </trkpt>
      <trkpt lat="44.74123" lon="0.50162">
        <ele>162.7</ele>
        <time>2024-07-14T08:10:39Z</time>
      </trkpt>
      <trkpt lat="44.7412" lon="0.50169">
        <ele>162.3</ele>
        <time>2024-07-14T08:10:40Z</time>
      </trkpt>
      <trkpt lat="44.74118" lon="0.50176">
        <ele>161.9</ele>
        <time>2024-07-14T08:10:41Z</time>
      </trkpt>
      <trkpt lat="44.74117" lon="0.50182">
        <ele>161.5</ele>
        <time>2024-07-14T08:10:42Z</time>
      </trkpt>
      <trkpt lat="44.74115" lon="0.50188">
        <ele>161.2</ele>
        <time>2024-07-14T08:10:43Z</time>
      </trkpt>
      <trkpt lat="44.74113" lon="0.50194">
        <ele>160.8</ele>
        <time>2024-07-14T08:10:44Z</time>
      </trkpt>
      <trkpt lat="44.74106" lon="0.50206">
        <ele>159.9</ele>
        <time>2024-07-14T08:10:46Z</time>
      </trkpt>
      <trkpt lat="44.74103" lon="0.50215">
        <ele>159.4</ele>
        <time>2024-07-14T08:10:48Z</time>
      </trkpt>
      <trkpt lat="44.741" lon="0.50217">
        <ele>159.1</ele>
        <time>2024-07-14T08:10:49Z</time>
      </trkpt>
      <trkpt lat="44.74098" lon="0.50217">
        <ele>158.9</ele>
        <time>2024-07-14T08:10:50Z</time>
      </trkpt>
      <trkpt lat="44.74093" lon="0.50215">
        <ele>158.5</ele>
        <time>2024-07-14T08:10:52Z</time>
      </trkpt>
      <trkpt lat="44.74086" lon="0.50207">
        <ele>157.9</ele>
        <time>2024-07-14T08:10:54Z</time>
      </trkpt>
      <trkpt lat="44.74078" lon="0.50198">
        <ele>157.2</ele>
        <time>2024-07-14T08:10:56Z</time>
      </trkpt>
      <trkpt lat="44.74069" lon="0.50189">
        <ele>156.4</ele>
        <time>2024-07-14T08:10:58Z</time>
      </trkpt>
      <trkpt lat="44.7406" lon="0.50178">
        <ele>155.6</ele>
        <time>2024-07-14T08:11:00Z</time>
      </trkpt>
      <trkpt lat="44.74055" lon="0.50175">
        <ele>155.2</ele>
        <time>2024-07-14T08:11:01Z</time>
      </trkpt>
      <trkpt lat="44.7405" lon="0.50174">
        <ele>154.9</ele>
        <time>2024-07-14T08:11:02Z</time>
      </trkpt>
      <trkpt lat="44.74044" lon="0.50174">
        <ele>154.6</ele>
        <time>2024-07-14T08:11:03Z</time>
      </trkpt>
      <trkpt lat="44.74039" lon="0.50174">
        <ele>154.4</ele>
        <time>2024-07-14T08:11:04Z</time>
      </trkpt>
      <trkpt lat="44.74033" lon="0.50173">
        <ele>154.1</ele>
        <time>2024-07-14T08:11:06Z</time>
      </trkpt>
      <trkpt lat="44.74028" lon="0.50169">
        <ele>153.9</ele>
        <time>2024-07-14T08:11:08Z</time>
      </trkpt>
      <trkpt lat="44.74026" lon="0.50171">
        <ele>153.9</ele>
        <time>2024-07-14T08:11:09Z</time>
      </trkpt>
      <trkpt lat="44.74021" lon="0.5017">
        <ele>153.7</ele>
        <time>2024-07-14T08:11:36Z</time>
      </trkpt>
      <trkpt lat="44.74019" lon="0.50171">
        <ele>153.6</ele>
        <time>2024-07-14T08:11:37Z</time>
      </trkpt>
      <trkpt lat="44.74016" lon="0.50173">
        <ele>153.5</ele>
        <time>2024-07-14T08:11:38Z</time>
      </trkpt>
      <trkpt lat="44.74011" lon="0.50176">
        <ele>153.3</ele>
        <time>2024-07-14T08:11:40Z</time>
      </trkpt>
      <trkpt lat="44.74009" lon="0.50179">
        <ele>153.1</ele>
        <time>2024-07-14T08:11:41Z</time>
      </trkpt>
      <trkpt lat="44.74005" lon="0.50182">
        <ele>153</ele>
        <time>2024-07-14T08:11:42Z</time>
      </trkpt>
      <trkpt lat="44.73998" lon="0.50186">
        <ele>152.6</ele>
        <time>2024-07-14T08:11:44Z</time>
      </trkpt>
      <trkpt lat="44.73994" lon="0.50187">
        <ele>152.4</ele>
        <time>2024-07-14T08:11:45Z</time>
      </trkpt>
      <trkpt lat="44.73989" lon="0.50188">
        <ele>152.1</ele>
        <time>2024-07-14T08:11:46Z</time>
      </trkpt>
      <trkpt lat="44.73977" lon="0.50188">
        <ele>151.4</ele>
        <time>2024-07-14T08:11:48Z</time>
      </trkpt>
      <trkpt lat="44.73971" lon="0.50188">
        <ele>151</ele>
        <time>2024-07-14T08:11:49Z</time>
      </trkpt>
      <trkpt lat="44.73964" lon="0.50188">
        <ele>150.7</ele>
        <time>2024-07-14T08:11:50Z</time>
      </trkpt>
      <trkpt lat="44.73952" lon="0.50188">
        <ele>149.8</ele>
        <time>2024-07-14T08:11:52Z</time>
      </trkpt>
      <trkpt lat="44.73945" lon="0.50187">
        <ele>149.4</ele>
        <time>2024-07-14T08:11:53Z</time>
      </trkpt>
      <trkpt lat="44.73937" lon="0.50188">
        <ele>148.9</ele>
        <time>2024-07-14T08:11:54Z</time>
      </trkpt>
      <trkpt lat="44.7393" lon="0.50189">
        <ele>148.5</ele>
        <time>2024-07-14T08:11:55Z</time>
      </trkpt>
      <trkpt lat="44.73924" lon="0.50191">
        <ele>148.1</ele>
        <time>2024-07-14T08:11:56Z</time>
      </trkpt>
      <trkpt lat="44.73918" lon="0.50194">
        <ele>147.7</ele>
        <time>2024-07-14T08:11:57Z</time>
      </trkpt>
      <trkpt lat="44.73911" lon="0.50197">
        <ele>147.3</ele>
        <time>2024-07-14T08:11:58Z</time>
      </trkpt>
      <trkpt lat="44.73898" lon="0.50204">
        <ele>146.4</ele>
        <time>2024-07-14T08:12:00Z</time>
      </trkpt>
      <trkpt lat="44.73891" lon="0.50207">
        <ele>146</ele>
        <time>2024-07-14T08:12:01Z</time>
      </trkpt>
      <trkpt lat="44.73885" lon="0.50208">
        <ele>145.6</ele>
        <time>2024-07-14T08:12:02Z</time>
      </trkpt>
      <trkpt lat="44.73879" lon="0.50208">
        <ele>145.2</ele>
        <time>2024-07-14T08:12:03Z</time>
      </trkpt>
      <trkpt lat="44.73874" lon="0.50208">
        <ele>144.8</ele>
        <time>2024-07-14T08:12:04Z</time>
      </trkpt>
      <trkpt lat="44.73865" lon="0.50212">
        <ele>144.2</ele>
        <time>2024-07-14T08:12:06Z</time>
      </trkpt>
      <trkpt lat="44.73863" lon="0.50213">
        <ele>144</ele>
        <time>2024-07-14T08:12:07Z</time>
      </trkpt>
      <trkpt lat="44.7386" lon="0.50213">
        <ele>143.9</ele>
        <time>2024-07-14T08:12:08Z</time>
      </trkpt>
      <trkpt lat="44.73857" lon="0.50212">
        <ele>143.6</ele>
        <time>2024-07-14T08:12:10Z</time>
      </trkpt>
      <trkpt lat="44.73854" lon="0.50211">
        <ele>143.5</ele>
        <time>2024-07-14T08:12:11Z</time>
      </trkpt>
      <trkpt lat="44.73852" lon="0.50211">
        <ele>143.4</ele>
        <time>2024-07-14T08:12:12Z</time>
      </trkpt>
      <trkpt lat="44.73851" lon="0.50213">
        <ele>143.5</ele>
        <time>2024-07-14T08:12:13Z</time>
      </trkpt>
      <trkpt lat="44.7385" lon="0.50216">
        <ele>143.6</ele>
        <time>2024-07-14T08:12:14Z</time>
      </trkpt>
      <trkpt lat="44.73853" lon="0.50218">
        <ele>143.8</ele>
        <time>2024-07-14T08:12:16Z</time>
      </trkpt>
      <trkpt lat="44.73854" lon="0.50218">
        <ele>143.9</ele>
        <time>2024-07-14T08:12:17Z</time>
      </trkpt>
      <trkpt lat="44.73855" lon="0.50218">
        <ele>143.9</ele>
        <time>2024-07-14T08:12:18Z</time>
      </trkpt>
      <trkpt lat="44.73855" lon="0.50218">
        <ele>143.9</ele>
        <time>2024-07-14T08:12:19Z</time>
      </trkpt>
      <trkpt lat="44.73862" lon="0.50216">
        <ele>144.3</ele>
        <time>2024-07-14T08:12:40Z</time>
      </trkpt>
      <trkpt lat="44.73865" lon="0.50214">
        <ele>144.5</ele>
        <time>2024-07-14T08:12:42Z</time>
      </trkpt>
      <trkpt lat="44.73868" lon="0.50211">
        <ele>144.7</ele>
        <time>2024-07-14T08:12:44Z</time>
      </trkpt>
      <trkpt lat="44.7387" lon="0.5021">
        <ele>144.9</ele>
        <time>2024-07-14T08:12:46Z</time>
      </trkpt>
      <trkpt lat="44.73873" lon="0.50209">
        <ele>145.1</ele>
        <time>2024-07-14T08:12:48Z</time>
      </trkpt>
      <trkpt lat="44.73877" lon="0.50209">
        <ele>145.3</ele>
        <time>2024-07-14T08:12:50Z</time>
      </trkpt>
      <trkpt lat="44.73881" lon="0.5021">
        <ele>145.6</ele>
        <time>2024-07-14T08:12:52Z</time>
      </trkpt>
      <trkpt lat="44.73883" lon="0.5021">
        <ele>145.6</ele>
        <time>2024-07-14T08:12:53Z</time>
      </trkpt>
      <trkpt lat="44.73885" lon="0.50209">
        <ele>145.7</ele>
        <time>2024-07-14T08:12:54Z</time>
      </trkpt>
      <trkpt lat="44.73888" lon="0.50208">
        <ele>145.9</ele>
        <time>2024-07-14T08:12:56Z</time>
      </trkpt>
      <trkpt lat="44.73892" lon="0.50206">
        <ele>146.1</ele>
        <time>2024-07-14T08:12:58Z</time>
      </trkpt>
      <trkpt lat="44.73894" lon="0.50205">
        <ele>146.2</ele>
        <time>2024-07-14T08:12:59Z</time>
      </trkpt>
      <trkpt lat="44.73896" lon="0.50204">
        <ele>146.3</ele>
        <time>2024-07-14T08:13:00Z</time>
      </trkpt>
      <trkpt lat="44.739" lon="0.50202">
        <ele>146.5</ele>
        <time>2024-07-14T08:13:02Z</time>
      </trkpt>
      <trkpt lat="44.73903" lon="0.50199">
        <ele>146.8</ele>
        <time>2024-07-14T08:13:04Z</time>
      </trkpt>
      <trkpt lat="44.73908" lon="0.50198">
        <ele>147.1</ele>
        <time>2024-07-14T08:13:06Z</time>
      </trkpt>
      <trkpt lat="44.73911" lon="0.50196">
        <ele>147.3</ele>
        <time>2024-07-14T08:13:08Z</time>
      </trkpt>
      <trkpt lat="44.73916" lon="0.50195">
        <ele>147.6</ele>
        <time>2024-07-14T08:13:10Z</time>
      </trkpt>
      <trkpt lat="44.73919" lon="0.50194">
        <ele>147.9</ele>
        <time>2024-07-14T08:13:12Z</time>
      </trkpt>
      <trkpt lat="44.73922" lon="0.50194">
        <ele>148</ele>
        <time>2024-07-14T08:13:13Z</time>
      </trkpt>
      <trkpt lat="44.73924" lon="0.50193">
        <ele>148.2</ele>
        <time>2024-07-14T08:13:14Z</time>
      </trkpt>
      <trkpt lat="44.73926" lon="0.50193">
        <ele>148.3</ele>
        <time>2024-07-14T08:13:15Z</time>
      </trkpt>
      <trkpt lat="44.73928" lon="0.50192">
        <ele>148.4</ele>
        <time>2024-07-14T08:13:16Z</time>
      </trkpt>
      <trkpt lat="44.73932" lon="0.50192">
        <ele>148.7</ele>
        <time>2024-07-14T08:13:18Z</time>
      </trkpt>
      <trkpt lat="44.73935" lon="0.50191">
        <ele>148.9</ele>
        <time>2024-07-14T08:13:20Z</time>
      </trkpt>
      <trkpt lat="44.7394" lon="0.50191">
        <ele>149.2</ele>
        <time>2024-07-14T08:13:22Z</time>
      </trkpt>
      <trkpt lat="44.73945" lon="0.50192">
        <ele>149.6</ele>
        <time>2024-07-14T08:13:24Z</time>
      </trkpt>
      <trkpt lat="44.73948" lon="0.50192">
        <ele>149.8</ele>
        <time>2024-07-14T08:13:25Z</time>
      </trkpt>
      <trkpt lat="44.73951" lon="0.50193">
        <ele>150</ele>
        <time>2024-07-14T08:13:26Z</time>
      </trkpt>
      <trkpt lat="44.73955" lon="0.50193">
        <ele>150.3</ele>
        <time>2024-07-14T08:13:28Z</time>
      </trkpt>
      <trkpt lat="44.7396" lon="0.50193">
        <ele>150.7</ele>
        <time>2024-07-14T08:13:30Z</time>
      </trkpt>
      <trkpt lat="44.73965" lon="0.50193">
        <ele>151</ele>
        <time>2024-07-14T08:13:32Z</time>
      </trkpt>
      <trkpt lat="44.7397" lon="0.50193">
        <ele>151.3</ele>
        <time>2024-07-14T08:13:34Z</time>
      </trkpt>
      <trkpt lat="44.73975" lon="0.50192">
        <ele>151.6</ele>
        <time>2024-07-14T08:13:36Z</time>
      </trkpt>
      <trkpt lat="44.7398" lon="0.50192">
        <ele>152</ele>
        <time>2024-07-14T08:13:38Z</time>
      </trkpt>
      <trkpt lat="44.73982" lon="0.50192">
        <ele>152.1</ele>
        <time>2024-07-14T08:13:39Z</time>
      </trkpt>
      <trkpt lat="44.73985" lon="0.50192">
        <ele>152.3</ele>
        <time>2024-07-14T08:13:40Z</time>
      </trkpt>
      <trkpt lat="44.73989" lon="0.50192">
        <ele>152.5</ele>
        <time>2024-07-14T08:13:42Z</time>
      </trkpt>
      <trkpt lat="44.73994" lon="0.5019">
        <ele>152.8</ele>
        <time>2024-07-14T08:13:44Z</time>
      </trkpt>
      <trkpt lat="44.73998" lon="0.50189">
        <ele>153</ele>
        <time>2024-07-14T08:13:46Z</time>
      </trkpt>
      <trkpt lat="44.74002" lon="0.50187">
        <ele>153.2</ele>
        <time>2024-07-14T08:13:48Z</time>
      </trkpt>
      <trkpt lat="44.74005" lon="0.50183">
        <ele>153.4</ele>
        <time>2024-07-14T08:13:50Z</time>
      </trkpt>
      <trkpt lat="44.74007" lon="0.50181">
        <ele>153.5</ele>
        <time>2024-07-14T08:13:51Z</time>
      </trkpt>
      <trkpt lat="44.74009" lon="0.5018">
        <ele>153.6</ele>
        <time>2024-07-14T08:13:52Z</time>
      </trkpt>
      <trkpt lat="44.74011" lon="0.50177">
        <ele>153.7</ele>
        <time>2024-07-14T08:13:53Z</time>
      </trkpt>
      <trkpt lat="44.74013" lon="0.50175">
        <ele>153.8</ele>
        <time>2024-07-14T08:13:54Z</time>
      </trkpt>
      <trkpt lat="44.74014" lon="0.50173">
        <ele>153.9</ele>
        <time>2024-07-14T08:13:55Z</time>
      </trkpt>
      <trkpt lat="44.74016" lon="0.50171">
        <ele>154</ele>
        <time>2024-07-14T08:13:56Z</time>
      </trkpt>
      <trkpt lat="44.74019" lon="0.50173">
        <ele>154.1</ele>
        <time>2024-07-14T08:13:58Z</time>
      </trkpt>
      <trkpt lat="44.74022" lon="0.50174">
        <ele>154.2</ele>
        <time>2024-07-14T08:14:00Z</time>
      </trkpt>
      <trkpt lat="44.74024" lon="0.50174">
        <ele>154.3</ele>
        <time>2024-07-14T08:14:01Z</time>
      </trkpt>
      <trkpt lat="44.74027" lon="0.50174">
        <ele>154.4</ele>
        <time>2024-07-14T08:14:02Z</time>
      </trkpt>
      <trkpt lat="44.74032" lon="0.50173">
        <ele>154.7</ele>
        <time>2024-07-14T08:14:04Z</time>
      </trkpt>
      <trkpt lat="44.74036" lon="0.50174">
        <ele>155</ele>
        <time>2024-07-14T08:14:06Z</time>
      </trkpt>
      <trkpt lat="44.74041" lon="0.50174">
        <ele>155.3</ele>
        <time>2024-07-14T08:14:08Z</time>
      </trkpt>
      <trkpt lat="44.74044" lon="0.50175">
        <ele>155.6</ele>
        <time>2024-07-14T08:14:10Z</time>
      </trkpt>
      <trkpt lat="44.74047" lon="0.50176">
        <ele>155.8</ele>
        <time>2024-07-14T08:14:12Z</time>
      </trkpt>
      <trkpt lat="44.74054" lon="0.50181">
        <ele>156.4</ele>
        <time>2024-07-14T08:14:16Z</time>
      </trkpt>
      <trkpt lat="44.74055" lon="0.50182">
        <ele>156.5</ele>
        <time>2024-07-14T08:14:17Z</time>
      </trkpt>
      <trkpt lat="44.74056" lon="0.50184">
        <ele>156.6</ele>
        <time>2024-07-14T08:14:18Z</time>
      </trkpt>
      <trkpt lat="44.74058" lon="0.50188">
        <ele>156.9</ele>
        <time>2024-07-14T08:14:20Z</time>
      </trkpt>
      <trkpt lat="44.74059" lon="0.5019">
        <ele>157</ele>
        <time>2024-07-14T08:14:21Z</time>
      </trkpt>
      <trkpt lat="44.74061" lon="0.50191">
        <ele>157.2</ele>
        <time>2024-07-14T08:14:22Z</time>
      </trkpt>
      <trkpt lat="44.74064" lon="0.50194">
        <ele>157.5</ele>
        <time>2024-07-14T08:14:24Z</time>
      </trkpt>
      <trkpt lat="44.74067" lon="0.50196">
        <ele>157.7</ele>
        <time>2024-07-14T08:14:26Z</time>
      </trkpt>
      <trkpt lat="44.74071" lon="0.502">
        <ele>158.1</ele>
        <time>2024-07-14T08:14:28Z</time>
      </trkpt>
      <trkpt lat="44.74078" lon="0.50206">
        <ele>158.8</ele>
        <time>2024-07-14T08:14:30Z</time>
      </trkpt>
      <trkpt lat="44.74081" lon="0.50207">
        <ele>159</ele>
        <time>2024-07-14T08:14:31Z</time>
      </trkpt>
      <trkpt lat="44.74083" lon="0.50208">
        <ele>159.2</ele>
        <time>2024-07-14T08:14:32Z</time>
      </trkpt>
      <trkpt lat="44.74086" lon="0.50216">
        <ele>159.7</ele>
        <time>2024-07-14T08:14:34Z</time>
      </trkpt>
      <trkpt lat="44.74087" lon="0.50219">
        <ele>160</ele>
        <time>2024-07-14T08:14:35Z</time>
      </trkpt>
      <trkpt lat="44.74089" lon="0.50221">
        <ele>160.2</ele>
        <time>2024-07-14T08:14:36Z</time>
      </trkpt>
      <trkpt lat="44.74092" lon="0.50226">
        <ele>160.6</ele>
        <time>2024-07-14T08:14:38Z</time>
      </trkpt>
      <trkpt lat="44.74094" lon="0.50228">
        <ele>160.8</ele>
        <time>2024-07-14T08:14:39Z</time>
      </trkpt>
      <trkpt lat="44.74095" lon="0.50228">
        <ele>160.9</ele>
        <time>2024-07-14T08:14:40Z</time>
      </trkpt>
      <trkpt lat="44.74098" lon="0.5023">
        <ele>161.2</ele>
        <time>2024-07-14T08:14:41Z</time>
      </trkpt>
      <trkpt lat="44.741" lon="0.50229">
        <ele>161.3</ele>
        <time>2024-07-14T08:14:42Z</time>
      </trkpt>
      <trkpt lat="44.74101" lon="0.50228">
        <ele>161.5</ele>
        <time>2024-07-14T08:14:43Z</time>
      </trkpt>
      <trkpt lat="44.74102" lon="0.50226">
        <ele>161.6</ele>
        <time>2024-07-14T08:14:44Z</time>
      </trkpt>
      <trkpt lat="44.74104" lon="0.50223">
        <ele>161.8</ele>
        <time>2024-07-14T08:14:46Z</time>
      </trkpt>
      <trkpt lat="44.74106" lon="0.50217">
        <ele>162.2</ele>
        <time>2024-07-14T08:14:48Z</time>
      </trkpt>
      <trkpt lat="44.74106" lon="0.50215">
        <ele>162.4</ele>
        <time>2024-07-14T08:14:49Z</time>
      </trkpt>
      <trkpt lat="44.74107" lon="0.50213">
        <ele>162.5</ele>
        <time>2024-07-14T08:14:50Z</time>
      </trkpt>
      <trkpt lat="44.74108" lon="0.50211">
        <ele>162.6</ele>
        <time>2024-07-14T08:14:51Z</time>
      </trkpt>
      <trkpt lat="44.74109" lon="0.5021">
        <ele>162.7</ele>
        <time>2024-07-14T08:14:52Z</time>
      </trkpt>
      <trkpt lat="44.74111" lon="0.50205">
        <ele>163.1</ele>
        <time>2024-07-14T08:14:54Z</time>
      </trkpt>
      <trkpt lat="44.74112" lon="0.50202">
        <ele>163.2</ele>
        <time>2024-07-14T08:14:55Z</time>
      </trkpt>
      <trkpt lat="44.74113" lon="0.50201">
        <ele>163.4</ele>
        <time>2024-07-14T08:14:56Z</time>
      </trkpt>
      <trkpt lat="44.74114" lon="0.50198">
        <ele>163.6</ele>
        <time>2024-07-14T08:14:57Z</time>
      </trkpt>
      <trkpt lat="44.74115" lon="0.50195">
        <ele>163.7</ele>
        <time>2024-07-14T08:14:58Z</time>
      </trkpt>
      <trkpt lat="44.74116" lon="0.5019">
        <ele>164.1</ele>
        <time>2024-07-14T08:15:00Z</time>
      </trkpt>
      <trkpt lat="44.74117" lon="0.50184">
        <ele>164.4</ele>
        <time>2024-07-14T08:15:02Z</time>
      </trkpt>
      <trkpt lat="44.7412" lon="0.5018">
        <ele>164.7</ele>
        <time>2024-07-14T08:15:04Z</time>
      </trkpt>
      <trkpt lat="44.74123" lon="0.50175">
        <ele>165</ele>
        <time>2024-07-14T08:15:06Z</time>
      </trkpt>
      <trkpt lat="44.74124" lon="0.50173">
        <ele>165.1</ele>
        <time>2024-07-14T08:15:07Z</time>
      </trkpt>
      <trkpt lat="44.74124" lon="0.50172">
        <ele>165.2</ele>
        <time>2024-07-14T08:15:08Z</time>
      </trkpt>
      <trkpt lat="44.74127" lon="0.50167">
        <ele>165.5</ele>
        <time>2024-07-14T08:15:10Z</time>
      </trkpt>
      <trkpt lat="44.74129" lon="0.5016">
        <ele>165.9</ele>
        <time>2024-07-14T08:15:12Z</time>
      </trkpt>
      <trkpt lat="44.7413" lon="0.50157">
        <ele>166</ele>
        <time>2024-07-14T08:15:13Z</time>
      </trkpt>
      <trkpt lat="44.74131" lon="0.50155">
        <ele>166.1</ele>
        <time>2024-07-14T08:15:14Z</time>
      </trkpt>
      <trkpt lat="44.74131" lon="0.50153">
        <ele>166.2</ele>
        <time>2024-07-14T08:15:15Z</time>
      </trkpt>
      <trkpt lat="44.74132" lon="0.5015">
        <ele>166.4</ele>
        <time>2024-07-14T08:15:16Z</time>
      </trkpt>
      <trkpt lat="44.74133" lon="0.50146">
        <ele>166.5</ele>
        <time>2024-07-14T08:15:18Z</time>
      </trkpt>
      <trkpt lat="44.74135" lon="0.50146">
        <ele>166.6</ele>
        <time>2024-07-14T08:15:19Z</time>
      </trkpt>
      <trkpt lat="44.74137" lon="0.50144">
        <ele>166.8</ele>
        <time>2024-07-14T08:15:20Z</time>
      </trkpt>
      <trkpt lat="44.74137" lon="0.50142">
        <ele>166.8</ele>
        <time>2024-07-14T08:15:21Z</time>
      </trkpt>
      <trkpt lat="44.74136" lon="0.50138">
        <ele>166.9</ele>
        <time>2024-07-14T08:15:22Z</time>
      </trkpt>
      <trkpt lat="44.74135" lon="0.50132">
        <ele>167.1</ele>
        <time>2024-07-14T08:15:24Z</time>
      </trkpt>
      <trkpt lat="44.74135" lon="0.50129">
        <ele>167.1</ele>
        <time>2024-07-14T08:15:26Z</time>
      </trkpt>
      <trkpt lat="44.74135" lon="0.50128">
        <ele>167.1</ele>
        <time>2024-07-14T08:15:27Z</time>
      </trkpt>
      <trkpt lat="44.74135" lon="0.50126">
        <ele>167.2</ele>
        <time>2024-07-14T08:15:28Z</time>
      </trkpt>
      <trkpt lat="44.74137" lon="0.50121">
        <ele>167.2</ele>
        <time>2024-07-14T08:15:30Z</time>
      </trkpt>
      <trkpt lat="44.74138" lon="0.50118">
        <ele>167.2</ele>
        <time>2024-07-14T08:15:31Z</time>
      </trkpt>
      <trkpt lat="44.74139" lon="0.50117">
        <ele>167.2</ele>
        <time>2024-07-14T08:15:32Z</time>
      </trkpt>
      <trkpt lat="44.74141" lon="0.50117">
        <ele>167.2</ele>
        <time>2024-07-14T08:15:34Z</time>
      </trkpt>
      <trkpt lat="44.74142" lon="0.50117">
        <ele>167.1</ele>
        <time>2024-07-14T08:15:35Z</time>
      </trkpt>
      <trkpt lat="44.74154" lon="0.5012">
        <ele>166.8</ele>
        <time>2024-07-14T08:15:40Z</time>
      </trkpt>
      <trkpt lat="44.74156" lon="0.5012">
        <ele>166.7</ele>
        <time>2024-07-14T08:15:41Z</time>
      </trkpt>
      <trkpt lat="44.7416" lon="0.50119">
        <ele>166.6</ele>
        <time>2024-07-14T08:15:42Z</time>
      </trkpt>
      <trkpt lat="44.74168" lon="0.50118">
        <ele>166.1</ele>
        <time>2024-07-14T08:15:44Z</time>
      </trkpt>
      <trkpt lat="44.74174" lon="0.50117">
        <ele>165.7</ele>
        <time>2024-07-14T08:15:45Z</time>
      </trkpt>
      <trkpt lat="44.74178" lon="0.50115">
        <ele>165.4</ele>
        <time>2024-07-14T08:15:46Z</time>
      </trkpt>
      <trkpt lat="44.74183" lon="0.50114">
        <ele>165.1</ele>
        <time>2024-07-14T08:15:47Z</time>
      </trkpt>
      <trkpt lat="44.74187" lon="0.50113">
        <ele>164.7</ele>
        <time>2024-07-14T08:15:48Z</time>
      </trkpt>
      <trkpt lat="44.74198" lon="0.50111">
        <ele>163.9</ele>
        <time>2024-07-14T08:15:50Z</time>
      </trkpt>
      <trkpt lat="44.74202" lon="0.5011">
        <ele>163.6</ele>
        <time>2024-07-14T08:15:51Z</time>
      </trkpt>
      <trkpt lat="44.74205" lon="0.50109">
        <ele>163.4</ele>
        <time>2024-07-14T08:15:52Z</time>
      </trkpt>
      <trkpt lat="44.74208" lon="0.50109">
        <ele>163.1</ele>
        <time>2024-07-14T08:15:53Z</time>
      </trkpt>
      <trkpt lat="44.74211" lon="0.50108">
        <ele>163</ele>
        <time>2024-07-14T08:15:54Z</time>
      </trkpt>
      <trkpt lat="44.74216" lon="0.50106">
        <ele>162.6</ele>
        <time>2024-07-14T08:15:56Z</time>
      </trkpt>
      <trkpt lat="44.7422" lon="0.50104">
        <ele>162.3</ele>
        <time>2024-07-14T08:15:58Z</time>
      </trkpt>
      <trkpt lat="44.74222" lon="0.50104">
        <ele>162.1</ele>
        <time>2024-07-14T08:15:59Z</time>
      </trkpt>
      <trkpt lat="44.74224" lon="0.50104">
        <ele>161.9</ele>
        <time>2024-07-14T08:16:00Z</time>
      </trkpt>
      <trkpt lat="44.74232" lon="0.50108">
        <ele>161.3</ele>
        <time>2024-07-14T08:16:05Z</time>
      </trkpt>
      <trkpt lat="44.74234" lon="0.50108">
        <ele>161.2</ele>
        <time>2024-07-14T08:16:06Z</time>
      </trkpt>
      <trkpt lat="44.74236" lon="0.50109">
        <ele>161</ele>
        <time>2024-07-14T08:16:07Z</time>
      </trkpt>
      <trkpt lat="44.74238" lon="0.5011">
        <ele>160.9</ele>
        <time>2024-07-14T08:16:08Z</time>
      </trkpt>
      <trkpt lat="44.7424" lon="0.5011">
        <ele>160.8</ele>
        <time>2024-07-14T08:16:09Z</time>
      </trkpt>
      <trkpt lat="44.74241" lon="0.5011">
        <ele>160.7</ele>
        <time>2024-07-14T08:16:10Z</time>
      </trkpt>
      <trkpt lat="44.74245" lon="0.50106">
        <ele>160.4</ele>
        <time>2024-07-14T08:16:12Z</time>
      </trkpt>
      <trkpt lat="44.74251" lon="0.50101">
        <ele>160</ele>
        <time>2024-07-14T08:16:14Z</time>
      </trkpt>
      <trkpt lat="44.74254" lon="0.50098">
        <ele>159.8</ele>
        <time>2024-07-14T08:16:15Z</time>
      </trkpt>
      <trkpt lat="44.74258" lon="0.50097">
        <ele>159.7</ele>
        <time>2024-07-14T08:16:16Z</time>
      </trkpt>
      <trkpt lat="44.74261" lon="0.50096">
        <ele>159.5</ele>
        <time>2024-07-14T08:16:17Z</time>
      </trkpt>
      <trkpt lat="44.74264" lon="0.50095">
        <ele>159.4</ele>
        <time>2024-07-14T08:16:18Z</time>
      </trkpt>
      <trkpt lat="44.74269" lon="0.50092">
        <ele>159.1</ele>
        <time>2024-07-14T08:16:20Z</time>
      </trkpt>
      <trkpt lat="44.74273" lon="0.5009">
        <ele>159</ele>
        <time>2024-07-14T08:16:21Z</time>
      </trkpt>
      <trkpt lat="44.74277" lon="0.50088">
        <ele>158.8</ele>
        <time>2024-07-14T08:16:22Z</time>
      </trkpt>
      <trkpt lat="44.74285" lon="0.50085">
        <ele>158.4</ele>
        <time>2024-07-14T08:16:24Z</time>
      </trkpt>
      <trkpt lat="44.74289" lon="0.50083">
        <ele>158.1</ele>
        <time>2024-07-14T08:16:25Z</time>
      </trkpt>
      <trkpt lat="44.74294" lon="0.50083">
        <ele>157.9</ele>
        <time>2024-07-14T08:16:26Z</time>
      </trkpt>
      <trkpt lat="44.74302" lon="0.50081">
        <ele>157.4</ele>
        <time>2024-07-14T08:16:28Z</time>
      </trkpt>
      <trkpt lat="44.74307" lon="0.50081">
        <ele>157.2</ele>
        <time>2024-07-14T08:16:29Z</time>
      </trkpt>
      <trkpt lat="44.74311" lon="0.50079">
        <ele>157</ele>
        <time>2024-07-14T08:16:30Z</time>
      </trkpt>
      <trkpt lat="44.74316" lon="0.50077">
        <ele>156.8</ele>
        <time>2024-07-14T08:16:31Z</time>
      </trkpt>
      <trkpt lat="44.74322" lon="0.50076">
        <ele>156.5</ele>
        <time>2024-07-14T08:16:32Z</time>
      </trkpt>
      <trkpt lat="44.74327" lon="0.50076">
        <ele>156.2</ele>
        <time>2024-07-14T08:16:33Z</time>
      </trkpt>
      <trkpt lat="44.74333" lon="0.50075">
        <ele>155.9</ele>
        <time>2024-07-14T08:16:34Z</time>
      </trkpt>
      <trkpt lat="44.74341" lon="0.50075">
        <ele>155.5</ele>
        <time>2024-07-14T08:16:36Z</time>
      </trkpt>
      <trkpt lat="44.74347" lon="0.50078">
        <ele>155.2</ele>
        <time>2024-07-14T08:16:38Z</time>
      </trkpt>
      <trkpt lat="44.74352" lon="0.50079">
        <ele>155</ele>
        <time>2024-07-14T08:16:40Z</time>
      </trkpt>
      <trkpt lat="44.74358" lon="0.50082">
        <ele>154.8</ele>
        <time>2024-07-14T08:16:42Z</time>
      </trkpt>
      <trkpt lat="44.74364" lon="0.50087">
        <ele>154.5</ele>
        <time>2024-07-14T08:16:44Z</time>
      </trkpt>
      <trkpt lat="44.74371" lon="0.50091">
        <ele>154.1</ele>
        <time>2024-07-14T08:16:46Z</time>
      </trkpt>
      <trkpt lat="44.74377" lon="0.50092">
        <ele>153.7</ele>
        <time>2024-07-14T08:16:48Z</time>
      </trkpt>
      <trkpt lat="44.74384" lon="0.50094">
        <ele>153.4</ele>
        <time>2024-07-14T08:16:49Z</time>
      </trkpt>
      <trkpt lat="44.7439" lon="0.50096">
        <ele>153.2</ele>
        <time>2024-07-14T08:16:50Z</time>
      </trkpt>
      <trkpt lat="44.74399" lon="0.50099">
        <ele>152.9</ele>
        <time>2024-07-14T08:16:51Z</time>
      </trkpt>
      <trkpt lat="44.74414" lon="0.50104">
        <ele>152.5</ele>
        <time>2024-07-14T08:16:52Z</time>
      </trkpt>
      <trkpt lat="44.74437" lon="0.50109">
        <ele>152.4</ele>
        <time>2024-07-14T08:16:54Z</time>
      </trkpt>
      <trkpt lat="44.74461" lon="0.50118">
        <ele>152.4</ele>
        <time>2024-07-14T08:16:56Z</time>
      </trkpt>
      <trkpt lat="44.74481" lon="0.50118">
        <ele>152.1</ele>
        <time>2024-07-14T08:16:58Z</time>
      </trkpt>
      <trkpt lat="44.74496" lon="0.50113">
        <ele>151.7</ele>
        <time>2024-07-14T08:17:00Z</time>
      </trkpt>
      <trkpt lat="44.7451" lon="0.50107">
        <ele>151.3</ele>
        <time>2024-07-14T08:17:02Z</time>
      </trkpt>
      <trkpt lat="44.74523" lon="0.50101">
        <ele>150.8</ele>
        <time>2024-07-14T08:17:04Z</time>
      </trkpt>
      <trkpt lat="44.74536" lon="0.50094">
        <ele>150.1</ele>
        <time>2024-07-14T08:17:06Z</time>
      </trkpt>
      <trkpt lat="44.74543" lon="0.5009">
        <ele>149.8</ele>
        <time>2024-07-14T08:17:07Z</time>
      </trkpt>
      <trkpt lat="44.7455" lon="0.50084">
        <ele>149.4</ele>
        <time>2024-07-14T08:17:08Z</time>
      </trkpt>
      <trkpt lat="44.74566" lon="0.50076">
        <ele>148.3</ele>
        <time>2024-07-14T08:17:10Z</time>
      </trkpt>
      <trkpt lat="44.74575" lon="0.50074">
        <ele>147.7</ele>
        <time>2024-07-14T08:17:11Z</time>
      </trkpt>
      <trkpt lat="44.74584" lon="0.50073">
        <ele>146.9</ele>
        <time>2024-07-14T08:17:12Z</time>
      </trkpt>
      <trkpt lat="44.74592" lon="0.50074">
        <ele>146.2</ele>
        <time>2024-07-14T08:17:13Z</time>
      </trkpt>
      <trkpt lat="44.746" lon="0.50075">
        <ele>145.4</ele>
        <time>2024-07-14T08:17:14Z</time>
      </trkpt>
      <trkpt lat="44.74608" lon="0.50079">
        <ele>144.6</ele>
        <time>2024-07-14T08:17:15Z</time>
      </trkpt>
      <trkpt lat="44.74616" lon="0.50083">
        <ele>143.9</ele>
        <time>2024-07-14T08:17:16Z</time>
      </trkpt>
      <trkpt lat="44.74624" lon="0.50085">
        <ele>143.3</ele>
        <time>2024-07-14T08:17:17Z</time>
      </trkpt>
      <trkpt lat="44.74631" lon="0.50086">
        <ele>142.8</ele>
        <time>2024-07-14T08:17:18Z</time>
      </trkpt>
      <trkpt lat="44.74639" lon="0.50086">
        <ele>142.4</ele>
        <time>2024-07-14T08:17:19Z</time>
      </trkpt>
      <trkpt lat="44.74645" lon="0.50085">
        <ele>142</ele>
        <time>2024-07-14T08:17:20Z</time>
      </trkpt>
      <trkpt lat="44.74661" lon="0.50081">
        <ele>141.5</ele>
        <time>2024-07-14T08:17:22Z</time>
      </trkpt>
      <trkpt lat="44.74668" lon="0.5008">
        <ele>141.3</ele>
        <time>2024-07-14T08:17:23Z</time>
      </trkpt>
      <trkpt lat="44.74675" lon="0.50079">
        <ele>141.2</ele>
        <time>2024-07-14T08:17:24Z</time>
      </trkpt>
      <trkpt lat="44.74689" lon="0.50077">
        <ele>141</ele>
        <time>2024-07-14T08:17:26Z</time>
      </trkpt>
      <trkpt lat="44.74695" lon="0.50077">
        <ele>140.9</ele>
        <time>2024-07-14T08:17:27Z</time>
      </trkpt>
      <trkpt lat="44.74702" lon="0.50077">
        <ele>140.9</ele>
        <time>2024-07-14T08:17:28Z</time>
      </trkpt>
      <trkpt lat="44.74713" lon="0.50079">
        <ele>140.7</ele>
        <time>2024-07-14T08:17:30Z</time>
      </trkpt>
      <trkpt lat="44.74719" lon="0.50081">
        <ele>140.6</ele>
        <time>2024-07-14T08:17:31Z</time>
      </trkpt>
      <trkpt lat="44.74725" lon="0.50085">
        <ele>140.5</ele>
        <time>2024-07-14T08:17:32Z</time>
      </trkpt>
      <trkpt lat="44.74738" lon="0.50094">
        <ele>140.1</ele>
        <time>2024-07-14T08:17:34Z</time>
      </trkpt>
      <trkpt lat="44.74744" lon="0.50099">
        <ele>139.9</ele>
        <time>2024-07-14T08:17:35Z</time>
      </trkpt>
      <trkpt lat="44.74751" lon="0.50103">
        <ele>139.7</ele>
        <time>2024-07-14T08:17:36Z</time>
      </trkpt>
      <trkpt lat="44.74758" lon="0.50108">
        <ele>139.5</ele>
        <time>2024-07-14T08:17:37Z</time>
      </trkpt>
      <trkpt lat="44.74763" lon="0.50113">
        <ele>139.3</ele>
        <time>2024-07-14T08:17:38Z</time>
      </trkpt>
      <trkpt lat="44.74767" lon="0.5012">
        <ele>139.1</ele>
        <time>2024-07-14T08:17:39Z</time>
      </trkpt>
      <trkpt lat="44.74771" lon="0.50128">
        <ele>138.7</ele>
        <time>2024-07-14T08:17:40Z</time>
      </trkpt>
      <trkpt lat="44.74775" lon="0.50135">
        <ele>138.4</ele>
        <time>2024-07-14T08:17:41Z</time>
      </trkpt>
      <trkpt lat="44.7478" lon="0.5014">
        <ele>138</ele>
        <time>2024-07-14T08:17:42Z</time>
      </trkpt>
      <trkpt lat="44.74788" lon="0.50145">
        <ele>137.4</ele>
        <time>2024-07-14T08:17:43Z</time>
      </trkpt>
      <trkpt lat="44.74796" lon="0.50147">
        <ele>136.9</ele>
        <time>2024-07-14T08:17:44Z</time>
      </trkpt>
      <trkpt lat="44.74814" lon="0.50149">
        <ele>136</ele>
        <time>2024-07-14T08:17:46Z</time>
      </trkpt>
      <trkpt lat="44.7483" lon="0.50151">
        <ele>135.5</ele>
        <time>2024-07-14T08:17:48Z</time>
      </trkpt>
      <trkpt lat="44.74844" lon="0.50154">
        <ele>135.2</ele>
        <time>2024-07-14T08:17:50Z</time>
      </trkpt>
      <trkpt lat="44.74858" lon="0.50156">
        <ele>134.9</ele>
        <time>2024-07-14T08:17:52Z</time>
      </trkpt>
      <trkpt lat="44.74871" lon="0.50158">
        <ele>134.7</ele>
        <time>2024-07-14T08:17:54Z</time>
      </trkpt>
      <trkpt lat="44.74884" lon="0.5016">
        <ele>134.5</ele>
        <time>2024-07-14T08:17:56Z</time>
      </trkpt>
      <trkpt lat="44.74897" lon="0.50161">
        <ele>134.2</ele>
        <time>2024-07-14T08:17:58Z</time>
      </trkpt>
      <trkpt lat="44.7491" lon="0.50161">
        <ele>133.9</ele>
        <time>2024-07-14T08:18:00Z</time>
      </trkpt>
      <trkpt lat="44.74923" lon="0.50162">
        <ele>133.7</ele>
        <time>2024-07-14T08:18:02Z</time>
      </trkpt>
      <trkpt lat="44.74936" lon="0.50163">
        <ele>133.6</ele>
        <time>2024-07-14T08:18:04Z</time>
      </trkpt>
      <trkpt lat="44.74948" lon="0.50166">
        <ele>133.5</ele>
        <time>2024-07-14T08:18:06Z</time>
      </trkpt>
      <trkpt lat="44.74954" lon="0.50168">
        <ele>133.5</ele>
        <time>2024-07-14T08:18:07Z</time>
      </trkpt>
      <trkpt lat="44.74959" lon="0.50169">
        <ele>133.5</ele>
        <time>2024-07-14T08:18:08Z</time>
      </trkpt>
      <trkpt lat="44.74965" lon="0.5017">
        <ele>133.5</ele>
        <time>2024-07-14T08:18:09Z</time>
      </trkpt>
      <trkpt lat="44.74971" lon="0.50169">
        <ele>133.5</ele>
        <time>2024-07-14T08:18:10Z</time>
      </trkpt>
      <trkpt lat="44.74981" lon="0.50169">
        <ele>133.5</ele>
        <time>2024-07-14T08:18:12Z</time>
      </trkpt>
      <trkpt lat="44.74991" lon="0.50169">
        <ele>133.5</ele>
        <time>2024-07-14T08:18:14Z</time>
      </trkpt>
      <trkpt lat="44.75" lon="0.50169">
        <ele>133.6</ele>
        <time>2024-07-14T08:18:16Z</time>
      </trkpt>
      <trkpt lat="44.75008" lon="0.50169">
        <ele>133.7</ele>
        <time>2024-07-14T08:18:18Z</time>
      </trkpt>
      <trkpt lat="44.75016" lon="0.50169">
        <ele>133.8</ele>
        <time>2024-07-14T08:18:20Z</time>
      </trkpt>
      <trkpt lat="44.75024" lon="0.50168">
        <ele>134</ele>
        <time>2024-07-14T08:18:22Z</time>
      </trkpt>
      <trkpt lat="44.75028" lon="0.50168">
        <ele>134.1</ele>
        <time>2024-07-14T08:18:23Z</time>
      </trkpt>
      <trkpt lat="44.75031" lon="0.50167">
        <ele>134.2</ele>
        <time>2024-07-14T08:18:24Z</time>
      </trkpt>
      <trkpt lat="44.75039" lon="0.50167">
        <ele>134.4</ele>
        <time>2024-07-14T08:18:26Z</time>
      </trkpt>
      <trkpt lat="44.75045" lon="0.50168">
        <ele>134.7</ele>
        <time>2024-07-14T08:18:28Z</time>
      </trkpt>
      <trkpt lat="44.75051" lon="0.50168">
        <ele>135</ele>
        <time>2024-07-14T08:18:30Z</time>
      </trkpt>
      <trkpt lat="44.75054" lon="0.50168">
        <ele>135.1</ele>
        <time>2024-07-14T08:18:31Z</time>
      </trkpt>
      <trkpt lat="44.75057" lon="0.50169">
        <ele>135.2</ele>
        <time>2024-07-14T08:18:32Z</time>
      </trkpt>
      <trkpt lat="44.75063" lon="0.50169">
        <ele>135.5</ele>
        <time>2024-07-14T08:18:34Z</time>
      </trkpt>
      <trkpt lat="44.75069" lon="0.50169">
        <ele>135.8</ele>
        <time>2024-07-14T08:18:36Z</time>
      </trkpt>
      <trkpt lat="44.75074" lon="0.50168">
        <ele>136</ele>
        <time>2024-07-14T08:18:38Z</time>
      </trkpt>
      <trkpt lat="44.75077" lon="0.50167">
        <ele>136.2</ele>
        <time>2024-07-14T08:18:39Z</time>
      </trkpt>
      <trkpt lat="44.7508" lon="0.50167">
        <ele>136.3</ele>
        <time>2024-07-14T08:18:40Z</time>
      </trkpt>
      <trkpt lat="44.75086" lon="0.50166">
        <ele>136.6</ele>
        <time>2024-07-14T08:18:42Z</time>
      </trkpt>
      <trkpt lat="44.75091" lon="0.50165">
        <ele>136.8</ele>
        <time>2024-07-14T08:18:44Z</time>
      </trkpt>
      <trkpt lat="44.75097" lon="0.50164">
        <ele>137</ele>
        <time>2024-07-14T08:18:46Z</time>
      </trkpt>
      <trkpt lat="44.75099" lon="0.50164">
        <ele>137.2</ele>
        <time>2024-07-14T08:18:47Z</time>
      </trkpt>
      <trkpt lat="44.75102" lon="0.50163">
        <ele>137.3</ele>
        <time>2024-07-14T08:18:48Z</time>
      </trkpt>
      <trkpt lat="44.75108" lon="0.50162">
        <ele>137.5</ele>
        <time>2024-07-14T08:18:50Z</time>
      </trkpt>
      <trkpt lat="44.75114" lon="0.50161">
        <ele>137.8</ele>
        <time>2024-07-14T08:18:52Z</time>
      </trkpt>
      <trkpt lat="44.75119" lon="0.50161">
        <ele>138</ele>
        <time>2024-07-14T08:18:54Z</time>
      </trkpt>
      <trkpt lat="44.75126" lon="0.50161">
        <ele>138.2</ele>
        <time>2024-07-14T08:18:56Z</time>
      </trkpt>
      <trkpt lat="44.75131" lon="0.50161">
        <ele>138.4</ele>
        <time>2024-07-14T08:18:58Z</time>
      </trkpt>
      <trkpt lat="44.75134" lon="0.50161">
        <ele>138.6</ele>
        <time>2024-07-14T08:18:59Z</time>
      </trkpt>
      <trkpt lat="44.75137" lon="0.50161">
        <ele>138.7</ele>
        <time>2024-07-14T08:19:00Z</time>
      </trkpt>
      <trkpt lat="44.75143" lon="0.50161">
        <ele>138.9</ele>
        <time>2024-07-14T08:19:02Z</time>
      </trkpt>
      <trkpt lat="44.75148" lon="0.5016">
        <ele>139.2</ele>
        <time>2024-07-14T08:19:04Z</time>
      </trkpt>
      <trkpt lat="44.75153" lon="0.50161">
        <ele>139.5</ele>
        <time>2024-07-14T08:19:06Z</time>
      </trkpt>
      <trkpt lat="44.75158" lon="0.50161">
        <ele>139.8</ele>
        <time>2024-07-14T08:19:08Z</time>
      </trkpt>
      <trkpt lat="44.75163" lon="0.50161">
        <ele>140.1</ele>
        <time>2024-07-14T08:19:10Z</time>
      </trkpt>
      <trkpt lat="44.75168" lon="0.50161">
        <ele>140.5</ele>
        <time>2024-07-14T08:19:12Z</time>
      </trkpt>
      <trkpt lat="44.75172" lon="0.50161">
        <ele>140.8</ele>
        <time>2024-07-14T08:19:14Z</time>
      </trkpt>
      <trkpt lat="44.75176" lon="0.50162">
        <ele>141.2</ele>
        <time>2024-07-14T08:19:16Z</time>
      </trkpt>
      <trkpt lat="44.7518" lon="0.50162">
        <ele>141.6</ele>
        <time>2024-07-14T08:19:18Z</time>
      </trkpt>
      <trkpt lat="44.75181" lon="0.50163">
        <ele>141.7</ele>
        <time>2024-07-14T08:19:19Z</time>
      </trkpt>
      <trkpt lat="44.75182" lon="0.50164">
        <ele>141.8</ele>
        <time>2024-07-14T08:19:20Z</time>
      </trkpt>
      <trkpt lat="44.75183" lon="0.50167">
        <ele>141.8</ele>
        <time>2024-07-14T08:19:21Z</time>
      </trkpt>
      <trkpt lat="44.75182" lon="0.50171">
        <ele>141.8</ele>
        <time>2024-07-14T08:19:22Z</time>
      </trkpt>
      <trkpt lat="44.75181" lon="0.50181">
        <ele>141.7</ele>
        <time>2024-07-14T08:19:24Z</time>
      </trkpt>
      <trkpt lat="44.75179" lon="0.50192">
        <ele>141.4</ele>
        <time>2024-07-14T08:19:26Z</time>
      </trkpt>
      <trkpt lat="44.75177" lon="0.50205">
        <ele>141</ele>
        <time>2024-07-14T08:19:28Z</time>
      </trkpt>
      <trkpt lat="44.75175" lon="0.50218">
        <ele>140.7</ele>
        <time>2024-07-14T08:19:30Z</time>
      </trkpt>
      <trkpt lat="44.75173" lon="0.50233">
        <ele>140.3</ele>
        <time>2024-07-14T08:19:32Z</time>
      </trkpt>
      <trkpt lat="44.75172" lon="0.5024">
        <ele>140.1</ele>
        <time>2024-07-14T08:19:33Z</time>
      </trkpt>
      <trkpt lat="44.75171" lon="0.50248">
        <ele>140</ele>
        <time>2024-07-14T08:19:34Z</time>
      </trkpt>
      <trkpt lat="44.75168" lon="0.50263">
        <ele>139.9</ele>
        <time>2024-07-14T08:19:36Z</time>
      </trkpt>
      <trkpt lat="44.75166" lon="0.50277">
        <ele>139.8</ele>
        <time>2024-07-14T08:19:38Z</time>
      </trkpt>
      <trkpt lat="44.75164" lon="0.50292">
        <ele>139.7</ele>
        <time>2024-07-14T08:19:40Z</time>
      </trkpt>
      <trkpt lat="44.75163" lon="0.50299">
        <ele>139.7</ele>
        <time>2024-07-14T08:19:41Z</time>
      </trkpt>
      <trkpt lat="44.75162" lon="0.50306">
        <ele>139.7</ele>
        <time>2024-07-14T08:19:42Z</time>
      </trkpt>
      <trkpt lat="44.75161" lon="0.50319">
        <ele>139.7</ele>
        <time>2024-07-14T08:19:44Z</time>
      </trkpt>
      <trkpt lat="44.75159" lon="0.50332">
        <ele>139.8</ele>
        <time>2024-07-14T08:19:46Z</time>
      </trkpt>
      <trkpt lat="44.75157" lon="0.50345">
        <ele>139.9</ele>
        <time>2024-07-14T08:19:48Z</time>
      </trkpt>
      <trkpt lat="44.75155" lon="0.50357">
        <ele>140.1</ele>
        <time>2024-07-14T08:19:50Z</time>
      </trkpt>
      <trkpt lat="44.75153" lon="0.50369">
        <ele>140.3</ele>
        <time>2024-07-14T08:19:52Z</time>
      </trkpt>
      <trkpt lat="44.75151" lon="0.50382">
        <ele>140.5</ele>
        <time>2024-07-14T08:19:54Z</time>
      </trkpt>
      <trkpt lat="44.7515" lon="0.50393">
        <ele>140.8</ele>
        <time>2024-07-14T08:19:56Z</time>
      </trkpt>
      <trkpt lat="44.75149" lon="0.50399">
        <ele>141</ele>
        <time>2024-07-14T08:19:57Z</time>
      </trkpt>
      <trkpt lat="44.75149" lon="0.50405">
        <ele>141.2</ele>
        <time>2024-07-14T08:19:58Z</time>
      </trkpt>
      <trkpt lat="44.75149" lon="0.50416">
        <ele>141.5</ele>
        <time>2024-07-14T08:20:00Z</time>
      </trkpt>
      <trkpt lat="44.75147" lon="0.50427">
        <ele>141.8</ele>
        <time>2024-07-14T08:20:02Z</time>
      </trkpt>
      <trkpt lat="44.75146" lon="0.50432">
        <ele>141.9</ele>
        <time>2024-07-14T08:20:03Z</time>
      </trkpt>
      <trkpt lat="44.75145" lon="0.50436">
        <ele>142.1</ele>
        <time>2024-07-14T08:20:04Z</time>
      </trkpt>
      <trkpt lat="44.75142" lon="0.50445">
        <ele>142.3</ele>
        <time>2024-07-14T08:20:06Z</time>
      </trkpt>
      <trkpt lat="44.7514" lon="0.50454">
        <ele>142.6</ele>
        <time>2024-07-14T08:20:08Z</time>
      </trkpt>
      <trkpt lat="44.75139" lon="0.50459">
        <ele>142.7</ele>
        <time>2024-07-14T08:20:09Z</time>
      </trkpt>
      <trkpt lat="44.75138" lon="0.50464">
        <ele>142.9</ele>
        <time>2024-07-14T08:20:10Z</time>
      </trkpt>
      <trkpt lat="44.75135" lon="0.50474">
        <ele>143.2</ele>
        <time>2024-07-14T08:20:12Z</time>
      </trkpt>
      <trkpt lat="44.75133" lon="0.50484">
        <ele>143.5</ele>
        <time>2024-07-14T08:20:14Z</time>
      </trkpt>
      <trkpt lat="44.75131" lon="0.50488">
        <ele>143.7</ele>
        <time>2024-07-14T08:20:15Z</time>
      </trkpt>
      <trkpt lat="44.7513" lon="0.50493">
        <ele>143.9</ele>
        <time>2024-07-14T08:20:16Z</time>
      </trkpt>
      <trkpt lat="44.75127" lon="0.50503">
        <ele>144.2</ele>
        <time>2024-07-14T08:20:18Z</time>
      </trkpt>
      <trkpt lat="44.75124" lon="0.50514">
        <ele>144.6</ele>
        <time>2024-07-14T08:20:20Z</time>
      </trkpt>
      <trkpt lat="44.75121" lon="0.50523">
        <ele>144.9</ele>
        <time>2024-07-14T08:20:22Z</time>
      </trkpt>
      <trkpt lat="44.75118" lon="0.50533">
        <ele>145.1</ele>
        <time>2024-07-14T08:20:24Z</time>
      </trkpt>
      <trkpt lat="44.75116" lon="0.50543">
        <ele>145.3</ele>
        <time>2024-07-14T08:20:26Z</time>
      </trkpt>
      <trkpt lat="44.75113" lon="0.50554">
        <ele>145.3</ele>
        <time>2024-07-14T08:20:28Z</time>
      </trkpt>
      <trkpt lat="44.75109" lon="0.50566">
        <ele>145.3</ele>
        <time>2024-07-14T08:20:30Z</time>
      </trkpt>
      <trkpt lat="44.75108" lon="0.50573">
        <ele>145.3</ele>
        <time>2024-07-14T08:20:31Z</time>
      </trkpt>
      <trkpt lat="44.75106" lon="0.5058">
        <ele>145.3</ele>
        <time>2024-07-14T08:20:32Z</time>
      </trkpt>
      <trkpt lat="44.75105" lon="0.50586">
        <ele>145.2</ele>
        <time>2024-07-14T08:20:33Z</time>
      </trkpt>
      <trkpt lat="44.75104" lon="0.50594">
        <ele>145.2</ele>
        <time>2024-07-14T08:20:34Z</time>
      </trkpt>
      <trkpt lat="44.75104" lon="0.50608">
        <ele>145.1</ele>
        <time>2024-07-14T08:20:36Z</time>
      </trkpt>
      <trkpt lat="44.75104" lon="0.50616">
        <ele>145</ele>
        <time>2024-07-14T08:20:37Z</time>
      </trkpt>
      <trkpt lat="44.75104" lon="0.50622">
        <ele>145</ele>
        <time>2024-07-14T08:20:38Z</time>
      </trkpt>
      <trkpt lat="44.75104" lon="0.50636">
        <ele>144.9</ele>
        <time>2024-07-14T08:20:40Z</time>
      </trkpt>
      <trkpt lat="44.75105" lon="0.50643">
        <ele>144.9</ele>
        <time>2024-07-14T08:20:41Z</time>
      </trkpt>
      <trkpt lat="44.75107" lon="0.50649">
        <ele>144.9</ele>
        <time>2024-07-14T08:20:42Z</time>
      </trkpt>
      <trkpt lat="44.75108" lon="0.50656">
        <ele>145</ele>
        <time>2024-07-14T08:20:43Z</time>
      </trkpt>
      <trkpt lat="44.75108" lon="0.50662">
        <ele>145</ele>
        <time>2024-07-14T08:20:44Z</time>
      </trkpt>
      <trkpt lat="44.75109" lon="0.50669">
        <ele>145.1</ele>
        <time>2024-07-14T08:20:45Z</time>
      </trkpt>
      <trkpt lat="44.75109" lon="0.50676">
        <ele>145.1</ele>
        <time>2024-07-14T08:20:46Z</time>
      </trkpt>
      <trkpt lat="44.75109" lon="0.50689">
        <ele>145.3</ele>
        <time>2024-07-14T08:20:48Z</time>
      </trkpt>
      <trkpt lat="44.75109" lon="0.50701">
        <ele>145.4</ele>
        <time>2024-07-14T08:20:50Z</time>
      </trkpt>
      <trkpt lat="44.75109" lon="0.50713">
        <ele>145.5</ele>
        <time>2024-07-14T08:20:52Z</time>
      </trkpt>
      <trkpt lat="44.7511" lon="0.50727">
        <ele>145.6</ele>
        <time>2024-07-14T08:20:54Z</time>
      </trkpt>
      <trkpt lat="44.7511" lon="0.50741">
        <ele>145.6</ele>
        <time>2024-07-14T08:20:56Z</time>
      </trkpt>
      <trkpt lat="44.75109" lon="0.50754">
        <ele>145.5</ele>
        <time>2024-07-14T08:20:58Z</time>
      </trkpt>
      <trkpt lat="44.75108" lon="0.50761">
        <ele>145.5</ele>
        <time>2024-07-14T08:20:59Z</time>
      </trkpt>
      <trkpt lat="44.75107" lon="0.50768">
        <ele>145.4</ele>
        <time>2024-07-14T08:21:00Z</time>
      </trkpt>
      <trkpt lat="44.75106" lon="0.50782">
        <ele>145.3</ele>
        <time>2024-07-14T08:21:02Z</time>
      </trkpt>
      <trkpt lat="44.75104" lon="0.50798">
        <ele>145.1</ele>
        <time>2024-07-14T08:21:04Z</time>
      </trkpt>
      <trkpt lat="44.75103" lon="0.50806">
        <ele>145</ele>
        <time>2024-07-14T08:21:05Z</time>
      </trkpt>
      <trkpt lat="44.75102" lon="0.50813">
        <ele>145</ele>
        <time>2024-07-14T08:21:06Z</time>
      </trkpt>
      <trkpt lat="44.75099" lon="0.50827">
        <ele>144.8</ele>
        <time>2024-07-14T08:21:08Z</time>
      </trkpt>
      <trkpt lat="44.75097" lon="0.50833">
        <ele>144.8</ele>
        <time>2024-07-14T08:21:09Z</time>
      </trkpt>
      <trkpt lat="44.75095" lon="0.5084">
        <ele>144.7</ele>
        <time>2024-07-14T08:21:10Z</time>
      </trkpt>
      <trkpt lat="44.75092" lon="0.50853">
        <ele>144.6</ele>
        <time>2024-07-14T08:21:12Z</time>
      </trkpt>
      <trkpt lat="44.7509" lon="0.5086">
        <ele>144.6</ele>
        <time>2024-07-14T08:21:13Z</time>
      </trkpt>
      <trkpt lat="44.75088" lon="0.50866">
        <ele>144.6</ele>
        <time>2024-07-14T08:21:14Z</time>
      </trkpt>
      <trkpt lat="44.75086" lon="0.50879">
        <ele>144.6</ele>
        <time>2024-07-14T08:21:16Z</time>
      </trkpt>
      <trkpt lat="44.75083" lon="0.50891">
        <ele>144.7</ele>
        <time>2024-07-14T08:21:18Z</time>
      </trkpt>
      <trkpt lat="44.7508" lon="0.50903">
        <ele>144.8</ele>
        <time>2024-07-14T08:21:20Z</time>
      </trkpt>
      <trkpt lat="44.75079" lon="0.50909">
        <ele>144.9</ele>
        <time>2024-07-14T08:21:21Z</time>
      </trkpt>
      <trkpt lat="44.75078" lon="0.50914">
        <ele>145</ele>
        <time>2024-07-14T08:21:22Z</time>
      </trkpt>
      <trkpt lat="44.75075" lon="0.50926">
        <ele>145.2</ele>
        <time>2024-07-14T08:21:24Z</time>
      </trkpt>
      <trkpt lat="44.75074" lon="0.50935">
        <ele>145.4</ele>
        <time>2024-07-14T08:21:26Z</time>
      </trkpt>
      <trkpt lat="44.75073" lon="0.50939">
        <ele>145.5</ele>
        <time>2024-07-14T08:21:27Z</time>
      </trkpt>
      <trkpt lat="44.75072" lon="0.50945">
        <ele>145.6</ele>
        <time>2024-07-14T08:21:28Z</time>
      </trkpt>
      <trkpt lat="44.75072" lon="0.50956">
        <ele>145.8</ele>
        <time>2024-07-14T08:21:30Z</time>
      </trkpt>
      <trkpt lat="44.75071" lon="0.50968">
        <ele>145.9</ele>
        <time>2024-07-14T08:21:32Z</time>
      </trkpt>
      <trkpt lat="44.7507" lon="0.50974">
        <ele>146</ele>
        <time>2024-07-14T08:21:33Z</time>
      </trkpt>
      <trkpt lat="44.75069" lon="0.5098">
        <ele>146.1</ele>
        <time>2024-07-14T08:21:34Z</time>
      </trkpt>
      <trkpt lat="44.75067" lon="0.50993">
        <ele>146.3</ele>
        <time>2024-07-14T08:21:36Z</time>
      </trkpt>
      <trkpt lat="44.75065" lon="0.51005">
        <ele>146.5</ele>
        <time>2024-07-14T08:21:38Z</time>
      </trkpt>
      <trkpt lat="44.75063" lon="0.51014">
        <ele>146.6</ele>
        <time>2024-07-14T08:21:40Z</time>
      </trkpt>
      <trkpt lat="44.75065" lon="0.5102">
        <ele>146.7</ele>
        <time>2024-07-14T08:21:42Z</time>
      </trkpt>
      <trkpt lat="44.75067" lon="0.51023">
        <ele>146.8</ele>
        <time>2024-07-14T08:21:43Z</time>
      </trkpt>
      <trkpt lat="44.75066" lon="0.51024">
        <ele>146.8</ele>
        <time>2024-07-14T08:21:44Z</time>
      </trkpt>
      <trkpt lat="44.75068" lon="0.51024">
        <ele>146.9</ele>
        <time>2024-07-14T08:21:46Z</time>
      </trkpt>
      <trkpt lat="44.75074" lon="0.51027">
        <ele>147.1</ele>
        <time>2024-07-14T08:21:48Z</time>
      </trkpt>
      <trkpt lat="44.75081" lon="0.5103">
        <ele>147.4</ele>
        <time>2024-07-14T08:21:50Z</time>
      </trkpt>
      <trkpt lat="44.75084" lon="0.51032">
        <ele>147.6</ele>
        <time>2024-07-14T08:21:51Z</time>
      </trkpt>
      <trkpt lat="44.75087" lon="0.51033">
        <ele>147.7</ele>
        <time>2024-07-14T08:21:52Z</time>
      </trkpt>
      <trkpt lat="44.75091" lon="0.51035">
        <ele>148</ele>
        <time>2024-07-14T08:21:54Z</time>
      </trkpt>
      <trkpt lat="44.75095" lon="0.51037">
        <ele>148.3</ele>
        <time>2024-07-14T08:21:56Z</time>
      </trkpt>
      <trkpt lat="44.75099" lon="0.51038">
        <ele>148.6</ele>
        <time>2024-07-14T08:21:58Z</time>
      </trkpt>
      <trkpt lat="44.75102" lon="0.5104">
        <ele>148.8</ele>
        <time>2024-07-14T08:22:00Z</time>
      </trkpt>
      <trkpt lat="44.75105" lon="0.51042">
        <ele>149.1</ele>
        <time>2024-07-14T08:22:02Z</time>
      </trkpt>
      <trkpt lat="44.75106" lon="0.51043">
        <ele>149.2</ele>
        <time>2024-07-14T08:22:03Z</time>
      </trkpt>
      <trkpt lat="44.75108" lon="0.51043">
        <ele>149.4</ele>
        <time>2024-07-14T08:22:04Z</time>
      </trkpt>
      <trkpt lat="44.7511" lon="0.51044">
        <ele>149.6</ele>
        <time>2024-07-14T08:22:06Z</time>
      </trkpt>
      <trkpt lat="44.75113" lon="0.51046">
        <ele>149.9</ele>
        <time>2024-07-14T08:22:08Z</time>
      </trkpt>
      <trkpt lat="44.75115" lon="0.51047">
        <ele>150.3</ele>
        <time>2024-07-14T08:22:10Z</time>
      </trkpt>
      <trkpt lat="44.75134" lon="0.51063">
        <ele>152.8</ele>
        <time>2024-07-14T08:22:22Z</time>
      </trkpt>
      <trkpt lat="44.75135" lon="0.51068">
        <ele>153.1</ele>
        <time>2024-07-14T08:22:24Z</time>
      </trkpt>
      <trkpt lat="44.75136" lon="0.51074">
        <ele>153.2</ele>
        <time>2024-07-14T08:22:26Z</time>
      </trkpt>
      <trkpt lat="44.75135" lon="0.51079">
        <ele>153.4</ele>
        <time>2024-07-14T08:22:28Z</time>
      </trkpt>
      <trkpt lat="44.75134" lon="0.51085">
        <ele>153.6</ele>
        <time>2024-07-14T08:22:30Z</time>
      </trkpt>
      <trkpt lat="44.75132" lon="0.51092">
        <ele>153.8</ele>
        <time>2024-07-14T08:22:32Z</time>
      </trkpt>
      <trkpt lat="44.7513" lon="0.51099">
        <ele>154</ele>
        <time>2024-07-14T08:22:34Z</time>
      </trkpt>
      <trkpt lat="44.75127" lon="0.51106">
        <ele>154.2</ele>
        <time>2024-07-14T08:22:36Z</time>
      </trkpt>
      <trkpt lat="44.75124" lon="0.51114">
        <ele>154.4</ele>
        <time>2024-07-14T08:22:38Z</time>
      </trkpt>
      <trkpt lat="44.75122" lon="0.51117">
        <ele>154.4</ele>
        <time>2024-07-14T08:22:39Z</time>
      </trkpt>
      <trkpt lat="44.75121" lon="0.51121">
        <ele>154.5</ele>
        <time>2024-07-14T08:22:40Z</time>
      </trkpt>
      <trkpt lat="44.75118" lon="0.51128">
        <ele>154.6</ele>
        <time>2024-07-14T08:22:42Z</time>
      </trkpt>
      <trkpt lat="44.75115" lon="0.51136">
        <ele>154.7</ele>
        <time>2024-07-14T08:22:44Z</time>
      </trkpt>
      <trkpt lat="44.75112" lon="0.51143">
        <ele>154.9</ele>
        <time>2024-07-14T08:22:46Z</time>
      </trkpt>
      <trkpt lat="44.75109" lon="0.51151">
        <ele>155</ele>
        <time>2024-07-14T08:22:48Z</time>
      </trkpt>
      <trkpt lat="44.75106" lon="0.51159">
        <ele>155.1</ele>
        <time>2024-07-14T08:22:50Z</time>
      </trkpt>
      <trkpt lat="44.75104" lon="0.51167">
        <ele>155.3</ele>
        <time>2024-07-14T08:22:52Z</time>
      </trkpt>
      <trkpt lat="44.75103" lon="0.51177">
        <ele>155.4</ele>
        <time>2024-07-14T08:22:54Z</time>
      </trkpt>
      <trkpt lat="44.75102" lon="0.51187">
        <ele>155.5</ele>
        <time>2024-07-14T08:22:56Z</time>
      </trkpt>
      <trkpt lat="44.75102" lon="0.51198">
        <ele>155.6</ele>
        <time>2024-07-14T08:22:58Z</time>
      </trkpt>
      <trkpt lat="44.75102" lon="0.5121">
        <ele>155.7</ele>
        <time>2024-07-14T08:23:00Z</time>
      </trkpt>
      <trkpt lat="44.75102" lon="0.51221">
        <ele>155.7</ele>
        <time>2024-07-14T08:23:02Z</time>
      </trkpt>
      <trkpt lat="44.75101" lon="0.51233">
        <ele>155.7</ele>
        <time>2024-07-14T08:23:04Z</time>
      </trkpt>
      <trkpt lat="44.751" lon="0.51245">
        <ele>155.6</ele>
        <time>2024-07-14T08:23:06Z</time>
      </trkpt>
      <trkpt lat="44.75098" lon="0.51256">
        <ele>155.5</ele>
        <time>2024-07-14T08:23:08Z</time>
      </trkpt>
      <trkpt lat="44.75097" lon="0.51262">
        <ele>155.5</ele>
        <time>2024-07-14T08:23:09Z</time>
      </trkpt>
      <trkpt lat="44.75096" lon="0.51267">
        <ele>155.5</ele>
        <time>2024-07-14T08:23:10Z</time>
      </trkpt>
      <trkpt lat="44.75095" lon="0.5128">
        <ele>155.5</ele>
        <time>2024-07-14T08:23:12Z</time>
      </trkpt>
      <trkpt lat="44.75094" lon="0.51285">
        <ele>155.5</ele>
        <time>2024-07-14T08:23:13Z</time>
      </trkpt>
      <trkpt lat="44.75094" lon="0.51291">
        <ele>155.6</ele>
        <time>2024-07-14T08:23:14Z</time>
      </trkpt>
      <trkpt lat="44.75094" lon="0.51296">
        <ele>155.6</ele>
        <time>2024-07-14T08:23:15Z</time>
      </trkpt>
      <trkpt lat="44.75094" lon="0.51302">
        <ele>155.7</ele>
        <time>2024-07-14T08:23:16Z</time>
      </trkpt>
      <trkpt lat="44.75096" lon="0.51307">
        <ele>155.8</ele>
        <time>2024-07-14T08:23:17Z</time>
      </trkpt>
      <trkpt lat="44.75099" lon="0.51311">
        <ele>155.9</ele>
        <time>2024-07-14T08:23:18Z</time>
      </trkpt>
      <trkpt lat="44.75105" lon="0.51316">
        <ele>155.9</ele>
        <time>2024-07-14T08:23:20Z</time>
      </trkpt>
      <trkpt lat="44.75112" lon="0.51322">
        <ele>156</ele>
        <time>2024-07-14T08:23:22Z</time>
      </trkpt>
      <trkpt lat="44.75118" lon="0.51328">
        <ele>156.1</ele>
        <time>2024-07-14T08:23:24Z</time>
      </trkpt>
      <trkpt lat="44.75124" lon="0.51333">
        <ele>156.2</ele>
        <time>2024-07-14T08:23:26Z</time>
      </trkpt>
      <trkpt lat="44.7513" lon="0.51339">
        <ele>156.4</ele>
        <time>2024-07-14T08:23:28Z</time>
      </trkpt>
      <trkpt lat="44.75135" lon="0.51344">
        <ele>156.6</ele>
        <time>2024-07-14T08:23:30Z</time>
      </trkpt>
      <trkpt lat="44.75141" lon="0.51348">
        <ele>156.8</ele>
        <time>2024-07-14T08:23:32Z</time>
      </trkpt>
      <trkpt lat="44.75146" lon="0.51351">
        <ele>157.1</ele>
        <time>2024-07-14T08:23:34Z</time>
      </trkpt>
      <trkpt lat="44.75152" lon="0.51356">
        <ele>157.3</ele>
        <time>2024-07-14T08:23:36Z</time>
      </trkpt>
      <trkpt lat="44.75154" lon="0.51358">
        <ele>157.5</ele>
        <time>2024-07-14T08:23:37Z</time>
      </trkpt>
      <trkpt lat="44.75157" lon="0.5136">
        <ele>157.6</ele>
        <time>2024-07-14T08:23:38Z</time>
      </trkpt>
      <trkpt lat="44.75163" lon="0.51363">
        <ele>158</ele>
        <time>2024-07-14T08:23:40Z</time>
      </trkpt>
      <trkpt lat="44.75168" lon="0.51365">
        <ele>158.4</ele>
        <time>2024-07-14T08:23:42Z</time>
      </trkpt>
      <trkpt lat="44.75172" lon="0.51369">
        <ele>158.7</ele>
        <time>2024-07-14T08:23:44Z</time>
      </trkpt>
      <trkpt lat="44.75177" lon="0.51371">
        <ele>159.1</ele>
        <time>2024-07-14T08:23:46Z</time>
      </trkpt>
      <trkpt lat="44.75182" lon="0.51374">
        <ele>159.5</ele>
        <time>2024-07-14T08:23:48Z</time>
      </trkpt>
      <trkpt lat="44.75188" lon="0.51376">
        <ele>160</ele>
        <time>2024-07-14T08:23:50Z</time>
      </trkpt>
      <trkpt lat="44.75193" lon="0.51378">
        <ele>160.4</ele>
        <time>2024-07-14T08:23:52Z</time>
      </trkpt>
      <trkpt lat="44.75195" lon="0.51378">
        <ele>160.6</ele>
        <time>2024-07-14T08:23:53Z</time>
      </trkpt>
      <trkpt lat="44.75198" lon="0.51379">
        <ele>160.8</ele>
        <time>2024-07-14T08:23:54Z</time>
      </trkpt>
      <trkpt lat="44.75203" lon="0.5138">
        <ele>161.2</ele>
        <time>2024-07-14T08:23:56Z</time>
      </trkpt>
      <trkpt lat="44.75208" lon="0.51381">
        <ele>161.6</ele>
        <time>2024-07-14T08:23:58Z</time>
      </trkpt>
      <trkpt lat="44.75213" lon="0.51382">
        <ele>161.9</ele>
        <time>2024-07-14T08:24:00Z</time>
      </trkpt>
      <trkpt lat="44.75219" lon="0.51383">
        <ele>162.3</ele>
        <time>2024-07-14T08:24:02Z</time>
      </trkpt>
      <trkpt lat="44.75224" lon="0.51384">
        <ele>162.5</ele>
        <time>2024-07-14T08:24:04Z</time>
      </trkpt>
      <trkpt lat="44.75229" lon="0.51385">
        <ele>162.8</ele>
        <time>2024-07-14T08:24:06Z</time>
      </trkpt>
      <trkpt lat="44.75235" lon="0.51386">
        <ele>163</ele>
        <time>2024-07-14T08:24:08Z</time>
      </trkpt>
      <trkpt lat="44.7524" lon="0.51386">
        <ele>163.2</ele>
        <time>2024-07-14T08:24:10Z</time>
      </trkpt>
      <trkpt lat="44.75243" lon="0.51387">
        <ele>163.2</ele>
        <time>2024-07-14T08:24:11Z</time>
      </trkpt>
      <trkpt lat="44.75246" lon="0.51388">
        <ele>163.2</ele>
        <time>2024-07-14T08:24:12Z</time>
      </trkpt>
      <trkpt lat="44.75252" lon="0.51389">
        <ele>163.2</ele>
        <time>2024-07-14T08:24:14Z</time>
      </trkpt>
      <trkpt lat="44.75259" lon="0.51388">
        <ele>163.1</ele>
        <time>2024-07-14T08:24:16Z</time>
      </trkpt>
      <trkpt lat="44.75262" lon="0.51388">
        <ele>163</ele>
        <time>2024-07-14T08:24:17Z</time>
      </trkpt>
      <trkpt lat="44.75266" lon="0.51388">
        <ele>162.9</ele>
        <time>2024-07-14T08:24:18Z</time>
      </trkpt>
      <trkpt lat="44.75275" lon="0.51389">
        <ele>162.6</ele>
        <time>2024-07-14T08:24:20Z</time>
      </trkpt>
      <trkpt lat="44.75284" lon="0.5139">
        <ele>162.2</ele>
        <time>2024-07-14T08:24:22Z</time>
      </trkpt>
      <trkpt lat="44.75294" lon="0.51391">
        <ele>161.7</ele>
        <time>2024-07-14T08:24:24Z</time>
      </trkpt>
      <trkpt lat="44.75303" lon="0.51392">
        <ele>161.1</ele>
        <time>2024-07-14T08:24:26Z</time>
      </trkpt>
      <trkpt lat="44.75313" lon="0.51392">
        <ele>160.5</ele>
        <time>2024-07-14T08:24:28Z</time>
      </trkpt>
      <trkpt lat="44.75324" lon="0.51393">
        <ele>159.8</ele>
        <time>2024-07-14T08:24:30Z</time>
      </trkpt>
      <trkpt lat="44.75335" lon="0.51394">
        <ele>159.2</ele>
        <time>2024-07-14T08:24:32Z</time>
      </trkpt>
      <trkpt lat="44.75345" lon="0.51395">
        <ele>158.6</ele>
        <time>2024-07-14T08:24:34Z</time>
      </trkpt>
      <trkpt lat="44.75355" lon="0.51396">
        <ele>158</ele>
        <time>2024-07-14T08:24:36Z</time>
      </trkpt>
      <trkpt lat="44.75366" lon="0.51397">
        <ele>157.4</ele>
        <time>2024-07-14T08:24:38Z</time>
      </trkpt>
      <trkpt lat="44.75377" lon="0.51398">
        <ele>156.7</ele>
        <time>2024-07-14T08:24:40Z</time>
      </trkpt>
      <trkpt lat="44.75388" lon="0.51399">
        <ele>155.7</ele>
        <time>2024-07-14T08:24:42Z</time>
      </trkpt>
      <trkpt lat="44.75401" lon="0.51399">
        <ele>154.5</ele>
        <time>2024-07-14T08:24:44Z</time>
      </trkpt>
      <trkpt lat="44.75408" lon="0.514">
        <ele>153.7</ele>
        <time>2024-07-14T08:24:45Z</time>
      </trkpt>
      <trkpt lat="44.75416" lon="0.51401">
        <ele>152.8</ele>
        <time>2024-07-14T08:24:46Z</time>
      </trkpt>
      <trkpt lat="44.75433" lon="0.51403">
        <ele>150.9</ele>
        <time>2024-07-14T08:24:48Z</time>
      </trkpt>
      <trkpt lat="44.75452" lon="0.51405">
        <ele>149.1</ele>
        <time>2024-07-14T08:24:50Z</time>
      </trkpt>
      <trkpt lat="44.75472" lon="0.51407">
        <ele>147.8</ele>
        <time>2024-07-14T08:24:52Z</time>
      </trkpt>
      <trkpt lat="44.75493" lon="0.51409">
        <ele>146.7</ele>
        <time>2024-07-14T08:24:54Z</time>
      </trkpt>
      <trkpt lat="44.7551" lon="0.51412">
        <ele>146.3</ele>
        <time>2024-07-14T08:24:56Z</time>
      </trkpt>
      <trkpt lat="44.75523" lon="0.51413">
        <ele>146.3</ele>
        <time>2024-07-14T08:24:58Z</time>
      </trkpt>
      <trkpt lat="44.75528" lon="0.51413">
        <ele>146.2</ele>
        <time>2024-07-14T08:24:59Z</time>
      </trkpt>
      <trkpt lat="44.75532" lon="0.51412">
        <ele>146.2</ele>
        <time>2024-07-14T08:25:00Z</time>
      </trkpt>
      <trkpt lat="44.75535" lon="0.51409">
        <ele>146.3</ele>
        <time>2024-07-14T08:25:01Z</time>
      </trkpt>
      <trkpt lat="44.75537" lon="0.51405">
        <ele>146.3</ele>
        <time>2024-07-14T08:25:02Z</time>
      </trkpt>
      <trkpt lat="44.75542" lon="0.51396">
        <ele>145.8</ele>
        <time>2024-07-14T08:25:04Z</time>
      </trkpt>
      <trkpt lat="44.7555" lon="0.51392">
        <ele>145</ele>
        <time>2024-07-14T08:25:06Z</time>
      </trkpt>
      <trkpt lat="44.75561" lon="0.51394">
        <ele>144.1</ele>
        <time>2024-07-14T08:25:08Z</time>
      </trkpt>
      <trkpt lat="44.75574" lon="0.51397">
        <ele>143.3</ele>
        <time>2024-07-14T08:25:10Z</time>
      </trkpt>
      <trkpt lat="44.75587" lon="0.51401">
        <ele>142.7</ele>
        <time>2024-07-14T08:25:12Z</time>
      </trkpt>
      <trkpt lat="44.756" lon="0.51404">
        <ele>142.3</ele>
        <time>2024-07-14T08:25:14Z</time>
      </trkpt>
      <trkpt lat="44.75611" lon="0.51406">
        <ele>141.9</ele>
        <time>2024-07-14T08:25:16Z</time>
      </trkpt>
      <trkpt lat="44.75617" lon="0.51408">
        <ele>141.8</ele>
        <time>2024-07-14T08:25:17Z</time>
      </trkpt>
      <trkpt lat="44.75623" lon="0.5141">
        <ele>141.6</ele>
        <time>2024-07-14T08:25:18Z</time>
      </trkpt>
      <trkpt lat="44.75629" lon="0.51411">
        <ele>141.5</ele>
        <time>2024-07-14T08:25:19Z</time>
      </trkpt>
      <trkpt lat="44.75634" lon="0.51413">
        <ele>141.4</ele>
        <time>2024-07-14T08:25:20Z</time>
      </trkpt>
      <trkpt lat="44.7564" lon="0.51414">
        <ele>141.3</ele>
        <time>2024-07-14T08:25:21Z</time>
      </trkpt>
      <trkpt lat="44.75646" lon="0.51416">
        <ele>141.2</ele>
        <time>2024-07-14T08:25:22Z</time>
      </trkpt>
      <trkpt lat="44.75651" lon="0.51417">
        <ele>141.2</ele>
        <time>2024-07-14T08:25:23Z</time>
      </trkpt>
      <trkpt lat="44.75657" lon="0.51419">
        <ele>141.1</ele>
        <time>2024-07-14T08:25:24Z</time>
      </trkpt>
      <trkpt lat="44.75662" lon="0.51421">
        <ele>141.1</ele>
        <time>2024-07-14T08:25:25Z</time>
      </trkpt>
      <trkpt lat="44.75668" lon="0.51423">
        <ele>141.1</ele>
        <time>2024-07-14T08:25:26Z</time>
      </trkpt>
      <trkpt lat="44.75674" lon="0.51423">
        <ele>141</ele>
        <time>2024-07-14T08:25:27Z</time>
      </trkpt>
      <trkpt lat="44.7568" lon="0.51421">
        <ele>141</ele>
        <time>2024-07-14T08:25:28Z</time>
      </trkpt>
      <trkpt lat="44.7569" lon="0.51411">
        <ele>141</ele>
        <time>2024-07-14T08:25:30Z</time>
      </trkpt>
      <trkpt lat="44.75694" lon="0.51404">
        <ele>140.9</ele>
        <time>2024-07-14T08:25:31Z</time>
      </trkpt>
      <trkpt lat="44.75696" lon="0.51396">
        <ele>140.9</ele>
        <time>2024-07-14T08:25:32Z</time>
      </trkpt>
      <trkpt lat="44.757" lon="0.51381">
        <ele>140.8</ele>
        <time>2024-07-14T08:25:34Z</time>
      </trkpt>
      <trkpt lat="44.75703" lon="0.51374">
        <ele>140.8</ele>
        <time>2024-07-14T08:25:35Z</time>
      </trkpt>
      <trkpt lat="44.75706" lon="0.51367">
        <ele>140.8</ele>
        <time>2024-07-14T08:25:36Z</time>
      </trkpt>
      <trkpt lat="44.75709" lon="0.51361">
        <ele>140.8</ele>
        <time>2024-07-14T08:25:37Z</time>
      </trkpt>
      <trkpt lat="44.75712" lon="0.51356">
        <ele>140.8</ele>
        <time>2024-07-14T08:25:38Z</time>
      </trkpt>
      <trkpt lat="44.75717" lon="0.51352">
        <ele>140.7</ele>
        <time>2024-07-14T08:25:39Z</time>
      </trkpt>
      <trkpt lat="44.75723" lon="0.51352">
        <ele>140.5</ele>
        <time>2024-07-14T08:25:40Z</time>
      </trkpt>
      <trkpt lat="44.75729" lon="0.51353">
        <ele>140.3</ele>
        <time>2024-07-14T08:25:41Z</time>
      </trkpt>
      <trkpt lat="44.75735" lon="0.51355">
        <ele>140.2</ele>
        <time>2024-07-14T08:25:42Z</time>
      </trkpt>
      <trkpt lat="44.75741" lon="0.51358">
        <ele>140.2</ele>
        <time>2024-07-14T08:25:43Z</time>
      </trkpt>
      <trkpt lat="44.75746" lon="0.51361">
        <ele>140.2</ele>
        <time>2024-07-14T08:25:44Z</time>
      </trkpt>
      <trkpt lat="44.75758" lon="0.51366">
        <ele>140.3</ele>
        <time>2024-07-14T08:25:46Z</time>
      </trkpt>
      <trkpt lat="44.75768" lon="0.51372">
        <ele>140.6</ele>
        <time>2024-07-14T08:25:48Z</time>
      </trkpt>
      <trkpt lat="44.75777" lon="0.51377">
        <ele>140.9</ele>
        <time>2024-07-14T08:25:50Z</time>
      </trkpt>
      <trkpt lat="44.75785" lon="0.51382">
        <ele>141.3</ele>
        <time>2024-07-14T08:25:52Z</time>
      </trkpt>
      <trkpt lat="44.75789" lon="0.51385">
        <ele>141.5</ele>
        <time>2024-07-14T08:25:53Z</time>
      </trkpt>
      <trkpt lat="44.75793" lon="0.51388">
        <ele>141.7</ele>
        <time>2024-07-14T08:25:54Z</time>
      </trkpt>
      <trkpt lat="44.75801" lon="0.51393">
        <ele>142.1</ele>
        <time>2024-07-14T08:25:56Z</time>
      </trkpt>
      <trkpt lat="44.75809" lon="0.51398">
        <ele>142.5</ele>
        <time>2024-07-14T08:25:58Z</time>
      </trkpt>
      <trkpt lat="44.75817" lon="0.51403">
        <ele>143</ele>
        <time>2024-07-14T08:26:00Z</time>
      </trkpt>
      <trkpt lat="44.75825" lon="0.51406">
        <ele>143.4</ele>
        <time>2024-07-14T08:26:02Z</time>
      </trkpt>
      <trkpt lat="44.75833" lon="0.51407">
        <ele>143.8</ele>
        <time>2024-07-14T08:26:04Z</time>
      </trkpt>
      <trkpt lat="44.75837" lon="0.51407">
        <ele>144</ele>
        <time>2024-07-14T08:26:05Z</time>
      </trkpt>
      <trkpt lat="44.75842" lon="0.51406">
        <ele>144.1</ele>
        <time>2024-07-14T08:26:06Z</time>
      </trkpt>
      <trkpt lat="44.75851" lon="0.51407">
        <ele>144.2</ele>
        <time>2024-07-14T08:26:08Z</time>
      </trkpt>
      <trkpt lat="44.7586" lon="0.5141">
        <ele>144.1</ele>
        <time>2024-07-14T08:26:10Z</time>
      </trkpt>
      <trkpt lat="44.7587" lon="0.51415">
        <ele>143.9</ele>
        <time>2024-07-14T08:26:12Z</time>
      </trkpt>
      <trkpt lat="44.75879" lon="0.5142">
        <ele>143.6</ele>
        <time>2024-07-14T08:26:14Z</time>
      </trkpt>
      <trkpt lat="44.75884" lon="0.51423">
        <ele>143.5</ele>
        <time>2024-07-14T08:26:15Z</time>
      </trkpt>
      <trkpt lat="44.7589" lon="0.51425">
        <ele>143.3</ele>
        <time>2024-07-14T08:26:16Z</time>
      </trkpt>
      <trkpt lat="44.759" lon="0.51432">
        <ele>142.9</ele>
        <time>2024-07-14T08:26:18Z</time>
      </trkpt>
      <trkpt lat="44.75911" lon="0.51438">
        <ele>142.5</ele>
        <time>2024-07-14T08:26:20Z</time>
      </trkpt>
      <trkpt lat="44.75923" lon="0.51444">
        <ele>142.1</ele>
        <time>2024-07-14T08:26:22Z</time>
      </trkpt>
      <trkpt lat="44.75934" lon="0.51451">
        <ele>141.8</ele>
        <time>2024-07-14T08:26:24Z</time>
      </trkpt>
      <trkpt lat="44.75945" lon="0.51456">
        <ele>141.5</ele>
        <time>2024-07-14T08:26:26Z</time>
      </trkpt>
      <trkpt lat="44.75956" lon="0.51464">
        <ele>141.3</ele>
        <time>2024-07-14T08:26:28Z</time>
      </trkpt>
      <trkpt lat="44.75967" lon="0.5147">
        <ele>141.4</ele>
        <time>2024-07-14T08:26:30Z</time>
      </trkpt>
      <trkpt lat="44.75972" lon="0.51473">
        <ele>141.4</ele>
        <time>2024-07-14T08:26:31Z</time>
      </trkpt>
      <trkpt lat="44.75977" lon="0.51476">
        <ele>141.4</ele>
        <time>2024-07-14T08:26:32Z</time>
      </trkpt>
      <trkpt lat="44.75987" lon="0.51483">
        <ele>141.4</ele>
        <time>2024-07-14T08:26:34Z</time>
      </trkpt>
      <trkpt lat="44.75996" lon="0.5149">
        <ele>141.5</ele>
        <time>2024-07-14T08:26:36Z</time>
      </trkpt>
      <trkpt lat="44.76001" lon="0.51493">
        <ele>141.5</ele>
        <time>2024-07-14T08:26:37Z</time>
      </trkpt>
      <trkpt lat="44.76005" lon="0.51495">
        <ele>141.6</ele>
        <time>2024-07-14T08:26:38Z</time>
      </trkpt>
      <trkpt lat="44.7601" lon="0.51495">
        <ele>141.7</ele>
        <time>2024-07-14T08:26:39Z</time>
      </trkpt>
      <trkpt lat="44.76015" lon="0.51497">
        <ele>141.8</ele>
        <time>2024-07-14T08:26:40Z</time>
      </trkpt>
      <trkpt lat="44.76019" lon="0.51497">
        <ele>141.9</ele>
        <time>2024-07-14T08:26:41Z</time>
      </trkpt>
      <trkpt lat="44.76024" lon="0.51497">
        <ele>142</ele>
        <time>2024-07-14T08:26:42Z</time>
      </trkpt>
      <trkpt lat="44.76028" lon="0.51499">
        <ele>142</ele>
        <time>2024-07-14T08:26:43Z</time>
      </trkpt>
      <trkpt lat="44.76032" lon="0.51502">
        <ele>142.1</ele>
        <time>2024-07-14T08:26:44Z</time>
      </trkpt>
      <trkpt lat="44.76034" lon="0.51507">
        <ele>142.1</ele>
        <time>2024-07-14T08:26:45Z</time>
      </trkpt>
      <trkpt lat="44.76034" lon="0.51513">
        <ele>142.1</ele>
        <time>2024-07-14T08:26:46Z</time>
      </trkpt>
      <trkpt lat="44.76033" lon="0.51519">
        <ele>142.1</ele>
        <time>2024-07-14T08:26:47Z</time>
      </trkpt>
      <trkpt lat="44.76032" lon="0.51524">
        <ele>142.2</ele>
        <time>2024-07-14T08:26:48Z</time>
      </trkpt>
      <trkpt lat="44.76028" lon="0.51535">
        <ele>142.2</ele>
        <time>2024-07-14T08:26:50Z</time>
      </trkpt>
      <trkpt lat="44.76025" lon="0.51541">
        <ele>142.2</ele>
        <time>2024-07-14T08:26:51Z</time>
      </trkpt>
      <trkpt lat="44.76023" lon="0.51547">
        <ele>142.1</ele>
        <time>2024-07-14T08:26:52Z</time>
      </trkpt>
      <trkpt lat="44.76018" lon="0.5156">
        <ele>142.1</ele>
        <time>2024-07-14T08:26:54Z</time>
      </trkpt>
      <trkpt lat="44.76014" lon="0.51573">
        <ele>142</ele>
        <time>2024-07-14T08:26:56Z</time>
      </trkpt>
      <trkpt lat="44.7601" lon="0.51587">
        <ele>141.8</ele>
        <time>2024-07-14T08:26:58Z</time>
      </trkpt>
      <trkpt lat="44.76007" lon="0.516">
        <ele>141.6</ele>
        <time>2024-07-14T08:27:00Z</time>
      </trkpt>
      <trkpt lat="44.76004" lon="0.51614">
        <ele>141.4</ele>
        <time>2024-07-14T08:27:02Z</time>
      </trkpt>
      <trkpt lat="44.76001" lon="0.51629">
        <ele>141.2</ele>
        <time>2024-07-14T08:27:04Z</time>
      </trkpt>
      <trkpt lat="44.75999" lon="0.51636">
        <ele>141.1</ele>
        <time>2024-07-14T08:27:05Z</time>
      </trkpt>
      <trkpt lat="44.75998" lon="0.51644">
        <ele>141</ele>
        <time>2024-07-14T08:27:06Z</time>
      </trkpt>
      <trkpt lat="44.75996" lon="0.51658">
        <ele>140.9</ele>
        <time>2024-07-14T08:27:08Z</time>
      </trkpt>
      <trkpt lat="44.75994" lon="0.51672">
        <ele>140.9</ele>
        <time>2024-07-14T08:27:10Z</time>
      </trkpt>
      <trkpt lat="44.75993" lon="0.51678">
        <ele>140.9</ele>
        <time>2024-07-14T08:27:11Z</time>
      </trkpt>
      <trkpt lat="44.75991" lon="0.51684">
        <ele>141</ele>
        <time>2024-07-14T08:27:12Z</time>
      </trkpt>
      <trkpt lat="44.75988" lon="0.5169">
        <ele>141.1</ele>
        <time>2024-07-14T08:27:13Z</time>
      </trkpt>
      <trkpt lat="44.75985" lon="0.51695">
        <ele>141.2</ele>
        <time>2024-07-14T08:27:14Z</time>
      </trkpt>
      <trkpt lat="44.75979" lon="0.51705">
        <ele>141.4</ele>
        <time>2024-07-14T08:27:16Z</time>
      </trkpt>
      <trkpt lat="44.75973" lon="0.51714">
        <ele>141.5</ele>
        <time>2024-07-14T08:27:18Z</time>
      </trkpt>
      <trkpt lat="44.7597" lon="0.51719">
        <ele>141.5</ele>
        <time>2024-07-14T08:27:19Z</time>
      </trkpt>
      <trkpt lat="44.75966" lon="0.51723">
        <ele>141.6</ele>
        <time>2024-07-14T08:27:20Z</time>
      </trkpt>
      <trkpt lat="44.75961" lon="0.51726">
        <ele>141.6</ele>
        <time>2024-07-14T08:27:21Z</time>
      </trkpt>
      <trkpt lat="44.75957" lon="0.51729">
        <ele>141.7</ele>
        <time>2024-07-14T08:27:22Z</time>
      </trkpt>
      <trkpt lat="44.75947" lon="0.51733">
        <ele>141.8</ele>
        <time>2024-07-14T08:27:24Z</time>
      </trkpt>
      <trkpt lat="44.75938" lon="0.51736">
        <ele>142</ele>
        <time>2024-07-14T08:27:26Z</time>
      </trkpt>
      <trkpt lat="44.75933" lon="0.51737">
        <ele>142</ele>
        <time>2024-07-14T08:27:27Z</time>
      </trkpt>
      <trkpt lat="44.75929" lon="0.51738">
        <ele>142.1</ele>
        <time>2024-07-14T08:27:28Z</time>
      </trkpt>
      <trkpt lat="44.75925" lon="0.51739">
        <ele>142</ele>
        <time>2024-07-14T08:27:29Z</time>
      </trkpt>
      <trkpt lat="44.75921" lon="0.51742">
        <ele>142</ele>
        <time>2024-07-14T08:27:30Z</time>
      </trkpt>
      <trkpt lat="44.7591" lon="0.51745">
        <ele>141.8</ele>
        <time>2024-07-14T08:27:32Z</time>
      </trkpt>
      <trkpt lat="44.75904" lon="0.51748">
        <ele>141.7</ele>
        <time>2024-07-14T08:27:33Z</time>
      </trkpt>
      <trkpt lat="44.75899" lon="0.51752">
        <ele>141.7</ele>
        <time>2024-07-14T08:27:34Z</time>
      </trkpt>
      <trkpt lat="44.75894" lon="0.51756">
        <ele>141.6</ele>
        <time>2024-07-14T08:27:35Z</time>
      </trkpt>
      <trkpt lat="44.7589" lon="0.51761">
        <ele>141.6</ele>
        <time>2024-07-14T08:27:36Z</time>
      </trkpt>
      <trkpt lat="44.75886" lon="0.51767">
        <ele>141.5</ele>
        <time>2024-07-14T08:27:37Z</time>
      </trkpt>
      <trkpt lat="44.75884" lon="0.51774">
        <ele>141.4</ele>
        <time>2024-07-14T08:27:38Z</time>
      </trkpt>
      <trkpt lat="44.75882" lon="0.51782">
        <ele>141.3</ele>
        <time>2024-07-14T08:27:39Z</time>
      </trkpt>
      <trkpt lat="44.7588" lon="0.5179">
        <ele>141.3</ele>
        <time>2024-07-14T08:27:40Z</time>
      </trkpt>
      <trkpt lat="44.7588" lon="0.51805">
        <ele>141.2</ele>
        <time>2024-07-14T08:27:42Z</time>
      </trkpt>
      <trkpt lat="44.75879" lon="0.5182">
        <ele>141.1</ele>
        <time>2024-07-14T08:27:44Z</time>
      </trkpt>
      <trkpt lat="44.75878" lon="0.51834">
        <ele>141</ele>
        <time>2024-07-14T08:27:46Z</time>
      </trkpt>
      <trkpt lat="44.75879" lon="0.51848">
        <ele>140.9</ele>
        <time>2024-07-14T08:27:48Z</time>
      </trkpt>
      <trkpt lat="44.75881" lon="0.5186">
        <ele>140.8</ele>
        <time>2024-07-14T08:27:50Z</time>
      </trkpt>
      <trkpt lat="44.75883" lon="0.51865">
        <ele>140.8</ele>
        <time>2024-07-14T08:27:51Z</time>
      </trkpt>
      <trkpt lat="44.75885" lon="0.51871">
        <ele>140.8</ele>
        <time>2024-07-14T08:27:52Z</time>
      </trkpt>
      <trkpt lat="44.75887" lon="0.51876">
        <ele>140.7</ele>
        <time>2024-07-14T08:27:53Z</time>
      </trkpt>
      <trkpt lat="44.75889" lon="0.51882">
        <ele>140.7</ele>
        <time>2024-07-14T08:27:54Z</time>
      </trkpt>
      <trkpt lat="44.75893" lon="0.51895">
        <ele>140.7</ele>
        <time>2024-07-14T08:27:56Z</time>
      </trkpt>
      <trkpt lat="44.75897" lon="0.51908">
        <ele>140.7</ele>
        <time>2024-07-14T08:27:58Z</time>
      </trkpt>
      <trkpt lat="44.75899" lon="0.5192">
        <ele>140.7</ele>
        <time>2024-07-14T08:28:00Z</time>
      </trkpt>
      <trkpt lat="44.75901" lon="0.51933">
        <ele>140.7</ele>
        <time>2024-07-14T08:28:02Z</time>
      </trkpt>
      <trkpt lat="44.75905" lon="0.51945">
        <ele>140.8</ele>
        <time>2024-07-14T08:28:04Z</time>
      </trkpt>
      <trkpt lat="44.75908" lon="0.51957">
        <ele>140.9</ele>
        <time>2024-07-14T08:28:06Z</time>
      </trkpt>
      <trkpt lat="44.7591" lon="0.51968">
        <ele>140.9</ele>
        <time>2024-07-14T08:28:08Z</time>
      </trkpt>
      <trkpt lat="44.75911" lon="0.51974">
        <ele>140.9</ele>
        <time>2024-07-14T08:28:09Z</time>
      </trkpt>
      <trkpt lat="44.75912" lon="0.5198">
        <ele>140.9</ele>
        <time>2024-07-14T08:28:10Z</time>
      </trkpt>
      <trkpt lat="44.75913" lon="0.51985">
        <ele>140.9</ele>
        <time>2024-07-14T08:28:11Z</time>
      </trkpt>
      <trkpt lat="44.75916" lon="0.51991">
        <ele>140.9</ele>
        <time>2024-07-14T08:28:12Z</time>
      </trkpt>
      <trkpt lat="44.75919" lon="0.52004">
        <ele>141</ele>
        <time>2024-07-14T08:28:14Z</time>
      </trkpt>
      <trkpt lat="44.75921" lon="0.52011">
        <ele>141.1</ele>
        <time>2024-07-14T08:28:15Z</time>
      </trkpt>
      <trkpt lat="44.75922" lon="0.52017">
        <ele>141.2</ele>
        <time>2024-07-14T08:28:16Z</time>
      </trkpt>
      <trkpt lat="44.75924" lon="0.52029">
        <ele>141.4</ele>
        <time>2024-07-14T08:28:18Z</time>
      </trkpt>
      <trkpt lat="44.75925" lon="0.52035">
        <ele>141.5</ele>
        <time>2024-07-14T08:28:19Z</time>
      </trkpt>
      <trkpt lat="44.75926" lon="0.52041">
        <ele>141.6</ele>
        <time>2024-07-14T08:28:20Z</time>
      </trkpt>
      <trkpt lat="44.75927" lon="0.52046">
        <ele>141.7</ele>
        <time>2024-07-14T08:28:21Z</time>
      </trkpt>
      <trkpt lat="44.75928" lon="0.52052">
        <ele>141.7</ele>
        <time>2024-07-14T08:28:22Z</time>
      </trkpt>
      <trkpt lat="44.75929" lon="0.52063">
        <ele>141.9</ele>
        <time>2024-07-14T08:28:24Z</time>
      </trkpt>
      <trkpt lat="44.7593" lon="0.52073">
        <ele>142</ele>
        <time>2024-07-14T08:28:26Z</time>
      </trkpt>
      <trkpt lat="44.75931" lon="0.52079">
        <ele>142.1</ele>
        <time>2024-07-14T08:28:27Z</time>
      </trkpt>
      <trkpt lat="44.75932" lon="0.52084">
        <ele>142.1</ele>
        <time>2024-07-14T08:28:28Z</time>
      </trkpt>
      <trkpt lat="44.75933" lon="0.52094">
        <ele>142.3</ele>
        <time>2024-07-14T08:28:30Z</time>
      </trkpt>
      <trkpt lat="44.75935" lon="0.52104">
        <ele>142.4</ele>
        <time>2024-07-14T08:28:32Z</time>
      </trkpt>
      <trkpt lat="44.75935" lon="0.5211">
        <ele>142.5</ele>
        <time>2024-07-14T08:28:33Z</time>
      </trkpt>
      <trkpt lat="44.75936" lon="0.52115">
        <ele>142.6</ele>
        <time>2024-07-14T08:28:34Z</time>
      </trkpt>
      <trkpt lat="44.75937" lon="0.52124">
        <ele>142.7</ele>
        <time>2024-07-14T08:28:36Z</time>
      </trkpt>
      <trkpt lat="44.75937" lon="0.52134">
        <ele>142.9</ele>
        <time>2024-07-14T08:28:38Z</time>
      </trkpt>
      <trkpt lat="44.75938" lon="0.52143">
        <ele>143.1</ele>
        <time>2024-07-14T08:28:40Z</time>
      </trkpt>
      <trkpt lat="44.75939" lon="0.52153">
        <ele>143.3</ele>
        <time>2024-07-14T08:28:42Z</time>
      </trkpt>
      <trkpt lat="44.75939" lon="0.52162">
        <ele>143.5</ele>
        <time>2024-07-14T08:28:44Z</time>
      </trkpt>
      <trkpt lat="44.75941" lon="0.5217">
        <ele>143.7</ele>
        <time>2024-07-14T08:28:46Z</time>
      </trkpt>
      <trkpt lat="44.75943" lon="0.52173">
        <ele>143.8</ele>
        <time>2024-07-14T08:28:47Z</time>
      </trkpt>
      <trkpt lat="44.75945" lon="0.52175">
        <ele>143.9</ele>
        <time>2024-07-14T08:28:48Z</time>
      </trkpt>
      <trkpt lat="44.75949" lon="0.52177">
        <ele>144.2</ele>
        <time>2024-07-14T08:28:50Z</time>
      </trkpt>
      <trkpt lat="44.75953" lon="0.5218">
        <ele>144.2</ele>
        <time>2024-07-14T08:28:52Z</time>
      </trkpt>
      <trkpt lat="44.75955" lon="0.52181">
        <ele>144.6</ele>
        <time>2024-07-14T08:28:53Z</time>
      </trkpt>
      <trkpt lat="44.75957" lon="0.52182">
        <ele>144.7</ele>
        <time>2024-07-14T08:28:54Z</time>
      </trkpt>
      <trkpt lat="44.75961" lon="0.52185">
        <ele>145.1</ele>
        <time>2024-07-14T08:28:56Z</time>
      </trkpt>
      <trkpt lat="44.75965" lon="0.52188">
        <ele>145.2</ele>
        <time>2024-07-14T08:28:58Z</time>
      </trkpt>
      <trkpt lat="44.75968" lon="0.5219">
        <ele>145.5</ele>
        <time>2024-07-14T08:28:59Z</time>
      </trkpt>
      <trkpt lat="44.75971" lon="0.52193">
        <ele>145.6</ele>
        <time>2024-07-14T08:29:00Z</time>
      </trkpt>
      <trkpt lat="44.75975" lon="0.52196">
        <ele>146.1</ele>
        <time>2024-07-14T08:29:02Z</time>
      </trkpt>
      <trkpt lat="44.75977" lon="0.52198">
        <ele>146.4</ele>
        <time>2024-07-14T08:29:03Z</time>
      </trkpt>
      <trkpt lat="44.75979" lon="0.522">
        <ele>146.6</ele>
        <time>2024-07-14T08:29:04Z</time>
      </trkpt>
      <trkpt lat="44.75983" lon="0.52205">
        <ele>147</ele>
        <time>2024-07-14T08:29:06Z</time>
      </trkpt>
      <trkpt lat="44.75987" lon="0.52209">
        <ele>147.6</ele>
        <time>2024-07-14T08:29:08Z</time>
      </trkpt>
      <trkpt lat="44.75992" lon="0.52214">
        <ele>148</ele>
        <time>2024-07-14T08:29:10Z</time>
      </trkpt>
      <trkpt lat="44.75997" lon="0.52218">
        <ele>148.7</ele>
        <time>2024-07-14T08:29:12Z</time>
      </trkpt>
      <trkpt lat="44.76003" lon="0.5222">
        <ele>149.4</ele>
        <time>2024-07-14T08:29:14Z</time>
      </trkpt>
      <trkpt lat="44.76008" lon="0.52221">
        <ele>149.8</ele>
        <time>2024-07-14T08:29:16Z</time>
      </trkpt>
      <trkpt lat="44.76015" lon="0.52222">
        <ele>150.1</ele>
        <time>2024-07-14T08:29:18Z</time>
      </trkpt>
      <trkpt lat="44.76021" lon="0.52223">
        <ele>150.3</ele>
        <time>2024-07-14T08:29:20Z</time>
      </trkpt>
      <trkpt lat="44.76027" lon="0.52225">
        <ele>150.8</ele>
        <time>2024-07-14T08:29:22Z</time>
      </trkpt>
      <trkpt lat="44.76032" lon="0.52229">
        <ele>151.2</ele>
        <time>2024-07-14T08:29:24Z</time>
      </trkpt>
      <trkpt lat="44.76036" lon="0.52233">
        <ele>151.5</ele>
        <time>2024-07-14T08:29:26Z</time>
      </trkpt>
      <trkpt lat="44.7604" lon="0.52237">
        <ele>151.8</ele>
        <time>2024-07-14T08:29:28Z</time>
      </trkpt>
      <trkpt lat="44.76044" lon="0.52241">
        <ele>152</ele>
        <time>2024-07-14T08:29:30Z</time>
      </trkpt>
      <trkpt lat="44.76046" lon="0.52243">
        <ele>152.1</ele>
        <time>2024-07-14T08:29:31Z</time>
      </trkpt>
      <trkpt lat="44.76049" lon="0.52244">
        <ele>152.2</ele>
        <time>2024-07-14T08:29:32Z</time>
      </trkpt>
      <trkpt lat="44.76054" lon="0.52246">
        <ele>152.4</ele>
        <time>2024-07-14T08:29:34Z</time>
      </trkpt>
      <trkpt lat="44.76057" lon="0.52244">
        <ele>152.3</ele>
        <time>2024-07-14T08:29:35Z</time>
      </trkpt>
      <trkpt lat="44.76058" lon="0.52241">
        <ele>152.2</ele>
        <time>2024-07-14T08:29:36Z</time>
      </trkpt>
      <trkpt lat="44.76061" lon="0.52236">
        <ele>152</ele>
        <time>2024-07-14T08:29:37Z</time>
      </trkpt>
      <trkpt lat="44.76066" lon="0.52231">
        <ele>151.7</ele>
        <time>2024-07-14T08:29:38Z</time>
      </trkpt>
      <trkpt lat="44.76072" lon="0.52231">
        <ele>151.5</ele>
        <time>2024-07-14T08:29:39Z</time>
      </trkpt>
      <trkpt lat="44.76078" lon="0.52232">
        <ele>151.2</ele>
        <time>2024-07-14T08:29:40Z</time>
      </trkpt>
      <trkpt lat="44.76084" lon="0.52236">
        <ele>151.3</ele>
        <time>2024-07-14T08:29:41Z</time>
      </trkpt>
      <trkpt lat="44.76089" lon="0.52242">
        <ele>151.3</ele>
        <time>2024-07-14T08:29:42Z</time>
      </trkpt>
      <trkpt lat="44.76097" lon="0.52254">
        <ele>150.7</ele>
        <time>2024-07-14T08:29:44Z</time>
      </trkpt>
      <trkpt lat="44.76106" lon="0.52263">
        <ele>150.1</ele>
        <time>2024-07-14T08:29:46Z</time>
      </trkpt>
      <trkpt lat="44.7611" lon="0.52266">
        <ele>149.8</ele>
        <time>2024-07-14T08:29:47Z</time>
      </trkpt>
      <trkpt lat="44.76115" lon="0.52269">
        <ele>149.4</ele>
        <time>2024-07-14T08:29:48Z</time>
      </trkpt>
      <trkpt lat="44.76123" lon="0.52272">
        <ele>149</ele>
        <time>2024-07-14T08:29:50Z</time>
      </trkpt>
      <trkpt lat="44.76125" lon="0.52273">
        <ele>148.8</ele>
        <time>2024-07-14T08:29:51Z</time>
      </trkpt>
      <trkpt lat="44.76127" lon="0.52273">
        <ele>148.8</ele>
        <time>2024-07-14T08:29:52Z</time>
      </trkpt>
      <trkpt lat="44.76135" lon="0.52277">
        <ele>148.1</ele>
        <time>2024-07-14T08:29:54Z</time>
      </trkpt>
      <trkpt lat="44.76144" lon="0.5228">
        <ele>147.4</ele>
        <time>2024-07-14T08:29:56Z</time>
      </trkpt>
      <trkpt lat="44.76148" lon="0.52283">
        <ele>147.1</ele>
        <time>2024-07-14T08:29:57Z</time>
      </trkpt>
      <trkpt lat="44.76152" lon="0.52286">
        <ele>146.8</ele>
        <time>2024-07-14T08:29:58Z</time>
      </trkpt>
      <trkpt lat="44.76159" lon="0.52291">
        <ele>146.5</ele>
        <time>2024-07-14T08:30:00Z</time>
      </trkpt>
      <trkpt lat="44.76165" lon="0.52296">
        <ele>146.4</ele>
        <time>2024-07-14T08:30:02Z</time>
      </trkpt>
      <trkpt lat="44.76171" lon="0.52299">
        <ele>146.5</ele>
        <time>2024-07-14T08:30:04Z</time>
      </trkpt>
      <trkpt lat="44.76177" lon="0.523">
        <ele>146.4</ele>
        <time>2024-07-14T08:30:06Z</time>
      </trkpt>
      <trkpt lat="44.76181" lon="0.52301">
        <ele>146.6</ele>
        <time>2024-07-14T08:30:08Z</time>
      </trkpt>
      <trkpt lat="44.76186" lon="0.52302">
        <ele>146.6</ele>
        <time>2024-07-14T08:30:10Z</time>
      </trkpt>
      <trkpt lat="44.76191" lon="0.52301">
        <ele>146.6</ele>
        <time>2024-07-14T08:30:12Z</time>
      </trkpt>
      <trkpt lat="44.76197" lon="0.52299">
        <ele>146.4</ele>
        <time>2024-07-14T08:30:14Z</time>
      </trkpt>
      <trkpt lat="44.76202" lon="0.52297">
        <ele>146.5</ele>
        <time>2024-07-14T08:30:16Z</time>
      </trkpt>
      <trkpt lat="44.76208" lon="0.52294">
        <ele>146.4</ele>
        <time>2024-07-14T08:30:18Z</time>
      </trkpt>
      <trkpt lat="44.76213" lon="0.52292">
        <ele>146.3</ele>
        <time>2024-07-14T08:30:20Z</time>
      </trkpt>
      <trkpt lat="44.76215" lon="0.52291">
        <ele>146.4</ele>
        <time>2024-07-14T08:30:21Z</time>
      </trkpt>
      <trkpt lat="44.76218" lon="0.52289">
        <ele>146.4</ele>
        <time>2024-07-14T08:30:22Z</time>
      </trkpt>
      <trkpt lat="44.76223" lon="0.52285">
        <ele>146.5</ele>
        <time>2024-07-14T08:30:24Z</time>
      </trkpt>
      <trkpt lat="44.76228" lon="0.52282">
        <ele>146.6</ele>
        <time>2024-07-14T08:30:26Z</time>
      </trkpt>
      <trkpt lat="44.76232" lon="0.52282">
        <ele>146.7</ele>
        <time>2024-07-14T08:30:28Z</time>
      </trkpt>
      <trkpt lat="44.76237" lon="0.52283">
        <ele>146.9</ele>
        <time>2024-07-14T08:30:30Z</time>
      </trkpt>
      <trkpt lat="44.76239" lon="0.52283">
        <ele>147</ele>
        <time>2024-07-14T08:30:31Z</time>
      </trkpt>
      <trkpt lat="44.76242" lon="0.52282">
        <ele>147.2</ele>
        <time>2024-07-14T08:30:32Z</time>
      </trkpt>
      <trkpt lat="44.76248" lon="0.5228">
        <ele>147.6</ele>
        <time>2024-07-14T08:30:34Z</time>
      </trkpt>
      <trkpt lat="44.7625" lon="0.52279">
        <ele>147.8</ele>
        <time>2024-07-14T08:30:35Z</time>
      </trkpt>
      <trkpt lat="44.76253" lon="0.52278">
        <ele>148</ele>
        <time>2024-07-14T08:30:36Z</time>
      </trkpt>
      <trkpt lat="44.76258" lon="0.52276">
        <ele>148.5</ele>
        <time>2024-07-14T08:30:38Z</time>
      </trkpt>
      <trkpt lat="44.76263" lon="0.52273">
        <ele>148.7</ele>
        <time>2024-07-14T08:30:40Z</time>
      </trkpt>
      <trkpt lat="44.76268" lon="0.52271">
        <ele>149.2</ele>
        <time>2024-07-14T08:30:42Z</time>
      </trkpt>
      <trkpt lat="44.7627" lon="0.52269">
        <ele>149.5</ele>
        <time>2024-07-14T08:30:44Z</time>
      </trkpt>
      <trkpt lat="44.76272" lon="0.52266">
        <ele>149.5</ele>
        <time>2024-07-14T08:30:45Z</time>
      </trkpt>
      <trkpt lat="44.76275" lon="0.52263">
        <ele>149.8</ele>
        <time>2024-07-14T08:30:46Z</time>
      </trkpt>
      <trkpt lat="44.76281" lon="0.52257">
        <ele>150.3</ele>
        <time>2024-07-14T08:30:48Z</time>
      </trkpt>
      <trkpt lat="44.76285" lon="0.52254">
        <ele>150.6</ele>
        <time>2024-07-14T08:30:49Z</time>
      </trkpt>
      <trkpt lat="44.76287" lon="0.52251">
        <ele>150.8</ele>
        <time>2024-07-14T08:30:50Z</time>
      </trkpt>
      <trkpt lat="44.76291" lon="0.52245">
        <ele>150.9</ele>
        <time>2024-07-14T08:30:52Z</time>
      </trkpt>
      <trkpt lat="44.76292" lon="0.52241">
        <ele>151.1</ele>
        <time>2024-07-14T08:30:53Z</time>
      </trkpt>
      <trkpt lat="44.76293" lon="0.52238">
        <ele>151</ele>
        <time>2024-07-14T08:30:54Z</time>
      </trkpt>
      <trkpt lat="44.76295" lon="0.5223">
        <ele>151</ele>
        <time>2024-07-14T08:30:56Z</time>
      </trkpt>
      <trkpt lat="44.76296" lon="0.52221">
        <ele>150.9</ele>
        <time>2024-07-14T08:30:58Z</time>
      </trkpt>
      <trkpt lat="44.76296" lon="0.52213">
        <ele>150.8</ele>
        <time>2024-07-14T08:31:00Z</time>
      </trkpt>
      <trkpt lat="44.76296" lon="0.52204">
        <ele>150.7</ele>
        <time>2024-07-14T08:31:02Z</time>
      </trkpt>
      <trkpt lat="44.76296" lon="0.52195">
        <ele>150.6</ele>
        <time>2024-07-14T08:31:04Z</time>
      </trkpt>
      <trkpt lat="44.76296" lon="0.52187">
        <ele>150.6</ele>
        <time>2024-07-14T08:31:06Z</time>
      </trkpt>
      <trkpt lat="44.76298" lon="0.52183">
        <ele>150.8</ele>
        <time>2024-07-14T08:31:07Z</time>
      </trkpt>
      <trkpt lat="44.763" lon="0.52179">
        <ele>150.8</ele>
        <time>2024-07-14T08:31:08Z</time>
      </trkpt>
      <trkpt lat="44.76304" lon="0.5217">
        <ele>151.2</ele>
        <time>2024-07-14T08:31:10Z</time>
      </trkpt>
      <trkpt lat="44.76308" lon="0.52163">
        <ele>151.3</ele>
        <time>2024-07-14T08:31:12Z</time>
      </trkpt>
      <trkpt lat="44.76311" lon="0.52159">
        <ele>151.4</ele>
        <time>2024-07-14T08:31:13Z</time>
      </trkpt>
      <trkpt lat="44.76313" lon="0.52155">
        <ele>151.4</ele>
        <time>2024-07-14T08:31:14Z</time>
      </trkpt>
      <trkpt lat="44.76317" lon="0.52147">
        <ele>151.4</ele>
        <time>2024-07-14T08:31:16Z</time>
      </trkpt>
      <trkpt lat="44.76322" lon="0.5214">
        <ele>151.3</ele>
        <time>2024-07-14T08:31:18Z</time>
      </trkpt>
      <trkpt lat="44.76326" lon="0.52132">
        <ele>151.4</ele>
        <time>2024-07-14T08:31:20Z</time>
      </trkpt>
      <trkpt lat="44.76328" lon="0.52125">
        <ele>151.3</ele>
        <time>2024-07-14T08:31:22Z</time>
      </trkpt>
      <trkpt lat="44.76329" lon="0.52121">
        <ele>151.6</ele>
        <time>2024-07-14T08:31:23Z</time>
      </trkpt>
      <trkpt lat="44.76329" lon="0.52117">
        <ele>151.5</ele>
        <time>2024-07-14T08:31:24Z</time>
      </trkpt>
      <trkpt lat="44.76328" lon="0.52108">
        <ele>151.2</ele>
        <time>2024-07-14T08:31:26Z</time>
      </trkpt>
      <trkpt lat="44.76326" lon="0.52103">
        <ele>151.1</ele>
        <time>2024-07-14T08:31:27Z</time>
      </trkpt>
      <trkpt lat="44.76324" lon="0.521">
        <ele>150.8</ele>
        <time>2024-07-14T08:31:28Z</time>
      </trkpt>
      <trkpt lat="44.7632" lon="0.52092">
        <ele>150.3</ele>
        <time>2024-07-14T08:31:30Z</time>
      </trkpt>
      <trkpt lat="44.76319" lon="0.52084">
        <ele>149.6</ele>
        <time>2024-07-14T08:31:32Z</time>
      </trkpt>
      <trkpt lat="44.76319" lon="0.5208">
        <ele>149.4</ele>
        <time>2024-07-14T08:31:33Z</time>
      </trkpt>
      <trkpt lat="44.76319" lon="0.52076">
        <ele>149.5</ele>
        <time>2024-07-14T08:31:34Z</time>
      </trkpt>
      <trkpt lat="44.76322" lon="0.52069">
        <ele>149.3</ele>
        <time>2024-07-14T08:31:36Z</time>
      </trkpt>
      <trkpt lat="44.76322" lon="0.52065">
        <ele>149.5</ele>
        <time>2024-07-14T08:31:38Z</time>
      </trkpt>
      <trkpt lat="44.76324" lon="0.52059">
        <ele>149.1</ele>
        <time>2024-07-14T08:31:40Z</time>
      </trkpt>
      <trkpt lat="44.76326" lon="0.52052">
        <ele>149.3</ele>
        <time>2024-07-14T08:31:42Z</time>
      </trkpt>
      <trkpt lat="44.76329" lon="0.52047">
        <ele>149.3</ele>
        <time>2024-07-14T08:31:44Z</time>
      </trkpt>
      <trkpt lat="44.76332" lon="0.52041">
        <ele>149.5</ele>
        <time>2024-07-14T08:31:46Z</time>
      </trkpt>
      <trkpt lat="44.76334" lon="0.52038">
        <ele>149.3</ele>
        <time>2024-07-14T08:31:47Z</time>
      </trkpt>
      <trkpt lat="44.76336" lon="0.52035">
        <ele>149.4</ele>
        <time>2024-07-14T08:31:48Z</time>
      </trkpt>
      <trkpt lat="44.7634" lon="0.52028">
        <ele>149.6</ele>
        <time>2024-07-14T08:31:50Z</time>
      </trkpt>
      <trkpt lat="44.76346" lon="0.52021">
        <ele>149.8</ele>
        <time>2024-07-14T08:31:52Z</time>
      </trkpt>
      <trkpt lat="44.76351" lon="0.52013">
        <ele>150.3</ele>
        <time>2024-07-14T08:31:54Z</time>
      </trkpt>
      <trkpt lat="44.76355" lon="0.52005">
        <ele>150</ele>
        <time>2024-07-14T08:31:56Z</time>
      </trkpt>
      <trkpt lat="44.76357" lon="0.52001">
        <ele>150.4</ele>
        <time>2024-07-14T08:31:57Z</time>
      </trkpt>
      <trkpt lat="44.7636" lon="0.51997">
        <ele>150.6</ele>
        <time>2024-07-14T08:31:58Z</time>
      </trkpt>
      <trkpt lat="44.76363" lon="0.51993">
        <ele>150.7</ele>
        <time>2024-07-14T08:31:59Z</time>
      </trkpt>
      <trkpt lat="44.76366" lon="0.51991">
        <ele>150.9</ele>
        <time>2024-07-14T08:32:00Z</time>
      </trkpt>
      <trkpt lat="44.76369" lon="0.5199">
        <ele>151.4</ele>
        <time>2024-07-14T08:32:01Z</time>
      </trkpt>
      <trkpt lat="44.76372" lon="0.51989">
        <ele>151.8</ele>
        <time>2024-07-14T08:32:02Z</time>
      </trkpt>
      <trkpt lat="44.76375" lon="0.51985">
        <ele>151.9</ele>
        <time>2024-07-14T08:32:04Z</time>
      </trkpt>
      <trkpt lat="44.76377" lon="0.51984">
        <ele>152.3</ele>
        <time>2024-07-14T08:32:05Z</time>
      </trkpt>
      <trkpt lat="44.76379" lon="0.51984">
        <ele>152.3</ele>
        <time>2024-07-14T08:32:06Z</time>
      </trkpt>
      <trkpt lat="44.7638" lon="0.51985">
        <ele>152.7</ele>
        <time>2024-07-14T08:32:07Z</time>
      </trkpt>
      <trkpt lat="44.76382" lon="0.51986">
        <ele>152.7</ele>
        <time>2024-07-14T08:32:08Z</time>
      </trkpt>
      <trkpt lat="44.76383" lon="0.51988">
        <ele>153</ele>
        <time>2024-07-14T08:32:09Z</time>
      </trkpt>
      <trkpt lat="44.76384" lon="0.5199">
        <ele>153.4</ele>
        <time>2024-07-14T08:32:10Z</time>
      </trkpt>
      <trkpt lat="44.76384" lon="0.51993">
        <ele>153.7</ele>
        <time>2024-07-14T08:32:12Z</time>
      </trkpt>
      <trkpt lat="44.76385" lon="0.51994">
        <ele>153.7</ele>
        <time>2024-07-14T08:32:13Z</time>
      </trkpt>
      <trkpt lat="44.76387" lon="0.51995">
        <ele>154.1</ele>
        <time>2024-07-14T08:32:14Z</time>
      </trkpt>
      <trkpt lat="44.76393" lon="0.51992">
        <ele>154.8</ele>
        <time>2024-07-14T08:32:16Z</time>
      </trkpt>
      <trkpt lat="44.76398" lon="0.51987">
        <ele>154.5</ele>
        <time>2024-07-14T08:32:18Z</time>
      </trkpt>
      <trkpt lat="44.76406" lon="0.5198">
        <ele>154</ele>
        <time>2024-07-14T08:32:20Z</time>
      </trkpt>
      <trkpt lat="44.76413" lon="0.51974">
        <ele>153.6</ele>
        <time>2024-07-14T08:32:22Z</time>
      </trkpt>
      <trkpt lat="44.76417" lon="0.5197">
        <ele>153.4</ele>
        <time>2024-07-14T08:32:23Z</time>
      </trkpt>
      <trkpt lat="44.7642" lon="0.51966">
        <ele>153.3</ele>
        <time>2024-07-14T08:32:24Z</time>
      </trkpt>
      <trkpt lat="44.76425" lon="0.51959">
        <ele>153.1</ele>
        <time>2024-07-14T08:32:26Z</time>
      </trkpt>
      <trkpt lat="44.76428" lon="0.51955">
        <ele>153</ele>
        <time>2024-07-14T08:32:27Z</time>
      </trkpt>
      <trkpt lat="44.76432" lon="0.51948">
        <ele>152.9</ele>
        <time>2024-07-14T08:32:28Z</time>
      </trkpt>
      <trkpt lat="44.76442" lon="0.51934">
        <ele>152.9</ele>
        <time>2024-07-14T08:32:30Z</time>
      </trkpt>
      <trkpt lat="44.76449" lon="0.51924">
        <ele>152.9</ele>
        <time>2024-07-14T08:32:32Z</time>
      </trkpt>
      <trkpt lat="44.76452" lon="0.51919">
        <ele>152.9</ele>
        <time>2024-07-14T08:32:33Z</time>
      </trkpt>
      <trkpt lat="44.76455" lon="0.51915">
        <ele>152.9</ele>
        <time>2024-07-14T08:32:34Z</time>
      </trkpt>
      <trkpt lat="44.76462" lon="0.51905">
        <ele>153</ele>
        <time>2024-07-14T08:32:36Z</time>
      </trkpt>
      <trkpt lat="44.76468" lon="0.51897">
        <ele>153</ele>
        <time>2024-07-14T08:32:38Z</time>
      </trkpt>
      <trkpt lat="44.76472" lon="0.51893">
        <ele>153</ele>
        <time>2024-07-14T08:32:39Z</time>
      </trkpt>
      <trkpt lat="44.76475" lon="0.51889">
        <ele>153.1</ele>
        <time>2024-07-14T08:32:40Z</time>
      </trkpt>
      <trkpt lat="44.76479" lon="0.51879">
        <ele>153.1</ele>
        <time>2024-07-14T08:32:42Z</time>
      </trkpt>
      <trkpt lat="44.76483" lon="0.5187">
        <ele>153</ele>
        <time>2024-07-14T08:32:44Z</time>
      </trkpt>
      <trkpt lat="44.76487" lon="0.51862">
        <ele>152.9</ele>
        <time>2024-07-14T08:32:46Z</time>
      </trkpt>
      <trkpt lat="44.76491" lon="0.51852">
        <ele>152.6</ele>
        <time>2024-07-14T08:32:48Z</time>
      </trkpt>
      <trkpt lat="44.76495" lon="0.51842">
        <ele>152.2</ele>
        <time>2024-07-14T08:32:50Z</time>
      </trkpt>
      <trkpt lat="44.76499" lon="0.5183">
        <ele>151.5</ele>
        <time>2024-07-14T08:32:52Z</time>
      </trkpt>
      <trkpt lat="44.76503" lon="0.51816">
        <ele>150.7</ele>
        <time>2024-07-14T08:32:54Z</time>
      </trkpt>
      <trkpt lat="44.76508" lon="0.51801">
        <ele>149.7</ele>
        <time>2024-07-14T08:32:56Z</time>
      </trkpt>
      <trkpt lat="44.76513" lon="0.51784">
        <ele>148.3</ele>
        <time>2024-07-14T08:32:58Z</time>
      </trkpt>
      <trkpt lat="44.76517" lon="0.51774">
        <ele>147.5</ele>
        <time>2024-07-14T08:32:59Z</time>
      </trkpt>
      <trkpt lat="44.76521" lon="0.51765">
        <ele>146.7</ele>
        <time>2024-07-14T08:33:00Z</time>
      </trkpt>
      <trkpt lat="44.76527" lon="0.51756">
        <ele>145.9</ele>
        <time>2024-07-14T08:33:01Z</time>
      </trkpt>
      <trkpt lat="44.76533" lon="0.51748">
        <ele>145.1</ele>
        <time>2024-07-14T08:33:02Z</time>
      </trkpt>
      <trkpt lat="44.76548" lon="0.51733">
        <ele>143.5</ele>
        <time>2024-07-14T08:33:04Z</time>
      </trkpt>
      <trkpt lat="44.76563" lon="0.51718">
        <ele>142.2</ele>
        <time>2024-07-14T08:33:06Z</time>
      </trkpt>
      <trkpt lat="44.76575" lon="0.51704">
        <ele>141.3</ele>
        <time>2024-07-14T08:33:08Z</time>
      </trkpt>
      <trkpt lat="44.76577" lon="0.51688">
        <ele>140.9</ele>
        <time>2024-07-14T08:33:10Z</time>
      </trkpt>
      <trkpt lat="44.76572" lon="0.51674">
        <ele>140.7</ele>
        <time>2024-07-14T08:33:12Z</time>
      </trkpt>
      <trkpt lat="44.76567" lon="0.51668">
        <ele>140.7</ele>
        <time>2024-07-14T08:33:13Z</time>
      </trkpt>
      <trkpt lat="44.76563" lon="0.51662">
        <ele>140.6</ele>
        <time>2024-07-14T08:33:14Z</time>
      </trkpt>
      <trkpt lat="44.76555" lon="0.5165">
        <ele>140.5</ele>
        <time>2024-07-14T08:33:16Z</time>
      </trkpt>
      <trkpt lat="44.76548" lon="0.51638">
        <ele>140.3</ele>
        <time>2024-07-14T08:33:18Z</time>
      </trkpt>
      <trkpt lat="44.7654" lon="0.51625">
        <ele>140</ele>
        <time>2024-07-14T08:33:20Z</time>
      </trkpt>
      <trkpt lat="44.76533" lon="0.51615">
        <ele>139.8</ele>
        <time>2024-07-14T08:33:22Z</time>
      </trkpt>
      <trkpt lat="44.76532" lon="0.51611">
        <ele>139.7</ele>
        <time>2024-07-14T08:33:23Z</time>
      </trkpt>
      <trkpt lat="44.76533" lon="0.51606">
        <ele>139.2</ele>
        <time>2024-07-14T08:33:24Z</time>
      </trkpt>
      <trkpt lat="44.7654" lon="0.51599">
        <ele>138.5</ele>
        <time>2024-07-14T08:33:26Z</time>
      </trkpt>
      <trkpt lat="44.76548" lon="0.51594">
        <ele>137.5</ele>
        <time>2024-07-14T08:33:28Z</time>
      </trkpt>
      <trkpt lat="44.76558" lon="0.51586">
        <ele>136.3</ele>
        <time>2024-07-14T08:33:30Z</time>
      </trkpt>
      <trkpt lat="44.76571" lon="0.51577">
        <ele>135</ele>
        <time>2024-07-14T08:33:32Z</time>
      </trkpt>
      <trkpt lat="44.76585" lon="0.51566">
        <ele>133.8</ele>
        <time>2024-07-14T08:33:34Z</time>
      </trkpt>
      <trkpt lat="44.76599" lon="0.51555">
        <ele>133.2</ele>
        <time>2024-07-14T08:33:36Z</time>
      </trkpt>
      <trkpt lat="44.76611" lon="0.51546">
        <ele>132.8</ele>
        <time>2024-07-14T08:33:38Z</time>
      </trkpt>
      <trkpt lat="44.76616" lon="0.51542">
        <ele>132.7</ele>
        <time>2024-07-14T08:33:39Z</time>
      </trkpt>
      <trkpt lat="44.76621" lon="0.51538">
        <ele>132.6</ele>
        <time>2024-07-14T08:33:40Z</time>
      </trkpt>
      <trkpt lat="44.76631" lon="0.5153">
        <ele>132.3</ele>
        <time>2024-07-14T08:33:42Z</time>
      </trkpt>
      <trkpt lat="44.7664" lon="0.51522">
        <ele>132</ele>
        <time>2024-07-14T08:33:44Z</time>
      </trkpt>
      <trkpt lat="44.76645" lon="0.51518">
        <ele>131.7</ele>
        <time>2024-07-14T08:33:45Z</time>
      </trkpt>
      <trkpt lat="44.7665" lon="0.51514">
        <ele>131.4</ele>
        <time>2024-07-14T08:33:46Z</time>
      </trkpt>
      <trkpt lat="44.76659" lon="0.51506">
        <ele>130.7</ele>
        <time>2024-07-14T08:33:48Z</time>
      </trkpt>
      <trkpt lat="44.76669" lon="0.51497">
        <ele>129.6</ele>
        <time>2024-07-14T08:33:50Z</time>
      </trkpt>
      <trkpt lat="44.76674" lon="0.51493">
        <ele>129</ele>
        <time>2024-07-14T08:33:51Z</time>
      </trkpt>
      <trkpt lat="44.76679" lon="0.51488">
        <ele>128.3</ele>
        <time>2024-07-14T08:33:52Z</time>
      </trkpt>
      <trkpt lat="44.76689" lon="0.51477">
        <ele>126.7</ele>
        <time>2024-07-14T08:33:54Z</time>
      </trkpt>
      <trkpt lat="44.76694" lon="0.51469">
        <ele>125.6</ele>
        <time>2024-07-14T08:33:55Z</time>
      </trkpt>
      <trkpt lat="44.76698" lon="0.51461">
        <ele>124.6</ele>
        <time>2024-07-14T08:33:56Z</time>
      </trkpt>
      <trkpt lat="44.76701" lon="0.51451">
        <ele>123.6</ele>
        <time>2024-07-14T08:33:57Z</time>
      </trkpt>
      <trkpt lat="44.76704" lon="0.51442">
        <ele>122.8</ele>
        <time>2024-07-14T08:33:58Z</time>
      </trkpt>
      <trkpt lat="44.76707" lon="0.51434">
        <ele>122.2</ele>
        <time>2024-07-14T08:33:59Z</time>
      </trkpt>
      <trkpt lat="44.76711" lon="0.51427">
        <ele>121.6</ele>
        <time>2024-07-14T08:34:00Z</time>
      </trkpt>
      <trkpt lat="44.76718" lon="0.51422">
        <ele>121.1</ele>
        <time>2024-07-14T08:34:01Z</time>
      </trkpt>
      <trkpt lat="44.76724" lon="0.5142">
        <ele>120.7</ele>
        <time>2024-07-14T08:34:02Z</time>
      </trkpt>
      <trkpt lat="44.76731" lon="0.51419">
        <ele>120.3</ele>
        <time>2024-07-14T08:34:03Z</time>
      </trkpt>
      <trkpt lat="44.76738" lon="0.51418">
        <ele>120</ele>
        <time>2024-07-14T08:34:04Z</time>
      </trkpt>
      <trkpt lat="44.76744" lon="0.51415">
        <ele>119.8</ele>
        <time>2024-07-14T08:34:05Z</time>
      </trkpt>
      <trkpt lat="44.76748" lon="0.5141">
        <ele>119.6</ele>
        <time>2024-07-14T08:34:06Z</time>
      </trkpt>
      <trkpt lat="44.76751" lon="0.51404">
        <ele>119.5</ele>
        <time>2024-07-14T08:34:07Z</time>
      </trkpt>
      <trkpt lat="44.76753" lon="0.51397">
        <ele>119.3</ele>
        <time>2024-07-14T08:34:08Z</time>
      </trkpt>
      <trkpt lat="44.76755" lon="0.51382">
        <ele>119</ele>
        <time>2024-07-14T08:34:10Z</time>
      </trkpt>
      <trkpt lat="44.76756" lon="0.51375">
        <ele>118.9</ele>
        <time>2024-07-14T08:34:11Z</time>
      </trkpt>
      <trkpt lat="44.76757" lon="0.51367">
        <ele>118.8</ele>
        <time>2024-07-14T08:34:12Z</time>
      </trkpt>
      <trkpt lat="44.76759" lon="0.5136">
        <ele>118.7</ele>
        <time>2024-07-14T08:34:13Z</time>
      </trkpt>
      <trkpt lat="44.76762" lon="0.51354">
        <ele>118.7</ele>
        <time>2024-07-14T08:34:14Z</time>
      </trkpt>
      <trkpt lat="44.76765" lon="0.51349">
        <ele>118.7</ele>
        <time>2024-07-14T08:34:15Z</time>
      </trkpt>
      <trkpt lat="44.76768" lon="0.51344">
        <ele>118.6</ele>
        <time>2024-07-14T08:34:16Z</time>
      </trkpt>
      <trkpt lat="44.76776" lon="0.51336">
        <ele>118.7</ele>
        <time>2024-07-14T08:34:18Z</time>
      </trkpt>
      <trkpt lat="44.76783" lon="0.51329">
        <ele>118.7</ele>
        <time>2024-07-14T08:34:20Z</time>
      </trkpt>
      <trkpt lat="44.76791" lon="0.51323">
        <ele>118.8</ele>
        <time>2024-07-14T08:34:22Z</time>
      </trkpt>
      <trkpt lat="44.76794" lon="0.5132">
        <ele>118.8</ele>
        <time>2024-07-14T08:34:23Z</time>
      </trkpt>
      <trkpt lat="44.76797" lon="0.51319">
        <ele>118.8</ele>
        <time>2024-07-14T08:34:24Z</time>
      </trkpt>
      <trkpt lat="44.76802" lon="0.51316">
        <ele>118.9</ele>
        <time>2024-07-14T08:34:26Z</time>
      </trkpt>
      <trkpt lat="44.76808" lon="0.51316">
        <ele>118.9</ele>
        <time>2024-07-14T08:34:28Z</time>
      </trkpt>
      <trkpt lat="44.76814" lon="0.51314">
        <ele>118.9</ele>
        <time>2024-07-14T08:34:30Z</time>
      </trkpt>
      <trkpt lat="44.76819" lon="0.51309">
        <ele>119</ele>
        <time>2024-07-14T08:34:32Z</time>
      </trkpt>
      <trkpt lat="44.76824" lon="0.51303">
        <ele>119</ele>
        <time>2024-07-14T08:34:34Z</time>
      </trkpt>
      <trkpt lat="44.76826" lon="0.513">
        <ele>119.1</ele>
        <time>2024-07-14T08:34:35Z</time>
      </trkpt>
      <trkpt lat="44.76829" lon="0.51297">
        <ele>119.2</ele>
        <time>2024-07-14T08:34:36Z</time>
      </trkpt>
      <trkpt lat="44.76833" lon="0.51292">
        <ele>119.3</ele>
        <time>2024-07-14T08:34:38Z</time>
      </trkpt>
      <trkpt lat="44.76836" lon="0.5129">
        <ele>119.4</ele>
        <time>2024-07-14T08:34:39Z</time>
      </trkpt>
      <trkpt lat="44.76838" lon="0.51287">
        <ele>119.5</ele>
        <time>2024-07-14T08:34:40Z</time>
      </trkpt>
      <trkpt lat="44.76842" lon="0.51283">
        <ele>119.6</ele>
        <time>2024-07-14T08:34:42Z</time>
      </trkpt>
      <trkpt lat="44.76846" lon="0.51276">
        <ele>119.8</ele>
        <time>2024-07-14T08:34:44Z</time>
      </trkpt>
      <trkpt lat="44.76848" lon="0.51273">
        <ele>119.9</ele>
        <time>2024-07-14T08:34:45Z</time>
      </trkpt>
      <trkpt lat="44.7685" lon="0.5127">
        <ele>120</ele>
        <time>2024-07-14T08:34:46Z</time>
      </trkpt>
      <trkpt lat="44.76853" lon="0.51268">
        <ele>120.1</ele>
        <time>2024-07-14T08:34:47Z</time>
      </trkpt>
      <trkpt lat="44.76855" lon="0.51265">
        <ele>120.2</ele>
        <time>2024-07-14T08:34:48Z</time>
      </trkpt>
      <trkpt lat="44.76859" lon="0.51259">
        <ele>120.4</ele>
        <time>2024-07-14T08:34:50Z</time>
      </trkpt>
      <trkpt lat="44.76863" lon="0.51253">
        <ele>120.6</ele>
        <time>2024-07-14T08:34:52Z</time>
      </trkpt>
      <trkpt lat="44.76868" lon="0.51248">
        <ele>120.7</ele>
        <time>2024-07-14T08:34:54Z</time>
      </trkpt>
      <trkpt lat="44.76872" lon="0.51243">
        <ele>120.8</ele>
        <time>2024-07-14T08:34:56Z</time>
      </trkpt>
      <trkpt lat="44.76877" lon="0.51237">
        <ele>120.9</ele>
        <time>2024-07-14T08:34:58Z</time>
      </trkpt>
      <trkpt lat="44.7688" lon="0.5123">
        <ele>121</ele>
        <time>2024-07-14T08:35:00Z</time>
      </trkpt>
      <trkpt lat="44.76885" lon="0.51225">
        <ele>121.2</ele>
        <time>2024-07-14T08:35:02Z</time>
      </trkpt>
      <trkpt lat="44.76889" lon="0.5122">
        <ele>121.4</ele>
        <time>2024-07-14T08:35:04Z</time>
      </trkpt>
      <trkpt lat="44.76894" lon="0.51215">
        <ele>121.6</ele>
        <time>2024-07-14T08:35:06Z</time>
      </trkpt>
      <trkpt lat="44.76899" lon="0.5121">
        <ele>121.7</ele>
        <time>2024-07-14T08:35:08Z</time>
      </trkpt>
      <trkpt lat="44.76903" lon="0.51206">
        <ele>121.9</ele>
        <time>2024-07-14T08:35:10Z</time>
      </trkpt>
      <trkpt lat="44.76908" lon="0.51202">
        <ele>122</ele>
        <time>2024-07-14T08:35:12Z</time>
      </trkpt>
      <trkpt lat="44.7691" lon="0.51199">
        <ele>122</ele>
        <time>2024-07-14T08:35:13Z</time>
      </trkpt>
      <trkpt lat="44.76913" lon="0.51197">
        <ele>122</ele>
        <time>2024-07-14T08:35:14Z</time>
      </trkpt>
      <trkpt lat="44.76917" lon="0.51193">
        <ele>122.1</ele>
        <time>2024-07-14T08:35:16Z</time>
      </trkpt>
      <trkpt lat="44.76922" lon="0.51187">
        <ele>122.1</ele>
        <time>2024-07-14T08:35:18Z</time>
      </trkpt>
      <trkpt lat="44.76927" lon="0.51181">
        <ele>122.1</ele>
        <time>2024-07-14T08:35:20Z</time>
      </trkpt>
      <trkpt lat="44.76932" lon="0.51177">
        <ele>122.1</ele>
        <time>2024-07-14T08:35:22Z</time>
      </trkpt>
      <trkpt lat="44.76938" lon="0.51171">
        <ele>122</ele>
        <time>2024-07-14T08:35:24Z</time>
      </trkpt>
      <trkpt lat="44.76944" lon="0.51165">
        <ele>121.9</ele>
        <time>2024-07-14T08:35:26Z</time>
      </trkpt>
      <trkpt lat="44.76947" lon="0.51162">
        <ele>121.7</ele>
        <time>2024-07-14T08:35:27Z</time>
      </trkpt>
      <trkpt lat="44.7695" lon="0.51159">
        <ele>121.6</ele>
        <time>2024-07-14T08:35:28Z</time>
      </trkpt>
      <trkpt lat="44.76957" lon="0.51151">
        <ele>121.4</ele>
        <time>2024-07-14T08:35:30Z</time>
      </trkpt>
      <trkpt lat="44.76964" lon="0.51142">
        <ele>121.1</ele>
        <time>2024-07-14T08:35:32Z</time>
      </trkpt>
      <trkpt lat="44.76971" lon="0.51133">
        <ele>120.8</ele>
        <time>2024-07-14T08:35:34Z</time>
      </trkpt>
      <trkpt lat="44.76978" lon="0.51123">
        <ele>120.6</ele>
        <time>2024-07-14T08:35:36Z</time>
      </trkpt>
      <trkpt lat="44.76985" lon="0.51115">
        <ele>120.4</ele>
        <time>2024-07-14T08:35:38Z</time>
      </trkpt>
      <trkpt lat="44.76988" lon="0.5111">
        <ele>120.3</ele>
        <time>2024-07-14T08:35:39Z</time>
      </trkpt>
      <trkpt lat="44.76992" lon="0.51105">
        <ele>120.2</ele>
        <time>2024-07-14T08:35:40Z</time>
      </trkpt>
      <trkpt lat="44.76998" lon="0.51095">
        <ele>120.1</ele>
        <time>2024-07-14T08:35:42Z</time>
      </trkpt>
      <trkpt lat="44.77003" lon="0.51085">
        <ele>120.1</ele>
        <time>2024-07-14T08:35:44Z</time>
      </trkpt>
      <trkpt lat="44.77007" lon="0.51075">
        <ele>120.1</ele>
        <time>2024-07-14T08:35:46Z</time>
      </trkpt>
      <trkpt lat="44.77009" lon="0.5107">
        <ele>120.1</ele>
        <time>2024-07-14T08:35:47Z</time>
      </trkpt>
      <trkpt lat="44.77012" lon="0.51066">
        <ele>120.2</ele>
        <time>2024-07-14T08:35:48Z</time>
      </trkpt>
      <trkpt lat="44.77016" lon="0.51057">
        <ele>120.2</ele>
        <time>2024-07-14T08:35:50Z</time>
      </trkpt>
      <trkpt lat="44.7702" lon="0.51048">
        <ele>120.3</ele>
        <time>2024-07-14T08:35:52Z</time>
      </trkpt>
      <trkpt lat="44.77024" lon="0.51038">
        <ele>120.4</ele>
        <time>2024-07-14T08:35:54Z</time>
      </trkpt>
      <trkpt lat="44.77028" lon="0.51028">
        <ele>120.5</ele>
        <time>2024-07-14T08:35:56Z</time>
      </trkpt>
      <trkpt lat="44.77032" lon="0.51019">
        <ele>120.7</ele>
        <time>2024-07-14T08:35:58Z</time>
      </trkpt>
      <trkpt lat="44.77035" lon="0.51011">
        <ele>120.9</ele>
        <time>2024-07-14T08:36:00Z</time>
      </trkpt>
      <trkpt lat="44.77037" lon="0.51007">
        <ele>121</ele>
        <time>2024-07-14T08:36:01Z</time>
      </trkpt>
      <trkpt lat="44.77039" lon="0.51003">
        <ele>121.1</ele>
        <time>2024-07-14T08:36:02Z</time>
      </trkpt>
      <trkpt lat="44.77042" lon="0.50995">
        <ele>121.3</ele>
        <time>2024-07-14T08:36:04Z</time>
      </trkpt>
      <trkpt lat="44.77046" lon="0.50987">
        <ele>121.4</ele>
        <time>2024-07-14T08:36:06Z</time>
      </trkpt>
      <trkpt lat="44.7705" lon="0.50979">
        <ele>121.5</ele>
        <time>2024-07-14T08:36:08Z</time>
      </trkpt>
      <trkpt lat="44.77055" lon="0.50971">
        <ele>121.7</ele>
        <time>2024-07-14T08:36:10Z</time>
      </trkpt>
      <trkpt lat="44.77057" lon="0.50967">
        <ele>121.7</ele>
        <time>2024-07-14T08:36:11Z</time>
      </trkpt>
      <trkpt lat="44.77058" lon="0.50963">
        <ele>121.8</ele>
        <time>2024-07-14T08:36:12Z</time>
      </trkpt>
      <trkpt lat="44.77062" lon="0.50955">
        <ele>121.9</ele>
        <time>2024-07-14T08:36:14Z</time>
      </trkpt>
      <trkpt lat="44.77065" lon="0.50947">
        <ele>122</ele>
        <time>2024-07-14T08:36:16Z</time>
      </trkpt>
      <trkpt lat="44.77069" lon="0.50939">
        <ele>122.2</ele>
        <time>2024-07-14T08:36:18Z</time>
      </trkpt>
      <trkpt lat="44.77071" lon="0.50935">
        <ele>122.3</ele>
        <time>2024-07-14T08:36:19Z</time>
      </trkpt>
      <trkpt lat="44.77072" lon="0.50931">
        <ele>122.3</ele>
        <time>2024-07-14T08:36:20Z</time>
      </trkpt>
      <trkpt lat="44.77076" lon="0.50923">
        <ele>122.5</ele>
        <time>2024-07-14T08:36:22Z</time>
      </trkpt>
      <trkpt lat="44.7708" lon="0.50915">
        <ele>122.6</ele>
        <time>2024-07-14T08:36:24Z</time>
      </trkpt>
      <trkpt lat="44.77083" lon="0.50907">
        <ele>122.8</ele>
        <time>2024-07-14T08:36:26Z</time>
      </trkpt>
      <trkpt lat="44.77085" lon="0.50903">
        <ele>122.8</ele>
        <time>2024-07-14T08:36:27Z</time>
      </trkpt>
      <trkpt lat="44.77086" lon="0.50898">
        <ele>122.9</ele>
        <time>2024-07-14T08:36:28Z</time>
      </trkpt>
      <trkpt lat="44.77089" lon="0.50889">
        <ele>123</ele>
        <time>2024-07-14T08:36:30Z</time>
      </trkpt>
      <trkpt lat="44.77092" lon="0.50881">
        <ele>123.1</ele>
        <time>2024-07-14T08:36:32Z</time>
      </trkpt>
      <trkpt lat="44.77096" lon="0.50874">
        <ele>123.2</ele>
        <time>2024-07-14T08:36:34Z</time>
      </trkpt>
      <trkpt lat="44.77101" lon="0.50868">
        <ele>123.3</ele>
        <time>2024-07-14T08:36:36Z</time>
      </trkpt>
      <trkpt lat="44.77105" lon="0.50863">
        <ele>123.3</ele>
        <time>2024-07-14T08:36:38Z</time>
      </trkpt>
      <trkpt lat="44.77107" lon="0.50861">
        <ele>123.3</ele>
        <time>2024-07-14T08:36:39Z</time>
      </trkpt>
      <trkpt lat="44.7711" lon="0.50858">
        <ele>123.3</ele>
        <time>2024-07-14T08:36:40Z</time>
      </trkpt>
      <trkpt lat="44.77115" lon="0.50853">
        <ele>123.2</ele>
        <time>2024-07-14T08:36:42Z</time>
      </trkpt>
      <trkpt lat="44.77122" lon="0.50847">
        <ele>122.9</ele>
        <time>2024-07-14T08:36:44Z</time>
      </trkpt>
      <trkpt lat="44.77131" lon="0.5084">
        <ele>122.4</ele>
        <time>2024-07-14T08:36:46Z</time>
      </trkpt>
      <trkpt lat="44.7714" lon="0.50833">
        <ele>122</ele>
        <time>2024-07-14T08:36:48Z</time>
      </trkpt>
      <trkpt lat="44.77149" lon="0.50826">
        <ele>121.6</ele>
        <time>2024-07-14T08:36:50Z</time>
      </trkpt>
      <trkpt lat="44.77153" lon="0.50822">
        <ele>121.5</ele>
        <time>2024-07-14T08:36:51Z</time>
      </trkpt>
      <trkpt lat="44.77157" lon="0.5082">
        <ele>121.4</ele>
        <time>2024-07-14T08:36:52Z</time>
      </trkpt>
      <trkpt lat="44.77165" lon="0.50813">
        <ele>121.3</ele>
        <time>2024-07-14T08:36:54Z</time>
      </trkpt>
      <trkpt lat="44.77173" lon="0.50807">
        <ele>121.2</ele>
        <time>2024-07-14T08:36:56Z</time>
      </trkpt>
      <trkpt lat="44.7718" lon="0.50799">
        <ele>121.2</ele>
        <time>2024-07-14T08:36:58Z</time>
      </trkpt>
      <trkpt lat="44.77183" lon="0.50796">
        <ele>121.1</ele>
        <time>2024-07-14T08:36:59Z</time>
      </trkpt>
      <trkpt lat="44.77187" lon="0.50793">
        <ele>121.1</ele>
        <time>2024-07-14T08:37:00Z</time>
      </trkpt>
      <trkpt lat="44.77195" lon="0.50786">
        <ele>121</ele>
        <time>2024-07-14T08:37:02Z</time>
      </trkpt>
      <trkpt lat="44.77202" lon="0.5078">
        <ele>120.9</ele>
        <time>2024-07-14T08:37:04Z</time>
      </trkpt>
      <trkpt lat="44.77206" lon="0.50776">
        <ele>120.9</ele>
        <time>2024-07-14T08:37:05Z</time>
      </trkpt>
      <trkpt lat="44.7721" lon="0.50773">
        <ele>120.9</ele>
        <time>2024-07-14T08:37:06Z</time>
      </trkpt>
      <trkpt lat="44.77218" lon="0.50766">
        <ele>120.9</ele>
        <time>2024-07-14T08:37:08Z</time>
      </trkpt>
      <trkpt lat="44.77226" lon="0.5076">
        <ele>121</ele>
        <time>2024-07-14T08:37:10Z</time>
      </trkpt>
      <trkpt lat="44.7723" lon="0.50757">
        <ele>121</ele>
        <time>2024-07-14T08:37:11Z</time>
      </trkpt>
      <trkpt lat="44.77234" lon="0.50753">
        <ele>121.1</ele>
        <time>2024-07-14T08:37:12Z</time>
      </trkpt>
      <trkpt lat="44.77241" lon="0.50747">
        <ele>121.2</ele>
        <time>2024-07-14T08:37:14Z</time>
      </trkpt>
      <trkpt lat="44.77245" lon="0.50744">
        <ele>121.3</ele>
        <time>2024-07-14T08:37:15Z</time>
      </trkpt>
      <trkpt lat="44.77249" lon="0.50741">
        <ele>121.4</ele>
        <time>2024-07-14T08:37:16Z</time>
      </trkpt>
      <trkpt lat="44.77253" lon="0.50738">
        <ele>121.5</ele>
        <time>2024-07-14T08:37:17Z</time>
      </trkpt>
      <trkpt lat="44.77257" lon="0.50735">
        <ele>121.6</ele>
        <time>2024-07-14T08:37:18Z</time>
      </trkpt>
      <trkpt lat="44.77265" lon="0.50729">
        <ele>121.8</ele>
        <time>2024-07-14T08:37:20Z</time>
      </trkpt>
      <trkpt lat="44.77272" lon="0.50723">
        <ele>121.9</ele>
        <time>2024-07-14T08:37:22Z</time>
      </trkpt>
      <trkpt lat="44.77276" lon="0.5072">
        <ele>122</ele>
        <time>2024-07-14T08:37:23Z</time>
      </trkpt>
      <trkpt lat="44.77279" lon="0.50718">
        <ele>122.1</ele>
        <time>2024-07-14T08:37:24Z</time>
      </trkpt>
      <trkpt lat="44.77286" lon="0.50713">
        <ele>122.2</ele>
        <time>2024-07-14T08:37:26Z</time>
      </trkpt>
      <trkpt lat="44.77292" lon="0.50709">
        <ele>122.4</ele>
        <time>2024-07-14T08:37:28Z</time>
      </trkpt>
      <trkpt lat="44.77298" lon="0.50705">
        <ele>122.7</ele>
        <time>2024-07-14T08:37:30Z</time>
      </trkpt>
      <trkpt lat="44.77304" lon="0.50701">
        <ele>123</ele>
        <time>2024-07-14T08:37:32Z</time>
      </trkpt>
      <trkpt lat="44.77309" lon="0.50699">
        <ele>123.4</ele>
        <time>2024-07-14T08:37:34Z</time>
      </trkpt>
      <trkpt lat="44.77315" lon="0.50697">
        <ele>123.8</ele>
        <time>2024-07-14T08:37:36Z</time>
      </trkpt>
      <trkpt lat="44.77318" lon="0.50697">
        <ele>124</ele>
        <time>2024-07-14T08:37:37Z</time>
      </trkpt>
      <trkpt lat="44.7732" lon="0.50697">
        <ele>124.3</ele>
        <time>2024-07-14T08:37:38Z</time>
      </trkpt>
      <trkpt lat="44.77325" lon="0.50696">
        <ele>124.7</ele>
        <time>2024-07-14T08:37:40Z</time>
      </trkpt>
      <trkpt lat="44.77329" lon="0.50696">
        <ele>125.1</ele>
        <time>2024-07-14T08:37:42Z</time>
      </trkpt>
      <trkpt lat="44.77331" lon="0.50696">
        <ele>125.2</ele>
        <time>2024-07-14T08:37:43Z</time>
      </trkpt>
      <trkpt lat="44.77333" lon="0.50696">
        <ele>125.3</ele>
        <time>2024-07-14T08:37:44Z</time>
      </trkpt>
      <trkpt lat="44.77337" lon="0.50694">
        <ele>125.5</ele>
        <time>2024-07-14T08:37:46Z</time>
      </trkpt>
      <trkpt lat="44.77341" lon="0.50694">
        <ele>125.7</ele>
        <time>2024-07-14T08:37:48Z</time>
      </trkpt>
      <trkpt lat="44.77346" lon="0.50694">
        <ele>125.9</ele>
        <time>2024-07-14T08:37:50Z</time>
      </trkpt>
      <trkpt lat="44.7735" lon="0.50693">
        <ele>126.1</ele>
        <time>2024-07-14T08:37:52Z</time>
      </trkpt>
      <trkpt lat="44.77354" lon="0.50692">
        <ele>126.3</ele>
        <time>2024-07-14T08:37:54Z</time>
      </trkpt>
      <trkpt lat="44.77356" lon="0.50691">
        <ele>126.4</ele>
        <time>2024-07-14T08:37:55Z</time>
      </trkpt>
      <trkpt lat="44.77358" lon="0.5069">
        <ele>126.5</ele>
        <time>2024-07-14T08:37:56Z</time>
      </trkpt>
      <trkpt lat="44.77362" lon="0.50688">
        <ele>126.7</ele>
        <time>2024-07-14T08:37:58Z</time>
      </trkpt>
      <trkpt lat="44.77365" lon="0.50684">
        <ele>126.9</ele>
        <time>2024-07-14T08:38:00Z</time>
      </trkpt>
      <trkpt lat="44.77369" lon="0.50683">
        <ele>126.9</ele>
        <time>2024-07-14T08:38:02Z</time>
      </trkpt>
      <trkpt lat="44.77372" lon="0.50685">
        <ele>127.1</ele>
        <time>2024-07-14T08:38:04Z</time>
      </trkpt>
      <trkpt lat="44.77377" lon="0.50686">
        <ele>127.5</ele>
        <time>2024-07-14T08:38:06Z</time>
      </trkpt>
      <trkpt lat="44.77381" lon="0.50686">
        <ele>127.9</ele>
        <time>2024-07-14T08:38:08Z</time>
      </trkpt>
      <trkpt lat="44.77385" lon="0.50684">
        <ele>128.3</ele>
        <time>2024-07-14T08:38:10Z</time>
      </trkpt>
      <trkpt lat="44.77387" lon="0.50683">
        <ele>128.5</ele>
        <time>2024-07-14T08:38:11Z</time>
      </trkpt>
      <trkpt lat="44.77389" lon="0.50682">
        <ele>128.7</ele>
        <time>2024-07-14T08:38:12Z</time>
      </trkpt>
      <trkpt lat="44.77393" lon="0.5068">
        <ele>129</ele>
        <time>2024-07-14T08:38:14Z</time>
      </trkpt>
      <trkpt lat="44.77397" lon="0.50678">
        <ele>129.3</ele>
        <time>2024-07-14T08:38:16Z</time>
      </trkpt>
      <trkpt lat="44.77402" lon="0.50677">
        <ele>129.7</ele>
        <time>2024-07-14T08:38:18Z</time>
      </trkpt>
      <trkpt lat="44.77405" lon="0.50676">
        <ele>129.8</ele>
        <time>2024-07-14T08:38:19Z</time>
      </trkpt>
      <trkpt lat="44.77407" lon="0.50675">
        <ele>130</ele>
        <time>2024-07-14T08:38:20Z</time>
      </trkpt>
      <trkpt lat="44.77413" lon="0.50673">
        <ele>130.3</ele>
        <time>2024-07-14T08:38:22Z</time>
      </trkpt>
      <trkpt lat="44.77416" lon="0.50672">
        <ele>130.4</ele>
        <time>2024-07-14T08:38:23Z</time>
      </trkpt>
      <trkpt lat="44.77419" lon="0.5067">
        <ele>130.6</ele>
        <time>2024-07-14T08:38:24Z</time>
      </trkpt>
      <trkpt lat="44.77426" lon="0.50667">
        <ele>130.8</ele>
        <time>2024-07-14T08:38:26Z</time>
      </trkpt>
      <trkpt lat="44.77432" lon="0.50664">
        <ele>130.8</ele>
        <time>2024-07-14T08:38:28Z</time>
      </trkpt>
      <trkpt lat="44.77436" lon="0.50663">
        <ele>130.7</ele>
        <time>2024-07-14T08:38:29Z</time>
      </trkpt>
      <trkpt lat="44.7744" lon="0.50661">
        <ele>130.6</ele>
        <time>2024-07-14T08:38:30Z</time>
      </trkpt>
      <trkpt lat="44.77448" lon="0.50658">
        <ele>130.5</ele>
        <time>2024-07-14T08:38:32Z</time>
      </trkpt>
      <trkpt lat="44.77456" lon="0.50654">
        <ele>130.3</ele>
        <time>2024-07-14T08:38:34Z</time>
      </trkpt>
      <trkpt lat="44.77459" lon="0.50653">
        <ele>130.3</ele>
        <time>2024-07-14T08:38:35Z</time>
      </trkpt>
      <trkpt lat="44.77463" lon="0.50651">
        <ele>130.2</ele>
        <time>2024-07-14T08:38:36Z</time>
      </trkpt>
      <trkpt lat="44.77471" lon="0.50648">
        <ele>130</ele>
        <time>2024-07-14T08:38:38Z</time>
      </trkpt>
      <trkpt lat="44.77479" lon="0.50644">
        <ele>129.8</ele>
        <time>2024-07-14T08:38:40Z</time>
      </trkpt>
      <trkpt lat="44.77486" lon="0.50641">
        <ele>129.7</ele>
        <time>2024-07-14T08:38:42Z</time>
      </trkpt>
      <trkpt lat="44.7749" lon="0.50639">
        <ele>129.6</ele>
        <time>2024-07-14T08:38:43Z</time>
      </trkpt>
      <trkpt lat="44.77493" lon="0.50637">
        <ele>129.5</ele>
        <time>2024-07-14T08:38:44Z</time>
      </trkpt>
      <trkpt lat="44.77501" lon="0.50633">
        <ele>129.3</ele>
        <time>2024-07-14T08:38:46Z</time>
      </trkpt>
      <trkpt lat="44.77508" lon="0.50628">
        <ele>129.2</ele>
        <time>2024-07-14T08:38:48Z</time>
      </trkpt>
      <trkpt lat="44.77516" lon="0.50623">
        <ele>129</ele>
        <time>2024-07-14T08:38:50Z</time>
      </trkpt>
      <trkpt lat="44.7752" lon="0.50621">
        <ele>129</ele>
        <time>2024-07-14T08:38:51Z</time>
      </trkpt>
      <trkpt lat="44.77523" lon="0.50618">
        <ele>128.9</ele>
        <time>2024-07-14T08:38:52Z</time>
      </trkpt>
      <trkpt lat="44.7753" lon="0.50614">
        <ele>128.8</ele>
        <time>2024-07-14T08:38:54Z</time>
      </trkpt>
      <trkpt lat="44.77536" lon="0.50612">
        <ele>128.7</ele>
        <time>2024-07-14T08:38:56Z</time>
      </trkpt>
      <trkpt lat="44.77538" lon="0.50612">
        <ele>128.7</ele>
        <time>2024-07-14T08:38:57Z</time>
      </trkpt>
      <trkpt lat="44.7754" lon="0.50612">
        <ele>128.7</ele>
        <time>2024-07-14T08:38:58Z</time>
      </trkpt>
      <trkpt lat="44.77542" lon="0.50609">
        <ele>128.6</ele>
        <time>2024-07-14T08:39:00Z</time>
      </trkpt>
      <trkpt lat="44.77543" lon="0.50608">
        <ele>128.5</ele>
        <time>2024-07-14T08:39:01Z</time>
      </trkpt>
      <trkpt lat="44.77546" lon="0.50605">
        <ele>128.4</ele>
        <time>2024-07-14T08:39:02Z</time>
      </trkpt>
      <trkpt lat="44.77552" lon="0.50601">
        <ele>128</ele>
        <time>2024-07-14T08:39:04Z</time>
      </trkpt>
      <trkpt lat="44.77556" lon="0.50599">
        <ele>127.9</ele>
        <time>2024-07-14T08:39:05Z</time>
      </trkpt>
      <trkpt lat="44.7756" lon="0.50595">
        <ele>127.7</ele>
        <time>2024-07-14T08:39:06Z</time>
      </trkpt>
      <trkpt lat="44.77568" lon="0.50589">
        <ele>127.3</ele>
        <time>2024-07-14T08:39:08Z</time>
      </trkpt>
      <trkpt lat="44.77572" lon="0.50587">
        <ele>127.2</ele>
        <time>2024-07-14T08:39:09Z</time>
      </trkpt>
      <trkpt lat="44.77575" lon="0.50584">
        <ele>127</ele>
        <time>2024-07-14T08:39:10Z</time>
      </trkpt>
      <trkpt lat="44.77584" lon="0.50577">
        <ele>126.7</ele>
        <time>2024-07-14T08:39:12Z</time>
      </trkpt>
      <trkpt lat="44.77593" lon="0.50571">
        <ele>126.4</ele>
        <time>2024-07-14T08:39:14Z</time>
      </trkpt>
      <trkpt lat="44.77602" lon="0.50565">
        <ele>126</ele>
        <time>2024-07-14T08:39:16Z</time>
      </trkpt>
      <trkpt lat="44.77612" lon="0.50559">
        <ele>125.8</ele>
        <time>2024-07-14T08:39:18Z</time>
      </trkpt>
      <trkpt lat="44.77622" lon="0.50553">
        <ele>125.6</ele>
        <time>2024-07-14T08:39:20Z</time>
      </trkpt>
      <trkpt lat="44.77627" lon="0.5055">
        <ele>125.5</ele>
        <time>2024-07-14T08:39:21Z</time>
      </trkpt>
      <trkpt lat="44.77631" lon="0.50547">
        <ele>125.5</ele>
        <time>2024-07-14T08:39:22Z</time>
      </trkpt>
      <trkpt lat="44.77639" lon="0.50542">
        <ele>125.3</ele>
        <time>2024-07-14T08:39:24Z</time>
      </trkpt>
      <trkpt lat="44.77643" lon="0.50539">
        <ele>125.3</ele>
        <time>2024-07-14T08:39:25Z</time>
      </trkpt>
      <trkpt lat="44.77647" lon="0.50537">
        <ele>125.3</ele>
        <time>2024-07-14T08:39:26Z</time>
      </trkpt>
      <trkpt lat="44.77654" lon="0.50532">
        <ele>125.2</ele>
        <time>2024-07-14T08:39:28Z</time>
      </trkpt>
      <trkpt lat="44.77658" lon="0.50529">
        <ele>125.2</ele>
        <time>2024-07-14T08:39:29Z</time>
      </trkpt>
      <trkpt lat="44.77662" lon="0.50526">
        <ele>125.1</ele>
        <time>2024-07-14T08:39:30Z</time>
      </trkpt>
      <trkpt lat="44.77665" lon="0.50524">
        <ele>125.1</ele>
        <time>2024-07-14T08:39:31Z</time>
      </trkpt>
      <trkpt lat="44.77668" lon="0.50519">
        <ele>125.1</ele>
        <time>2024-07-14T08:39:32Z</time>
      </trkpt>
      <trkpt lat="44.7767" lon="0.50514">
        <ele>125.1</ele>
        <time>2024-07-14T08:39:33Z</time>
      </trkpt>
      <trkpt lat="44.77671" lon="0.50508">
        <ele>125.1</ele>
        <time>2024-07-14T08:39:34Z</time>
      </trkpt>
      <trkpt lat="44.77669" lon="0.50498">
        <ele>125.1</ele>
        <time>2024-07-14T08:39:36Z</time>
      </trkpt>
      <trkpt lat="44.77669" lon="0.50492">
        <ele>125.1</ele>
        <time>2024-07-14T08:39:37Z</time>
      </trkpt>
      <trkpt lat="44.77667" lon="0.50486">
        <ele>125.1</ele>
        <time>2024-07-14T08:39:38Z</time>
      </trkpt>
      <trkpt lat="44.77665" lon="0.5048">
        <ele>125.1</ele>
        <time>2024-07-14T08:39:39Z</time>
      </trkpt>
      <trkpt lat="44.77664" lon="0.50474">
        <ele>125</ele>
        <time>2024-07-14T08:39:40Z</time>
      </trkpt>
      <trkpt lat="44.77661" lon="0.50462">
        <ele>125</ele>
        <time>2024-07-14T08:39:42Z</time>
      </trkpt>
      <trkpt lat="44.77659" lon="0.50449">
        <ele>125</ele>
        <time>2024-07-14T08:39:44Z</time>
      </trkpt>
      <trkpt lat="44.77657" lon="0.50436">
        <ele>125</ele>
        <time>2024-07-14T08:39:46Z</time>
      </trkpt>
      <trkpt lat="44.77655" lon="0.50424">
        <ele>125.1</ele>
        <time>2024-07-14T08:39:48Z</time>
      </trkpt>
      <trkpt lat="44.77654" lon="0.50413">
        <ele>125.1</ele>
        <time>2024-07-14T08:39:50Z</time>
      </trkpt>
      <trkpt lat="44.77652" lon="0.50401">
        <ele>125.2</ele>
        <time>2024-07-14T08:39:52Z</time>
      </trkpt>
      <trkpt lat="44.77649" lon="0.5039">
        <ele>125.4</ele>
        <time>2024-07-14T08:39:54Z</time>
      </trkpt>
      <trkpt lat="44.77648" lon="0.50384">
        <ele>125.5</ele>
        <time>2024-07-14T08:39:55Z</time>
      </trkpt>
      <trkpt lat="44.77647" lon="0.50378">
        <ele>125.6</ele>
        <time>2024-07-14T08:39:56Z</time>
      </trkpt>
      <trkpt lat="44.77644" lon="0.50367">
        <ele>125.7</ele>
        <time>2024-07-14T08:39:58Z</time>
      </trkpt>
      <trkpt lat="44.77642" lon="0.50356">
        <ele>125.8</ele>
        <time>2024-07-14T08:40:00Z</time>
      </trkpt>
      <trkpt lat="44.77641" lon="0.50351">
        <ele>125.9</ele>
        <time>2024-07-14T08:40:01Z</time>
      </trkpt>
      <trkpt lat="44.7764" lon="0.50345">
        <ele>125.9</ele>
        <time>2024-07-14T08:40:02Z</time>
      </trkpt>
      <trkpt lat="44.77638" lon="0.50335">
        <ele>126.1</ele>
        <time>2024-07-14T08:40:04Z</time>
      </trkpt>
      <trkpt lat="44.77636" lon="0.50325">
        <ele>126.2</ele>
        <time>2024-07-14T08:40:06Z</time>
      </trkpt>
      <trkpt lat="44.77635" lon="0.5032">
        <ele>126.2</ele>
        <time>2024-07-14T08:40:07Z</time>
      </trkpt>
      <trkpt lat="44.77634" lon="0.50315">
        <ele>126.2</ele>
        <time>2024-07-14T08:40:08Z</time>
      </trkpt>
      <trkpt lat="44.77633" lon="0.50305">
        <ele>126.4</ele>
        <time>2024-07-14T08:40:10Z</time>
      </trkpt>
      <trkpt lat="44.77633" lon="0.503">
        <ele>126.4</ele>
        <time>2024-07-14T08:40:11Z</time>
      </trkpt>
      <trkpt lat="44.77633" lon="0.50296">
        <ele>126.5</ele>
        <time>2024-07-14T08:40:12Z</time>
      </trkpt>
      <trkpt lat="44.77632" lon="0.50286">
        <ele>126.5</ele>
        <time>2024-07-14T08:40:14Z</time>
      </trkpt>
      <trkpt lat="44.77629" lon="0.50278">
        <ele>126.5</ele>
        <time>2024-07-14T08:40:16Z</time>
      </trkpt>
      <trkpt lat="44.77628" lon="0.50273">
        <ele>126.5</ele>
        <time>2024-07-14T08:40:17Z</time>
      </trkpt>
      <trkpt lat="44.77627" lon="0.50269">
        <ele>126.5</ele>
        <time>2024-07-14T08:40:18Z</time>
      </trkpt>
      <trkpt lat="44.77623" lon="0.50261">
        <ele>126.4</ele>
        <time>2024-07-14T08:40:20Z</time>
      </trkpt>
      <trkpt lat="44.77621" lon="0.50253">
        <ele>126.3</ele>
        <time>2024-07-14T08:40:22Z</time>
      </trkpt>
      <trkpt lat="44.77621" lon="0.5025">
        <ele>126.2</ele>
        <time>2024-07-14T08:40:23Z</time>
      </trkpt>
      <trkpt lat="44.77623" lon="0.50246">
        <ele>126.2</ele>
        <time>2024-07-14T08:40:24Z</time>
      </trkpt>
      <trkpt lat="44.77627" lon="0.50241">
        <ele>126.1</ele>
        <time>2024-07-14T08:40:26Z</time>
      </trkpt>
      <trkpt lat="44.77631" lon="0.5024">
        <ele>126</ele>
        <time>2024-07-14T08:40:27Z</time>
      </trkpt>
      <trkpt lat="44.77635" lon="0.5024">
        <ele>125.9</ele>
        <time>2024-07-14T08:40:28Z</time>
      </trkpt>
      <trkpt lat="44.77645" lon="0.5024">
        <ele>125.6</ele>
        <time>2024-07-14T08:40:30Z</time>
      </trkpt>
      <trkpt lat="44.7765" lon="0.50239">
        <ele>125.5</ele>
        <time>2024-07-14T08:40:31Z</time>
      </trkpt>
      <trkpt lat="44.77654" lon="0.50238">
        <ele>125.3</ele>
        <time>2024-07-14T08:40:32Z</time>
      </trkpt>
      <trkpt lat="44.77658" lon="0.50237">
        <ele>125.2</ele>
        <time>2024-07-14T08:40:33Z</time>
      </trkpt>
      <trkpt lat="44.77661" lon="0.50236">
        <ele>125</ele>
        <time>2024-07-14T08:40:34Z</time>
      </trkpt>
      <trkpt lat="44.77665" lon="0.50236">
        <ele>124.9</ele>
        <time>2024-07-14T08:40:35Z</time>
      </trkpt>
      <trkpt lat="44.77672" lon="0.50236">
        <ele>124.6</ele>
        <time>2024-07-14T08:40:36Z</time>
      </trkpt>
      <trkpt lat="44.77686" lon="0.50235">
        <ele>123.9</ele>
        <time>2024-07-14T08:40:38Z</time>
      </trkpt>
      <trkpt lat="44.77698" lon="0.50234">
        <ele>123.3</ele>
        <time>2024-07-14T08:40:40Z</time>
      </trkpt>
      <trkpt lat="44.77703" lon="0.50233">
        <ele>123</ele>
        <time>2024-07-14T08:40:41Z</time>
      </trkpt>
      <trkpt lat="44.77708" lon="0.50231">
        <ele>122.7</ele>
        <time>2024-07-14T08:40:42Z</time>
      </trkpt>
      <trkpt lat="44.7771" lon="0.5023">
        <ele>122.5</ele>
        <time>2024-07-14T08:40:43Z</time>
      </trkpt>
      <trkpt lat="44.77713" lon="0.5023">
        <ele>122.4</ele>
        <time>2024-07-14T08:40:44Z</time>
      </trkpt>
      <trkpt lat="44.77718" lon="0.50233">
        <ele>122.1</ele>
        <time>2024-07-14T08:40:46Z</time>
      </trkpt>
      <trkpt lat="44.77719" lon="0.50235">
        <ele>122</ele>
        <time>2024-07-14T08:40:47Z</time>
      </trkpt>
      <trkpt lat="44.7772" lon="0.50236">
        <ele>122</ele>
        <time>2024-07-14T08:40:48Z</time>
      </trkpt>
      <trkpt lat="44.77722" lon="0.50238">
        <ele>121.9</ele>
        <time>2024-07-14T08:40:49Z</time>
      </trkpt>
      <trkpt lat="44.77724" lon="0.5024">
        <ele>121.7</ele>
        <time>2024-07-14T08:40:50Z</time>
      </trkpt>
      <trkpt lat="44.77727" lon="0.50243">
        <ele>121.8</ele>
        <time>2024-07-14T08:40:51Z</time>
      </trkpt>
      <trkpt lat="44.77728" lon="0.50246">
        <ele>121.7</ele>
        <time>2024-07-14T08:40:52Z</time>
      </trkpt>
      <trkpt lat="44.7773" lon="0.50248">
        <ele>121.5</ele>
        <time>2024-07-14T08:40:53Z</time>
      </trkpt>
      <trkpt lat="44.77731" lon="0.5025">
        <ele>121.5</ele>
        <time>2024-07-14T08:40:54Z</time>
      </trkpt>
      <trkpt lat="44.77732" lon="0.50253">
        <ele>121.5</ele>
        <time>2024-07-14T08:40:55Z</time>
      </trkpt>
      <trkpt lat="44.77732" lon="0.50255">
        <ele>121.6</ele>
        <time>2024-07-14T08:40:56Z</time>
      </trkpt>
      <trkpt lat="44.77733" lon="0.50258">
        <ele>121.4</ele>
        <time>2024-07-14T08:40:57Z</time>
      </trkpt>
      <trkpt lat="44.77735" lon="0.50261">
        <ele>121.4</ele>
        <time>2024-07-14T08:40:58Z</time>
      </trkpt>
      <trkpt lat="44.77738" lon="0.50268">
        <ele>121.3</ele>
        <time>2024-07-14T08:41:00Z</time>
      </trkpt>
      <trkpt lat="44.77739" lon="0.50271">
        <ele>121.3</ele>
        <time>2024-07-14T08:41:01Z</time>
      </trkpt>
      <trkpt lat="44.7774" lon="0.50274">
        <ele>121.2</ele>
        <time>2024-07-14T08:41:02Z</time>
      </trkpt>
      <trkpt lat="44.77745" lon="0.50284">
        <ele>121</ele>
        <time>2024-07-14T08:41:04Z</time>
      </trkpt>
      <trkpt lat="44.77747" lon="0.50292">
        <ele>121</ele>
        <time>2024-07-14T08:41:06Z</time>
      </trkpt>
      <trkpt lat="44.77748" lon="0.503">
        <ele>120.9</ele>
        <time>2024-07-14T08:41:08Z</time>
      </trkpt>
      <trkpt lat="44.77749" lon="0.50304">
        <ele>120.9</ele>
        <time>2024-07-14T08:41:09Z</time>
      </trkpt>
      <trkpt lat="44.77753" lon="0.5031">
        <ele>120.9</ele>
        <time>2024-07-14T08:41:10Z</time>
      </trkpt>
      <trkpt lat="44.77755" lon="0.50315">
        <ele>120.8</ele>
        <time>2024-07-14T08:41:11Z</time>
      </trkpt>
      <trkpt lat="44.77757" lon="0.5032">
        <ele>120.8</ele>
        <time>2024-07-14T08:41:12Z</time>
      </trkpt>
      <trkpt lat="44.77761" lon="0.50329">
        <ele>120.5</ele>
        <time>2024-07-14T08:41:14Z</time>
      </trkpt>
      <trkpt lat="44.77763" lon="0.50332">
        <ele>120.4</ele>
        <time>2024-07-14T08:41:15Z</time>
      </trkpt>
      <trkpt lat="44.77766" lon="0.50334">
        <ele>120.3</ele>
        <time>2024-07-14T08:41:16Z</time>
      </trkpt>
      <trkpt lat="44.77768" lon="0.50338">
        <ele>120.3</ele>
        <time>2024-07-14T08:41:17Z</time>
      </trkpt>
      <trkpt lat="44.7777" lon="0.50342">
        <ele>120.1</ele>
        <time>2024-07-14T08:41:18Z</time>
      </trkpt>
      <trkpt lat="44.77775" lon="0.5035">
        <ele>119.9</ele>
        <time>2024-07-14T08:41:20Z</time>
      </trkpt>
      <trkpt lat="44.77777" lon="0.50354">
        <ele>119.7</ele>
        <time>2024-07-14T08:41:21Z</time>
      </trkpt>
      <trkpt lat="44.77779" lon="0.50357">
        <ele>119.6</ele>
        <time>2024-07-14T08:41:22Z</time>
      </trkpt>
      <trkpt lat="44.77781" lon="0.50359">
        <ele>119.5</ele>
        <time>2024-07-14T08:41:23Z</time>
      </trkpt>
      <trkpt lat="44.77784" lon="0.50362">
        <ele>119.4</ele>
        <time>2024-07-14T08:41:24Z</time>
      </trkpt>
      <trkpt lat="44.77788" lon="0.5037">
        <ele>119.1</ele>
        <time>2024-07-14T08:41:26Z</time>
      </trkpt>
      <trkpt lat="44.77788" lon="0.50373">
        <ele>119</ele>
        <time>2024-07-14T08:41:27Z</time>
      </trkpt>
      <trkpt lat="44.7779" lon="0.50376">
        <ele>118.9</ele>
        <time>2024-07-14T08:41:28Z</time>
      </trkpt>
      <trkpt lat="44.77796" lon="0.5038">
        <ele>118.5</ele>
        <time>2024-07-14T08:41:30Z</time>
      </trkpt>
      <trkpt lat="44.77798" lon="0.50381">
        <ele>118.4</ele>
        <time>2024-07-14T08:41:31Z</time>
      </trkpt>
      <trkpt lat="44.778" lon="0.50382">
        <ele>118.2</ele>
        <time>2024-07-14T08:41:32Z</time>
      </trkpt>
      <trkpt lat="44.7781" lon="0.50375">
        <ele>117.5</ele>
        <time>2024-07-14T08:41:49Z</time>
      </trkpt>
      <trkpt lat="44.77812" lon="0.50373">
        <ele>117.4</ele>
        <time>2024-07-14T08:41:50Z</time>
      </trkpt>
      <trkpt lat="44.77817" lon="0.50372">
        <ele>117.4</ele>
        <time>2024-07-14T08:41:52Z</time>
      </trkpt>
      <trkpt lat="44.77823" lon="0.50371">
        <ele>117.4</ele>
        <time>2024-07-14T08:41:54Z</time>
      </trkpt>
      <trkpt lat="44.77825" lon="0.50368">
        <ele>117.4</ele>
        <time>2024-07-14T08:41:56Z</time>
      </trkpt>
      <trkpt lat="44.77828" lon="0.50364">
        <ele>117.6</ele>
        <time>2024-07-14T08:41:58Z</time>
      </trkpt>
      <trkpt lat="44.77832" lon="0.50361">
        <ele>117.7</ele>
        <time>2024-07-14T08:42:00Z</time>
      </trkpt>
      <trkpt lat="44.77835" lon="0.50359">
        <ele>117.8</ele>
        <time>2024-07-14T08:42:02Z</time>
      </trkpt>
      <trkpt lat="44.77837" lon="0.50358">
        <ele>118</ele>
        <time>2024-07-14T08:42:03Z</time>
      </trkpt>
      <trkpt lat="44.77838" lon="0.50358">
        <ele>118</ele>
        <time>2024-07-14T08:42:04Z</time>
      </trkpt>
      <trkpt lat="44.77841" lon="0.50356">
        <ele>118.2</ele>
        <time>2024-07-14T08:42:06Z</time>
      </trkpt>
      <trkpt lat="44.77844" lon="0.50354">
        <ele>118.5</ele>
        <time>2024-07-14T08:42:08Z</time>
      </trkpt>
      <trkpt lat="44.77845" lon="0.50352">
        <ele>118.6</ele>
        <time>2024-07-14T08:42:09Z</time>
      </trkpt>
      <trkpt lat="44.77847" lon="0.50351">
        <ele>118.7</ele>
        <time>2024-07-14T08:42:10Z</time>
      </trkpt>
      <trkpt lat="44.77849" lon="0.50349">
        <ele>118.9</ele>
        <time>2024-07-14T08:42:11Z</time>
      </trkpt>
      <trkpt lat="44.77852" lon="0.50347">
        <ele>119.2</ele>
        <time>2024-07-14T08:42:12Z</time>
      </trkpt>
      <trkpt lat="44.77856" lon="0.50344">
        <ele>119.6</ele>
        <time>2024-07-14T08:42:14Z</time>
      </trkpt>
      <trkpt lat="44.77857" lon="0.50343">
        <ele>119.8</ele>
        <time>2024-07-14T08:42:15Z</time>
      </trkpt>
      <trkpt lat="44.77859" lon="0.50342">
        <ele>120</ele>
        <time>2024-07-14T08:42:16Z</time>
      </trkpt>
      <trkpt lat="44.77863" lon="0.50339">
        <ele>120.3</ele>
        <time>2024-07-14T08:42:18Z</time>
      </trkpt>
      <trkpt lat="44.77864" lon="0.50337">
        <ele>120.5</ele>
        <time>2024-07-14T08:42:19Z</time>
      </trkpt>
      <trkpt lat="44.77864" lon="0.50335">
        <ele>120.6</ele>
        <time>2024-07-14T08:42:20Z</time>
      </trkpt>
      <trkpt lat="44.77867" lon="0.50332">
        <ele>120.9</ele>
        <time>2024-07-14T08:42:22Z</time>
      </trkpt>
      <trkpt lat="44.77871" lon="0.50328">
        <ele>121.4</ele>
        <time>2024-07-14T08:42:24Z</time>
      </trkpt>
      <trkpt lat="44.77873" lon="0.50327">
        <ele>121.6</ele>
        <time>2024-07-14T08:42:25Z</time>
      </trkpt>
      <trkpt lat="44.77876" lon="0.50325">
        <ele>121.9</ele>
        <time>2024-07-14T08:42:26Z</time>
      </trkpt>
      <trkpt lat="44.77877" lon="0.50323">
        <ele>122</ele>
        <time>2024-07-14T08:42:27Z</time>
      </trkpt>
      <trkpt lat="44.77878" lon="0.50321">
        <ele>122.2</ele>
        <time>2024-07-14T08:42:28Z</time>
      </trkpt>
      <trkpt lat="44.7788" lon="0.5032">
        <ele>122.4</ele>
        <time>2024-07-14T08:42:29Z</time>
      </trkpt>
      <trkpt lat="44.77881" lon="0.50317">
        <ele>122.6</ele>
        <time>2024-07-14T08:42:30Z</time>
      </trkpt>
      <trkpt lat="44.77884" lon="0.50315">
        <ele>122.8</ele>
        <time>2024-07-14T08:42:31Z</time>
      </trkpt>
      <trkpt lat="44.77885" lon="0.50313">
        <ele>122.9</ele>
        <time>2024-07-14T08:42:32Z</time>
      </trkpt>
      <trkpt lat="44.77887" lon="0.50311">
        <ele>123.1</ele>
        <time>2024-07-14T08:42:34Z</time>
      </trkpt>
      <trkpt lat="44.7789" lon="0.50308">
        <ele>123.2</ele>
        <time>2024-07-14T08:42:36Z</time>
      </trkpt>
      <trkpt lat="44.7789" lon="0.50308">
        <ele>123.3</ele>
        <time>2024-07-14T08:42:37Z</time>
      </trkpt>
      <trkpt lat="44.77892" lon="0.50309">
        <ele>123.4</ele>
        <time>2024-07-14T08:42:38Z</time>
      </trkpt>
      <trkpt lat="44.77896" lon="0.50313">
        <ele>123.5</ele>
        <time>2024-07-14T08:42:40Z</time>
      </trkpt>
      <trkpt lat="44.77898" lon="0.50315">
        <ele>123.6</ele>
        <time>2024-07-14T08:42:41Z</time>
      </trkpt>
      <trkpt lat="44.77901" lon="0.50317">
        <ele>123.6</ele>
        <time>2024-07-14T08:42:42Z</time>
      </trkpt>
      <trkpt lat="44.77903" lon="0.50319">
        <ele>123.6</ele>
        <time>2024-07-14T08:42:43Z</time>
      </trkpt>
      <trkpt lat="44.77904" lon="0.50321">
        <ele>123.7</ele>
        <time>2024-07-14T08:42:44Z</time>
      </trkpt>
      <trkpt lat="44.77905" lon="0.50324">
        <ele>123.7</ele>
        <time>2024-07-14T08:42:45Z</time>
      </trkpt>
      <trkpt lat="44.77907" lon="0.50326">
        <ele>123.7</ele>
        <time>2024-07-14T08:42:46Z</time>
      </trkpt>
      <trkpt lat="44.77909" lon="0.50327">
        <ele>123.7</ele>
        <time>2024-07-14T08:42:47Z</time>
      </trkpt>
      <trkpt lat="44.77911" lon="0.50328">
        <ele>123.7</ele>
        <time>2024-07-14T08:42:48Z</time>
      </trkpt>
      <trkpt lat="44.77913" lon="0.50329">
        <ele>123.8</ele>
        <time>2024-07-14T08:42:49Z</time>
      </trkpt>
      <trkpt lat="44.77916" lon="0.50332">
        <ele>123.8</ele>
        <time>2024-07-14T08:42:50Z</time>
      </trkpt>
      <trkpt lat="44.77918" lon="0.50334">
        <ele>123.9</ele>
        <time>2024-07-14T08:42:51Z</time>
      </trkpt>
      <trkpt lat="44.77921" lon="0.50338">
        <ele>124.1</ele>
        <time>2024-07-14T08:42:52Z</time>
      </trkpt>
      <trkpt lat="44.77923" lon="0.50341">
        <ele>124.2</ele>
        <time>2024-07-14T08:42:53Z</time>
      </trkpt>
      <trkpt lat="44.77926" lon="0.50343">
        <ele>124.4</ele>
        <time>2024-07-14T08:42:54Z</time>
      </trkpt>
      <trkpt lat="44.77932" lon="0.50348">
        <ele>124.7</ele>
        <time>2024-07-14T08:42:56Z</time>
      </trkpt>
      <trkpt lat="44.77934" lon="0.50351">
        <ele>124.8</ele>
        <time>2024-07-14T08:42:57Z</time>
      </trkpt>
      <trkpt lat="44.77937" lon="0.50353">
        <ele>124.9</ele>
        <time>2024-07-14T08:42:58Z</time>
      </trkpt>
      <trkpt lat="44.77942" lon="0.50357">
        <ele>125.2</ele>
        <time>2024-07-14T08:43:00Z</time>
      </trkpt>
      <trkpt lat="44.77947" lon="0.50361">
        <ele>125.4</ele>
        <time>2024-07-14T08:43:02Z</time>
      </trkpt>
      <trkpt lat="44.77949" lon="0.50364">
        <ele>125.6</ele>
        <time>2024-07-14T08:43:03Z</time>
      </trkpt>
      <trkpt lat="44.77951" lon="0.50367">
        <ele>125.7</ele>
        <time>2024-07-14T08:43:04Z</time>
      </trkpt>
      <trkpt lat="44.77955" lon="0.50372">
        <ele>125.9</ele>
        <time>2024-07-14T08:43:06Z</time>
      </trkpt>
      <trkpt lat="44.77959" lon="0.50376">
        <ele>126.2</ele>
        <time>2024-07-14T08:43:08Z</time>
      </trkpt>
      <trkpt lat="44.77962" lon="0.50377">
        <ele>126.4</ele>
        <time>2024-07-14T08:43:09Z</time>
      </trkpt>
      <trkpt lat="44.77965" lon="0.50378">
        <ele>126.5</ele>
        <time>2024-07-14T08:43:10Z</time>
      </trkpt>
      <trkpt lat="44.77971" lon="0.50378">
        <ele>126.9</ele>
        <time>2024-07-14T08:43:12Z</time>
      </trkpt>
      <trkpt lat="44.77973" lon="0.50377">
        <ele>127.1</ele>
        <time>2024-07-14T08:43:13Z</time>
      </trkpt>
      <trkpt lat="44.77976" lon="0.50376">
        <ele>127.3</ele>
        <time>2024-07-14T08:43:14Z</time>
      </trkpt>
      <trkpt lat="44.77981" lon="0.50373">
        <ele>127.7</ele>
        <time>2024-07-14T08:43:16Z</time>
      </trkpt>
      <trkpt lat="44.77986" lon="0.5037">
        <ele>128.1</ele>
        <time>2024-07-14T08:43:18Z</time>
      </trkpt>
      <trkpt lat="44.7799" lon="0.50367">
        <ele>128.4</ele>
        <time>2024-07-14T08:43:20Z</time>
      </trkpt>
      <trkpt lat="44.77996" lon="0.50365">
        <ele>128.8</ele>
        <time>2024-07-14T08:43:22Z</time>
      </trkpt>
      <trkpt lat="44.78" lon="0.50361">
        <ele>129.1</ele>
        <time>2024-07-14T08:43:24Z</time>
      </trkpt>
      <trkpt lat="44.78003" lon="0.50356">
        <ele>129.6</ele>
        <time>2024-07-14T08:43:26Z</time>
      </trkpt>
      <trkpt lat="44.78007" lon="0.50351">
        <ele>130</ele>
        <time>2024-07-14T08:43:28Z</time>
      </trkpt>
      <trkpt lat="44.78011" lon="0.50347">
        <ele>130.4</ele>
        <time>2024-07-14T08:43:30Z</time>
      </trkpt>
      <trkpt lat="44.78015" lon="0.50343">
        <ele>130.8</ele>
        <time>2024-07-14T08:43:32Z</time>
      </trkpt>
      <trkpt lat="44.78018" lon="0.50339">
        <ele>131.2</ele>
        <time>2024-07-14T08:43:34Z</time>
      </trkpt>
      <trkpt lat="44.78022" lon="0.50335">
        <ele>131.6</ele>
        <time>2024-07-14T08:43:36Z</time>
      </trkpt>
      <trkpt lat="44.78026" lon="0.50333">
        <ele>132</ele>
        <time>2024-07-14T08:43:38Z</time>
      </trkpt>
      <trkpt lat="44.7803" lon="0.5033">
        <ele>132.3</ele>
        <time>2024-07-14T08:43:40Z</time>
      </trkpt>
      <trkpt lat="44.78035" lon="0.5033">
        <ele>132.7</ele>
        <time>2024-07-14T08:43:42Z</time>
      </trkpt>
      <trkpt lat="44.7804" lon="0.5033">
        <ele>133.1</ele>
        <time>2024-07-14T08:43:44Z</time>
      </trkpt>
      <trkpt lat="44.78044" lon="0.50332">
        <ele>133.4</ele>
        <time>2024-07-14T08:43:46Z</time>
      </trkpt>
      <trkpt lat="44.78048" lon="0.50335">
        <ele>133.6</ele>
        <time>2024-07-14T08:43:48Z</time>
      </trkpt>
      <trkpt lat="44.78051" lon="0.50336">
        <ele>133.8</ele>
        <time>2024-07-14T08:43:49Z</time>
      </trkpt>
      <trkpt lat="44.78052" lon="0.50338">
        <ele>133.9</ele>
        <time>2024-07-14T08:43:50Z</time>
      </trkpt>
      <trkpt lat="44.78056" lon="0.50342">
        <ele>134.1</ele>
        <time>2024-07-14T08:43:52Z</time>
      </trkpt>
      <trkpt lat="44.7806" lon="0.50345">
        <ele>134.4</ele>
        <time>2024-07-14T08:43:54Z</time>
      </trkpt>
      <trkpt lat="44.78064" lon="0.50348">
        <ele>134.6</ele>
        <time>2024-07-14T08:43:56Z</time>
      </trkpt>
      <trkpt lat="44.78066" lon="0.5035">
        <ele>134.7</ele>
        <time>2024-07-14T08:43:57Z</time>
      </trkpt>
      <trkpt lat="44.78068" lon="0.50351">
        <ele>134.8</ele>
        <time>2024-07-14T08:43:58Z</time>
      </trkpt>
      <trkpt lat="44.78072" lon="0.50354">
        <ele>134.9</ele>
        <time>2024-07-14T08:44:00Z</time>
      </trkpt>
      <trkpt lat="44.78076" lon="0.50357">
        <ele>135.1</ele>
        <time>2024-07-14T08:44:02Z</time>
      </trkpt>
      <trkpt lat="44.7808" lon="0.50359">
        <ele>135.3</ele>
        <time>2024-07-14T08:44:04Z</time>
      </trkpt>
      <trkpt lat="44.78084" lon="0.50362">
        <ele>135.4</ele>
        <time>2024-07-14T08:44:06Z</time>
      </trkpt>
      <trkpt lat="44.78088" lon="0.50364">
        <ele>135.6</ele>
        <time>2024-07-14T08:44:08Z</time>
      </trkpt>
      <trkpt lat="44.78093" lon="0.50367">
        <ele>135.7</ele>
        <time>2024-07-14T08:44:10Z</time>
      </trkpt>
      <trkpt lat="44.78098" lon="0.50369">
        <ele>135.9</ele>
        <time>2024-07-14T08:44:12Z</time>
      </trkpt>
      <trkpt lat="44.781" lon="0.5037">
        <ele>135.9</ele>
        <time>2024-07-14T08:44:13Z</time>
      </trkpt>
      <trkpt lat="44.78102" lon="0.50372">
        <ele>135.9</ele>
        <time>2024-07-14T08:44:14Z</time>
      </trkpt>
      <trkpt lat="44.78107" lon="0.50375">
        <ele>136</ele>
        <time>2024-07-14T08:44:16Z</time>
      </trkpt>
      <trkpt lat="44.78112" lon="0.50379">
        <ele>136</ele>
        <time>2024-07-14T08:44:18Z</time>
      </trkpt>
      <trkpt lat="44.78114" lon="0.5038">
        <ele>136</ele>
        <time>2024-07-14T08:44:19Z</time>
      </trkpt>
      <trkpt lat="44.78116" lon="0.5038">
        <ele>135.9</ele>
        <time>2024-07-14T08:44:20Z</time>
      </trkpt>
      <trkpt lat="44.78121" lon="0.50382">
        <ele>136</ele>
        <time>2024-07-14T08:44:22Z</time>
      </trkpt>
      <trkpt lat="44.78127" lon="0.50383">
        <ele>136</ele>
        <time>2024-07-14T08:44:24Z</time>
      </trkpt>
      <trkpt lat="44.7813" lon="0.50384">
        <ele>136.1</ele>
        <time>2024-07-14T08:44:25Z</time>
      </trkpt>
      <trkpt lat="44.78132" lon="0.50384">
        <ele>136.1</ele>
        <time>2024-07-14T08:44:26Z</time>
      </trkpt>
      <trkpt lat="44.78137" lon="0.50384">
        <ele>136.1</ele>
        <time>2024-07-14T08:44:28Z</time>
      </trkpt>
      <trkpt lat="44.78143" lon="0.50384">
        <ele>136.2</ele>
        <time>2024-07-14T08:44:30Z</time>
      </trkpt>
      <trkpt lat="44.78146" lon="0.50384">
        <ele>136.2</ele>
        <time>2024-07-14T08:44:31Z</time>
      </trkpt>
      <trkpt lat="44.78149" lon="0.50384">
        <ele>136.2</ele>
        <time>2024-07-14T08:44:32Z</time>
      </trkpt>
      <trkpt lat="44.78154" lon="0.50385">
        <ele>136.2</ele>
        <time>2024-07-14T08:44:34Z</time>
      </trkpt>
      <trkpt lat="44.7816" lon="0.50387">
        <ele>136.3</ele>
        <time>2024-07-14T08:44:36Z</time>
      </trkpt>
      <trkpt lat="44.78165" lon="0.50387">
        <ele>136.4</ele>
        <time>2024-07-14T08:44:38Z</time>
      </trkpt>
      <trkpt lat="44.7817" lon="0.50388">
        <ele>136.5</ele>
        <time>2024-07-14T08:44:40Z</time>
      </trkpt>
      <trkpt lat="44.78175" lon="0.50389">
        <ele>136.5</ele>
        <time>2024-07-14T08:44:42Z</time>
      </trkpt>
      <trkpt lat="44.78178" lon="0.5039">
        <ele>136.6</ele>
        <time>2024-07-14T08:44:43Z</time>
      </trkpt>
      <trkpt lat="44.78181" lon="0.5039">
        <ele>136.6</ele>
        <time>2024-07-14T08:44:44Z</time>
      </trkpt>
      <trkpt lat="44.78186" lon="0.50391">
        <ele>136.6</ele>
        <time>2024-07-14T08:44:46Z</time>
      </trkpt>
      <trkpt lat="44.78192" lon="0.50392">
        <ele>136.7</ele>
        <time>2024-07-14T08:44:48Z</time>
      </trkpt>
      <trkpt lat="44.78198" lon="0.50391">
        <ele>136.8</ele>
        <time>2024-07-14T08:44:50Z</time>
      </trkpt>
      <trkpt lat="44.78203" lon="0.50391">
        <ele>136.9</ele>
        <time>2024-07-14T08:44:52Z</time>
      </trkpt>
      <trkpt lat="44.78205" lon="0.5039">
        <ele>136.9</ele>
        <time>2024-07-14T08:44:53Z</time>
      </trkpt>
      <trkpt lat="44.78207" lon="0.5039">
        <ele>136.9</ele>
        <time>2024-07-14T08:44:54Z</time>
      </trkpt>
      <trkpt lat="44.78212" lon="0.5039">
        <ele>137</ele>
        <time>2024-07-14T08:44:56Z</time>
      </trkpt>
      <trkpt lat="44.78217" lon="0.50388">
        <ele>137.1</ele>
        <time>2024-07-14T08:44:58Z</time>
      </trkpt>
      <trkpt lat="44.78222" lon="0.50387">
        <ele>137.3</ele>
        <time>2024-07-14T08:45:00Z</time>
      </trkpt>
      <trkpt lat="44.78227" lon="0.50386">
        <ele>137.5</ele>
        <time>2024-07-14T08:45:02Z</time>
      </trkpt>
      <trkpt lat="44.78228" lon="0.50385">
        <ele>137.5</ele>
        <time>2024-07-14T08:45:03Z</time>
      </trkpt>
      <trkpt lat="44.78231" lon="0.50384">
        <ele>137.6</ele>
        <time>2024-07-14T08:45:04Z</time>
      </trkpt>
      <trkpt lat="44.78233" lon="0.50383">
        <ele>137.7</ele>
        <time>2024-07-14T08:45:05Z</time>
      </trkpt>
      <trkpt lat="44.78235" lon="0.50382">
        <ele>137.8</ele>
        <time>2024-07-14T08:45:06Z</time>
      </trkpt>
      <trkpt lat="44.7824" lon="0.5038">
        <ele>138</ele>
        <time>2024-07-14T08:45:08Z</time>
      </trkpt>
      <trkpt lat="44.78244" lon="0.50378">
        <ele>138.2</ele>
        <time>2024-07-14T08:45:10Z</time>
      </trkpt>
      <trkpt lat="44.78248" lon="0.50376">
        <ele>138.4</ele>
        <time>2024-07-14T08:45:12Z</time>
      </trkpt>
      <trkpt lat="44.7825" lon="0.50374">
        <ele>138.5</ele>
        <time>2024-07-14T08:45:13Z</time>
      </trkpt>
      <trkpt lat="44.78252" lon="0.50373">
        <ele>138.6</ele>
        <time>2024-07-14T08:45:14Z</time>
      </trkpt>
      <trkpt lat="44.78255" lon="0.50371">
        <ele>138.8</ele>
        <time>2024-07-14T08:45:16Z</time>
      </trkpt>
      <trkpt lat="44.78259" lon="0.5037">
        <ele>138.9</ele>
        <time>2024-07-14T08:45:18Z</time>
      </trkpt>
      <trkpt lat="44.78264" lon="0.50368">
        <ele>139.1</ele>
        <time>2024-07-14T08:45:20Z</time>
      </trkpt>
      <trkpt lat="44.78269" lon="0.50367">
        <ele>139.3</ele>
        <time>2024-07-14T08:45:22Z</time>
      </trkpt>
      <trkpt lat="44.78273" lon="0.50365">
        <ele>139.5</ele>
        <time>2024-07-14T08:45:24Z</time>
      </trkpt>
      <trkpt lat="44.78275" lon="0.50364">
        <ele>139.6</ele>
        <time>2024-07-14T08:45:25Z</time>
      </trkpt>
      <trkpt lat="44.78278" lon="0.50363">
        <ele>139.7</ele>
        <time>2024-07-14T08:45:26Z</time>
      </trkpt>
      <trkpt lat="44.78283" lon="0.50361">
        <ele>139.8</ele>
        <time>2024-07-14T08:45:28Z</time>
      </trkpt>
      <trkpt lat="44.78288" lon="0.5036">
        <ele>139.9</ele>
        <time>2024-07-14T08:45:30Z</time>
      </trkpt>
      <trkpt lat="44.78291" lon="0.50359">
        <ele>140</ele>
        <time>2024-07-14T08:45:31Z</time>
      </trkpt>
      <trkpt lat="44.78293" lon="0.50358">
        <ele>140.1</ele>
        <time>2024-07-14T08:45:32Z</time>
      </trkpt>
      <trkpt lat="44.78298" lon="0.50356">
        <ele>140.2</ele>
        <time>2024-07-14T08:45:34Z</time>
      </trkpt>
      <trkpt lat="44.78302" lon="0.50353">
        <ele>140.3</ele>
        <time>2024-07-14T08:45:36Z</time>
      </trkpt>
      <trkpt lat="44.78306" lon="0.50352">
        <ele>140.5</ele>
        <time>2024-07-14T08:45:38Z</time>
      </trkpt>
      <trkpt lat="44.7831" lon="0.5035">
        <ele>140.6</ele>
        <time>2024-07-14T08:45:40Z</time>
      </trkpt>
      <trkpt lat="44.78312" lon="0.50348">
        <ele>140.7</ele>
        <time>2024-07-14T08:45:41Z</time>
      </trkpt>
      <trkpt lat="44.78314" lon="0.50347">
        <ele>140.8</ele>
        <time>2024-07-14T08:45:42Z</time>
      </trkpt>
      <trkpt lat="44.78318" lon="0.50344">
        <ele>141</ele>
        <time>2024-07-14T08:45:44Z</time>
      </trkpt>
      <trkpt lat="44.78322" lon="0.50342">
        <ele>141.2</ele>
        <time>2024-07-14T08:45:46Z</time>
      </trkpt>
      <trkpt lat="44.78324" lon="0.50341">
        <ele>141.2</ele>
        <time>2024-07-14T08:45:47Z</time>
      </trkpt>
      <trkpt lat="44.78326" lon="0.5034">
        <ele>141.3</ele>
        <time>2024-07-14T08:45:48Z</time>
      </trkpt>
      <trkpt lat="44.7833" lon="0.50339">
        <ele>141.5</ele>
        <time>2024-07-14T08:45:50Z</time>
      </trkpt>
      <trkpt lat="44.78333" lon="0.50338">
        <ele>141.6</ele>
        <time>2024-07-14T08:45:51Z</time>
      </trkpt>
      <trkpt lat="44.78335" lon="0.50336">
        <ele>141.8</ele>
        <time>2024-07-14T08:45:52Z</time>
      </trkpt>
      <trkpt lat="44.78338" lon="0.50334">
        <ele>142</ele>
        <time>2024-07-14T08:45:54Z</time>
      </trkpt>
      <trkpt lat="44.78342" lon="0.50332">
        <ele>142.1</ele>
        <time>2024-07-14T08:45:56Z</time>
      </trkpt>
      <trkpt lat="44.78344" lon="0.50332">
        <ele>142.3</ele>
        <time>2024-07-14T08:45:57Z</time>
      </trkpt>
      <trkpt lat="44.78346" lon="0.50332">
        <ele>142.4</ele>
        <time>2024-07-14T08:45:58Z</time>
      </trkpt>
      <trkpt lat="44.78348" lon="0.50331">
        <ele>142.5</ele>
        <time>2024-07-14T08:46:00Z</time>
      </trkpt>
      <trkpt lat="44.7835" lon="0.50331">
        <ele>142.6</ele>
        <time>2024-07-14T08:46:01Z</time>
      </trkpt>
      <trkpt lat="44.78352" lon="0.5033">
        <ele>142.7</ele>
        <time>2024-07-14T08:46:02Z</time>
      </trkpt>
      <trkpt lat="44.78355" lon="0.50328">
        <ele>143</ele>
        <time>2024-07-14T08:46:04Z</time>
      </trkpt>
      <trkpt lat="44.78357" lon="0.50326">
        <ele>143.2</ele>
        <time>2024-07-14T08:46:06Z</time>
      </trkpt>
      <trkpt lat="44.78358" lon="0.50325">
        <ele>143.2</ele>
        <time>2024-07-14T08:46:07Z</time>
      </trkpt>
      <trkpt lat="44.78359" lon="0.50325">
        <ele>143.3</ele>
        <time>2024-07-14T08:46:08Z</time>
      </trkpt>
      <trkpt lat="44.78361" lon="0.50323">
        <ele>143.5</ele>
        <time>2024-07-14T08:46:10Z</time>
      </trkpt>
      <trkpt lat="44.78362" lon="0.50322">
        <ele>143.6</ele>
        <time>2024-07-14T08:46:11Z</time>
      </trkpt>
      <trkpt lat="44.78363" lon="0.50321">
        <ele>143.7</ele>
        <time>2024-07-14T08:46:12Z</time>
      </trkpt>
      <trkpt lat="44.78366" lon="0.50319">
        <ele>143.9</ele>
        <time>2024-07-14T08:46:14Z</time>
      </trkpt>
      <trkpt lat="44.78366" lon="0.50319">
        <ele>144</ele>
        <time>2024-07-14T08:46:15Z</time>
      </trkpt>
      <trkpt lat="44.78386" lon="0.50303">
        <ele>146.2</ele>
        <time>2024-07-14T08:46:32Z</time>
      </trkpt>
      <trkpt lat="44.78389" lon="0.50301">
        <ele>146.6</ele>
        <time>2024-07-14T08:46:34Z</time>
      </trkpt>
      <trkpt lat="44.7839" lon="0.503">
        <ele>146.8</ele>
        <time>2024-07-14T08:46:35Z</time>
      </trkpt>
      <trkpt lat="44.78391" lon="0.50298">
        <ele>147</ele>
        <time>2024-07-14T08:46:36Z</time>
      </trkpt>
      <trkpt lat="44.78391" lon="0.50297">
        <ele>147.1</ele>
        <time>2024-07-14T08:46:37Z</time>
      </trkpt>
      <trkpt lat="44.78392" lon="0.50296">
        <ele>147.2</ele>
        <time>2024-07-14T08:46:38Z</time>
      </trkpt>
      <trkpt lat="44.78394" lon="0.50295">
        <ele>147.4</ele>
        <time>2024-07-14T08:46:39Z</time>
      </trkpt>
      <trkpt lat="44.78395" lon="0.50294">
        <ele>147.6</ele>
        <time>2024-07-14T08:46:40Z</time>
      </trkpt>
      <trkpt lat="44.78396" lon="0.50292">
        <ele>147.9</ele>
        <time>2024-07-14T08:46:42Z</time>
      </trkpt>
      <trkpt lat="44.78399" lon="0.5029">
        <ele>148.3</ele>
        <time>2024-07-14T08:46:44Z</time>
      </trkpt>
      <trkpt lat="44.784" lon="0.50289">
        <ele>148.5</ele>
        <time>2024-07-14T08:46:45Z</time>
      </trkpt>
      <trkpt lat="44.78401" lon="0.50287">
        <ele>148.8</ele>
        <time>2024-07-14T08:46:46Z</time>
      </trkpt>
      <trkpt lat="44.78403" lon="0.50284">
        <ele>149.2</ele>
        <time>2024-07-14T08:46:48Z</time>
      </trkpt>
      <trkpt lat="44.78405" lon="0.50281">
        <ele>149.6</ele>
        <time>2024-07-14T08:46:50Z</time>
      </trkpt>
      <trkpt lat="44.78406" lon="0.5028">
        <ele>149.9</ele>
        <time>2024-07-14T08:46:51Z</time>
      </trkpt>
      <trkpt lat="44.78408" lon="0.50279">
        <ele>150.1</ele>
        <time>2024-07-14T08:46:53Z</time>
      </trkpt>
      <trkpt lat="44.78411" lon="0.50277">
        <ele>150.7</ele>
        <time>2024-07-14T08:46:56Z</time>
      </trkpt>
      <trkpt lat="44.78413" lon="0.50276">
        <ele>150.9</ele>
        <time>2024-07-14T08:46:57Z</time>
      </trkpt>
      <trkpt lat="44.78415" lon="0.50276">
        <ele>151.2</ele>
        <time>2024-07-14T08:46:58Z</time>
      </trkpt>
      <trkpt lat="44.78418" lon="0.50274">
        <ele>151.7</ele>
        <time>2024-07-14T08:47:00Z</time>
      </trkpt>
      <trkpt lat="44.7842" lon="0.50274">
        <ele>151.9</ele>
        <time>2024-07-14T08:47:02Z</time>
      </trkpt>
      <trkpt lat="44.78421" lon="0.50272">
        <ele>152.1</ele>
        <time>2024-07-14T08:47:03Z</time>
      </trkpt>
      <trkpt lat="44.78423" lon="0.5027">
        <ele>152.3</ele>
        <time>2024-07-14T08:47:05Z</time>
      </trkpt>
      <trkpt lat="44.78425" lon="0.50268">
        <ele>152.7</ele>
        <time>2024-07-14T08:47:07Z</time>
      </trkpt>
      <trkpt lat="44.78427" lon="0.50265">
        <ele>153</ele>
        <time>2024-07-14T08:47:09Z</time>
      </trkpt>
      <trkpt lat="44.7843" lon="0.50262">
        <ele>153.4</ele>
        <time>2024-07-14T08:47:11Z</time>
      </trkpt>
      <trkpt lat="44.78431" lon="0.5026">
        <ele>153.6</ele>
        <time>2024-07-14T08:47:12Z</time>
      </trkpt>
      <trkpt lat="44.78432" lon="0.50259">
        <ele>153.7</ele>
        <time>2024-07-14T08:47:13Z</time>
      </trkpt>
      <trkpt lat="44.78434" lon="0.50256">
        <ele>154.1</ele>
        <time>2024-07-14T08:47:15Z</time>
      </trkpt>
      <trkpt lat="44.78435" lon="0.50253">
        <ele>154.3</ele>
        <time>2024-07-14T08:47:17Z</time>
      </trkpt>
      <trkpt lat="44.78436" lon="0.50251">
        <ele>154.5</ele>
        <time>2024-07-14T08:47:19Z</time>
      </trkpt>
      <trkpt lat="44.78438" lon="0.5025">
        <ele>154.7</ele>
        <time>2024-07-14T08:47:20Z</time>
      </trkpt>
      <trkpt lat="44.78439" lon="0.50249">
        <ele>154.9</ele>
        <time>2024-07-14T08:47:21Z</time>
      </trkpt>
      <trkpt lat="44.78441" lon="0.50247">
        <ele>155.2</ele>
        <time>2024-07-14T08:47:23Z</time>
      </trkpt>
      <trkpt lat="44.78442" lon="0.50246">
        <ele>155.3</ele>
        <time>2024-07-14T08:47:24Z</time>
      </trkpt>
      <trkpt lat="44.78442" lon="0.50245">
        <ele>155.4</ele>
        <time>2024-07-14T08:47:25Z</time>
      </trkpt>
      <trkpt lat="44.78445" lon="0.50244">
        <ele>155.8</ele>
        <time>2024-07-14T08:47:27Z</time>
      </trkpt>
      <trkpt lat="44.78448" lon="0.50242">
        <ele>156.2</ele>
        <time>2024-07-14T08:47:29Z</time>
      </trkpt>
      <trkpt lat="44.7845" lon="0.50241">
        <ele>156.5</ele>
        <time>2024-07-14T08:47:30Z</time>
      </trkpt>
      <trkpt lat="44.7845" lon="0.50239">
        <ele>156.6</ele>
        <time>2024-07-14T08:47:31Z</time>
      </trkpt>
      <trkpt lat="44.78451" lon="0.50237">
        <ele>156.8</ele>
        <time>2024-07-14T08:47:32Z</time>
      </trkpt>
      <trkpt lat="44.78452" lon="0.50236">
        <ele>157</ele>
        <time>2024-07-14T08:47:33Z</time>
      </trkpt>
      <trkpt lat="44.78454" lon="0.50234">
        <ele>157.3</ele>
        <time>2024-07-14T08:47:35Z</time>
      </trkpt>
      <trkpt lat="44.78456" lon="0.5023">
        <ele>157.7</ele>
        <time>2024-07-14T08:47:37Z</time>
      </trkpt>
      <trkpt lat="44.7846" lon="0.50228">
        <ele>158.2</ele>
        <time>2024-07-14T08:47:39Z</time>
      </trkpt>
      <trkpt lat="44.78464" lon="0.50226">
        <ele>158.7</ele>
        <time>2024-07-14T08:47:41Z</time>
      </trkpt>
      <trkpt lat="44.78465" lon="0.50226">
        <ele>158.9</ele>
        <time>2024-07-14T08:47:42Z</time>
      </trkpt>
      <trkpt lat="44.78466" lon="0.50224">
        <ele>159</ele>
        <time>2024-07-14T08:47:43Z</time>
      </trkpt>
      <trkpt lat="44.78466" lon="0.50223">
        <ele>159.1</ele>
        <time>2024-07-14T08:47:44Z</time>
      </trkpt>
      <trkpt lat="44.78467" lon="0.50221">
        <ele>159.3</ele>
        <time>2024-07-14T08:47:45Z</time>
      </trkpt>
      <trkpt lat="44.78467" lon="0.50218">
        <ele>159.5</ele>
        <time>2024-07-14T08:47:46Z</time>
      </trkpt>
      <trkpt lat="44.78466" lon="0.50216">
        <ele>159.7</ele>
        <time>2024-07-14T08:47:47Z</time>
      </trkpt>
      <trkpt lat="44.78465" lon="0.50214">
        <ele>159.8</ele>
        <time>2024-07-14T08:47:48Z</time>
      </trkpt>
      <trkpt lat="44.78464" lon="0.50213">
        <ele>160</ele>
        <time>2024-07-14T08:47:49Z</time>
      </trkpt>
      <trkpt lat="44.78464" lon="0.50212">
        <ele>160.1</ele>
        <time>2024-07-14T08:47:50Z</time>
      </trkpt>
      <trkpt lat="44.78463" lon="0.5021">
        <ele>160.2</ele>
        <time>2024-07-14T08:47:51Z</time>
      </trkpt>
      <trkpt lat="44.78462" lon="0.50208">
        <ele>160.3</ele>
        <time>2024-07-14T08:47:52Z</time>
      </trkpt>
      <trkpt lat="44.78462" lon="0.50207">
        <ele>160.4</ele>
        <time>2024-07-14T08:47:53Z</time>
      </trkpt>
      <trkpt lat="44.78461" lon="0.50203">
        <ele>160.7</ele>
        <time>2024-07-14T08:47:55Z</time>
      </trkpt>
      <trkpt lat="44.78457" lon="0.502">
        <ele>161</ele>
        <time>2024-07-14T08:47:57Z</time>
      </trkpt>
      <trkpt lat="44.78455" lon="0.50198">
        <ele>161.1</ele>
        <time>2024-07-14T08:47:58Z</time>
      </trkpt>
      <trkpt lat="44.78454" lon="0.50196">
        <ele>161.3</ele>
        <time>2024-07-14T08:47:59Z</time>
      </trkpt>
      <trkpt lat="44.78452" lon="0.50194">
        <ele>161.4</ele>
        <time>2024-07-14T08:48:00Z</time>
      </trkpt>
      <trkpt lat="44.78451" lon="0.50192">
        <ele>161.5</ele>
        <time>2024-07-14T08:48:01Z</time>
      </trkpt>
      <trkpt lat="44.7845" lon="0.50188">
        <ele>161.7</ele>
        <time>2024-07-14T08:48:03Z</time>
      </trkpt>
      <trkpt lat="44.7845" lon="0.50185">
        <ele>161.8</ele>
        <time>2024-07-14T08:48:04Z</time>
      </trkpt>
      <trkpt lat="44.78451" lon="0.50183">
        <ele>162</ele>
        <time>2024-07-14T08:48:05Z</time>
      </trkpt>
      <trkpt lat="44.78454" lon="0.5018">
        <ele>162.3</ele>
        <time>2024-07-14T08:48:07Z</time>
      </trkpt>
      <trkpt lat="44.78458" lon="0.5018">
        <ele>162.4</ele>
        <time>2024-07-14T08:48:09Z</time>
      </trkpt>
      <trkpt lat="44.78462" lon="0.50181">
        <ele>162.5</ele>
        <time>2024-07-14T08:48:11Z</time>
      </trkpt>
      <trkpt lat="44.78467" lon="0.50181">
        <ele>162.7</ele>
        <time>2024-07-14T08:48:13Z</time>
      </trkpt>
      <trkpt lat="44.78471" lon="0.50181">
        <ele>162.8</ele>
        <time>2024-07-14T08:48:15Z</time>
      </trkpt>
      <trkpt lat="44.78474" lon="0.50181">
        <ele>162.9</ele>
        <time>2024-07-14T08:48:17Z</time>
      </trkpt>
      <trkpt lat="44.78477" lon="0.50181">
        <ele>163.1</ele>
        <time>2024-07-14T08:48:19Z</time>
      </trkpt>
      <trkpt lat="44.78481" lon="0.50182">
        <ele>163.2</ele>
        <time>2024-07-14T08:48:21Z</time>
      </trkpt>
      <trkpt lat="44.78485" lon="0.50182">
        <ele>163.4</ele>
        <time>2024-07-14T08:48:23Z</time>
      </trkpt>
      <trkpt lat="44.7849" lon="0.50182">
        <ele>163.6</ele>
        <time>2024-07-14T08:48:25Z</time>
      </trkpt>
      <trkpt lat="44.78494" lon="0.50181">
        <ele>163.7</ele>
        <time>2024-07-14T08:48:27Z</time>
      </trkpt>
      <trkpt lat="44.78498" lon="0.50181">
        <ele>163.8</ele>
        <time>2024-07-14T08:48:29Z</time>
      </trkpt>
      <trkpt lat="44.78502" lon="0.50182">
        <ele>164</ele>
        <time>2024-07-14T08:48:31Z</time>
      </trkpt>
      <trkpt lat="44.78503" lon="0.50181">
        <ele>164</ele>
        <time>2024-07-14T08:48:32Z</time>
      </trkpt>
      <trkpt lat="44.78505" lon="0.50181">
        <ele>164.1</ele>
        <time>2024-07-14T08:48:33Z</time>
      </trkpt>
      <trkpt lat="44.78509" lon="0.5018">
        <ele>164.3</ele>
        <time>2024-07-14T08:48:35Z</time>
      </trkpt>
      <trkpt lat="44.78512" lon="0.5018">
        <ele>164.3</ele>
        <time>2024-07-14T08:48:36Z</time>
      </trkpt>
      <trkpt lat="44.78515" lon="0.5018">
        <ele>164.4</ele>
        <time>2024-07-14T08:48:37Z</time>
      </trkpt>
      <trkpt lat="44.78519" lon="0.5018">
        <ele>164.6</ele>
        <time>2024-07-14T08:48:39Z</time>
      </trkpt>
      <trkpt lat="44.78523" lon="0.5018">
        <ele>164.8</ele>
        <time>2024-07-14T08:48:41Z</time>
      </trkpt>
      <trkpt lat="44.78527" lon="0.5018">
        <ele>164.9</ele>
        <time>2024-07-14T08:48:43Z</time>
      </trkpt>
      <trkpt lat="44.78529" lon="0.5018">
        <ele>165</ele>
        <time>2024-07-14T08:48:44Z</time>
      </trkpt>
      <trkpt lat="44.78532" lon="0.50181">
        <ele>165.1</ele>
        <time>2024-07-14T08:48:45Z</time>
      </trkpt>
      <trkpt lat="44.78537" lon="0.50182">
        <ele>165.3</ele>
        <time>2024-07-14T08:48:47Z</time>
      </trkpt>
      <trkpt lat="44.78541" lon="0.50183">
        <ele>165.4</ele>
        <time>2024-07-14T08:48:49Z</time>
      </trkpt>
      <trkpt lat="44.78546" lon="0.50183">
        <ele>165.6</ele>
        <time>2024-07-14T08:48:51Z</time>
      </trkpt>
      <trkpt lat="44.78552" lon="0.50183">
        <ele>165.8</ele>
        <time>2024-07-14T08:48:53Z</time>
      </trkpt>
      <trkpt lat="44.78555" lon="0.50183">
        <ele>165.9</ele>
        <time>2024-07-14T08:48:54Z</time>
      </trkpt>
      <trkpt lat="44.78558" lon="0.50184">
        <ele>166</ele>
        <time>2024-07-14T08:48:55Z</time>
      </trkpt>
      <trkpt lat="44.78563" lon="0.50185">
        <ele>166.3</ele>
        <time>2024-07-14T08:48:57Z</time>
      </trkpt>
      <trkpt lat="44.78569" lon="0.50185">
        <ele>166.5</ele>
        <time>2024-07-14T08:48:59Z</time>
      </trkpt>
      <trkpt lat="44.78575" lon="0.50185">
        <ele>166.8</ele>
        <time>2024-07-14T08:49:01Z</time>
      </trkpt>
      <trkpt lat="44.78581" lon="0.50185">
        <ele>167</ele>
        <time>2024-07-14T08:49:03Z</time>
      </trkpt>
      <trkpt lat="44.78587" lon="0.50186">
        <ele>167.3</ele>
        <time>2024-07-14T08:49:05Z</time>
      </trkpt>
      <trkpt lat="44.7859" lon="0.50187">
        <ele>167.5</ele>
        <time>2024-07-14T08:49:06Z</time>
      </trkpt>
      <trkpt lat="44.78593" lon="0.50187">
        <ele>167.6</ele>
        <time>2024-07-14T08:49:07Z</time>
      </trkpt>
      <trkpt lat="44.78599" lon="0.50187">
        <ele>167.9</ele>
        <time>2024-07-14T08:49:09Z</time>
      </trkpt>
      <trkpt lat="44.78605" lon="0.50188">
        <ele>168.1</ele>
        <time>2024-07-14T08:49:11Z</time>
      </trkpt>
      <trkpt lat="44.78612" lon="0.5019">
        <ele>168.4</ele>
        <time>2024-07-14T08:49:13Z</time>
      </trkpt>
      <trkpt lat="44.78615" lon="0.5019">
        <ele>168.6</ele>
        <time>2024-07-14T08:49:14Z</time>
      </trkpt>
      <trkpt lat="44.78618" lon="0.50191">
        <ele>168.7</ele>
        <time>2024-07-14T08:49:15Z</time>
      </trkpt>
      <trkpt lat="44.78625" lon="0.50192">
        <ele>169.1</ele>
        <time>2024-07-14T08:49:17Z</time>
      </trkpt>
      <trkpt lat="44.78631" lon="0.50194">
        <ele>169.3</ele>
        <time>2024-07-14T08:49:19Z</time>
      </trkpt>
      <trkpt lat="44.78637" lon="0.50196">
        <ele>169.5</ele>
        <time>2024-07-14T08:49:21Z</time>
      </trkpt>
      <trkpt lat="44.7864" lon="0.50197">
        <ele>169.6</ele>
        <time>2024-07-14T08:49:22Z</time>
      </trkpt>
      <trkpt lat="44.78643" lon="0.50198">
        <ele>169.7</ele>
        <time>2024-07-14T08:49:23Z</time>
      </trkpt>
      <trkpt lat="44.78649" lon="0.502">
        <ele>169.8</ele>
        <time>2024-07-14T08:49:25Z</time>
      </trkpt>
      <trkpt lat="44.78656" lon="0.50201">
        <ele>169.9</ele>
        <time>2024-07-14T08:49:27Z</time>
      </trkpt>
      <trkpt lat="44.78662" lon="0.50203">
        <ele>170</ele>
        <time>2024-07-14T08:49:29Z</time>
      </trkpt>
      <trkpt lat="44.78669" lon="0.50204">
        <ele>170.2</ele>
        <time>2024-07-14T08:49:31Z</time>
      </trkpt>
      <trkpt lat="44.78675" lon="0.50206">
        <ele>170.3</ele>
        <time>2024-07-14T08:49:33Z</time>
      </trkpt>
      <trkpt lat="44.78682" lon="0.50208">
        <ele>170.4</ele>
        <time>2024-07-14T08:49:35Z</time>
      </trkpt>
      <trkpt lat="44.78689" lon="0.50209">
        <ele>170.5</ele>
        <time>2024-07-14T08:49:37Z</time>
      </trkpt>
      <trkpt lat="44.78696" lon="0.5021">
        <ele>170.6</ele>
        <time>2024-07-14T08:49:39Z</time>
      </trkpt>
      <trkpt lat="44.78703" lon="0.50212">
        <ele>170.7</ele>
        <time>2024-07-14T08:49:41Z</time>
      </trkpt>
      <trkpt lat="44.78709" lon="0.50212">
        <ele>170.8</ele>
        <time>2024-07-14T08:49:43Z</time>
      </trkpt>
      <trkpt lat="44.78715" lon="0.50213">
        <ele>170.9</ele>
        <time>2024-07-14T08:49:45Z</time>
      </trkpt>
      <trkpt lat="44.78721" lon="0.50214">
        <ele>171</ele>
        <time>2024-07-14T08:49:47Z</time>
      </trkpt>
      <trkpt lat="44.78727" lon="0.50218">
        <ele>171.2</ele>
        <time>2024-07-14T08:49:49Z</time>
      </trkpt>
      <trkpt lat="44.7873" lon="0.50219">
        <ele>171.3</ele>
        <time>2024-07-14T08:49:50Z</time>
      </trkpt>
      <trkpt lat="44.78733" lon="0.50221">
        <ele>171.4</ele>
        <time>2024-07-14T08:49:51Z</time>
      </trkpt>
      <trkpt lat="44.78739" lon="0.50223">
        <ele>171.6</ele>
        <time>2024-07-14T08:49:53Z</time>
      </trkpt>
      <trkpt lat="44.78745" lon="0.50225">
        <ele>171.7</ele>
        <time>2024-07-14T08:49:55Z</time>
      </trkpt>
      <trkpt lat="44.78751" lon="0.50227">
        <ele>171.9</ele>
        <time>2024-07-14T08:49:57Z</time>
      </trkpt>
      <trkpt lat="44.78754" lon="0.50229">
        <ele>171.9</ele>
        <time>2024-07-14T08:49:58Z</time>
      </trkpt>
      <trkpt lat="44.78757" lon="0.5023">
        <ele>172</ele>
        <time>2024-07-14T08:49:59Z</time>
      </trkpt>
      <trkpt lat="44.78763" lon="0.50231">
        <ele>172.2</ele>
        <time>2024-07-14T08:50:01Z</time>
      </trkpt>
      <trkpt lat="44.78769" lon="0.50233">
        <ele>172.3</ele>
        <time>2024-07-14T08:50:03Z</time>
      </trkpt>
      <trkpt lat="44.78772" lon="0.50234">
        <ele>172.4</ele>
        <time>2024-07-14T08:50:04Z</time>
      </trkpt>
      <trkpt lat="44.78775" lon="0.50235">
        <ele>172.4</ele>
        <time>2024-07-14T08:50:05Z</time>
      </trkpt>
      <trkpt lat="44.78781" lon="0.50238">
        <ele>172.5</ele>
        <time>2024-07-14T08:50:07Z</time>
      </trkpt>
      <trkpt lat="44.78787" lon="0.50241">
        <ele>172.6</ele>
        <time>2024-07-14T08:50:09Z</time>
      </trkpt>
      <trkpt lat="44.7879" lon="0.50242">
        <ele>172.7</ele>
        <time>2024-07-14T08:50:10Z</time>
      </trkpt>
      <trkpt lat="44.78793" lon="0.50244">
        <ele>172.7</ele>
        <time>2024-07-14T08:50:11Z</time>
      </trkpt>
      <trkpt lat="44.78799" lon="0.50247">
        <ele>172.8</ele>
        <time>2024-07-14T08:50:13Z</time>
      </trkpt>
      <trkpt lat="44.78806" lon="0.5025">
        <ele>172.8</ele>
        <time>2024-07-14T08:50:15Z</time>
      </trkpt>
      <trkpt lat="44.78812" lon="0.50253">
        <ele>172.8</ele>
        <time>2024-07-14T08:50:17Z</time>
      </trkpt>
      <trkpt lat="44.78815" lon="0.50255">
        <ele>172.8</ele>
        <time>2024-07-14T08:50:18Z</time>
      </trkpt>
      <trkpt lat="44.78818" lon="0.50256">
        <ele>172.8</ele>
        <time>2024-07-14T08:50:19Z</time>
      </trkpt>
      <trkpt lat="44.78825" lon="0.50259">
        <ele>172.7</ele>
        <time>2024-07-14T08:50:21Z</time>
      </trkpt>
      <trkpt lat="44.78833" lon="0.50262">
        <ele>172.7</ele>
        <time>2024-07-14T08:50:23Z</time>
      </trkpt>
      <trkpt lat="44.78839" lon="0.50266">
        <ele>172.7</ele>
        <time>2024-07-14T08:50:25Z</time>
      </trkpt>
      <trkpt lat="44.78845" lon="0.50269">
        <ele>172.6</ele>
        <time>2024-07-14T08:50:27Z</time>
      </trkpt>
      <trkpt lat="44.78851" lon="0.50273">
        <ele>172.6</ele>
        <time>2024-07-14T08:50:29Z</time>
      </trkpt>
      <trkpt lat="44.78858" lon="0.50277">
        <ele>172.6</ele>
        <time>2024-07-14T08:50:31Z</time>
      </trkpt>
      <trkpt lat="44.78861" lon="0.50278">
        <ele>172.6</ele>
        <time>2024-07-14T08:50:32Z</time>
      </trkpt>
      <trkpt lat="44.78865" lon="0.5028">
        <ele>172.6</ele>
        <time>2024-07-14T08:50:33Z</time>
      </trkpt>
      <trkpt lat="44.78872" lon="0.50283">
        <ele>172.5</ele>
        <time>2024-07-14T08:50:35Z</time>
      </trkpt>
      <trkpt lat="44.78878" lon="0.50286">
        <ele>172.5</ele>
        <time>2024-07-14T08:50:37Z</time>
      </trkpt>
      <trkpt lat="44.78885" lon="0.50289">
        <ele>172.5</ele>
        <time>2024-07-14T08:50:39Z</time>
      </trkpt>
      <trkpt lat="44.78891" lon="0.50293">
        <ele>172.5</ele>
        <time>2024-07-14T08:50:41Z</time>
      </trkpt>
      <trkpt lat="44.78898" lon="0.50295">
        <ele>172.5</ele>
        <time>2024-07-14T08:50:43Z</time>
      </trkpt>
      <trkpt lat="44.78904" lon="0.50299">
        <ele>172.6</ele>
        <time>2024-07-14T08:50:45Z</time>
      </trkpt>
      <trkpt lat="44.7891" lon="0.50302">
        <ele>172.6</ele>
        <time>2024-07-14T08:50:47Z</time>
      </trkpt>
      <trkpt lat="44.78916" lon="0.50306">
        <ele>172.7</ele>
        <time>2024-07-14T08:50:49Z</time>
      </trkpt>
      <trkpt lat="44.7892" lon="0.50308">
        <ele>172.7</ele>
        <time>2024-07-14T08:50:50Z</time>
      </trkpt>
      <trkpt lat="44.78922" lon="0.5031">
        <ele>172.8</ele>
        <time>2024-07-14T08:50:51Z</time>
      </trkpt>
      <trkpt lat="44.78928" lon="0.50316">
        <ele>172.8</ele>
        <time>2024-07-14T08:50:53Z</time>
      </trkpt>
      <trkpt lat="44.7893" lon="0.5032">
        <ele>172.9</ele>
        <time>2024-07-14T08:50:54Z</time>
      </trkpt>
      <trkpt lat="44.7893" lon="0.50324">
        <ele>172.8</ele>
        <time>2024-07-14T08:50:55Z</time>
      </trkpt>
      <trkpt lat="44.78927" lon="0.50333">
        <ele>172.6</ele>
        <time>2024-07-14T08:50:57Z</time>
      </trkpt>
      <trkpt lat="44.78923" lon="0.50341">
        <ele>172.4</ele>
        <time>2024-07-14T08:50:59Z</time>
      </trkpt>
      <trkpt lat="44.78919" lon="0.5035">
        <ele>172.2</ele>
        <time>2024-07-14T08:51:01Z</time>
      </trkpt>
      <trkpt lat="44.78915" lon="0.50359">
        <ele>171.9</ele>
        <time>2024-07-14T08:51:03Z</time>
      </trkpt>
      <trkpt lat="44.78913" lon="0.50364">
        <ele>171.7</ele>
        <time>2024-07-14T08:51:04Z</time>
      </trkpt>
      <trkpt lat="44.78911" lon="0.50369">
        <ele>171.6</ele>
        <time>2024-07-14T08:51:05Z</time>
      </trkpt>
      <trkpt lat="44.78907" lon="0.50381">
        <ele>171.2</ele>
        <time>2024-07-14T08:51:07Z</time>
      </trkpt>
      <trkpt lat="44.78902" lon="0.50393">
        <ele>170.8</ele>
        <time>2024-07-14T08:51:09Z</time>
      </trkpt>
      <trkpt lat="44.78897" lon="0.50406">
        <ele>170.3</ele>
        <time>2024-07-14T08:51:11Z</time>
      </trkpt>
      <trkpt lat="44.7889" lon="0.50419">
        <ele>169.8</ele>
        <time>2024-07-14T08:51:13Z</time>
      </trkpt>
      <trkpt lat="44.78887" lon="0.50425">
        <ele>169.5</ele>
        <time>2024-07-14T08:51:14Z</time>
      </trkpt>
      <trkpt lat="44.78883" lon="0.50431">
        <ele>169.2</ele>
        <time>2024-07-14T08:51:15Z</time>
      </trkpt>
      <trkpt lat="44.78874" lon="0.50443">
        <ele>168.6</ele>
        <time>2024-07-14T08:51:17Z</time>
      </trkpt>
      <trkpt lat="44.78863" lon="0.50453">
        <ele>168.1</ele>
        <time>2024-07-14T08:51:19Z</time>
      </trkpt>
      <trkpt lat="44.78858" lon="0.50458">
        <ele>167.8</ele>
        <time>2024-07-14T08:51:20Z</time>
      </trkpt>
      <trkpt lat="44.78852" lon="0.50464">
        <ele>167.5</ele>
        <time>2024-07-14T08:51:21Z</time>
      </trkpt>
      <trkpt lat="44.78842" lon="0.50473">
        <ele>167</ele>
        <time>2024-07-14T08:51:23Z</time>
      </trkpt>
      <trkpt lat="44.78831" lon="0.50483">
        <ele>166.5</ele>
        <time>2024-07-14T08:51:25Z</time>
      </trkpt>
      <trkpt lat="44.7882" lon="0.50494">
        <ele>165.9</ele>
        <time>2024-07-14T08:51:27Z</time>
      </trkpt>
      <trkpt lat="44.78815" lon="0.505">
        <ele>165.7</ele>
        <time>2024-07-14T08:51:28Z</time>
      </trkpt>
      <trkpt lat="44.7881" lon="0.50507">
        <ele>165.5</ele>
        <time>2024-07-14T08:51:29Z</time>
      </trkpt>
      <trkpt lat="44.78806" lon="0.50514">
        <ele>165.3</ele>
        <time>2024-07-14T08:51:30Z</time>
      </trkpt>
      <trkpt lat="44.78803" lon="0.50522">
        <ele>165.1</ele>
        <time>2024-07-14T08:51:31Z</time>
      </trkpt>
      <trkpt lat="44.788" lon="0.50529">
        <ele>165</ele>
        <time>2024-07-14T08:51:32Z</time>
      </trkpt>
      <trkpt lat="44.78797" lon="0.50537">
        <ele>164.9</ele>
        <time>2024-07-14T08:51:33Z</time>
      </trkpt>
      <trkpt lat="44.78792" lon="0.50552">
        <ele>164.6</ele>
        <time>2024-07-14T08:51:35Z</time>
      </trkpt>
      <trkpt lat="44.78791" lon="0.50559">
        <ele>164.5</ele>
        <time>2024-07-14T08:51:36Z</time>
      </trkpt>
      <trkpt lat="44.78791" lon="0.50565">
        <ele>164.4</ele>
        <time>2024-07-14T08:51:37Z</time>
      </trkpt>
      <trkpt lat="44.78794" lon="0.50571">
        <ele>164.4</ele>
        <time>2024-07-14T08:51:38Z</time>
      </trkpt>
      <trkpt lat="44.78799" lon="0.50575">
        <ele>164.4</ele>
        <time>2024-07-14T08:51:39Z</time>
      </trkpt>
      <trkpt lat="44.78803" lon="0.50578">
        <ele>164.4</ele>
        <time>2024-07-14T08:51:40Z</time>
      </trkpt>
      <trkpt lat="44.78806" lon="0.50581">
        <ele>164.3</ele>
        <time>2024-07-14T08:51:41Z</time>
      </trkpt>
      <trkpt lat="44.78813" lon="0.50586">
        <ele>164.2</ele>
        <time>2024-07-14T08:51:43Z</time>
      </trkpt>
      <trkpt lat="44.7882" lon="0.50592">
        <ele>164.1</ele>
        <time>2024-07-14T08:51:45Z</time>
      </trkpt>
      <trkpt lat="44.78827" lon="0.50597">
        <ele>163.5</ele>
        <time>2024-07-14T08:51:47Z</time>
      </trkpt>
      <trkpt lat="44.78831" lon="0.506">
        <ele>163.5</ele>
        <time>2024-07-14T08:51:48Z</time>
      </trkpt>
      <trkpt lat="44.78835" lon="0.50601">
        <ele>163.4</ele>
        <time>2024-07-14T08:51:49Z</time>
      </trkpt>
      <trkpt lat="44.78839" lon="0.50601">
        <ele>163.3</ele>
        <time>2024-07-14T08:51:50Z</time>
      </trkpt>
      <trkpt lat="44.78844" lon="0.506">
        <ele>163.2</ele>
        <time>2024-07-14T08:51:51Z</time>
      </trkpt>
      <trkpt lat="44.78848" lon="0.50598">
        <ele>163</ele>
        <time>2024-07-14T08:51:52Z</time>
      </trkpt>
      <trkpt lat="44.78852" lon="0.50594">
        <ele>163.1</ele>
        <time>2024-07-14T08:51:53Z</time>
      </trkpt>
      <trkpt lat="44.78854" lon="0.50591">
        <ele>163.2</ele>
        <time>2024-07-14T08:51:54Z</time>
      </trkpt>
      <trkpt lat="44.78855" lon="0.50588">
        <ele>163.4</ele>
        <time>2024-07-14T08:51:55Z</time>
      </trkpt>
      <trkpt lat="44.78856" lon="0.50586">
        <ele>163.4</ele>
        <time>2024-07-14T08:51:56Z</time>
      </trkpt>
      <trkpt lat="44.78857" lon="0.50584">
        <ele>163.4</ele>
        <time>2024-07-14T08:51:57Z</time>
      </trkpt>
      <trkpt lat="44.78857" lon="0.50583">
        <ele>163.4</ele>
        <time>2024-07-14T08:51:58Z</time>
      </trkpt>
      <trkpt lat="44.78858" lon="0.50581">
        <ele>163.5</ele>
        <time>2024-07-14T08:51:59Z</time>
      </trkpt>
      <trkpt lat="44.78859" lon="0.50578">
        <ele>163.6</ele>
        <time>2024-07-14T08:52:01Z</time>
      </trkpt>
      <trkpt lat="44.78859" lon="0.50578">
        <ele>163.6</ele>
        <time>2024-07-14T08:52:03Z</time>
      </trkpt>
      <trkpt lat="44.78861" lon="0.5058">
        <ele>163.5</ele>
        <time>2024-07-14T08:57:00Z</time>
      </trkpt>
      <trkpt lat="44.78864" lon="0.50582">
        <ele>163.3</ele>
        <time>2024-07-14T08:57:01Z</time>
      </trkpt>
      <trkpt lat="44.78867" lon="0.50586">
        <ele>163.1</ele>
        <time>2024-07-14T08:57:02Z</time>
      </trkpt>
      <trkpt lat="44.78869" lon="0.50592">
        <ele>162.8</ele>
        <time>2024-07-14T08:57:03Z</time>
      </trkpt>
      <trkpt lat="44.78871" lon="0.50598">
        <ele>162.5</ele>
        <time>2024-07-14T08:57:04Z</time>
      </trkpt>
      <trkpt lat="44.78874" lon="0.50606">
        <ele>162.3</ele>
        <time>2024-07-14T08:57:05Z</time>
      </trkpt>
      <trkpt lat="44.78877" lon="0.50614">
        <ele>161.9</ele>
        <time>2024-07-14T08:57:06Z</time>
      </trkpt>
      <trkpt lat="44.7888" lon="0.50624">
        <ele>161.4</ele>
        <time>2024-07-14T08:57:07Z</time>
      </trkpt>
      <trkpt lat="44.78884" lon="0.50633">
        <ele>161</ele>
        <time>2024-07-14T08:57:08Z</time>
      </trkpt>
      <trkpt lat="44.78888" lon="0.50642">
        <ele>160.4</ele>
        <time>2024-07-14T08:57:09Z</time>
      </trkpt>
      <trkpt lat="44.78892" lon="0.5065">
        <ele>159.9</ele>
        <time>2024-07-14T08:57:10Z</time>
      </trkpt>
      <trkpt lat="44.78896" lon="0.50656">
        <ele>159.6</ele>
        <time>2024-07-14T08:57:11Z</time>
      </trkpt>
      <trkpt lat="44.78904" lon="0.5066">
        <ele>159.3</ele>
        <time>2024-07-14T08:57:13Z</time>
      </trkpt>
      <trkpt lat="44.7891" lon="0.50654">
        <ele>159.6</ele>
        <time>2024-07-14T08:57:15Z</time>
      </trkpt>
      <trkpt lat="44.78913" lon="0.5065">
        <ele>159.8</ele>
        <time>2024-07-14T08:57:16Z</time>
      </trkpt>
      <trkpt lat="44.78916" lon="0.50646">
        <ele>160</ele>
        <time>2024-07-14T08:57:17Z</time>
      </trkpt>
      <trkpt lat="44.78921" lon="0.50639">
        <ele>160.3</ele>
        <time>2024-07-14T08:57:19Z</time>
      </trkpt>
      <trkpt lat="44.78924" lon="0.50635">
        <ele>160.3</ele>
        <time>2024-07-14T08:57:20Z</time>
      </trkpt>
      <trkpt lat="44.78927" lon="0.50632">
        <ele>160.3</ele>
        <time>2024-07-14T08:57:21Z</time>
      </trkpt>
      <trkpt lat="44.78929" lon="0.50628">
        <ele>160.3</ele>
        <time>2024-07-14T08:57:22Z</time>
      </trkpt>
      <trkpt lat="44.7893" lon="0.50624">
        <ele>160.3</ele>
        <time>2024-07-14T08:57:23Z</time>
      </trkpt>
      <trkpt lat="44.78936" lon="0.50616">
        <ele>160.4</ele>
        <time>2024-07-14T08:57:25Z</time>
      </trkpt>
      <trkpt lat="44.7894" lon="0.50613">
        <ele>160.3</ele>
        <time>2024-07-14T08:57:26Z</time>
      </trkpt>
      <trkpt lat="44.7895" lon="0.50608">
        <ele>160.2</ele>
        <time>2024-07-14T08:57:27Z</time>
      </trkpt>
      <trkpt lat="44.78963" lon="0.50603">
        <ele>159.8</ele>
        <time>2024-07-14T08:57:29Z</time>
      </trkpt>
      <trkpt lat="44.78973" lon="0.50605">
        <ele>159.1</ele>
        <time>2024-07-14T08:57:31Z</time>
      </trkpt>
      <trkpt lat="44.78979" lon="0.50616">
        <ele>158.7</ele>
        <time>2024-07-14T08:57:33Z</time>
      </trkpt>
      <trkpt lat="44.78983" lon="0.5062">
        <ele>158.7</ele>
        <time>2024-07-14T08:57:34Z</time>
      </trkpt>
      <trkpt lat="44.78987" lon="0.50622">
        <ele>158.6</ele>
        <time>2024-07-14T08:57:35Z</time>
      </trkpt>
      <trkpt lat="44.78992" lon="0.50623">
        <ele>158.4</ele>
        <time>2024-07-14T08:57:36Z</time>
      </trkpt>
      <trkpt lat="44.78997" lon="0.50621">
        <ele>158.3</ele>
        <time>2024-07-14T08:57:37Z</time>
      </trkpt>
      <trkpt lat="44.79002" lon="0.50613">
        <ele>158.1</ele>
        <time>2024-07-14T08:57:39Z</time>
      </trkpt>
      <trkpt lat="44.7901" lon="0.50603">
        <ele>158</ele>
        <time>2024-07-14T08:57:41Z</time>
      </trkpt>
      <trkpt lat="44.79014" lon="0.50598">
        <ele>158</ele>
        <time>2024-07-14T08:57:43Z</time>
      </trkpt>
      <trkpt lat="44.79016" lon="0.50598">
        <ele>158</ele>
        <time>2024-07-14T08:57:44Z</time>
      </trkpt>
      <trkpt lat="44.79017" lon="0.506">
        <ele>158</ele>
        <time>2024-07-14T08:57:45Z</time>
      </trkpt>
      <trkpt lat="44.79019" lon="0.50606">
        <ele>158</ele>
        <time>2024-07-14T08:57:47Z</time>
      </trkpt>
      <trkpt lat="44.79021" lon="0.5061">
        <ele>158</ele>
        <time>2024-07-14T08:57:48Z</time>
      </trkpt>
      <trkpt lat="44.79022" lon="0.50615">
        <ele>158</ele>
        <time>2024-07-14T08:57:49Z</time>
      </trkpt>
      <trkpt lat="44.79027" lon="0.50622">
        <ele>157.9</ele>
        <time>2024-07-14T08:57:51Z</time>
      </trkpt>
      <trkpt lat="44.79032" lon="0.50629">
        <ele>157.9</ele>
        <time>2024-07-14T08:57:53Z</time>
      </trkpt>
      <trkpt lat="44.79036" lon="0.50636">
        <ele>157.9</ele>
        <time>2024-07-14T08:57:55Z</time>
      </trkpt>
      <trkpt lat="44.79037" lon="0.50644">
        <ele>157.8</ele>
        <time>2024-07-14T08:57:57Z</time>
      </trkpt>
      <trkpt lat="44.79035" lon="0.50653">
        <ele>157.9</ele>
        <time>2024-07-14T08:57:59Z</time>
      </trkpt>
      <trkpt lat="44.79033" lon="0.50664">
        <ele>158</ele>
        <time>2024-07-14T08:58:01Z</time>
      </trkpt>
      <trkpt lat="44.79034" lon="0.50668">
        <ele>158</ele>
        <time>2024-07-14T08:58:02Z</time>
      </trkpt>
      <trkpt lat="44.79036" lon="0.50673">
        <ele>158.1</ele>
        <time>2024-07-14T08:58:03Z</time>
      </trkpt>
      <trkpt lat="44.79039" lon="0.50677">
        <ele>158</ele>
        <time>2024-07-14T08:58:04Z</time>
      </trkpt>
      <trkpt lat="44.79041" lon="0.50681">
        <ele>158</ele>
        <time>2024-07-14T08:58:05Z</time>
      </trkpt>
      <trkpt lat="44.79044" lon="0.50691">
        <ele>157.9</ele>
        <time>2024-07-14T08:58:07Z</time>
      </trkpt>
      <trkpt lat="44.79047" lon="0.50696">
        <ele>157.8</ele>
        <time>2024-07-14T08:58:08Z</time>
      </trkpt>
      <trkpt lat="44.79049" lon="0.50701">
        <ele>157.7</ele>
        <time>2024-07-14T08:58:09Z</time>
      </trkpt>
      <trkpt lat="44.79052" lon="0.50707">
        <ele>157.7</ele>
        <time>2024-07-14T08:58:10Z</time>
      </trkpt>
      <trkpt lat="44.79055" lon="0.50711">
        <ele>157.7</ele>
        <time>2024-07-14T08:58:11Z</time>
      </trkpt>
      <trkpt lat="44.79062" lon="0.50719">
        <ele>157.7</ele>
        <time>2024-07-14T08:58:13Z</time>
      </trkpt>
      <trkpt lat="44.79065" lon="0.50723">
        <ele>157.7</ele>
        <time>2024-07-14T08:58:14Z</time>
      </trkpt>
      <trkpt lat="44.79069" lon="0.50727">
        <ele>157.6</ele>
        <time>2024-07-14T08:58:15Z</time>
      </trkpt>
      <trkpt lat="44.79073" lon="0.5073">
        <ele>157.6</ele>
        <time>2024-07-14T08:58:16Z</time>
      </trkpt>
      <trkpt lat="44.79077" lon="0.50733">
        <ele>157.5</ele>
        <time>2024-07-14T08:58:17Z</time>
      </trkpt>
      <trkpt lat="44.79082" lon="0.50735">
        <ele>157.4</ele>
        <time>2024-07-14T08:58:18Z</time>
      </trkpt>
      <trkpt lat="44.79085" lon="0.50738">
        <ele>157.4</ele>
        <time>2024-07-14T08:58:19Z</time>
      </trkpt>
      <trkpt lat="44.79089" lon="0.5074">
        <ele>157.3</ele>
        <time>2024-07-14T08:58:20Z</time>
      </trkpt>
      <trkpt lat="44.79093" lon="0.50742">
        <ele>157.3</ele>
        <time>2024-07-14T08:58:21Z</time>
      </trkpt>
      <trkpt lat="44.791" lon="0.50745">
        <ele>157.2</ele>
        <time>2024-07-14T08:58:23Z</time>
      </trkpt>
      <trkpt lat="44.79103" lon="0.50745">
        <ele>157.2</ele>
        <time>2024-07-14T08:58:24Z</time>
      </trkpt>
      <trkpt lat="44.79106" lon="0.50744">
        <ele>157.2</ele>
        <time>2024-07-14T08:58:25Z</time>
      </trkpt>
      <trkpt lat="44.79107" lon="0.50742">
        <ele>157.3</ele>
        <time>2024-07-14T08:58:26Z</time>
      </trkpt>
      <trkpt lat="44.79109" lon="0.5074">
        <ele>157.3</ele>
        <time>2024-07-14T08:58:27Z</time>
      </trkpt>
      <trkpt lat="44.79111" lon="0.50739">
        <ele>157.5</ele>
        <time>2024-07-14T08:58:28Z</time>
      </trkpt>
      <trkpt lat="44.79113" lon="0.50738">
        <ele>157.5</ele>
        <time>2024-07-14T08:58:29Z</time>
      </trkpt>
      <trkpt lat="44.79115" lon="0.50735">
        <ele>157.5</ele>
        <time>2024-07-14T08:58:31Z</time>
      </trkpt>
      <trkpt lat="44.79116" lon="0.50734">
        <ele>157.7</ele>
        <time>2024-07-14T08:58:32Z</time>
      </trkpt>
      <trkpt lat="44.79117" lon="0.50731">
        <ele>157.7</ele>
        <time>2024-07-14T08:58:33Z</time>
      </trkpt>
      <trkpt lat="44.7912" lon="0.50727">
        <ele>157.8</ele>
        <time>2024-07-14T08:58:35Z</time>
      </trkpt>
      <trkpt lat="44.79122" lon="0.50725">
        <ele>157.9</ele>
        <time>2024-07-14T08:58:37Z</time>
      </trkpt>
      <trkpt lat="44.79125" lon="0.50724">
        <ele>157.9</ele>
        <time>2024-07-14T08:58:38Z</time>
      </trkpt>
      <trkpt lat="44.79128" lon="0.50724">
        <ele>157.9</ele>
        <time>2024-07-14T08:58:39Z</time>
      </trkpt>
      <trkpt lat="44.79131" lon="0.50725">
        <ele>157.7</ele>
        <time>2024-07-14T08:58:41Z</time>
      </trkpt>
      <trkpt lat="44.79132" lon="0.50727">
        <ele>157.5</ele>
        <time>2024-07-14T08:58:42Z</time>
      </trkpt>
      <trkpt lat="44.79135" lon="0.50727">
        <ele>157.3</ele>
        <time>2024-07-14T08:58:43Z</time>
      </trkpt>
      <trkpt lat="44.79141" lon="0.50731">
        <ele>156.6</ele>
        <time>2024-07-14T08:58:45Z</time>
      </trkpt>
      <trkpt lat="44.79147" lon="0.50734">
        <ele>156</ele>
        <time>2024-07-14T08:58:47Z</time>
      </trkpt>
      <trkpt lat="44.79151" lon="0.50736">
        <ele>155.4</ele>
        <time>2024-07-14T08:58:48Z</time>
      </trkpt>
      <trkpt lat="44.79153" lon="0.50737">
        <ele>155.1</ele>
        <time>2024-07-14T08:58:49Z</time>
      </trkpt>
      <trkpt lat="44.79156" lon="0.50739">
        <ele>154.9</ele>
        <time>2024-07-14T08:58:51Z</time>
      </trkpt>
      <trkpt lat="44.79159" lon="0.50741">
        <ele>154.3</ele>
        <time>2024-07-14T08:58:52Z</time>
      </trkpt>
      <trkpt lat="44.79161" lon="0.50741">
        <ele>154.3</ele>
        <time>2024-07-14T08:58:53Z</time>
      </trkpt>
      <trkpt lat="44.79164" lon="0.5074">
        <ele>154</ele>
        <time>2024-07-14T08:58:55Z</time>
      </trkpt>
      <trkpt lat="44.79164" lon="0.5074">
        <ele>154</ele>
        <time>2024-07-14T08:58:56Z</time>
      </trkpt>
      <trkpt lat="44.79166" lon="0.5074">
        <ele>153.7</ele>
        <time>2024-07-14T08:58:57Z</time>
      </trkpt>
      <trkpt lat="44.7917" lon="0.5074">
        <ele>153.3</ele>
        <time>2024-07-14T08:58:58Z</time>
      </trkpt>
      <trkpt lat="44.79174" lon="0.50739">
        <ele>152.6</ele>
        <time>2024-07-14T08:58:59Z</time>
      </trkpt>
      <trkpt lat="44.79177" lon="0.50737">
        <ele>152.6</ele>
        <time>2024-07-14T08:59:00Z</time>
      </trkpt>
      <trkpt lat="44.79179" lon="0.50734">
        <ele>152.9</ele>
        <time>2024-07-14T08:59:01Z</time>
      </trkpt>
      <trkpt lat="44.79181" lon="0.50731">
        <ele>152.6</ele>
        <time>2024-07-14T08:59:02Z</time>
      </trkpt>
      <trkpt lat="44.79182" lon="0.50728">
        <ele>152.9</ele>
        <time>2024-07-14T08:59:03Z</time>
      </trkpt>
      <trkpt lat="44.79185" lon="0.5072">
        <ele>153.2</ele>
        <time>2024-07-14T08:59:05Z</time>
      </trkpt>
      <trkpt lat="44.79187" lon="0.50716">
        <ele>153.1</ele>
        <time>2024-07-14T08:59:06Z</time>
      </trkpt>
      <trkpt lat="44.7919" lon="0.50712">
        <ele>152.9</ele>
        <time>2024-07-14T08:59:07Z</time>
      </trkpt>
      <trkpt lat="44.79192" lon="0.50708">
        <ele>152.7</ele>
        <time>2024-07-14T08:59:08Z</time>
      </trkpt>
      <trkpt lat="44.79194" lon="0.50703">
        <ele>153</ele>
        <time>2024-07-14T08:59:09Z</time>
      </trkpt>
      <trkpt lat="44.79196" lon="0.50699">
        <ele>152.8</ele>
        <time>2024-07-14T08:59:10Z</time>
      </trkpt>
      <trkpt lat="44.79196" lon="0.50695">
        <ele>153.2</ele>
        <time>2024-07-14T08:59:11Z</time>
      </trkpt>
      <trkpt lat="44.79196" lon="0.50692">
        <ele>153.2</ele>
        <time>2024-07-14T08:59:12Z</time>
      </trkpt>
      <trkpt lat="44.79195" lon="0.50688">
        <ele>153.5</ele>
        <time>2024-07-14T08:59:13Z</time>
      </trkpt>
      <trkpt lat="44.79196" lon="0.50682">
        <ele>154.2</ele>
        <time>2024-07-14T08:59:14Z</time>
      </trkpt>
      <trkpt lat="44.79196" lon="0.50676">
        <ele>154.5</ele>
        <time>2024-07-14T08:59:15Z</time>
      </trkpt>
      <trkpt lat="44.79198" lon="0.50666">
        <ele>154.9</ele>
        <time>2024-07-14T08:59:17Z</time>
      </trkpt>
      <trkpt lat="44.79201" lon="0.50656">
        <ele>155.1</ele>
        <time>2024-07-14T08:59:19Z</time>
      </trkpt>
      <trkpt lat="44.79209" lon="0.50648">
        <ele>155</ele>
        <time>2024-07-14T08:59:21Z</time>
      </trkpt>
      <trkpt lat="44.79211" lon="0.50644">
        <ele>155</ele>
        <time>2024-07-14T08:59:22Z</time>
      </trkpt>
      <trkpt lat="44.79213" lon="0.5064">
        <ele>155.4</ele>
        <time>2024-07-14T08:59:23Z</time>
      </trkpt>
      <trkpt lat="44.79215" lon="0.50631">
        <ele>155.7</ele>
        <time>2024-07-14T08:59:25Z</time>
      </trkpt>
      <trkpt lat="44.79216" lon="0.50627">
        <ele>156.1</ele>
        <time>2024-07-14T08:59:26Z</time>
      </trkpt>
      <trkpt lat="44.79216" lon="0.50623">
        <ele>156.4</ele>
        <time>2024-07-14T08:59:27Z</time>
      </trkpt>
      <trkpt lat="44.79216" lon="0.50616">
        <ele>156.4</ele>
        <time>2024-07-14T08:59:29Z</time>
      </trkpt>
      <trkpt lat="44.79217" lon="0.50613">
        <ele>156.7</ele>
        <time>2024-07-14T08:59:30Z</time>
      </trkpt>
      <trkpt lat="44.79218" lon="0.5061">
        <ele>157.1</ele>
        <time>2024-07-14T08:59:31Z</time>
      </trkpt>
      <trkpt lat="44.79219" lon="0.50604">
        <ele>157.5</ele>
        <time>2024-07-14T08:59:33Z</time>
      </trkpt>
      <trkpt lat="44.7922" lon="0.50597">
        <ele>157.4</ele>
        <time>2024-07-14T08:59:35Z</time>
      </trkpt>
      <trkpt lat="44.79221" lon="0.50591">
        <ele>158.2</ele>
        <time>2024-07-14T08:59:37Z</time>
      </trkpt>
      <trkpt lat="44.79221" lon="0.50589">
        <ele>158.2</ele>
        <time>2024-07-14T08:59:38Z</time>
      </trkpt>
      <trkpt lat="44.79221" lon="0.50586">
        <ele>158.6</ele>
        <time>2024-07-14T08:59:39Z</time>
      </trkpt>
      <trkpt lat="44.79221" lon="0.5058">
        <ele>159</ele>
        <time>2024-07-14T08:59:41Z</time>
      </trkpt>
      <trkpt lat="44.79221" lon="0.50578">
        <ele>159.3</ele>
        <time>2024-07-14T08:59:42Z</time>
      </trkpt>
      <trkpt lat="44.7922" lon="0.50576">
        <ele>159.3</ele>
        <time>2024-07-14T08:59:43Z</time>
      </trkpt>
      <trkpt lat="44.7922" lon="0.50574">
        <ele>159.6</ele>
        <time>2024-07-14T08:59:44Z</time>
      </trkpt>
      <trkpt lat="44.79221" lon="0.50571">
        <ele>159.9</ele>
        <time>2024-07-14T08:59:45Z</time>
      </trkpt>
      <trkpt lat="44.79222" lon="0.50568">
        <ele>159.6</ele>
        <time>2024-07-14T08:59:47Z</time>
      </trkpt>
      <trkpt lat="44.79222" lon="0.50563">
        <ele>160.1</ele>
        <time>2024-07-14T08:59:49Z</time>
      </trkpt>
      <trkpt lat="44.79223" lon="0.5056">
        <ele>160.1</ele>
        <time>2024-07-14T08:59:51Z</time>
      </trkpt>
      <trkpt lat="44.79222" lon="0.50557">
        <ele>160.6</ele>
        <time>2024-07-14T08:59:52Z</time>
      </trkpt>
      <trkpt lat="44.79223" lon="0.50556">
        <ele>160.3</ele>
        <time>2024-07-14T08:59:53Z</time>
      </trkpt>
      <trkpt lat="44.79223" lon="0.50555">
        <ele>160.4</ele>
        <time>2024-07-14T08:59:54Z</time>
      </trkpt>
      <trkpt lat="44.79225" lon="0.50553">
        <ele>160.6</ele>
        <time>2024-07-14T08:59:55Z</time>
      </trkpt>
      <trkpt lat="44.79226" lon="0.50549">
        <ele>160.6</ele>
        <time>2024-07-14T08:59:57Z</time>
      </trkpt>
      <trkpt lat="44.79228" lon="0.50545">
        <ele>160.8</ele>
        <time>2024-07-14T08:59:59Z</time>
      </trkpt>
      <trkpt lat="44.79229" lon="0.50542">
        <ele>160.6</ele>
        <time>2024-07-14T09:00:01Z</time>
      </trkpt>
      <trkpt lat="44.7923" lon="0.5054">
        <ele>160.8</ele>
        <time>2024-07-14T09:00:02Z</time>
      </trkpt>
      <trkpt lat="44.79232" lon="0.50539">
        <ele>160.6</ele>
        <time>2024-07-14T09:00:03Z</time>
      </trkpt>
      <trkpt lat="44.79234" lon="0.50536">
        <ele>160.9</ele>
        <time>2024-07-14T09:00:05Z</time>
      </trkpt>
      <trkpt lat="44.79236" lon="0.50534">
        <ele>160.7</ele>
        <time>2024-07-14T09:00:06Z</time>
      </trkpt>
      <trkpt lat="44.79237" lon="0.50533">
        <ele>160.4</ele>
        <time>2024-07-14T09:00:07Z</time>
      </trkpt>
      <trkpt lat="44.79241" lon="0.5053">
        <ele>160.3</ele>
        <time>2024-07-14T09:00:09Z</time>
      </trkpt>
      <trkpt lat="44.79246" lon="0.50527">
        <ele>160.1</ele>
        <time>2024-07-14T09:00:11Z</time>
      </trkpt>
      <trkpt lat="44.79249" lon="0.50525">
        <ele>159.7</ele>
        <time>2024-07-14T09:00:12Z</time>
      </trkpt>
      <trkpt lat="44.79251" lon="0.50523">
        <ele>159.5</ele>
        <time>2024-07-14T09:00:13Z</time>
      </trkpt>
      <trkpt lat="44.79255" lon="0.50521">
        <ele>159.1</ele>
        <time>2024-07-14T09:00:15Z</time>
      </trkpt>
      <trkpt lat="44.79259" lon="0.50518">
        <ele>158.8</ele>
        <time>2024-07-14T09:00:17Z</time>
      </trkpt>
      <trkpt lat="44.79259" lon="0.50516">
        <ele>158.4</ele>
        <time>2024-07-14T09:00:18Z</time>
      </trkpt>
      <trkpt lat="44.79259" lon="0.50514">
        <ele>158.7</ele>
        <time>2024-07-14T09:00:19Z</time>
      </trkpt>
      <trkpt lat="44.79261" lon="0.5051">
        <ele>159</ele>
        <time>2024-07-14T09:00:21Z</time>
      </trkpt>
      <trkpt lat="44.79264" lon="0.50505">
        <ele>158.9</ele>
        <time>2024-07-14T09:00:23Z</time>
      </trkpt>
      <trkpt lat="44.79268" lon="0.505">
        <ele>158.5</ele>
        <time>2024-07-14T09:00:25Z</time>
      </trkpt>
      <trkpt lat="44.79272" lon="0.50498">
        <ele>158.4</ele>
        <time>2024-07-14T09:00:26Z</time>
      </trkpt>
      <trkpt lat="44.79275" lon="0.50498">
        <ele>158</ele>
        <time>2024-07-14T09:00:27Z</time>
      </trkpt>
      <trkpt lat="44.79279" lon="0.50499">
        <ele>157.2</ele>
        <time>2024-07-14T09:00:28Z</time>
      </trkpt>
      <trkpt lat="44.79281" lon="0.50499">
        <ele>156.8</ele>
        <time>2024-07-14T09:00:29Z</time>
      </trkpt>
      <trkpt lat="44.79284" lon="0.50499">
        <ele>156.3</ele>
        <time>2024-07-14T09:00:30Z</time>
      </trkpt>
      <trkpt lat="44.79289" lon="0.50499">
        <ele>155.9</ele>
        <time>2024-07-14T09:00:31Z</time>
      </trkpt>
      <trkpt lat="44.79293" lon="0.50499">
        <ele>155.1</ele>
        <time>2024-07-14T09:00:32Z</time>
      </trkpt>
      <trkpt lat="44.79297" lon="0.505">
        <ele>154.7</ele>
        <time>2024-07-14T09:00:33Z</time>
      </trkpt>
      <trkpt lat="44.79298" lon="0.50502">
        <ele>154.8</ele>
        <time>2024-07-14T09:00:34Z</time>
      </trkpt>
      <trkpt lat="44.793" lon="0.50503">
        <ele>154.3</ele>
        <time>2024-07-14T09:00:35Z</time>
      </trkpt>
      <trkpt lat="44.79307" lon="0.50504">
        <ele>153.1</ele>
        <time>2024-07-14T09:00:37Z</time>
      </trkpt>
      <trkpt lat="44.79312" lon="0.50504">
        <ele>152.2</ele>
        <time>2024-07-14T09:00:38Z</time>
      </trkpt>
      <trkpt lat="44.79318" lon="0.50503">
        <ele>151.5</ele>
        <time>2024-07-14T09:00:39Z</time>
      </trkpt>
      <trkpt lat="44.79331" lon="0.50501">
        <ele>150.4</ele>
        <time>2024-07-14T09:00:41Z</time>
      </trkpt>
      <trkpt lat="44.79348" lon="0.505">
        <ele>148.6</ele>
        <time>2024-07-14T09:00:43Z</time>
      </trkpt>
      <trkpt lat="44.7937" lon="0.50496">
        <ele>147.1</ele>
        <time>2024-07-14T09:00:45Z</time>
      </trkpt>
      <trkpt lat="44.79377" lon="0.50495">
        <ele>146.8</ele>
        <time>2024-07-14T09:00:46Z</time>
      </trkpt>
      <trkpt lat="44.79384" lon="0.50495">
        <ele>146.7</ele>
        <time>2024-07-14T09:00:47Z</time>
      </trkpt>
      <trkpt lat="44.79398" lon="0.50495">
        <ele>146.8</ele>
        <time>2024-07-14T09:00:49Z</time>
      </trkpt>
      <trkpt lat="44.79411" lon="0.50496">
        <ele>146.8</ele>
        <time>2024-07-14T09:00:51Z</time>
      </trkpt>
      <trkpt lat="44.79417" lon="0.50496">
        <ele>146.8</ele>
        <time>2024-07-14T09:00:52Z</time>
      </trkpt>
      <trkpt lat="44.79423" lon="0.50496">
        <ele>146.8</ele>
        <time>2024-07-14T09:00:53Z</time>
      </trkpt>
      <trkpt lat="44.79434" lon="0.50495">
        <ele>147.2</ele>
        <time>2024-07-14T09:00:55Z</time>
      </trkpt>
      <trkpt lat="44.79439" lon="0.50494">
        <ele>147.8</ele>
        <time>2024-07-14T09:00:56Z</time>
      </trkpt>
      <trkpt lat="44.79444" lon="0.50492">
        <ele>148.1</ele>
        <time>2024-07-14T09:00:57Z</time>
      </trkpt>
      <trkpt lat="44.7945" lon="0.50487">
        <ele>149</ele>
        <time>2024-07-14T09:00:59Z</time>
      </trkpt>
      <trkpt lat="44.79453" lon="0.50479">
        <ele>149.9</ele>
        <time>2024-07-14T09:01:01Z</time>
      </trkpt>
      <trkpt lat="44.79454" lon="0.50472">
        <ele>150.6</ele>
        <time>2024-07-14T09:01:03Z</time>
      </trkpt>
      <trkpt lat="44.79453" lon="0.50466">
        <ele>151.1</ele>
        <time>2024-07-14T09:01:05Z</time>
      </trkpt>
      <trkpt lat="44.79454" lon="0.5046">
        <ele>151.9</ele>
        <time>2024-07-14T09:01:07Z</time>
      </trkpt>
      <trkpt lat="44.79454" lon="0.50453">
        <ele>152.5</ele>
        <time>2024-07-14T09:01:09Z</time>
      </trkpt>
      <trkpt lat="44.79456" lon="0.50447">
        <ele>152.9</ele>
        <time>2024-07-14T09:01:11Z</time>
      </trkpt>
      <trkpt lat="44.79456" lon="0.50444">
        <ele>153.4</ele>
        <time>2024-07-14T09:01:12Z</time>
      </trkpt>
      <trkpt lat="44.79457" lon="0.50441">
        <ele>153.8</ele>
        <time>2024-07-14T09:01:13Z</time>
      </trkpt>
      <trkpt lat="44.79458" lon="0.50435">
        <ele>154.4</ele>
        <time>2024-07-14T09:01:15Z</time>
      </trkpt>
      <trkpt lat="44.79458" lon="0.50429">
        <ele>155.1</ele>
        <time>2024-07-14T09:01:17Z</time>
      </trkpt>
      <trkpt lat="44.79458" lon="0.50426">
        <ele>155.1</ele>
        <time>2024-07-14T09:01:18Z</time>
      </trkpt>
      <trkpt lat="44.79458" lon="0.50424">
        <ele>155.5</ele>
        <time>2024-07-14T09:01:19Z</time>
      </trkpt>
      <trkpt lat="44.79458" lon="0.50421">
        <ele>155.9</ele>
        <time>2024-07-14T09:01:20Z</time>
      </trkpt>
      <trkpt lat="44.79459" lon="0.50418">
        <ele>155.9</ele>
        <time>2024-07-14T09:01:21Z</time>
      </trkpt>
      <trkpt lat="44.79459" lon="0.50413">
        <ele>156.3</ele>
        <time>2024-07-14T09:01:23Z</time>
      </trkpt>
      <trkpt lat="44.79459" lon="0.50408">
        <ele>157</ele>
        <time>2024-07-14T09:01:25Z</time>
      </trkpt>
      <trkpt lat="44.79459" lon="0.50405">
        <ele>157</ele>
        <time>2024-07-14T09:01:26Z</time>
      </trkpt>
      <trkpt lat="44.79458" lon="0.50403">
        <ele>157.3</ele>
        <time>2024-07-14T09:01:27Z</time>
      </trkpt>
      <trkpt lat="44.79458" lon="0.50399">
        <ele>157.5</ele>
        <time>2024-07-14T09:01:29Z</time>
      </trkpt>
      <trkpt lat="44.79457" lon="0.50397">
        <ele>157.5</ele>
        <time>2024-07-14T09:01:30Z</time>
      </trkpt>
      <trkpt lat="44.79457" lon="0.50394">
        <ele>157.8</ele>
        <time>2024-07-14T09:01:31Z</time>
      </trkpt>
      <trkpt lat="44.79457" lon="0.50392">
        <ele>157.8</ele>
        <time>2024-07-14T09:01:32Z</time>
      </trkpt>
      <trkpt lat="44.79457" lon="0.5039">
        <ele>158</ele>
        <time>2024-07-14T09:01:33Z</time>
      </trkpt>
      <trkpt lat="44.79457" lon="0.50387">
        <ele>158</ele>
        <time>2024-07-14T09:01:34Z</time>
      </trkpt>
      <trkpt lat="44.79456" lon="0.50385">
        <ele>158.2</ele>
        <time>2024-07-14T09:01:35Z</time>
      </trkpt>
      <trkpt lat="44.79456" lon="0.5038">
        <ele>158.5</ele>
        <time>2024-07-14T09:01:37Z</time>
      </trkpt>
      <trkpt lat="44.79456" lon="0.50378">
        <ele>158.7</ele>
        <time>2024-07-14T09:01:38Z</time>
      </trkpt>
      <trkpt lat="44.79456" lon="0.50376">
        <ele>158.7</ele>
        <time>2024-07-14T09:01:39Z</time>
      </trkpt>
      <trkpt lat="44.79457" lon="0.50373">
        <ele>159</ele>
        <time>2024-07-14T09:01:40Z</time>
      </trkpt>
      <trkpt lat="44.79457" lon="0.50371">
        <ele>159</ele>
        <time>2024-07-14T09:01:41Z</time>
      </trkpt>
      <trkpt lat="44.79457" lon="0.50366">
        <ele>159.3</ele>
        <time>2024-07-14T09:01:43Z</time>
      </trkpt>
      <trkpt lat="44.79457" lon="0.50361">
        <ele>159.8</ele>
        <time>2024-07-14T09:01:45Z</time>
      </trkpt>
      <trkpt lat="44.79458" lon="0.50356">
        <ele>160</ele>
        <time>2024-07-14T09:01:47Z</time>
      </trkpt>
      <trkpt lat="44.79458" lon="0.5035">
        <ele>160.2</ele>
        <time>2024-07-14T09:01:49Z</time>
      </trkpt>
      <trkpt lat="44.79458" lon="0.50347">
        <ele>160.4</ele>
        <time>2024-07-14T09:01:50Z</time>
      </trkpt>
      <trkpt lat="44.79458" lon="0.50344">
        <ele>160.4</ele>
        <time>2024-07-14T09:01:51Z</time>
      </trkpt>
      <trkpt lat="44.79459" lon="0.50338">
        <ele>160.8</ele>
        <time>2024-07-14T09:01:53Z</time>
      </trkpt>
      <trkpt lat="44.79459" lon="0.50336">
        <ele>160.8</ele>
        <time>2024-07-14T09:01:54Z</time>
      </trkpt>
      <trkpt lat="44.79459" lon="0.50333">
        <ele>161</ele>
        <time>2024-07-14T09:01:55Z</time>
      </trkpt>
      <trkpt lat="44.7946" lon="0.50326">
        <ele>161.2</ele>
        <time>2024-07-14T09:01:57Z</time>
      </trkpt>
      <trkpt lat="44.79461" lon="0.5032">
        <ele>161.4</ele>
        <time>2024-07-14T09:01:59Z</time>
      </trkpt>
      <trkpt lat="44.79463" lon="0.50315">
        <ele>161.6</ele>
        <time>2024-07-14T09:02:01Z</time>
      </trkpt>
      <trkpt lat="44.79464" lon="0.50312">
        <ele>161.8</ele>
        <time>2024-07-14T09:02:02Z</time>
      </trkpt>
      <trkpt lat="44.79465" lon="0.50309">
        <ele>161.9</ele>
        <time>2024-07-14T09:02:03Z</time>
      </trkpt>
      <trkpt lat="44.79468" lon="0.50303">
        <ele>162.1</ele>
        <time>2024-07-14T09:02:05Z</time>
      </trkpt>
      <trkpt lat="44.79472" lon="0.50302">
        <ele>162.3</ele>
        <time>2024-07-14T09:02:06Z</time>
      </trkpt>
      <trkpt lat="44.79475" lon="0.50301">
        <ele>162.4</ele>
        <time>2024-07-14T09:02:07Z</time>
      </trkpt>
      <trkpt lat="44.79478" lon="0.50299">
        <ele>162.4</ele>
        <time>2024-07-14T09:02:08Z</time>
      </trkpt>
      <trkpt lat="44.79481" lon="0.50296">
        <ele>162.5</ele>
        <time>2024-07-14T09:02:09Z</time>
      </trkpt>
      <trkpt lat="44.79483" lon="0.50293">
        <ele>162.5</ele>
        <time>2024-07-14T09:02:10Z</time>
      </trkpt>
      <trkpt lat="44.79485" lon="0.50289">
        <ele>162.5</ele>
        <time>2024-07-14T09:02:11Z</time>
      </trkpt>
      <trkpt lat="44.79486" lon="0.50285">
        <ele>162.4</ele>
        <time>2024-07-14T09:02:12Z</time>
      </trkpt>
      <trkpt lat="44.79488" lon="0.50281">
        <ele>162.4</ele>
        <time>2024-07-14T09:02:13Z</time>
      </trkpt>
      <trkpt lat="44.7949" lon="0.50276">
        <ele>162.4</ele>
        <time>2024-07-14T09:02:14Z</time>
      </trkpt>
      <trkpt lat="44.79491" lon="0.50271">
        <ele>162.3</ele>
        <time>2024-07-14T09:02:15Z</time>
      </trkpt>
      <trkpt lat="44.79493" lon="0.50266">
        <ele>162.2</ele>
        <time>2024-07-14T09:02:16Z</time>
      </trkpt>
      <trkpt lat="44.79495" lon="0.50261">
        <ele>162.1</ele>
        <time>2024-07-14T09:02:17Z</time>
      </trkpt>
      <trkpt lat="44.79497" lon="0.50255">
        <ele>162</ele>
        <time>2024-07-14T09:02:18Z</time>
      </trkpt>
      <trkpt lat="44.79498" lon="0.50249">
        <ele>161.9</ele>
        <time>2024-07-14T09:02:19Z</time>
      </trkpt>
      <trkpt lat="44.79498" lon="0.50243">
        <ele>161.8</ele>
        <time>2024-07-14T09:02:20Z</time>
      </trkpt>
      <trkpt lat="44.79499" lon="0.50236">
        <ele>161.7</ele>
        <time>2024-07-14T09:02:21Z</time>
      </trkpt>
      <trkpt lat="44.79499" lon="0.5023">
        <ele>161.6</ele>
        <time>2024-07-14T09:02:22Z</time>
      </trkpt>
      <trkpt lat="44.795" lon="0.50224">
        <ele>161.5</ele>
        <time>2024-07-14T09:02:23Z</time>
      </trkpt>
      <trkpt lat="44.795" lon="0.50211">
        <ele>161.4</ele>
        <time>2024-07-14T09:02:25Z</time>
      </trkpt>
      <trkpt lat="44.79502" lon="0.50197">
        <ele>161.2</ele>
        <time>2024-07-14T09:02:27Z</time>
      </trkpt>
      <trkpt lat="44.79503" lon="0.50191">
        <ele>161.2</ele>
        <time>2024-07-14T09:02:28Z</time>
      </trkpt>
      <trkpt lat="44.79505" lon="0.50185">
        <ele>161.1</ele>
        <time>2024-07-14T09:02:29Z</time>
      </trkpt>
      <trkpt lat="44.79506" lon="0.50179">
        <ele>161</ele>
        <time>2024-07-14T09:02:30Z</time>
      </trkpt>
      <trkpt lat="44.79507" lon="0.50173">
        <ele>161</ele>
        <time>2024-07-14T09:02:31Z</time>
      </trkpt>
      <trkpt lat="44.79508" lon="0.50166">
        <ele>160.8</ele>
        <time>2024-07-14T09:02:32Z</time>
      </trkpt>
      <trkpt lat="44.7951" lon="0.50161">
        <ele>160.7</ele>
        <time>2024-07-14T09:02:33Z</time>
      </trkpt>
      <trkpt lat="44.79512" lon="0.50148">
        <ele>160.5</ele>
        <time>2024-07-14T09:02:35Z</time>
      </trkpt>
      <trkpt lat="44.79514" lon="0.50135">
        <ele>160.3</ele>
        <time>2024-07-14T09:02:37Z</time>
      </trkpt>
      <trkpt lat="44.79516" lon="0.50123">
        <ele>160.2</ele>
        <time>2024-07-14T09:02:39Z</time>
      </trkpt>
      <trkpt lat="44.79519" lon="0.50111">
        <ele>160</ele>
        <time>2024-07-14T09:02:41Z</time>
      </trkpt>
      <trkpt lat="44.79521" lon="0.50098">
        <ele>159.9</ele>
        <time>2024-07-14T09:02:43Z</time>
      </trkpt>
      <trkpt lat="44.79524" lon="0.50085">
        <ele>159.7</ele>
        <time>2024-07-14T09:02:45Z</time>
      </trkpt>
      <trkpt lat="44.79525" lon="0.50079">
        <ele>159.6</ele>
        <time>2024-07-14T09:02:46Z</time>
      </trkpt>
      <trkpt lat="44.79526" lon="0.50072">
        <ele>159.4</ele>
        <time>2024-07-14T09:02:47Z</time>
      </trkpt>
      <trkpt lat="44.79528" lon="0.50059">
        <ele>159.2</ele>
        <time>2024-07-14T09:02:49Z</time>
      </trkpt>
      <trkpt lat="44.79531" lon="0.50046">
        <ele>158.9</ele>
        <time>2024-07-14T09:02:51Z</time>
      </trkpt>
      <trkpt lat="44.79534" lon="0.50033">
        <ele>158.5</ele>
        <time>2024-07-14T09:02:53Z</time>
      </trkpt>
      <trkpt lat="44.79535" lon="0.50026">
        <ele>158.3</ele>
        <time>2024-07-14T09:02:54Z</time>
      </trkpt>
      <trkpt lat="44.79536" lon="0.50019">
        <ele>158</ele>
        <time>2024-07-14T09:02:55Z</time>
      </trkpt>
      <trkpt lat="44.79539" lon="0.50005">
        <ele>157.7</ele>
        <time>2024-07-14T09:02:57Z</time>
      </trkpt>
      <trkpt lat="44.79542" lon="0.49991">
        <ele>157.4</ele>
        <time>2024-07-14T09:02:59Z</time>
      </trkpt>
      <trkpt lat="44.79542" lon="0.49985">
        <ele>157.4</ele>
        <time>2024-07-14T09:03:00Z</time>
      </trkpt>
      <trkpt lat="44.79541" lon="0.49981">
        <ele>157.3</ele>
        <time>2024-07-14T09:03:01Z</time>
      </trkpt>
      <trkpt lat="44.79537" lon="0.49977">
        <ele>157.3</ele>
        <time>2024-07-14T09:03:03Z</time>
      </trkpt>
      <trkpt lat="44.79531" lon="0.49974">
        <ele>157.4</ele>
        <time>2024-07-14T09:03:05Z</time>
      </trkpt>
      <trkpt lat="44.79529" lon="0.49972">
        <ele>157.5</ele>
        <time>2024-07-14T09:03:06Z</time>
      </trkpt>
      <trkpt lat="44.79528" lon="0.49969">
        <ele>157.5</ele>
        <time>2024-07-14T09:03:07Z</time>
      </trkpt>
      <trkpt lat="44.79526" lon="0.49961">
        <ele>157.4</ele>
        <time>2024-07-14T09:03:09Z</time>
      </trkpt>
      <trkpt lat="44.79525" lon="0.4995">
        <ele>157.2</ele>
        <time>2024-07-14T09:03:11Z</time>
      </trkpt>
      <trkpt lat="44.79525" lon="0.49944">
        <ele>157.1</ele>
        <time>2024-07-14T09:03:12Z</time>
      </trkpt>
      <trkpt lat="44.79524" lon="0.49939">
        <ele>156.9</ele>
        <time>2024-07-14T09:03:13Z</time>
      </trkpt>
      <trkpt lat="44.79523" lon="0.49932">
        <ele>156.7</ele>
        <time>2024-07-14T09:03:14Z</time>
      </trkpt>
      <trkpt lat="44.79522" lon="0.49926">
        <ele>156.3</ele>
        <time>2024-07-14T09:03:15Z</time>
      </trkpt>
      <trkpt lat="44.79525" lon="0.49914">
        <ele>155.3</ele>
        <time>2024-07-14T09:03:17Z</time>
      </trkpt>
      <trkpt lat="44.79532" lon="0.499">
        <ele>153.6</ele>
        <time>2024-07-14T09:03:19Z</time>
      </trkpt>
      <trkpt lat="44.79535" lon="0.49892">
        <ele>152.6</ele>
        <time>2024-07-14T09:03:20Z</time>
      </trkpt>
      <trkpt lat="44.79538" lon="0.49883">
        <ele>151.3</ele>
        <time>2024-07-14T09:03:21Z</time>
      </trkpt>
      <trkpt lat="44.79545" lon="0.4986">
        <ele>148.2</ele>
        <time>2024-07-14T09:03:23Z</time>
      </trkpt>
      <trkpt lat="44.79551" lon="0.49849">
        <ele>146.9</ele>
        <time>2024-07-14T09:03:24Z</time>
      </trkpt>
      <trkpt lat="44.79557" lon="0.49838">
        <ele>145.9</ele>
        <time>2024-07-14T09:03:25Z</time>
      </trkpt>
      <trkpt lat="44.79565" lon="0.49829">
        <ele>145.2</ele>
        <time>2024-07-14T09:03:26Z</time>
      </trkpt>
      <trkpt lat="44.79572" lon="0.49821">
        <ele>144.6</ele>
        <time>2024-07-14T09:03:27Z</time>
      </trkpt>
      <trkpt lat="44.79586" lon="0.49805">
        <ele>143.7</ele>
        <time>2024-07-14T09:03:29Z</time>
      </trkpt>
      <trkpt lat="44.79591" lon="0.49797">
        <ele>143.5</ele>
        <time>2024-07-14T09:03:30Z</time>
      </trkpt>
      <trkpt lat="44.79594" lon="0.49791">
        <ele>143.5</ele>
        <time>2024-07-14T09:03:31Z</time>
      </trkpt>
      <trkpt lat="44.79601" lon="0.49781">
        <ele>143.5</ele>
        <time>2024-07-14T09:03:33Z</time>
      </trkpt>
      <trkpt lat="44.79608" lon="0.49777">
        <ele>143.4</ele>
        <time>2024-07-14T09:03:35Z</time>
      </trkpt>
      <trkpt lat="44.79613" lon="0.49776">
        <ele>143.3</ele>
        <time>2024-07-14T09:03:36Z</time>
      </trkpt>
      <trkpt lat="44.79618" lon="0.49774">
        <ele>143</ele>
        <time>2024-07-14T09:03:37Z</time>
      </trkpt>
      <trkpt lat="44.79625" lon="0.49768">
        <ele>142.7</ele>
        <time>2024-07-14T09:03:39Z</time>
      </trkpt>
      <trkpt lat="44.79628" lon="0.49762">
        <ele>142.4</ele>
        <time>2024-07-14T09:03:41Z</time>
      </trkpt>
      <trkpt lat="44.79632" lon="0.49756">
        <ele>142.2</ele>
        <time>2024-07-14T09:03:43Z</time>
      </trkpt>
      <trkpt lat="44.79634" lon="0.49754">
        <ele>142.1</ele>
        <time>2024-07-14T09:03:44Z</time>
      </trkpt>
      <trkpt lat="44.79636" lon="0.49754">
        <ele>142</ele>
        <time>2024-07-14T09:03:45Z</time>
      </trkpt>
      <trkpt lat="44.79636" lon="0.49754">
        <ele>142</ele>
        <time>2024-07-14T09:03:46Z</time>
      </trkpt>
      <trkpt lat="44.7966" lon="0.49723">
        <ele>142.4</ele>
        <time>2024-07-14T09:04:13Z</time>
      </trkpt>
      <trkpt lat="44.79662" lon="0.49719">
        <ele>142.5</ele>
        <time>2024-07-14T09:04:15Z</time>
      </trkpt>
      <trkpt lat="44.79663" lon="0.49717">
        <ele>142.6</ele>
        <time>2024-07-14T09:04:16Z</time>
      </trkpt>
      <trkpt lat="44.79663" lon="0.49716">
        <ele>142.6</ele>
        <time>2024-07-14T09:04:17Z</time>
      </trkpt>
      <trkpt lat="44.79663" lon="0.49716">
        <ele>142.6</ele>
        <time>2024-07-14T09:04:18Z</time>
      </trkpt>
      <trkpt lat="44.79665" lon="0.49709">
        <ele>142.6</ele>
        <time>2024-07-14T09:04:35Z</time>
      </trkpt>
      <trkpt lat="44.79666" lon="0.49706">
        <ele>142.6</ele>
        <time>2024-07-14T09:04:36Z</time>
      </trkpt>
      <trkpt lat="44.79668" lon="0.49704">
        <ele>142.6</ele>
        <time>2024-07-14T09:04:37Z</time>
      </trkpt>
      <trkpt lat="44.79671" lon="0.49699">
        <ele>142.6</ele>
        <time>2024-07-14T09:04:39Z</time>
      </trkpt>
      <trkpt lat="44.79672" lon="0.49692">
        <ele>142.6</ele>
        <time>2024-07-14T09:04:41Z</time>
      </trkpt>
      <trkpt lat="44.79673" lon="0.49684">
        <ele>142.6</ele>
        <time>2024-07-14T09:04:43Z</time>
      </trkpt>
      <trkpt lat="44.79674" lon="0.4968">
        <ele>142.7</ele>
        <time>2024-07-14T09:04:44Z</time>
      </trkpt>
      <trkpt lat="44.79675" lon="0.49675">
        <ele>142.7</ele>
        <time>2024-07-14T09:04:45Z</time>
      </trkpt>
      <trkpt lat="44.79677" lon="0.49667">
        <ele>142.8</ele>
        <time>2024-07-14T09:04:47Z</time>
      </trkpt>
      <trkpt lat="44.79679" lon="0.49657">
        <ele>142.8</ele>
        <time>2024-07-14T09:04:49Z</time>
      </trkpt>
      <trkpt lat="44.79681" lon="0.49647">
        <ele>142.7</ele>
        <time>2024-07-14T09:04:51Z</time>
      </trkpt>
      <trkpt lat="44.79683" lon="0.49636">
        <ele>142.5</ele>
        <time>2024-07-14T09:04:53Z</time>
      </trkpt>
      <trkpt lat="44.79685" lon="0.49631">
        <ele>142.4</ele>
        <time>2024-07-14T09:04:54Z</time>
      </trkpt>
      <trkpt lat="44.79686" lon="0.49627">
        <ele>142.3</ele>
        <time>2024-07-14T09:04:55Z</time>
      </trkpt>
      <trkpt lat="44.79683" lon="0.49622">
        <ele>142.2</ele>
        <time>2024-07-14T09:04:56Z</time>
      </trkpt>
      <trkpt lat="44.79682" lon="0.49617">
        <ele>142</ele>
        <time>2024-07-14T09:04:57Z</time>
      </trkpt>
      <trkpt lat="44.79682" lon="0.49611">
        <ele>141.7</ele>
        <time>2024-07-14T09:04:58Z</time>
      </trkpt>
      <trkpt lat="44.79684" lon="0.49605">
        <ele>141.4</ele>
        <time>2024-07-14T09:04:59Z</time>
      </trkpt>
      <trkpt lat="44.79689" lon="0.49599">
        <ele>140.7</ele>
        <time>2024-07-14T09:05:00Z</time>
      </trkpt>
      <trkpt lat="44.79695" lon="0.49591">
        <ele>139.9</ele>
        <time>2024-07-14T09:05:01Z</time>
      </trkpt>
      <trkpt lat="44.79707" lon="0.49575">
        <ele>138.5</ele>
        <time>2024-07-14T09:05:03Z</time>
      </trkpt>
      <trkpt lat="44.79717" lon="0.49561">
        <ele>137.9</ele>
        <time>2024-07-14T09:05:05Z</time>
      </trkpt>
      <trkpt lat="44.79728" lon="0.49549">
        <ele>137.3</ele>
        <time>2024-07-14T09:05:07Z</time>
      </trkpt>
      <trkpt lat="44.79733" lon="0.49543">
        <ele>136.9</ele>
        <time>2024-07-14T09:05:08Z</time>
      </trkpt>
      <trkpt lat="44.79737" lon="0.49536">
        <ele>136.7</ele>
        <time>2024-07-14T09:05:09Z</time>
      </trkpt>
      <trkpt lat="44.79741" lon="0.49528">
        <ele>136.7</ele>
        <time>2024-07-14T09:05:10Z</time>
      </trkpt>
      <trkpt lat="44.79743" lon="0.49522">
        <ele>136.7</ele>
        <time>2024-07-14T09:05:11Z</time>
      </trkpt>
      <trkpt lat="44.79744" lon="0.49515">
        <ele>136.8</ele>
        <time>2024-07-14T09:05:12Z</time>
      </trkpt>
      <trkpt lat="44.79746" lon="0.4951">
        <ele>136.9</ele>
        <time>2024-07-14T09:05:13Z</time>
      </trkpt>
      <trkpt lat="44.79748" lon="0.49503">
        <ele>137.2</ele>
        <time>2024-07-14T09:05:15Z</time>
      </trkpt>
      <trkpt lat="44.7975" lon="0.49499">
        <ele>137.3</ele>
        <time>2024-07-14T09:05:16Z</time>
      </trkpt>
      <trkpt lat="44.7975" lon="0.49496">
        <ele>137.4</ele>
        <time>2024-07-14T09:05:17Z</time>
      </trkpt>
      <trkpt lat="44.79752" lon="0.49488">
        <ele>137.7</ele>
        <time>2024-07-14T09:05:19Z</time>
      </trkpt>
      <trkpt lat="44.79754" lon="0.49479">
        <ele>138</ele>
        <time>2024-07-14T09:05:21Z</time>
      </trkpt>
      <trkpt lat="44.79756" lon="0.4947">
        <ele>138.2</ele>
        <time>2024-07-14T09:05:23Z</time>
      </trkpt>
      <trkpt lat="44.79757" lon="0.49461">
        <ele>138.5</ele>
        <time>2024-07-14T09:05:25Z</time>
      </trkpt>
      <trkpt lat="44.79759" lon="0.49454">
        <ele>138.8</ele>
        <time>2024-07-14T09:05:27Z</time>
      </trkpt>
      <trkpt lat="44.79761" lon="0.49447">
        <ele>139.2</ele>
        <time>2024-07-14T09:05:29Z</time>
      </trkpt>
      <trkpt lat="44.79762" lon="0.49445">
        <ele>139.3</ele>
        <time>2024-07-14T09:05:30Z</time>
      </trkpt>
      <trkpt lat="44.79763" lon="0.49442">
        <ele>139.5</ele>
        <time>2024-07-14T09:05:31Z</time>
      </trkpt>
      <trkpt lat="44.79765" lon="0.49437">
        <ele>139.8</ele>
        <time>2024-07-14T09:05:33Z</time>
      </trkpt>
      <trkpt lat="44.79765" lon="0.49434">
        <ele>140</ele>
        <time>2024-07-14T09:05:34Z</time>
      </trkpt>
      <trkpt lat="44.79765" lon="0.49431">
        <ele>140.2</ele>
        <time>2024-07-14T09:05:35Z</time>
      </trkpt>
      <trkpt lat="44.79765" lon="0.49425">
        <ele>140.6</ele>
        <time>2024-07-14T09:05:37Z</time>
      </trkpt>
      <trkpt lat="44.79765" lon="0.49418">
        <ele>141</ele>
        <time>2024-07-14T09:05:39Z</time>
      </trkpt>
      <trkpt lat="44.79766" lon="0.49413">
        <ele>141.4</ele>
        <time>2024-07-14T09:05:41Z</time>
      </trkpt>
      <trkpt lat="44.79766" lon="0.49408">
        <ele>141.6</ele>
        <time>2024-07-14T09:05:43Z</time>
      </trkpt>
      <trkpt lat="44.79767" lon="0.49406">
        <ele>141.8</ele>
        <time>2024-07-14T09:05:44Z</time>
      </trkpt>
      <trkpt lat="44.79768" lon="0.49403">
        <ele>141.9</ele>
        <time>2024-07-14T09:05:45Z</time>
      </trkpt>
      <trkpt lat="44.79769" lon="0.49397">
        <ele>142.2</ele>
        <time>2024-07-14T09:05:47Z</time>
      </trkpt>
      <trkpt lat="44.79771" lon="0.49391">
        <ele>142.4</ele>
        <time>2024-07-14T09:05:49Z</time>
      </trkpt>
      <trkpt lat="44.79771" lon="0.49388">
        <ele>142.5</ele>
        <time>2024-07-14T09:05:50Z</time>
      </trkpt>
      <trkpt lat="44.79772" lon="0.49386">
        <ele>142.6</ele>
        <time>2024-07-14T09:05:51Z</time>
      </trkpt>
      <trkpt lat="44.79774" lon="0.4938">
        <ele>142.7</ele>
        <time>2024-07-14T09:05:53Z</time>
      </trkpt>
      <trkpt lat="44.79774" lon="0.49377">
        <ele>142.8</ele>
        <time>2024-07-14T09:05:54Z</time>
      </trkpt>
      <trkpt lat="44.79774" lon="0.49374">
        <ele>142.9</ele>
        <time>2024-07-14T09:05:55Z</time>
      </trkpt>
      <trkpt lat="44.79774" lon="0.49371">
        <ele>142.9</ele>
        <time>2024-07-14T09:05:56Z</time>
      </trkpt>
      <trkpt lat="44.79775" lon="0.49367">
        <ele>142.9</ele>
        <time>2024-07-14T09:05:57Z</time>
      </trkpt>
      <trkpt lat="44.79776" lon="0.49359">
        <ele>142.9</ele>
        <time>2024-07-14T09:05:59Z</time>
      </trkpt>
      <trkpt lat="44.79777" lon="0.4935">
        <ele>142.8</ele>
        <time>2024-07-14T09:06:01Z</time>
      </trkpt>
      <trkpt lat="44.79778" lon="0.49346">
        <ele>142.7</ele>
        <time>2024-07-14T09:06:02Z</time>
      </trkpt>
      <trkpt lat="44.7978" lon="0.49343">
        <ele>142.6</ele>
        <time>2024-07-14T09:06:03Z</time>
      </trkpt>
      <trkpt lat="44.79783" lon="0.49342">
        <ele>142.4</ele>
        <time>2024-07-14T09:06:04Z</time>
      </trkpt>
      <trkpt lat="44.79787" lon="0.49341">
        <ele>141.7</ele>
        <time>2024-07-14T09:06:05Z</time>
      </trkpt>
      <trkpt lat="44.79797" lon="0.49338">
        <ele>140</ele>
        <time>2024-07-14T09:06:07Z</time>
      </trkpt>
      <trkpt lat="44.79802" lon="0.49334">
        <ele>138.9</ele>
        <time>2024-07-14T09:06:08Z</time>
      </trkpt>
      <trkpt lat="44.79807" lon="0.4933">
        <ele>137.7</ele>
        <time>2024-07-14T09:06:09Z</time>
      </trkpt>
      <trkpt lat="44.79819" lon="0.49321">
        <ele>135.1</ele>
        <time>2024-07-14T09:06:11Z</time>
      </trkpt>
      <trkpt lat="44.79831" lon="0.49314">
        <ele>132.7</ele>
        <time>2024-07-14T09:06:13Z</time>
      </trkpt>
      <trkpt lat="44.79836" lon="0.49311">
        <ele>131.6</ele>
        <time>2024-07-14T09:06:14Z</time>
      </trkpt>
      <trkpt lat="44.79842" lon="0.4931">
        <ele>130.6</ele>
        <time>2024-07-14T09:06:15Z</time>
      </trkpt>
      <trkpt lat="44.79848" lon="0.4931">
        <ele>129.6</ele>
        <time>2024-07-14T09:06:16Z</time>
      </trkpt>
      <trkpt lat="44.79853" lon="0.4931">
        <ele>128.7</ele>
        <time>2024-07-14T09:06:17Z</time>
      </trkpt>
      <trkpt lat="44.79864" lon="0.49311">
        <ele>126.8</ele>
        <time>2024-07-14T09:06:19Z</time>
      </trkpt>
      <trkpt lat="44.79873" lon="0.49312">
        <ele>125.5</ele>
        <time>2024-07-14T09:06:21Z</time>
      </trkpt>
      <trkpt lat="44.79879" lon="0.49308">
        <ele>124.7</ele>
        <time>2024-07-14T09:06:23Z</time>
      </trkpt>
      <trkpt lat="44.7988" lon="0.49307">
        <ele>120.4</ele>
        <time>2024-07-14T09:06:24Z</time>
      </trkpt>
      <trkpt lat="44.7988" lon="0.49307">
        <ele>120.4</ele>
        <time>2024-07-14T09:06:25Z</time>
      </trkpt>
      <trkpt lat="44.7988" lon="0.49307">
        <ele>120.4</ele>
        <time>2024-07-14T09:06:26Z</time>
      </trkpt>
      <trkpt lat="44.79881" lon="0.49299">
        <ele>124.2</ele>
        <time>2024-07-14T09:06:31Z</time>
      </trkpt>
      <trkpt lat="44.79879" lon="0.49294">
        <ele>124.8</ele>
        <time>2024-07-14T09:06:33Z</time>
      </trkpt>
      <trkpt lat="44.79877" lon="0.4929">
        <ele>125.2</ele>
        <time>2024-07-14T09:06:35Z</time>
      </trkpt>
      <trkpt lat="44.79874" lon="0.49286">
        <ele>125.6</ele>
        <time>2024-07-14T09:06:37Z</time>
      </trkpt>
      <trkpt lat="44.79872" lon="0.49282">
        <ele>126</ele>
        <time>2024-07-14T09:06:39Z</time>
      </trkpt>
      <trkpt lat="44.79869" lon="0.49278">
        <ele>126.4</ele>
        <time>2024-07-14T09:06:41Z</time>
      </trkpt>
      <trkpt lat="44.79867" lon="0.49272">
        <ele>126.8</ele>
        <time>2024-07-14T09:06:43Z</time>
      </trkpt>
      <trkpt lat="44.79866" lon="0.49266">
        <ele>127.3</ele>
        <time>2024-07-14T09:06:45Z</time>
      </trkpt>
      <trkpt lat="44.79864" lon="0.4926">
        <ele>127.8</ele>
        <time>2024-07-14T09:06:47Z</time>
      </trkpt>
      <trkpt lat="44.79861" lon="0.49253">
        <ele>128.3</ele>
        <time>2024-07-14T09:06:49Z</time>
      </trkpt>
      <trkpt lat="44.79858" lon="0.49248">
        <ele>128.7</ele>
        <time>2024-07-14T09:06:51Z</time>
      </trkpt>
      <trkpt lat="44.79855" lon="0.49243">
        <ele>129.2</ele>
        <time>2024-07-14T09:06:53Z</time>
      </trkpt>
      <trkpt lat="44.79851" lon="0.49238">
        <ele>129.6</ele>
        <time>2024-07-14T09:06:55Z</time>
      </trkpt>
      <trkpt lat="44.79848" lon="0.49232">
        <ele>130.1</ele>
        <time>2024-07-14T09:06:57Z</time>
      </trkpt>
      <trkpt lat="44.79844" lon="0.49226">
        <ele>130.6</ele>
        <time>2024-07-14T09:06:59Z</time>
      </trkpt>
      <trkpt lat="44.79841" lon="0.49221">
        <ele>131</ele>
        <time>2024-07-14T09:07:01Z</time>
      </trkpt>
      <trkpt lat="44.79837" lon="0.49216">
        <ele>131.5</ele>
        <time>2024-07-14T09:07:03Z</time>
      </trkpt>
      <trkpt lat="44.79836" lon="0.49214">
        <ele>131.7</ele>
        <time>2024-07-14T09:07:04Z</time>
      </trkpt>
      <trkpt lat="44.79834" lon="0.49212">
        <ele>131.9</ele>
        <time>2024-07-14T09:07:05Z</time>
      </trkpt>
      <trkpt lat="44.7983" lon="0.49208">
        <ele>132.3</ele>
        <time>2024-07-14T09:07:07Z</time>
      </trkpt>
      <trkpt lat="44.79826" lon="0.49204">
        <ele>132.7</ele>
        <time>2024-07-14T09:07:09Z</time>
      </trkpt>
      <trkpt lat="44.79824" lon="0.49202">
        <ele>132.9</ele>
        <time>2024-07-14T09:07:10Z</time>
      </trkpt>
      <trkpt lat="44.79822" lon="0.49201">
        <ele>133.1</ele>
        <time>2024-07-14T09:07:11Z</time>
      </trkpt>
      <trkpt lat="44.79818" lon="0.49197">
        <ele>133.5</ele>
        <time>2024-07-14T09:07:13Z</time>
      </trkpt>
      <trkpt lat="44.79814" lon="0.49194">
        <ele>133.8</ele>
        <time>2024-07-14T09:07:15Z</time>
      </trkpt>
      <trkpt lat="44.79809" lon="0.49191">
        <ele>134.2</ele>
        <time>2024-07-14T09:07:17Z</time>
      </trkpt>
      <trkpt lat="44.79805" lon="0.49188">
        <ele>134.6</ele>
        <time>2024-07-14T09:07:19Z</time>
      </trkpt>
      <trkpt lat="44.79801" lon="0.49187">
        <ele>134.9</ele>
        <time>2024-07-14T09:07:21Z</time>
      </trkpt>
      <trkpt lat="44.79799" lon="0.49186">
        <ele>135</ele>
        <time>2024-07-14T09:07:22Z</time>
      </trkpt>
      <trkpt lat="44.79797" lon="0.49186">
        <ele>135.2</ele>
        <time>2024-07-14T09:07:23Z</time>
      </trkpt>
      <trkpt lat="44.79793" lon="0.49185">
        <ele>135.5</ele>
        <time>2024-07-14T09:07:25Z</time>
      </trkpt>
      <trkpt lat="44.79789" lon="0.49184">
        <ele>135.9</ele>
        <time>2024-07-14T09:07:27Z</time>
      </trkpt>
      <trkpt lat="44.79788" lon="0.49183">
        <ele>136</ele>
        <time>2024-07-14T09:07:28Z</time>
      </trkpt>
      <trkpt lat="44.79786" lon="0.49184">
        <ele>136.2</ele>
        <time>2024-07-14T09:07:29Z</time>
      </trkpt>
      <trkpt lat="44.79783" lon="0.49184">
        <ele>136.4</ele>
        <time>2024-07-14T09:07:31Z</time>
      </trkpt>
      <trkpt lat="44.7978" lon="0.49184">
        <ele>136.7</ele>
        <time>2024-07-14T09:07:33Z</time>
      </trkpt>
      <trkpt lat="44.79777" lon="0.49185">
        <ele>136.9</ele>
        <time>2024-07-14T09:07:35Z</time>
      </trkpt>
      <trkpt lat="44.79775" lon="0.49185">
        <ele>137.2</ele>
        <time>2024-07-14T09:07:37Z</time>
      </trkpt>
      <trkpt lat="44.79772" lon="0.49186">
        <ele>137.4</ele>
        <time>2024-07-14T09:07:39Z</time>
      </trkpt>
      <trkpt lat="44.7977" lon="0.49187">
        <ele>137.7</ele>
        <time>2024-07-14T09:07:41Z</time>
      </trkpt>
      <trkpt lat="44.79767" lon="0.49187">
        <ele>137.9</ele>
        <time>2024-07-14T09:07:43Z</time>
      </trkpt>
      <trkpt lat="44.79765" lon="0.49188">
        <ele>138.1</ele>
        <time>2024-07-14T09:07:45Z</time>
      </trkpt>
      <trkpt lat="44.79763" lon="0.49189">
        <ele>138.4</ele>
        <time>2024-07-14T09:07:47Z</time>
      </trkpt>
      <trkpt lat="44.79761" lon="0.49191">
        <ele>138.6</ele>
        <time>2024-07-14T09:07:49Z</time>
      </trkpt>
      <trkpt lat="44.79758" lon="0.49191">
        <ele>138.8</ele>
        <time>2024-07-14T09:07:51Z</time>
      </trkpt>
      <trkpt lat="44.79756" lon="0.49192">
        <ele>139</ele>
        <time>2024-07-14T09:07:53Z</time>
      </trkpt>
      <trkpt lat="44.79754" lon="0.49192">
        <ele>139.2</ele>
        <time>2024-07-14T09:07:54Z</time>
      </trkpt>
      <trkpt lat="44.79753" lon="0.49193">
        <ele>139.3</ele>
        <time>2024-07-14T09:07:55Z</time>
      </trkpt>
      <trkpt lat="44.79751" lon="0.49195">
        <ele>139.5</ele>
        <time>2024-07-14T09:07:57Z</time>
      </trkpt>
      <trkpt lat="44.79748" lon="0.49197">
        <ele>139.8</ele>
        <time>2024-07-14T09:07:59Z</time>
      </trkpt>
      <trkpt lat="44.79746" lon="0.49199">
        <ele>140</ele>
        <time>2024-07-14T09:08:01Z</time>
      </trkpt>
      <trkpt lat="44.79745" lon="0.49199">
        <ele>140.1</ele>
        <time>2024-07-14T09:08:02Z</time>
      </trkpt>
      <trkpt lat="44.79744" lon="0.49199">
        <ele>140.2</ele>
        <time>2024-07-14T09:08:03Z</time>
      </trkpt>
      <trkpt lat="44.79741" lon="0.49201">
        <ele>140.5</ele>
        <time>2024-07-14T09:08:05Z</time>
      </trkpt>
      <trkpt lat="44.79738" lon="0.49202">
        <ele>140.7</ele>
        <time>2024-07-14T09:08:07Z</time>
      </trkpt>
      <trkpt lat="44.79735" lon="0.49203">
        <ele>141</ele>
        <time>2024-07-14T09:08:09Z</time>
      </trkpt>
      <trkpt lat="44.79732" lon="0.49203">
        <ele>141.3</ele>
        <time>2024-07-14T09:08:11Z</time>
      </trkpt>
      <trkpt lat="44.79728" lon="0.49204">
        <ele>141.6</ele>
        <time>2024-07-14T09:08:13Z</time>
      </trkpt>
      <trkpt lat="44.79725" lon="0.49205">
        <ele>141.9</ele>
        <time>2024-07-14T09:08:15Z</time>
      </trkpt>
      <trkpt lat="44.79723" lon="0.49206">
        <ele>142.1</ele>
        <time>2024-07-14T09:08:16Z</time>
      </trkpt>
      <trkpt lat="44.79721" lon="0.49207">
        <ele>142.2</ele>
        <time>2024-07-14T09:08:17Z</time>
      </trkpt>
      <trkpt lat="44.79717" lon="0.49208">
        <ele>142.5</ele>
        <time>2024-07-14T09:08:19Z</time>
      </trkpt>
      <trkpt lat="44.79713" lon="0.4921">
        <ele>142.8</ele>
        <time>2024-07-14T09:08:21Z</time>
      </trkpt>
      <trkpt lat="44.7971" lon="0.49212">
        <ele>143.1</ele>
        <time>2024-07-14T09:08:23Z</time>
      </trkpt>
      <trkpt lat="44.79708" lon="0.49214">
        <ele>143.3</ele>
        <time>2024-07-14T09:08:24Z</time>
      </trkpt>
      <trkpt lat="44.79706" lon="0.49215">
        <ele>143.4</ele>
        <time>2024-07-14T09:08:25Z</time>
      </trkpt>
      <trkpt lat="44.79703" lon="0.49218">
        <ele>143.7</ele>
        <time>2024-07-14T09:08:27Z</time>
      </trkpt>
      <trkpt lat="44.79702" lon="0.49219">
        <ele>143.9</ele>
        <time>2024-07-14T09:08:28Z</time>
      </trkpt>
      <trkpt lat="44.797" lon="0.4922">
        <ele>144</ele>
        <time>2024-07-14T09:08:29Z</time>
      </trkpt>
      <trkpt lat="44.79698" lon="0.4922">
        <ele>144.2</ele>
        <time>2024-07-14T09:08:30Z</time>
      </trkpt>
      <trkpt lat="44.79696" lon="0.4922">
        <ele>144.3</ele>
        <time>2024-07-14T09:08:31Z</time>
      </trkpt>
      <trkpt lat="44.79692" lon="0.49221">
        <ele>144.7</ele>
        <time>2024-07-14T09:08:33Z</time>
      </trkpt>
      <trkpt lat="44.79688" lon="0.49221">
        <ele>145</ele>
        <time>2024-07-14T09:08:35Z</time>
      </trkpt>
      <trkpt lat="44.79687" lon="0.49221">
        <ele>145.2</ele>
        <time>2024-07-14T09:08:36Z</time>
      </trkpt>
      <trkpt lat="44.79685" lon="0.49219">
        <ele>145.3</ele>
        <time>2024-07-14T09:08:37Z</time>
      </trkpt>
      <trkpt lat="44.79681" lon="0.49216">
        <ele>145.3</ele>
        <time>2024-07-14T09:08:39Z</time>
      </trkpt>
      <trkpt lat="44.79679" lon="0.49209">
        <ele>144.6</ele>
        <time>2024-07-14T09:08:41Z</time>
      </trkpt>
      <trkpt lat="44.79676" lon="0.49201">
        <ele>144</ele>
        <time>2024-07-14T09:08:43Z</time>
      </trkpt>
      <trkpt lat="44.79674" lon="0.49189">
        <ele>143.1</ele>
        <time>2024-07-14T09:08:45Z</time>
      </trkpt>
      <trkpt lat="44.79672" lon="0.49182">
        <ele>142.9</ele>
        <time>2024-07-14T09:08:46Z</time>
      </trkpt>
      <trkpt lat="44.7967" lon="0.49174">
        <ele>142.5</ele>
        <time>2024-07-14T09:08:47Z</time>
      </trkpt>
      <trkpt lat="44.79668" lon="0.49166">
        <ele>142.1</ele>
        <time>2024-07-14T09:08:48Z</time>
      </trkpt>
      <trkpt lat="44.79666" lon="0.49157">
        <ele>142</ele>
        <time>2024-07-14T09:08:49Z</time>
      </trkpt>
      <trkpt lat="44.79661" lon="0.49134">
        <ele>141.9</ele>
        <time>2024-07-14T09:08:51Z</time>
      </trkpt>
      <trkpt lat="44.79657" lon="0.49111">
        <ele>143</ele>
        <time>2024-07-14T09:08:53Z</time>
      </trkpt>
      <trkpt lat="44.79653" lon="0.4909">
        <ele>144.1</ele>
        <time>2024-07-14T09:08:55Z</time>
      </trkpt>
      <trkpt lat="44.79652" lon="0.49082">
        <ele>144.5</ele>
        <time>2024-07-14T09:08:56Z</time>
      </trkpt>
      <trkpt lat="44.79651" lon="0.49075">
        <ele>144.9</ele>
        <time>2024-07-14T09:08:57Z</time>
      </trkpt>
      <trkpt lat="44.79649" lon="0.49065">
        <ele>145.7</ele>
        <time>2024-07-14T09:08:59Z</time>
      </trkpt>
      <trkpt lat="44.79648" lon="0.49061">
        <ele>146</ele>
        <time>2024-07-14T09:09:00Z</time>
      </trkpt>
      <trkpt lat="44.79647" lon="0.49058">
        <ele>146.3</ele>
        <time>2024-07-14T09:09:01Z</time>
      </trkpt>
      <trkpt lat="44.79646" lon="0.49052">
        <ele>146.9</ele>
        <time>2024-07-14T09:09:03Z</time>
      </trkpt>
      <trkpt lat="44.79645" lon="0.49048">
        <ele>147.6</ele>
        <time>2024-07-14T09:09:05Z</time>
      </trkpt>
      <trkpt lat="44.79644" lon="0.49045">
        <ele>147.6</ele>
        <time>2024-07-14T09:09:06Z</time>
      </trkpt>
      <trkpt lat="44.79644" lon="0.49043">
        <ele>147.9</ele>
        <time>2024-07-14T09:09:07Z</time>
      </trkpt>
      <trkpt lat="44.79643" lon="0.49039">
        <ele>148.2</ele>
        <time>2024-07-14T09:09:09Z</time>
      </trkpt>
      <trkpt lat="44.79642" lon="0.49035">
        <ele>148.5</ele>
        <time>2024-07-14T09:09:11Z</time>
      </trkpt>
      <trkpt lat="44.7964" lon="0.49032">
        <ele>148.9</ele>
        <time>2024-07-14T09:09:13Z</time>
      </trkpt>
      <trkpt lat="44.79638" lon="0.49029">
        <ele>149.5</ele>
        <time>2024-07-14T09:09:15Z</time>
      </trkpt>
      <trkpt lat="44.79636" lon="0.49027">
        <ele>149.8</ele>
        <time>2024-07-14T09:09:17Z</time>
      </trkpt>
      <trkpt lat="44.79635" lon="0.49026">
        <ele>150.1</ele>
        <time>2024-07-14T09:09:19Z</time>
      </trkpt>
      <trkpt lat="44.79634" lon="0.49026">
        <ele>150.1</ele>
        <time>2024-07-14T09:09:20Z</time>
      </trkpt>
      <trkpt lat="44.79632" lon="0.49027">
        <ele>150</ele>
        <time>2024-07-14T09:09:21Z</time>
      </trkpt>
      <trkpt lat="44.79629" lon="0.49029">
        <ele>150.2</ele>
        <time>2024-07-14T09:09:23Z</time>
      </trkpt>
      <trkpt lat="44.79626" lon="0.49032">
        <ele>150</ele>
        <time>2024-07-14T09:09:25Z</time>
      </trkpt>
      <trkpt lat="44.79624" lon="0.49033">
        <ele>150.1</ele>
        <time>2024-07-14T09:09:27Z</time>
      </trkpt>
      <trkpt lat="44.79621" lon="0.49034">
        <ele>150.1</ele>
        <time>2024-07-14T09:09:29Z</time>
      </trkpt>
      <trkpt lat="44.79619" lon="0.49035">
        <ele>149.8</ele>
        <time>2024-07-14T09:09:31Z</time>
      </trkpt>
      <trkpt lat="44.79616" lon="0.49036">
        <ele>149.9</ele>
        <time>2024-07-14T09:09:33Z</time>
      </trkpt>
      <trkpt lat="44.79614" lon="0.49036">
        <ele>149.9</ele>
        <time>2024-07-14T09:09:35Z</time>
      </trkpt>
      <trkpt lat="44.79612" lon="0.49036">
        <ele>150</ele>
        <time>2024-07-14T09:09:37Z</time>
      </trkpt>
      <trkpt lat="44.79611" lon="0.49035">
        <ele>150</ele>
        <time>2024-07-14T09:09:38Z</time>
      </trkpt>
      <trkpt lat="44.79611" lon="0.49034">
        <ele>150.3</ele>
        <time>2024-07-14T09:09:39Z</time>
      </trkpt>
      <trkpt lat="44.79611" lon="0.4903">
        <ele>150.6</ele>
        <time>2024-07-14T09:09:41Z</time>
      </trkpt>
      <trkpt lat="44.79611" lon="0.49028">
        <ele>150.6</ele>
        <time>2024-07-14T09:09:42Z</time>
      </trkpt>
      <trkpt lat="44.79612" lon="0.49026">
        <ele>150.9</ele>
        <time>2024-07-14T09:09:43Z</time>
      </trkpt>
      <trkpt lat="44.79612" lon="0.49024">
        <ele>150.9</ele>
        <time>2024-07-14T09:09:44Z</time>
      </trkpt>
      <trkpt lat="44.79614" lon="0.49022">
        <ele>151.2</ele>
        <time>2024-07-14T09:09:45Z</time>
      </trkpt>
      <trkpt lat="44.79617" lon="0.49019">
        <ele>151.1</ele>
        <time>2024-07-14T09:09:47Z</time>
      </trkpt>
      <trkpt lat="44.7962" lon="0.49017">
        <ele>151.3</ele>
        <time>2024-07-14T09:09:49Z</time>
      </trkpt>
      <trkpt lat="44.79623" lon="0.49011">
        <ele>151.4</ele>
        <time>2024-07-14T09:09:51Z</time>
      </trkpt>
      <trkpt lat="44.79624" lon="0.49007">
        <ele>151.5</ele>
        <time>2024-07-14T09:09:53Z</time>
      </trkpt>
      <trkpt lat="44.79625" lon="0.49004">
        <ele>151.6</ele>
        <time>2024-07-14T09:09:54Z</time>
      </trkpt>
      <trkpt lat="44.79626" lon="0.49002">
        <ele>151.6</ele>
        <time>2024-07-14T09:09:55Z</time>
      </trkpt>
      <trkpt lat="44.79632" lon="0.49">
        <ele>151.4</ele>
        <time>2024-07-14T09:09:57Z</time>
      </trkpt>
      <trkpt lat="44.79635" lon="0.49001">
        <ele>151.2</ele>
        <time>2024-07-14T09:09:58Z</time>
      </trkpt>
      <trkpt lat="44.7964" lon="0.49001">
        <ele>150.5</ele>
        <time>2024-07-14T09:09:59Z</time>
      </trkpt>
      <trkpt lat="44.79644" lon="0.49001">
        <ele>150.2</ele>
        <time>2024-07-14T09:10:00Z</time>
      </trkpt>
      <trkpt lat="44.79648" lon="0.48999">
        <ele>150.1</ele>
        <time>2024-07-14T09:10:01Z</time>
      </trkpt>
      <trkpt lat="44.79652" lon="0.48997">
        <ele>149.4</ele>
        <time>2024-07-14T09:10:02Z</time>
      </trkpt>
      <trkpt lat="44.79655" lon="0.48994">
        <ele>149.2</ele>
        <time>2024-07-14T09:10:03Z</time>
      </trkpt>
      <trkpt lat="44.79658" lon="0.4899">
        <ele>149</ele>
        <time>2024-07-14T09:10:04Z</time>
      </trkpt>
      <trkpt lat="44.79661" lon="0.48986">
        <ele>148.7</ele>
        <time>2024-07-14T09:10:05Z</time>
      </trkpt>
      <trkpt lat="44.79662" lon="0.4898">
        <ele>148.9</ele>
        <time>2024-07-14T09:10:07Z</time>
      </trkpt>
      <trkpt lat="44.79663" lon="0.48977">
        <ele>149</ele>
        <time>2024-07-14T09:10:08Z</time>
      </trkpt>
      <trkpt lat="44.79665" lon="0.48973">
        <ele>148.7</ele>
        <time>2024-07-14T09:10:09Z</time>
      </trkpt>
      <trkpt lat="44.79665" lon="0.48971">
        <ele>148.7</ele>
        <time>2024-07-14T09:10:10Z</time>
      </trkpt>
      <trkpt lat="44.79667" lon="0.4897">
        <ele>148.4</ele>
        <time>2024-07-14T09:10:11Z</time>
      </trkpt>
      <trkpt lat="44.7967" lon="0.48967">
        <ele>148.4</ele>
        <time>2024-07-14T09:10:12Z</time>
      </trkpt>
      <trkpt lat="44.79672" lon="0.48965">
        <ele>148.1</ele>
        <time>2024-07-14T09:10:13Z</time>
      </trkpt>
      <trkpt lat="44.79671" lon="0.4896">
        <ele>148.4</ele>
        <time>2024-07-14T09:10:15Z</time>
      </trkpt>
      <trkpt lat="44.79673" lon="0.48955">
        <ele>148.6</ele>
        <time>2024-07-14T09:10:17Z</time>
      </trkpt>
      <trkpt lat="44.79674" lon="0.48952">
        <ele>148.4</ele>
        <time>2024-07-14T09:10:18Z</time>
      </trkpt>
      <trkpt lat="44.79675" lon="0.4895">
        <ele>148.4</ele>
        <time>2024-07-14T09:10:19Z</time>
      </trkpt>
      <trkpt lat="44.79674" lon="0.48947">
        <ele>148.7</ele>
        <time>2024-07-14T09:10:20Z</time>
      </trkpt>
      <trkpt lat="44.79676" lon="0.48944">
        <ele>148.5</ele>
        <time>2024-07-14T09:10:21Z</time>
      </trkpt>
      <trkpt lat="44.7968" lon="0.4894">
        <ele>148.5</ele>
        <time>2024-07-14T09:10:23Z</time>
      </trkpt>
      <trkpt lat="44.79682" lon="0.48939">
        <ele>148.1</ele>
        <time>2024-07-14T09:10:24Z</time>
      </trkpt>
      <trkpt lat="44.79686" lon="0.48939">
        <ele>147.6</ele>
        <time>2024-07-14T09:10:25Z</time>
      </trkpt>
      <trkpt lat="44.79692" lon="0.4894">
        <ele>146.6</ele>
        <time>2024-07-14T09:10:26Z</time>
      </trkpt>
      <trkpt lat="44.79695" lon="0.48942">
        <ele>145.7</ele>
        <time>2024-07-14T09:10:27Z</time>
      </trkpt>
      <trkpt lat="44.79701" lon="0.48943">
        <ele>144.5</ele>
        <time>2024-07-14T09:10:29Z</time>
      </trkpt>
      <trkpt lat="44.79705" lon="0.48939">
        <ele>144.3</ele>
        <time>2024-07-14T09:10:31Z</time>
      </trkpt>
      <trkpt lat="44.79709" lon="0.48936">
        <ele>144.1</ele>
        <time>2024-07-14T09:10:32Z</time>
      </trkpt>
      <trkpt lat="44.79713" lon="0.48935">
        <ele>142.9</ele>
        <time>2024-07-14T09:10:33Z</time>
      </trkpt>
      <trkpt lat="44.7972" lon="0.48934">
        <ele>141.5</ele>
        <time>2024-07-14T09:10:35Z</time>
      </trkpt>
      <trkpt lat="44.79728" lon="0.48929">
        <ele>139.8</ele>
        <time>2024-07-14T09:10:37Z</time>
      </trkpt>
      <trkpt lat="44.79728" lon="0.48927">
        <ele>140.3</ele>
        <time>2024-07-14T09:10:38Z</time>
      </trkpt>
      <trkpt lat="44.79732" lon="0.48924">
        <ele>139.6</ele>
        <time>2024-07-14T09:10:39Z</time>
      </trkpt>
      <trkpt lat="44.79733" lon="0.48921">
        <ele>140</ele>
        <time>2024-07-14T09:10:40Z</time>
      </trkpt>
      <trkpt lat="44.79735" lon="0.48918">
        <ele>139.8</ele>
        <time>2024-07-14T09:10:41Z</time>
      </trkpt>
      <trkpt lat="44.79737" lon="0.48916">
        <ele>139.8</ele>
        <time>2024-07-14T09:10:42Z</time>
      </trkpt>
      <trkpt lat="44.79738" lon="0.48914">
        <ele>139.6</ele>
        <time>2024-07-14T09:10:43Z</time>
      </trkpt>
      <trkpt lat="44.79738" lon="0.48911">
        <ele>139.6</ele>
        <time>2024-07-14T09:10:44Z</time>
      </trkpt>
      <trkpt lat="44.79739" lon="0.48908">
        <ele>140</ele>
        <time>2024-07-14T09:10:45Z</time>
      </trkpt>
      <trkpt lat="44.7974" lon="0.48902">
        <ele>139.7</ele>
        <time>2024-07-14T09:10:47Z</time>
      </trkpt>
      <trkpt lat="44.79741" lon="0.48897">
        <ele>140.6</ele>
        <time>2024-07-14T09:10:49Z</time>
      </trkpt>
      <trkpt lat="44.79741" lon="0.48895">
        <ele>140.6</ele>
        <time>2024-07-14T09:10:50Z</time>
      </trkpt>
      <trkpt lat="44.79743" lon="0.48891">
        <ele>141</ele>
        <time>2024-07-14T09:10:51Z</time>
      </trkpt>
      <trkpt lat="44.79746" lon="0.48885">
        <ele>140.4</ele>
        <time>2024-07-14T09:10:53Z</time>
      </trkpt>
      <trkpt lat="44.79749" lon="0.48879">
        <ele>141.2</ele>
        <time>2024-07-14T09:10:55Z</time>
      </trkpt>
      <trkpt lat="44.7975" lon="0.48878">
        <ele>140.7</ele>
        <time>2024-07-14T09:10:56Z</time>
      </trkpt>
      <trkpt lat="44.79752" lon="0.48877">
        <ele>140.2</ele>
        <time>2024-07-14T09:10:57Z</time>
      </trkpt>
      <trkpt lat="44.79756" lon="0.48876">
        <ele>140</ele>
        <time>2024-07-14T09:10:59Z</time>
      </trkpt>
      <trkpt lat="44.79756" lon="0.48871">
        <ele>140.4</ele>
        <time>2024-07-14T09:11:01Z</time>
      </trkpt>
      <trkpt lat="44.79759" lon="0.48867">
        <ele>140.2</ele>
        <time>2024-07-14T09:11:02Z</time>
      </trkpt>
      <trkpt lat="44.79761" lon="0.48865">
        <ele>140.2</ele>
        <time>2024-07-14T09:11:03Z</time>
      </trkpt>
      <trkpt lat="44.79761" lon="0.4886">
        <ele>140.5</ele>
        <time>2024-07-14T09:11:05Z</time>
      </trkpt>
      <trkpt lat="44.79761" lon="0.48857">
        <ele>140.9</ele>
        <time>2024-07-14T09:11:06Z</time>
      </trkpt>
      <trkpt lat="44.79761" lon="0.48854">
        <ele>140.7</ele>
        <time>2024-07-14T09:11:07Z</time>
      </trkpt>
      <trkpt lat="44.79763" lon="0.48851">
        <ele>140.7</ele>
        <time>2024-07-14T09:11:08Z</time>
      </trkpt>
      <trkpt lat="44.79765" lon="0.4885">
        <ele>140.6</ele>
        <time>2024-07-14T09:11:09Z</time>
      </trkpt>
      <trkpt lat="44.79766" lon="0.48849">
        <ele>140.6</ele>
        <time>2024-07-14T09:11:10Z</time>
      </trkpt>
      <trkpt lat="44.79769" lon="0.48849">
        <ele>140.1</ele>
        <time>2024-07-14T09:11:11Z</time>
      </trkpt>
      <trkpt lat="44.79772" lon="0.48848">
        <ele>139.7</ele>
        <time>2024-07-14T09:11:12Z</time>
      </trkpt>
      <trkpt lat="44.79776" lon="0.48845">
        <ele>139.5</ele>
        <time>2024-07-14T09:11:13Z</time>
      </trkpt>
      <trkpt lat="44.7978" lon="0.48841">
        <ele>138.8</ele>
        <time>2024-07-14T09:11:15Z</time>
      </trkpt>
      <trkpt lat="44.79781" lon="0.48838">
        <ele>138.8</ele>
        <time>2024-07-14T09:11:16Z</time>
      </trkpt>
      <trkpt lat="44.79783" lon="0.48837">
        <ele>138.7</ele>
        <time>2024-07-14T09:11:17Z</time>
      </trkpt>
      <trkpt lat="44.79788" lon="0.48831">
        <ele>138.6</ele>
        <time>2024-07-14T09:11:19Z</time>
      </trkpt>
      <trkpt lat="44.79796" lon="0.48828">
        <ele>137.7</ele>
        <time>2024-07-14T09:11:20Z</time>
      </trkpt>
      <trkpt lat="44.798" lon="0.48824">
        <ele>137.6</ele>
        <time>2024-07-14T09:11:21Z</time>
      </trkpt>
      <trkpt lat="44.79803" lon="0.48819">
        <ele>137.4</ele>
        <time>2024-07-14T09:11:23Z</time>
      </trkpt>
      <trkpt lat="44.79803" lon="0.48817">
        <ele>137.4</ele>
        <time>2024-07-14T09:11:24Z</time>
      </trkpt>
      <trkpt lat="44.79803" lon="0.48815">
        <ele>137.8</ele>
        <time>2024-07-14T09:11:25Z</time>
      </trkpt>
      <trkpt lat="44.79805" lon="0.48811">
        <ele>137.6</ele>
        <time>2024-07-14T09:11:27Z</time>
      </trkpt>
      <trkpt lat="44.79806" lon="0.48808">
        <ele>137.6</ele>
        <time>2024-07-14T09:11:28Z</time>
      </trkpt>
      <trkpt lat="44.79807" lon="0.48806">
        <ele>137.4</ele>
        <time>2024-07-14T09:11:29Z</time>
      </trkpt>
      <trkpt lat="44.79808" lon="0.48801">
        <ele>137.8</ele>
        <time>2024-07-14T09:11:31Z</time>
      </trkpt>
      <trkpt lat="44.79807" lon="0.48799">
        <ele>137.8</ele>
        <time>2024-07-14T09:11:32Z</time>
      </trkpt>
      <trkpt lat="44.79808" lon="0.48798">
        <ele>138.2</ele>
        <time>2024-07-14T09:11:33Z</time>
      </trkpt>
      <trkpt lat="44.79808" lon="0.48795">
        <ele>138.2</ele>
        <time>2024-07-14T09:11:35Z</time>
      </trkpt>
      <trkpt lat="44.79808" lon="0.48792">
        <ele>138.6</ele>
        <time>2024-07-14T09:11:37Z</time>
      </trkpt>
      <trkpt lat="44.79808" lon="0.4879">
        <ele>139</ele>
        <time>2024-07-14T09:11:38Z</time>
      </trkpt>
      <trkpt lat="44.79808" lon="0.48789">
        <ele>139</ele>
        <time>2024-07-14T09:11:39Z</time>
      </trkpt>
      <trkpt lat="44.79807" lon="0.48787">
        <ele>139</ele>
        <time>2024-07-14T09:11:40Z</time>
      </trkpt>
      <trkpt lat="44.79807" lon="0.48785">
        <ele>139.4</ele>
        <time>2024-07-14T09:11:41Z</time>
      </trkpt>
      <trkpt lat="44.79807" lon="0.48783">
        <ele>139.4</ele>
        <time>2024-07-14T09:11:42Z</time>
      </trkpt>
      <trkpt lat="44.79807" lon="0.48781">
        <ele>139.8</ele>
        <time>2024-07-14T09:11:43Z</time>
      </trkpt>
      <trkpt lat="44.79807" lon="0.4878">
        <ele>139.8</ele>
        <time>2024-07-14T09:11:44Z</time>
      </trkpt>
      <trkpt lat="44.79807" lon="0.48778">
        <ele>139.8</ele>
        <time>2024-07-14T09:11:45Z</time>
      </trkpt>
      <trkpt lat="44.79807" lon="0.48774">
        <ele>140.1</ele>
        <time>2024-07-14T09:11:47Z</time>
      </trkpt>
      <trkpt lat="44.79808" lon="0.48771">
        <ele>140.5</ele>
        <time>2024-07-14T09:11:49Z</time>
      </trkpt>
      <trkpt lat="44.79807" lon="0.48769">
        <ele>140.9</ele>
        <time>2024-07-14T09:11:51Z</time>
      </trkpt>
      <trkpt lat="44.79807" lon="0.48764">
        <ele>141.2</ele>
        <time>2024-07-14T09:11:53Z</time>
      </trkpt>
      <trkpt lat="44.79808" lon="0.48763">
        <ele>141.2</ele>
        <time>2024-07-14T09:11:54Z</time>
      </trkpt>
      <trkpt lat="44.79808" lon="0.48761">
        <ele>141.2</ele>
        <time>2024-07-14T09:11:55Z</time>
      </trkpt>
      <trkpt lat="44.79808" lon="0.4876">
        <ele>141.6</ele>
        <time>2024-07-14T09:11:56Z</time>
      </trkpt>
      <trkpt lat="44.79809" lon="0.48758">
        <ele>141.6</ele>
        <time>2024-07-14T09:11:57Z</time>
      </trkpt>
      <trkpt lat="44.79809" lon="0.48755">
        <ele>141.9</ele>
        <time>2024-07-14T09:11:59Z</time>
      </trkpt>
      <trkpt lat="44.79808" lon="0.48754">
        <ele>141.9</ele>
        <time>2024-07-14T09:12:00Z</time>
      </trkpt>
      <trkpt lat="44.79808" lon="0.48752">
        <ele>141.9</ele>
        <time>2024-07-14T09:12:01Z</time>
      </trkpt>
      <trkpt lat="44.79807" lon="0.4875">
        <ele>142.2</ele>
        <time>2024-07-14T09:12:02Z</time>
      </trkpt>
      <trkpt lat="44.79807" lon="0.48749">
        <ele>142.7</ele>
        <time>2024-07-14T09:12:03Z</time>
      </trkpt>
      <trkpt lat="44.79806" lon="0.48745">
        <ele>143</ele>
        <time>2024-07-14T09:12:05Z</time>
      </trkpt>
      <trkpt lat="44.79805" lon="0.48742">
        <ele>143.3</ele>
        <time>2024-07-14T09:12:07Z</time>
      </trkpt>
      <trkpt lat="44.79805" lon="0.4874">
        <ele>143.3</ele>
        <time>2024-07-14T09:12:08Z</time>
      </trkpt>
      <trkpt lat="44.79804" lon="0.48738">
        <ele>143.5</ele>
        <time>2024-07-14T09:12:09Z</time>
      </trkpt>
      <trkpt lat="44.79805" lon="0.48734">
        <ele>143.8</ele>
        <time>2024-07-14T09:12:11Z</time>
      </trkpt>
      <trkpt lat="44.79805" lon="0.48732">
        <ele>143.8</ele>
        <time>2024-07-14T09:12:13Z</time>
      </trkpt>
      <trkpt lat="44.79806" lon="0.48731">
        <ele>143.8</ele>
        <time>2024-07-14T09:12:14Z</time>
      </trkpt>
      <trkpt lat="44.79807" lon="0.4873">
        <ele>143.5</ele>
        <time>2024-07-14T09:12:15Z</time>
      </trkpt>
      <trkpt lat="44.7981" lon="0.48728">
        <ele>143.5</ele>
        <time>2024-07-14T09:12:17Z</time>
      </trkpt>
      <trkpt lat="44.7981" lon="0.48726">
        <ele>143.1</ele>
        <time>2024-07-14T09:12:18Z</time>
      </trkpt>
      <trkpt lat="44.79811" lon="0.48724">
        <ele>143.3</ele>
        <time>2024-07-14T09:12:19Z</time>
      </trkpt>
      <trkpt lat="44.79811" lon="0.48722">
        <ele>143.3</ele>
        <time>2024-07-14T09:12:20Z</time>
      </trkpt>
      <trkpt lat="44.79812" lon="0.4872">
        <ele>143.6</ele>
        <time>2024-07-14T09:12:21Z</time>
      </trkpt>
      <trkpt lat="44.79814" lon="0.48717">
        <ele>143.5</ele>
        <time>2024-07-14T09:12:22Z</time>
      </trkpt>
      <trkpt lat="44.79815" lon="0.48714">
        <ele>143.4</ele>
        <time>2024-07-14T09:12:23Z</time>
      </trkpt>
      <trkpt lat="44.79817" lon="0.48706">
        <ele>143.6</ele>
        <time>2024-07-14T09:12:25Z</time>
      </trkpt>
      <trkpt lat="44.79817" lon="0.48704">
        <ele>143.9</ele>
        <time>2024-07-14T09:12:26Z</time>
      </trkpt>
      <trkpt lat="44.79818" lon="0.48701">
        <ele>143.9</ele>
        <time>2024-07-14T09:12:27Z</time>
      </trkpt>
      <trkpt lat="44.79818" lon="0.48699">
        <ele>144.2</ele>
        <time>2024-07-14T09:12:28Z</time>
      </trkpt>
      <trkpt lat="44.79819" lon="0.48696">
        <ele>144.5</ele>
        <time>2024-07-14T09:12:29Z</time>
      </trkpt>
      <trkpt lat="44.79819" lon="0.48693">
        <ele>144.5</ele>
        <time>2024-07-14T09:12:30Z</time>
      </trkpt>
      <trkpt lat="44.79819" lon="0.4869">
        <ele>144.8</ele>
        <time>2024-07-14T09:12:31Z</time>
      </trkpt>
      <trkpt lat="44.79819" lon="0.48687">
        <ele>145</ele>
        <time>2024-07-14T09:12:32Z</time>
      </trkpt>
      <trkpt lat="44.79819" lon="0.48685">
        <ele>145</ele>
        <time>2024-07-14T09:12:33Z</time>
      </trkpt>
      <trkpt lat="44.79819" lon="0.48681">
        <ele>145.1</ele>
        <time>2024-07-14T09:12:34Z</time>
      </trkpt>
      <trkpt lat="44.79819" lon="0.48677">
        <ele>145.3</ele>
        <time>2024-07-14T09:12:35Z</time>
      </trkpt>
      <trkpt lat="44.79819" lon="0.4867">
        <ele>145.4</ele>
        <time>2024-07-14T09:12:37Z</time>
      </trkpt>
      <trkpt lat="44.7982" lon="0.48664">
        <ele>145</ele>
        <time>2024-07-14T09:12:39Z</time>
      </trkpt>
      <trkpt lat="44.7982" lon="0.48659">
        <ele>144.9</ele>
        <time>2024-07-14T09:12:41Z</time>
      </trkpt>
      <trkpt lat="44.79821" lon="0.48653">
        <ele>144.9</ele>
        <time>2024-07-14T09:12:43Z</time>
      </trkpt>
      <trkpt lat="44.79821" lon="0.4865">
        <ele>144.8</ele>
        <time>2024-07-14T09:12:45Z</time>
      </trkpt>
      <trkpt lat="44.79821" lon="0.48648">
        <ele>144.8</ele>
        <time>2024-07-14T09:12:46Z</time>
      </trkpt>
      <trkpt lat="44.79821" lon="0.48645">
        <ele>144.8</ele>
        <time>2024-07-14T09:12:47Z</time>
      </trkpt>
      <trkpt lat="44.79822" lon="0.48641">
        <ele>144.7</ele>
        <time>2024-07-14T09:12:49Z</time>
      </trkpt>
      <trkpt lat="44.79823" lon="0.48637">
        <ele>144.2</ele>
        <time>2024-07-14T09:12:51Z</time>
      </trkpt>
      <trkpt lat="44.79823" lon="0.48636">
        <ele>144.1</ele>
        <time>2024-07-14T09:12:52Z</time>
      </trkpt>
      <trkpt lat="44.79823" lon="0.48634">
        <ele>144.1</ele>
        <time>2024-07-14T09:12:53Z</time>
      </trkpt>
      <trkpt lat="44.79825" lon="0.4863">
        <ele>144</ele>
        <time>2024-07-14T09:12:55Z</time>
      </trkpt>
      <trkpt lat="44.79825" lon="0.48626">
        <ele>143.4</ele>
        <time>2024-07-14T09:12:57Z</time>
      </trkpt>
      <trkpt lat="44.79826" lon="0.48624">
        <ele>143.4</ele>
        <time>2024-07-14T09:12:59Z</time>
      </trkpt>
      <trkpt lat="44.79825" lon="0.48622">
        <ele>143.2</ele>
        <time>2024-07-14T09:13:01Z</time>
      </trkpt>
      <trkpt lat="44.79824" lon="0.48618">
        <ele>143.6</ele>
        <time>2024-07-14T09:13:03Z</time>
      </trkpt>
      <trkpt lat="44.79823" lon="0.48615">
        <ele>143.6</ele>
        <time>2024-07-14T09:13:05Z</time>
      </trkpt>
      <trkpt lat="44.79824" lon="0.48614">
        <ele>143.4</ele>
        <time>2024-07-14T09:13:06Z</time>
      </trkpt>
      <trkpt lat="44.79824" lon="0.48612">
        <ele>143.4</ele>
        <time>2024-07-14T09:13:07Z</time>
      </trkpt>
      <trkpt lat="44.79824" lon="0.48609">
        <ele>143.2</ele>
        <time>2024-07-14T09:13:09Z</time>
      </trkpt>
      <trkpt lat="44.79825" lon="0.48606">
        <ele>143.2</ele>
        <time>2024-07-14T09:13:10Z</time>
      </trkpt>
      <trkpt lat="44.79824" lon="0.48604">
        <ele>143</ele>
        <time>2024-07-14T09:13:11Z</time>
      </trkpt>
      <trkpt lat="44.79824" lon="0.48598">
        <ele>142.8</ele>
        <time>2024-07-14T09:13:13Z</time>
      </trkpt>
      <trkpt lat="44.79824" lon="0.48595">
        <ele>142.6</ele>
        <time>2024-07-14T09:13:14Z</time>
      </trkpt>
      <trkpt lat="44.79824" lon="0.48591">
        <ele>142.3</ele>
        <time>2024-07-14T09:13:15Z</time>
      </trkpt>
      <trkpt lat="44.79823" lon="0.48586">
        <ele>141.9</ele>
        <time>2024-07-14T09:13:17Z</time>
      </trkpt>
      <trkpt lat="44.79821" lon="0.48578">
        <ele>141.5</ele>
        <time>2024-07-14T09:13:19Z</time>
      </trkpt>
      <trkpt lat="44.79822" lon="0.48568">
        <ele>140.7</ele>
        <time>2024-07-14T09:13:21Z</time>
      </trkpt>
      <trkpt lat="44.79823" lon="0.48565">
        <ele>139.9</ele>
        <time>2024-07-14T09:13:22Z</time>
      </trkpt>
      <trkpt lat="44.79824" lon="0.48563">
        <ele>139.5</ele>
        <time>2024-07-14T09:13:23Z</time>
      </trkpt>
      <trkpt lat="44.79823" lon="0.48559">
        <ele>139.5</ele>
        <time>2024-07-14T09:13:25Z</time>
      </trkpt>
      <trkpt lat="44.79821" lon="0.48558">
        <ele>139.4</ele>
        <time>2024-07-14T09:13:26Z</time>
      </trkpt>
      <trkpt lat="44.79819" lon="0.48557">
        <ele>139.4</ele>
        <time>2024-07-14T09:13:27Z</time>
      </trkpt>
      <trkpt lat="44.79814" lon="0.48555">
        <ele>140.1</ele>
        <time>2024-07-14T09:13:29Z</time>
      </trkpt>
      <trkpt lat="44.79811" lon="0.48554">
        <ele>140</ele>
        <time>2024-07-14T09:13:30Z</time>
      </trkpt>
      <trkpt lat="44.79809" lon="0.48554">
        <ele>140.4</ele>
        <time>2024-07-14T09:13:31Z</time>
      </trkpt>
      <trkpt lat="44.79805" lon="0.48553">
        <ele>140.7</ele>
        <time>2024-07-14T09:13:33Z</time>
      </trkpt>
      <trkpt lat="44.79801" lon="0.48552">
        <ele>141.4</ele>
        <time>2024-07-14T09:13:35Z</time>
      </trkpt>
      <trkpt lat="44.79797" lon="0.48551">
        <ele>141.6</ele>
        <time>2024-07-14T09:13:37Z</time>
      </trkpt>
      <trkpt lat="44.79791" lon="0.48549">
        <ele>141.6</ele>
        <time>2024-07-14T09:13:39Z</time>
      </trkpt>
      <trkpt lat="44.79784" lon="0.48549">
        <ele>142</ele>
        <time>2024-07-14T09:13:41Z</time>
      </trkpt>
      <trkpt lat="44.79777" lon="0.4855">
        <ele>142.5</ele>
        <time>2024-07-14T09:13:43Z</time>
      </trkpt>
      <trkpt lat="44.79771" lon="0.4855">
        <ele>142.8</ele>
        <time>2024-07-14T09:13:45Z</time>
      </trkpt>
      <trkpt lat="44.79769" lon="0.48552">
        <ele>143.4</ele>
        <time>2024-07-14T09:13:46Z</time>
      </trkpt>
      <trkpt lat="44.79767" lon="0.48553">
        <ele>143.5</ele>
        <time>2024-07-14T09:13:47Z</time>
      </trkpt>
      <trkpt lat="44.79763" lon="0.48556">
        <ele>144.1</ele>
        <time>2024-07-14T09:13:49Z</time>
      </trkpt>
      <trkpt lat="44.79759" lon="0.48558">
        <ele>144.1</ele>
        <time>2024-07-14T09:13:51Z</time>
      </trkpt>
      <trkpt lat="44.79753" lon="0.48561">
        <ele>144.6</ele>
        <time>2024-07-14T09:13:53Z</time>
      </trkpt>
      <trkpt lat="44.7975" lon="0.48562">
        <ele>144.7</ele>
        <time>2024-07-14T09:13:54Z</time>
      </trkpt>
      <trkpt lat="44.79747" lon="0.48563">
        <ele>144.7</ele>
        <time>2024-07-14T09:13:55Z</time>
      </trkpt>
      <trkpt lat="44.79742" lon="0.48563">
        <ele>145.2</ele>
        <time>2024-07-14T09:13:57Z</time>
      </trkpt>
      <trkpt lat="44.79739" lon="0.48564">
        <ele>145.2</ele>
        <time>2024-07-14T09:13:58Z</time>
      </trkpt>
      <trkpt lat="44.79737" lon="0.48565">
        <ele>145.2</ele>
        <time>2024-07-14T09:13:59Z</time>
      </trkpt>
      <trkpt lat="44.79732" lon="0.48568">
        <ele>145.7</ele>
        <time>2024-07-14T09:14:01Z</time>
      </trkpt>
      <trkpt lat="44.7973" lon="0.48569">
        <ele>145.7</ele>
        <time>2024-07-14T09:14:02Z</time>
      </trkpt>
      <trkpt lat="44.79727" lon="0.48569">
        <ele>145.8</ele>
        <time>2024-07-14T09:14:03Z</time>
      </trkpt>
      <trkpt lat="44.79722" lon="0.48572">
        <ele>145.8</ele>
        <time>2024-07-14T09:14:05Z</time>
      </trkpt>
      <trkpt lat="44.79716" lon="0.48574">
        <ele>146.4</ele>
        <time>2024-07-14T09:14:07Z</time>
      </trkpt>
      <trkpt lat="44.79711" lon="0.48576">
        <ele>147</ele>
        <time>2024-07-14T09:14:09Z</time>
      </trkpt>
      <trkpt lat="44.79709" lon="0.48578">
        <ele>147.1</ele>
        <time>2024-07-14T09:14:10Z</time>
      </trkpt>
      <trkpt lat="44.79707" lon="0.48579">
        <ele>147.1</ele>
        <time>2024-07-14T09:14:11Z</time>
      </trkpt>
      <trkpt lat="44.79703" lon="0.48581">
        <ele>147.6</ele>
        <time>2024-07-14T09:14:13Z</time>
      </trkpt>
      <trkpt lat="44.79702" lon="0.48581">
        <ele>147.6</ele>
        <time>2024-07-14T09:14:14Z</time>
      </trkpt>
      <trkpt lat="44.797" lon="0.48582">
        <ele>147.7</ele>
        <time>2024-07-14T09:14:15Z</time>
      </trkpt>
      <trkpt lat="44.79697" lon="0.48583">
        <ele>147.8</ele>
        <time>2024-07-14T09:14:17Z</time>
      </trkpt>
      <trkpt lat="44.79694" lon="0.48584">
        <ele>147.9</ele>
        <time>2024-07-14T09:14:19Z</time>
      </trkpt>
      <trkpt lat="44.7969" lon="0.48583">
        <ele>148</ele>
        <time>2024-07-14T09:14:21Z</time>
      </trkpt>
      <trkpt lat="44.79686" lon="0.48582">
        <ele>148.1</ele>
        <time>2024-07-14T09:14:23Z</time>
      </trkpt>
      <trkpt lat="44.79685" lon="0.48578">
        <ele>147.9</ele>
        <time>2024-07-14T09:14:25Z</time>
      </trkpt>
      <trkpt lat="44.79683" lon="0.48574">
        <ele>147.6</ele>
        <time>2024-07-14T09:14:26Z</time>
      </trkpt>
      <trkpt lat="44.79681" lon="0.4857">
        <ele>147.4</ele>
        <time>2024-07-14T09:14:27Z</time>
      </trkpt>
      <trkpt lat="44.79678" lon="0.48564">
        <ele>147.2</ele>
        <time>2024-07-14T09:14:29Z</time>
      </trkpt>
      <trkpt lat="44.79675" lon="0.48559">
        <ele>147.1</ele>
        <time>2024-07-14T09:14:31Z</time>
      </trkpt>
      <trkpt lat="44.79672" lon="0.48557">
        <ele>147</ele>
        <time>2024-07-14T09:14:33Z</time>
      </trkpt>
      <trkpt lat="44.79671" lon="0.48554">
        <ele>146.6</ele>
        <time>2024-07-14T09:14:35Z</time>
      </trkpt>
      <trkpt lat="44.79669" lon="0.48553">
        <ele>146.9</ele>
        <time>2024-07-14T09:14:37Z</time>
      </trkpt>
      <trkpt lat="44.79667" lon="0.4855">
        <ele>146.8</ele>
        <time>2024-07-14T09:14:39Z</time>
      </trkpt>
      <trkpt lat="44.79666" lon="0.48546">
        <ele>146.8</ele>
        <time>2024-07-14T09:14:41Z</time>
      </trkpt>
      <trkpt lat="44.79665" lon="0.48543">
        <ele>146.4</ele>
        <time>2024-07-14T09:14:43Z</time>
      </trkpt>
      <trkpt lat="44.79663" lon="0.48539">
        <ele>146.3</ele>
        <time>2024-07-14T09:14:45Z</time>
      </trkpt>
      <trkpt lat="44.79661" lon="0.48537">
        <ele>146.3</ele>
        <time>2024-07-14T09:14:46Z</time>
      </trkpt>
      <trkpt lat="44.7966" lon="0.48536">
        <ele>146.2</ele>
        <time>2024-07-14T09:14:47Z</time>
      </trkpt>
      <trkpt lat="44.79658" lon="0.48534">
        <ele>146.2</ele>
        <time>2024-07-14T09:14:48Z</time>
      </trkpt>
      <trkpt lat="44.79656" lon="0.48532">
        <ele>146.1</ele>
        <time>2024-07-14T09:14:49Z</time>
      </trkpt>
      <trkpt lat="44.79654" lon="0.48529">
        <ele>146.4</ele>
        <time>2024-07-14T09:14:51Z</time>
      </trkpt>
      <trkpt lat="44.79652" lon="0.48526">
        <ele>146.1</ele>
        <time>2024-07-14T09:14:53Z</time>
      </trkpt>
      <trkpt lat="44.79649" lon="0.48524">
        <ele>146.1</ele>
        <time>2024-07-14T09:14:55Z</time>
      </trkpt>
      <trkpt lat="44.79647" lon="0.48522">
        <ele>146.4</ele>
        <time>2024-07-14T09:14:56Z</time>
      </trkpt>
      <trkpt lat="44.79645" lon="0.48521">
        <ele>146.7</ele>
        <time>2024-07-14T09:14:57Z</time>
      </trkpt>
      <trkpt lat="44.79643" lon="0.48521">
        <ele>146.7</ele>
        <time>2024-07-14T09:14:58Z</time>
      </trkpt>
      <trkpt lat="44.79642" lon="0.48521">
        <ele>147.1</ele>
        <time>2024-07-14T09:14:59Z</time>
      </trkpt>
      <trkpt lat="44.79639" lon="0.48522">
        <ele>147.4</ele>
        <time>2024-07-14T09:15:01Z</time>
      </trkpt>
      <trkpt lat="44.79638" lon="0.48522">
        <ele>147.4</ele>
        <time>2024-07-14T09:15:03Z</time>
      </trkpt>
      <trkpt lat="44.79636" lon="0.48505">
        <ele>147</ele>
        <time>2024-07-14T09:15:24Z</time>
      </trkpt>
      <trkpt lat="44.79636" lon="0.485">
        <ele>146.9</ele>
        <time>2024-07-14T09:15:25Z</time>
      </trkpt>
      <trkpt lat="44.79635" lon="0.48492">
        <ele>146.6</ele>
        <time>2024-07-14T09:15:27Z</time>
      </trkpt>
      <trkpt lat="44.79635" lon="0.48489">
        <ele>146.4</ele>
        <time>2024-07-14T09:15:28Z</time>
      </trkpt>
      <trkpt lat="44.79634" lon="0.48486">
        <ele>146.4</ele>
        <time>2024-07-14T09:15:29Z</time>
      </trkpt>
      <trkpt lat="44.79635" lon="0.4848">
        <ele>146.1</ele>
        <time>2024-07-14T09:15:31Z</time>
      </trkpt>
      <trkpt lat="44.79634" lon="0.48475">
        <ele>146</ele>
        <time>2024-07-14T09:15:33Z</time>
      </trkpt>
      <trkpt lat="44.79633" lon="0.48473">
        <ele>146.4</ele>
        <time>2024-07-14T09:15:34Z</time>
      </trkpt>
      <trkpt lat="44.79632" lon="0.48471">
        <ele>146.3</ele>
        <time>2024-07-14T09:15:35Z</time>
      </trkpt>
      <trkpt lat="44.79631" lon="0.48466">
        <ele>146.1</ele>
        <time>2024-07-14T09:15:37Z</time>
      </trkpt>
      <trkpt lat="44.79632" lon="0.48464">
        <ele>146</ele>
        <time>2024-07-14T09:15:38Z</time>
      </trkpt>
      <trkpt lat="44.79632" lon="0.48461">
        <ele>146</ele>
        <time>2024-07-14T09:15:39Z</time>
      </trkpt>
      <trkpt lat="44.79631" lon="0.48454">
        <ele>145.8</ele>
        <time>2024-07-14T09:15:41Z</time>
      </trkpt>
      <trkpt lat="44.7963" lon="0.48446">
        <ele>145.9</ele>
        <time>2024-07-14T09:15:43Z</time>
      </trkpt>
      <trkpt lat="44.79629" lon="0.48441">
        <ele>145.8</ele>
        <time>2024-07-14T09:15:44Z</time>
      </trkpt>
      <trkpt lat="44.7963" lon="0.48436">
        <ele>145.6</ele>
        <time>2024-07-14T09:15:45Z</time>
      </trkpt>
      <trkpt lat="44.79631" lon="0.48432">
        <ele>145.1</ele>
        <time>2024-07-14T09:15:46Z</time>
      </trkpt>
      <trkpt lat="44.79633" lon="0.48428">
        <ele>144.9</ele>
        <time>2024-07-14T09:15:47Z</time>
      </trkpt>
      <trkpt lat="44.79635" lon="0.4842">
        <ele>144.2</ele>
        <time>2024-07-14T09:15:49Z</time>
      </trkpt>
      <trkpt lat="44.79635" lon="0.48415">
        <ele>144.1</ele>
        <time>2024-07-14T09:15:50Z</time>
      </trkpt>
      <trkpt lat="44.79635" lon="0.48412">
        <ele>144</ele>
        <time>2024-07-14T09:15:51Z</time>
      </trkpt>
      <trkpt lat="44.79637" lon="0.48407">
        <ele>143.3</ele>
        <time>2024-07-14T09:15:53Z</time>
      </trkpt>
      <trkpt lat="44.79638" lon="0.48403">
        <ele>143.2</ele>
        <time>2024-07-14T09:15:55Z</time>
      </trkpt>
      <trkpt lat="44.79637" lon="0.48398">
        <ele>143.1</ele>
        <time>2024-07-14T09:15:57Z</time>
      </trkpt>
      <trkpt lat="44.79633" lon="0.48388">
        <ele>144</ele>
        <time>2024-07-14T09:15:59Z</time>
      </trkpt>
      <trkpt lat="44.79631" lon="0.48379">
        <ele>143.8</ele>
        <time>2024-07-14T09:16:01Z</time>
      </trkpt>
      <trkpt lat="44.7963" lon="0.48374">
        <ele>144.2</ele>
        <time>2024-07-14T09:16:02Z</time>
      </trkpt>
      <trkpt lat="44.7963" lon="0.4837">
        <ele>144.1</ele>
        <time>2024-07-14T09:16:03Z</time>
      </trkpt>
      <trkpt lat="44.7963" lon="0.48365">
        <ele>144.1</ele>
        <time>2024-07-14T09:16:04Z</time>
      </trkpt>
      <trkpt lat="44.79629" lon="0.4836">
        <ele>144</ele>
        <time>2024-07-14T09:16:05Z</time>
      </trkpt>
      <trkpt lat="44.79628" lon="0.48353">
        <ele>144</ele>
        <time>2024-07-14T09:16:07Z</time>
      </trkpt>
      <trkpt lat="44.79627" lon="0.48351">
        <ele>143.9</ele>
        <time>2024-07-14T09:16:08Z</time>
      </trkpt>
      <trkpt lat="44.79626" lon="0.48349">
        <ele>144.4</ele>
        <time>2024-07-14T09:16:09Z</time>
      </trkpt>
      <trkpt lat="44.79624" lon="0.48345">
        <ele>144.8</ele>
        <time>2024-07-14T09:16:11Z</time>
      </trkpt>
      <trkpt lat="44.79621" lon="0.48342">
        <ele>144.7</ele>
        <time>2024-07-14T09:16:13Z</time>
      </trkpt>
      <trkpt lat="44.79619" lon="0.48339">
        <ele>145</ele>
        <time>2024-07-14T09:16:15Z</time>
      </trkpt>
      <trkpt lat="44.79618" lon="0.48338">
        <ele>145</ele>
        <time>2024-07-14T09:16:17Z</time>
      </trkpt>
      <trkpt lat="44.79616" lon="0.48333">
        <ele>145.4</ele>
        <time>2024-07-14T09:16:22Z</time>
      </trkpt>
      <trkpt lat="44.79615" lon="0.4833">
        <ele>145.8</ele>
        <time>2024-07-14T09:16:23Z</time>
      </trkpt>
      <trkpt lat="44.79613" lon="0.48327">
        <ele>145.6</ele>
        <time>2024-07-14T09:16:24Z</time>
      </trkpt>
      <trkpt lat="44.7961" lon="0.48323">
        <ele>146.2</ele>
        <time>2024-07-14T09:16:25Z</time>
      </trkpt>
      <trkpt lat="44.79608" lon="0.48314">
        <ele>146.3</ele>
        <time>2024-07-14T09:16:27Z</time>
      </trkpt>
      <trkpt lat="44.79608" lon="0.4831">
        <ele>146</ele>
        <time>2024-07-14T09:16:28Z</time>
      </trkpt>
      <trkpt lat="44.79606" lon="0.48307">
        <ele>146</ele>
        <time>2024-07-14T09:16:29Z</time>
      </trkpt>
      <trkpt lat="44.79605" lon="0.48304">
        <ele>146.5</ele>
        <time>2024-07-14T09:16:31Z</time>
      </trkpt>
      <trkpt lat="44.79602" lon="0.48303">
        <ele>147.1</ele>
        <time>2024-07-14T09:16:32Z</time>
      </trkpt>
      <trkpt lat="44.79601" lon="0.48302">
        <ele>147.1</ele>
        <time>2024-07-14T09:16:33Z</time>
      </trkpt>
      <trkpt lat="44.796" lon="0.48301">
        <ele>146.9</ele>
        <time>2024-07-14T09:16:35Z</time>
      </trkpt>
      <trkpt lat="44.79599" lon="0.483">
        <ele>147.5</ele>
        <time>2024-07-14T09:16:36Z</time>
      </trkpt>
      <trkpt lat="44.79598" lon="0.48299">
        <ele>147.5</ele>
        <time>2024-07-14T09:16:37Z</time>
      </trkpt>
      <trkpt lat="44.79597" lon="0.48298">
        <ele>147.4</ele>
        <time>2024-07-14T09:16:39Z</time>
      </trkpt>
      <trkpt lat="44.79596" lon="0.48298">
        <ele>148</ele>
        <time>2024-07-14T09:16:40Z</time>
      </trkpt>
      <trkpt lat="44.79539" lon="0.48269">
        <ele>157.1</ele>
        <time>2024-07-14T09:17:39Z</time>
      </trkpt>
      <trkpt lat="44.79537" lon="0.48268">
        <ele>157.3</ele>
        <time>2024-07-14T09:17:40Z</time>
      </trkpt>
      <trkpt lat="44.79536" lon="0.48268">
        <ele>157.5</ele>
        <time>2024-07-14T09:17:41Z</time>
      </trkpt>
      <trkpt lat="44.79534" lon="0.48266">
        <ele>157.8</ele>
        <time>2024-07-14T09:17:43Z</time>
      </trkpt>
      <trkpt lat="44.79532" lon="0.48263">
        <ele>158</ele>
        <time>2024-07-14T09:17:45Z</time>
      </trkpt>
      <trkpt lat="44.79531" lon="0.48261">
        <ele>158.2</ele>
        <time>2024-07-14T09:17:47Z</time>
      </trkpt>
      <trkpt lat="44.79529" lon="0.48259">
        <ele>158.4</ele>
        <time>2024-07-14T09:17:49Z</time>
      </trkpt>
      <trkpt lat="44.79527" lon="0.48258">
        <ele>158.5</ele>
        <time>2024-07-14T09:17:50Z</time>
      </trkpt>
      <trkpt lat="44.79526" lon="0.48257">
        <ele>158.6</ele>
        <time>2024-07-14T09:17:51Z</time>
      </trkpt>
      <trkpt lat="44.79523" lon="0.48255">
        <ele>158.8</ele>
        <time>2024-07-14T09:17:53Z</time>
      </trkpt>
      <trkpt lat="44.79521" lon="0.48253">
        <ele>158.9</ele>
        <time>2024-07-14T09:17:55Z</time>
      </trkpt>
      <trkpt lat="44.79513" lon="0.48243">
        <ele>159</ele>
        <time>2024-07-14T09:18:01Z</time>
      </trkpt>
      <trkpt lat="44.79512" lon="0.4824">
        <ele>158.9</ele>
        <time>2024-07-14T09:18:02Z</time>
      </trkpt>
      <trkpt lat="44.79512" lon="0.48238">
        <ele>158.9</ele>
        <time>2024-07-14T09:18:03Z</time>
      </trkpt>
      <trkpt lat="44.7951" lon="0.48232">
        <ele>158.8</ele>
        <time>2024-07-14T09:18:05Z</time>
      </trkpt>
      <trkpt lat="44.79508" lon="0.48227">
        <ele>158.6</ele>
        <time>2024-07-14T09:18:07Z</time>
      </trkpt>
      <trkpt lat="44.79508" lon="0.48224">
        <ele>158.5</ele>
        <time>2024-07-14T09:18:08Z</time>
      </trkpt>
      <trkpt lat="44.79507" lon="0.48221">
        <ele>158.4</ele>
        <time>2024-07-14T09:18:09Z</time>
      </trkpt>
      <trkpt lat="44.79507" lon="0.48215">
        <ele>158.3</ele>
        <time>2024-07-14T09:18:11Z</time>
      </trkpt>
      <trkpt lat="44.79505" lon="0.4821">
        <ele>158.1</ele>
        <time>2024-07-14T09:18:13Z</time>
      </trkpt>
      <trkpt lat="44.79504" lon="0.48207">
        <ele>158</ele>
        <time>2024-07-14T09:18:14Z</time>
      </trkpt>
      <trkpt lat="44.79503" lon="0.48204">
        <ele>157.8</ele>
        <time>2024-07-14T09:18:15Z</time>
      </trkpt>
      <trkpt lat="44.795" lon="0.48199">
        <ele>157.6</ele>
        <time>2024-07-14T09:18:17Z</time>
      </trkpt>
      <trkpt lat="44.79496" lon="0.48194">
        <ele>157.4</ele>
        <time>2024-07-14T09:18:19Z</time>
      </trkpt>
      <trkpt lat="44.79494" lon="0.48192">
        <ele>157.2</ele>
        <time>2024-07-14T09:18:20Z</time>
      </trkpt>
      <trkpt lat="44.79492" lon="0.48189">
        <ele>157.1</ele>
        <time>2024-07-14T09:18:21Z</time>
      </trkpt>
      <trkpt lat="44.79489" lon="0.48184">
        <ele>156.9</ele>
        <time>2024-07-14T09:18:23Z</time>
      </trkpt>
      <trkpt lat="44.79485" lon="0.4818">
        <ele>156.6</ele>
        <time>2024-07-14T09:18:25Z</time>
      </trkpt>
      <trkpt lat="44.79483" lon="0.48178">
        <ele>156.5</ele>
        <time>2024-07-14T09:18:26Z</time>
      </trkpt>
      <trkpt lat="44.79481" lon="0.48176">
        <ele>156.4</ele>
        <time>2024-07-14T09:18:27Z</time>
      </trkpt>
      <trkpt lat="44.79478" lon="0.48172">
        <ele>156.3</ele>
        <time>2024-07-14T09:18:29Z</time>
      </trkpt>
      <trkpt lat="44.79476" lon="0.48171">
        <ele>156.2</ele>
        <time>2024-07-14T09:18:30Z</time>
      </trkpt>
      <trkpt lat="44.79474" lon="0.48169">
        <ele>156.1</ele>
        <time>2024-07-14T09:18:31Z</time>
      </trkpt>
      <trkpt lat="44.7947" lon="0.48166">
        <ele>155.9</ele>
        <time>2024-07-14T09:18:33Z</time>
      </trkpt>
      <trkpt lat="44.79466" lon="0.48162">
        <ele>155.8</ele>
        <time>2024-07-14T09:18:35Z</time>
      </trkpt>
      <trkpt lat="44.79463" lon="0.48161">
        <ele>155.6</ele>
        <time>2024-07-14T09:18:36Z</time>
      </trkpt>
      <trkpt lat="44.79461" lon="0.48159">
        <ele>155.5</ele>
        <time>2024-07-14T09:18:37Z</time>
      </trkpt>
      <trkpt lat="44.79459" lon="0.48157">
        <ele>155.5</ele>
        <time>2024-07-14T09:18:38Z</time>
      </trkpt>
      <trkpt lat="44.79458" lon="0.48154">
        <ele>155.4</ele>
        <time>2024-07-14T09:18:39Z</time>
      </trkpt>
      <trkpt lat="44.79459" lon="0.48151">
        <ele>155.4</ele>
        <time>2024-07-14T09:18:40Z</time>
      </trkpt>
      <trkpt lat="44.79459" lon="0.48148">
        <ele>155.4</ele>
        <time>2024-07-14T09:18:41Z</time>
      </trkpt>
      <trkpt lat="44.79462" lon="0.48143">
        <ele>155.4</ele>
        <time>2024-07-14T09:18:43Z</time>
      </trkpt>
      <trkpt lat="44.79464" lon="0.48141">
        <ele>155.4</ele>
        <time>2024-07-14T09:18:44Z</time>
      </trkpt>
      <trkpt lat="44.79466" lon="0.48138">
        <ele>155.3</ele>
        <time>2024-07-14T09:18:45Z</time>
      </trkpt>
      <trkpt lat="44.79469" lon="0.48134">
        <ele>155.3</ele>
        <time>2024-07-14T09:18:47Z</time>
      </trkpt>
      <trkpt lat="44.79474" lon="0.4813">
        <ele>155.3</ele>
        <time>2024-07-14T09:18:49Z</time>
      </trkpt>
      <trkpt lat="44.79476" lon="0.48128">
        <ele>155.2</ele>
        <time>2024-07-14T09:18:50Z</time>
      </trkpt>
      <trkpt lat="44.79479" lon="0.48125">
        <ele>155.2</ele>
        <time>2024-07-14T09:18:51Z</time>
      </trkpt>
      <trkpt lat="44.79484" lon="0.4812">
        <ele>155</ele>
        <time>2024-07-14T09:18:53Z</time>
      </trkpt>
      <trkpt lat="44.79491" lon="0.48115">
        <ele>154.8</ele>
        <time>2024-07-14T09:18:55Z</time>
      </trkpt>
      <trkpt lat="44.79494" lon="0.48113">
        <ele>154.6</ele>
        <time>2024-07-14T09:18:56Z</time>
      </trkpt>
      <trkpt lat="44.79499" lon="0.4811">
        <ele>154.4</ele>
        <time>2024-07-14T09:18:57Z</time>
      </trkpt>
      <trkpt lat="44.79503" lon="0.48106">
        <ele>154.1</ele>
        <time>2024-07-14T09:18:58Z</time>
      </trkpt>
      <trkpt lat="44.79507" lon="0.48102">
        <ele>153.8</ele>
        <time>2024-07-14T09:18:59Z</time>
      </trkpt>
      <trkpt lat="44.79511" lon="0.48097">
        <ele>153.5</ele>
        <time>2024-07-14T09:19:00Z</time>
      </trkpt>
      <trkpt lat="44.79515" lon="0.48091">
        <ele>153.1</ele>
        <time>2024-07-14T09:19:01Z</time>
      </trkpt>
      <trkpt lat="44.79524" lon="0.48078">
        <ele>152.3</ele>
        <time>2024-07-14T09:19:03Z</time>
      </trkpt>
      <trkpt lat="44.79532" lon="0.48063">
        <ele>151.8</ele>
        <time>2024-07-14T09:19:05Z</time>
      </trkpt>
      <trkpt lat="44.79537" lon="0.48056">
        <ele>151.6</ele>
        <time>2024-07-14T09:19:06Z</time>
      </trkpt>
      <trkpt lat="44.79541" lon="0.48049">
        <ele>151.5</ele>
        <time>2024-07-14T09:19:07Z</time>
      </trkpt>
      <trkpt lat="44.79545" lon="0.48042">
        <ele>151.4</ele>
        <time>2024-07-14T09:19:08Z</time>
      </trkpt>
      <trkpt lat="44.79547" lon="0.48034">
        <ele>151.4</ele>
        <time>2024-07-14T09:19:09Z</time>
      </trkpt>
      <trkpt lat="44.79548" lon="0.48027">
        <ele>151.3</ele>
        <time>2024-07-14T09:19:10Z</time>
      </trkpt>
      <trkpt lat="44.7955" lon="0.48021">
        <ele>151.3</ele>
        <time>2024-07-14T09:19:11Z</time>
      </trkpt>
      <trkpt lat="44.79554" lon="0.48007">
        <ele>151.3</ele>
        <time>2024-07-14T09:19:13Z</time>
      </trkpt>
      <trkpt lat="44.79556" lon="0.48001">
        <ele>151.3</ele>
        <time>2024-07-14T09:19:14Z</time>
      </trkpt>
      <trkpt lat="44.79557" lon="0.47995">
        <ele>151.3</ele>
        <time>2024-07-14T09:19:15Z</time>
      </trkpt>
      <trkpt lat="44.79558" lon="0.47989">
        <ele>151.3</ele>
        <time>2024-07-14T09:19:16Z</time>
      </trkpt>
      <trkpt lat="44.79559" lon="0.47983">
        <ele>151.3</ele>
        <time>2024-07-14T09:19:17Z</time>
      </trkpt>
      <trkpt lat="44.79561" lon="0.47977">
        <ele>151.3</ele>
        <time>2024-07-14T09:19:18Z</time>
      </trkpt>
      <trkpt lat="44.79562" lon="0.47971">
        <ele>151.3</ele>
        <time>2024-07-14T09:19:19Z</time>
      </trkpt>
      <trkpt lat="44.79565" lon="0.4796">
        <ele>151.3</ele>
        <time>2024-07-14T09:19:21Z</time>
      </trkpt>
      <trkpt lat="44.79569" lon="0.47949">
        <ele>151.4</ele>
        <time>2024-07-14T09:19:23Z</time>
      </trkpt>
      <trkpt lat="44.79571" lon="0.47944">
        <ele>151.4</ele>
        <time>2024-07-14T09:19:24Z</time>
      </trkpt>
      <trkpt lat="44.79573" lon="0.47939">
        <ele>151.4</ele>
        <time>2024-07-14T09:19:25Z</time>
      </trkpt>
      <trkpt lat="44.79575" lon="0.47934">
        <ele>151.5</ele>
        <time>2024-07-14T09:19:26Z</time>
      </trkpt>
      <trkpt lat="44.79574" lon="0.47928">
        <ele>151.5</ele>
        <time>2024-07-14T09:19:27Z</time>
      </trkpt>
      <trkpt lat="44.79574" lon="0.47921">
        <ele>151.6</ele>
        <time>2024-07-14T09:19:28Z</time>
      </trkpt>
      <trkpt lat="44.79575" lon="0.47915">
        <ele>151.6</ele>
        <time>2024-07-14T09:19:29Z</time>
      </trkpt>
      <trkpt lat="44.79579" lon="0.47904">
        <ele>151.7</ele>
        <time>2024-07-14T09:19:31Z</time>
      </trkpt>
      <trkpt lat="44.7958" lon="0.47894">
        <ele>151.9</ele>
        <time>2024-07-14T09:19:33Z</time>
      </trkpt>
      <trkpt lat="44.79581" lon="0.47889">
        <ele>151.9</ele>
        <time>2024-07-14T09:19:34Z</time>
      </trkpt>
      <trkpt lat="44.79581" lon="0.47883">
        <ele>152</ele>
        <time>2024-07-14T09:19:35Z</time>
      </trkpt>
      <trkpt lat="44.79583" lon="0.47873">
        <ele>152.2</ele>
        <time>2024-07-14T09:19:37Z</time>
      </trkpt>
      <trkpt lat="44.79583" lon="0.47868">
        <ele>152.3</ele>
        <time>2024-07-14T09:19:38Z</time>
      </trkpt>
      <trkpt lat="44.79583" lon="0.47863">
        <ele>152.4</ele>
        <time>2024-07-14T09:19:39Z</time>
      </trkpt>
      <trkpt lat="44.79583" lon="0.47858">
        <ele>152.5</ele>
        <time>2024-07-14T09:19:40Z</time>
      </trkpt>
      <trkpt lat="44.79582" lon="0.47853">
        <ele>152.6</ele>
        <time>2024-07-14T09:19:41Z</time>
      </trkpt>
      <trkpt lat="44.79582" lon="0.47847">
        <ele>152.7</ele>
        <time>2024-07-14T09:19:42Z</time>
      </trkpt>
      <trkpt lat="44.79581" lon="0.47842">
        <ele>152.7</ele>
        <time>2024-07-14T09:19:43Z</time>
      </trkpt>
      <trkpt lat="44.79582" lon="0.47831">
        <ele>152.9</ele>
        <time>2024-07-14T09:19:45Z</time>
      </trkpt>
      <trkpt lat="44.79584" lon="0.47822">
        <ele>153.1</ele>
        <time>2024-07-14T09:19:47Z</time>
      </trkpt>
      <trkpt lat="44.79584" lon="0.47818">
        <ele>153.3</ele>
        <time>2024-07-14T09:19:48Z</time>
      </trkpt>
      <trkpt lat="44.79585" lon="0.47813">
        <ele>153.4</ele>
        <time>2024-07-14T09:19:49Z</time>
      </trkpt>
      <trkpt lat="44.79587" lon="0.47804">
        <ele>153.7</ele>
        <time>2024-07-14T09:19:51Z</time>
      </trkpt>
      <trkpt lat="44.79588" lon="0.478">
        <ele>153.8</ele>
        <time>2024-07-14T09:19:52Z</time>
      </trkpt>
      <trkpt lat="44.79588" lon="0.47796">
        <ele>154</ele>
        <time>2024-07-14T09:19:53Z</time>
      </trkpt>
      <trkpt lat="44.79591" lon="0.47789">
        <ele>154.2</ele>
        <time>2024-07-14T09:19:55Z</time>
      </trkpt>
      <trkpt lat="44.79592" lon="0.47786">
        <ele>154.3</ele>
        <time>2024-07-14T09:19:56Z</time>
      </trkpt>
      <trkpt lat="44.79592" lon="0.47783">
        <ele>154.5</ele>
        <time>2024-07-14T09:19:57Z</time>
      </trkpt>
      <trkpt lat="44.79591" lon="0.47776">
        <ele>154.7</ele>
        <time>2024-07-14T09:19:59Z</time>
      </trkpt>
      <trkpt lat="44.79592" lon="0.47768">
        <ele>155</ele>
        <time>2024-07-14T09:20:01Z</time>
      </trkpt>
      <trkpt lat="44.79589" lon="0.4776">
        <ele>155.3</ele>
        <time>2024-07-14T09:20:03Z</time>
      </trkpt>
      <trkpt lat="44.79587" lon="0.47751">
        <ele>155.6</ele>
        <time>2024-07-14T09:20:05Z</time>
      </trkpt>
      <trkpt lat="44.79587" lon="0.47743">
        <ele>155.9</ele>
        <time>2024-07-14T09:20:07Z</time>
      </trkpt>
      <trkpt lat="44.79587" lon="0.47737">
        <ele>156.2</ele>
        <time>2024-07-14T09:20:09Z</time>
      </trkpt>
      <trkpt lat="44.79587" lon="0.47733">
        <ele>156.3</ele>
        <time>2024-07-14T09:20:10Z</time>
      </trkpt>
      <trkpt lat="44.79587" lon="0.4773">
        <ele>156.4</ele>
        <time>2024-07-14T09:20:11Z</time>
      </trkpt>
      <trkpt lat="44.79587" lon="0.47723">
        <ele>156.6</ele>
        <time>2024-07-14T09:20:13Z</time>
      </trkpt>
      <trkpt lat="44.79588" lon="0.47716">
        <ele>156.9</ele>
        <time>2024-07-14T09:20:15Z</time>
      </trkpt>
      <trkpt lat="44.79589" lon="0.47709">
        <ele>157.1</ele>
        <time>2024-07-14T09:20:17Z</time>
      </trkpt>
      <trkpt lat="44.79589" lon="0.47701">
        <ele>157.2</ele>
        <time>2024-07-14T09:20:19Z</time>
      </trkpt>
      <trkpt lat="44.7959" lon="0.47694">
        <ele>157.2</ele>
        <time>2024-07-14T09:20:21Z</time>
      </trkpt>
      <trkpt lat="44.79591" lon="0.47687">
        <ele>157.3</ele>
        <time>2024-07-14T09:20:23Z</time>
      </trkpt>
      <trkpt lat="44.79591" lon="0.47683">
        <ele>157.3</ele>
        <time>2024-07-14T09:20:24Z</time>
      </trkpt>
      <trkpt lat="44.79591" lon="0.47679">
        <ele>157.3</ele>
        <time>2024-07-14T09:20:25Z</time>
      </trkpt>
      <trkpt lat="44.79592" lon="0.47672">
        <ele>157.3</ele>
        <time>2024-07-14T09:20:27Z</time>
      </trkpt>
      <trkpt lat="44.79593" lon="0.47665">
        <ele>157.3</ele>
        <time>2024-07-14T09:20:29Z</time>
      </trkpt>
      <trkpt lat="44.79593" lon="0.47658">
        <ele>157.3</ele>
        <time>2024-07-14T09:20:31Z</time>
      </trkpt>
      <trkpt lat="44.79594" lon="0.47655">
        <ele>157.3</ele>
        <time>2024-07-14T09:20:32Z</time>
      </trkpt>
      <trkpt lat="44.79594" lon="0.47651">
        <ele>157.3</ele>
        <time>2024-07-14T09:20:33Z</time>
      </trkpt>
      <trkpt lat="44.79595" lon="0.47644">
        <ele>157.3</ele>
        <time>2024-07-14T09:20:35Z</time>
      </trkpt>
      <trkpt lat="44.79597" lon="0.47636">
        <ele>157.3</ele>
        <time>2024-07-14T09:20:37Z</time>
      </trkpt>
      <trkpt lat="44.79597" lon="0.47632">
        <ele>157.3</ele>
        <time>2024-07-14T09:20:38Z</time>
      </trkpt>
      <trkpt lat="44.79597" lon="0.47628">
        <ele>157.3</ele>
        <time>2024-07-14T09:20:39Z</time>
      </trkpt>
      <trkpt lat="44.79598" lon="0.47621">
        <ele>157.3</ele>
        <time>2024-07-14T09:20:41Z</time>
      </trkpt>
      <trkpt lat="44.79601" lon="0.47614">
        <ele>157.3</ele>
        <time>2024-07-14T09:20:43Z</time>
      </trkpt>
      <trkpt lat="44.79603" lon="0.47607">
        <ele>157.3</ele>
        <time>2024-07-14T09:20:45Z</time>
      </trkpt>
      <trkpt lat="44.79603" lon="0.47601">
        <ele>157.3</ele>
        <time>2024-07-14T09:20:47Z</time>
      </trkpt>
      <trkpt lat="44.79603" lon="0.47597">
        <ele>157.2</ele>
        <time>2024-07-14T09:20:48Z</time>
      </trkpt>
      <trkpt lat="44.79604" lon="0.47594">
        <ele>157.2</ele>
        <time>2024-07-14T09:20:49Z</time>
      </trkpt>
      <trkpt lat="44.79604" lon="0.47587">
        <ele>157.2</ele>
        <time>2024-07-14T09:20:51Z</time>
      </trkpt>
      <trkpt lat="44.79604" lon="0.4758">
        <ele>157.1</ele>
        <time>2024-07-14T09:20:53Z</time>
      </trkpt>
      <trkpt lat="44.79605" lon="0.47573">
        <ele>157.1</ele>
        <time>2024-07-14T09:20:55Z</time>
      </trkpt>
      <trkpt lat="44.79606" lon="0.47569">
        <ele>157</ele>
        <time>2024-07-14T09:20:56Z</time>
      </trkpt>
      <trkpt lat="44.79607" lon="0.47565">
        <ele>156.9</ele>
        <time>2024-07-14T09:20:57Z</time>
      </trkpt>
      <trkpt lat="44.79611" lon="0.47558">
        <ele>156.7</ele>
        <time>2024-07-14T09:20:59Z</time>
      </trkpt>
      <trkpt lat="44.79614" lon="0.47556">
        <ele>156.6</ele>
        <time>2024-07-14T09:21:00Z</time>
      </trkpt>
      <trkpt lat="44.79617" lon="0.47555">
        <ele>156.4</ele>
        <time>2024-07-14T09:21:01Z</time>
      </trkpt>
      <trkpt lat="44.79624" lon="0.47555">
        <ele>156.2</ele>
        <time>2024-07-14T09:21:03Z</time>
      </trkpt>
      <trkpt lat="44.79627" lon="0.47555">
        <ele>156</ele>
        <time>2024-07-14T09:21:04Z</time>
      </trkpt>
      <trkpt lat="44.79631" lon="0.47556">
        <ele>155.9</ele>
        <time>2024-07-14T09:21:05Z</time>
      </trkpt>
      <trkpt lat="44.79639" lon="0.47556">
        <ele>155.5</ele>
        <time>2024-07-14T09:21:07Z</time>
      </trkpt>
      <trkpt lat="44.79647" lon="0.47556">
        <ele>155.2</ele>
        <time>2024-07-14T09:21:09Z</time>
      </trkpt>
      <trkpt lat="44.79656" lon="0.47556">
        <ele>154.7</ele>
        <time>2024-07-14T09:21:11Z</time>
      </trkpt>
      <trkpt lat="44.79666" lon="0.47556">
        <ele>154.2</ele>
        <time>2024-07-14T09:21:13Z</time>
      </trkpt>
      <trkpt lat="44.79677" lon="0.47557">
        <ele>153.8</ele>
        <time>2024-07-14T09:21:15Z</time>
      </trkpt>
      <trkpt lat="44.79682" lon="0.47557">
        <ele>153.5</ele>
        <time>2024-07-14T09:21:16Z</time>
      </trkpt>
      <trkpt lat="44.79688" lon="0.47557">
        <ele>153.3</ele>
        <time>2024-07-14T09:21:17Z</time>
      </trkpt>
      <trkpt lat="44.79699" lon="0.47557">
        <ele>152.7</ele>
        <time>2024-07-14T09:21:19Z</time>
      </trkpt>
      <trkpt lat="44.79705" lon="0.47558">
        <ele>152.5</ele>
        <time>2024-07-14T09:21:20Z</time>
      </trkpt>
      <trkpt lat="44.79711" lon="0.47559">
        <ele>152.2</ele>
        <time>2024-07-14T09:21:21Z</time>
      </trkpt>
      <trkpt lat="44.79717" lon="0.4756">
        <ele>151.9</ele>
        <time>2024-07-14T09:21:22Z</time>
      </trkpt>
      <trkpt lat="44.79722" lon="0.4756">
        <ele>151.7</ele>
        <time>2024-07-14T09:21:23Z</time>
      </trkpt>
      <trkpt lat="44.79727" lon="0.47561">
        <ele>151.5</ele>
        <time>2024-07-14T09:21:24Z</time>
      </trkpt>
      <trkpt lat="44.79732" lon="0.47559">
        <ele>151.3</ele>
        <time>2024-07-14T09:21:25Z</time>
      </trkpt>
      <trkpt lat="44.79736" lon="0.47554">
        <ele>151.2</ele>
        <time>2024-07-14T09:21:26Z</time>
      </trkpt>
      <trkpt lat="44.79739" lon="0.47548">
        <ele>151</ele>
        <time>2024-07-14T09:21:27Z</time>
      </trkpt>
      <trkpt lat="44.79741" lon="0.47542">
        <ele>150.9</ele>
        <time>2024-07-14T09:21:28Z</time>
      </trkpt>
      <trkpt lat="44.79742" lon="0.47536">
        <ele>150.8</ele>
        <time>2024-07-14T09:21:29Z</time>
      </trkpt>
      <trkpt lat="44.79744" lon="0.4753">
        <ele>150.7</ele>
        <time>2024-07-14T09:21:30Z</time>
      </trkpt>
      <trkpt lat="44.79746" lon="0.47524">
        <ele>150.6</ele>
        <time>2024-07-14T09:21:31Z</time>
      </trkpt>
      <trkpt lat="44.79749" lon="0.47512">
        <ele>150.5</ele>
        <time>2024-07-14T09:21:33Z</time>
      </trkpt>
      <trkpt lat="44.79753" lon="0.47498">
        <ele>150.3</ele>
        <time>2024-07-14T09:21:35Z</time>
      </trkpt>
      <trkpt lat="44.79756" lon="0.47491">
        <ele>150.2</ele>
        <time>2024-07-14T09:21:36Z</time>
      </trkpt>
      <trkpt lat="44.79758" lon="0.47484">
        <ele>150.1</ele>
        <time>2024-07-14T09:21:37Z</time>
      </trkpt>
      <trkpt lat="44.7976" lon="0.47477">
        <ele>150.1</ele>
        <time>2024-07-14T09:21:38Z</time>
      </trkpt>
      <trkpt lat="44.79762" lon="0.4747">
        <ele>150</ele>
        <time>2024-07-14T09:21:39Z</time>
      </trkpt>
      <trkpt lat="44.79763" lon="0.47463">
        <ele>149.9</ele>
        <time>2024-07-14T09:21:40Z</time>
      </trkpt>
      <trkpt lat="44.79763" lon="0.47455">
        <ele>149.8</ele>
        <time>2024-07-14T09:21:41Z</time>
      </trkpt>
      <trkpt lat="44.7976" lon="0.4744">
        <ele>149.8</ele>
        <time>2024-07-14T09:21:43Z</time>
      </trkpt>
      <trkpt lat="44.79758" lon="0.47432">
        <ele>149.8</ele>
        <time>2024-07-14T09:21:44Z</time>
      </trkpt>
      <trkpt lat="44.79756" lon="0.47426">
        <ele>149.9</ele>
        <time>2024-07-14T09:21:45Z</time>
      </trkpt>
      <trkpt lat="44.79751" lon="0.47413">
        <ele>149.9</ele>
        <time>2024-07-14T09:21:47Z</time>
      </trkpt>
      <trkpt lat="44.79749" lon="0.47406">
        <ele>150</ele>
        <time>2024-07-14T09:21:48Z</time>
      </trkpt>
      <trkpt lat="44.79748" lon="0.474">
        <ele>150</ele>
        <time>2024-07-14T09:21:49Z</time>
      </trkpt>
      <trkpt lat="44.79745" lon="0.47387">
        <ele>150</ele>
        <time>2024-07-14T09:21:51Z</time>
      </trkpt>
      <trkpt lat="44.79742" lon="0.47374">
        <ele>150.1</ele>
        <time>2024-07-14T09:21:53Z</time>
      </trkpt>
      <trkpt lat="44.79742" lon="0.4736">
        <ele>150.1</ele>
        <time>2024-07-14T09:21:55Z</time>
      </trkpt>
      <trkpt lat="44.79745" lon="0.47345">
        <ele>149.5</ele>
        <time>2024-07-14T09:21:57Z</time>
      </trkpt>
      <trkpt lat="44.79748" lon="0.47329">
        <ele>148.6</ele>
        <time>2024-07-14T09:21:59Z</time>
      </trkpt>
      <trkpt lat="44.79749" lon="0.47322">
        <ele>148.1</ele>
        <time>2024-07-14T09:22:00Z</time>
      </trkpt>
      <trkpt lat="44.79751" lon="0.47315">
        <ele>148</ele>
        <time>2024-07-14T09:22:01Z</time>
      </trkpt>
      <trkpt lat="44.79754" lon="0.47304">
        <ele>147.1</ele>
        <time>2024-07-14T09:22:03Z</time>
      </trkpt>
      <trkpt lat="44.79757" lon="0.47293">
        <ele>146.4</ele>
        <time>2024-07-14T09:22:05Z</time>
      </trkpt>
      <trkpt lat="44.7976" lon="0.47282">
        <ele>145.4</ele>
        <time>2024-07-14T09:22:07Z</time>
      </trkpt>
      <trkpt lat="44.79763" lon="0.47272">
        <ele>144.6</ele>
        <time>2024-07-14T09:22:09Z</time>
      </trkpt>
      <trkpt lat="44.79766" lon="0.47261">
        <ele>143.8</ele>
        <time>2024-07-14T09:22:11Z</time>
      </trkpt>
      <trkpt lat="44.79768" lon="0.47251">
        <ele>143.4</ele>
        <time>2024-07-14T09:22:13Z</time>
      </trkpt>
      <trkpt lat="44.79769" lon="0.47246">
        <ele>143.5</ele>
        <time>2024-07-14T09:22:14Z</time>
      </trkpt>
      <trkpt lat="44.7977" lon="0.47241">
        <ele>143.5</ele>
        <time>2024-07-14T09:22:15Z</time>
      </trkpt>
      <trkpt lat="44.79773" lon="0.47231">
        <ele>143.3</ele>
        <time>2024-07-14T09:22:17Z</time>
      </trkpt>
      <trkpt lat="44.79776" lon="0.47219">
        <ele>143.1</ele>
        <time>2024-07-14T09:22:19Z</time>
      </trkpt>
      <trkpt lat="44.79779" lon="0.47207">
        <ele>142.9</ele>
        <time>2024-07-14T09:22:21Z</time>
      </trkpt>
      <trkpt lat="44.79782" lon="0.47194">
        <ele>142.6</ele>
        <time>2024-07-14T09:22:23Z</time>
      </trkpt>
      <trkpt lat="44.79784" lon="0.47179">
        <ele>142.2</ele>
        <time>2024-07-14T09:22:25Z</time>
      </trkpt>
      <trkpt lat="44.79781" lon="0.47167">
        <ele>142.6</ele>
        <time>2024-07-14T09:22:27Z</time>
      </trkpt>
      <trkpt lat="44.79777" lon="0.47163">
        <ele>143.1</ele>
        <time>2024-07-14T09:22:28Z</time>
      </trkpt>
      <trkpt lat="44.79774" lon="0.47161">
        <ele>143.7</ele>
        <time>2024-07-14T09:22:29Z</time>
      </trkpt>
      <trkpt lat="44.79767" lon="0.47159">
        <ele>144.3</ele>
        <time>2024-07-14T09:22:31Z</time>
      </trkpt>
      <trkpt lat="44.79764" lon="0.47157">
        <ele>144.6</ele>
        <time>2024-07-14T09:22:32Z</time>
      </trkpt>
      <trkpt lat="44.79762" lon="0.47156">
        <ele>144.8</ele>
        <time>2024-07-14T09:22:33Z</time>
      </trkpt>
      <trkpt lat="44.79757" lon="0.47154">
        <ele>145.2</ele>
        <time>2024-07-14T09:22:35Z</time>
      </trkpt>
      <trkpt lat="44.79753" lon="0.47152">
        <ele>145.6</ele>
        <time>2024-07-14T09:22:37Z</time>
      </trkpt>
      <trkpt lat="44.7975" lon="0.47151">
        <ele>145.8</ele>
        <time>2024-07-14T09:22:38Z</time>
      </trkpt>
      <trkpt lat="44.79748" lon="0.4715">
        <ele>146</ele>
        <time>2024-07-14T09:22:39Z</time>
      </trkpt>
      <trkpt lat="44.79744" lon="0.47148">
        <ele>146.4</ele>
        <time>2024-07-14T09:22:41Z</time>
      </trkpt>
      <trkpt lat="44.7974" lon="0.47146">
        <ele>146.8</ele>
        <time>2024-07-14T09:22:43Z</time>
      </trkpt>
      <trkpt lat="44.79735" lon="0.47145">
        <ele>147.1</ele>
        <time>2024-07-14T09:22:45Z</time>
      </trkpt>
      <trkpt lat="44.79731" lon="0.47144">
        <ele>147.5</ele>
        <time>2024-07-14T09:22:47Z</time>
      </trkpt>
      <trkpt lat="44.79727" lon="0.47142">
        <ele>147.8</ele>
        <time>2024-07-14T09:22:49Z</time>
      </trkpt>
      <trkpt lat="44.79722" lon="0.4714">
        <ele>148.2</ele>
        <time>2024-07-14T09:22:51Z</time>
      </trkpt>
      <trkpt lat="44.79721" lon="0.47139">
        <ele>148.4</ele>
        <time>2024-07-14T09:22:52Z</time>
      </trkpt>
      <trkpt lat="44.79719" lon="0.47138">
        <ele>148.5</ele>
        <time>2024-07-14T09:22:53Z</time>
      </trkpt>
      <trkpt lat="44.79715" lon="0.47137">
        <ele>148.9</ele>
        <time>2024-07-14T09:22:55Z</time>
      </trkpt>
      <trkpt lat="44.7971" lon="0.47136">
        <ele>149.3</ele>
        <time>2024-07-14T09:22:57Z</time>
      </trkpt>
      <trkpt lat="44.79706" lon="0.47135">
        <ele>149.8</ele>
        <time>2024-07-14T09:22:59Z</time>
      </trkpt>
      <trkpt lat="44.79704" lon="0.47134">
        <ele>150</ele>
        <time>2024-07-14T09:23:00Z</time>
      </trkpt>
      <trkpt lat="44.79702" lon="0.47134">
        <ele>150.2</ele>
        <time>2024-07-14T09:23:01Z</time>
      </trkpt>
      <trkpt lat="44.79698" lon="0.47132">
        <ele>150.5</ele>
        <time>2024-07-14T09:23:03Z</time>
      </trkpt>
      <trkpt lat="44.79696" lon="0.47131">
        <ele>150.7</ele>
        <time>2024-07-14T09:23:04Z</time>
      </trkpt>
      <trkpt lat="44.79693" lon="0.47131">
        <ele>150.9</ele>
        <time>2024-07-14T09:23:05Z</time>
      </trkpt>
      <trkpt lat="44.79689" lon="0.47128">
        <ele>151.3</ele>
        <time>2024-07-14T09:23:07Z</time>
      </trkpt>
      <trkpt lat="44.79687" lon="0.47127">
        <ele>151.5</ele>
        <time>2024-07-14T09:23:08Z</time>
      </trkpt>
      <trkpt lat="44.79685" lon="0.47126">
        <ele>151.7</ele>
        <time>2024-07-14T09:23:09Z</time>
      </trkpt>
      <trkpt lat="44.79681" lon="0.47124">
        <ele>152</ele>
        <time>2024-07-14T09:23:11Z</time>
      </trkpt>
      <trkpt lat="44.79677" lon="0.47122">
        <ele>152.4</ele>
        <time>2024-07-14T09:23:13Z</time>
      </trkpt>
      <trkpt lat="44.79675" lon="0.47122">
        <ele>152.5</ele>
        <time>2024-07-14T09:23:14Z</time>
      </trkpt>
      <trkpt lat="44.79674" lon="0.47121">
        <ele>152.7</ele>
        <time>2024-07-14T09:23:15Z</time>
      </trkpt>
      <trkpt lat="44.7967" lon="0.47118">
        <ele>153</ele>
        <time>2024-07-14T09:23:17Z</time>
      </trkpt>
      <trkpt lat="44.79666" lon="0.47117">
        <ele>153.4</ele>
        <time>2024-07-14T09:23:19Z</time>
      </trkpt>
      <trkpt lat="44.79662" lon="0.47115">
        <ele>153.7</ele>
        <time>2024-07-14T09:23:21Z</time>
      </trkpt>
      <trkpt lat="44.79658" lon="0.47114">
        <ele>154.1</ele>
        <time>2024-07-14T09:23:23Z</time>
      </trkpt>
      <trkpt lat="44.79653" lon="0.47113">
        <ele>154.4</ele>
        <time>2024-07-14T09:23:25Z</time>
      </trkpt>
      <trkpt lat="44.79649" lon="0.47111">
        <ele>154.6</ele>
        <time>2024-07-14T09:23:27Z</time>
      </trkpt>
      <trkpt lat="44.79645" lon="0.4711">
        <ele>154.8</ele>
        <time>2024-07-14T09:23:29Z</time>
      </trkpt>
      <trkpt lat="44.7964" lon="0.47108">
        <ele>155</ele>
        <time>2024-07-14T09:23:31Z</time>
      </trkpt>
      <trkpt lat="44.79638" lon="0.47107">
        <ele>155.1</ele>
        <time>2024-07-14T09:23:32Z</time>
      </trkpt>
      <trkpt lat="44.79636" lon="0.47107">
        <ele>155.2</ele>
        <time>2024-07-14T09:23:33Z</time>
      </trkpt>
      <trkpt lat="44.79631" lon="0.47105">
        <ele>155.4</ele>
        <time>2024-07-14T09:23:35Z</time>
      </trkpt>
      <trkpt lat="44.79627" lon="0.47106">
        <ele>155.7</ele>
        <time>2024-07-14T09:23:37Z</time>
      </trkpt>
      <trkpt lat="44.79624" lon="0.47106">
        <ele>155.6</ele>
        <time>2024-07-14T09:23:38Z</time>
      </trkpt>
      <trkpt lat="44.79622" lon="0.47106">
        <ele>155.7</ele>
        <time>2024-07-14T09:23:39Z</time>
      </trkpt>
      <trkpt lat="44.79617" lon="0.47105">
        <ele>156</ele>
        <time>2024-07-14T09:23:41Z</time>
      </trkpt>
      <trkpt lat="44.79613" lon="0.47102">
        <ele>156.2</ele>
        <time>2024-07-14T09:23:43Z</time>
      </trkpt>
      <trkpt lat="44.79609" lon="0.471">
        <ele>156.5</ele>
        <time>2024-07-14T09:23:45Z</time>
      </trkpt>
      <trkpt lat="44.79605" lon="0.47098">
        <ele>156.7</ele>
        <time>2024-07-14T09:23:47Z</time>
      </trkpt>
      <trkpt lat="44.796" lon="0.47096">
        <ele>156.7</ele>
        <time>2024-07-14T09:23:49Z</time>
      </trkpt>
      <trkpt lat="44.79596" lon="0.47095">
        <ele>157</ele>
        <time>2024-07-14T09:23:51Z</time>
      </trkpt>
      <trkpt lat="44.79592" lon="0.47094">
        <ele>157</ele>
        <time>2024-07-14T09:23:53Z</time>
      </trkpt>
      <trkpt lat="44.79588" lon="0.47098">
        <ele>157.1</ele>
        <time>2024-07-14T09:23:55Z</time>
      </trkpt>
      <trkpt lat="44.79585" lon="0.47104">
        <ele>157.1</ele>
        <time>2024-07-14T09:23:57Z</time>
      </trkpt>
      <trkpt lat="44.79583" lon="0.47107">
        <ele>157.1</ele>
        <time>2024-07-14T09:23:58Z</time>
      </trkpt>
      <trkpt lat="44.79581" lon="0.4711">
        <ele>157.1</ele>
        <time>2024-07-14T09:23:59Z</time>
      </trkpt>
      <trkpt lat="44.79578" lon="0.47116">
        <ele>157.1</ele>
        <time>2024-07-14T09:24:01Z</time>
      </trkpt>
      <trkpt lat="44.79574" lon="0.47122">
        <ele>157.1</ele>
        <time>2024-07-14T09:24:03Z</time>
      </trkpt>
      <trkpt lat="44.7957" lon="0.47129">
        <ele>157.1</ele>
        <time>2024-07-14T09:24:05Z</time>
      </trkpt>
      <trkpt lat="44.79568" lon="0.47132">
        <ele>157.1</ele>
        <time>2024-07-14T09:24:06Z</time>
      </trkpt>
      <trkpt lat="44.79567" lon="0.47136">
        <ele>157</ele>
        <time>2024-07-14T09:24:07Z</time>
      </trkpt>
      <trkpt lat="44.79563" lon="0.47143">
        <ele>157</ele>
        <time>2024-07-14T09:24:09Z</time>
      </trkpt>
      <trkpt lat="44.7956" lon="0.4715">
        <ele>157</ele>
        <time>2024-07-14T09:24:11Z</time>
      </trkpt>
      <trkpt lat="44.79556" lon="0.47158">
        <ele>157</ele>
        <time>2024-07-14T09:24:13Z</time>
      </trkpt>
      <trkpt lat="44.79552" lon="0.47167">
        <ele>157</ele>
        <time>2024-07-14T09:24:15Z</time>
      </trkpt>
      <trkpt lat="44.79549" lon="0.47177">
        <ele>157</ele>
        <time>2024-07-14T09:24:17Z</time>
      </trkpt>
      <trkpt lat="44.79547" lon="0.47185">
        <ele>157</ele>
        <time>2024-07-14T09:24:19Z</time>
      </trkpt>
      <trkpt lat="44.79544" lon="0.47193">
        <ele>157</ele>
        <time>2024-07-14T09:24:21Z</time>
      </trkpt>
      <trkpt lat="44.79542" lon="0.47197">
        <ele>157</ele>
        <time>2024-07-14T09:24:22Z</time>
      </trkpt>
      <trkpt lat="44.79541" lon="0.47202">
        <ele>157</ele>
        <time>2024-07-14T09:24:23Z</time>
      </trkpt>
      <trkpt lat="44.79538" lon="0.47211">
        <ele>157</ele>
        <time>2024-07-14T09:24:25Z</time>
      </trkpt>
      <trkpt lat="44.79535" lon="0.47219">
        <ele>156.9</ele>
        <time>2024-07-14T09:24:27Z</time>
      </trkpt>
      <trkpt lat="44.79534" lon="0.47223">
        <ele>156.9</ele>
        <time>2024-07-14T09:24:28Z</time>
      </trkpt>
      <trkpt lat="44.79533" lon="0.47227">
        <ele>156.8</ele>
        <time>2024-07-14T09:24:29Z</time>
      </trkpt>
      <trkpt lat="44.7953" lon="0.47236">
        <ele>156.8</ele>
        <time>2024-07-14T09:24:31Z</time>
      </trkpt>
      <trkpt lat="44.79527" lon="0.47245">
        <ele>156.8</ele>
        <time>2024-07-14T09:24:33Z</time>
      </trkpt>
      <trkpt lat="44.79525" lon="0.47254">
        <ele>156.7</ele>
        <time>2024-07-14T09:24:35Z</time>
      </trkpt>
      <trkpt lat="44.79524" lon="0.47258">
        <ele>156.7</ele>
        <time>2024-07-14T09:24:36Z</time>
      </trkpt>
      <trkpt lat="44.79521" lon="0.47259">
        <ele>156.7</ele>
        <time>2024-07-14T09:24:37Z</time>
      </trkpt>
      <trkpt lat="44.79518" lon="0.47255">
        <ele>156.7</ele>
        <time>2024-07-14T09:24:39Z</time>
      </trkpt>
      <trkpt lat="44.79518" lon="0.47251">
        <ele>156.7</ele>
        <time>2024-07-14T09:24:40Z</time>
      </trkpt>
      <trkpt lat="44.79519" lon="0.47248">
        <ele>156.8</ele>
        <time>2024-07-14T09:24:41Z</time>
      </trkpt>
      <trkpt lat="44.79522" lon="0.47242">
        <ele>156.8</ele>
        <time>2024-07-14T09:24:43Z</time>
      </trkpt>
      <trkpt lat="44.79525" lon="0.47234">
        <ele>156.8</ele>
        <time>2024-07-14T09:24:45Z</time>
      </trkpt>
      <trkpt lat="44.79526" lon="0.4723">
        <ele>156.8</ele>
        <time>2024-07-14T09:24:46Z</time>
      </trkpt>
      <trkpt lat="44.79528" lon="0.47225">
        <ele>156.9</ele>
        <time>2024-07-14T09:24:47Z</time>
      </trkpt>
      <trkpt lat="44.7953" lon="0.47216">
        <ele>156.9</ele>
        <time>2024-07-14T09:24:49Z</time>
      </trkpt>
      <trkpt lat="44.7953" lon="0.47208">
        <ele>157</ele>
        <time>2024-07-14T09:24:51Z</time>
      </trkpt>
      <trkpt lat="44.79528" lon="0.47204">
        <ele>157</ele>
        <time>2024-07-14T09:24:52Z</time>
      </trkpt>
      <trkpt lat="44.79525" lon="0.47202">
        <ele>157</ele>
        <time>2024-07-14T09:24:53Z</time>
      </trkpt>
      <trkpt lat="44.79517" lon="0.472">
        <ele>156.9</ele>
        <time>2024-07-14T09:24:55Z</time>
      </trkpt>
      <trkpt lat="44.79514" lon="0.47199">
        <ele>156.9</ele>
        <time>2024-07-14T09:24:56Z</time>
      </trkpt>
      <trkpt lat="44.7951" lon="0.47199">
        <ele>156.8</ele>
        <time>2024-07-14T09:24:57Z</time>
      </trkpt>
      <trkpt lat="44.79502" lon="0.47197">
        <ele>156.8</ele>
        <time>2024-07-14T09:24:59Z</time>
      </trkpt>
      <trkpt lat="44.79497" lon="0.47197">
        <ele>156.8</ele>
        <time>2024-07-14T09:25:00Z</time>
      </trkpt>
      <trkpt lat="44.79493" lon="0.47197">
        <ele>156.8</ele>
        <time>2024-07-14T09:25:01Z</time>
      </trkpt>
      <trkpt lat="44.79484" lon="0.47196">
        <ele>156.7</ele>
        <time>2024-07-14T09:25:03Z</time>
      </trkpt>
      <trkpt lat="44.79479" lon="0.47196">
        <ele>156.7</ele>
        <time>2024-07-14T09:25:04Z</time>
      </trkpt>
      <trkpt lat="44.79475" lon="0.47195">
        <ele>156.7</ele>
        <time>2024-07-14T09:25:05Z</time>
      </trkpt>
      <trkpt lat="44.79465" lon="0.47194">
        <ele>156.7</ele>
        <time>2024-07-14T09:25:07Z</time>
      </trkpt>
      <trkpt lat="44.79456" lon="0.47193">
        <ele>156.6</ele>
        <time>2024-07-14T09:25:09Z</time>
      </trkpt>
      <trkpt lat="44.79447" lon="0.47191">
        <ele>156.5</ele>
        <time>2024-07-14T09:25:11Z</time>
      </trkpt>
      <trkpt lat="44.79442" lon="0.47191">
        <ele>156.4</ele>
        <time>2024-07-14T09:25:12Z</time>
      </trkpt>
      <trkpt lat="44.79438" lon="0.4719">
        <ele>156.3</ele>
        <time>2024-07-14T09:25:13Z</time>
      </trkpt>
      <trkpt lat="44.79428" lon="0.47189">
        <ele>155.9</ele>
        <time>2024-07-14T09:25:15Z</time>
      </trkpt>
      <trkpt lat="44.79416" lon="0.47189">
        <ele>155.4</ele>
        <time>2024-07-14T09:25:17Z</time>
      </trkpt>
      <trkpt lat="44.7941" lon="0.4719">
        <ele>155.1</ele>
        <time>2024-07-14T09:25:18Z</time>
      </trkpt>
      <trkpt lat="44.79404" lon="0.4719">
        <ele>154.9</ele>
        <time>2024-07-14T09:25:19Z</time>
      </trkpt>
      <trkpt lat="44.79391" lon="0.4719">
        <ele>154.3</ele>
        <time>2024-07-14T09:25:21Z</time>
      </trkpt>
      <trkpt lat="44.79385" lon="0.47191">
        <ele>154.1</ele>
        <time>2024-07-14T09:25:22Z</time>
      </trkpt>
      <trkpt lat="44.79379" lon="0.47191">
        <ele>153.8</ele>
        <time>2024-07-14T09:25:23Z</time>
      </trkpt>
      <trkpt lat="44.79369" lon="0.47192">
        <ele>153.4</ele>
        <time>2024-07-14T09:25:25Z</time>
      </trkpt>
      <trkpt lat="44.79365" lon="0.47193">
        <ele>153.2</ele>
        <time>2024-07-14T09:25:26Z</time>
      </trkpt>
      <trkpt lat="44.79362" lon="0.47194">
        <ele>153</ele>
        <time>2024-07-14T09:25:27Z</time>
      </trkpt>
      <trkpt lat="44.79355" lon="0.47195">
        <ele>152.7</ele>
        <time>2024-07-14T09:25:29Z</time>
      </trkpt>
      <trkpt lat="44.79351" lon="0.47195">
        <ele>152.5</ele>
        <time>2024-07-14T09:25:30Z</time>
      </trkpt>
      <trkpt lat="44.79347" lon="0.47195">
        <ele>152.3</ele>
        <time>2024-07-14T09:25:31Z</time>
      </trkpt>
      <trkpt lat="44.79338" lon="0.47195">
        <ele>151.8</ele>
        <time>2024-07-14T09:25:33Z</time>
      </trkpt>
      <trkpt lat="44.79328" lon="0.47196">
        <ele>151.4</ele>
        <time>2024-07-14T09:25:35Z</time>
      </trkpt>
      <trkpt lat="44.79322" lon="0.47196">
        <ele>151.1</ele>
        <time>2024-07-14T09:25:36Z</time>
      </trkpt>
      <trkpt lat="44.79316" lon="0.47196">
        <ele>150.9</ele>
        <time>2024-07-14T09:25:37Z</time>
      </trkpt>
      <trkpt lat="44.7931" lon="0.47197">
        <ele>150.7</ele>
        <time>2024-07-14T09:25:38Z</time>
      </trkpt>
      <trkpt lat="44.79305" lon="0.47197">
        <ele>150.5</ele>
        <time>2024-07-14T09:25:39Z</time>
      </trkpt>
      <trkpt lat="44.79298" lon="0.47198">
        <ele>150.3</ele>
        <time>2024-07-14T09:25:40Z</time>
      </trkpt>
      <trkpt lat="44.79292" lon="0.47199">
        <ele>150.1</ele>
        <time>2024-07-14T09:25:41Z</time>
      </trkpt>
      <trkpt lat="44.79278" lon="0.472">
        <ele>149.7</ele>
        <time>2024-07-14T09:25:43Z</time>
      </trkpt>
      <trkpt lat="44.79265" lon="0.47201">
        <ele>149.4</ele>
        <time>2024-07-14T09:25:45Z</time>
      </trkpt>
      <trkpt lat="44.79258" lon="0.47201">
        <ele>149.2</ele>
        <time>2024-07-14T09:25:46Z</time>
      </trkpt>
      <trkpt lat="44.79251" lon="0.47202">
        <ele>149.1</ele>
        <time>2024-07-14T09:25:47Z</time>
      </trkpt>
      <trkpt lat="44.79238" lon="0.47203">
        <ele>148.9</ele>
        <time>2024-07-14T09:25:49Z</time>
      </trkpt>
      <trkpt lat="44.79224" lon="0.47205">
        <ele>148.7</ele>
        <time>2024-07-14T09:25:51Z</time>
      </trkpt>
      <trkpt lat="44.7921" lon="0.47206">
        <ele>148.4</ele>
        <time>2024-07-14T09:25:53Z</time>
      </trkpt>
      <trkpt lat="44.79197" lon="0.47207">
        <ele>148.2</ele>
        <time>2024-07-14T09:25:55Z</time>
      </trkpt>
      <trkpt lat="44.79183" lon="0.47208">
        <ele>148</ele>
        <time>2024-07-14T09:25:57Z</time>
      </trkpt>
      <trkpt lat="44.7917" lon="0.4721">
        <ele>147.7</ele>
        <time>2024-07-14T09:25:59Z</time>
      </trkpt>
      <trkpt lat="44.79163" lon="0.47211">
        <ele>147.6</ele>
        <time>2024-07-14T09:26:00Z</time>
      </trkpt>
      <trkpt lat="44.79156" lon="0.47212">
        <ele>147.4</ele>
        <time>2024-07-14T09:26:01Z</time>
      </trkpt>
      <trkpt lat="44.79149" lon="0.47214">
        <ele>147.4</ele>
        <time>2024-07-14T09:26:02Z</time>
      </trkpt>
      <trkpt lat="44.79142" lon="0.47217">
        <ele>147.3</ele>
        <time>2024-07-14T09:26:03Z</time>
      </trkpt>
      <trkpt lat="44.79129" lon="0.47222">
        <ele>147.1</ele>
        <time>2024-07-14T09:26:05Z</time>
      </trkpt>
      <trkpt lat="44.79122" lon="0.47225">
        <ele>147</ele>
        <time>2024-07-14T09:26:06Z</time>
      </trkpt>
      <trkpt lat="44.79116" lon="0.47227">
        <ele>146.8</ele>
        <time>2024-07-14T09:26:07Z</time>
      </trkpt>
      <trkpt lat="44.79103" lon="0.47232">
        <ele>146.6</ele>
        <time>2024-07-14T09:26:09Z</time>
      </trkpt>
      <trkpt lat="44.7909" lon="0.47236">
        <ele>146.4</ele>
        <time>2024-07-14T09:26:11Z</time>
      </trkpt>
      <trkpt lat="44.79077" lon="0.47239">
        <ele>146.1</ele>
        <time>2024-07-14T09:26:13Z</time>
      </trkpt>
      <trkpt lat="44.7907" lon="0.47241">
        <ele>146</ele>
        <time>2024-07-14T09:26:14Z</time>
      </trkpt>
      <trkpt lat="44.79064" lon="0.47242">
        <ele>145.8</ele>
        <time>2024-07-14T09:26:15Z</time>
      </trkpt>
      <trkpt lat="44.7905" lon="0.47246">
        <ele>145.5</ele>
        <time>2024-07-14T09:26:17Z</time>
      </trkpt>
      <trkpt lat="44.79037" lon="0.47249">
        <ele>145</ele>
        <time>2024-07-14T09:26:19Z</time>
      </trkpt>
      <trkpt lat="44.79024" lon="0.47252">
        <ele>144.6</ele>
        <time>2024-07-14T09:26:21Z</time>
      </trkpt>
      <trkpt lat="44.79011" lon="0.47256">
        <ele>144.2</ele>
        <time>2024-07-14T09:26:23Z</time>
      </trkpt>
      <trkpt lat="44.79004" lon="0.47258">
        <ele>143.9</ele>
        <time>2024-07-14T09:26:24Z</time>
      </trkpt>
      <trkpt lat="44.78997" lon="0.47259">
        <ele>143.7</ele>
        <time>2024-07-14T09:26:25Z</time>
      </trkpt>
      <trkpt lat="44.78984" lon="0.47263">
        <ele>143.2</ele>
        <time>2024-07-14T09:26:27Z</time>
      </trkpt>
      <trkpt lat="44.78977" lon="0.47265">
        <ele>142.9</ele>
        <time>2024-07-14T09:26:28Z</time>
      </trkpt>
      <trkpt lat="44.78971" lon="0.47266">
        <ele>142.7</ele>
        <time>2024-07-14T09:26:29Z</time>
      </trkpt>
      <trkpt lat="44.78958" lon="0.4727">
        <ele>142.4</ele>
        <time>2024-07-14T09:26:31Z</time>
      </trkpt>
      <trkpt lat="44.78951" lon="0.47271">
        <ele>142.2</ele>
        <time>2024-07-14T09:26:32Z</time>
      </trkpt>
      <trkpt lat="44.78945" lon="0.47273">
        <ele>142.1</ele>
        <time>2024-07-14T09:26:33Z</time>
      </trkpt>
      <trkpt lat="44.78931" lon="0.47276">
        <ele>141.8</ele>
        <time>2024-07-14T09:26:35Z</time>
      </trkpt>
      <trkpt lat="44.78918" lon="0.47279">
        <ele>141.5</ele>
        <time>2024-07-14T09:26:37Z</time>
      </trkpt>
      <trkpt lat="44.78904" lon="0.47282">
        <ele>141.3</ele>
        <time>2024-07-14T09:26:39Z</time>
      </trkpt>
      <trkpt lat="44.78891" lon="0.47285">
        <ele>141.1</ele>
        <time>2024-07-14T09:26:41Z</time>
      </trkpt>
      <trkpt lat="44.78884" lon="0.47287">
        <ele>141</ele>
        <time>2024-07-14T09:26:42Z</time>
      </trkpt>
      <trkpt lat="44.78877" lon="0.47288">
        <ele>141</ele>
        <time>2024-07-14T09:26:43Z</time>
      </trkpt>
      <trkpt lat="44.78864" lon="0.47291">
        <ele>141</ele>
        <time>2024-07-14T09:26:45Z</time>
      </trkpt>
      <trkpt lat="44.78852" lon="0.47293">
        <ele>141.2</ele>
        <time>2024-07-14T09:26:47Z</time>
      </trkpt>
      <trkpt lat="44.78846" lon="0.47293">
        <ele>141.5</ele>
        <time>2024-07-14T09:26:48Z</time>
      </trkpt>
      <trkpt lat="44.7884" lon="0.47292">
        <ele>141.7</ele>
        <time>2024-07-14T09:26:49Z</time>
      </trkpt>
      <trkpt lat="44.78829" lon="0.47292">
        <ele>141.8</ele>
        <time>2024-07-14T09:26:51Z</time>
      </trkpt>
      <trkpt lat="44.78818" lon="0.47291">
        <ele>142</ele>
        <time>2024-07-14T09:26:53Z</time>
      </trkpt>
      <trkpt lat="44.78809" lon="0.47291">
        <ele>142.2</ele>
        <time>2024-07-14T09:26:55Z</time>
      </trkpt>
      <trkpt lat="44.788" lon="0.47289">
        <ele>142.4</ele>
        <time>2024-07-14T09:26:57Z</time>
      </trkpt>
      <trkpt lat="44.78792" lon="0.47287">
        <ele>142.5</ele>
        <time>2024-07-14T09:26:59Z</time>
      </trkpt>
      <trkpt lat="44.78788" lon="0.47286">
        <ele>142.5</ele>
        <time>2024-07-14T09:27:00Z</time>
      </trkpt>
      <trkpt lat="44.78785" lon="0.47286">
        <ele>142.6</ele>
        <time>2024-07-14T09:27:01Z</time>
      </trkpt>
      <trkpt lat="44.7878" lon="0.47284">
        <ele>142.6</ele>
        <time>2024-07-14T09:27:02Z</time>
      </trkpt>
      <trkpt lat="44.78776" lon="0.47281">
        <ele>142.6</ele>
        <time>2024-07-14T09:27:03Z</time>
      </trkpt>
      <trkpt lat="44.78773" lon="0.47278">
        <ele>142.6</ele>
        <time>2024-07-14T09:27:04Z</time>
      </trkpt>
      <trkpt lat="44.78769" lon="0.47274">
        <ele>142.6</ele>
        <time>2024-07-14T09:27:05Z</time>
      </trkpt>
      <trkpt lat="44.78763" lon="0.47266">
        <ele>142.7</ele>
        <time>2024-07-14T09:27:07Z</time>
      </trkpt>
      <trkpt lat="44.78759" lon="0.47257">
        <ele>142.8</ele>
        <time>2024-07-14T09:27:09Z</time>
      </trkpt>
      <trkpt lat="44.78755" lon="0.47247">
        <ele>142.9</ele>
        <time>2024-07-14T09:27:11Z</time>
      </trkpt>
      <trkpt lat="44.78752" lon="0.47243">
        <ele>143</ele>
        <time>2024-07-14T09:27:12Z</time>
      </trkpt>
      <trkpt lat="44.7875" lon="0.47238">
        <ele>143</ele>
        <time>2024-07-14T09:27:13Z</time>
      </trkpt>
      <trkpt lat="44.78748" lon="0.47233">
        <ele>143.1</ele>
        <time>2024-07-14T09:27:14Z</time>
      </trkpt>
      <trkpt lat="44.78747" lon="0.47228">
        <ele>143.1</ele>
        <time>2024-07-14T09:27:15Z</time>
      </trkpt>
      <trkpt lat="44.78744" lon="0.47218">
        <ele>143.3</ele>
        <time>2024-07-14T09:27:17Z</time>
      </trkpt>
      <trkpt lat="44.78742" lon="0.47208">
        <ele>143.4</ele>
        <time>2024-07-14T09:27:19Z</time>
      </trkpt>
      <trkpt lat="44.78742" lon="0.47203">
        <ele>143.4</ele>
        <time>2024-07-14T09:27:20Z</time>
      </trkpt>
      <trkpt lat="44.78742" lon="0.47199">
        <ele>143.5</ele>
        <time>2024-07-14T09:27:21Z</time>
      </trkpt>
      <trkpt lat="44.78741" lon="0.47193">
        <ele>143.5</ele>
        <time>2024-07-14T09:27:22Z</time>
      </trkpt>
      <trkpt lat="44.7874" lon="0.47187">
        <ele>143.4</ele>
        <time>2024-07-14T09:27:23Z</time>
      </trkpt>
      <trkpt lat="44.78739" lon="0.47181">
        <ele>143.4</ele>
        <time>2024-07-14T09:27:24Z</time>
      </trkpt>
      <trkpt lat="44.78738" lon="0.47175">
        <ele>143.4</ele>
        <time>2024-07-14T09:27:25Z</time>
      </trkpt>
      <trkpt lat="44.78737" lon="0.47162">
        <ele>143.5</ele>
        <time>2024-07-14T09:27:27Z</time>
      </trkpt>
      <trkpt lat="44.78736" lon="0.47156">
        <ele>143.6</ele>
        <time>2024-07-14T09:27:28Z</time>
      </trkpt>
      <trkpt lat="44.78735" lon="0.47151">
        <ele>143.7</ele>
        <time>2024-07-14T09:27:29Z</time>
      </trkpt>
      <trkpt lat="44.78734" lon="0.47145">
        <ele>143.8</ele>
        <time>2024-07-14T09:27:30Z</time>
      </trkpt>
      <trkpt lat="44.78734" lon="0.4714">
        <ele>143.9</ele>
        <time>2024-07-14T09:27:31Z</time>
      </trkpt>
      <trkpt lat="44.78733" lon="0.4713">
        <ele>144.1</ele>
        <time>2024-07-14T09:27:33Z</time>
      </trkpt>
      <trkpt lat="44.78732" lon="0.47121">
        <ele>144.3</ele>
        <time>2024-07-14T09:27:35Z</time>
      </trkpt>
      <trkpt lat="44.78731" lon="0.47112">
        <ele>144.5</ele>
        <time>2024-07-14T09:27:37Z</time>
      </trkpt>
      <trkpt lat="44.7873" lon="0.47107">
        <ele>144.6</ele>
        <time>2024-07-14T09:27:38Z</time>
      </trkpt>
      <trkpt lat="44.7873" lon="0.47102">
        <ele>144.7</ele>
        <time>2024-07-14T09:27:39Z</time>
      </trkpt>
      <trkpt lat="44.78729" lon="0.47097">
        <ele>144.8</ele>
        <time>2024-07-14T09:27:40Z</time>
      </trkpt>
      <trkpt lat="44.78729" lon="0.47092">
        <ele>144.8</ele>
        <time>2024-07-14T09:27:41Z</time>
      </trkpt>
      <trkpt lat="44.78728" lon="0.47082">
        <ele>144.9</ele>
        <time>2024-07-14T09:27:43Z</time>
      </trkpt>
      <trkpt lat="44.78726" lon="0.47072">
        <ele>144.9</ele>
        <time>2024-07-14T09:27:45Z</time>
      </trkpt>
      <trkpt lat="44.78725" lon="0.4706">
        <ele>144.7</ele>
        <time>2024-07-14T09:27:47Z</time>
      </trkpt>
      <trkpt lat="44.78724" lon="0.47047">
        <ele>144.4</ele>
        <time>2024-07-14T09:27:49Z</time>
      </trkpt>
      <trkpt lat="44.78722" lon="0.47034">
        <ele>144.1</ele>
        <time>2024-07-14T09:27:51Z</time>
      </trkpt>
      <trkpt lat="44.78722" lon="0.4702">
        <ele>143.8</ele>
        <time>2024-07-14T09:27:53Z</time>
      </trkpt>
      <trkpt lat="44.78721" lon="0.47007">
        <ele>143.7</ele>
        <time>2024-07-14T09:27:55Z</time>
      </trkpt>
      <trkpt lat="44.7872" lon="0.46994">
        <ele>143.7</ele>
        <time>2024-07-14T09:27:57Z</time>
      </trkpt>
      <trkpt lat="44.7872" lon="0.46981">
        <ele>143.8</ele>
        <time>2024-07-14T09:27:59Z</time>
      </trkpt>
      <trkpt lat="44.7872" lon="0.46969">
        <ele>143.8</ele>
        <time>2024-07-14T09:28:01Z</time>
      </trkpt>
      <trkpt lat="44.78721" lon="0.46957">
        <ele>143.8</ele>
        <time>2024-07-14T09:28:03Z</time>
      </trkpt>
      <trkpt lat="44.78721" lon="0.46951">
        <ele>143.8</ele>
        <time>2024-07-14T09:28:04Z</time>
      </trkpt>
      <trkpt lat="44.78721" lon="0.46945">
        <ele>143.8</ele>
        <time>2024-07-14T09:28:05Z</time>
      </trkpt>
      <trkpt lat="44.78722" lon="0.46938">
        <ele>143.8</ele>
        <time>2024-07-14T09:28:06Z</time>
      </trkpt>
      <trkpt lat="44.78722" lon="0.46932">
        <ele>143.8</ele>
        <time>2024-07-14T09:28:07Z</time>
      </trkpt>
      <trkpt lat="44.78722" lon="0.46919">
        <ele>143.8</ele>
        <time>2024-07-14T09:28:09Z</time>
      </trkpt>
      <trkpt lat="44.78722" lon="0.46907">
        <ele>143.8</ele>
        <time>2024-07-14T09:28:11Z</time>
      </trkpt>
      <trkpt lat="44.78723" lon="0.469">
        <ele>143.8</ele>
        <time>2024-07-14T09:28:12Z</time>
      </trkpt>
      <trkpt lat="44.78723" lon="0.46893">
        <ele>143.8</ele>
        <time>2024-07-14T09:28:13Z</time>
      </trkpt>
      <trkpt lat="44.78724" lon="0.4688">
        <ele>143.7</ele>
        <time>2024-07-14T09:28:15Z</time>
      </trkpt>
      <trkpt lat="44.78724" lon="0.46867">
        <ele>143.6</ele>
        <time>2024-07-14T09:28:17Z</time>
      </trkpt>
      <trkpt lat="44.78725" lon="0.46855">
        <ele>143.5</ele>
        <time>2024-07-14T09:28:19Z</time>
      </trkpt>
      <trkpt lat="44.78725" lon="0.46849">
        <ele>143.4</ele>
        <time>2024-07-14T09:28:20Z</time>
      </trkpt>
      <trkpt lat="44.78726" lon="0.46843">
        <ele>143.4</ele>
        <time>2024-07-14T09:28:21Z</time>
      </trkpt>
      <trkpt lat="44.78727" lon="0.46836">
        <ele>143.3</ele>
        <time>2024-07-14T09:28:22Z</time>
      </trkpt>
      <trkpt lat="44.78729" lon="0.4683">
        <ele>143.2</ele>
        <time>2024-07-14T09:28:23Z</time>
      </trkpt>
      <trkpt lat="44.78732" lon="0.46824">
        <ele>143.1</ele>
        <time>2024-07-14T09:28:24Z</time>
      </trkpt>
      <trkpt lat="44.78736" lon="0.4682">
        <ele>143.1</ele>
        <time>2024-07-14T09:28:25Z</time>
      </trkpt>
      <trkpt lat="44.7874" lon="0.46818">
        <ele>143.1</ele>
        <time>2024-07-14T09:28:26Z</time>
      </trkpt>
      <trkpt lat="44.78745" lon="0.46816">
        <ele>143.1</ele>
        <time>2024-07-14T09:28:27Z</time>
      </trkpt>
      <trkpt lat="44.78749" lon="0.46815">
        <ele>143.2</ele>
        <time>2024-07-14T09:28:28Z</time>
      </trkpt>
      <trkpt lat="44.78754" lon="0.46814">
        <ele>143.3</ele>
        <time>2024-07-14T09:28:29Z</time>
      </trkpt>
      <trkpt lat="44.78761" lon="0.46813">
        <ele>143.4</ele>
        <time>2024-07-14T09:28:31Z</time>
      </trkpt>
      <trkpt lat="44.78767" lon="0.4681">
        <ele>143.6</ele>
        <time>2024-07-14T09:28:33Z</time>
      </trkpt>
      <trkpt lat="44.7877" lon="0.46807">
        <ele>143.7</ele>
        <time>2024-07-14T09:28:34Z</time>
      </trkpt>
      <trkpt lat="44.78771" lon="0.46803">
        <ele>143.8</ele>
        <time>2024-07-14T09:28:35Z</time>
      </trkpt>
      <trkpt lat="44.78772" lon="0.46795">
        <ele>144</ele>
        <time>2024-07-14T09:28:37Z</time>
      </trkpt>
      <trkpt lat="44.78772" lon="0.46792">
        <ele>144</ele>
        <time>2024-07-14T09:28:38Z</time>
      </trkpt>
      <trkpt lat="44.78772" lon="0.46788">
        <ele>144.1</ele>
        <time>2024-07-14T09:28:39Z</time>
      </trkpt>
      <trkpt lat="44.78771" lon="0.4678">
        <ele>144.3</ele>
        <time>2024-07-14T09:28:41Z</time>
      </trkpt>
      <trkpt lat="44.78769" lon="0.46774">
        <ele>144.5</ele>
        <time>2024-07-14T09:28:43Z</time>
      </trkpt>
      <trkpt lat="44.78768" lon="0.46767">
        <ele>144.6</ele>
        <time>2024-07-14T09:28:45Z</time>
      </trkpt>
      <trkpt lat="44.78767" lon="0.46761">
        <ele>144.8</ele>
        <time>2024-07-14T09:28:47Z</time>
      </trkpt>
      <trkpt lat="44.78766" lon="0.46754">
        <ele>145.1</ele>
        <time>2024-07-14T09:28:49Z</time>
      </trkpt>
      <trkpt lat="44.78765" lon="0.46748">
        <ele>145.3</ele>
        <time>2024-07-14T09:28:51Z</time>
      </trkpt>
      <trkpt lat="44.78764" lon="0.46746">
        <ele>145.5</ele>
        <time>2024-07-14T09:28:52Z</time>
      </trkpt>
      <trkpt lat="44.78764" lon="0.46743">
        <ele>145.6</ele>
        <time>2024-07-14T09:28:53Z</time>
      </trkpt>
      <trkpt lat="44.78763" lon="0.46738">
        <ele>145.9</ele>
        <time>2024-07-14T09:28:55Z</time>
      </trkpt>
      <trkpt lat="44.78761" lon="0.46733">
        <ele>146.2</ele>
        <time>2024-07-14T09:28:57Z</time>
      </trkpt>
      <trkpt lat="44.7876" lon="0.46729">
        <ele>146.5</ele>
        <time>2024-07-14T09:28:59Z</time>
      </trkpt>
      <trkpt lat="44.78759" lon="0.46724">
        <ele>146.8</ele>
        <time>2024-07-14T09:29:01Z</time>
      </trkpt>
      <trkpt lat="44.78759" lon="0.4672">
        <ele>147.1</ele>
        <time>2024-07-14T09:29:03Z</time>
      </trkpt>
      <trkpt lat="44.78758" lon="0.46715">
        <ele>147.4</ele>
        <time>2024-07-14T09:29:05Z</time>
      </trkpt>
      <trkpt lat="44.78758" lon="0.46711">
        <ele>147.7</ele>
        <time>2024-07-14T09:29:07Z</time>
      </trkpt>
      <trkpt lat="44.78756" lon="0.46707">
        <ele>148.1</ele>
        <time>2024-07-14T09:29:09Z</time>
      </trkpt>
      <trkpt lat="44.78756" lon="0.46702">
        <ele>148.4</ele>
        <time>2024-07-14T09:29:11Z</time>
      </trkpt>
      <trkpt lat="44.78758" lon="0.467">
        <ele>149.1</ele>
        <time>2024-07-14T09:29:13Z</time>
      </trkpt>
      <trkpt lat="44.78759" lon="0.46699">
        <ele>149.2</ele>
        <time>2024-07-14T09:29:14Z</time>
      </trkpt>
      <trkpt lat="44.78761" lon="0.467">
        <ele>149.4</ele>
        <time>2024-07-14T09:29:15Z</time>
      </trkpt>
      <trkpt lat="44.78765" lon="0.467">
        <ele>149.8</ele>
        <time>2024-07-14T09:29:17Z</time>
      </trkpt>
      <trkpt lat="44.78769" lon="0.46701">
        <ele>150.1</ele>
        <time>2024-07-14T09:29:19Z</time>
      </trkpt>
      <trkpt lat="44.78771" lon="0.46701">
        <ele>150.2</ele>
        <time>2024-07-14T09:29:20Z</time>
      </trkpt>
      <trkpt lat="44.78773" lon="0.46701">
        <ele>150.4</ele>
        <time>2024-07-14T09:29:21Z</time>
      </trkpt>
      <trkpt lat="44.78777" lon="0.46703">
        <ele>150.6</ele>
        <time>2024-07-14T09:29:23Z</time>
      </trkpt>
      <trkpt lat="44.78779" lon="0.46703">
        <ele>150.7</ele>
        <time>2024-07-14T09:29:24Z</time>
      </trkpt>
      <trkpt lat="44.78781" lon="0.46703">
        <ele>150.8</ele>
        <time>2024-07-14T09:29:25Z</time>
      </trkpt>
      <trkpt lat="44.78785" lon="0.46704">
        <ele>151</ele>
        <time>2024-07-14T09:29:27Z</time>
      </trkpt>
      <trkpt lat="44.78789" lon="0.46705">
        <ele>151.2</ele>
        <time>2024-07-14T09:29:29Z</time>
      </trkpt>
      <trkpt lat="44.78793" lon="0.46705">
        <ele>151.3</ele>
        <time>2024-07-14T09:29:31Z</time>
      </trkpt>
      <trkpt lat="44.78795" lon="0.46706">
        <ele>151.4</ele>
        <time>2024-07-14T09:29:32Z</time>
      </trkpt>
      <trkpt lat="44.78797" lon="0.46706">
        <ele>151.5</ele>
        <time>2024-07-14T09:29:33Z</time>
      </trkpt>
      <trkpt lat="44.78801" lon="0.46707">
        <ele>151.7</ele>
        <time>2024-07-14T09:29:35Z</time>
      </trkpt>
      <trkpt lat="44.78806" lon="0.46707">
        <ele>151.8</ele>
        <time>2024-07-14T09:29:37Z</time>
      </trkpt>
      <trkpt lat="44.78808" lon="0.46708">
        <ele>151.9</ele>
        <time>2024-07-14T09:29:38Z</time>
      </trkpt>
      <trkpt lat="44.7881" lon="0.46709">
        <ele>151.9</ele>
        <time>2024-07-14T09:29:39Z</time>
      </trkpt>
      <trkpt lat="44.78812" lon="0.46709">
        <ele>152</ele>
        <time>2024-07-14T09:29:40Z</time>
      </trkpt>
      <trkpt lat="44.78814" lon="0.46711">
        <ele>152.1</ele>
        <time>2024-07-14T09:29:41Z</time>
      </trkpt>
      <trkpt lat="44.78819" lon="0.46712">
        <ele>152.2</ele>
        <time>2024-07-14T09:29:43Z</time>
      </trkpt>
      <trkpt lat="44.78825" lon="0.46713">
        <ele>152.2</ele>
        <time>2024-07-14T09:29:45Z</time>
      </trkpt>
      <trkpt lat="44.7883" lon="0.46713">
        <ele>152.3</ele>
        <time>2024-07-14T09:29:47Z</time>
      </trkpt>
      <trkpt lat="44.78835" lon="0.46714">
        <ele>152.3</ele>
        <time>2024-07-14T09:29:49Z</time>
      </trkpt>
      <trkpt lat="44.78841" lon="0.46715">
        <ele>152.3</ele>
        <time>2024-07-14T09:29:51Z</time>
      </trkpt>
      <trkpt lat="44.78847" lon="0.46716">
        <ele>152.2</ele>
        <time>2024-07-14T09:29:53Z</time>
      </trkpt>
      <trkpt lat="44.78853" lon="0.46717">
        <ele>152.2</ele>
        <time>2024-07-14T09:29:55Z</time>
      </trkpt>
      <trkpt lat="44.78859" lon="0.46718">
        <ele>152.2</ele>
        <time>2024-07-14T09:29:57Z</time>
      </trkpt>
      <trkpt lat="44.78865" lon="0.46719">
        <ele>152.1</ele>
        <time>2024-07-14T09:29:59Z</time>
      </trkpt>
      <trkpt lat="44.7887" lon="0.4672">
        <ele>152.1</ele>
        <time>2024-07-14T09:30:01Z</time>
      </trkpt>
      <trkpt lat="44.78876" lon="0.4672">
        <ele>152.2</ele>
        <time>2024-07-14T09:30:03Z</time>
      </trkpt>
      <trkpt lat="44.78881" lon="0.46721">
        <ele>152.2</ele>
        <time>2024-07-14T09:30:05Z</time>
      </trkpt>
      <trkpt lat="44.78887" lon="0.46721">
        <ele>152.3</ele>
        <time>2024-07-14T09:30:07Z</time>
      </trkpt>
      <trkpt lat="44.7889" lon="0.46721">
        <ele>152.3</ele>
        <time>2024-07-14T09:30:08Z</time>
      </trkpt>
      <trkpt lat="44.78893" lon="0.46721">
        <ele>152.3</ele>
        <time>2024-07-14T09:30:09Z</time>
      </trkpt>
      <trkpt lat="44.78895" lon="0.46722">
        <ele>152.4</ele>
        <time>2024-07-14T09:30:10Z</time>
      </trkpt>
      <trkpt lat="44.78897" lon="0.46722">
        <ele>152.4</ele>
        <time>2024-07-14T09:30:11Z</time>
      </trkpt>
      <trkpt lat="44.78902" lon="0.46722">
        <ele>152.5</ele>
        <time>2024-07-14T09:30:13Z</time>
      </trkpt>
      <trkpt lat="44.78906" lon="0.46722">
        <ele>152.7</ele>
        <time>2024-07-14T09:30:15Z</time>
      </trkpt>
      <trkpt lat="44.7891" lon="0.4672">
        <ele>152.8</ele>
        <time>2024-07-14T09:30:17Z</time>
      </trkpt>
      <trkpt lat="44.78912" lon="0.4672">
        <ele>152.9</ele>
        <time>2024-07-14T09:30:18Z</time>
      </trkpt>
      <trkpt lat="44.78914" lon="0.4672">
        <ele>152.9</ele>
        <time>2024-07-14T09:30:19Z</time>
      </trkpt>
      <trkpt lat="44.78919" lon="0.4672">
        <ele>153.1</ele>
        <time>2024-07-14T09:30:21Z</time>
      </trkpt>
      <trkpt lat="44.78922" lon="0.46719">
        <ele>153.2</ele>
        <time>2024-07-14T09:30:23Z</time>
      </trkpt>
      <trkpt lat="44.78924" lon="0.46718">
        <ele>153.3</ele>
        <time>2024-07-14T09:30:24Z</time>
      </trkpt>
      <trkpt lat="44.78926" lon="0.46718">
        <ele>153.4</ele>
        <time>2024-07-14T09:30:25Z</time>
      </trkpt>
      <trkpt lat="44.78929" lon="0.46716">
        <ele>153.6</ele>
        <time>2024-07-14T09:30:27Z</time>
      </trkpt>
      <trkpt lat="44.78932" lon="0.46715">
        <ele>153.7</ele>
        <time>2024-07-14T09:30:29Z</time>
      </trkpt>
      <trkpt lat="44.78936" lon="0.46714">
        <ele>153.9</ele>
        <time>2024-07-14T09:30:31Z</time>
      </trkpt>
      <trkpt lat="44.78939" lon="0.46713">
        <ele>154.1</ele>
        <time>2024-07-14T09:30:33Z</time>
      </trkpt>
      <trkpt lat="44.78943" lon="0.46712">
        <ele>154.4</ele>
        <time>2024-07-14T09:30:35Z</time>
      </trkpt>
      <trkpt lat="44.78947" lon="0.4671">
        <ele>154.6</ele>
        <time>2024-07-14T09:30:37Z</time>
      </trkpt>
      <trkpt lat="44.7895" lon="0.46709">
        <ele>154.8</ele>
        <time>2024-07-14T09:30:39Z</time>
      </trkpt>
      <trkpt lat="44.78952" lon="0.46708">
        <ele>154.9</ele>
        <time>2024-07-14T09:30:40Z</time>
      </trkpt>
      <trkpt lat="44.78954" lon="0.46707">
        <ele>155.1</ele>
        <time>2024-07-14T09:30:41Z</time>
      </trkpt>
      <trkpt lat="44.78958" lon="0.46707">
        <ele>155.3</ele>
        <time>2024-07-14T09:30:43Z</time>
      </trkpt>
      <trkpt lat="44.78961" lon="0.46706">
        <ele>155.5</ele>
        <time>2024-07-14T09:30:45Z</time>
      </trkpt>
      <trkpt lat="44.78963" lon="0.46705">
        <ele>155.7</ele>
        <time>2024-07-14T09:30:46Z</time>
      </trkpt>
      <trkpt lat="44.78965" lon="0.46704">
        <ele>155.8</ele>
        <time>2024-07-14T09:30:47Z</time>
      </trkpt>
      <trkpt lat="44.78968" lon="0.46703">
        <ele>156</ele>
        <time>2024-07-14T09:30:49Z</time>
      </trkpt>
      <trkpt lat="44.78972" lon="0.46701">
        <ele>156.3</ele>
        <time>2024-07-14T09:30:51Z</time>
      </trkpt>
      <trkpt lat="44.78976" lon="0.467">
        <ele>156.6</ele>
        <time>2024-07-14T09:30:53Z</time>
      </trkpt>
      <trkpt lat="44.78978" lon="0.46699">
        <ele>156.7</ele>
        <time>2024-07-14T09:30:55Z</time>
      </trkpt>
      <trkpt lat="44.7898" lon="0.46698">
        <ele>156.8</ele>
        <time>2024-07-14T09:30:56Z</time>
      </trkpt>
      <trkpt lat="44.78981" lon="0.46696">
        <ele>156.9</ele>
        <time>2024-07-14T09:30:57Z</time>
      </trkpt>
      <trkpt lat="44.78984" lon="0.46693">
        <ele>157.2</ele>
        <time>2024-07-14T09:30:59Z</time>
      </trkpt>
      <trkpt lat="44.78986" lon="0.46689">
        <ele>157.4</ele>
        <time>2024-07-14T09:31:01Z</time>
      </trkpt>
      <trkpt lat="44.78988" lon="0.46685">
        <ele>157.6</ele>
        <time>2024-07-14T09:31:03Z</time>
      </trkpt>
      <trkpt lat="44.78989" lon="0.46681">
        <ele>157.8</ele>
        <time>2024-07-14T09:31:05Z</time>
      </trkpt>
      <trkpt lat="44.78989" lon="0.4668">
        <ele>157.9</ele>
        <time>2024-07-14T09:31:06Z</time>
      </trkpt>
      <trkpt lat="44.7899" lon="0.46678">
        <ele>157.9</ele>
        <time>2024-07-14T09:31:07Z</time>
      </trkpt>
      <trkpt lat="44.7899" lon="0.46675">
        <ele>158.1</ele>
        <time>2024-07-14T09:31:09Z</time>
      </trkpt>
      <trkpt lat="44.78991" lon="0.46673">
        <ele>158.2</ele>
        <time>2024-07-14T09:31:10Z</time>
      </trkpt>
      <trkpt lat="44.78991" lon="0.46671">
        <ele>158.3</ele>
        <time>2024-07-14T09:31:11Z</time>
      </trkpt>
      <trkpt lat="44.78992" lon="0.46667">
        <ele>158.5</ele>
        <time>2024-07-14T09:31:13Z</time>
      </trkpt>
      <trkpt lat="44.78993" lon="0.46663">
        <ele>158.7</ele>
        <time>2024-07-14T09:31:15Z</time>
      </trkpt>
      <trkpt lat="44.78994" lon="0.46659">
        <ele>158.9</ele>
        <time>2024-07-14T09:31:17Z</time>
      </trkpt>
      <trkpt lat="44.78994" lon="0.46657">
        <ele>159</ele>
        <time>2024-07-14T09:31:18Z</time>
      </trkpt>
      <trkpt lat="44.78995" lon="0.46655">
        <ele>159.1</ele>
        <time>2024-07-14T09:31:19Z</time>
      </trkpt>
      <trkpt lat="44.78995" lon="0.46651">
        <ele>159.3</ele>
        <time>2024-07-14T09:31:21Z</time>
      </trkpt>
      <trkpt lat="44.78997" lon="0.46647">
        <ele>159.6</ele>
        <time>2024-07-14T09:31:23Z</time>
      </trkpt>
      <trkpt lat="44.78998" lon="0.46644">
        <ele>159.8</ele>
        <time>2024-07-14T09:31:25Z</time>
      </trkpt>
      <trkpt lat="44.78999" lon="0.4664">
        <ele>160</ele>
        <time>2024-07-14T09:31:27Z</time>
      </trkpt>
      <trkpt lat="44.78999" lon="0.46638">
        <ele>160.1</ele>
        <time>2024-07-14T09:31:28Z</time>
      </trkpt>
      <trkpt lat="44.79" lon="0.46636">
        <ele>160.3</ele>
        <time>2024-07-14T09:31:29Z</time>
      </trkpt>
      <trkpt lat="44.79001" lon="0.46633">
        <ele>160.4</ele>
        <time>2024-07-14T09:31:31Z</time>
      </trkpt>
      <trkpt lat="44.79002" lon="0.46629">
        <ele>160.7</ele>
        <time>2024-07-14T09:31:33Z</time>
      </trkpt>
      <trkpt lat="44.79003" lon="0.46625">
        <ele>160.9</ele>
        <time>2024-07-14T09:31:35Z</time>
      </trkpt>
      <trkpt lat="44.79004" lon="0.4662">
        <ele>161.2</ele>
        <time>2024-07-14T09:31:37Z</time>
      </trkpt>
      <trkpt lat="44.79006" lon="0.46616">
        <ele>161.4</ele>
        <time>2024-07-14T09:31:39Z</time>
      </trkpt>
      <trkpt lat="44.79007" lon="0.46612">
        <ele>161.7</ele>
        <time>2024-07-14T09:31:41Z</time>
      </trkpt>
      <trkpt lat="44.7901" lon="0.46608">
        <ele>161.9</ele>
        <time>2024-07-14T09:31:43Z</time>
      </trkpt>
      <trkpt lat="44.79011" lon="0.46606">
        <ele>162</ele>
        <time>2024-07-14T09:31:44Z</time>
      </trkpt>
      <trkpt lat="44.79013" lon="0.46604">
        <ele>162.2</ele>
        <time>2024-07-14T09:31:45Z</time>
      </trkpt>
      <trkpt lat="44.79015" lon="0.466">
        <ele>162.4</ele>
        <time>2024-07-14T09:31:47Z</time>
      </trkpt>
      <trkpt lat="44.79018" lon="0.46596">
        <ele>162.6</ele>
        <time>2024-07-14T09:31:49Z</time>
      </trkpt>
      <trkpt lat="44.7902" lon="0.46593">
        <ele>162.8</ele>
        <time>2024-07-14T09:31:51Z</time>
      </trkpt>
      <trkpt lat="44.79022" lon="0.46588">
        <ele>163</ele>
        <time>2024-07-14T09:31:53Z</time>
      </trkpt>
      <trkpt lat="44.79023" lon="0.46582">
        <ele>163.2</ele>
        <time>2024-07-14T09:31:55Z</time>
      </trkpt>
      <trkpt lat="44.79023" lon="0.46575">
        <ele>163.4</ele>
        <time>2024-07-14T09:31:57Z</time>
      </trkpt>
      <trkpt lat="44.79023" lon="0.46569">
        <ele>163.5</ele>
        <time>2024-07-14T09:31:59Z</time>
      </trkpt>
      <trkpt lat="44.79024" lon="0.46561">
        <ele>163.7</ele>
        <time>2024-07-14T09:32:01Z</time>
      </trkpt>
      <trkpt lat="44.79025" lon="0.46553">
        <ele>163.8</ele>
        <time>2024-07-14T09:32:03Z</time>
      </trkpt>
      <trkpt lat="44.79026" lon="0.46545">
        <ele>163.9</ele>
        <time>2024-07-14T09:32:05Z</time>
      </trkpt>
      <trkpt lat="44.79027" lon="0.46542">
        <ele>163.9</ele>
        <time>2024-07-14T09:32:06Z</time>
      </trkpt>
      <trkpt lat="44.79029" lon="0.46541">
        <ele>163.9</ele>
        <time>2024-07-14T09:32:07Z</time>
      </trkpt>
      <trkpt lat="44.79031" lon="0.4654">
        <ele>163.9</ele>
        <time>2024-07-14T09:32:08Z</time>
      </trkpt>
      <trkpt lat="44.79033" lon="0.46541">
        <ele>163.9</ele>
        <time>2024-07-14T09:32:09Z</time>
      </trkpt>
      <trkpt lat="44.79037" lon="0.46542">
        <ele>164</ele>
        <time>2024-07-14T09:32:11Z</time>
      </trkpt>
      <trkpt lat="44.79041" lon="0.46541">
        <ele>164</ele>
        <time>2024-07-14T09:32:13Z</time>
      </trkpt>
      <trkpt lat="44.79042" lon="0.46539">
        <ele>164</ele>
        <time>2024-07-14T09:32:14Z</time>
      </trkpt>
      <trkpt lat="44.79043" lon="0.46535">
        <ele>164</ele>
        <time>2024-07-14T09:32:15Z</time>
      </trkpt>
      <trkpt lat="44.79045" lon="0.46529">
        <ele>163.9</ele>
        <time>2024-07-14T09:32:17Z</time>
      </trkpt>
      <trkpt lat="44.79046" lon="0.46521">
        <ele>163.8</ele>
        <time>2024-07-14T09:32:19Z</time>
      </trkpt>
      <trkpt lat="44.79048" lon="0.46511">
        <ele>163.6</ele>
        <time>2024-07-14T09:32:21Z</time>
      </trkpt>
      <trkpt lat="44.79049" lon="0.465">
        <ele>163.4</ele>
        <time>2024-07-14T09:32:23Z</time>
      </trkpt>
      <trkpt lat="44.7905" lon="0.46489">
        <ele>163.2</ele>
        <time>2024-07-14T09:32:25Z</time>
      </trkpt>
      <trkpt lat="44.79052" lon="0.46479">
        <ele>162.9</ele>
        <time>2024-07-14T09:32:27Z</time>
      </trkpt>
      <trkpt lat="44.79052" lon="0.4647">
        <ele>162.8</ele>
        <time>2024-07-14T09:32:29Z</time>
      </trkpt>
      <trkpt lat="44.79053" lon="0.46465">
        <ele>162.7</ele>
        <time>2024-07-14T09:32:30Z</time>
      </trkpt>
      <trkpt lat="44.79054" lon="0.46461">
        <ele>162.6</ele>
        <time>2024-07-14T09:32:31Z</time>
      </trkpt>
      <trkpt lat="44.79056" lon="0.46452">
        <ele>162.3</ele>
        <time>2024-07-14T09:32:33Z</time>
      </trkpt>
      <trkpt lat="44.79057" lon="0.46448">
        <ele>162.2</ele>
        <time>2024-07-14T09:32:34Z</time>
      </trkpt>
      <trkpt lat="44.79058" lon="0.46443">
        <ele>162.1</ele>
        <time>2024-07-14T09:32:35Z</time>
      </trkpt>
      <trkpt lat="44.7906" lon="0.46434">
        <ele>161.8</ele>
        <time>2024-07-14T09:32:37Z</time>
      </trkpt>
      <trkpt lat="44.79064" lon="0.46425">
        <ele>161.5</ele>
        <time>2024-07-14T09:32:39Z</time>
      </trkpt>
      <trkpt lat="44.79068" lon="0.46418">
        <ele>161.2</ele>
        <time>2024-07-14T09:32:41Z</time>
      </trkpt>
      <trkpt lat="44.79072" lon="0.46411">
        <ele>160.9</ele>
        <time>2024-07-14T09:32:43Z</time>
      </trkpt>
      <trkpt lat="44.79075" lon="0.46407">
        <ele>160.7</ele>
        <time>2024-07-14T09:32:44Z</time>
      </trkpt>
      <trkpt lat="44.79078" lon="0.46405">
        <ele>160.6</ele>
        <time>2024-07-14T09:32:45Z</time>
      </trkpt>
      <trkpt lat="44.79086" lon="0.46402">
        <ele>160.1</ele>
        <time>2024-07-14T09:32:47Z</time>
      </trkpt>
      <trkpt lat="44.79091" lon="0.46399">
        <ele>159.8</ele>
        <time>2024-07-14T09:32:48Z</time>
      </trkpt>
      <trkpt lat="44.79095" lon="0.46395">
        <ele>159.5</ele>
        <time>2024-07-14T09:32:49Z</time>
      </trkpt>
      <trkpt lat="44.79098" lon="0.4639">
        <ele>159.1</ele>
        <time>2024-07-14T09:32:50Z</time>
      </trkpt>
      <trkpt lat="44.791" lon="0.46383">
        <ele>158.7</ele>
        <time>2024-07-14T09:32:51Z</time>
      </trkpt>
      <trkpt lat="44.79105" lon="0.46368">
        <ele>157.9</ele>
        <time>2024-07-14T09:32:53Z</time>
      </trkpt>
      <trkpt lat="44.7911" lon="0.46354">
        <ele>157.5</ele>
        <time>2024-07-14T09:32:55Z</time>
      </trkpt>
      <trkpt lat="44.79112" lon="0.46349">
        <ele>157.3</ele>
        <time>2024-07-14T09:32:56Z</time>
      </trkpt>
      <trkpt lat="44.79114" lon="0.46346">
        <ele>157.2</ele>
        <time>2024-07-14T09:32:57Z</time>
      </trkpt>
      <trkpt lat="44.79121" lon="0.46346">
        <ele>157.3</ele>
        <time>2024-07-14T09:32:59Z</time>
      </trkpt>
      <trkpt lat="44.79128" lon="0.4635">
        <ele>157.4</ele>
        <time>2024-07-14T09:33:01Z</time>
      </trkpt>
      <trkpt lat="44.79134" lon="0.46354">
        <ele>157.6</ele>
        <time>2024-07-14T09:33:03Z</time>
      </trkpt>
      <trkpt lat="44.79141" lon="0.46357">
        <ele>157.7</ele>
        <time>2024-07-14T09:33:05Z</time>
      </trkpt>
      <trkpt lat="44.79147" lon="0.4636">
        <ele>157.9</ele>
        <time>2024-07-14T09:33:07Z</time>
      </trkpt>
      <trkpt lat="44.79149" lon="0.46362">
        <ele>157.9</ele>
        <time>2024-07-14T09:33:08Z</time>
      </trkpt>
      <trkpt lat="44.79153" lon="0.46364">
        <ele>158</ele>
        <time>2024-07-14T09:33:09Z</time>
      </trkpt>
      <trkpt lat="44.79159" lon="0.46366">
        <ele>158.2</ele>
        <time>2024-07-14T09:33:11Z</time>
      </trkpt>
      <trkpt lat="44.79164" lon="0.4637">
        <ele>158.3</ele>
        <time>2024-07-14T09:33:13Z</time>
      </trkpt>
      <trkpt lat="44.7917" lon="0.46373">
        <ele>158.5</ele>
        <time>2024-07-14T09:33:15Z</time>
      </trkpt>
      <trkpt lat="44.79173" lon="0.46374">
        <ele>158.6</ele>
        <time>2024-07-14T09:33:16Z</time>
      </trkpt>
      <trkpt lat="44.79176" lon="0.46376">
        <ele>158.7</ele>
        <time>2024-07-14T09:33:17Z</time>
      </trkpt>
      <trkpt lat="44.79181" lon="0.46379">
        <ele>158.9</ele>
        <time>2024-07-14T09:33:19Z</time>
      </trkpt>
      <trkpt lat="44.79187" lon="0.46382">
        <ele>159.1</ele>
        <time>2024-07-14T09:33:21Z</time>
      </trkpt>
      <trkpt lat="44.79192" lon="0.46386">
        <ele>159.2</ele>
        <time>2024-07-14T09:33:23Z</time>
      </trkpt>
      <trkpt lat="44.79197" lon="0.46389">
        <ele>159.4</ele>
        <time>2024-07-14T09:33:25Z</time>
      </trkpt>
      <trkpt lat="44.79203" lon="0.46392">
        <ele>159.6</ele>
        <time>2024-07-14T09:33:27Z</time>
      </trkpt>
      <trkpt lat="44.79208" lon="0.46393">
        <ele>159.7</ele>
        <time>2024-07-14T09:33:29Z</time>
      </trkpt>
      <trkpt lat="44.79213" lon="0.46396">
        <ele>159.9</ele>
        <time>2024-07-14T09:33:31Z</time>
      </trkpt>
      <trkpt lat="44.79215" lon="0.46397">
        <ele>159.9</ele>
        <time>2024-07-14T09:33:32Z</time>
      </trkpt>
      <trkpt lat="44.79217" lon="0.46399">
        <ele>160</ele>
        <time>2024-07-14T09:33:33Z</time>
      </trkpt>
      <trkpt lat="44.79222" lon="0.46402">
        <ele>160.1</ele>
        <time>2024-07-14T09:33:35Z</time>
      </trkpt>
      <trkpt lat="44.79227" lon="0.46405">
        <ele>160.2</ele>
        <time>2024-07-14T09:33:37Z</time>
      </trkpt>
      <trkpt lat="44.79232" lon="0.46406">
        <ele>160.3</ele>
        <time>2024-07-14T09:33:39Z</time>
      </trkpt>
      <trkpt lat="44.79235" lon="0.46404">
        <ele>160.2</ele>
        <time>2024-07-14T09:33:40Z</time>
      </trkpt>
      <trkpt lat="44.79237" lon="0.46401">
        <ele>160</ele>
        <time>2024-07-14T09:33:41Z</time>
      </trkpt>
      <trkpt lat="44.79241" lon="0.46389">
        <ele>159.5</ele>
        <time>2024-07-14T09:33:43Z</time>
      </trkpt>
      <trkpt lat="44.79244" lon="0.46383">
        <ele>159.2</ele>
        <time>2024-07-14T09:33:44Z</time>
      </trkpt>
      <trkpt lat="44.79247" lon="0.46377">
        <ele>158.9</ele>
        <time>2024-07-14T09:33:45Z</time>
      </trkpt>
      <trkpt lat="44.79255" lon="0.46366">
        <ele>158.6</ele>
        <time>2024-07-14T09:33:47Z</time>
      </trkpt>
      <trkpt lat="44.79259" lon="0.46362">
        <ele>158.4</ele>
        <time>2024-07-14T09:33:48Z</time>
      </trkpt>
      <trkpt lat="44.79264" lon="0.46358">
        <ele>158.3</ele>
        <time>2024-07-14T09:33:49Z</time>
      </trkpt>
      <trkpt lat="44.79272" lon="0.46351">
        <ele>158.2</ele>
        <time>2024-07-14T09:33:51Z</time>
      </trkpt>
      <trkpt lat="44.79279" lon="0.46343">
        <ele>158.2</ele>
        <time>2024-07-14T09:33:53Z</time>
      </trkpt>
      <trkpt lat="44.79281" lon="0.46339">
        <ele>158.2</ele>
        <time>2024-07-14T09:33:54Z</time>
      </trkpt>
      <trkpt lat="44.79284" lon="0.46335">
        <ele>158.2</ele>
        <time>2024-07-14T09:33:55Z</time>
      </trkpt>
      <trkpt lat="44.79287" lon="0.46327">
        <ele>158.1</ele>
        <time>2024-07-14T09:33:57Z</time>
      </trkpt>
      <trkpt lat="44.79291" lon="0.4632">
        <ele>158.1</ele>
        <time>2024-07-14T09:33:59Z</time>
      </trkpt>
      <trkpt lat="44.79295" lon="0.46313">
        <ele>158.2</ele>
        <time>2024-07-14T09:34:01Z</time>
      </trkpt>
      <trkpt lat="44.79298" lon="0.46306">
        <ele>158.2</ele>
        <time>2024-07-14T09:34:03Z</time>
      </trkpt>
      <trkpt lat="44.79302" lon="0.46299">
        <ele>158.4</ele>
        <time>2024-07-14T09:34:05Z</time>
      </trkpt>
      <trkpt lat="44.79306" lon="0.46293">
        <ele>158.6</ele>
        <time>2024-07-14T09:34:07Z</time>
      </trkpt>
      <trkpt lat="44.79307" lon="0.4629">
        <ele>158.7</ele>
        <time>2024-07-14T09:34:08Z</time>
      </trkpt>
      <trkpt lat="44.79309" lon="0.46287">
        <ele>158.8</ele>
        <time>2024-07-14T09:34:09Z</time>
      </trkpt>
      <trkpt lat="44.79312" lon="0.46281">
        <ele>159</ele>
        <time>2024-07-14T09:34:11Z</time>
      </trkpt>
      <trkpt lat="44.79315" lon="0.46276">
        <ele>159.2</ele>
        <time>2024-07-14T09:34:13Z</time>
      </trkpt>
      <trkpt lat="44.79317" lon="0.4627">
        <ele>159.5</ele>
        <time>2024-07-14T09:34:15Z</time>
      </trkpt>
      <trkpt lat="44.79319" lon="0.46265">
        <ele>159.7</ele>
        <time>2024-07-14T09:34:17Z</time>
      </trkpt>
      <trkpt lat="44.7932" lon="0.46259">
        <ele>160</ele>
        <time>2024-07-14T09:34:19Z</time>
      </trkpt>
      <trkpt lat="44.79322" lon="0.46254">
        <ele>160.3</ele>
        <time>2024-07-14T09:34:21Z</time>
      </trkpt>
      <trkpt lat="44.79323" lon="0.46249">
        <ele>160.6</ele>
        <time>2024-07-14T09:34:23Z</time>
      </trkpt>
      <trkpt lat="44.79324" lon="0.46244">
        <ele>160.8</ele>
        <time>2024-07-14T09:34:25Z</time>
      </trkpt>
      <trkpt lat="44.79325" lon="0.46238">
        <ele>161.1</ele>
        <time>2024-07-14T09:34:27Z</time>
      </trkpt>
      <trkpt lat="44.79326" lon="0.46233">
        <ele>161.4</ele>
        <time>2024-07-14T09:34:29Z</time>
      </trkpt>
      <trkpt lat="44.79327" lon="0.46228">
        <ele>161.6</ele>
        <time>2024-07-14T09:34:31Z</time>
      </trkpt>
      <trkpt lat="44.79328" lon="0.46222">
        <ele>161.9</ele>
        <time>2024-07-14T09:34:33Z</time>
      </trkpt>
      <trkpt lat="44.79329" lon="0.46219">
        <ele>162</ele>
        <time>2024-07-14T09:34:34Z</time>
      </trkpt>
      <trkpt lat="44.79329" lon="0.46216">
        <ele>162.1</ele>
        <time>2024-07-14T09:34:35Z</time>
      </trkpt>
      <trkpt lat="44.7933" lon="0.4621">
        <ele>162.4</ele>
        <time>2024-07-14T09:34:37Z</time>
      </trkpt>
      <trkpt lat="44.79332" lon="0.46204">
        <ele>162.6</ele>
        <time>2024-07-14T09:34:39Z</time>
      </trkpt>
      <trkpt lat="44.79333" lon="0.46198">
        <ele>162.9</ele>
        <time>2024-07-14T09:34:41Z</time>
      </trkpt>
      <trkpt lat="44.79333" lon="0.46195">
        <ele>163</ele>
        <time>2024-07-14T09:34:42Z</time>
      </trkpt>
      <trkpt lat="44.79334" lon="0.46192">
        <ele>163.1</ele>
        <time>2024-07-14T09:34:43Z</time>
      </trkpt>
      <trkpt lat="44.79335" lon="0.46186">
        <ele>163.4</ele>
        <time>2024-07-14T09:34:45Z</time>
      </trkpt>
      <trkpt lat="44.79337" lon="0.4618">
        <ele>163.6</ele>
        <time>2024-07-14T09:34:47Z</time>
      </trkpt>
      <trkpt lat="44.79337" lon="0.46177">
        <ele>163.7</ele>
        <time>2024-07-14T09:34:48Z</time>
      </trkpt>
      <trkpt lat="44.79338" lon="0.46174">
        <ele>163.9</ele>
        <time>2024-07-14T09:34:49Z</time>
      </trkpt>
      <trkpt lat="44.79339" lon="0.46168">
        <ele>164.1</ele>
        <time>2024-07-14T09:34:51Z</time>
      </trkpt>
      <trkpt lat="44.79341" lon="0.46162">
        <ele>164.4</ele>
        <time>2024-07-14T09:34:53Z</time>
      </trkpt>
      <trkpt lat="44.79342" lon="0.46155">
        <ele>164.7</ele>
        <time>2024-07-14T09:34:55Z</time>
      </trkpt>
      <trkpt lat="44.79343" lon="0.46148">
        <ele>164.9</ele>
        <time>2024-07-14T09:34:57Z</time>
      </trkpt>
      <trkpt lat="44.79343" lon="0.46145">
        <ele>165</ele>
        <time>2024-07-14T09:34:58Z</time>
      </trkpt>
      <trkpt lat="44.79344" lon="0.46142">
        <ele>165.1</ele>
        <time>2024-07-14T09:34:59Z</time>
      </trkpt>
      <trkpt lat="44.79346" lon="0.46136">
        <ele>165.3</ele>
        <time>2024-07-14T09:35:01Z</time>
      </trkpt>
      <trkpt lat="44.79347" lon="0.46129">
        <ele>165.5</ele>
        <time>2024-07-14T09:35:03Z</time>
      </trkpt>
      <trkpt lat="44.79348" lon="0.46121">
        <ele>165.6</ele>
        <time>2024-07-14T09:35:05Z</time>
      </trkpt>
      <trkpt lat="44.7935" lon="0.46112">
        <ele>165.6</ele>
        <time>2024-07-14T09:35:07Z</time>
      </trkpt>
      <trkpt lat="44.79352" lon="0.46103">
        <ele>165.6</ele>
        <time>2024-07-14T09:35:09Z</time>
      </trkpt>
      <trkpt lat="44.79354" lon="0.46091">
        <ele>165.4</ele>
        <time>2024-07-14T09:35:11Z</time>
      </trkpt>
      <trkpt lat="44.79357" lon="0.46078">
        <ele>165.1</ele>
        <time>2024-07-14T09:35:13Z</time>
      </trkpt>
      <trkpt lat="44.79359" lon="0.46071">
        <ele>164.9</ele>
        <time>2024-07-14T09:35:14Z</time>
      </trkpt>
      <trkpt lat="44.79361" lon="0.46064">
        <ele>164.7</ele>
        <time>2024-07-14T09:35:15Z</time>
      </trkpt>
      <trkpt lat="44.79365" lon="0.46049">
        <ele>164.3</ele>
        <time>2024-07-14T09:35:17Z</time>
      </trkpt>
      <trkpt lat="44.7937" lon="0.46034">
        <ele>164</ele>
        <time>2024-07-14T09:35:19Z</time>
      </trkpt>
      <trkpt lat="44.79373" lon="0.46027">
        <ele>163.9</ele>
        <time>2024-07-14T09:35:20Z</time>
      </trkpt>
      <trkpt lat="44.79376" lon="0.4602">
        <ele>163.9</ele>
        <time>2024-07-14T09:35:21Z</time>
      </trkpt>
      <trkpt lat="44.79381" lon="0.46007">
        <ele>163.8</ele>
        <time>2024-07-14T09:35:23Z</time>
      </trkpt>
      <trkpt lat="44.79384" lon="0.46002">
        <ele>163.8</ele>
        <time>2024-07-14T09:35:24Z</time>
      </trkpt>
      <trkpt lat="44.79386" lon="0.45997">
        <ele>163.9</ele>
        <time>2024-07-14T09:35:25Z</time>
      </trkpt>
      <trkpt lat="44.79389" lon="0.45989">
        <ele>163.9</ele>
        <time>2024-07-14T09:35:27Z</time>
      </trkpt>
      <trkpt lat="44.79391" lon="0.45986">
        <ele>164</ele>
        <time>2024-07-14T09:35:28Z</time>
      </trkpt>
      <trkpt lat="44.79392" lon="0.45983">
        <ele>164</ele>
        <time>2024-07-14T09:35:29Z</time>
      </trkpt>
      <trkpt lat="44.79394" lon="0.45978">
        <ele>164.2</ele>
        <time>2024-07-14T09:35:31Z</time>
      </trkpt>
      <trkpt lat="44.79394" lon="0.45975">
        <ele>164.2</ele>
        <time>2024-07-14T09:35:32Z</time>
      </trkpt>
      <trkpt lat="44.79393" lon="0.45973">
        <ele>164.4</ele>
        <time>2024-07-14T09:35:33Z</time>
      </trkpt>
      <trkpt lat="44.79389" lon="0.45971">
        <ele>163.9</ele>
        <time>2024-07-14T09:35:35Z</time>
      </trkpt>
      <trkpt lat="44.79385" lon="0.45969">
        <ele>163.5</ele>
        <time>2024-07-14T09:35:36Z</time>
      </trkpt>
      <trkpt lat="44.79381" lon="0.45966">
        <ele>163.3</ele>
        <time>2024-07-14T09:35:37Z</time>
      </trkpt>
      <trkpt lat="44.79371" lon="0.45961">
        <ele>162.3</ele>
        <time>2024-07-14T09:35:39Z</time>
      </trkpt>
      <trkpt lat="44.79362" lon="0.45955">
        <ele>161.7</ele>
        <time>2024-07-14T09:35:41Z</time>
      </trkpt>
      <trkpt lat="44.79356" lon="0.45951">
        <ele>161.7</ele>
        <time>2024-07-14T09:35:42Z</time>
      </trkpt>
      <trkpt lat="44.79351" lon="0.45948">
        <ele>161.5</ele>
        <time>2024-07-14T09:35:43Z</time>
      </trkpt>
      <trkpt lat="44.7934" lon="0.45941">
        <ele>161.4</ele>
        <time>2024-07-14T09:35:45Z</time>
      </trkpt>
      <trkpt lat="44.79328" lon="0.45933">
        <ele>160.8</ele>
        <time>2024-07-14T09:35:47Z</time>
      </trkpt>
      <trkpt lat="44.79323" lon="0.45929">
        <ele>160.7</ele>
        <time>2024-07-14T09:35:48Z</time>
      </trkpt>
      <trkpt lat="44.79319" lon="0.45924">
        <ele>160.7</ele>
        <time>2024-07-14T09:35:49Z</time>
      </trkpt>
      <trkpt lat="44.79315" lon="0.45915">
        <ele>161</ele>
        <time>2024-07-14T09:35:51Z</time>
      </trkpt>
      <trkpt lat="44.79313" lon="0.45912">
        <ele>160.8</ele>
        <time>2024-07-14T09:35:52Z</time>
      </trkpt>
      <trkpt lat="44.7931" lon="0.45911">
        <ele>160.7</ele>
        <time>2024-07-14T09:35:53Z</time>
      </trkpt>
      <trkpt lat="44.79305" lon="0.45909">
        <ele>160.6</ele>
        <time>2024-07-14T09:35:55Z</time>
      </trkpt>
      <trkpt lat="44.79305" lon="0.45905">
        <ele>160.7</ele>
        <time>2024-07-14T09:35:57Z</time>
      </trkpt>
      <trkpt lat="44.79304" lon="0.45902">
        <ele>160.5</ele>
        <time>2024-07-14T09:35:58Z</time>
      </trkpt>
      <trkpt lat="44.79302" lon="0.459">
        <ele>160.6</ele>
        <time>2024-07-14T09:35:59Z</time>
      </trkpt>
      <trkpt lat="44.79299" lon="0.45897">
        <ele>160.5</ele>
        <time>2024-07-14T09:36:01Z</time>
      </trkpt>
      <trkpt lat="44.79295" lon="0.45893">
        <ele>160.2</ele>
        <time>2024-07-14T09:36:03Z</time>
      </trkpt>
      <trkpt lat="44.79291" lon="0.45887">
        <ele>160.1</ele>
        <time>2024-07-14T09:36:05Z</time>
      </trkpt>
      <trkpt lat="44.7929" lon="0.45885">
        <ele>160.2</ele>
        <time>2024-07-14T09:36:06Z</time>
      </trkpt>
      <trkpt lat="44.79253" lon="0.4583">
        <ele>159.4</ele>
        <time>2024-07-14T09:36:29Z</time>
      </trkpt>
      <trkpt lat="44.79251" lon="0.45829">
        <ele>159.2</ele>
        <time>2024-07-14T09:36:30Z</time>
      </trkpt>
      <trkpt lat="44.79247" lon="0.45828">
        <ele>159</ele>
        <time>2024-07-14T09:36:31Z</time>
      </trkpt>
      <trkpt lat="44.7924" lon="0.45827">
        <ele>158.6</ele>
        <time>2024-07-14T09:36:33Z</time>
      </trkpt>
      <trkpt lat="44.79229" lon="0.45821">
        <ele>158</ele>
        <time>2024-07-14T09:36:35Z</time>
      </trkpt>
      <trkpt lat="44.79222" lon="0.45818">
        <ele>157.2</ele>
        <time>2024-07-14T09:36:36Z</time>
      </trkpt>
      <trkpt lat="44.79218" lon="0.45816">
        <ele>156.8</ele>
        <time>2024-07-14T09:36:37Z</time>
      </trkpt>
      <trkpt lat="44.79214" lon="0.45812">
        <ele>156.4</ele>
        <time>2024-07-14T09:36:38Z</time>
      </trkpt>
      <trkpt lat="44.79212" lon="0.4581">
        <ele>156.1</ele>
        <time>2024-07-14T09:36:39Z</time>
      </trkpt>
      <trkpt lat="44.79209" lon="0.45808">
        <ele>155.8</ele>
        <time>2024-07-14T09:36:40Z</time>
      </trkpt>
      <trkpt lat="44.79207" lon="0.45808">
        <ele>155.8</ele>
        <time>2024-07-14T09:36:41Z</time>
      </trkpt>
      <trkpt lat="44.79203" lon="0.45805">
        <ele>155</ele>
        <time>2024-07-14T09:36:43Z</time>
      </trkpt>
      <trkpt lat="44.79199" lon="0.45802">
        <ele>154.5</ele>
        <time>2024-07-14T09:36:45Z</time>
      </trkpt>
      <trkpt lat="44.79192" lon="0.45801">
        <ele>153.5</ele>
        <time>2024-07-14T09:36:47Z</time>
      </trkpt>
      <trkpt lat="44.79188" lon="0.458">
        <ele>152.5</ele>
        <time>2024-07-14T09:36:48Z</time>
      </trkpt>
      <trkpt lat="44.79183" lon="0.45801">
        <ele>152.1</ele>
        <time>2024-07-14T09:36:49Z</time>
      </trkpt>
      <trkpt lat="44.79179" lon="0.45809">
        <ele>151.4</ele>
        <time>2024-07-14T09:36:51Z</time>
      </trkpt>
      <trkpt lat="44.79174" lon="0.45821">
        <ele>151.2</ele>
        <time>2024-07-14T09:36:53Z</time>
      </trkpt>
      <trkpt lat="44.79167" lon="0.45832">
        <ele>150.6</ele>
        <time>2024-07-14T09:36:55Z</time>
      </trkpt>
      <trkpt lat="44.79164" lon="0.45836">
        <ele>149.8</ele>
        <time>2024-07-14T09:36:56Z</time>
      </trkpt>
      <trkpt lat="44.79158" lon="0.45836">
        <ele>148.9</ele>
        <time>2024-07-14T09:36:57Z</time>
      </trkpt>
      <trkpt lat="44.79152" lon="0.45834">
        <ele>148.5</ele>
        <time>2024-07-14T09:36:58Z</time>
      </trkpt>
      <trkpt lat="44.79147" lon="0.45831">
        <ele>147.6</ele>
        <time>2024-07-14T09:36:59Z</time>
      </trkpt>
      <trkpt lat="44.79137" lon="0.45825">
        <ele>146.2</ele>
        <time>2024-07-14T09:37:01Z</time>
      </trkpt>
      <trkpt lat="44.79127" lon="0.45821">
        <ele>144.6</ele>
        <time>2024-07-14T09:37:03Z</time>
      </trkpt>
      <trkpt lat="44.79119" lon="0.45817">
        <ele>143.9</ele>
        <time>2024-07-14T09:37:05Z</time>
      </trkpt>
      <trkpt lat="44.7911" lon="0.45813">
        <ele>142.9</ele>
        <time>2024-07-14T09:37:07Z</time>
      </trkpt>
      <trkpt lat="44.79103" lon="0.45809">
        <ele>142</ele>
        <time>2024-07-14T09:37:09Z</time>
      </trkpt>
      <trkpt lat="44.79098" lon="0.45802">
        <ele>141.9</ele>
        <time>2024-07-14T09:37:11Z</time>
      </trkpt>
      <trkpt lat="44.79097" lon="0.45795">
        <ele>141.7</ele>
        <time>2024-07-14T09:37:13Z</time>
      </trkpt>
      <trkpt lat="44.79098" lon="0.45793">
        <ele>142.1</ele>
        <time>2024-07-14T09:37:14Z</time>
      </trkpt>
      <trkpt lat="44.79098" lon="0.45791">
        <ele>142.1</ele>
        <time>2024-07-14T09:37:15Z</time>
      </trkpt>
      <trkpt lat="44.791" lon="0.45786">
        <ele>142.3</ele>
        <time>2024-07-14T09:37:17Z</time>
      </trkpt>
      <trkpt lat="44.79102" lon="0.45782">
        <ele>142.7</ele>
        <time>2024-07-14T09:37:19Z</time>
      </trkpt>
      <trkpt lat="44.79104" lon="0.45777">
        <ele>143.3</ele>
        <time>2024-07-14T09:37:21Z</time>
      </trkpt>
      <trkpt lat="44.79106" lon="0.45773">
        <ele>143.5</ele>
        <time>2024-07-14T09:37:23Z</time>
      </trkpt>
      <trkpt lat="44.79107" lon="0.4577">
        <ele>143.8</ele>
        <time>2024-07-14T09:37:24Z</time>
      </trkpt>
      <trkpt lat="44.79108" lon="0.45768">
        <ele>144</ele>
        <time>2024-07-14T09:37:25Z</time>
      </trkpt>
      <trkpt lat="44.79109" lon="0.45763">
        <ele>144.2</ele>
        <time>2024-07-14T09:37:27Z</time>
      </trkpt>
      <trkpt lat="44.79109" lon="0.45761">
        <ele>144.2</ele>
        <time>2024-07-14T09:37:28Z</time>
      </trkpt>
      <trkpt lat="44.79108" lon="0.45758">
        <ele>144.4</ele>
        <time>2024-07-14T09:37:29Z</time>
      </trkpt>
      <trkpt lat="44.79107" lon="0.45755">
        <ele>144.6</ele>
        <time>2024-07-14T09:37:30Z</time>
      </trkpt>
      <trkpt lat="44.79106" lon="0.45753">
        <ele>144.4</ele>
        <time>2024-07-14T09:37:31Z</time>
      </trkpt>
      <trkpt lat="44.79101" lon="0.45749">
        <ele>144.4</ele>
        <time>2024-07-14T09:37:33Z</time>
      </trkpt>
      <trkpt lat="44.79098" lon="0.45748">
        <ele>144.2</ele>
        <time>2024-07-14T09:37:34Z</time>
      </trkpt>
      <trkpt lat="44.79094" lon="0.45746">
        <ele>144.3</ele>
        <time>2024-07-14T09:37:35Z</time>
      </trkpt>
      <trkpt lat="44.79086" lon="0.45739">
        <ele>144.1</ele>
        <time>2024-07-14T09:37:37Z</time>
      </trkpt>
      <trkpt lat="44.79082" lon="0.45736">
        <ele>143.6</ele>
        <time>2024-07-14T09:37:38Z</time>
      </trkpt>
      <trkpt lat="44.79077" lon="0.45732">
        <ele>143.7</ele>
        <time>2024-07-14T09:37:39Z</time>
      </trkpt>
      <trkpt lat="44.79068" lon="0.45726">
        <ele>143.4</ele>
        <time>2024-07-14T09:37:41Z</time>
      </trkpt>
      <trkpt lat="44.79057" lon="0.45721">
        <ele>142.6</ele>
        <time>2024-07-14T09:37:43Z</time>
      </trkpt>
      <trkpt lat="44.79052" lon="0.45719">
        <ele>142.3</ele>
        <time>2024-07-14T09:37:44Z</time>
      </trkpt>
      <trkpt lat="44.79046" lon="0.45717">
        <ele>142</ele>
        <time>2024-07-14T09:37:45Z</time>
      </trkpt>
      <trkpt lat="44.79035" lon="0.45715">
        <ele>141.3</ele>
        <time>2024-07-14T09:37:47Z</time>
      </trkpt>
      <trkpt lat="44.79024" lon="0.45715">
        <ele>140.7</ele>
        <time>2024-07-14T09:37:49Z</time>
      </trkpt>
      <trkpt lat="44.79018" lon="0.45712">
        <ele>140.6</ele>
        <time>2024-07-14T09:37:51Z</time>
      </trkpt>
      <trkpt lat="44.79017" lon="0.45709">
        <ele>140.6</ele>
        <time>2024-07-14T09:37:52Z</time>
      </trkpt>
      <trkpt lat="44.79016" lon="0.45707">
        <ele>140.7</ele>
        <time>2024-07-14T09:37:53Z</time>
      </trkpt>
      <trkpt lat="44.79017" lon="0.45704">
        <ele>140.9</ele>
        <time>2024-07-14T09:37:54Z</time>
      </trkpt>
      <trkpt lat="44.79019" lon="0.45701">
        <ele>141.1</ele>
        <time>2024-07-14T09:37:55Z</time>
      </trkpt>
      <trkpt lat="44.79021" lon="0.45697">
        <ele>141.4</ele>
        <time>2024-07-14T09:37:57Z</time>
      </trkpt>
      <trkpt lat="44.79024" lon="0.45692">
        <ele>141.6</ele>
        <time>2024-07-14T09:37:59Z</time>
      </trkpt>
      <trkpt lat="44.79025" lon="0.4569">
        <ele>142</ele>
        <time>2024-07-14T09:38:00Z</time>
      </trkpt>
      <trkpt lat="44.79026" lon="0.45688">
        <ele>142</ele>
        <time>2024-07-14T09:38:01Z</time>
      </trkpt>
      <trkpt lat="44.79027" lon="0.45685">
        <ele>142.4</ele>
        <time>2024-07-14T09:38:02Z</time>
      </trkpt>
      <trkpt lat="44.79029" lon="0.45683">
        <ele>142.6</ele>
        <time>2024-07-14T09:38:03Z</time>
      </trkpt>
      <trkpt lat="44.79029" lon="0.4568">
        <ele>142.6</ele>
        <time>2024-07-14T09:38:04Z</time>
      </trkpt>
      <trkpt lat="44.79028" lon="0.45677">
        <ele>142.8</ele>
        <time>2024-07-14T09:38:05Z</time>
      </trkpt>
      <trkpt lat="44.79027" lon="0.45675">
        <ele>142.6</ele>
        <time>2024-07-14T09:38:06Z</time>
      </trkpt>
      <trkpt lat="44.79025" lon="0.45674">
        <ele>142.6</ele>
        <time>2024-07-14T09:38:07Z</time>
      </trkpt>
      <trkpt lat="44.7902" lon="0.45672">
        <ele>142.1</ele>
        <time>2024-07-14T09:38:09Z</time>
      </trkpt>
      <trkpt lat="44.79015" lon="0.45668">
        <ele>142</ele>
        <time>2024-07-14T09:38:11Z</time>
      </trkpt>
      <trkpt lat="44.79009" lon="0.45665">
        <ele>141.4</ele>
        <time>2024-07-14T09:38:13Z</time>
      </trkpt>
      <trkpt lat="44.79005" lon="0.45663">
        <ele>141.1</ele>
        <time>2024-07-14T09:38:14Z</time>
      </trkpt>
      <trkpt lat="44.79001" lon="0.45663">
        <ele>140.8</ele>
        <time>2024-07-14T09:38:15Z</time>
      </trkpt>
      <trkpt lat="44.78996" lon="0.45662">
        <ele>140.3</ele>
        <time>2024-07-14T09:38:16Z</time>
      </trkpt>
      <trkpt lat="44.78991" lon="0.4566">
        <ele>140.1</ele>
        <time>2024-07-14T09:38:17Z</time>
      </trkpt>
      <trkpt lat="44.78986" lon="0.45657">
        <ele>139.6</ele>
        <time>2024-07-14T09:38:18Z</time>
      </trkpt>
      <trkpt lat="44.78981" lon="0.45653">
        <ele>139.1</ele>
        <time>2024-07-14T09:38:19Z</time>
      </trkpt>
      <trkpt lat="44.78977" lon="0.45648">
        <ele>138.7</ele>
        <time>2024-07-14T09:38:20Z</time>
      </trkpt>
      <trkpt lat="44.78974" lon="0.45642">
        <ele>138.4</ele>
        <time>2024-07-14T09:38:21Z</time>
      </trkpt>
      <trkpt lat="44.78973" lon="0.45636">
        <ele>138.2</ele>
        <time>2024-07-14T09:38:22Z</time>
      </trkpt>
      <trkpt lat="44.78973" lon="0.4563">
        <ele>138.2</ele>
        <time>2024-07-14T09:38:23Z</time>
      </trkpt>
      <trkpt lat="44.78971" lon="0.45625">
        <ele>137.7</ele>
        <time>2024-07-14T09:38:24Z</time>
      </trkpt>
      <trkpt lat="44.78969" lon="0.4562">
        <ele>137.2</ele>
        <time>2024-07-14T09:38:25Z</time>
      </trkpt>
      <trkpt lat="44.78966" lon="0.45616">
        <ele>136.8</ele>
        <time>2024-07-14T09:38:26Z</time>
      </trkpt>
      <trkpt lat="44.78962" lon="0.45613">
        <ele>136.4</ele>
        <time>2024-07-14T09:38:27Z</time>
      </trkpt>
      <trkpt lat="44.78952" lon="0.45606">
        <ele>135.5</ele>
        <time>2024-07-14T09:38:29Z</time>
      </trkpt>
      <trkpt lat="44.78947" lon="0.45602">
        <ele>135.1</ele>
        <time>2024-07-14T09:38:30Z</time>
      </trkpt>
      <trkpt lat="44.78941" lon="0.45598">
        <ele>134.6</ele>
        <time>2024-07-14T09:38:31Z</time>
      </trkpt>
      <trkpt lat="44.78928" lon="0.45589">
        <ele>133.7</ele>
        <time>2024-07-14T09:38:33Z</time>
      </trkpt>
      <trkpt lat="44.78923" lon="0.45584">
        <ele>133.4</ele>
        <time>2024-07-14T09:38:34Z</time>
      </trkpt>
      <trkpt lat="44.7892" lon="0.45579">
        <ele>133.3</ele>
        <time>2024-07-14T09:38:35Z</time>
      </trkpt>
      <trkpt lat="44.78919" lon="0.45574">
        <ele>133.3</ele>
        <time>2024-07-14T09:38:36Z</time>
      </trkpt>
      <trkpt lat="44.78919" lon="0.45569">
        <ele>133.4</ele>
        <time>2024-07-14T09:38:37Z</time>
      </trkpt>
      <trkpt lat="44.78923" lon="0.45562">
        <ele>133.7</ele>
        <time>2024-07-14T09:38:39Z</time>
      </trkpt>
      <trkpt lat="44.78927" lon="0.45556">
        <ele>134.1</ele>
        <time>2024-07-14T09:38:41Z</time>
      </trkpt>
      <trkpt lat="44.78929" lon="0.45553">
        <ele>134.2</ele>
        <time>2024-07-14T09:38:42Z</time>
      </trkpt>
      <trkpt lat="44.7893" lon="0.45551">
        <ele>134.3</ele>
        <time>2024-07-14T09:38:43Z</time>
      </trkpt>
      <trkpt lat="44.78932" lon="0.45549">
        <ele>134.4</ele>
        <time>2024-07-14T09:38:44Z</time>
      </trkpt>
      <trkpt lat="44.78933" lon="0.45546">
        <ele>134.7</ele>
        <time>2024-07-14T09:38:45Z</time>
      </trkpt>
      <trkpt lat="44.78934" lon="0.45544">
        <ele>134.7</ele>
        <time>2024-07-14T09:38:46Z</time>
      </trkpt>
      <trkpt lat="44.78934" lon="0.4554">
        <ele>134.8</ele>
        <time>2024-07-14T09:38:47Z</time>
      </trkpt>
      <trkpt lat="44.78933" lon="0.45536">
        <ele>135</ele>
        <time>2024-07-14T09:38:48Z</time>
      </trkpt>
      <trkpt lat="44.78932" lon="0.45532">
        <ele>135</ele>
        <time>2024-07-14T09:38:49Z</time>
      </trkpt>
      <trkpt lat="44.78928" lon="0.45526">
        <ele>135.1</ele>
        <time>2024-07-14T09:38:51Z</time>
      </trkpt>
      <trkpt lat="44.78926" lon="0.45522">
        <ele>135.3</ele>
        <time>2024-07-14T09:38:52Z</time>
      </trkpt>
      <trkpt lat="44.78924" lon="0.45519">
        <ele>135.5</ele>
        <time>2024-07-14T09:38:53Z</time>
      </trkpt>
      <trkpt lat="44.7892" lon="0.45513">
        <ele>135.5</ele>
        <time>2024-07-14T09:38:55Z</time>
      </trkpt>
      <trkpt lat="44.78916" lon="0.45508">
        <ele>135.6</ele>
        <time>2024-07-14T09:38:57Z</time>
      </trkpt>
      <trkpt lat="44.78913" lon="0.45504">
        <ele>135.7</ele>
        <time>2024-07-14T09:38:59Z</time>
      </trkpt>
      <trkpt lat="44.78911" lon="0.455">
        <ele>135.8</ele>
        <time>2024-07-14T09:39:01Z</time>
      </trkpt>
      <trkpt lat="44.7891" lon="0.45499">
        <ele>136</ele>
        <time>2024-07-14T09:39:02Z</time>
      </trkpt>
      <trkpt lat="44.78908" lon="0.45497">
        <ele>135.9</ele>
        <time>2024-07-14T09:39:03Z</time>
      </trkpt>
      <trkpt lat="44.78906" lon="0.45494">
        <ele>136.2</ele>
        <time>2024-07-14T09:39:05Z</time>
      </trkpt>
      <trkpt lat="44.78904" lon="0.45491">
        <ele>136.1</ele>
        <time>2024-07-14T09:39:07Z</time>
      </trkpt>
      <trkpt lat="44.78901" lon="0.45489">
        <ele>136.3</ele>
        <time>2024-07-14T09:39:09Z</time>
      </trkpt>
      <trkpt lat="44.789" lon="0.45487">
        <ele>136.3</ele>
        <time>2024-07-14T09:39:10Z</time>
      </trkpt>
      <trkpt lat="44.78899" lon="0.45486">
        <ele>136.6</ele>
        <time>2024-07-14T09:39:11Z</time>
      </trkpt>
      <trkpt lat="44.78897" lon="0.45483">
        <ele>136.5</ele>
        <time>2024-07-14T09:39:13Z</time>
      </trkpt>
      <trkpt lat="44.78895" lon="0.45481">
        <ele>136.7</ele>
        <time>2024-07-14T09:39:15Z</time>
      </trkpt>
      <trkpt lat="44.78894" lon="0.45478">
        <ele>136.7</ele>
        <time>2024-07-14T09:39:17Z</time>
      </trkpt>
      <trkpt lat="44.78892" lon="0.45476">
        <ele>136.9</ele>
        <time>2024-07-14T09:39:18Z</time>
      </trkpt>
      <trkpt lat="44.78891" lon="0.45475">
        <ele>136.9</ele>
        <time>2024-07-14T09:39:19Z</time>
      </trkpt>
      <trkpt lat="44.78889" lon="0.45471">
        <ele>137</ele>
        <time>2024-07-14T09:39:21Z</time>
      </trkpt>
      <trkpt lat="44.78887" lon="0.45468">
        <ele>137.2</ele>
        <time>2024-07-14T09:39:23Z</time>
      </trkpt>
      <trkpt lat="44.78884" lon="0.45465">
        <ele>137.2</ele>
        <time>2024-07-14T09:39:25Z</time>
      </trkpt>
      <trkpt lat="44.78883" lon="0.45464">
        <ele>137.3</ele>
        <time>2024-07-14T09:39:26Z</time>
      </trkpt>
      <trkpt lat="44.78882" lon="0.45463">
        <ele>137.3</ele>
        <time>2024-07-14T09:39:27Z</time>
      </trkpt>
      <trkpt lat="44.7888" lon="0.4546">
        <ele>137.4</ele>
        <time>2024-07-14T09:39:29Z</time>
      </trkpt>
      <trkpt lat="44.78878" lon="0.45457">
        <ele>137.2</ele>
        <time>2024-07-14T09:39:31Z</time>
      </trkpt>
      <trkpt lat="44.78876" lon="0.45454">
        <ele>137.5</ele>
        <time>2024-07-14T09:39:33Z</time>
      </trkpt>
      <trkpt lat="44.78873" lon="0.45452">
        <ele>137.3</ele>
        <time>2024-07-14T09:39:35Z</time>
      </trkpt>
      <trkpt lat="44.78872" lon="0.45451">
        <ele>137.7</ele>
        <time>2024-07-14T09:39:36Z</time>
      </trkpt>
      <trkpt lat="44.78871" lon="0.45449">
        <ele>137.5</ele>
        <time>2024-07-14T09:39:37Z</time>
      </trkpt>
      <trkpt lat="44.78869" lon="0.45447">
        <ele>137.7</ele>
        <time>2024-07-14T09:39:39Z</time>
      </trkpt>
      <trkpt lat="44.78868" lon="0.45445">
        <ele>137.7</ele>
        <time>2024-07-14T09:39:40Z</time>
      </trkpt>
      <trkpt lat="44.78866" lon="0.45444">
        <ele>137.7</ele>
        <time>2024-07-14T09:39:41Z</time>
      </trkpt>
      <trkpt lat="44.78865" lon="0.45441">
        <ele>137.9</ele>
        <time>2024-07-14T09:39:43Z</time>
      </trkpt>
      <trkpt lat="44.78863" lon="0.45438">
        <ele>138.1</ele>
        <time>2024-07-14T09:39:45Z</time>
      </trkpt>
      <trkpt lat="44.78861" lon="0.45434">
        <ele>138.5</ele>
        <time>2024-07-14T09:39:47Z</time>
      </trkpt>
      <trkpt lat="44.7886" lon="0.45432">
        <ele>138.5</ele>
        <time>2024-07-14T09:39:48Z</time>
      </trkpt>
      <trkpt lat="44.78859" lon="0.4543">
        <ele>138.3</ele>
        <time>2024-07-14T09:39:49Z</time>
      </trkpt>
      <trkpt lat="44.78859" lon="0.45428">
        <ele>138.7</ele>
        <time>2024-07-14T09:39:50Z</time>
      </trkpt>
      <trkpt lat="44.7886" lon="0.45426">
        <ele>138.7</ele>
        <time>2024-07-14T09:39:51Z</time>
      </trkpt>
      <trkpt lat="44.7886" lon="0.45424">
        <ele>139.3</ele>
        <time>2024-07-14T09:39:52Z</time>
      </trkpt>
      <trkpt lat="44.7886" lon="0.45423">
        <ele>139.3</ele>
        <time>2024-07-14T09:39:53Z</time>
      </trkpt>
      <trkpt lat="44.78862" lon="0.4542">
        <ele>139.7</ele>
        <time>2024-07-14T09:39:55Z</time>
      </trkpt>
      <trkpt lat="44.78863" lon="0.45417">
        <ele>139.9</ele>
        <time>2024-07-14T09:39:57Z</time>
      </trkpt>
      <trkpt lat="44.78864" lon="0.45416">
        <ele>140.3</ele>
        <time>2024-07-14T09:39:58Z</time>
      </trkpt>
      <trkpt lat="44.78865" lon="0.45415">
        <ele>140.3</ele>
        <time>2024-07-14T09:39:59Z</time>
      </trkpt>
      <trkpt lat="44.78866" lon="0.45412">
        <ele>140.9</ele>
        <time>2024-07-14T09:40:01Z</time>
      </trkpt>
      <trkpt lat="44.78868" lon="0.45409">
        <ele>140.9</ele>
        <time>2024-07-14T09:40:03Z</time>
      </trkpt>
      <trkpt lat="44.78869" lon="0.45406">
        <ele>141.4</ele>
        <time>2024-07-14T09:40:05Z</time>
      </trkpt>
      <trkpt lat="44.7887" lon="0.45405">
        <ele>141.4</ele>
        <time>2024-07-14T09:40:06Z</time>
      </trkpt>
      <trkpt lat="44.78871" lon="0.45404">
        <ele>141.7</ele>
        <time>2024-07-14T09:40:07Z</time>
      </trkpt>
      <trkpt lat="44.78872" lon="0.454">
        <ele>142</ele>
        <time>2024-07-14T09:40:09Z</time>
      </trkpt>
      <trkpt lat="44.78874" lon="0.45397">
        <ele>142.2</ele>
        <time>2024-07-14T09:40:11Z</time>
      </trkpt>
      <trkpt lat="44.78874" lon="0.45394">
        <ele>142.5</ele>
        <time>2024-07-14T09:40:13Z</time>
      </trkpt>
      <trkpt lat="44.78874" lon="0.45391">
        <ele>142.8</ele>
        <time>2024-07-14T09:40:14Z</time>
      </trkpt>
      <trkpt lat="44.78873" lon="0.45389">
        <ele>142.8</ele>
        <time>2024-07-14T09:40:15Z</time>
      </trkpt>
      <trkpt lat="44.78871" lon="0.45386">
        <ele>142.8</ele>
        <time>2024-07-14T09:40:17Z</time>
      </trkpt>
      <trkpt lat="44.78867" lon="0.45382">
        <ele>142.8</ele>
        <time>2024-07-14T09:40:19Z</time>
      </trkpt>
      <trkpt lat="44.7886" lon="0.45375">
        <ele>142.5</ele>
        <time>2024-07-14T09:40:21Z</time>
      </trkpt>
      <trkpt lat="44.78855" lon="0.4537">
        <ele>142.4</ele>
        <time>2024-07-14T09:40:22Z</time>
      </trkpt>
      <trkpt lat="44.78851" lon="0.45364">
        <ele>142.4</ele>
        <time>2024-07-14T09:40:23Z</time>
      </trkpt>
      <trkpt lat="44.78841" lon="0.45352">
        <ele>142.1</ele>
        <time>2024-07-14T09:40:25Z</time>
      </trkpt>
      <trkpt lat="44.78831" lon="0.45338">
        <ele>141.8</ele>
        <time>2024-07-14T09:40:27Z</time>
      </trkpt>
      <trkpt lat="44.78826" lon="0.45333">
        <ele>141.5</ele>
        <time>2024-07-14T09:40:28Z</time>
      </trkpt>
      <trkpt lat="44.7882" lon="0.45328">
        <ele>141.3</ele>
        <time>2024-07-14T09:40:29Z</time>
      </trkpt>
      <trkpt lat="44.78809" lon="0.45324">
        <ele>140.9</ele>
        <time>2024-07-14T09:40:31Z</time>
      </trkpt>
      <trkpt lat="44.78798" lon="0.45322">
        <ele>140.5</ele>
        <time>2024-07-14T09:40:33Z</time>
      </trkpt>
      <trkpt lat="44.7879" lon="0.4532">
        <ele>140.3</ele>
        <time>2024-07-14T09:40:35Z</time>
      </trkpt>
      <trkpt lat="44.78786" lon="0.45318">
        <ele>140.4</ele>
        <time>2024-07-14T09:40:36Z</time>
      </trkpt>
      <trkpt lat="44.78783" lon="0.45317">
        <ele>140.2</ele>
        <time>2024-07-14T09:40:37Z</time>
      </trkpt>
      <trkpt lat="44.78777" lon="0.45315">
        <ele>139.9</ele>
        <time>2024-07-14T09:40:39Z</time>
      </trkpt>
      <trkpt lat="44.78772" lon="0.45311">
        <ele>140.1</ele>
        <time>2024-07-14T09:40:41Z</time>
      </trkpt>
      <trkpt lat="44.7877" lon="0.4531">
        <ele>140.3</ele>
        <time>2024-07-14T09:40:42Z</time>
      </trkpt>
      <trkpt lat="44.78767" lon="0.45309">
        <ele>140.1</ele>
        <time>2024-07-14T09:40:43Z</time>
      </trkpt>
      <trkpt lat="44.78762" lon="0.45308">
        <ele>140</ele>
        <time>2024-07-14T09:40:45Z</time>
      </trkpt>
      <trkpt lat="44.78757" lon="0.45307">
        <ele>139.9</ele>
        <time>2024-07-14T09:40:47Z</time>
      </trkpt>
      <trkpt lat="44.78753" lon="0.45305">
        <ele>140.1</ele>
        <time>2024-07-14T09:40:49Z</time>
      </trkpt>
      <trkpt lat="44.78748" lon="0.45303">
        <ele>140.1</ele>
        <time>2024-07-14T09:40:51Z</time>
      </trkpt>
      <trkpt lat="44.78743" lon="0.45299">
        <ele>140.5</ele>
        <time>2024-07-14T09:40:53Z</time>
      </trkpt>
      <trkpt lat="44.78738" lon="0.45296">
        <ele>140.9</ele>
        <time>2024-07-14T09:40:55Z</time>
      </trkpt>
      <trkpt lat="44.78736" lon="0.45295">
        <ele>140.9</ele>
        <time>2024-07-14T09:40:56Z</time>
      </trkpt>
      <trkpt lat="44.78733" lon="0.45294">
        <ele>140.9</ele>
        <time>2024-07-14T09:40:57Z</time>
      </trkpt>
      <trkpt lat="44.78727" lon="0.4529">
        <ele>141.4</ele>
        <time>2024-07-14T09:40:59Z</time>
      </trkpt>
      <trkpt lat="44.78722" lon="0.45287">
        <ele>141.8</ele>
        <time>2024-07-14T09:41:01Z</time>
      </trkpt>
      <trkpt lat="44.78716" lon="0.45284">
        <ele>142.1</ele>
        <time>2024-07-14T09:41:03Z</time>
      </trkpt>
      <trkpt lat="44.78713" lon="0.45282">
        <ele>142.2</ele>
        <time>2024-07-14T09:41:04Z</time>
      </trkpt>
      <trkpt lat="44.7871" lon="0.4528">
        <ele>142.5</ele>
        <time>2024-07-14T09:41:05Z</time>
      </trkpt>
      <trkpt lat="44.78704" lon="0.45276">
        <ele>142.6</ele>
        <time>2024-07-14T09:41:07Z</time>
      </trkpt>
      <trkpt lat="44.78698" lon="0.45272">
        <ele>142.9</ele>
        <time>2024-07-14T09:41:09Z</time>
      </trkpt>
      <trkpt lat="44.78692" lon="0.45268">
        <ele>143.3</ele>
        <time>2024-07-14T09:41:11Z</time>
      </trkpt>
      <trkpt lat="44.78686" lon="0.45264">
        <ele>143.6</ele>
        <time>2024-07-14T09:41:13Z</time>
      </trkpt>
      <trkpt lat="44.78681" lon="0.45261">
        <ele>143.9</ele>
        <time>2024-07-14T09:41:15Z</time>
      </trkpt>
      <trkpt lat="44.78673" lon="0.45255">
        <ele>144.2</ele>
        <time>2024-07-14T09:41:17Z</time>
      </trkpt>
      <trkpt lat="44.78668" lon="0.45253">
        <ele>144.6</ele>
        <time>2024-07-14T09:41:19Z</time>
      </trkpt>
      <trkpt lat="44.78664" lon="0.4525">
        <ele>144.5</ele>
        <time>2024-07-14T09:41:21Z</time>
      </trkpt>
      <trkpt lat="44.78659" lon="0.45247">
        <ele>144.8</ele>
        <time>2024-07-14T09:41:23Z</time>
      </trkpt>
      <trkpt lat="44.78657" lon="0.45246">
        <ele>145</ele>
        <time>2024-07-14T09:41:24Z</time>
      </trkpt>
      <trkpt lat="44.78655" lon="0.45244">
        <ele>145</ele>
        <time>2024-07-14T09:41:25Z</time>
      </trkpt>
      <trkpt lat="44.78651" lon="0.45241">
        <ele>145.2</ele>
        <time>2024-07-14T09:41:27Z</time>
      </trkpt>
      <trkpt lat="44.78647" lon="0.45237">
        <ele>145.4</ele>
        <time>2024-07-14T09:41:29Z</time>
      </trkpt>
      <trkpt lat="44.78642" lon="0.45233">
        <ele>145.3</ele>
        <time>2024-07-14T09:41:31Z</time>
      </trkpt>
      <trkpt lat="44.7864" lon="0.45231">
        <ele>145.4</ele>
        <time>2024-07-14T09:41:32Z</time>
      </trkpt>
      <trkpt lat="44.78637" lon="0.45229">
        <ele>145.4</ele>
        <time>2024-07-14T09:41:33Z</time>
      </trkpt>
      <trkpt lat="44.78633" lon="0.45227">
        <ele>145.5</ele>
        <time>2024-07-14T09:41:35Z</time>
      </trkpt>
      <trkpt lat="44.78629" lon="0.45223">
        <ele>145.5</ele>
        <time>2024-07-14T09:41:37Z</time>
      </trkpt>
      <trkpt lat="44.78624" lon="0.45219">
        <ele>145.5</ele>
        <time>2024-07-14T09:41:39Z</time>
      </trkpt>
      <trkpt lat="44.78618" lon="0.45214">
        <ele>145.5</ele>
        <time>2024-07-14T09:41:41Z</time>
      </trkpt>
      <trkpt lat="44.78613" lon="0.45209">
        <ele>145.4</ele>
        <time>2024-07-14T09:41:43Z</time>
      </trkpt>
      <trkpt lat="44.78607" lon="0.45203">
        <ele>145.4</ele>
        <time>2024-07-14T09:41:45Z</time>
      </trkpt>
      <trkpt lat="44.78601" lon="0.45197">
        <ele>145.3</ele>
        <time>2024-07-14T09:41:47Z</time>
      </trkpt>
      <trkpt lat="44.78598" lon="0.45194">
        <ele>145.2</ele>
        <time>2024-07-14T09:41:48Z</time>
      </trkpt>
      <trkpt lat="44.78595" lon="0.45191">
        <ele>145.2</ele>
        <time>2024-07-14T09:41:49Z</time>
      </trkpt>
      <trkpt lat="44.78588" lon="0.45185">
        <ele>145</ele>
        <time>2024-07-14T09:41:51Z</time>
      </trkpt>
      <trkpt lat="44.78585" lon="0.45183">
        <ele>144.9</ele>
        <time>2024-07-14T09:41:52Z</time>
      </trkpt>
      <trkpt lat="44.7858" lon="0.45182">
        <ele>144.8</ele>
        <time>2024-07-14T09:41:53Z</time>
      </trkpt>
      <trkpt lat="44.78572" lon="0.45179">
        <ele>144.5</ele>
        <time>2024-07-14T09:41:55Z</time>
      </trkpt>
      <trkpt lat="44.78564" lon="0.45177">
        <ele>144.3</ele>
        <time>2024-07-14T09:41:57Z</time>
      </trkpt>
      <trkpt lat="44.78557" lon="0.45176">
        <ele>144.2</ele>
        <time>2024-07-14T09:41:59Z</time>
      </trkpt>
      <trkpt lat="44.78549" lon="0.45175">
        <ele>144.1</ele>
        <time>2024-07-14T09:42:01Z</time>
      </trkpt>
      <trkpt lat="44.78546" lon="0.45174">
        <ele>144</ele>
        <time>2024-07-14T09:42:02Z</time>
      </trkpt>
      <trkpt lat="44.78542" lon="0.45173">
        <ele>144</ele>
        <time>2024-07-14T09:42:03Z</time>
      </trkpt>
      <trkpt lat="44.78535" lon="0.4517">
        <ele>144</ele>
        <time>2024-07-14T09:42:05Z</time>
      </trkpt>
      <trkpt lat="44.78527" lon="0.45168">
        <ele>143.8</ele>
        <time>2024-07-14T09:42:07Z</time>
      </trkpt>
      <trkpt lat="44.78524" lon="0.45167">
        <ele>143.9</ele>
        <time>2024-07-14T09:42:08Z</time>
      </trkpt>
      <trkpt lat="44.7852" lon="0.45166">
        <ele>143.8</ele>
        <time>2024-07-14T09:42:09Z</time>
      </trkpt>
      <trkpt lat="44.78514" lon="0.45163">
        <ele>143.9</ele>
        <time>2024-07-14T09:42:11Z</time>
      </trkpt>
      <trkpt lat="44.78507" lon="0.4516">
        <ele>144</ele>
        <time>2024-07-14T09:42:13Z</time>
      </trkpt>
      <trkpt lat="44.78501" lon="0.45156">
        <ele>143.9</ele>
        <time>2024-07-14T09:42:15Z</time>
      </trkpt>
      <trkpt lat="44.78495" lon="0.45153">
        <ele>144</ele>
        <time>2024-07-14T09:42:17Z</time>
      </trkpt>
      <trkpt lat="44.78491" lon="0.45151">
        <ele>144.1</ele>
        <time>2024-07-14T09:42:19Z</time>
      </trkpt>
      <trkpt lat="44.78488" lon="0.4515">
        <ele>144.1</ele>
        <time>2024-07-14T09:42:20Z</time>
      </trkpt>
      <trkpt lat="44.78485" lon="0.45149">
        <ele>144.1</ele>
        <time>2024-07-14T09:42:21Z</time>
      </trkpt>
      <trkpt lat="44.78479" lon="0.45147">
        <ele>144</ele>
        <time>2024-07-14T09:42:23Z</time>
      </trkpt>
      <trkpt lat="44.78471" lon="0.45147">
        <ele>143.9</ele>
        <time>2024-07-14T09:42:25Z</time>
      </trkpt>
      <trkpt lat="44.78464" lon="0.45148">
        <ele>143.8</ele>
        <time>2024-07-14T09:42:27Z</time>
      </trkpt>
      <trkpt lat="44.78457" lon="0.4515">
        <ele>143.7</ele>
        <time>2024-07-14T09:42:29Z</time>
      </trkpt>
      <trkpt lat="44.78451" lon="0.45152">
        <ele>143.2</ele>
        <time>2024-07-14T09:42:31Z</time>
      </trkpt>
      <trkpt lat="44.78448" lon="0.45153">
        <ele>143.1</ele>
        <time>2024-07-14T09:42:32Z</time>
      </trkpt>
      <trkpt lat="44.78446" lon="0.45154">
        <ele>143.1</ele>
        <time>2024-07-14T09:42:33Z</time>
      </trkpt>
      <trkpt lat="44.78441" lon="0.45155">
        <ele>143</ele>
        <time>2024-07-14T09:42:35Z</time>
      </trkpt>
      <trkpt lat="44.78436" lon="0.45156">
        <ele>142.5</ele>
        <time>2024-07-14T09:42:37Z</time>
      </trkpt>
      <trkpt lat="44.78432" lon="0.45158">
        <ele>142.5</ele>
        <time>2024-07-14T09:42:39Z</time>
      </trkpt>
      <trkpt lat="44.78428" lon="0.45159">
        <ele>142.5</ele>
        <time>2024-07-14T09:42:41Z</time>
      </trkpt>
      <trkpt lat="44.78424" lon="0.4516">
        <ele>142</ele>
        <time>2024-07-14T09:42:43Z</time>
      </trkpt>
      <trkpt lat="44.78419" lon="0.45161">
        <ele>142</ele>
        <time>2024-07-14T09:42:45Z</time>
      </trkpt>
      <trkpt lat="44.78414" lon="0.45163">
        <ele>142.1</ele>
        <time>2024-07-14T09:42:47Z</time>
      </trkpt>
      <trkpt lat="44.7841" lon="0.45164">
        <ele>142.1</ele>
        <time>2024-07-14T09:42:49Z</time>
      </trkpt>
      <trkpt lat="44.78406" lon="0.45164">
        <ele>142.3</ele>
        <time>2024-07-14T09:42:51Z</time>
      </trkpt>
      <trkpt lat="44.78404" lon="0.45165">
        <ele>141.8</ele>
        <time>2024-07-14T09:42:52Z</time>
      </trkpt>
      <trkpt lat="44.78402" lon="0.45165">
        <ele>141.9</ele>
        <time>2024-07-14T09:42:53Z</time>
      </trkpt>
      <trkpt lat="44.78398" lon="0.45166">
        <ele>142.1</ele>
        <time>2024-07-14T09:42:55Z</time>
      </trkpt>
      <trkpt lat="44.78394" lon="0.45167">
        <ele>142.2</ele>
        <time>2024-07-14T09:42:57Z</time>
      </trkpt>
      <trkpt lat="44.7839" lon="0.45166">
        <ele>142.4</ele>
        <time>2024-07-14T09:42:59Z</time>
      </trkpt>
      <trkpt lat="44.78386" lon="0.45166">
        <ele>142.5</ele>
        <time>2024-07-14T09:43:01Z</time>
      </trkpt>
      <trkpt lat="44.78382" lon="0.45165">
        <ele>142.6</ele>
        <time>2024-07-14T09:43:03Z</time>
      </trkpt>
      <trkpt lat="44.78379" lon="0.45164">
        <ele>143.1</ele>
        <time>2024-07-14T09:43:05Z</time>
      </trkpt>
      <trkpt lat="44.78376" lon="0.4516">
        <ele>143.2</ele>
        <time>2024-07-14T09:43:07Z</time>
      </trkpt>
      <trkpt lat="44.78373" lon="0.45158">
        <ele>143.6</ele>
        <time>2024-07-14T09:43:09Z</time>
      </trkpt>
      <trkpt lat="44.7837" lon="0.45155">
        <ele>143.9</ele>
        <time>2024-07-14T09:43:11Z</time>
      </trkpt>
      <trkpt lat="44.78367" lon="0.45152">
        <ele>143.9</ele>
        <time>2024-07-14T09:43:13Z</time>
      </trkpt>
      <trkpt lat="44.78364" lon="0.45151">
        <ele>143.7</ele>
        <time>2024-07-14T09:43:15Z</time>
      </trkpt>
      <trkpt lat="44.78359" lon="0.45149">
        <ele>143.5</ele>
        <time>2024-07-14T09:43:17Z</time>
      </trkpt>
      <trkpt lat="44.78357" lon="0.45148">
        <ele>143.4</ele>
        <time>2024-07-14T09:43:18Z</time>
      </trkpt>
      <trkpt lat="44.78354" lon="0.45147">
        <ele>143.3</ele>
        <time>2024-07-14T09:43:19Z</time>
      </trkpt>
      <trkpt lat="44.7835" lon="0.45145">
        <ele>143.2</ele>
        <time>2024-07-14T09:43:21Z</time>
      </trkpt>
      <trkpt lat="44.78345" lon="0.45142">
        <ele>143.2</ele>
        <time>2024-07-14T09:43:23Z</time>
      </trkpt>
      <trkpt lat="44.7834" lon="0.45141">
        <ele>143.2</ele>
        <time>2024-07-14T09:43:25Z</time>
      </trkpt>
      <trkpt lat="44.78338" lon="0.4514">
        <ele>143.2</ele>
        <time>2024-07-14T09:43:26Z</time>
      </trkpt>
      <trkpt lat="44.78335" lon="0.45139">
        <ele>143.2</ele>
        <time>2024-07-14T09:43:27Z</time>
      </trkpt>
      <trkpt lat="44.78329" lon="0.45136">
        <ele>143.2</ele>
        <time>2024-07-14T09:43:29Z</time>
      </trkpt>
      <trkpt lat="44.78324" lon="0.45134">
        <ele>143.2</ele>
        <time>2024-07-14T09:43:31Z</time>
      </trkpt>
      <trkpt lat="44.78319" lon="0.45132">
        <ele>143.2</ele>
        <time>2024-07-14T09:43:33Z</time>
      </trkpt>
      <trkpt lat="44.78314" lon="0.45129">
        <ele>143.2</ele>
        <time>2024-07-14T09:43:35Z</time>
      </trkpt>
      <trkpt lat="44.78308" lon="0.45126">
        <ele>143.2</ele>
        <time>2024-07-14T09:43:37Z</time>
      </trkpt>
      <trkpt lat="44.78303" lon="0.45124">
        <ele>143.2</ele>
        <time>2024-07-14T09:43:39Z</time>
      </trkpt>
      <trkpt lat="44.78297" lon="0.45122">
        <ele>143.2</ele>
        <time>2024-07-14T09:43:41Z</time>
      </trkpt>
      <trkpt lat="44.78292" lon="0.45119">
        <ele>143.3</ele>
        <time>2024-07-14T09:43:43Z</time>
      </trkpt>
      <trkpt lat="44.78286" lon="0.45116">
        <ele>143.3</ele>
        <time>2024-07-14T09:43:45Z</time>
      </trkpt>
      <trkpt lat="44.78281" lon="0.45114">
        <ele>143.4</ele>
        <time>2024-07-14T09:43:47Z</time>
      </trkpt>
      <trkpt lat="44.78275" lon="0.45111">
        <ele>143.6</ele>
        <time>2024-07-14T09:43:49Z</time>
      </trkpt>
      <trkpt lat="44.78271" lon="0.45109">
        <ele>143.8</ele>
        <time>2024-07-14T09:43:51Z</time>
      </trkpt>
      <trkpt lat="44.78268" lon="0.45106">
        <ele>143.9</ele>
        <time>2024-07-14T09:43:53Z</time>
      </trkpt>
      <trkpt lat="44.78267" lon="0.45104">
        <ele>144.2</ele>
        <time>2024-07-14T09:43:54Z</time>
      </trkpt>
      <trkpt lat="44.78268" lon="0.45102">
        <ele>144.2</ele>
        <time>2024-07-14T09:43:55Z</time>
      </trkpt>
      <trkpt lat="44.78269" lon="0.45098">
        <ele>144.3</ele>
        <time>2024-07-14T09:43:57Z</time>
      </trkpt>
      <trkpt lat="44.78271" lon="0.45094">
        <ele>144.5</ele>
        <time>2024-07-14T09:43:59Z</time>
      </trkpt>
      <trkpt lat="44.78272" lon="0.4509">
        <ele>144.6</ele>
        <time>2024-07-14T09:44:01Z</time>
      </trkpt>
      <trkpt lat="44.78274" lon="0.45085">
        <ele>144.8</ele>
        <time>2024-07-14T09:44:03Z</time>
      </trkpt>
      <trkpt lat="44.78275" lon="0.45081">
        <ele>145</ele>
        <time>2024-07-14T09:44:05Z</time>
      </trkpt>
      <trkpt lat="44.78276" lon="0.45076">
        <ele>145.1</ele>
        <time>2024-07-14T09:44:07Z</time>
      </trkpt>
      <trkpt lat="44.78276" lon="0.45074">
        <ele>145.3</ele>
        <time>2024-07-14T09:44:08Z</time>
      </trkpt>
      <trkpt lat="44.78277" lon="0.45072">
        <ele>145.3</ele>
        <time>2024-07-14T09:44:09Z</time>
      </trkpt>
      <trkpt lat="44.78278" lon="0.45068">
        <ele>145.4</ele>
        <time>2024-07-14T09:44:11Z</time>
      </trkpt>
      <trkpt lat="44.7828" lon="0.45063">
        <ele>145.6</ele>
        <time>2024-07-14T09:44:13Z</time>
      </trkpt>
      <trkpt lat="44.78281" lon="0.45058">
        <ele>145.8</ele>
        <time>2024-07-14T09:44:15Z</time>
      </trkpt>
      <trkpt lat="44.78282" lon="0.45054">
        <ele>145.9</ele>
        <time>2024-07-14T09:44:17Z</time>
      </trkpt>
      <trkpt lat="44.78283" lon="0.45049">
        <ele>146</ele>
        <time>2024-07-14T09:44:19Z</time>
      </trkpt>
      <trkpt lat="44.78284" lon="0.45045">
        <ele>146.2</ele>
        <time>2024-07-14T09:44:21Z</time>
      </trkpt>
      <trkpt lat="44.78285" lon="0.45043">
        <ele>146.4</ele>
        <time>2024-07-14T09:44:22Z</time>
      </trkpt>
      <trkpt lat="44.78285" lon="0.45041">
        <ele>146.4</ele>
        <time>2024-07-14T09:44:23Z</time>
      </trkpt>
      <trkpt lat="44.78287" lon="0.45036">
        <ele>146.5</ele>
        <time>2024-07-14T09:44:25Z</time>
      </trkpt>
      <trkpt lat="44.78288" lon="0.45031">
        <ele>146.6</ele>
        <time>2024-07-14T09:44:27Z</time>
      </trkpt>
      <trkpt lat="44.7829" lon="0.45027">
        <ele>146.9</ele>
        <time>2024-07-14T09:44:29Z</time>
      </trkpt>
      <trkpt lat="44.78291" lon="0.45023">
        <ele>146.9</ele>
        <time>2024-07-14T09:44:31Z</time>
      </trkpt>
      <trkpt lat="44.78292" lon="0.4502">
        <ele>147</ele>
        <time>2024-07-14T09:44:32Z</time>
      </trkpt>
      <trkpt lat="44.78291" lon="0.45018">
        <ele>147</ele>
        <time>2024-07-14T09:44:33Z</time>
      </trkpt>
      <trkpt lat="44.78291" lon="0.45017">
        <ele>147.2</ele>
        <time>2024-07-14T09:44:34Z</time>
      </trkpt>
      <trkpt lat="44.78289" lon="0.45015">
        <ele>147.2</ele>
        <time>2024-07-14T09:44:35Z</time>
      </trkpt>
      <trkpt lat="44.78286" lon="0.45013">
        <ele>147.4</ele>
        <time>2024-07-14T09:44:37Z</time>
      </trkpt>
      <trkpt lat="44.78282" lon="0.4501">
        <ele>147.4</ele>
        <time>2024-07-14T09:44:39Z</time>
      </trkpt>
      <trkpt lat="44.78281" lon="0.45006">
        <ele>147.6</ele>
        <time>2024-07-14T09:44:41Z</time>
      </trkpt>
      <trkpt lat="44.78282" lon="0.45">
        <ele>147.8</ele>
        <time>2024-07-14T09:44:43Z</time>
      </trkpt>
      <trkpt lat="44.78285" lon="0.44996">
        <ele>147.9</ele>
        <time>2024-07-14T09:44:45Z</time>
      </trkpt>
      <trkpt lat="44.78285" lon="0.44993">
        <ele>147.9</ele>
        <time>2024-07-14T09:44:46Z</time>
      </trkpt>
      <trkpt lat="44.78286" lon="0.44991">
        <ele>148</ele>
        <time>2024-07-14T09:44:47Z</time>
      </trkpt>
      <trkpt lat="44.78287" lon="0.44986">
        <ele>148.2</ele>
        <time>2024-07-14T09:44:49Z</time>
      </trkpt>
      <trkpt lat="44.78289" lon="0.44982">
        <ele>148.3</ele>
        <time>2024-07-14T09:44:51Z</time>
      </trkpt>
      <trkpt lat="44.7829" lon="0.44976">
        <ele>148.5</ele>
        <time>2024-07-14T09:44:53Z</time>
      </trkpt>
      <trkpt lat="44.78292" lon="0.44971">
        <ele>148.7</ele>
        <time>2024-07-14T09:44:55Z</time>
      </trkpt>
      <trkpt lat="44.78294" lon="0.44967">
        <ele>148.9</ele>
        <time>2024-07-14T09:44:57Z</time>
      </trkpt>
      <trkpt lat="44.78295" lon="0.44962">
        <ele>149.2</ele>
        <time>2024-07-14T09:44:59Z</time>
      </trkpt>
      <trkpt lat="44.78297" lon="0.44957">
        <ele>149.4</ele>
        <time>2024-07-14T09:45:01Z</time>
      </trkpt>
      <trkpt lat="44.78297" lon="0.44954">
        <ele>149.4</ele>
        <time>2024-07-14T09:45:02Z</time>
      </trkpt>
      <trkpt lat="44.78298" lon="0.44952">
        <ele>149.5</ele>
        <time>2024-07-14T09:45:03Z</time>
      </trkpt>
      <trkpt lat="44.783" lon="0.44946">
        <ele>149.7</ele>
        <time>2024-07-14T09:45:05Z</time>
      </trkpt>
      <trkpt lat="44.78303" lon="0.4494">
        <ele>150</ele>
        <time>2024-07-14T09:45:07Z</time>
      </trkpt>
      <trkpt lat="44.78304" lon="0.44938">
        <ele>150</ele>
        <time>2024-07-14T09:45:08Z</time>
      </trkpt>
      <trkpt lat="44.78305" lon="0.44935">
        <ele>150.2</ele>
        <time>2024-07-14T09:45:09Z</time>
      </trkpt>
      <trkpt lat="44.78307" lon="0.44929">
        <ele>150.3</ele>
        <time>2024-07-14T09:45:11Z</time>
      </trkpt>
      <trkpt lat="44.78309" lon="0.44922">
        <ele>150.5</ele>
        <time>2024-07-14T09:45:13Z</time>
      </trkpt>
      <trkpt lat="44.7831" lon="0.44915">
        <ele>150.6</ele>
        <time>2024-07-14T09:45:15Z</time>
      </trkpt>
      <trkpt lat="44.78311" lon="0.44911">
        <ele>150.6</ele>
        <time>2024-07-14T09:45:16Z</time>
      </trkpt>
      <trkpt lat="44.78312" lon="0.44908">
        <ele>150.7</ele>
        <time>2024-07-14T09:45:17Z</time>
      </trkpt>
      <trkpt lat="44.78313" lon="0.44905">
        <ele>150.7</ele>
        <time>2024-07-14T09:45:18Z</time>
      </trkpt>
      <trkpt lat="44.78314" lon="0.44902">
        <ele>150.8</ele>
        <time>2024-07-14T09:45:19Z</time>
      </trkpt>
      <trkpt lat="44.78316" lon="0.44896">
        <ele>150.8</ele>
        <time>2024-07-14T09:45:21Z</time>
      </trkpt>
      <trkpt lat="44.78318" lon="0.44889">
        <ele>150.9</ele>
        <time>2024-07-14T09:45:23Z</time>
      </trkpt>
      <trkpt lat="44.7832" lon="0.44882">
        <ele>150.9</ele>
        <time>2024-07-14T09:45:25Z</time>
      </trkpt>
      <trkpt lat="44.78322" lon="0.44876">
        <ele>150.9</ele>
        <time>2024-07-14T09:45:27Z</time>
      </trkpt>
      <trkpt lat="44.78324" lon="0.44869">
        <ele>151</ele>
        <time>2024-07-14T09:45:29Z</time>
      </trkpt>
      <trkpt lat="44.78326" lon="0.44863">
        <ele>151</ele>
        <time>2024-07-14T09:45:31Z</time>
      </trkpt>
      <trkpt lat="44.78328" lon="0.44856">
        <ele>151</ele>
        <time>2024-07-14T09:45:33Z</time>
      </trkpt>
      <trkpt lat="44.7833" lon="0.4485">
        <ele>151.1</ele>
        <time>2024-07-14T09:45:35Z</time>
      </trkpt>
      <trkpt lat="44.78331" lon="0.44846">
        <ele>151.1</ele>
        <time>2024-07-14T09:45:36Z</time>
      </trkpt>
      <trkpt lat="44.78332" lon="0.44843">
        <ele>151.1</ele>
        <time>2024-07-14T09:45:37Z</time>
      </trkpt>
      <trkpt lat="44.78334" lon="0.44835">
        <ele>151.2</ele>
        <time>2024-07-14T09:45:39Z</time>
      </trkpt>
      <trkpt lat="44.78335" lon="0.44829">
        <ele>151.2</ele>
        <time>2024-07-14T09:45:41Z</time>
      </trkpt>
      <trkpt lat="44.78337" lon="0.44822">
        <ele>151.2</ele>
        <time>2024-07-14T09:45:43Z</time>
      </trkpt>
      <trkpt lat="44.78337" lon="0.4482">
        <ele>151.2</ele>
        <time>2024-07-14T09:45:44Z</time>
      </trkpt>
      <trkpt lat="44.78337" lon="0.44817">
        <ele>151.2</ele>
        <time>2024-07-14T09:45:45Z</time>
      </trkpt>
      <trkpt lat="44.78337" lon="0.44811">
        <ele>151.3</ele>
        <time>2024-07-14T09:45:47Z</time>
      </trkpt>
      <trkpt lat="44.78337" lon="0.44808">
        <ele>151.3</ele>
        <time>2024-07-14T09:45:48Z</time>
      </trkpt>
      <trkpt lat="44.78338" lon="0.44806">
        <ele>151.3</ele>
        <time>2024-07-14T09:45:49Z</time>
      </trkpt>
      <trkpt lat="44.78338" lon="0.44804">
        <ele>151.3</ele>
        <time>2024-07-14T09:45:50Z</time>
      </trkpt>
      <trkpt lat="44.78339" lon="0.44802">
        <ele>151.3</ele>
        <time>2024-07-14T09:45:51Z</time>
      </trkpt>
      <trkpt lat="44.78339" lon="0.448">
        <ele>151.3</ele>
        <time>2024-07-14T09:45:52Z</time>
      </trkpt>
      <trkpt lat="44.78339" lon="0.44797">
        <ele>151.3</ele>
        <time>2024-07-14T09:45:53Z</time>
      </trkpt>
      <trkpt lat="44.7834" lon="0.44797">
        <ele>151.3</ele>
        <time>2024-07-14T09:45:55Z</time>
      </trkpt>
    </trkseg>
  </trk>
</gpx>